<?xml version='1.0' encoding='UTF-8'?><gpx version="1.1" creator="JPX - https://github.com/jenetics/jpx" xmlns="http://www.topografix.com/GPX/1/1"><trk><trkseg><trkpt lat="37.2870447" lon="9.8730309"><ele>4.0</ele><time>2026-05-03T08:43:48.099Z</time></trkpt><trkpt lat="37.2869699" lon="9.8730468"><ele>3.9999999999999996</ele><time>2026-05-03T08:43:52.092Z</time></trkpt><trkpt lat="37.2869184" lon="9.8730981"><ele>4.0</ele><time>2026-05-03T08:43:56.094Z</time></trkpt><trkpt lat="37.2869458" lon="9.8731735"><ele>4.0</ele><time>2026-05-03T08:44:02.103Z</time></trkpt><trkpt lat="37.2870162" lon="9.8731613"><ele>3.9999999999999996</ele><time>2026-05-03T08:44:08.079Z</time></trkpt><trkpt lat="37.2870344" lon="9.8730691"><ele>4.0</ele><time>2026-05-03T08:44:12.075Z</time></trkpt><trkpt lat="37.2870246" lon="9.872978"><ele>4.0</ele><time>2026-05-03T08:44:14.112Z</time></trkpt><trkpt lat="37.2870227" lon="9.8728807"><ele>3.9999999999999996</ele><time>2026-05-03T08:44:16.093Z</time></trkpt><trkpt lat="37.2870387" lon="9.8727495"><ele>4.0</ele><time>2026-05-03T08:44:18.103Z</time></trkpt><trkpt lat="37.2870542" lon="9.8726448"><ele>4.0</ele><time>2026-05-03T08:44:20.106Z</time></trkpt><trkpt lat="37.2870562" lon="9.8725566"><ele>4.0</ele><time>2026-05-03T08:44:23.07Z</time></trkpt><trkpt lat="37.2870424" lon="9.8724693"><ele>3.9999999999999996</ele><time>2026-05-03T08:44:25.117Z</time></trkpt><trkpt lat="37.2870116" lon="9.872338"><ele>4.0</ele><time>2026-05-03T08:44:27.086Z</time></trkpt><trkpt lat="37.2869993" lon="9.8722061"><ele>4.4</ele><time>2026-05-03T08:44:29.104Z</time></trkpt><trkpt lat="37.2869696" lon="9.8720689"><ele>4.800000000000001</ele><time>2026-05-03T08:44:31.109Z</time></trkpt><trkpt lat="37.2869351" lon="9.8719282"><ele>5.199999999999999</ele><time>2026-05-03T08:44:33.091Z</time></trkpt><trkpt lat="37.2869087" lon="9.871794"><ele>5.6</ele><time>2026-05-03T08:44:35.101Z</time></trkpt><trkpt lat="37.2868852" lon="9.8716619"><ele>6.0</ele><time>2026-05-03T08:44:37.096Z</time></trkpt><trkpt lat="37.2868681" lon="9.8715514"><ele>6.333333333333333</ele><time>2026-05-03T08:44:39.107Z</time></trkpt><trkpt lat="37.2868531" lon="9.8714483"><ele>6.666666666666666</ele><time>2026-05-03T08:44:42.106Z</time></trkpt><trkpt lat="37.2868665" lon="9.8713619"><ele>7.0</ele><time>2026-05-03T08:44:45.093Z</time></trkpt><trkpt lat="37.2869607" lon="9.8713149"><ele>7.333333333333333</ele><time>2026-05-03T08:44:47.094Z</time></trkpt><trkpt lat="37.2870398" lon="9.8712847"><ele>7.666666666666666</ele><time>2026-05-03T08:44:48.113Z</time></trkpt><trkpt lat="37.2871176" lon="9.8712621"><ele>8.0</ele><time>2026-05-03T08:44:49.107Z</time></trkpt><trkpt lat="37.2871941" lon="9.8712354"><ele>7.333333333333333</ele><time>2026-05-03T08:44:50.066Z</time></trkpt><trkpt lat="37.2872796" lon="9.8712038"><ele>6.666666666666666</ele><time>2026-05-03T08:44:51.085Z</time></trkpt><trkpt lat="37.2873558" lon="9.8711774"><ele>6.0</ele><time>2026-05-03T08:44:52.094Z</time></trkpt><trkpt lat="37.287434" lon="9.8711545"><ele>5.333333333333333</ele><time>2026-05-03T08:44:53.089Z</time></trkpt><trkpt lat="37.2875103" lon="9.8711279"><ele>4.666666666666666</ele><time>2026-05-03T08:44:54.107Z</time></trkpt><trkpt lat="37.2875719" lon="9.8711031"><ele>4.0</ele><time>2026-05-03T08:44:55.106Z</time></trkpt><trkpt lat="37.2876573" lon="9.8710895"><ele>3.9999999999999996</ele><time>2026-05-03T08:44:57.071Z</time></trkpt><trkpt lat="37.2876051" lon="9.871008"><ele>4.0</ele><time>2026-05-03T08:48:48.084Z</time></trkpt><trkpt lat="37.2875146" lon="9.8709986"><ele>4.0</ele><time>2026-05-03T08:48:50.066Z</time></trkpt><trkpt lat="37.2873931" lon="9.8710092"><ele>4.0</ele><time>2026-05-03T08:48:52.107Z</time></trkpt><trkpt lat="37.2873281" lon="9.8710262"><ele>3.9999999999999996</ele><time>2026-05-03T08:48:53.087Z</time></trkpt><trkpt lat="37.2872623" lon="9.8710392"><ele>4.0</ele><time>2026-05-03T08:48:54.1Z</time></trkpt><trkpt lat="37.2871558" lon="9.8710669"><ele>4.800000000000001</ele><time>2026-05-03T08:48:56.096Z</time></trkpt><trkpt lat="37.2870583" lon="9.871091"><ele>5.6000000000000005</ele><time>2026-05-03T08:48:58.09Z</time></trkpt><trkpt lat="37.2869569" lon="9.8711128"><ele>6.4</ele><time>2026-05-03T08:49:00.08Z</time></trkpt><trkpt lat="37.2868616" lon="9.8711363"><ele>7.2</ele><time>2026-05-03T08:49:02.065Z</time></trkpt><trkpt lat="37.2867833" lon="9.871162"><ele>8.0</ele><time>2026-05-03T08:49:04.096Z</time></trkpt><trkpt lat="37.2866962" lon="9.8711917"><ele>7.999999999999999</ele><time>2026-05-03T08:49:06.087Z</time></trkpt><trkpt lat="37.2865808" lon="9.8712385"><ele>8.0</ele><time>2026-05-03T08:49:08.089Z</time></trkpt><trkpt lat="37.2865167" lon="9.8712633"><ele>8.0</ele><time>2026-05-03T08:49:09.09Z</time></trkpt><trkpt lat="37.2864508" lon="9.8712787"><ele>8.0</ele><time>2026-05-03T08:49:10.085Z</time></trkpt><trkpt lat="37.286377" lon="9.8713099"><ele>7.999999999999999</ele><time>2026-05-03T08:49:11.085Z</time></trkpt><trkpt lat="37.2863024" lon="9.8713491"><ele>8.0</ele><time>2026-05-03T08:49:12.054Z</time></trkpt><trkpt lat="37.2862215" lon="9.87139"><ele>8.0</ele><time>2026-05-03T08:49:13.054Z</time></trkpt><trkpt lat="37.2861558" lon="9.8714451"><ele>7.999999999999999</ele><time>2026-05-03T08:49:14.057Z</time></trkpt><trkpt lat="37.2861033" lon="9.8715098"><ele>8.0</ele><time>2026-05-03T08:49:15.079Z</time></trkpt><trkpt lat="37.2860592" lon="9.8715794"><ele>8.0</ele><time>2026-05-03T08:49:16.095Z</time></trkpt><trkpt lat="37.2860084" lon="9.8716423"><ele>7.999999999999999</ele><time>2026-05-03T08:49:17.087Z</time></trkpt><trkpt lat="37.2859621" lon="9.8717041"><ele>8.0</ele><time>2026-05-03T08:49:18.095Z</time></trkpt><trkpt lat="37.2859228" lon="9.8717673"><ele>8.0</ele><time>2026-05-03T08:49:19.096Z</time></trkpt><trkpt lat="37.2858807" lon="9.8718346"><ele>7.999999999999999</ele><time>2026-05-03T08:49:20.105Z</time></trkpt><trkpt lat="37.2858326" lon="9.8719005"><ele>8.0</ele><time>2026-05-03T08:49:21.085Z</time></trkpt><trkpt lat="37.2857839" lon="9.8719616"><ele>8.0</ele><time>2026-05-03T08:49:22.096Z</time></trkpt><trkpt lat="37.2857278" lon="9.8720202"><ele>8.0</ele><time>2026-05-03T08:49:23.095Z</time></trkpt><trkpt lat="37.2856635" lon="9.8720798"><ele>7.999999999999999</ele><time>2026-05-03T08:49:24.096Z</time></trkpt><trkpt lat="37.285586" lon="9.8721392"><ele>8.0</ele><time>2026-05-03T08:49:25.078Z</time></trkpt><trkpt lat="37.2854988" lon="9.8722091"><ele>7.2</ele><time>2026-05-03T08:49:26.094Z</time></trkpt><trkpt lat="37.2854081" lon="9.8722708"><ele>6.4</ele><time>2026-05-03T08:49:27.094Z</time></trkpt><trkpt lat="37.2853217" lon="9.8723404"><ele>5.6000000000000005</ele><time>2026-05-03T08:49:28.068Z</time></trkpt><trkpt lat="37.2852349" lon="9.8724106"><ele>4.800000000000001</ele><time>2026-05-03T08:49:29.087Z</time></trkpt><trkpt lat="37.2851546" lon="9.8724814"><ele>4.0</ele><time>2026-05-03T08:49:30.093Z</time></trkpt><trkpt lat="37.2850768" lon="9.8725573"><ele>3.8000000000000003</ele><time>2026-05-03T08:49:31.082Z</time></trkpt><trkpt lat="37.2849903" lon="9.8726374"><ele>3.6000000000000005</ele><time>2026-05-03T08:49:32.106Z</time></trkpt><trkpt lat="37.2849153" lon="9.8727024"><ele>3.4</ele><time>2026-05-03T08:49:33.085Z</time></trkpt><trkpt lat="37.2848441" lon="9.8727689"><ele>3.2</ele><time>2026-05-03T08:49:34.07Z</time></trkpt><trkpt lat="37.2847782" lon="9.8728339"><ele>3.0</ele><time>2026-05-03T08:49:35.089Z</time></trkpt><trkpt lat="37.2847108" lon="9.8729033"><ele>3.0</ele><time>2026-05-03T08:49:36.09Z</time></trkpt><trkpt lat="37.2846444" lon="9.8729783"><ele>3.0</ele><time>2026-05-03T08:49:37.093Z</time></trkpt><trkpt lat="37.2845777" lon="9.8730487"><ele>3.0</ele><time>2026-05-03T08:49:38.115Z</time></trkpt><trkpt lat="37.2845119" lon="9.8731285"><ele>3.0</ele><time>2026-05-03T08:49:39.09Z</time></trkpt><trkpt lat="37.2844426" lon="9.8731998"><ele>3.0</ele><time>2026-05-03T08:49:40.079Z</time></trkpt><trkpt lat="37.2843767" lon="9.8732739"><ele>3.0</ele><time>2026-05-03T08:49:41.078Z</time></trkpt><trkpt lat="37.2843132" lon="9.8733499"><ele>3.0</ele><time>2026-05-03T08:49:42.088Z</time></trkpt><trkpt lat="37.2842464" lon="9.873426"><ele>3.0</ele><time>2026-05-03T08:49:43.075Z</time></trkpt><trkpt lat="37.2841863" lon="9.8735022"><ele>3.0</ele><time>2026-05-03T08:49:44.075Z</time></trkpt><trkpt lat="37.2841274" lon="9.8735872"><ele>3.0</ele><time>2026-05-03T08:49:45.091Z</time></trkpt><trkpt lat="37.2840706" lon="9.8736831"><ele>3.0</ele><time>2026-05-03T08:49:46.093Z</time></trkpt><trkpt lat="37.2840161" lon="9.8737797"><ele>3.0</ele><time>2026-05-03T08:49:47.078Z</time></trkpt><trkpt lat="37.2839671" lon="9.8738875"><ele>3.0</ele><time>2026-05-03T08:49:48.08Z</time></trkpt><trkpt lat="37.2839215" lon="9.8739906"><ele>3.0</ele><time>2026-05-03T08:49:49.084Z</time></trkpt><trkpt lat="37.2838694" lon="9.8740919"><ele>3.0</ele><time>2026-05-03T08:49:50.084Z</time></trkpt><trkpt lat="37.2838199" lon="9.8741961"><ele>3.0</ele><time>2026-05-03T08:49:51.093Z</time></trkpt><trkpt lat="37.2837745" lon="9.8742983"><ele>2.8333333333333335</ele><time>2026-05-03T08:49:52.06Z</time></trkpt><trkpt lat="37.283728" lon="9.8744054"><ele>2.6666666666666665</ele><time>2026-05-03T08:49:53.072Z</time></trkpt><trkpt lat="37.2836799" lon="9.8745168"><ele>2.5</ele><time>2026-05-03T08:49:54.071Z</time></trkpt><trkpt lat="37.2836344" lon="9.8746185"><ele>2.333333333333333</ele><time>2026-05-03T08:49:55.083Z</time></trkpt><trkpt lat="37.2835966" lon="9.8747065"><ele>2.1666666666666665</ele><time>2026-05-03T08:49:56.092Z</time></trkpt><trkpt lat="37.2835614" lon="9.874793"><ele>2.0</ele><time>2026-05-03T08:49:57.072Z</time></trkpt><trkpt lat="37.2835214" lon="9.8748845"><ele>1.9999999999999998</ele><time>2026-05-03T08:49:58.101Z</time></trkpt><trkpt lat="37.2834856" lon="9.874963"><ele>2.0</ele><time>2026-05-03T08:49:59.078Z</time></trkpt><trkpt lat="37.2834509" lon="9.8750452"><ele>2.0</ele><time>2026-05-03T08:50:00.08Z</time></trkpt><trkpt lat="37.2834196" lon="9.8751249"><ele>2.0</ele><time>2026-05-03T08:50:01.098Z</time></trkpt><trkpt lat="37.2833849" lon="9.8752009"><ele>1.9999999999999998</ele><time>2026-05-03T08:50:02.098Z</time></trkpt><trkpt lat="37.283344" lon="9.8752875"><ele>2.0</ele><time>2026-05-03T08:50:03.091Z</time></trkpt><trkpt lat="37.2833003" lon="9.8753813"><ele>1.9999999999999998</ele><time>2026-05-03T08:50:04.073Z</time></trkpt><trkpt lat="37.283256" lon="9.8754753"><ele>2.0</ele><time>2026-05-03T08:50:05.087Z</time></trkpt><trkpt lat="37.2832128" lon="9.8755675"><ele>2.0</ele><time>2026-05-03T08:50:06.086Z</time></trkpt><trkpt lat="37.28317" lon="9.8756639"><ele>2.0</ele><time>2026-05-03T08:50:07.076Z</time></trkpt><trkpt lat="37.283124" lon="9.8757558"><ele>1.9999999999999998</ele><time>2026-05-03T08:50:08.08Z</time></trkpt><trkpt lat="37.283075" lon="9.8758495"><ele>2.0</ele><time>2026-05-03T08:50:09.076Z</time></trkpt><trkpt lat="37.2830214" lon="9.8759398"><ele>1.9999999999999998</ele><time>2026-05-03T08:50:10.099Z</time></trkpt><trkpt lat="37.2829675" lon="9.8760242"><ele>2.0</ele><time>2026-05-03T08:50:11.081Z</time></trkpt><trkpt lat="37.2829096" lon="9.8761026"><ele>2.0</ele><time>2026-05-03T08:50:12.083Z</time></trkpt><trkpt lat="37.2828515" lon="9.8761843"><ele>2.0</ele><time>2026-05-03T08:50:13.098Z</time></trkpt><trkpt lat="37.2827905" lon="9.8762643"><ele>1.9999999999999998</ele><time>2026-05-03T08:50:14.11Z</time></trkpt><trkpt lat="37.2827262" lon="9.8763495"><ele>2.0</ele><time>2026-05-03T08:50:15.067Z</time></trkpt><trkpt lat="37.2826595" lon="9.8764252"><ele>1.9999999999999998</ele><time>2026-05-03T08:50:16.085Z</time></trkpt><trkpt lat="37.2825924" lon="9.8764997"><ele>2.0</ele><time>2026-05-03T08:50:17.09Z</time></trkpt><trkpt lat="37.2825241" lon="9.8765667"><ele>2.0</ele><time>2026-05-03T08:50:18.095Z</time></trkpt><trkpt lat="37.2824577" lon="9.876634"><ele>2.0</ele><time>2026-05-03T08:50:19.086Z</time></trkpt><trkpt lat="37.2823931" lon="9.8767009"><ele>1.9999999999999998</ele><time>2026-05-03T08:50:20.097Z</time></trkpt><trkpt lat="37.2823289" lon="9.8767639"><ele>2.0</ele><time>2026-05-03T08:50:21.093Z</time></trkpt><trkpt lat="37.2822644" lon="9.8768181"><ele>1.8333333333333333</ele><time>2026-05-03T08:50:22.084Z</time></trkpt><trkpt lat="37.2821997" lon="9.8768718"><ele>1.6666666666666665</ele><time>2026-05-03T08:50:23.077Z</time></trkpt><trkpt lat="37.2821368" lon="9.8769177"><ele>1.5</ele><time>2026-05-03T08:50:24.101Z</time></trkpt><trkpt lat="37.2820672" lon="9.8769549"><ele>1.3333333333333333</ele><time>2026-05-03T08:50:25.094Z</time></trkpt><trkpt lat="37.2819852" lon="9.876986"><ele>1.1666666666666665</ele><time>2026-05-03T08:50:26.098Z</time></trkpt><trkpt lat="37.2819015" lon="9.8770012"><ele>1.0</ele><time>2026-05-03T08:50:27.098Z</time></trkpt><trkpt lat="37.28182" lon="9.8770153"><ele>1.0</ele><time>2026-05-03T08:50:28.09Z</time></trkpt><trkpt lat="37.2817437" lon="9.8770226"><ele>1.0</ele><time>2026-05-03T08:50:29.088Z</time></trkpt><trkpt lat="37.2816597" lon="9.8770308"><ele>1.0</ele><time>2026-05-03T08:50:30.083Z</time></trkpt><trkpt lat="37.2815652" lon="9.8770407"><ele>1.0</ele><time>2026-05-03T08:50:31.104Z</time></trkpt><trkpt lat="37.2814621" lon="9.8770443"><ele>1.0</ele><time>2026-05-03T08:50:32.097Z</time></trkpt><trkpt lat="37.2813438" lon="9.8770465"><ele>1.5</ele><time>2026-05-03T08:50:33.09Z</time></trkpt><trkpt lat="37.2812232" lon="9.8770539"><ele>2.0</ele><time>2026-05-03T08:50:34.085Z</time></trkpt><trkpt lat="37.2810987" lon="9.8770604"><ele>2.5</ele><time>2026-05-03T08:50:35.092Z</time></trkpt><trkpt lat="37.2809773" lon="9.8770707"><ele>3.0</ele><time>2026-05-03T08:50:36.105Z</time></trkpt><trkpt lat="37.2808643" lon="9.8770813"><ele>3.0</ele><time>2026-05-03T08:50:37.071Z</time></trkpt><trkpt lat="37.2807574" lon="9.8770883"><ele>3.0</ele><time>2026-05-03T08:50:38.096Z</time></trkpt><trkpt lat="37.2806524" lon="9.8770998"><ele>3.0</ele><time>2026-05-03T08:50:39.072Z</time></trkpt><trkpt lat="37.2805561" lon="9.8771132"><ele>3.0</ele><time>2026-05-03T08:50:40.091Z</time></trkpt><trkpt lat="37.2804668" lon="9.8771177"><ele>3.0</ele><time>2026-05-03T08:50:41.104Z</time></trkpt><trkpt lat="37.2803829" lon="9.8771236"><ele>3.0</ele><time>2026-05-03T08:50:42.095Z</time></trkpt><trkpt lat="37.2802983" lon="9.8771319"><ele>3.0</ele><time>2026-05-03T08:50:43.085Z</time></trkpt><trkpt lat="37.2802171" lon="9.8771357"><ele>3.0</ele><time>2026-05-03T08:50:44.093Z</time></trkpt><trkpt lat="37.2801306" lon="9.8771364"><ele>3.0</ele><time>2026-05-03T08:50:45.085Z</time></trkpt><trkpt lat="37.2800451" lon="9.8771487"><ele>3.0</ele><time>2026-05-03T08:50:46.087Z</time></trkpt><trkpt lat="37.2799591" lon="9.8771604"><ele>3.0</ele><time>2026-05-03T08:50:47.086Z</time></trkpt><trkpt lat="37.2798698" lon="9.8771756"><ele>3.0</ele><time>2026-05-03T08:50:48.107Z</time></trkpt><trkpt lat="37.2797775" lon="9.8771877"><ele>3.0</ele><time>2026-05-03T08:50:49.088Z</time></trkpt><trkpt lat="37.2796886" lon="9.8772023"><ele>3.0</ele><time>2026-05-03T08:50:50.089Z</time></trkpt><trkpt lat="37.2795976" lon="9.8772195"><ele>3.0</ele><time>2026-05-03T08:50:51.105Z</time></trkpt><trkpt lat="37.2795044" lon="9.8772308"><ele>3.0</ele><time>2026-05-03T08:50:52.095Z</time></trkpt><trkpt lat="37.2794178" lon="9.8772381"><ele>3.0</ele><time>2026-05-03T08:50:53.09Z</time></trkpt><trkpt lat="37.2793347" lon="9.8772484"><ele>3.0</ele><time>2026-05-03T08:50:54.099Z</time></trkpt><trkpt lat="37.2792507" lon="9.877256"><ele>3.0</ele><time>2026-05-03T08:50:55.079Z</time></trkpt><trkpt lat="37.2791684" lon="9.8772687"><ele>3.0</ele><time>2026-05-03T08:50:56.071Z</time></trkpt><trkpt lat="37.2790823" lon="9.8772738"><ele>3.0</ele><time>2026-05-03T08:50:57.098Z</time></trkpt><trkpt lat="37.2789913" lon="9.8772779"><ele>3.0</ele><time>2026-05-03T08:50:58.081Z</time></trkpt><trkpt lat="37.2789015" lon="9.8772926"><ele>2.8333333333333335</ele><time>2026-05-03T08:50:59.087Z</time></trkpt><trkpt lat="37.2788157" lon="9.8773009"><ele>2.6666666666666665</ele><time>2026-05-03T08:51:00.087Z</time></trkpt><trkpt lat="37.2787317" lon="9.8773076"><ele>2.5</ele><time>2026-05-03T08:51:01.102Z</time></trkpt><trkpt lat="37.2786423" lon="9.8773171"><ele>2.333333333333333</ele><time>2026-05-03T08:51:02.08Z</time></trkpt><trkpt lat="37.2785588" lon="9.8773319"><ele>2.1666666666666665</ele><time>2026-05-03T08:51:03.097Z</time></trkpt><trkpt lat="37.2784845" lon="9.8773411"><ele>2.0</ele><time>2026-05-03T08:51:04.096Z</time></trkpt><trkpt lat="37.2784041" lon="9.8773499"><ele>1.9999999999999998</ele><time>2026-05-03T08:51:05.071Z</time></trkpt><trkpt lat="37.2783186" lon="9.8773632"><ele>2.0</ele><time>2026-05-03T08:51:06.098Z</time></trkpt><trkpt lat="37.2782316" lon="9.8773739"><ele>2.0</ele><time>2026-05-03T08:51:07.093Z</time></trkpt><trkpt lat="37.2781421" lon="9.8773882"><ele>2.0</ele><time>2026-05-03T08:51:08.076Z</time></trkpt><trkpt lat="37.2780514" lon="9.8774031"><ele>1.9999999999999998</ele><time>2026-05-03T08:51:09.094Z</time></trkpt><trkpt lat="37.2779617" lon="9.8774106"><ele>2.0</ele><time>2026-05-03T08:51:10.092Z</time></trkpt><trkpt lat="37.2778734" lon="9.8774177"><ele>2.1666666666666665</ele><time>2026-05-03T08:51:11.096Z</time></trkpt><trkpt lat="37.2777884" lon="9.8774308"><ele>2.333333333333333</ele><time>2026-05-03T08:51:12.099Z</time></trkpt><trkpt lat="37.2777003" lon="9.8774395"><ele>2.5</ele><time>2026-05-03T08:51:13.092Z</time></trkpt><trkpt lat="37.2776132" lon="9.877447"><ele>2.6666666666666665</ele><time>2026-05-03T08:51:14.09Z</time></trkpt><trkpt lat="37.2775252" lon="9.8774544"><ele>2.8333333333333335</ele><time>2026-05-03T08:51:15.103Z</time></trkpt><trkpt lat="37.2774353" lon="9.8774629"><ele>3.0</ele><time>2026-05-03T08:51:16.1Z</time></trkpt><trkpt lat="37.2773464" lon="9.8774736"><ele>3.8</ele><time>2026-05-03T08:51:17.103Z</time></trkpt><trkpt lat="37.277259" lon="9.8774868"><ele>4.6</ele><time>2026-05-03T08:51:18.066Z</time></trkpt><trkpt lat="37.2771649" lon="9.8774958"><ele>5.3999999999999995</ele><time>2026-05-03T08:51:19.095Z</time></trkpt><trkpt lat="37.2770717" lon="9.8775054"><ele>6.199999999999999</ele><time>2026-05-03T08:51:20.099Z</time></trkpt><trkpt lat="37.2769751" lon="9.8775223"><ele>7.0</ele><time>2026-05-03T08:51:21.104Z</time></trkpt><trkpt lat="37.2768793" lon="9.8775324"><ele>7.000000000000001</ele><time>2026-05-03T08:51:22.094Z</time></trkpt><trkpt lat="37.2767879" lon="9.8775416"><ele>7.0</ele><time>2026-05-03T08:51:23.095Z</time></trkpt><trkpt lat="37.2766949" lon="9.877549"><ele>7.0</ele><time>2026-05-03T08:51:24.095Z</time></trkpt><trkpt lat="37.2766043" lon="9.8775577"><ele>7.0</ele><time>2026-05-03T08:51:25.1Z</time></trkpt><trkpt lat="37.2765146" lon="9.8775665"><ele>7.000000000000001</ele><time>2026-05-03T08:51:26.092Z</time></trkpt><trkpt lat="37.2764319" lon="9.8775792"><ele>7.0</ele><time>2026-05-03T08:51:27.098Z</time></trkpt><trkpt lat="37.2763546" lon="9.8775877"><ele>6.714285714285714</ele><time>2026-05-03T08:51:28.098Z</time></trkpt><trkpt lat="37.2762818" lon="9.8775855"><ele>6.428571428571429</ele><time>2026-05-03T08:51:29.093Z</time></trkpt><trkpt lat="37.276206" lon="9.877568"><ele>6.142857142857142</ele><time>2026-05-03T08:51:30.095Z</time></trkpt><trkpt lat="37.2761321" lon="9.8775435"><ele>5.857142857142858</ele><time>2026-05-03T08:51:31.086Z</time></trkpt><trkpt lat="37.2760606" lon="9.8775217"><ele>5.571428571428571</ele><time>2026-05-03T08:51:32.101Z</time></trkpt><trkpt lat="37.2759921" lon="9.8774947"><ele>5.285714285714286</ele><time>2026-05-03T08:51:33.102Z</time></trkpt><trkpt lat="37.2759331" lon="9.8774589"><ele>5.0</ele><time>2026-05-03T08:51:34.091Z</time></trkpt><trkpt lat="37.2758754" lon="9.8774195"><ele>5.0</ele><time>2026-05-03T08:51:37.1Z</time></trkpt><trkpt lat="37.275812" lon="9.877368"><ele>5.0</ele><time>2026-05-03T08:51:45.07Z</time></trkpt><trkpt lat="37.2757633" lon="9.8773091"><ele>5.0</ele><time>2026-05-03T08:51:48.098Z</time></trkpt><trkpt lat="37.2757148" lon="9.8772276"><ele>5.0</ele><time>2026-05-03T08:51:51.081Z</time></trkpt><trkpt lat="37.2756582" lon="9.8771364"><ele>5.0</ele><time>2026-05-03T08:51:54.097Z</time></trkpt><trkpt lat="37.2756052" lon="9.8770533"><ele>5.0</ele><time>2026-05-03T08:51:57.077Z</time></trkpt><trkpt lat="37.2755524" lon="9.8769581"><ele>5.5</ele><time>2026-05-03T08:52:00.079Z</time></trkpt><trkpt lat="37.2755089" lon="9.8768861"><ele>6.0</ele><time>2026-05-03T08:52:02.092Z</time></trkpt><trkpt lat="37.2754615" lon="9.8768107"><ele>6.5</ele><time>2026-05-03T08:52:04.095Z</time></trkpt><trkpt lat="37.275404" lon="9.8767097"><ele>7.0</ele><time>2026-05-03T08:52:06.101Z</time></trkpt><trkpt lat="37.2753473" lon="9.8766245"><ele>7.499999999999999</ele><time>2026-05-03T08:52:08.068Z</time></trkpt><trkpt lat="37.2752797" lon="9.8765267"><ele>8.0</ele><time>2026-05-03T08:52:10.089Z</time></trkpt><trkpt lat="37.275221" lon="9.8764319"><ele>8.200000000000001</ele><time>2026-05-03T08:52:12.099Z</time></trkpt><trkpt lat="37.2751631" lon="9.8763404"><ele>8.4</ele><time>2026-05-03T08:52:14.1Z</time></trkpt><trkpt lat="37.275116" lon="9.8762541"><ele>8.600000000000001</ele><time>2026-05-03T08:52:16.057Z</time></trkpt><trkpt lat="37.2750725" lon="9.8761371"><ele>8.8</ele><time>2026-05-03T08:52:18.099Z</time></trkpt><trkpt lat="37.2750049" lon="9.8760235"><ele>9.0</ele><time>2026-05-03T08:52:20.067Z</time></trkpt><trkpt lat="37.2749387" lon="9.8759034"><ele>8.0</ele><time>2026-05-03T08:52:22.091Z</time></trkpt><trkpt lat="37.2749053" lon="9.8758347"><ele>7.0</ele><time>2026-05-03T08:52:23.08Z</time></trkpt><trkpt lat="37.2748355" lon="9.875711"><ele>6.0</ele><time>2026-05-03T08:52:25.071Z</time></trkpt><trkpt lat="37.2747923" lon="9.8756469"><ele>5.0</ele><time>2026-05-03T08:52:26.082Z</time></trkpt><trkpt lat="37.2747259" lon="9.8755292"><ele>4.0</ele><time>2026-05-03T08:52:28.088Z</time></trkpt><trkpt lat="37.274677" lon="9.8754193"><ele>3.8000000000000003</ele><time>2026-05-03T08:52:30.086Z</time></trkpt><trkpt lat="37.2746194" lon="9.8753168"><ele>3.6000000000000005</ele><time>2026-05-03T08:52:32.097Z</time></trkpt><trkpt lat="37.2745576" lon="9.8752085"><ele>3.4</ele><time>2026-05-03T08:52:34.096Z</time></trkpt><trkpt lat="37.2744963" lon="9.8751016"><ele>3.2</ele><time>2026-05-03T08:52:36.096Z</time></trkpt><trkpt lat="37.2744525" lon="9.8750089"><ele>3.0</ele><time>2026-05-03T08:52:38.056Z</time></trkpt><trkpt lat="37.2744108" lon="9.8749371"><ele>3.0</ele><time>2026-05-03T08:52:40.091Z</time></trkpt><trkpt lat="37.2743604" lon="9.874854"><ele>3.0</ele><time>2026-05-03T08:52:43.095Z</time></trkpt><trkpt lat="37.2743153" lon="9.8747716"><ele>3.0</ele><time>2026-05-03T08:52:46.101Z</time></trkpt><trkpt lat="37.2742749" lon="9.8747061"><ele>3.0</ele><time>2026-05-03T08:52:48.082Z</time></trkpt><trkpt lat="37.2742329" lon="9.8746237"><ele>3.0</ele><time>2026-05-03T08:52:50.088Z</time></trkpt><trkpt lat="37.2741788" lon="9.8745346"><ele>3.0</ele><time>2026-05-03T08:52:52.08Z</time></trkpt><trkpt lat="37.2741323" lon="9.8744354"><ele>3.0</ele><time>2026-05-03T08:52:54.102Z</time></trkpt><trkpt lat="37.2740856" lon="9.8743595"><ele>3.0</ele><time>2026-05-03T08:52:56.121Z</time></trkpt><trkpt lat="37.2740434" lon="9.8742844"><ele>3.0</ele><time>2026-05-03T08:52:59.088Z</time></trkpt><trkpt lat="37.2739819" lon="9.8741898"><ele>3.0</ele><time>2026-05-03T08:53:02.088Z</time></trkpt><trkpt lat="37.2739314" lon="9.8741038"><ele>3.0</ele><time>2026-05-03T08:53:05.099Z</time></trkpt><trkpt lat="37.273879" lon="9.8740176"><ele>3.0</ele><time>2026-05-03T08:53:08.091Z</time></trkpt><trkpt lat="37.2738331" lon="9.8739537"><ele>3.5</ele><time>2026-05-03T08:53:10.066Z</time></trkpt><trkpt lat="37.2737783" lon="9.8738658"><ele>4.0</ele><time>2026-05-03T08:53:14.093Z</time></trkpt><trkpt lat="37.2737202" lon="9.8737946"><ele>4.5</ele><time>2026-05-03T08:53:16.082Z</time></trkpt><trkpt lat="37.2736831" lon="9.8737177"><ele>5.0</ele><time>2026-05-03T08:53:18.08Z</time></trkpt><trkpt lat="37.2736615" lon="9.8736352"><ele>5.5</ele><time>2026-05-03T08:53:22.091Z</time></trkpt><trkpt lat="37.2736114" lon="9.8735682"><ele>6.0</ele><time>2026-05-03T08:53:40.077Z</time></trkpt><trkpt lat="37.2735564" lon="9.8734711"><ele>5.833333333333333</ele><time>2026-05-03T08:53:44.085Z</time></trkpt><trkpt lat="37.2735064" lon="9.8733853"><ele>5.666666666666667</ele><time>2026-05-03T08:53:46.093Z</time></trkpt><trkpt lat="37.2734562" lon="9.8732953"><ele>5.5</ele><time>2026-05-03T08:53:49.077Z</time></trkpt><trkpt lat="37.2734053" lon="9.8732088"><ele>5.333333333333334</ele><time>2026-05-03T08:53:53.087Z</time></trkpt><trkpt lat="37.2733594" lon="9.8731315"><ele>5.166666666666667</ele><time>2026-05-03T08:53:56.092Z</time></trkpt><trkpt lat="37.2733117" lon="9.8730782"><ele>5.0</ele><time>2026-05-03T08:53:59.089Z</time></trkpt><trkpt lat="37.2732559" lon="9.8729644"><ele>5.0</ele><time>2026-05-03T08:54:02.067Z</time></trkpt><trkpt lat="37.2732238" lon="9.8728881"><ele>5.0</ele><time>2026-05-03T08:54:04.09Z</time></trkpt><trkpt lat="37.2731745" lon="9.8727937"><ele>5.0</ele><time>2026-05-03T08:54:07.097Z</time></trkpt><trkpt lat="37.2731223" lon="9.8727086"><ele>5.0</ele><time>2026-05-03T08:54:10.087Z</time></trkpt><trkpt lat="37.2730617" lon="9.8726268"><ele>5.0</ele><time>2026-05-03T08:54:13.083Z</time></trkpt><trkpt lat="37.2730154" lon="9.8725381"><ele>5.0</ele><time>2026-05-03T08:54:15.093Z</time></trkpt><trkpt lat="37.2729738" lon="9.872439"><ele>5.5</ele><time>2026-05-03T08:54:17.077Z</time></trkpt><trkpt lat="37.2729365" lon="9.8723599"><ele>6.0</ele><time>2026-05-03T08:54:19.076Z</time></trkpt><trkpt lat="37.2728844" lon="9.8722802"><ele>6.5</ele><time>2026-05-03T08:54:22.087Z</time></trkpt><trkpt lat="37.2728468" lon="9.8722147"><ele>7.0</ele><time>2026-05-03T08:54:25.071Z</time></trkpt><trkpt lat="37.2728079" lon="9.8721362"><ele>7.499999999999999</ele><time>2026-05-03T08:54:34.093Z</time></trkpt><trkpt lat="37.2727599" lon="9.8720709"><ele>8.0</ele><time>2026-05-03T08:54:38.091Z</time></trkpt><trkpt lat="37.2727084" lon="9.8719813"><ele>8.0</ele><time>2026-05-03T08:54:43.09Z</time></trkpt><trkpt lat="37.2727109" lon="9.8718986"><ele>7.999999999999999</ele><time>2026-05-03T08:54:47.083Z</time></trkpt><trkpt lat="37.2727119" lon="9.87181"><ele>8.0</ele><time>2026-05-03T08:54:54.08Z</time></trkpt><trkpt lat="37.2726651" lon="9.8717496"><ele>8.0</ele><time>2026-05-03T08:55:01.072Z</time></trkpt><trkpt lat="37.2727298" lon="9.8716789"><ele>7.999999999999999</ele><time>2026-05-03T08:55:37.057Z</time></trkpt><trkpt lat="37.2727426" lon="9.8717824"><ele>8.0</ele><time>2026-05-03T08:56:28.074Z</time></trkpt><trkpt lat="37.2726673" lon="9.8717723"><ele>8.0</ele><time>2026-05-03T08:59:39.06Z</time></trkpt><trkpt lat="37.2726111" lon="9.8717193"><ele>7.833333333333333</ele><time>2026-05-03T08:59:55.072Z</time></trkpt><trkpt lat="37.2725356" lon="9.8717269"><ele>7.666666666666666</ele><time>2026-05-03T09:00:06.059Z</time></trkpt><trkpt lat="37.272486" lon="9.8716621"><ele>7.5</ele><time>2026-05-03T09:00:08.105Z</time></trkpt><trkpt lat="37.2724173" lon="9.8715679"><ele>7.333333333333334</ele><time>2026-05-03T09:00:10.052Z</time></trkpt><trkpt lat="37.2723557" lon="9.8714712"><ele>7.166666666666667</ele><time>2026-05-03T09:00:12.064Z</time></trkpt><trkpt lat="37.2723017" lon="9.8713933"><ele>7.0</ele><time>2026-05-03T09:00:14.103Z</time></trkpt><trkpt lat="37.272262" lon="9.8713263"><ele>7.000000000000001</ele><time>2026-05-03T09:00:16.079Z</time></trkpt><trkpt lat="37.2722307" lon="9.8712556"><ele>7.0</ele><time>2026-05-03T09:00:18.094Z</time></trkpt><trkpt lat="37.2721926" lon="9.8711812"><ele>7.0</ele><time>2026-05-03T09:00:20.082Z</time></trkpt><trkpt lat="37.2721106" lon="9.8711455"><ele>7.0</ele><time>2026-05-03T09:00:23.107Z</time></trkpt><trkpt lat="37.2720393" lon="9.8711914"><ele>7.000000000000001</ele><time>2026-05-03T09:00:25.099Z</time></trkpt><trkpt lat="37.2719806" lon="9.8712522"><ele>7.0</ele><time>2026-05-03T09:00:27.056Z</time></trkpt><trkpt lat="37.2719151" lon="9.8713113"><ele>7.0</ele><time>2026-05-03T09:00:29.095Z</time></trkpt><trkpt lat="37.2718404" lon="9.8713716"><ele>6.999999999999999</ele><time>2026-05-03T09:00:31.087Z</time></trkpt><trkpt lat="37.2717628" lon="9.8714541"><ele>6.999999999999999</ele><time>2026-05-03T09:00:33.101Z</time></trkpt><trkpt lat="37.2716661" lon="9.8715343"><ele>7.0</ele><time>2026-05-03T09:00:35.073Z</time></trkpt><trkpt lat="37.2715718" lon="9.87162"><ele>7.0</ele><time>2026-05-03T09:00:37.093Z</time></trkpt><trkpt lat="37.2714771" lon="9.871727"><ele>6.857142857142857</ele><time>2026-05-03T09:00:39.103Z</time></trkpt><trkpt lat="37.271427" lon="9.871782"><ele>6.714285714285714</ele><time>2026-05-03T09:00:40.099Z</time></trkpt><trkpt lat="37.2713772" lon="9.8718342"><ele>6.571428571428571</ele><time>2026-05-03T09:00:41.103Z</time></trkpt><trkpt lat="37.2713204" lon="9.8718823"><ele>6.428571428571429</ele><time>2026-05-03T09:00:42.084Z</time></trkpt><trkpt lat="37.2712609" lon="9.8719337"><ele>6.285714285714286</ele><time>2026-05-03T09:00:43.091Z</time></trkpt><trkpt lat="37.2711972" lon="9.8719856"><ele>6.142857142857142</ele><time>2026-05-03T09:00:44.097Z</time></trkpt><trkpt lat="37.2711384" lon="9.8720319"><ele>6.0</ele><time>2026-05-03T09:00:45.07Z</time></trkpt><trkpt lat="37.2710838" lon="9.8720759"><ele>6.0</ele><time>2026-05-03T09:00:46.089Z</time></trkpt><trkpt lat="37.2710246" lon="9.8721232"><ele>6.0</ele><time>2026-05-03T09:00:48.052Z</time></trkpt><trkpt lat="37.2709765" lon="9.8721879"><ele>6.0</ele><time>2026-05-03T09:00:54.054Z</time></trkpt><trkpt lat="37.2708973" lon="9.8722733"><ele>6.0</ele><time>2026-05-03T09:00:56.059Z</time></trkpt><trkpt lat="37.2708442" lon="9.8723278"><ele>6.0</ele><time>2026-05-03T09:00:57.077Z</time></trkpt><trkpt lat="37.2707532" lon="9.8724152"><ele>6.0</ele><time>2026-05-03T09:00:59.079Z</time></trkpt><trkpt lat="37.2706997" lon="9.872466"><ele>6.0</ele><time>2026-05-03T09:01:00.071Z</time></trkpt><trkpt lat="37.2706415" lon="9.8725236"><ele>6.0</ele><time>2026-05-03T09:01:01.093Z</time></trkpt><trkpt lat="37.2705904" lon="9.8725713"><ele>6.0</ele><time>2026-05-03T09:01:02.072Z</time></trkpt><trkpt lat="37.2705072" lon="9.8726535"><ele>6.0</ele><time>2026-05-03T09:01:04.08Z</time></trkpt><trkpt lat="37.2704244" lon="9.8727336"><ele>6.0</ele><time>2026-05-03T09:01:06.073Z</time></trkpt><trkpt lat="37.2703609" lon="9.8727916"><ele>6.0</ele><time>2026-05-03T09:01:08.086Z</time></trkpt><trkpt lat="37.2702889" lon="9.8728658"><ele>6.0</ele><time>2026-05-03T09:01:11.1Z</time></trkpt><trkpt lat="37.2702112" lon="9.8729414"><ele>6.0</ele><time>2026-05-03T09:01:13.112Z</time></trkpt><trkpt lat="37.2701306" lon="9.8730168"><ele>6.0</ele><time>2026-05-03T09:01:15.085Z</time></trkpt><trkpt lat="37.2700292" lon="9.8731043"><ele>6.0</ele><time>2026-05-03T09:01:17.097Z</time></trkpt><trkpt lat="37.2699269" lon="9.8731939"><ele>6.0</ele><time>2026-05-03T09:01:19.082Z</time></trkpt><trkpt lat="37.2698713" lon="9.873241"><ele>6.0</ele><time>2026-05-03T09:01:20.081Z</time></trkpt><trkpt lat="37.2698167" lon="9.8733023"><ele>6.0</ele><time>2026-05-03T09:01:21.064Z</time></trkpt><trkpt lat="37.2697786" lon="9.873382"><ele>6.0</ele><time>2026-05-03T09:01:22.086Z</time></trkpt><trkpt lat="37.2697639" lon="9.8734921"><ele>6.0</ele><time>2026-05-03T09:01:23.092Z</time></trkpt><trkpt lat="37.2697493" lon="9.8736099"><ele>6.0</ele><time>2026-05-03T09:01:24.105Z</time></trkpt><trkpt lat="37.2697323" lon="9.8737191"><ele>6.0</ele><time>2026-05-03T09:01:25.082Z</time></trkpt><trkpt lat="37.2697046" lon="9.8738181"><ele>5.333333333333333</ele><time>2026-05-03T09:01:26.092Z</time></trkpt><trkpt lat="37.2696726" lon="9.873911"><ele>4.666666666666667</ele><time>2026-05-03T09:01:27.095Z</time></trkpt><trkpt lat="37.26964" lon="9.8739963"><ele>4.0</ele><time>2026-05-03T09:01:28.087Z</time></trkpt><trkpt lat="37.2696069" lon="9.8740772"><ele>3.333333333333333</ele><time>2026-05-03T09:01:29.092Z</time></trkpt><trkpt lat="37.269575" lon="9.8741478"><ele>2.6666666666666665</ele><time>2026-05-03T09:01:30.067Z</time></trkpt><trkpt lat="37.2695325" lon="9.8742116"><ele>2.0</ele><time>2026-05-03T09:01:31.086Z</time></trkpt><trkpt lat="37.2694426" lon="9.8743105"><ele>1.75</ele><time>2026-05-03T09:01:33.084Z</time></trkpt><trkpt lat="37.269356" lon="9.874405"><ele>1.5</ele><time>2026-05-03T09:01:35.082Z</time></trkpt><trkpt lat="37.2692638" lon="9.87449"><ele>1.25</ele><time>2026-05-03T09:01:37.101Z</time></trkpt><trkpt lat="37.2691691" lon="9.8745769"><ele>1.0</ele><time>2026-05-03T09:01:39.082Z</time></trkpt><trkpt lat="37.2690761" lon="9.8746672"><ele>1.0</ele><time>2026-05-03T09:01:41.094Z</time></trkpt><trkpt lat="37.2689849" lon="9.8747494"><ele>1.0</ele><time>2026-05-03T09:01:43.088Z</time></trkpt><trkpt lat="37.2688975" lon="9.8748188"><ele>1.0</ele><time>2026-05-03T09:01:45.053Z</time></trkpt><trkpt lat="37.2688025" lon="9.8748987"><ele>1.0</ele><time>2026-05-03T09:01:47.089Z</time></trkpt><trkpt lat="37.2687477" lon="9.8749412"><ele>1.0</ele><time>2026-05-03T09:01:48.09Z</time></trkpt><trkpt lat="37.2686445" lon="9.8750282"><ele>0.8571428571428571</ele><time>2026-05-03T09:01:50.092Z</time></trkpt><trkpt lat="37.2685922" lon="9.8750788"><ele>0.7142857142857142</ele><time>2026-05-03T09:01:51.066Z</time></trkpt><trkpt lat="37.2685364" lon="9.8751277"><ele>0.5714285714285714</ele><time>2026-05-03T09:01:52.09Z</time></trkpt><trkpt lat="37.2684818" lon="9.8751776"><ele>0.42857142857142855</ele><time>2026-05-03T09:01:53.08Z</time></trkpt><trkpt lat="37.2684204" lon="9.8752318"><ele>0.2857142857142857</ele><time>2026-05-03T09:01:54.098Z</time></trkpt><trkpt lat="37.2683635" lon="9.8752904"><ele>0.14285714285714285</ele><time>2026-05-03T09:01:55.095Z</time></trkpt><trkpt lat="37.2683069" lon="9.8753424"><ele>0.0</ele><time>2026-05-03T09:01:56.098Z</time></trkpt><trkpt lat="37.2682484" lon="9.87539"><ele>0.0</ele><time>2026-05-03T09:01:57.102Z</time></trkpt><trkpt lat="37.268186" lon="9.8754428"><ele>0.0</ele><time>2026-05-03T09:01:58.063Z</time></trkpt><trkpt lat="37.2681276" lon="9.875502"><ele>0.0</ele><time>2026-05-03T09:01:59.094Z</time></trkpt><trkpt lat="37.2680637" lon="9.875551"><ele>0.0</ele><time>2026-05-03T09:02:00.083Z</time></trkpt><trkpt lat="37.2679996" lon="9.8756134"><ele>0.0</ele><time>2026-05-03T09:02:01.065Z</time></trkpt><trkpt lat="37.2679392" lon="9.8756716"><ele>0.0</ele><time>2026-05-03T09:02:02.1Z</time></trkpt><trkpt lat="37.2678801" lon="9.8757318"><ele>0.0</ele><time>2026-05-03T09:02:03.087Z</time></trkpt><trkpt lat="37.2678175" lon="9.8757866"><ele>0.0</ele><time>2026-05-03T09:02:04.097Z</time></trkpt><trkpt lat="37.2677524" lon="9.8758324"><ele>0.0</ele><time>2026-05-03T09:02:05.095Z</time></trkpt><trkpt lat="37.2676921" lon="9.8758851"><ele>0.0</ele><time>2026-05-03T09:02:06.092Z</time></trkpt><trkpt lat="37.2676332" lon="9.8759381"><ele>0.0</ele><time>2026-05-03T09:02:07.08Z</time></trkpt><trkpt lat="37.2675777" lon="9.8759847"><ele>0.0</ele><time>2026-05-03T09:02:08.098Z</time></trkpt><trkpt lat="37.267523" lon="9.8760303"><ele>0.0</ele><time>2026-05-03T09:02:09.093Z</time></trkpt><trkpt lat="37.2674666" lon="9.8760769"><ele>0.0</ele><time>2026-05-03T09:02:10.085Z</time></trkpt><trkpt lat="37.267405" lon="9.876123"><ele>0.0</ele><time>2026-05-03T09:02:11.082Z</time></trkpt><trkpt lat="37.2673389" lon="9.876182"><ele>0.0</ele><time>2026-05-03T09:02:12.091Z</time></trkpt><trkpt lat="37.2672753" lon="9.8762378"><ele>0.0</ele><time>2026-05-03T09:02:13.091Z</time></trkpt><trkpt lat="37.2672147" lon="9.8762931"><ele>0.0</ele><time>2026-05-03T09:02:14.093Z</time></trkpt><trkpt lat="37.267157" lon="9.8763465"><ele>0.0</ele><time>2026-05-03T09:02:15.082Z</time></trkpt><trkpt lat="37.2670975" lon="9.8764005"><ele>0.42857142857142855</ele><time>2026-05-03T09:02:16.095Z</time></trkpt><trkpt lat="37.2670394" lon="9.8764533"><ele>0.8571428571428571</ele><time>2026-05-03T09:02:17.094Z</time></trkpt><trkpt lat="37.2669837" lon="9.8764983"><ele>1.2857142857142856</ele><time>2026-05-03T09:02:18.092Z</time></trkpt><trkpt lat="37.2669317" lon="9.8765462"><ele>1.7142857142857142</ele><time>2026-05-03T09:02:19.094Z</time></trkpt><trkpt lat="37.2668797" lon="9.8765934"><ele>2.142857142857143</ele><time>2026-05-03T09:02:20.075Z</time></trkpt><trkpt lat="37.2668259" lon="9.8766414"><ele>2.571428571428571</ele><time>2026-05-03T09:02:21.08Z</time></trkpt><trkpt lat="37.2667725" lon="9.8766895"><ele>3.0</ele><time>2026-05-03T09:02:22.088Z</time></trkpt><trkpt lat="37.2667123" lon="9.8767395"><ele>3.3333333333333335</ele><time>2026-05-03T09:02:23.073Z</time></trkpt><trkpt lat="37.2666426" lon="9.8767924"><ele>3.666666666666667</ele><time>2026-05-03T09:02:24.093Z</time></trkpt><trkpt lat="37.2665691" lon="9.8768496"><ele>4.0</ele><time>2026-05-03T09:02:25.087Z</time></trkpt><trkpt lat="37.2664903" lon="9.8769172"><ele>4.333333333333334</ele><time>2026-05-03T09:02:26.073Z</time></trkpt><trkpt lat="37.2664166" lon="9.876982"><ele>4.666666666666667</ele><time>2026-05-03T09:02:27.086Z</time></trkpt><trkpt lat="37.2663468" lon="9.87704"><ele>5.0</ele><time>2026-05-03T09:02:28.081Z</time></trkpt><trkpt lat="37.2662805" lon="9.8770989"><ele>5.166666666666667</ele><time>2026-05-03T09:02:29.075Z</time></trkpt><trkpt lat="37.2662192" lon="9.8771562"><ele>5.333333333333334</ele><time>2026-05-03T09:02:30.058Z</time></trkpt><trkpt lat="37.2661593" lon="9.8772119"><ele>5.5</ele><time>2026-05-03T09:02:31.095Z</time></trkpt><trkpt lat="37.2661006" lon="9.8772683"><ele>5.666666666666667</ele><time>2026-05-03T09:02:32.092Z</time></trkpt><trkpt lat="37.2660386" lon="9.8773301"><ele>5.833333333333333</ele><time>2026-05-03T09:02:33.084Z</time></trkpt><trkpt lat="37.2659802" lon="9.8773897"><ele>6.0</ele><time>2026-05-03T09:02:34.086Z</time></trkpt><trkpt lat="37.2659187" lon="9.8774537"><ele>6.0</ele><time>2026-05-03T09:02:35.065Z</time></trkpt><trkpt lat="37.2658644" lon="9.8775224"><ele>6.0</ele><time>2026-05-03T09:02:36.092Z</time></trkpt><trkpt lat="37.2658143" lon="9.8775936"><ele>6.0</ele><time>2026-05-03T09:02:37.097Z</time></trkpt><trkpt lat="37.2657571" lon="9.877669"><ele>6.0</ele><time>2026-05-03T09:02:38.097Z</time></trkpt><trkpt lat="37.2656988" lon="9.8777516"><ele>6.0</ele><time>2026-05-03T09:02:39.076Z</time></trkpt><trkpt lat="37.2656363" lon="9.8778429"><ele>6.0</ele><time>2026-05-03T09:02:40.064Z</time></trkpt><trkpt lat="37.2655765" lon="9.8779419"><ele>6.0</ele><time>2026-05-03T09:02:41.092Z</time></trkpt><trkpt lat="37.2655217" lon="9.8780525"><ele>6.0</ele><time>2026-05-03T09:02:42.09Z</time></trkpt><trkpt lat="37.2654662" lon="9.8781697"><ele>6.0</ele><time>2026-05-03T09:02:43.085Z</time></trkpt><trkpt lat="37.265416" lon="9.8782869"><ele>6.0</ele><time>2026-05-03T09:02:44.088Z</time></trkpt><trkpt lat="37.2653756" lon="9.878404"><ele>6.0</ele><time>2026-05-03T09:02:45.088Z</time></trkpt><trkpt lat="37.265338" lon="9.8785197"><ele>6.0</ele><time>2026-05-03T09:02:46.063Z</time></trkpt><trkpt lat="37.2653033" lon="9.8786403"><ele>6.0</ele><time>2026-05-03T09:02:47.085Z</time></trkpt><trkpt lat="37.2652642" lon="9.8787554"><ele>6.0</ele><time>2026-05-03T09:02:48.094Z</time></trkpt><trkpt lat="37.2652291" lon="9.8788718"><ele>6.0</ele><time>2026-05-03T09:02:49.106Z</time></trkpt><trkpt lat="37.265199" lon="9.8789853"><ele>6.0</ele><time>2026-05-03T09:02:50.104Z</time></trkpt><trkpt lat="37.2651708" lon="9.8790949"><ele>6.0</ele><time>2026-05-03T09:02:51.106Z</time></trkpt><trkpt lat="37.2651467" lon="9.8792086"><ele>6.0</ele><time>2026-05-03T09:02:52.088Z</time></trkpt><trkpt lat="37.2651272" lon="9.8793185"><ele>6.0</ele><time>2026-05-03T09:02:53.091Z</time></trkpt><trkpt lat="37.2651013" lon="9.8794236"><ele>6.0</ele><time>2026-05-03T09:02:54.107Z</time></trkpt><trkpt lat="37.2650801" lon="9.8795358"><ele>6.0</ele><time>2026-05-03T09:02:55.103Z</time></trkpt><trkpt lat="37.2650648" lon="9.8796413"><ele>6.0</ele><time>2026-05-03T09:02:56.099Z</time></trkpt><trkpt lat="37.2650516" lon="9.8797492"><ele>5.6</ele><time>2026-05-03T09:02:57.104Z</time></trkpt><trkpt lat="37.2650461" lon="9.8798668"><ele>5.199999999999999</ele><time>2026-05-03T09:02:58.085Z</time></trkpt><trkpt lat="37.2650417" lon="9.8799887"><ele>4.800000000000001</ele><time>2026-05-03T09:02:59.096Z</time></trkpt><trkpt lat="37.2650346" lon="9.8801133"><ele>4.4</ele><time>2026-05-03T09:03:00.094Z</time></trkpt><trkpt lat="37.2650222" lon="9.8802362"><ele>4.0</ele><time>2026-05-03T09:03:01.091Z</time></trkpt><trkpt lat="37.2650161" lon="9.8803653"><ele>3.6</ele><time>2026-05-03T09:03:02.071Z</time></trkpt><trkpt lat="37.2650163" lon="9.8805011"><ele>3.2</ele><time>2026-05-03T09:03:03.084Z</time></trkpt><trkpt lat="37.2650239" lon="9.8806477"><ele>2.8000000000000003</ele><time>2026-05-03T09:03:04.095Z</time></trkpt><trkpt lat="37.2650265" lon="9.8807841"><ele>2.4000000000000004</ele><time>2026-05-03T09:03:05.09Z</time></trkpt><trkpt lat="37.2650347" lon="9.8809206"><ele>2.0</ele><time>2026-05-03T09:03:06.066Z</time></trkpt><trkpt lat="37.2650438" lon="9.881053"><ele>1.6</ele><time>2026-05-03T09:03:07.084Z</time></trkpt><trkpt lat="37.265053" lon="9.8811837"><ele>1.2000000000000002</ele><time>2026-05-03T09:03:08.066Z</time></trkpt><trkpt lat="37.265071" lon="9.8813151"><ele>0.8</ele><time>2026-05-03T09:03:09.087Z</time></trkpt><trkpt lat="37.2650788" lon="9.8814416"><ele>0.4</ele><time>2026-05-03T09:03:10.058Z</time></trkpt><trkpt lat="37.2650842" lon="9.8815644"><ele>0.0</ele><time>2026-05-03T09:03:11.091Z</time></trkpt><trkpt lat="37.2650922" lon="9.8816859"><ele>0.2</ele><time>2026-05-03T09:03:12.065Z</time></trkpt><trkpt lat="37.2650949" lon="9.8818028"><ele>0.4</ele><time>2026-05-03T09:03:13.071Z</time></trkpt><trkpt lat="37.2650984" lon="9.8819208"><ele>0.6000000000000001</ele><time>2026-05-03T09:03:14.065Z</time></trkpt><trkpt lat="37.2651032" lon="9.8820435"><ele>0.8</ele><time>2026-05-03T09:03:15.072Z</time></trkpt><trkpt lat="37.2651079" lon="9.8821669"><ele>1.0</ele><time>2026-05-03T09:03:16.083Z</time></trkpt><trkpt lat="37.2651117" lon="9.8822935"><ele>1.0</ele><time>2026-05-03T09:03:17.085Z</time></trkpt><trkpt lat="37.2651084" lon="9.8824176"><ele>1.0</ele><time>2026-05-03T09:03:18.086Z</time></trkpt><trkpt lat="37.2650994" lon="9.8825461"><ele>1.0</ele><time>2026-05-03T09:03:19.089Z</time></trkpt><trkpt lat="37.2650908" lon="9.8826854"><ele>1.0</ele><time>2026-05-03T09:03:20.07Z</time></trkpt><trkpt lat="37.2650784" lon="9.8828349"><ele>1.0</ele><time>2026-05-03T09:03:21.084Z</time></trkpt><trkpt lat="37.2650621" lon="9.8829781"><ele>1.2000000000000002</ele><time>2026-05-03T09:03:22.091Z</time></trkpt><trkpt lat="37.2650493" lon="9.8831199"><ele>1.4000000000000001</ele><time>2026-05-03T09:03:23.095Z</time></trkpt><trkpt lat="37.2650369" lon="9.8832501"><ele>1.6</ele><time>2026-05-03T09:03:24.093Z</time></trkpt><trkpt lat="37.2650249" lon="9.8833778"><ele>1.8</ele><time>2026-05-03T09:03:25.076Z</time></trkpt><trkpt lat="37.265009" lon="9.8835095"><ele>2.0</ele><time>2026-05-03T09:03:26.096Z</time></trkpt><trkpt lat="37.2649975" lon="9.8836443"><ele>2.0</ele><time>2026-05-03T09:03:27.092Z</time></trkpt><trkpt lat="37.2649853" lon="9.883776"><ele>2.0</ele><time>2026-05-03T09:03:28.097Z</time></trkpt><trkpt lat="37.2649718" lon="9.8839089"><ele>2.0</ele><time>2026-05-03T09:03:29.096Z</time></trkpt><trkpt lat="37.2649553" lon="9.8840361"><ele>2.0</ele><time>2026-05-03T09:03:30.095Z</time></trkpt><trkpt lat="37.2649418" lon="9.8841687"><ele>2.0</ele><time>2026-05-03T09:03:31.116Z</time></trkpt><trkpt lat="37.2649252" lon="9.8842928"><ele>1.9999999999999998</ele><time>2026-05-03T09:03:32.071Z</time></trkpt><trkpt lat="37.2649091" lon="9.8844107"><ele>2.0</ele><time>2026-05-03T09:03:33.091Z</time></trkpt><trkpt lat="37.264895" lon="9.8845295"><ele>2.0</ele><time>2026-05-03T09:03:34.097Z</time></trkpt><trkpt lat="37.2648785" lon="9.8846396"><ele>2.0</ele><time>2026-05-03T09:03:35.102Z</time></trkpt><trkpt lat="37.2648631" lon="9.8847478"><ele>1.9999999999999998</ele><time>2026-05-03T09:03:36.059Z</time></trkpt><trkpt lat="37.2648467" lon="9.8848474"><ele>2.0</ele><time>2026-05-03T09:03:37.097Z</time></trkpt><trkpt lat="37.2648315" lon="9.8849455"><ele>2.0</ele><time>2026-05-03T09:03:38.089Z</time></trkpt><trkpt lat="37.2648168" lon="9.8850393"><ele>2.0</ele><time>2026-05-03T09:03:39.093Z</time></trkpt><trkpt lat="37.2647858" lon="9.8851808"><ele>2.0</ele><time>2026-05-03T09:03:41.096Z</time></trkpt><trkpt lat="37.2647396" lon="9.8853024"><ele>2.0</ele><time>2026-05-03T09:03:43.084Z</time></trkpt><trkpt lat="37.2646923" lon="9.8854226"><ele>2.0</ele><time>2026-05-03T09:03:45.075Z</time></trkpt><trkpt lat="37.2647042" lon="9.8855759"><ele>1.8333333333333333</ele><time>2026-05-03T09:03:47.097Z</time></trkpt><trkpt lat="37.2647229" lon="9.8856563"><ele>1.6666666666666665</ele><time>2026-05-03T09:03:48.09Z</time></trkpt><trkpt lat="37.2647376" lon="9.8857378"><ele>1.5</ele><time>2026-05-03T09:03:49.087Z</time></trkpt><trkpt lat="37.2647153" lon="9.8859044"><ele>1.3333333333333333</ele><time>2026-05-03T09:03:51.093Z</time></trkpt><trkpt lat="37.2646762" lon="9.8860011"><ele>1.1666666666666665</ele><time>2026-05-03T09:03:52.091Z</time></trkpt><trkpt lat="37.2646366" lon="9.8861088"><ele>1.0</ele><time>2026-05-03T09:03:53.091Z</time></trkpt><trkpt lat="37.2646053" lon="9.8862302"><ele>1.0</ele><time>2026-05-03T09:03:54.089Z</time></trkpt><trkpt lat="37.2645741" lon="9.886348"><ele>1.0</ele><time>2026-05-03T09:03:55.091Z</time></trkpt><trkpt lat="37.2645516" lon="9.8864705"><ele>1.0</ele><time>2026-05-03T09:03:56.089Z</time></trkpt><trkpt lat="37.2645281" lon="9.8865849"><ele>1.0</ele><time>2026-05-03T09:03:57.093Z</time></trkpt><trkpt lat="37.2645073" lon="9.8866994"><ele>1.0</ele><time>2026-05-03T09:03:58.095Z</time></trkpt><trkpt lat="37.2644818" lon="9.8868109"><ele>1.0</ele><time>2026-05-03T09:03:59.092Z</time></trkpt><trkpt lat="37.2644462" lon="9.886922"><ele>1.0</ele><time>2026-05-03T09:04:00.079Z</time></trkpt><trkpt lat="37.2644052" lon="9.8870224"><ele>1.0</ele><time>2026-05-03T09:04:01.088Z</time></trkpt><trkpt lat="37.2643627" lon="9.8871274"><ele>1.0</ele><time>2026-05-03T09:04:02.112Z</time></trkpt><trkpt lat="37.2643173" lon="9.887227"><ele>1.0</ele><time>2026-05-03T09:04:03.092Z</time></trkpt><trkpt lat="37.2642692" lon="9.8873194"><ele>1.0</ele><time>2026-05-03T09:04:04.113Z</time></trkpt><trkpt lat="37.2642184" lon="9.8874171"><ele>1.0</ele><time>2026-05-03T09:04:05.099Z</time></trkpt><trkpt lat="37.2641714" lon="9.8875131"><ele>1.0</ele><time>2026-05-03T09:04:06.089Z</time></trkpt><trkpt lat="37.2641219" lon="9.8876065"><ele>1.0</ele><time>2026-05-03T09:04:07.094Z</time></trkpt><trkpt lat="37.2640667" lon="9.8877004"><ele>1.0</ele><time>2026-05-03T09:04:08.069Z</time></trkpt><trkpt lat="37.264013" lon="9.8877884"><ele>0.9999999999999999</ele><time>2026-05-03T09:04:09.085Z</time></trkpt><trkpt lat="37.2639606" lon="9.8878816"><ele>1.0</ele><time>2026-05-03T09:04:10.084Z</time></trkpt><trkpt lat="37.2639101" lon="9.887974"><ele>1.0</ele><time>2026-05-03T09:04:11.084Z</time></trkpt><trkpt lat="37.2638585" lon="9.8880633"><ele>1.0</ele><time>2026-05-03T09:04:12.073Z</time></trkpt><trkpt lat="37.263811" lon="9.8881533"><ele>0.9999999999999999</ele><time>2026-05-03T09:04:13.088Z</time></trkpt><trkpt lat="37.2637587" lon="9.8882414"><ele>1.0</ele><time>2026-05-03T09:04:14.095Z</time></trkpt><trkpt lat="37.2637079" lon="9.8883311"><ele>0.9999999999999999</ele><time>2026-05-03T09:04:15.081Z</time></trkpt><trkpt lat="37.2636576" lon="9.8884212"><ele>1.0</ele><time>2026-05-03T09:04:16.089Z</time></trkpt><trkpt lat="37.2636099" lon="9.8885086"><ele>1.0</ele><time>2026-05-03T09:04:17.091Z</time></trkpt><trkpt lat="37.2635613" lon="9.8886011"><ele>1.0</ele><time>2026-05-03T09:04:18.087Z</time></trkpt><trkpt lat="37.2635133" lon="9.8886867"><ele>0.9999999999999999</ele><time>2026-05-03T09:04:19.092Z</time></trkpt><trkpt lat="37.2634729" lon="9.8887731"><ele>1.0</ele><time>2026-05-03T09:04:20.086Z</time></trkpt><trkpt lat="37.2634323" lon="9.8888376"><ele>0.8</ele><time>2026-05-03T09:04:21.095Z</time></trkpt><trkpt lat="37.2633665" lon="9.8889433"><ele>0.6000000000000001</ele><time>2026-05-03T09:04:23.094Z</time></trkpt><trkpt lat="37.2633169" lon="9.8890199"><ele>0.4</ele><time>2026-05-03T09:04:26.085Z</time></trkpt><trkpt lat="37.2632468" lon="9.8890802"><ele>0.2</ele><time>2026-05-03T09:04:30.093Z</time></trkpt><trkpt lat="37.2631694" lon="9.8891392"><ele>0.0</ele><time>2026-05-03T09:04:32.101Z</time></trkpt><trkpt lat="37.2630987" lon="9.8892212"><ele>0.0</ele><time>2026-05-03T09:04:34.084Z</time></trkpt><trkpt lat="37.26307" lon="9.8893335"><ele>0.0</ele><time>2026-05-03T09:04:36.088Z</time></trkpt><trkpt lat="37.2630556" lon="9.889472"><ele>0.0</ele><time>2026-05-03T09:04:38.083Z</time></trkpt><trkpt lat="37.2630021" lon="9.8896121"><ele>0.0</ele><time>2026-05-03T09:04:40.091Z</time></trkpt><trkpt lat="37.2629639" lon="9.8896823"><ele>0.0</ele><time>2026-05-03T09:04:41.079Z</time></trkpt><trkpt lat="37.2628918" lon="9.8898118"><ele>0.0</ele><time>2026-05-03T09:04:43.088Z</time></trkpt><trkpt lat="37.262854" lon="9.8898801"><ele>0.0</ele><time>2026-05-03T09:04:44.093Z</time></trkpt><trkpt lat="37.2628161" lon="9.8899497"><ele>0.0</ele><time>2026-05-03T09:04:45.067Z</time></trkpt><trkpt lat="37.262778" lon="9.8900254"><ele>0.0</ele><time>2026-05-03T09:04:46.083Z</time></trkpt><trkpt lat="37.2627387" lon="9.8900976"><ele>0.0</ele><time>2026-05-03T09:04:47.079Z</time></trkpt><trkpt lat="37.2626989" lon="9.8901686"><ele>0.0</ele><time>2026-05-03T09:04:48.065Z</time></trkpt><trkpt lat="37.2626609" lon="9.8902536"><ele>0.0</ele><time>2026-05-03T09:04:49.091Z</time></trkpt><trkpt lat="37.2626148" lon="9.8903453"><ele>0.25</ele><time>2026-05-03T09:04:50.084Z</time></trkpt><trkpt lat="37.2625579" lon="9.8904406"><ele>0.5</ele><time>2026-05-03T09:04:51.081Z</time></trkpt><trkpt lat="37.2624988" lon="9.8905558"><ele>0.75</ele><time>2026-05-03T09:04:52.064Z</time></trkpt><trkpt lat="37.2624382" lon="9.890696"><ele>1.0</ele><time>2026-05-03T09:04:53.086Z</time></trkpt><trkpt lat="37.2623597" lon="9.890871"><ele>0.6666666666666666</ele><time>2026-05-03T09:04:54.073Z</time></trkpt><trkpt lat="37.262286" lon="9.8910549"><ele>0.3333333333333333</ele><time>2026-05-03T09:04:55.075Z</time></trkpt><trkpt lat="37.2622085" lon="9.8912421"><ele>0.0</ele><time>2026-05-03T09:04:56.089Z</time></trkpt><trkpt lat="37.2621384" lon="9.8914136"><ele>0.0</ele><time>2026-05-03T09:04:57.083Z</time></trkpt><trkpt lat="37.2620847" lon="9.8915697"><ele>0.0</ele><time>2026-05-03T09:04:58.085Z</time></trkpt><trkpt lat="37.262025" lon="9.8917292"><ele>0.0</ele><time>2026-05-03T09:04:59.091Z</time></trkpt><trkpt lat="37.2619637" lon="9.8918999"><ele>0.0</ele><time>2026-05-03T09:05:00.076Z</time></trkpt><trkpt lat="37.2618947" lon="9.8920623"><ele>0.3333333333333333</ele><time>2026-05-03T09:05:01.08Z</time></trkpt><trkpt lat="37.2618233" lon="9.8922272"><ele>0.6666666666666666</ele><time>2026-05-03T09:05:02.075Z</time></trkpt><trkpt lat="37.2617425" lon="9.892403"><ele>1.0</ele><time>2026-05-03T09:05:03.085Z</time></trkpt><trkpt lat="37.261656" lon="9.892595"><ele>1.0</ele><time>2026-05-03T09:05:04.088Z</time></trkpt><trkpt lat="37.2615607" lon="9.8927783"><ele>1.0</ele><time>2026-05-03T09:05:05.08Z</time></trkpt><trkpt lat="37.2614549" lon="9.8929673"><ele>1.0</ele><time>2026-05-03T09:05:06.081Z</time></trkpt><trkpt lat="37.2613516" lon="9.8931508"><ele>1.3333333333333333</ele><time>2026-05-03T09:05:07.086Z</time></trkpt><trkpt lat="37.2612435" lon="9.893327"><ele>1.6666666666666665</ele><time>2026-05-03T09:05:08.08Z</time></trkpt><trkpt lat="37.2611383" lon="9.8934907"><ele>2.0</ele><time>2026-05-03T09:05:09.053Z</time></trkpt><trkpt lat="37.261035" lon="9.8936481"><ele>1.3333333333333333</ele><time>2026-05-03T09:05:10.061Z</time></trkpt><trkpt lat="37.2609367" lon="9.8938063"><ele>0.6666666666666666</ele><time>2026-05-03T09:05:11.056Z</time></trkpt><trkpt lat="37.2608401" lon="9.8939592"><ele>0.0</ele><time>2026-05-03T09:05:12.065Z</time></trkpt><trkpt lat="37.2607489" lon="9.8941195"><ele>0.0</ele><time>2026-05-03T09:05:13.066Z</time></trkpt><trkpt lat="37.2606558" lon="9.8942747"><ele>0.0</ele><time>2026-05-03T09:05:14.096Z</time></trkpt><trkpt lat="37.2605651" lon="9.8944296"><ele>0.0</ele><time>2026-05-03T09:05:15.062Z</time></trkpt><trkpt lat="37.260478" lon="9.8945831"><ele>0.0</ele><time>2026-05-03T09:05:16.065Z</time></trkpt><trkpt lat="37.2603889" lon="9.8947356"><ele>0.0</ele><time>2026-05-03T09:05:17.067Z</time></trkpt><trkpt lat="37.2603003" lon="9.8948866"><ele>0.0</ele><time>2026-05-03T09:05:18.058Z</time></trkpt><trkpt lat="37.2602185" lon="9.8950314"><ele>0.0</ele><time>2026-05-03T09:05:19.061Z</time></trkpt><trkpt lat="37.2601349" lon="9.8951785"><ele>0.5</ele><time>2026-05-03T09:05:20.074Z</time></trkpt><trkpt lat="37.2600574" lon="9.8953206"><ele>1.0</ele><time>2026-05-03T09:05:21.057Z</time></trkpt><trkpt lat="37.2599781" lon="9.8954624"><ele>1.5</ele><time>2026-05-03T09:05:22.067Z</time></trkpt><trkpt lat="37.2599008" lon="9.8956049"><ele>2.0</ele><time>2026-05-03T09:05:23.091Z</time></trkpt><trkpt lat="37.2598161" lon="9.8957499"><ele>2.0</ele><time>2026-05-03T09:05:24.081Z</time></trkpt><trkpt lat="37.2597366" lon="9.8958957"><ele>2.0</ele><time>2026-05-03T09:05:25.089Z</time></trkpt><trkpt lat="37.2596616" lon="9.8960363"><ele>2.0</ele><time>2026-05-03T09:05:26.075Z</time></trkpt><trkpt lat="37.259589" lon="9.8961769"><ele>2.0</ele><time>2026-05-03T09:05:27.071Z</time></trkpt><trkpt lat="37.2595153" lon="9.8963225"><ele>2.0</ele><time>2026-05-03T09:05:28.078Z</time></trkpt><trkpt lat="37.2594421" lon="9.8964691"><ele>2.0</ele><time>2026-05-03T09:05:29.076Z</time></trkpt><trkpt lat="37.2593674" lon="9.8966172"><ele>2.0</ele><time>2026-05-03T09:05:30.074Z</time></trkpt><trkpt lat="37.2592928" lon="9.8967668"><ele>2.0</ele><time>2026-05-03T09:05:31.076Z</time></trkpt><trkpt lat="37.2592243" lon="9.8969147"><ele>2.0</ele><time>2026-05-03T09:05:32.076Z</time></trkpt><trkpt lat="37.2591524" lon="9.8970662"><ele>2.0</ele><time>2026-05-03T09:05:33.084Z</time></trkpt><trkpt lat="37.2590813" lon="9.8972195"><ele>2.0</ele><time>2026-05-03T09:05:34.087Z</time></trkpt><trkpt lat="37.2590149" lon="9.8973741"><ele>2.0</ele><time>2026-05-03T09:05:35.094Z</time></trkpt><trkpt lat="37.2589429" lon="9.8975298"><ele>2.5</ele><time>2026-05-03T09:05:36.056Z</time></trkpt><trkpt lat="37.258867" lon="9.897688"><ele>3.0</ele><time>2026-05-03T09:05:37.076Z</time></trkpt><trkpt lat="37.2587902" lon="9.8978447"><ele>3.5</ele><time>2026-05-03T09:05:38.084Z</time></trkpt><trkpt lat="37.2587093" lon="9.898006"><ele>4.0</ele><time>2026-05-03T09:05:39.092Z</time></trkpt><trkpt lat="37.2586257" lon="9.898161"><ele>4.0</ele><time>2026-05-03T09:05:40.084Z</time></trkpt><trkpt lat="37.2585403" lon="9.8983135"><ele>4.0</ele><time>2026-05-03T09:05:41.077Z</time></trkpt><trkpt lat="37.258449" lon="9.8984661"><ele>4.0</ele><time>2026-05-03T09:05:42.084Z</time></trkpt><trkpt lat="37.2583607" lon="9.8986151"><ele>4.0</ele><time>2026-05-03T09:05:43.094Z</time></trkpt><trkpt lat="37.2582657" lon="9.8987622"><ele>4.0</ele><time>2026-05-03T09:05:44.087Z</time></trkpt><trkpt lat="37.2581711" lon="9.8989017"><ele>4.0</ele><time>2026-05-03T09:05:45.085Z</time></trkpt><trkpt lat="37.258074" lon="9.8990401"><ele>4.0</ele><time>2026-05-03T09:05:46.081Z</time></trkpt><trkpt lat="37.2579726" lon="9.8991638"><ele>4.0</ele><time>2026-05-03T09:05:47.088Z</time></trkpt><trkpt lat="37.25787" lon="9.8992801"><ele>4.0</ele><time>2026-05-03T09:05:48.084Z</time></trkpt><trkpt lat="37.2577661" lon="9.8994052"><ele>4.0</ele><time>2026-05-03T09:05:49.085Z</time></trkpt><trkpt lat="37.257661" lon="9.8995336"><ele>4.0</ele><time>2026-05-03T09:05:50.085Z</time></trkpt><trkpt lat="37.2575541" lon="9.899658"><ele>4.0</ele><time>2026-05-03T09:05:51.054Z</time></trkpt><trkpt lat="37.2574516" lon="9.8997832"><ele>4.0</ele><time>2026-05-03T09:05:52.091Z</time></trkpt><trkpt lat="37.2573484" lon="9.8999088"><ele>4.0</ele><time>2026-05-03T09:05:53.094Z</time></trkpt><trkpt lat="37.2572419" lon="9.9000346"><ele>4.0</ele><time>2026-05-03T09:05:54.08Z</time></trkpt><trkpt lat="37.2571399" lon="9.90016"><ele>4.0</ele><time>2026-05-03T09:05:55.099Z</time></trkpt><trkpt lat="37.2570361" lon="9.9002887"><ele>3.75</ele><time>2026-05-03T09:05:56.092Z</time></trkpt><trkpt lat="37.2569323" lon="9.9004187"><ele>3.5</ele><time>2026-05-03T09:05:57.087Z</time></trkpt><trkpt lat="37.2568269" lon="9.9005418"><ele>3.25</ele><time>2026-05-03T09:05:58.086Z</time></trkpt><trkpt lat="37.2567276" lon="9.900661"><ele>3.0</ele><time>2026-05-03T09:05:59.083Z</time></trkpt><trkpt lat="37.2566353" lon="9.9007723"><ele>3.0</ele><time>2026-05-03T09:06:00.076Z</time></trkpt><trkpt lat="37.2565497" lon="9.9008765"><ele>3.0</ele><time>2026-05-03T09:06:01.084Z</time></trkpt><trkpt lat="37.2564712" lon="9.9009729"><ele>3.0</ele><time>2026-05-03T09:06:02.085Z</time></trkpt><trkpt lat="37.2564026" lon="9.9010625"><ele>3.0</ele><time>2026-05-03T09:06:03.092Z</time></trkpt><trkpt lat="37.2563428" lon="9.9011491"><ele>3.0</ele><time>2026-05-03T09:06:04.086Z</time></trkpt><trkpt lat="37.2562918" lon="9.9012286"><ele>2.8333333333333335</ele><time>2026-05-03T09:06:05.09Z</time></trkpt><trkpt lat="37.2562459" lon="9.9013119"><ele>2.6666666666666665</ele><time>2026-05-03T09:06:06.094Z</time></trkpt><trkpt lat="37.2562113" lon="9.9013892"><ele>2.5</ele><time>2026-05-03T09:06:07.09Z</time></trkpt><trkpt lat="37.2561805" lon="9.901463"><ele>2.333333333333333</ele><time>2026-05-03T09:06:08.084Z</time></trkpt><trkpt lat="37.2561615" lon="9.9015414"><ele>2.1666666666666665</ele><time>2026-05-03T09:06:09.083Z</time></trkpt><trkpt lat="37.2561544" lon="9.9016223"><ele>2.0</ele><time>2026-05-03T09:06:10.074Z</time></trkpt><trkpt lat="37.2561752" lon="9.901764"><ele>1.9999999999999998</ele><time>2026-05-03T09:06:12.101Z</time></trkpt><trkpt lat="37.2562099" lon="9.9018394"><ele>2.0</ele><time>2026-05-03T09:06:13.085Z</time></trkpt><trkpt lat="37.2562598" lon="9.9018915"><ele>2.0</ele><time>2026-05-03T09:06:14.09Z</time></trkpt><trkpt lat="37.2563174" lon="9.9019414"><ele>2.0</ele><time>2026-05-03T09:06:15.088Z</time></trkpt><trkpt lat="37.2564387" lon="9.9019547"><ele>1.9999999999999998</ele><time>2026-05-03T09:06:17.091Z</time></trkpt><trkpt lat="37.2565065" lon="9.9019286"><ele>2.0</ele><time>2026-05-03T09:06:18.096Z</time></trkpt><trkpt lat="37.256569" lon="9.9018795"><ele>2.0</ele><time>2026-05-03T09:06:19.072Z</time></trkpt><trkpt lat="37.2566239" lon="9.9018077"><ele>1.9999999999999998</ele><time>2026-05-03T09:06:20.084Z</time></trkpt><trkpt lat="37.25666" lon="9.9017217"><ele>2.0</ele><time>2026-05-03T09:06:21.091Z</time></trkpt><trkpt lat="37.2566717" lon="9.9016296"><ele>2.0</ele><time>2026-05-03T09:06:22.065Z</time></trkpt><trkpt lat="37.2566558" lon="9.9015487"><ele>1.9999999999999998</ele><time>2026-05-03T09:06:23.068Z</time></trkpt><trkpt lat="37.2566199" lon="9.9014835"><ele>2.0</ele><time>2026-05-03T09:06:24.064Z</time></trkpt><trkpt lat="37.2565748" lon="9.9014235"><ele>2.0</ele><time>2026-05-03T09:06:25.08Z</time></trkpt><trkpt lat="37.2565219" lon="9.9013676"><ele>2.142857142857143</ele><time>2026-05-03T09:06:26.068Z</time></trkpt><trkpt lat="37.2564565" lon="9.9013517"><ele>2.2857142857142856</ele><time>2026-05-03T09:06:27.068Z</time></trkpt><trkpt lat="37.2563914" lon="9.9013434"><ele>2.4285714285714284</ele><time>2026-05-03T09:06:28.104Z</time></trkpt><trkpt lat="37.2563287" lon="9.9013576"><ele>2.571428571428571</ele><time>2026-05-03T09:06:29.092Z</time></trkpt><trkpt lat="37.2562678" lon="9.9013993"><ele>2.7142857142857144</ele><time>2026-05-03T09:06:30.065Z</time></trkpt><trkpt lat="37.256219" lon="9.901465"><ele>2.8571428571428568</ele><time>2026-05-03T09:06:31.071Z</time></trkpt><trkpt lat="37.2561877" lon="9.9015384"><ele>3.0</ele><time>2026-05-03T09:06:32.058Z</time></trkpt><trkpt lat="37.2561721" lon="9.9016175"><ele>2.8333333333333335</ele><time>2026-05-03T09:06:33.065Z</time></trkpt><trkpt lat="37.256177" lon="9.9017026"><ele>2.6666666666666665</ele><time>2026-05-03T09:06:34.066Z</time></trkpt><trkpt lat="37.2561982" lon="9.9017789"><ele>2.5</ele><time>2026-05-03T09:06:35.089Z</time></trkpt><trkpt lat="37.2562452" lon="9.901923"><ele>2.333333333333333</ele><time>2026-05-03T09:06:37.107Z</time></trkpt><trkpt lat="37.2562617" lon="9.902"><ele>2.1666666666666665</ele><time>2026-05-03T09:06:38.092Z</time></trkpt><trkpt lat="37.2562697" lon="9.9020922"><ele>2.0</ele><time>2026-05-03T09:06:39.095Z</time></trkpt><trkpt lat="37.2562526" lon="9.9021946"><ele>2.0</ele><time>2026-05-03T09:06:40.089Z</time></trkpt><trkpt lat="37.2562163" lon="9.9023053"><ele>2.0</ele><time>2026-05-03T09:06:41.089Z</time></trkpt><trkpt lat="37.256171" lon="9.9024308"><ele>2.0</ele><time>2026-05-03T09:06:42.104Z</time></trkpt><trkpt lat="37.2561066" lon="9.9025975"><ele>2.0</ele><time>2026-05-03T09:06:43.081Z</time></trkpt><trkpt lat="37.2560242" lon="9.9027939"><ele>2.0</ele><time>2026-05-03T09:06:44.098Z</time></trkpt><trkpt lat="37.2559481" lon="9.9029845"><ele>2.0</ele><time>2026-05-03T09:06:45.094Z</time></trkpt><trkpt lat="37.2558786" lon="9.9031586"><ele>2.0</ele><time>2026-05-03T09:06:46.092Z</time></trkpt><trkpt lat="37.2558132" lon="9.903325"><ele>2.0</ele><time>2026-05-03T09:06:47.091Z</time></trkpt><trkpt lat="37.2557556" lon="9.9034891"><ele>2.0</ele><time>2026-05-03T09:06:48.092Z</time></trkpt><trkpt lat="37.2556962" lon="9.9036649"><ele>2.0</ele><time>2026-05-03T09:06:49.087Z</time></trkpt><trkpt lat="37.2556282" lon="9.9038457"><ele>2.333333333333333</ele><time>2026-05-03T09:06:50.081Z</time></trkpt><trkpt lat="37.255555" lon="9.9040272"><ele>2.6666666666666665</ele><time>2026-05-03T09:06:51.079Z</time></trkpt><trkpt lat="37.2554805" lon="9.904207"><ele>3.0</ele><time>2026-05-03T09:06:52.087Z</time></trkpt><trkpt lat="37.2554037" lon="9.9043947"><ele>2.3333333333333335</ele><time>2026-05-03T09:06:53.087Z</time></trkpt><trkpt lat="37.2553297" lon="9.9045882"><ele>1.6666666666666665</ele><time>2026-05-03T09:06:54.106Z</time></trkpt><trkpt lat="37.2552512" lon="9.9047804"><ele>1.0</ele><time>2026-05-03T09:06:55.092Z</time></trkpt><trkpt lat="37.2551719" lon="9.9049794"><ele>0.3333333333333333</ele><time>2026-05-03T09:06:56.083Z</time></trkpt><trkpt lat="37.2550868" lon="9.9051837"><ele>-0.3333333333333333</ele><time>2026-05-03T09:06:57.1Z</time></trkpt><trkpt lat="37.255006" lon="9.9053951"><ele>-1.0</ele><time>2026-05-03T09:06:58.067Z</time></trkpt><trkpt lat="37.2549206" lon="9.9055979"><ele>-1.0</ele><time>2026-05-03T09:06:59.057Z</time></trkpt><trkpt lat="37.2548342" lon="9.9058001"><ele>-1.0</ele><time>2026-05-03T09:07:00.064Z</time></trkpt><trkpt lat="37.2547504" lon="9.9060015"><ele>-1.0</ele><time>2026-05-03T09:07:01.091Z</time></trkpt><trkpt lat="37.2546634" lon="9.9062078"><ele>0.0</ele><time>2026-05-03T09:07:02.079Z</time></trkpt><trkpt lat="37.2545755" lon="9.9064098"><ele>1.0</ele><time>2026-05-03T09:07:03.089Z</time></trkpt><trkpt lat="37.2544903" lon="9.9066107"><ele>2.0</ele><time>2026-05-03T09:07:04.067Z</time></trkpt><trkpt lat="37.2544085" lon="9.9068134"><ele>2.6666666666666665</ele><time>2026-05-03T09:07:05.086Z</time></trkpt><trkpt lat="37.2543263" lon="9.9070113"><ele>3.333333333333333</ele><time>2026-05-03T09:07:06.072Z</time></trkpt><trkpt lat="37.2542447" lon="9.9072106"><ele>4.0</ele><time>2026-05-03T09:07:07.089Z</time></trkpt><trkpt lat="37.2541611" lon="9.9074075"><ele>4.0</ele><time>2026-05-03T09:07:08.091Z</time></trkpt><trkpt lat="37.2540774" lon="9.9076038"><ele>4.0</ele><time>2026-05-03T09:07:09.078Z</time></trkpt><trkpt lat="37.2539897" lon="9.9078055"><ele>4.0</ele><time>2026-05-03T09:07:10.085Z</time></trkpt><trkpt lat="37.2539035" lon="9.908015"><ele>5.0</ele><time>2026-05-03T09:07:11.087Z</time></trkpt><trkpt lat="37.2538119" lon="9.9082163"><ele>6.0</ele><time>2026-05-03T09:07:12.083Z</time></trkpt><trkpt lat="37.2537195" lon="9.9084179"><ele>7.0</ele><time>2026-05-03T09:07:13.084Z</time></trkpt><trkpt lat="37.2536284" lon="9.9086166"><ele>7.0</ele><time>2026-05-03T09:07:14.06Z</time></trkpt><trkpt lat="37.253531" lon="9.9088146"><ele>7.0</ele><time>2026-05-03T09:07:15.086Z</time></trkpt><trkpt lat="37.2534344" lon="9.9090133"><ele>7.0</ele><time>2026-05-03T09:07:16.088Z</time></trkpt><trkpt lat="37.2533458" lon="9.9092107"><ele>7.0</ele><time>2026-05-03T09:07:17.087Z</time></trkpt><trkpt lat="37.2532555" lon="9.9094089"><ele>7.0</ele><time>2026-05-03T09:07:18.101Z</time></trkpt><trkpt lat="37.253167" lon="9.9096125"><ele>7.0</ele><time>2026-05-03T09:07:19.076Z</time></trkpt><trkpt lat="37.2530749" lon="9.9098079"><ele>7.0</ele><time>2026-05-03T09:07:20.067Z</time></trkpt><trkpt lat="37.2529835" lon="9.9100074"><ele>7.0</ele><time>2026-05-03T09:07:21.088Z</time></trkpt><trkpt lat="37.2528907" lon="9.9102166"><ele>7.0</ele><time>2026-05-03T09:07:22.083Z</time></trkpt><trkpt lat="37.2527888" lon="9.9104298"><ele>7.333333333333334</ele><time>2026-05-03T09:07:23.075Z</time></trkpt><trkpt lat="37.2526844" lon="9.9106488"><ele>7.666666666666666</ele><time>2026-05-03T09:07:24.099Z</time></trkpt><trkpt lat="37.2525828" lon="9.9108627"><ele>8.0</ele><time>2026-05-03T09:07:25.097Z</time></trkpt><trkpt lat="37.2524795" lon="9.9110843"><ele>8.0</ele><time>2026-05-03T09:07:26.084Z</time></trkpt><trkpt lat="37.252375" lon="9.9112989"><ele>8.0</ele><time>2026-05-03T09:07:27.09Z</time></trkpt><trkpt lat="37.2522668" lon="9.9115152"><ele>8.0</ele><time>2026-05-03T09:07:28.09Z</time></trkpt><trkpt lat="37.25216" lon="9.9117312"><ele>8.333333333333332</ele><time>2026-05-03T09:07:29.097Z</time></trkpt><trkpt lat="37.2520411" lon="9.9119592"><ele>8.666666666666666</ele><time>2026-05-03T09:07:30.088Z</time></trkpt><trkpt lat="37.2519261" lon="9.9121925"><ele>9.0</ele><time>2026-05-03T09:07:31.086Z</time></trkpt><trkpt lat="37.2518133" lon="9.912423"><ele>9.333333333333334</ele><time>2026-05-03T09:07:32.091Z</time></trkpt><trkpt lat="37.2517005" lon="9.912656"><ele>9.666666666666668</ele><time>2026-05-03T09:07:33.086Z</time></trkpt><trkpt lat="37.2515879" lon="9.9128814"><ele>10.0</ele><time>2026-05-03T09:07:34.083Z</time></trkpt><trkpt lat="37.2514732" lon="9.9131044"><ele>10.0</ele><time>2026-05-03T09:07:35.091Z</time></trkpt><trkpt lat="37.2513599" lon="9.9133271"><ele>10.0</ele><time>2026-05-03T09:07:36.096Z</time></trkpt><trkpt lat="37.2512466" lon="9.9135523"><ele>10.0</ele><time>2026-05-03T09:07:37.073Z</time></trkpt><trkpt lat="37.2511287" lon="9.9137802"><ele>10.333333333333334</ele><time>2026-05-03T09:07:38.084Z</time></trkpt><trkpt lat="37.2510124" lon="9.9140061"><ele>10.666666666666666</ele><time>2026-05-03T09:07:39.088Z</time></trkpt><trkpt lat="37.2509029" lon="9.9142283"><ele>11.0</ele><time>2026-05-03T09:07:40.089Z</time></trkpt><trkpt lat="37.2507911" lon="9.9144555"><ele>10.0</ele><time>2026-05-03T09:07:41.092Z</time></trkpt><trkpt lat="37.2506807" lon="9.9146814"><ele>9.0</ele><time>2026-05-03T09:07:42.096Z</time></trkpt><trkpt lat="37.2505655" lon="9.914911"><ele>8.0</ele><time>2026-05-03T09:07:43.085Z</time></trkpt><trkpt lat="37.2504494" lon="9.9151375"><ele>11.0</ele><time>2026-05-03T09:07:44.076Z</time></trkpt><trkpt lat="37.2503344" lon="9.915356"><ele>14.0</ele><time>2026-05-03T09:07:45.084Z</time></trkpt><trkpt lat="37.2502191" lon="9.9155729"><ele>17.0</ele><time>2026-05-03T09:07:46.087Z</time></trkpt><trkpt lat="37.2501001" lon="9.9157927"><ele>16.333333333333336</ele><time>2026-05-03T09:07:47.083Z</time></trkpt><trkpt lat="37.2499806" lon="9.9160097"><ele>15.666666666666668</ele><time>2026-05-03T09:07:48.087Z</time></trkpt><trkpt lat="37.2498619" lon="9.9162338"><ele>15.0</ele><time>2026-05-03T09:07:49.091Z</time></trkpt><trkpt lat="37.2497475" lon="9.9164509"><ele>17.0</ele><time>2026-05-03T09:07:50.078Z</time></trkpt><trkpt lat="37.2496281" lon="9.9166749"><ele>19.0</ele><time>2026-05-03T09:07:51.053Z</time></trkpt><trkpt lat="37.2495129" lon="9.9169005"><ele>21.0</ele><time>2026-05-03T09:07:52.076Z</time></trkpt><trkpt lat="37.2493969" lon="9.9171257"><ele>21.0</ele><time>2026-05-03T09:07:53.074Z</time></trkpt><trkpt lat="37.2492825" lon="9.9173504"><ele>21.0</ele><time>2026-05-03T09:07:54.103Z</time></trkpt><trkpt lat="37.249167" lon="9.9175735"><ele>21.0</ele><time>2026-05-03T09:07:55.088Z</time></trkpt><trkpt lat="37.2490505" lon="9.9177956"><ele>21.333333333333332</ele><time>2026-05-03T09:07:56.084Z</time></trkpt><trkpt lat="37.2489354" lon="9.9180187"><ele>21.666666666666664</ele><time>2026-05-03T09:07:57.106Z</time></trkpt><trkpt lat="37.2488243" lon="9.9182504"><ele>22.0</ele><time>2026-05-03T09:07:58.087Z</time></trkpt><trkpt lat="37.2487073" lon="9.9184726"><ele>22.0</ele><time>2026-05-03T09:07:59.061Z</time></trkpt><trkpt lat="37.2485911" lon="9.9186945"><ele>22.0</ele><time>2026-05-03T09:08:00.055Z</time></trkpt><trkpt lat="37.2484729" lon="9.9189174"><ele>22.0</ele><time>2026-05-03T09:08:01.102Z</time></trkpt><trkpt lat="37.2483553" lon="9.9191409"><ele>22.333333333333332</ele><time>2026-05-03T09:08:02.092Z</time></trkpt><trkpt lat="37.2482409" lon="9.9193682"><ele>22.666666666666668</ele><time>2026-05-03T09:08:03.086Z</time></trkpt><trkpt lat="37.2481254" lon="9.9195918"><ele>23.0</ele><time>2026-05-03T09:08:04.108Z</time></trkpt><trkpt lat="37.2480078" lon="9.9198208"><ele>23.0</ele><time>2026-05-03T09:08:05.084Z</time></trkpt><trkpt lat="37.2478902" lon="9.9200494"><ele>23.0</ele><time>2026-05-03T09:08:06.084Z</time></trkpt><trkpt lat="37.247775" lon="9.9202746"><ele>23.0</ele><time>2026-05-03T09:08:07.081Z</time></trkpt><trkpt lat="37.2476615" lon="9.9204986"><ele>23.0</ele><time>2026-05-03T09:08:08.066Z</time></trkpt><trkpt lat="37.2475447" lon="9.9207198"><ele>23.0</ele><time>2026-05-03T09:08:09.087Z</time></trkpt><trkpt lat="37.2474303" lon="9.9209392"><ele>23.0</ele><time>2026-05-03T09:08:10.086Z</time></trkpt><trkpt lat="37.247314" lon="9.9211693"><ele>25.666666666666668</ele><time>2026-05-03T09:08:11.082Z</time></trkpt><trkpt lat="37.247202" lon="9.921399"><ele>28.333333333333336</ele><time>2026-05-03T09:08:12.078Z</time></trkpt><trkpt lat="37.247089" lon="9.9216286"><ele>31.0</ele><time>2026-05-03T09:08:13.083Z</time></trkpt><trkpt lat="37.2469756" lon="9.9218521"><ele>31.0</ele><time>2026-05-03T09:08:14.083Z</time></trkpt><trkpt lat="37.2468619" lon="9.922077"><ele>31.0</ele><time>2026-05-03T09:08:15.082Z</time></trkpt><trkpt lat="37.2467447" lon="9.9223053"><ele>31.0</ele><time>2026-05-03T09:08:16.073Z</time></trkpt><trkpt lat="37.2466281" lon="9.9225267"><ele>30.666666666666668</ele><time>2026-05-03T09:08:17.084Z</time></trkpt><trkpt lat="37.2465102" lon="9.922752"><ele>30.333333333333336</ele><time>2026-05-03T09:08:18.092Z</time></trkpt><trkpt lat="37.246392" lon="9.9229739"><ele>30.0</ele><time>2026-05-03T09:08:19.083Z</time></trkpt><trkpt lat="37.2462775" lon="9.9231945"><ele>32.333333333333336</ele><time>2026-05-03T09:08:20.071Z</time></trkpt><trkpt lat="37.2461623" lon="9.9234216"><ele>34.66666666666667</ele><time>2026-05-03T09:08:21.061Z</time></trkpt><trkpt lat="37.2460474" lon="9.923642"><ele>37.0</ele><time>2026-05-03T09:08:22.077Z</time></trkpt><trkpt lat="37.2459308" lon="9.9238607"><ele>37.0</ele><time>2026-05-03T09:08:23.085Z</time></trkpt><trkpt lat="37.2458109" lon="9.9240834"><ele>37.0</ele><time>2026-05-03T09:08:24.089Z</time></trkpt><trkpt lat="37.2456923" lon="9.9243094"><ele>37.0</ele><time>2026-05-03T09:08:25.092Z</time></trkpt><trkpt lat="37.2455714" lon="9.9245312"><ele>36.66666666666667</ele><time>2026-05-03T09:08:26.083Z</time></trkpt><trkpt lat="37.2454516" lon="9.924756"><ele>36.333333333333336</ele><time>2026-05-03T09:08:27.089Z</time></trkpt><trkpt lat="37.2453358" lon="9.9249833"><ele>36.0</ele><time>2026-05-03T09:08:28.078Z</time></trkpt><trkpt lat="37.2452196" lon="9.9252108"><ele>35.0</ele><time>2026-05-03T09:08:29.089Z</time></trkpt><trkpt lat="37.2451048" lon="9.9254333"><ele>34.0</ele><time>2026-05-03T09:08:30.092Z</time></trkpt><trkpt lat="37.2449916" lon="9.925657"><ele>33.0</ele><time>2026-05-03T09:08:31.091Z</time></trkpt><trkpt lat="37.2448793" lon="9.9258841"><ele>33.333333333333336</ele><time>2026-05-03T09:08:32.084Z</time></trkpt><trkpt lat="37.2447646" lon="9.9261051"><ele>33.66666666666667</ele><time>2026-05-03T09:08:33.097Z</time></trkpt><trkpt lat="37.2446504" lon="9.9263289"><ele>34.0</ele><time>2026-05-03T09:08:34.093Z</time></trkpt><trkpt lat="37.2445364" lon="9.9265504"><ele>33.333333333333336</ele><time>2026-05-03T09:08:35.085Z</time></trkpt><trkpt lat="37.2444222" lon="9.9267802"><ele>32.666666666666664</ele><time>2026-05-03T09:08:36.087Z</time></trkpt><trkpt lat="37.2443018" lon="9.9270012"><ele>32.0</ele><time>2026-05-03T09:08:37.091Z</time></trkpt><trkpt lat="37.2441863" lon="9.9272234"><ele>32.0</ele><time>2026-05-03T09:08:38.087Z</time></trkpt><trkpt lat="37.24407" lon="9.9274435"><ele>32.0</ele><time>2026-05-03T09:08:39.085Z</time></trkpt><trkpt lat="37.2439563" lon="9.9276643"><ele>32.0</ele><time>2026-05-03T09:08:40.09Z</time></trkpt><trkpt lat="37.2438367" lon="9.9278861"><ele>32.666666666666664</ele><time>2026-05-03T09:08:41.091Z</time></trkpt><trkpt lat="37.2437106" lon="9.9281094"><ele>33.333333333333336</ele><time>2026-05-03T09:08:42.086Z</time></trkpt><trkpt lat="37.2435881" lon="9.9283313"><ele>34.0</ele><time>2026-05-03T09:08:43.094Z</time></trkpt><trkpt lat="37.2434624" lon="9.9285468"><ele>34.66666666666667</ele><time>2026-05-03T09:08:44.092Z</time></trkpt><trkpt lat="37.2433345" lon="9.9287614"><ele>35.333333333333336</ele><time>2026-05-03T09:08:45.09Z</time></trkpt><trkpt lat="37.2432104" lon="9.9289739"><ele>36.0</ele><time>2026-05-03T09:08:46.094Z</time></trkpt><trkpt lat="37.2430809" lon="9.9291795"><ele>37.666666666666664</ele><time>2026-05-03T09:08:47.075Z</time></trkpt><trkpt lat="37.2429483" lon="9.9293863"><ele>39.33333333333333</ele><time>2026-05-03T09:08:48.086Z</time></trkpt><trkpt lat="37.2428125" lon="9.9295962"><ele>41.0</ele><time>2026-05-03T09:08:49.068Z</time></trkpt><trkpt lat="37.2426739" lon="9.9298064"><ele>41.0</ele><time>2026-05-03T09:08:50.084Z</time></trkpt><trkpt lat="37.2425394" lon="9.9300152"><ele>41.0</ele><time>2026-05-03T09:08:51.073Z</time></trkpt><trkpt lat="37.2423929" lon="9.9302186"><ele>41.0</ele><time>2026-05-03T09:08:52.093Z</time></trkpt><trkpt lat="37.2422526" lon="9.9304223"><ele>40.33333333333333</ele><time>2026-05-03T09:08:53.077Z</time></trkpt><trkpt lat="37.2421014" lon="9.93062"><ele>39.666666666666664</ele><time>2026-05-03T09:08:54.08Z</time></trkpt><trkpt lat="37.2419527" lon="9.9308101"><ele>39.0</ele><time>2026-05-03T09:08:55.072Z</time></trkpt><trkpt lat="37.2418018" lon="9.9310032"><ele>39.0</ele><time>2026-05-03T09:08:56.082Z</time></trkpt><trkpt lat="37.2416474" lon="9.9311992"><ele>39.0</ele><time>2026-05-03T09:08:57.1Z</time></trkpt><trkpt lat="37.2414939" lon="9.9313878"><ele>39.0</ele><time>2026-05-03T09:08:58.09Z</time></trkpt><trkpt lat="37.2413418" lon="9.9315697"><ele>36.333333333333336</ele><time>2026-05-03T09:08:59.077Z</time></trkpt><trkpt lat="37.2411852" lon="9.9317527"><ele>33.66666666666667</ele><time>2026-05-03T09:09:00.066Z</time></trkpt><trkpt lat="37.2410281" lon="9.9319277"><ele>31.0</ele><time>2026-05-03T09:09:01.074Z</time></trkpt><trkpt lat="37.2408638" lon="9.9321035"><ele>31.0</ele><time>2026-05-03T09:09:02.066Z</time></trkpt><trkpt lat="37.2407" lon="9.9322789"><ele>31.0</ele><time>2026-05-03T09:09:03.074Z</time></trkpt><trkpt lat="37.2405386" lon="9.932456"><ele>31.0</ele><time>2026-05-03T09:09:04.086Z</time></trkpt><trkpt lat="37.240373" lon="9.9326356"><ele>28.0</ele><time>2026-05-03T09:09:05.07Z</time></trkpt><trkpt lat="37.2402122" lon="9.9328102"><ele>25.0</ele><time>2026-05-03T09:09:06.081Z</time></trkpt><trkpt lat="37.2400497" lon="9.932981"><ele>22.0</ele><time>2026-05-03T09:09:07.084Z</time></trkpt><trkpt lat="37.2398897" lon="9.9331537"><ele>21.666666666666664</ele><time>2026-05-03T09:09:08.092Z</time></trkpt><trkpt lat="37.239729" lon="9.9333228"><ele>21.333333333333332</ele><time>2026-05-03T09:09:09.077Z</time></trkpt><trkpt lat="37.2395667" lon="9.9334976"><ele>21.0</ele><time>2026-05-03T09:09:10.09Z</time></trkpt><trkpt lat="37.2394055" lon="9.9336715"><ele>21.0</ele><time>2026-05-03T09:09:11.097Z</time></trkpt><trkpt lat="37.2392412" lon="9.9338457"><ele>21.0</ele><time>2026-05-03T09:09:12.09Z</time></trkpt><trkpt lat="37.2390794" lon="9.9340181"><ele>21.0</ele><time>2026-05-03T09:09:13.097Z</time></trkpt><trkpt lat="37.2389129" lon="9.934193"><ele>20.0</ele><time>2026-05-03T09:09:14.09Z</time></trkpt><trkpt lat="37.2387492" lon="9.9343645"><ele>19.0</ele><time>2026-05-03T09:09:15.081Z</time></trkpt><trkpt lat="37.2385823" lon="9.9345397"><ele>18.0</ele><time>2026-05-03T09:09:16.085Z</time></trkpt><trkpt lat="37.2384202" lon="9.9347053"><ele>18.0</ele><time>2026-05-03T09:09:17.082Z</time></trkpt><trkpt lat="37.2382585" lon="9.9348738"><ele>18.0</ele><time>2026-05-03T09:09:18.084Z</time></trkpt><trkpt lat="37.2380935" lon="9.935047"><ele>18.0</ele><time>2026-05-03T09:09:19.086Z</time></trkpt><trkpt lat="37.2379298" lon="9.9352148"><ele>17.333333333333332</ele><time>2026-05-03T09:09:20.09Z</time></trkpt><trkpt lat="37.2377676" lon="9.9353903"><ele>16.666666666666664</ele><time>2026-05-03T09:09:21.085Z</time></trkpt><trkpt lat="37.2376043" lon="9.935563"><ele>16.0</ele><time>2026-05-03T09:09:22.082Z</time></trkpt><trkpt lat="37.2374416" lon="9.9357356"><ele>16.0</ele><time>2026-05-03T09:09:23.083Z</time></trkpt><trkpt lat="37.2372785" lon="9.9359124"><ele>16.0</ele><time>2026-05-03T09:09:24.091Z</time></trkpt><trkpt lat="37.2371153" lon="9.9360933"><ele>16.0</ele><time>2026-05-03T09:09:25.086Z</time></trkpt><trkpt lat="37.2369531" lon="9.9362653"><ele>16.0</ele><time>2026-05-03T09:09:26.072Z</time></trkpt><trkpt lat="37.2367873" lon="9.9364407"><ele>16.0</ele><time>2026-05-03T09:09:27.082Z</time></trkpt><trkpt lat="37.2366246" lon="9.9366088"><ele>16.0</ele><time>2026-05-03T09:09:28.089Z</time></trkpt><trkpt lat="37.2364595" lon="9.9367851"><ele>15.666666666666666</ele><time>2026-05-03T09:09:29.084Z</time></trkpt><trkpt lat="37.2362965" lon="9.9369584"><ele>15.333333333333332</ele><time>2026-05-03T09:09:30.089Z</time></trkpt><trkpt lat="37.2361353" lon="9.9371324"><ele>15.0</ele><time>2026-05-03T09:09:31.083Z</time></trkpt><trkpt lat="37.2359737" lon="9.9373044"><ele>15.0</ele><time>2026-05-03T09:09:32.07Z</time></trkpt><trkpt lat="37.2358135" lon="9.9374809"><ele>15.0</ele><time>2026-05-03T09:09:33.077Z</time></trkpt><trkpt lat="37.2356584" lon="9.9376619"><ele>15.0</ele><time>2026-05-03T09:09:34.079Z</time></trkpt><trkpt lat="37.2355037" lon="9.9378437"><ele>14.333333333333332</ele><time>2026-05-03T09:09:35.092Z</time></trkpt><trkpt lat="37.2353436" lon="9.9380259"><ele>13.666666666666666</ele><time>2026-05-03T09:09:36.083Z</time></trkpt><trkpt lat="37.2351898" lon="9.9382127"><ele>13.0</ele><time>2026-05-03T09:09:37.081Z</time></trkpt><trkpt lat="37.2350418" lon="9.9384001"><ele>13.0</ele><time>2026-05-03T09:09:38.084Z</time></trkpt><trkpt lat="37.2348858" lon="9.938587"><ele>13.0</ele><time>2026-05-03T09:09:39.086Z</time></trkpt><trkpt lat="37.2347373" lon="9.9387727"><ele>13.0</ele><time>2026-05-03T09:09:40.086Z</time></trkpt><trkpt lat="37.2345821" lon="9.9389641"><ele>12.0</ele><time>2026-05-03T09:09:41.072Z</time></trkpt><trkpt lat="37.2344317" lon="9.9391562"><ele>11.0</ele><time>2026-05-03T09:09:42.085Z</time></trkpt><trkpt lat="37.2342852" lon="9.9393502"><ele>10.0</ele><time>2026-05-03T09:09:43.08Z</time></trkpt><trkpt lat="37.2341423" lon="9.9395459"><ele>10.0</ele><time>2026-05-03T09:09:44.084Z</time></trkpt><trkpt lat="37.2339967" lon="9.939741"><ele>10.0</ele><time>2026-05-03T09:09:45.074Z</time></trkpt><trkpt lat="37.2338529" lon="9.9399411"><ele>10.0</ele><time>2026-05-03T09:09:46.098Z</time></trkpt><trkpt lat="37.2337119" lon="9.9401365"><ele>8.666666666666668</ele><time>2026-05-03T09:09:47.074Z</time></trkpt><trkpt lat="37.2335723" lon="9.9403376"><ele>7.333333333333334</ele><time>2026-05-03T09:09:48.087Z</time></trkpt><trkpt lat="37.2334377" lon="9.94054"><ele>6.0</ele><time>2026-05-03T09:09:49.073Z</time></trkpt><trkpt lat="37.2333052" lon="9.940744"><ele>5.333333333333333</ele><time>2026-05-03T09:09:50.098Z</time></trkpt><trkpt lat="37.2331745" lon="9.9409531"><ele>4.666666666666666</ele><time>2026-05-03T09:09:51.065Z</time></trkpt><trkpt lat="37.2330429" lon="9.9411601"><ele>4.0</ele><time>2026-05-03T09:09:52.066Z</time></trkpt><trkpt lat="37.2329111" lon="9.9413693"><ele>4.0</ele><time>2026-05-03T09:09:53.087Z</time></trkpt><trkpt lat="37.2327775" lon="9.941577"><ele>4.0</ele><time>2026-05-03T09:09:54.088Z</time></trkpt><trkpt lat="37.2326486" lon="9.9417873"><ele>4.0</ele><time>2026-05-03T09:09:55.09Z</time></trkpt><trkpt lat="37.2325191" lon="9.9420043"><ele>4.333333333333333</ele><time>2026-05-03T09:09:56.092Z</time></trkpt><trkpt lat="37.2323861" lon="9.9422219"><ele>4.666666666666667</ele><time>2026-05-03T09:09:57.097Z</time></trkpt><trkpt lat="37.2322591" lon="9.9424406"><ele>5.0</ele><time>2026-05-03T09:09:58.079Z</time></trkpt><trkpt lat="37.2321349" lon="9.9426539"><ele>5.0</ele><time>2026-05-03T09:09:59.087Z</time></trkpt><trkpt lat="37.2320172" lon="9.9428746"><ele>5.0</ele><time>2026-05-03T09:10:00.062Z</time></trkpt><trkpt lat="37.2319059" lon="9.9430763"><ele>5.0</ele><time>2026-05-03T09:10:01.088Z</time></trkpt><trkpt lat="37.2318023" lon="9.9432643"><ele>5.666666666666667</ele><time>2026-05-03T09:10:02.081Z</time></trkpt><trkpt lat="37.2317005" lon="9.9434485"><ele>6.333333333333334</ele><time>2026-05-03T09:10:03.086Z</time></trkpt><trkpt lat="37.2316012" lon="9.9436382"><ele>7.0</ele><time>2026-05-03T09:10:04.064Z</time></trkpt><trkpt lat="37.2314988" lon="9.9438376"><ele>6.0</ele><time>2026-05-03T09:10:05.09Z</time></trkpt><trkpt lat="37.2313996" lon="9.9440348"><ele>5.0</ele><time>2026-05-03T09:10:06.092Z</time></trkpt><trkpt lat="37.231303" lon="9.9442329"><ele>4.0</ele><time>2026-05-03T09:10:07.077Z</time></trkpt><trkpt lat="37.2312058" lon="9.9444305"><ele>4.0</ele><time>2026-05-03T09:10:08.082Z</time></trkpt><trkpt lat="37.2311096" lon="9.9446337"><ele>4.0</ele><time>2026-05-03T09:10:09.083Z</time></trkpt><trkpt lat="37.2310142" lon="9.9448316"><ele>4.0</ele><time>2026-05-03T09:10:10.085Z</time></trkpt><trkpt lat="37.2309233" lon="9.9450222"><ele>4.666666666666666</ele><time>2026-05-03T09:10:11.079Z</time></trkpt><trkpt lat="37.2308319" lon="9.9452137"><ele>5.333333333333333</ele><time>2026-05-03T09:10:12.092Z</time></trkpt><trkpt lat="37.2307396" lon="9.9454113"><ele>6.0</ele><time>2026-05-03T09:10:13.074Z</time></trkpt><trkpt lat="37.2306465" lon="9.9455978"><ele>4.666666666666667</ele><time>2026-05-03T09:10:14.083Z</time></trkpt><trkpt lat="37.2305575" lon="9.9457841"><ele>3.333333333333333</ele><time>2026-05-03T09:10:15.096Z</time></trkpt><trkpt lat="37.2304749" lon="9.9459598"><ele>2.0</ele><time>2026-05-03T09:10:16.071Z</time></trkpt><trkpt lat="37.2303956" lon="9.9461261"><ele>2.0</ele><time>2026-05-03T09:10:17.063Z</time></trkpt><trkpt lat="37.23032" lon="9.9462843"><ele>2.0</ele><time>2026-05-03T09:10:18.092Z</time></trkpt><trkpt lat="37.2302481" lon="9.9464354"><ele>2.0</ele><time>2026-05-03T09:10:19.08Z</time></trkpt><trkpt lat="37.2301799" lon="9.9465825"><ele>2.0</ele><time>2026-05-03T09:10:20.084Z</time></trkpt><trkpt lat="37.2301144" lon="9.9467237"><ele>2.4000000000000004</ele><time>2026-05-03T09:10:21.085Z</time></trkpt><trkpt lat="37.2300494" lon="9.9468558"><ele>2.8000000000000003</ele><time>2026-05-03T09:10:22.1Z</time></trkpt><trkpt lat="37.2299911" lon="9.9469778"><ele>3.2</ele><time>2026-05-03T09:10:23.076Z</time></trkpt><trkpt lat="37.2299338" lon="9.9470906"><ele>3.6</ele><time>2026-05-03T09:10:24.092Z</time></trkpt><trkpt lat="37.2298896" lon="9.9471885"><ele>4.0</ele><time>2026-05-03T09:10:25.079Z</time></trkpt><trkpt lat="37.2298456" lon="9.9472772"><ele>4.0</ele><time>2026-05-03T09:10:26.098Z</time></trkpt><trkpt lat="37.2298094" lon="9.9473579"><ele>4.0</ele><time>2026-05-03T09:10:27.092Z</time></trkpt><trkpt lat="37.2297756" lon="9.9474301"><ele>4.0</ele><time>2026-05-03T09:10:28.094Z</time></trkpt><trkpt lat="37.2297081" lon="9.9475573"><ele>4.0</ele><time>2026-05-03T09:10:30.094Z</time></trkpt><trkpt lat="37.2296511" lon="9.9476635"><ele>4.0</ele><time>2026-05-03T09:10:32.066Z</time></trkpt><trkpt lat="37.2295925" lon="9.9477663"><ele>3.833333333333333</ele><time>2026-05-03T09:10:34.084Z</time></trkpt><trkpt lat="37.2295405" lon="9.9478559"><ele>3.6666666666666665</ele><time>2026-05-03T09:10:36.093Z</time></trkpt><trkpt lat="37.2294973" lon="9.9479419"><ele>3.5</ele><time>2026-05-03T09:10:38.09Z</time></trkpt><trkpt lat="37.2294548" lon="9.9480319"><ele>3.333333333333333</ele><time>2026-05-03T09:10:41.087Z</time></trkpt><trkpt lat="37.2294154" lon="9.948117"><ele>3.1666666666666665</ele><time>2026-05-03T09:10:45.072Z</time></trkpt><trkpt lat="37.2293789" lon="9.9481825"><ele>3.0</ele><time>2026-05-03T09:10:51.086Z</time></trkpt><trkpt lat="37.2293322" lon="9.9482605"><ele>3.5999999999999996</ele><time>2026-05-03T09:11:38.1Z</time></trkpt><trkpt lat="37.2292717" lon="9.9484094"><ele>4.199999999999999</ele><time>2026-05-03T09:11:40.084Z</time></trkpt><trkpt lat="37.2292068" lon="9.9485109"><ele>4.8</ele><time>2026-05-03T09:11:41.097Z</time></trkpt><trkpt lat="37.2291565" lon="9.9486083"><ele>5.3999999999999995</ele><time>2026-05-03T09:11:42.099Z</time></trkpt><trkpt lat="37.2291126" lon="9.9487119"><ele>6.0</ele><time>2026-05-03T09:11:43.053Z</time></trkpt><trkpt lat="37.2290609" lon="9.9488235"><ele>6.0</ele><time>2026-05-03T09:11:44.084Z</time></trkpt><trkpt lat="37.229004" lon="9.9489387"><ele>6.0</ele><time>2026-05-03T09:11:45.074Z</time></trkpt><trkpt lat="37.228945" lon="9.9490549"><ele>6.0</ele><time>2026-05-03T09:11:46.099Z</time></trkpt><trkpt lat="37.2288912" lon="9.9491706"><ele>6.0</ele><time>2026-05-03T09:11:47.091Z</time></trkpt><trkpt lat="37.2288337" lon="9.9492877"><ele>6.0</ele><time>2026-05-03T09:11:48.089Z</time></trkpt><trkpt lat="37.2287707" lon="9.9494095"><ele>5.75</ele><time>2026-05-03T09:11:49.09Z</time></trkpt><trkpt lat="37.2287131" lon="9.9495284"><ele>5.5</ele><time>2026-05-03T09:11:50.083Z</time></trkpt><trkpt lat="37.2286529" lon="9.9496639"><ele>5.25</ele><time>2026-05-03T09:11:51.084Z</time></trkpt><trkpt lat="37.2285887" lon="9.9497987"><ele>5.0</ele><time>2026-05-03T09:11:52.07Z</time></trkpt><trkpt lat="37.2285262" lon="9.9499337"><ele>5.75</ele><time>2026-05-03T09:11:53.1Z</time></trkpt><trkpt lat="37.2284638" lon="9.9500697"><ele>6.5</ele><time>2026-05-03T09:11:54.091Z</time></trkpt><trkpt lat="37.2283932" lon="9.9502093"><ele>7.25</ele><time>2026-05-03T09:11:55.091Z</time></trkpt><trkpt lat="37.2283244" lon="9.9503668"><ele>8.0</ele><time>2026-05-03T09:11:56.074Z</time></trkpt><trkpt lat="37.228247" lon="9.950525"><ele>8.0</ele><time>2026-05-03T09:11:57.082Z</time></trkpt><trkpt lat="37.2281649" lon="9.9506908"><ele>8.0</ele><time>2026-05-03T09:11:58.081Z</time></trkpt><trkpt lat="37.2280847" lon="9.9508673"><ele>8.0</ele><time>2026-05-03T09:11:59.082Z</time></trkpt><trkpt lat="37.2280001" lon="9.951055"><ele>7.333333333333333</ele><time>2026-05-03T09:12:00.075Z</time></trkpt><trkpt lat="37.2279088" lon="9.9512494"><ele>6.666666666666666</ele><time>2026-05-03T09:12:01.071Z</time></trkpt><trkpt lat="37.2278134" lon="9.9514473"><ele>6.0</ele><time>2026-05-03T09:12:02.092Z</time></trkpt><trkpt lat="37.227713" lon="9.9516515"><ele>6.666666666666666</ele><time>2026-05-03T09:12:03.082Z</time></trkpt><trkpt lat="37.2276153" lon="9.9518615"><ele>7.333333333333333</ele><time>2026-05-03T09:12:04.086Z</time></trkpt><trkpt lat="37.2275089" lon="9.952077"><ele>8.0</ele><time>2026-05-03T09:12:05.081Z</time></trkpt><trkpt lat="37.2274057" lon="9.9522855"><ele>8.0</ele><time>2026-05-03T09:12:06.088Z</time></trkpt><trkpt lat="37.2272987" lon="9.9524953"><ele>8.0</ele><time>2026-05-03T09:12:07.08Z</time></trkpt><trkpt lat="37.2271947" lon="9.9527067"><ele>8.0</ele><time>2026-05-03T09:12:08.089Z</time></trkpt><trkpt lat="37.2270928" lon="9.9529189"><ele>8.0</ele><time>2026-05-03T09:12:09.08Z</time></trkpt><trkpt lat="37.2269918" lon="9.9531289"><ele>8.0</ele><time>2026-05-03T09:12:10.09Z</time></trkpt><trkpt lat="37.2268913" lon="9.953338"><ele>8.0</ele><time>2026-05-03T09:12:11.079Z</time></trkpt><trkpt lat="37.2267928" lon="9.9535424"><ele>8.0</ele><time>2026-05-03T09:12:12.092Z</time></trkpt><trkpt lat="37.2266952" lon="9.9537428"><ele>8.0</ele><time>2026-05-03T09:12:13.087Z</time></trkpt><trkpt lat="37.2266018" lon="9.95394"><ele>8.0</ele><time>2026-05-03T09:12:14.088Z</time></trkpt><trkpt lat="37.2265051" lon="9.9541297"><ele>8.666666666666666</ele><time>2026-05-03T09:12:15.109Z</time></trkpt><trkpt lat="37.2264058" lon="9.9543267"><ele>9.333333333333334</ele><time>2026-05-03T09:12:16.08Z</time></trkpt><trkpt lat="37.2263017" lon="9.9545314"><ele>10.0</ele><time>2026-05-03T09:12:17.09Z</time></trkpt><trkpt lat="37.2261929" lon="9.9547306"><ele>10.0</ele><time>2026-05-03T09:12:18.085Z</time></trkpt><trkpt lat="37.2260818" lon="9.9549343"><ele>10.0</ele><time>2026-05-03T09:12:19.074Z</time></trkpt><trkpt lat="37.2259713" lon="9.9551359"><ele>10.0</ele><time>2026-05-03T09:12:20.089Z</time></trkpt><trkpt lat="37.2258572" lon="9.9553361"><ele>10.333333333333334</ele><time>2026-05-03T09:12:21.075Z</time></trkpt><trkpt lat="37.225741" lon="9.9555407"><ele>10.666666666666666</ele><time>2026-05-03T09:12:22.087Z</time></trkpt><trkpt lat="37.2256195" lon="9.9557378"><ele>11.0</ele><time>2026-05-03T09:12:23.076Z</time></trkpt><trkpt lat="37.2254996" lon="9.9559385"><ele>11.333333333333332</ele><time>2026-05-03T09:12:24.091Z</time></trkpt><trkpt lat="37.2253779" lon="9.9561387"><ele>11.666666666666666</ele><time>2026-05-03T09:12:25.099Z</time></trkpt><trkpt lat="37.2252475" lon="9.9563353"><ele>12.0</ele><time>2026-05-03T09:12:26.089Z</time></trkpt><trkpt lat="37.2251177" lon="9.9565319"><ele>12.333333333333332</ele><time>2026-05-03T09:12:27.085Z</time></trkpt><trkpt lat="37.224985" lon="9.9567208"><ele>12.666666666666666</ele><time>2026-05-03T09:12:28.078Z</time></trkpt><trkpt lat="37.2248464" lon="9.9569137"><ele>13.0</ele><time>2026-05-03T09:12:29.083Z</time></trkpt><trkpt lat="37.2247077" lon="9.9571033"><ele>13.0</ele><time>2026-05-03T09:12:30.048Z</time></trkpt><trkpt lat="37.2245668" lon="9.9572902"><ele>13.0</ele><time>2026-05-03T09:12:31.102Z</time></trkpt><trkpt lat="37.2244187" lon="9.957478"><ele>13.0</ele><time>2026-05-03T09:12:32.107Z</time></trkpt><trkpt lat="37.2242674" lon="9.9576626"><ele>12.666666666666666</ele><time>2026-05-03T09:12:33.079Z</time></trkpt><trkpt lat="37.2241158" lon="9.9578512"><ele>12.333333333333332</ele><time>2026-05-03T09:12:34.112Z</time></trkpt><trkpt lat="37.2239642" lon="9.9580371"><ele>12.0</ele><time>2026-05-03T09:12:35.109Z</time></trkpt><trkpt lat="37.2238086" lon="9.9582148"><ele>12.333333333333332</ele><time>2026-05-03T09:12:36.105Z</time></trkpt><trkpt lat="37.2236546" lon="9.9583905"><ele>12.666666666666666</ele><time>2026-05-03T09:12:37.088Z</time></trkpt><trkpt lat="37.2234972" lon="9.9585587"><ele>13.0</ele><time>2026-05-03T09:12:38.085Z</time></trkpt><trkpt lat="37.2233388" lon="9.9587268"><ele>13.0</ele><time>2026-05-03T09:12:39.104Z</time></trkpt><trkpt lat="37.2231781" lon="9.9588964"><ele>13.0</ele><time>2026-05-03T09:12:40.101Z</time></trkpt><trkpt lat="37.2230177" lon="9.9590712"><ele>13.0</ele><time>2026-05-03T09:12:41.106Z</time></trkpt><trkpt lat="37.2228516" lon="9.9592401"><ele>13.0</ele><time>2026-05-03T09:12:42.058Z</time></trkpt><trkpt lat="37.2226893" lon="9.9594046"><ele>13.0</ele><time>2026-05-03T09:12:43.08Z</time></trkpt><trkpt lat="37.2225215" lon="9.9595709"><ele>13.0</ele><time>2026-05-03T09:12:44.089Z</time></trkpt><trkpt lat="37.2223494" lon="9.9597423"><ele>13.5</ele><time>2026-05-03T09:12:45.081Z</time></trkpt><trkpt lat="37.22217" lon="9.9599129"><ele>14.0</ele><time>2026-05-03T09:12:46.085Z</time></trkpt><trkpt lat="37.2219914" lon="9.9600841"><ele>14.0</ele><time>2026-05-03T09:12:47.087Z</time></trkpt><trkpt lat="37.2218177" lon="9.9602591"><ele>14.0</ele><time>2026-05-03T09:12:48.091Z</time></trkpt><trkpt lat="37.221644" lon="9.9604193"><ele>14.0</ele><time>2026-05-03T09:12:49.084Z</time></trkpt><trkpt lat="37.2214753" lon="9.9605822"><ele>14.333333333333334</ele><time>2026-05-03T09:12:50.081Z</time></trkpt><trkpt lat="37.2213018" lon="9.9607464"><ele>14.666666666666668</ele><time>2026-05-03T09:12:51.088Z</time></trkpt><trkpt lat="37.2211255" lon="9.960915"><ele>15.0</ele><time>2026-05-03T09:12:52.092Z</time></trkpt><trkpt lat="37.2209495" lon="9.9610861"><ele>15.5</ele><time>2026-05-03T09:12:53.076Z</time></trkpt><trkpt lat="37.2207665" lon="9.9612591"><ele>16.0</ele><time>2026-05-03T09:12:54.066Z</time></trkpt><trkpt lat="37.2205824" lon="9.9614317"><ele>16.0</ele><time>2026-05-03T09:12:55.09Z</time></trkpt><trkpt lat="37.2204041" lon="9.9616055"><ele>16.0</ele><time>2026-05-03T09:12:56.096Z</time></trkpt><trkpt lat="37.2202267" lon="9.9617776"><ele>16.0</ele><time>2026-05-03T09:12:57.098Z</time></trkpt><trkpt lat="37.2200487" lon="9.9619454"><ele>16.0</ele><time>2026-05-03T09:12:58.095Z</time></trkpt><trkpt lat="37.2198765" lon="9.9621158"><ele>16.0</ele><time>2026-05-03T09:12:59.054Z</time></trkpt><trkpt lat="37.2197042" lon="9.9622875"><ele>16.0</ele><time>2026-05-03T09:13:00.067Z</time></trkpt><trkpt lat="37.2195309" lon="9.9624624"><ele>16.0</ele><time>2026-05-03T09:13:01.08Z</time></trkpt><trkpt lat="37.2193639" lon="9.9626372"><ele>16.0</ele><time>2026-05-03T09:13:02.059Z</time></trkpt><trkpt lat="37.2191965" lon="9.9628184"><ele>16.666666666666664</ele><time>2026-05-03T09:13:03.075Z</time></trkpt><trkpt lat="37.2190304" lon="9.9629971"><ele>17.333333333333332</ele><time>2026-05-03T09:13:04.098Z</time></trkpt><trkpt lat="37.2188673" lon="9.9631745"><ele>18.0</ele><time>2026-05-03T09:13:05.094Z</time></trkpt><trkpt lat="37.2186987" lon="9.9633587"><ele>19.666666666666668</ele><time>2026-05-03T09:13:06.093Z</time></trkpt><trkpt lat="37.2185326" lon="9.9635455"><ele>21.333333333333336</ele><time>2026-05-03T09:13:07.101Z</time></trkpt><trkpt lat="37.218368" lon="9.9637332"><ele>23.0</ele><time>2026-05-03T09:13:08.095Z</time></trkpt><trkpt lat="37.2182038" lon="9.9639229"><ele>22.0</ele><time>2026-05-03T09:13:09.074Z</time></trkpt><trkpt lat="37.2180426" lon="9.9641115"><ele>21.0</ele><time>2026-05-03T09:13:10.08Z</time></trkpt><trkpt lat="37.2178861" lon="9.9643062"><ele>20.0</ele><time>2026-05-03T09:13:11.08Z</time></trkpt><trkpt lat="37.2177325" lon="9.9644965"><ele>20.0</ele><time>2026-05-03T09:13:12.094Z</time></trkpt><trkpt lat="37.2175799" lon="9.9646927"><ele>20.0</ele><time>2026-05-03T09:13:13.089Z</time></trkpt><trkpt lat="37.2174306" lon="9.9648923"><ele>20.0</ele><time>2026-05-03T09:13:14.071Z</time></trkpt><trkpt lat="37.2172768" lon="9.9650941"><ele>20.333333333333336</ele><time>2026-05-03T09:13:15.084Z</time></trkpt><trkpt lat="37.2171292" lon="9.9652924"><ele>20.666666666666668</ele><time>2026-05-03T09:13:16.099Z</time></trkpt><trkpt lat="37.2169772" lon="9.9654965"><ele>21.0</ele><time>2026-05-03T09:13:17.087Z</time></trkpt><trkpt lat="37.2168259" lon="9.9656949"><ele>21.333333333333332</ele><time>2026-05-03T09:13:18.071Z</time></trkpt><trkpt lat="37.2166797" lon="9.9658991"><ele>21.666666666666664</ele><time>2026-05-03T09:13:19.079Z</time></trkpt><trkpt lat="37.216529" lon="9.9661006"><ele>22.0</ele><time>2026-05-03T09:13:20.1Z</time></trkpt><trkpt lat="37.216382" lon="9.9662985"><ele>22.0</ele><time>2026-05-03T09:13:21.076Z</time></trkpt><trkpt lat="37.2162309" lon="9.9664989"><ele>22.0</ele><time>2026-05-03T09:13:22.089Z</time></trkpt><trkpt lat="37.2160792" lon="9.9666976"><ele>22.0</ele><time>2026-05-03T09:13:23.079Z</time></trkpt><trkpt lat="37.2159286" lon="9.9668999"><ele>21.666666666666664</ele><time>2026-05-03T09:13:24.086Z</time></trkpt><trkpt lat="37.2157785" lon="9.9671025"><ele>21.333333333333332</ele><time>2026-05-03T09:13:25.093Z</time></trkpt><trkpt lat="37.2156239" lon="9.9673039"><ele>21.0</ele><time>2026-05-03T09:13:26.09Z</time></trkpt><trkpt lat="37.2154749" lon="9.9675102"><ele>22.0</ele><time>2026-05-03T09:13:27.088Z</time></trkpt><trkpt lat="37.2153254" lon="9.9677142"><ele>23.0</ele><time>2026-05-03T09:13:28.085Z</time></trkpt><trkpt lat="37.2151814" lon="9.9679136"><ele>24.0</ele><time>2026-05-03T09:13:29.096Z</time></trkpt><trkpt lat="37.2150288" lon="9.9681186"><ele>24.0</ele><time>2026-05-03T09:13:30.09Z</time></trkpt><trkpt lat="37.2148784" lon="9.9683219"><ele>24.0</ele><time>2026-05-03T09:13:31.098Z</time></trkpt><trkpt lat="37.214731" lon="9.9685208"><ele>24.0</ele><time>2026-05-03T09:13:32.087Z</time></trkpt><trkpt lat="37.2145793" lon="9.9687207"><ele>24.333333333333336</ele><time>2026-05-03T09:13:33.068Z</time></trkpt><trkpt lat="37.2144277" lon="9.9689205"><ele>24.666666666666668</ele><time>2026-05-03T09:13:34.09Z</time></trkpt><trkpt lat="37.2142799" lon="9.9691238"><ele>25.0</ele><time>2026-05-03T09:13:35.094Z</time></trkpt><trkpt lat="37.2141293" lon="9.9693272"><ele>25.666666666666668</ele><time>2026-05-03T09:13:36.101Z</time></trkpt><trkpt lat="37.2139799" lon="9.9695268"><ele>26.333333333333336</ele><time>2026-05-03T09:13:37.082Z</time></trkpt><trkpt lat="37.213829" lon="9.9697344"><ele>27.0</ele><time>2026-05-03T09:13:38.087Z</time></trkpt><trkpt lat="37.2136758" lon="9.9699384"><ele>27.0</ele><time>2026-05-03T09:13:39.056Z</time></trkpt><trkpt lat="37.2135276" lon="9.9701443"><ele>27.0</ele><time>2026-05-03T09:13:40.091Z</time></trkpt><trkpt lat="37.2133762" lon="9.9703449"><ele>27.0</ele><time>2026-05-03T09:13:41.092Z</time></trkpt><trkpt lat="37.2132247" lon="9.9705493"><ele>26.666666666666664</ele><time>2026-05-03T09:13:42.101Z</time></trkpt><trkpt lat="37.2130706" lon="9.9707542"><ele>26.333333333333332</ele><time>2026-05-03T09:13:43.081Z</time></trkpt><trkpt lat="37.2129171" lon="9.9709536"><ele>26.0</ele><time>2026-05-03T09:13:44.089Z</time></trkpt><trkpt lat="37.2127645" lon="9.9711548"><ele>26.0</ele><time>2026-05-03T09:13:45.076Z</time></trkpt><trkpt lat="37.212617" lon="9.9713582"><ele>26.0</ele><time>2026-05-03T09:13:46.072Z</time></trkpt><trkpt lat="37.2124647" lon="9.9715596"><ele>26.0</ele><time>2026-05-03T09:13:47.078Z</time></trkpt><trkpt lat="37.2123154" lon="9.9717582"><ele>26.666666666666664</ele><time>2026-05-03T09:13:48.091Z</time></trkpt><trkpt lat="37.2121679" lon="9.9719557"><ele>27.333333333333336</ele><time>2026-05-03T09:13:49.098Z</time></trkpt><trkpt lat="37.212018" lon="9.9721574"><ele>28.0</ele><time>2026-05-03T09:13:50.088Z</time></trkpt><trkpt lat="37.2118744" lon="9.9723571"><ele>29.333333333333336</ele><time>2026-05-03T09:13:51.083Z</time></trkpt><trkpt lat="37.2117309" lon="9.972556"><ele>30.666666666666664</ele><time>2026-05-03T09:13:52.083Z</time></trkpt><trkpt lat="37.21159" lon="9.9727531"><ele>32.0</ele><time>2026-05-03T09:13:53.064Z</time></trkpt><trkpt lat="37.2114546" lon="9.9729352"><ele>32.0</ele><time>2026-05-03T09:13:54.097Z</time></trkpt><trkpt lat="37.2113169" lon="9.9731197"><ele>32.0</ele><time>2026-05-03T09:13:55.079Z</time></trkpt><trkpt lat="37.2111853" lon="9.973299"><ele>32.0</ele><time>2026-05-03T09:13:56.066Z</time></trkpt><trkpt lat="37.2110487" lon="9.9734866"><ele>31.666666666666664</ele><time>2026-05-03T09:13:57.082Z</time></trkpt><trkpt lat="37.2109075" lon="9.9736784"><ele>31.333333333333336</ele><time>2026-05-03T09:13:58.089Z</time></trkpt><trkpt lat="37.2107671" lon="9.9738657"><ele>31.0</ele><time>2026-05-03T09:13:59.084Z</time></trkpt><trkpt lat="37.2106264" lon="9.9740533"><ele>32.333333333333336</ele><time>2026-05-03T09:14:00.085Z</time></trkpt><trkpt lat="37.2104878" lon="9.9742455"><ele>33.666666666666664</ele><time>2026-05-03T09:14:01.081Z</time></trkpt><trkpt lat="37.2103498" lon="9.9744279"><ele>35.0</ele><time>2026-05-03T09:14:02.095Z</time></trkpt><trkpt lat="37.2102101" lon="9.9746154"><ele>35.0</ele><time>2026-05-03T09:14:03.137Z</time></trkpt><trkpt lat="37.2100748" lon="9.9748045"><ele>35.0</ele><time>2026-05-03T09:14:04.089Z</time></trkpt><trkpt lat="37.2099356" lon="9.9749979"><ele>35.0</ele><time>2026-05-03T09:14:05.091Z</time></trkpt><trkpt lat="37.2097967" lon="9.975192"><ele>35.666666666666664</ele><time>2026-05-03T09:14:06.087Z</time></trkpt><trkpt lat="37.2096579" lon="9.9753879"><ele>36.333333333333336</ele><time>2026-05-03T09:14:07.095Z</time></trkpt><trkpt lat="37.2095213" lon="9.9755789"><ele>37.0</ele><time>2026-05-03T09:14:08.086Z</time></trkpt><trkpt lat="37.2093851" lon="9.9757725"><ele>38.333333333333336</ele><time>2026-05-03T09:14:09.079Z</time></trkpt><trkpt lat="37.2092466" lon="9.9759647"><ele>39.666666666666664</ele><time>2026-05-03T09:14:10.082Z</time></trkpt><trkpt lat="37.2091119" lon="9.9761651"><ele>41.0</ele><time>2026-05-03T09:14:11.08Z</time></trkpt><trkpt lat="37.2089746" lon="9.9763639"><ele>41.0</ele><time>2026-05-03T09:14:12.105Z</time></trkpt><trkpt lat="37.2088408" lon="9.9765658"><ele>41.0</ele><time>2026-05-03T09:14:13.093Z</time></trkpt><trkpt lat="37.2087065" lon="9.9767685"><ele>41.0</ele><time>2026-05-03T09:14:14.063Z</time></trkpt><trkpt lat="37.2085728" lon="9.9769717"><ele>41.0</ele><time>2026-05-03T09:14:15.086Z</time></trkpt><trkpt lat="37.2084401" lon="9.9771756"><ele>41.0</ele><time>2026-05-03T09:14:16.087Z</time></trkpt><trkpt lat="37.2083066" lon="9.9773878"><ele>41.0</ele><time>2026-05-03T09:14:17.092Z</time></trkpt><trkpt lat="37.2081705" lon="9.9776004"><ele>42.0</ele><time>2026-05-03T09:14:18.089Z</time></trkpt><trkpt lat="37.2080301" lon="9.9778132"><ele>43.0</ele><time>2026-05-03T09:14:19.081Z</time></trkpt><trkpt lat="37.207898" lon="9.9780273"><ele>44.0</ele><time>2026-05-03T09:14:20.091Z</time></trkpt><trkpt lat="37.2077653" lon="9.9782422"><ele>43.666666666666664</ele><time>2026-05-03T09:14:21.112Z</time></trkpt><trkpt lat="37.2076323" lon="9.9784532"><ele>43.333333333333336</ele><time>2026-05-03T09:14:22.087Z</time></trkpt><trkpt lat="37.2074995" lon="9.9786665"><ele>43.0</ele><time>2026-05-03T09:14:23.088Z</time></trkpt><trkpt lat="37.2073673" lon="9.9788846"><ele>43.66666666666667</ele><time>2026-05-03T09:14:24.096Z</time></trkpt><trkpt lat="37.2072293" lon="9.9791047"><ele>44.333333333333336</ele><time>2026-05-03T09:14:25.088Z</time></trkpt><trkpt lat="37.2070976" lon="9.9793238"><ele>45.0</ele><time>2026-05-03T09:14:26.086Z</time></trkpt><trkpt lat="37.2069632" lon="9.9795438"><ele>45.333333333333336</ele><time>2026-05-03T09:14:27.086Z</time></trkpt><trkpt lat="37.2068359" lon="9.9797612"><ele>45.66666666666667</ele><time>2026-05-03T09:14:28.089Z</time></trkpt><trkpt lat="37.2067065" lon="9.9799792"><ele>46.0</ele><time>2026-05-03T09:14:29.09Z</time></trkpt><trkpt lat="37.2065783" lon="9.9801998"><ele>45.66666666666667</ele><time>2026-05-03T09:14:30.063Z</time></trkpt><trkpt lat="37.2064482" lon="9.9804215"><ele>45.333333333333336</ele><time>2026-05-03T09:14:31.053Z</time></trkpt><trkpt lat="37.2063196" lon="9.9806432"><ele>45.0</ele><time>2026-05-03T09:14:32.055Z</time></trkpt><trkpt lat="37.2061887" lon="9.9808644"><ele>44.666666666666664</ele><time>2026-05-03T09:14:33.06Z</time></trkpt><trkpt lat="37.206061" lon="9.9810899"><ele>44.33333333333333</ele><time>2026-05-03T09:14:34.061Z</time></trkpt><trkpt lat="37.2059342" lon="9.9813135"><ele>44.0</ele><time>2026-05-03T09:14:35.087Z</time></trkpt><trkpt lat="37.2058098" lon="9.981535"><ele>44.666666666666664</ele><time>2026-05-03T09:14:36.086Z</time></trkpt><trkpt lat="37.2056904" lon="9.9817611"><ele>45.333333333333336</ele><time>2026-05-03T09:14:37.065Z</time></trkpt><trkpt lat="37.2055654" lon="9.9819817"><ele>46.0</ele><time>2026-05-03T09:14:38.082Z</time></trkpt><trkpt lat="37.205443" lon="9.9822047"><ele>46.0</ele><time>2026-05-03T09:14:39.104Z</time></trkpt><trkpt lat="37.2053269" lon="9.9824311"><ele>46.0</ele><time>2026-05-03T09:14:40.083Z</time></trkpt><trkpt lat="37.2052082" lon="9.9826624"><ele>46.0</ele><time>2026-05-03T09:14:41.082Z</time></trkpt><trkpt lat="37.205093" lon="9.9828972"><ele>46.333333333333336</ele><time>2026-05-03T09:14:42.093Z</time></trkpt><trkpt lat="37.2049746" lon="9.9831247"><ele>46.666666666666664</ele><time>2026-05-03T09:14:43.062Z</time></trkpt><trkpt lat="37.2048552" lon="9.9833513"><ele>47.0</ele><time>2026-05-03T09:14:44.082Z</time></trkpt><trkpt lat="37.204736" lon="9.9835786"><ele>47.0</ele><time>2026-05-03T09:14:45.078Z</time></trkpt><trkpt lat="37.2046173" lon="9.9838085"><ele>47.0</ele><time>2026-05-03T09:14:46.07Z</time></trkpt><trkpt lat="37.2045024" lon="9.9840394"><ele>47.0</ele><time>2026-05-03T09:14:47.086Z</time></trkpt><trkpt lat="37.2043864" lon="9.984274"><ele>47.33333333333333</ele><time>2026-05-03T09:14:48.086Z</time></trkpt><trkpt lat="37.2042688" lon="9.9844998"><ele>47.666666666666664</ele><time>2026-05-03T09:14:49.085Z</time></trkpt><trkpt lat="37.2041576" lon="9.9847323"><ele>48.0</ele><time>2026-05-03T09:14:50.086Z</time></trkpt><trkpt lat="37.2040458" lon="9.9849648"><ele>48.33333333333333</ele><time>2026-05-03T09:14:51.1Z</time></trkpt><trkpt lat="37.2039344" lon="9.9852009"><ele>48.666666666666664</ele><time>2026-05-03T09:14:52.059Z</time></trkpt><trkpt lat="37.2038259" lon="9.9854362"><ele>49.0</ele><time>2026-05-03T09:14:53.074Z</time></trkpt><trkpt lat="37.2037159" lon="9.9856716"><ele>50.33333333333333</ele><time>2026-05-03T09:14:54.082Z</time></trkpt><trkpt lat="37.203607" lon="9.9859103"><ele>51.66666666666667</ele><time>2026-05-03T09:14:55.091Z</time></trkpt><trkpt lat="37.2034982" lon="9.9861486"><ele>53.0</ele><time>2026-05-03T09:14:56.085Z</time></trkpt><trkpt lat="37.203388" lon="9.9863839"><ele>53.0</ele><time>2026-05-03T09:14:57.066Z</time></trkpt><trkpt lat="37.2032755" lon="9.9866222"><ele>53.0</ele><time>2026-05-03T09:14:58.082Z</time></trkpt><trkpt lat="37.2031703" lon="9.9868653"><ele>53.0</ele><time>2026-05-03T09:14:59.087Z</time></trkpt><trkpt lat="37.2030659" lon="9.9871029"><ele>52.66666666666667</ele><time>2026-05-03T09:15:00.071Z</time></trkpt><trkpt lat="37.2029637" lon="9.9873398"><ele>52.33333333333333</ele><time>2026-05-03T09:15:01.092Z</time></trkpt><trkpt lat="37.202859" lon="9.9875807"><ele>52.0</ele><time>2026-05-03T09:15:02.085Z</time></trkpt><trkpt lat="37.2027544" lon="9.9878187"><ele>53.0</ele><time>2026-05-03T09:15:03.095Z</time></trkpt><trkpt lat="37.2026485" lon="9.9880582"><ele>54.0</ele><time>2026-05-03T09:15:04.077Z</time></trkpt><trkpt lat="37.2025394" lon="9.9883006"><ele>55.0</ele><time>2026-05-03T09:15:05.093Z</time></trkpt><trkpt lat="37.2024322" lon="9.9885386"><ele>54.666666666666664</ele><time>2026-05-03T09:15:06.086Z</time></trkpt><trkpt lat="37.202331" lon="9.9887758"><ele>54.33333333333333</ele><time>2026-05-03T09:15:07.085Z</time></trkpt><trkpt lat="37.2022268" lon="9.989015"><ele>54.0</ele><time>2026-05-03T09:15:08.076Z</time></trkpt><trkpt lat="37.2021215" lon="9.9892528"><ele>55.0</ele><time>2026-05-03T09:15:09.088Z</time></trkpt><trkpt lat="37.2020123" lon="9.9894929"><ele>56.0</ele><time>2026-05-03T09:15:10.081Z</time></trkpt><trkpt lat="37.2019095" lon="9.9897299"><ele>57.0</ele><time>2026-05-03T09:15:11.075Z</time></trkpt><trkpt lat="37.201804" lon="9.9899664"><ele>57.33333333333333</ele><time>2026-05-03T09:15:12.082Z</time></trkpt><trkpt lat="37.2017022" lon="9.9902118"><ele>57.666666666666664</ele><time>2026-05-03T09:15:13.082Z</time></trkpt><trkpt lat="37.2015977" lon="9.9904525"><ele>58.0</ele><time>2026-05-03T09:15:14.068Z</time></trkpt><trkpt lat="37.2014968" lon="9.9906892"><ele>57.666666666666664</ele><time>2026-05-03T09:15:15.08Z</time></trkpt><trkpt lat="37.2013933" lon="9.9909296"><ele>57.33333333333333</ele><time>2026-05-03T09:15:16.081Z</time></trkpt><trkpt lat="37.2012875" lon="9.991163"><ele>57.0</ele><time>2026-05-03T09:15:17.074Z</time></trkpt><trkpt lat="37.2011804" lon="9.991396"><ele>57.0</ele><time>2026-05-03T09:15:18.08Z</time></trkpt><trkpt lat="37.2010758" lon="9.9916349"><ele>57.0</ele><time>2026-05-03T09:15:19.07Z</time></trkpt><trkpt lat="37.2009747" lon="9.9918788"><ele>57.0</ele><time>2026-05-03T09:15:20.075Z</time></trkpt><trkpt lat="37.2008769" lon="9.9921212"><ele>57.0</ele><time>2026-05-03T09:15:21.089Z</time></trkpt><trkpt lat="37.2007706" lon="9.9923607"><ele>57.0</ele><time>2026-05-03T09:15:22.094Z</time></trkpt><trkpt lat="37.2006663" lon="9.9926026"><ele>57.0</ele><time>2026-05-03T09:15:23.082Z</time></trkpt><trkpt lat="37.2005606" lon="9.9928423"><ele>57.0</ele><time>2026-05-03T09:15:24.086Z</time></trkpt><trkpt lat="37.200454" lon="9.9930831"><ele>57.0</ele><time>2026-05-03T09:15:25.092Z</time></trkpt><trkpt lat="37.2003484" lon="9.9933268"><ele>57.0</ele><time>2026-05-03T09:15:26.098Z</time></trkpt><trkpt lat="37.2002428" lon="9.9935655"><ele>57.33333333333333</ele><time>2026-05-03T09:15:27.078Z</time></trkpt><trkpt lat="37.2001372" lon="9.9938065"><ele>57.666666666666664</ele><time>2026-05-03T09:15:28.085Z</time></trkpt><trkpt lat="37.2000358" lon="9.9940501"><ele>58.0</ele><time>2026-05-03T09:15:29.093Z</time></trkpt><trkpt lat="37.1999349" lon="9.9942915"><ele>57.0</ele><time>2026-05-03T09:15:30.099Z</time></trkpt><trkpt lat="37.199833" lon="9.9945253"><ele>56.0</ele><time>2026-05-03T09:15:31.078Z</time></trkpt><trkpt lat="37.1997348" lon="9.9947473"><ele>55.0</ele><time>2026-05-03T09:15:32.095Z</time></trkpt><trkpt lat="37.1996408" lon="9.994961"><ele>55.666666666666664</ele><time>2026-05-03T09:15:33.073Z</time></trkpt><trkpt lat="37.1995469" lon="9.9951643"><ele>56.33333333333333</ele><time>2026-05-03T09:15:34.09Z</time></trkpt><trkpt lat="37.1994583" lon="9.9953677"><ele>57.0</ele><time>2026-05-03T09:15:35.086Z</time></trkpt><trkpt lat="37.1993708" lon="9.9955655"><ele>57.0</ele><time>2026-05-03T09:15:36.079Z</time></trkpt><trkpt lat="37.1992837" lon="9.9957719"><ele>57.0</ele><time>2026-05-03T09:15:37.084Z</time></trkpt><trkpt lat="37.1991921" lon="9.9959852"><ele>57.0</ele><time>2026-05-03T09:15:38.087Z</time></trkpt><trkpt lat="37.1990925" lon="9.996211"><ele>57.33333333333333</ele><time>2026-05-03T09:15:39.094Z</time></trkpt><trkpt lat="37.198988" lon="9.9964437"><ele>57.666666666666664</ele><time>2026-05-03T09:15:40.054Z</time></trkpt><trkpt lat="37.1988892" lon="9.9966754"><ele>58.0</ele><time>2026-05-03T09:15:41.078Z</time></trkpt><trkpt lat="37.1987871" lon="9.9969083"><ele>58.666666666666664</ele><time>2026-05-03T09:15:42.068Z</time></trkpt><trkpt lat="37.1986787" lon="9.9971374"><ele>59.33333333333333</ele><time>2026-05-03T09:15:43.084Z</time></trkpt><trkpt lat="37.1985725" lon="9.9973728"><ele>60.0</ele><time>2026-05-03T09:15:44.086Z</time></trkpt><trkpt lat="37.1984633" lon="9.9976142"><ele>60.0</ele><time>2026-05-03T09:15:45.05Z</time></trkpt><trkpt lat="37.1983533" lon="9.9978553"><ele>60.0</ele><time>2026-05-03T09:15:46.084Z</time></trkpt><trkpt lat="37.1982433" lon="9.9980966"><ele>60.0</ele><time>2026-05-03T09:15:47.088Z</time></trkpt><trkpt lat="37.1981365" lon="9.9983374"><ele>58.66666666666667</ele><time>2026-05-03T09:15:48.048Z</time></trkpt><trkpt lat="37.198029" lon="9.9985739"><ele>57.333333333333336</ele><time>2026-05-03T09:15:49.066Z</time></trkpt><trkpt lat="37.1979278" lon="9.9988055"><ele>56.0</ele><time>2026-05-03T09:15:50.075Z</time></trkpt><trkpt lat="37.1978243" lon="9.9990371"><ele>57.0</ele><time>2026-05-03T09:15:51.065Z</time></trkpt><trkpt lat="37.1977211" lon="9.9992714"><ele>58.0</ele><time>2026-05-03T09:15:52.087Z</time></trkpt><trkpt lat="37.1976189" lon="9.9995057"><ele>59.0</ele><time>2026-05-03T09:15:53.094Z</time></trkpt><trkpt lat="37.1975147" lon="9.9997376"><ele>59.0</ele><time>2026-05-03T09:15:54.084Z</time></trkpt><trkpt lat="37.1974099" lon="9.9999718"><ele>59.0</ele><time>2026-05-03T09:15:55.089Z</time></trkpt><trkpt lat="37.1973067" lon="10.0002094"><ele>59.0</ele><time>2026-05-03T09:15:56.045Z</time></trkpt><trkpt lat="37.1971996" lon="10.0004459"><ele>57.333333333333336</ele><time>2026-05-03T09:15:57.08Z</time></trkpt><trkpt lat="37.1970937" lon="10.0006777"><ele>55.66666666666667</ele><time>2026-05-03T09:15:58.097Z</time></trkpt><trkpt lat="37.1969869" lon="10.0009084"><ele>54.0</ele><time>2026-05-03T09:15:59.049Z</time></trkpt><trkpt lat="37.1968799" lon="10.0011436"><ele>54.0</ele><time>2026-05-03T09:16:00.052Z</time></trkpt><trkpt lat="37.1967761" lon="10.001377"><ele>54.0</ele><time>2026-05-03T09:16:01.056Z</time></trkpt><trkpt lat="37.1966771" lon="10.0016103"><ele>54.0</ele><time>2026-05-03T09:16:02.105Z</time></trkpt><trkpt lat="37.1965748" lon="10.0018459"><ele>54.33333333333333</ele><time>2026-05-03T09:16:03.07Z</time></trkpt><trkpt lat="37.1964747" lon="10.002078"><ele>54.666666666666664</ele><time>2026-05-03T09:16:04.048Z</time></trkpt><trkpt lat="37.1963757" lon="10.002311"><ele>55.0</ele><time>2026-05-03T09:16:05.089Z</time></trkpt><trkpt lat="37.1962686" lon="10.002545"><ele>55.0</ele><time>2026-05-03T09:16:06.049Z</time></trkpt><trkpt lat="37.1961649" lon="10.002784"><ele>55.0</ele><time>2026-05-03T09:16:07.05Z</time></trkpt><trkpt lat="37.1960627" lon="10.0030188"><ele>55.0</ele><time>2026-05-03T09:16:08.05Z</time></trkpt><trkpt lat="37.1959613" lon="10.0032569"><ele>55.666666666666664</ele><time>2026-05-03T09:16:09.049Z</time></trkpt><trkpt lat="37.1958595" lon="10.0034916"><ele>56.33333333333333</ele><time>2026-05-03T09:16:10.055Z</time></trkpt><trkpt lat="37.195753" lon="10.0037252"><ele>57.0</ele><time>2026-05-03T09:16:11.065Z</time></trkpt><trkpt lat="37.1956443" lon="10.003957"><ele>55.66666666666667</ele><time>2026-05-03T09:16:12.051Z</time></trkpt><trkpt lat="37.1955304" lon="10.0041822"><ele>54.333333333333336</ele><time>2026-05-03T09:16:13.042Z</time></trkpt><trkpt lat="37.1954178" lon="10.004407"><ele>53.0</ele><time>2026-05-03T09:16:14.056Z</time></trkpt><trkpt lat="37.1953018" lon="10.0046312"><ele>53.0</ele><time>2026-05-03T09:16:15.051Z</time></trkpt><trkpt lat="37.1951824" lon="10.0048576"><ele>53.0</ele><time>2026-05-03T09:16:16.048Z</time></trkpt><trkpt lat="37.1950613" lon="10.0050751"><ele>53.0</ele><time>2026-05-03T09:16:17.065Z</time></trkpt><trkpt lat="37.1949359" lon="10.0052926"><ele>52.66666666666667</ele><time>2026-05-03T09:16:18.088Z</time></trkpt><trkpt lat="37.1948105" lon="10.0055065"><ele>52.33333333333333</ele><time>2026-05-03T09:16:19.074Z</time></trkpt><trkpt lat="37.1946841" lon="10.005724"><ele>52.0</ele><time>2026-05-03T09:16:20.072Z</time></trkpt><trkpt lat="37.1945593" lon="10.0059381"><ele>52.666666666666664</ele><time>2026-05-03T09:16:21.077Z</time></trkpt><trkpt lat="37.194432" lon="10.0061487"><ele>53.33333333333333</ele><time>2026-05-03T09:16:22.078Z</time></trkpt><trkpt lat="37.1943038" lon="10.0063617"><ele>54.0</ele><time>2026-05-03T09:16:23.074Z</time></trkpt><trkpt lat="37.1941728" lon="10.0065671"><ele>54.0</ele><time>2026-05-03T09:16:24.086Z</time></trkpt><trkpt lat="37.1940338" lon="10.0067745"><ele>54.0</ele><time>2026-05-03T09:16:25.094Z</time></trkpt><trkpt lat="37.193892" lon="10.0069792"><ele>54.0</ele><time>2026-05-03T09:16:26.075Z</time></trkpt><trkpt lat="37.193748" lon="10.0071779"><ele>54.0</ele><time>2026-05-03T09:16:27.048Z</time></trkpt><trkpt lat="37.1936047" lon="10.0073797"><ele>54.0</ele><time>2026-05-03T09:16:28.079Z</time></trkpt><trkpt lat="37.1934653" lon="10.0075821"><ele>54.0</ele><time>2026-05-03T09:16:29.088Z</time></trkpt><trkpt lat="37.1933213" lon="10.007776"><ele>54.0</ele><time>2026-05-03T09:16:30.083Z</time></trkpt><trkpt lat="37.19318" lon="10.007969"><ele>54.0</ele><time>2026-05-03T09:16:31.052Z</time></trkpt><trkpt lat="37.1930314" lon="10.0081658"><ele>54.0</ele><time>2026-05-03T09:16:32.074Z</time></trkpt><trkpt lat="37.1928786" lon="10.0083574"><ele>52.33333333333333</ele><time>2026-05-03T09:16:33.09Z</time></trkpt><trkpt lat="37.1927252" lon="10.0085425"><ele>50.666666666666664</ele><time>2026-05-03T09:16:34.07Z</time></trkpt><trkpt lat="37.1925747" lon="10.0087284"><ele>49.0</ele><time>2026-05-03T09:16:35.069Z</time></trkpt><trkpt lat="37.1924161" lon="10.0089152"><ele>48.666666666666664</ele><time>2026-05-03T09:16:36.097Z</time></trkpt><trkpt lat="37.1922543" lon="10.0090949"><ele>48.33333333333333</ele><time>2026-05-03T09:16:37.071Z</time></trkpt><trkpt lat="37.1920965" lon="10.0092747"><ele>48.0</ele><time>2026-05-03T09:16:38.09Z</time></trkpt><trkpt lat="37.1919325" lon="10.0094497"><ele>48.66666666666667</ele><time>2026-05-03T09:16:39.064Z</time></trkpt><trkpt lat="37.1917702" lon="10.0096249"><ele>49.333333333333336</ele><time>2026-05-03T09:16:40.084Z</time></trkpt><trkpt lat="37.1916073" lon="10.0097996"><ele>50.0</ele><time>2026-05-03T09:16:41.064Z</time></trkpt><trkpt lat="37.1914465" lon="10.0099703"><ele>49.0</ele><time>2026-05-03T09:16:42.084Z</time></trkpt><trkpt lat="37.1912768" lon="10.0101351"><ele>48.0</ele><time>2026-05-03T09:16:43.081Z</time></trkpt><trkpt lat="37.1911059" lon="10.0102997"><ele>47.0</ele><time>2026-05-03T09:16:44.085Z</time></trkpt><trkpt lat="37.1909358" lon="10.0104617"><ele>47.0</ele><time>2026-05-03T09:16:45.085Z</time></trkpt><trkpt lat="37.190762" lon="10.0106228"><ele>47.0</ele><time>2026-05-03T09:16:46.088Z</time></trkpt><trkpt lat="37.1905883" lon="10.0107787"><ele>47.0</ele><time>2026-05-03T09:16:47.079Z</time></trkpt><trkpt lat="37.1904123" lon="10.0109248"><ele>46.666666666666664</ele><time>2026-05-03T09:16:48.084Z</time></trkpt><trkpt lat="37.1902374" lon="10.0110742"><ele>46.333333333333336</ele><time>2026-05-03T09:16:49.1Z</time></trkpt><trkpt lat="37.1900626" lon="10.0112247"><ele>46.0</ele><time>2026-05-03T09:16:50.099Z</time></trkpt><trkpt lat="37.1898829" lon="10.0113714"><ele>46.0</ele><time>2026-05-03T09:16:51.085Z</time></trkpt><trkpt lat="37.1897041" lon="10.0115092"><ele>46.0</ele><time>2026-05-03T09:16:52.099Z</time></trkpt><trkpt lat="37.1895196" lon="10.0116492"><ele>46.0</ele><time>2026-05-03T09:16:53.083Z</time></trkpt><trkpt lat="37.189334" lon="10.0117866"><ele>46.0</ele><time>2026-05-03T09:16:54.084Z</time></trkpt><trkpt lat="37.1891486" lon="10.0119243"><ele>46.0</ele><time>2026-05-03T09:16:55.084Z</time></trkpt><trkpt lat="37.1889577" lon="10.0120549"><ele>46.0</ele><time>2026-05-03T09:16:56.092Z</time></trkpt><trkpt lat="37.1887708" lon="10.0121847"><ele>46.66666666666667</ele><time>2026-05-03T09:16:57.062Z</time></trkpt><trkpt lat="37.1885846" lon="10.0123048"><ele>47.333333333333336</ele><time>2026-05-03T09:16:58.091Z</time></trkpt><trkpt lat="37.188392" lon="10.0124233"><ele>48.0</ele><time>2026-05-03T09:16:59.071Z</time></trkpt><trkpt lat="37.1882012" lon="10.0125417"><ele>49.33333333333333</ele><time>2026-05-03T09:17:00.064Z</time></trkpt><trkpt lat="37.1880085" lon="10.0126634"><ele>50.666666666666664</ele><time>2026-05-03T09:17:01.075Z</time></trkpt><trkpt lat="37.187815" lon="10.0127858"><ele>52.0</ele><time>2026-05-03T09:17:02.079Z</time></trkpt><trkpt lat="37.1876222" lon="10.0128987"><ele>52.0</ele><time>2026-05-03T09:17:03.058Z</time></trkpt><trkpt lat="37.1874294" lon="10.013009"><ele>52.0</ele><time>2026-05-03T09:17:04.082Z</time></trkpt><trkpt lat="37.1872316" lon="10.0131113"><ele>52.0</ele><time>2026-05-03T09:17:05.079Z</time></trkpt><trkpt lat="37.1870338" lon="10.0132132"><ele>51.33333333333333</ele><time>2026-05-03T09:17:06.075Z</time></trkpt><trkpt lat="37.1868313" lon="10.0133145"><ele>50.66666666666667</ele><time>2026-05-03T09:17:07.094Z</time></trkpt><trkpt lat="37.1866315" lon="10.0134148"><ele>50.0</ele><time>2026-05-03T09:17:08.084Z</time></trkpt><trkpt lat="37.1864332" lon="10.013514"><ele>49.0</ele><time>2026-05-03T09:17:09.064Z</time></trkpt><trkpt lat="37.186237" lon="10.0136135"><ele>48.0</ele><time>2026-05-03T09:17:10.08Z</time></trkpt><trkpt lat="37.1860412" lon="10.0137105"><ele>47.0</ele><time>2026-05-03T09:17:11.099Z</time></trkpt><trkpt lat="37.1858438" lon="10.0138044"><ele>47.33333333333333</ele><time>2026-05-03T09:17:12.089Z</time></trkpt><trkpt lat="37.1856429" lon="10.0138958"><ele>47.666666666666664</ele><time>2026-05-03T09:17:13.079Z</time></trkpt><trkpt lat="37.1854407" lon="10.0139938"><ele>48.0</ele><time>2026-05-03T09:17:14.075Z</time></trkpt><trkpt lat="37.1852392" lon="10.014088"><ele>48.33333333333333</ele><time>2026-05-03T09:17:15.068Z</time></trkpt><trkpt lat="37.1850382" lon="10.0141864"><ele>48.666666666666664</ele><time>2026-05-03T09:17:16.067Z</time></trkpt><trkpt lat="37.1848406" lon="10.0142853"><ele>49.0</ele><time>2026-05-03T09:17:17.074Z</time></trkpt><trkpt lat="37.1846421" lon="10.0143812"><ele>49.33333333333333</ele><time>2026-05-03T09:17:18.081Z</time></trkpt><trkpt lat="37.1844449" lon="10.0144729"><ele>49.66666666666667</ele><time>2026-05-03T09:17:19.081Z</time></trkpt><trkpt lat="37.1842443" lon="10.0145654"><ele>50.0</ele><time>2026-05-03T09:17:20.097Z</time></trkpt><trkpt lat="37.1840461" lon="10.01466"><ele>49.333333333333336</ele><time>2026-05-03T09:17:21.088Z</time></trkpt><trkpt lat="37.1838426" lon="10.0147573"><ele>48.66666666666667</ele><time>2026-05-03T09:17:22.082Z</time></trkpt><trkpt lat="37.1836424" lon="10.0148536"><ele>48.0</ele><time>2026-05-03T09:17:23.077Z</time></trkpt><trkpt lat="37.1834432" lon="10.0149508"><ele>48.0</ele><time>2026-05-03T09:17:24.1Z</time></trkpt><trkpt lat="37.1832431" lon="10.0150458"><ele>48.0</ele><time>2026-05-03T09:17:25.084Z</time></trkpt><trkpt lat="37.1830466" lon="10.0151443"><ele>48.0</ele><time>2026-05-03T09:17:26.048Z</time></trkpt><trkpt lat="37.1828451" lon="10.0152425"><ele>48.0</ele><time>2026-05-03T09:17:27.075Z</time></trkpt><trkpt lat="37.1826461" lon="10.0153451"><ele>48.0</ele><time>2026-05-03T09:17:28.084Z</time></trkpt><trkpt lat="37.1824473" lon="10.0154422"><ele>48.0</ele><time>2026-05-03T09:17:29.099Z</time></trkpt><trkpt lat="37.1822523" lon="10.0155376"><ele>48.0</ele><time>2026-05-03T09:17:30.082Z</time></trkpt><trkpt lat="37.1820516" lon="10.0156319"><ele>48.0</ele><time>2026-05-03T09:17:31.083Z</time></trkpt><trkpt lat="37.1818513" lon="10.0157329"><ele>48.0</ele><time>2026-05-03T09:17:32.074Z</time></trkpt><trkpt lat="37.1816505" lon="10.0158298"><ele>47.666666666666664</ele><time>2026-05-03T09:17:33.09Z</time></trkpt><trkpt lat="37.1814508" lon="10.0159206"><ele>47.33333333333333</ele><time>2026-05-03T09:17:34.083Z</time></trkpt><trkpt lat="37.1812516" lon="10.0160152"><ele>47.0</ele><time>2026-05-03T09:17:35.099Z</time></trkpt><trkpt lat="37.1810553" lon="10.0161032"><ele>47.0</ele><time>2026-05-03T09:17:36.09Z</time></trkpt><trkpt lat="37.1808537" lon="10.0162033"><ele>47.0</ele><time>2026-05-03T09:17:37.085Z</time></trkpt><trkpt lat="37.1806512" lon="10.0163017"><ele>47.0</ele><time>2026-05-03T09:17:38.077Z</time></trkpt><trkpt lat="37.1804506" lon="10.016399"><ele>47.0</ele><time>2026-05-03T09:17:39.073Z</time></trkpt><trkpt lat="37.180252" lon="10.0164931"><ele>47.0</ele><time>2026-05-03T09:17:40.094Z</time></trkpt><trkpt lat="37.1800549" lon="10.0165911"><ele>47.0</ele><time>2026-05-03T09:17:41.097Z</time></trkpt><trkpt lat="37.1798555" lon="10.016691"><ele>46.33333333333333</ele><time>2026-05-03T09:17:42.09Z</time></trkpt><trkpt lat="37.1796561" lon="10.0167853"><ele>45.666666666666664</ele><time>2026-05-03T09:17:43.088Z</time></trkpt><trkpt lat="37.1794561" lon="10.0168793"><ele>45.0</ele><time>2026-05-03T09:17:44.097Z</time></trkpt><trkpt lat="37.1792593" lon="10.0169747"><ele>45.0</ele><time>2026-05-03T09:17:45.09Z</time></trkpt><trkpt lat="37.1790593" lon="10.0170699"><ele>45.0</ele><time>2026-05-03T09:17:46.053Z</time></trkpt><trkpt lat="37.1788588" lon="10.0171695"><ele>45.0</ele><time>2026-05-03T09:17:47.051Z</time></trkpt><trkpt lat="37.1786574" lon="10.0172686"><ele>45.333333333333336</ele><time>2026-05-03T09:17:48.072Z</time></trkpt><trkpt lat="37.1784573" lon="10.0173626"><ele>45.66666666666667</ele><time>2026-05-03T09:17:49.086Z</time></trkpt><trkpt lat="37.1782587" lon="10.0174571"><ele>46.0</ele><time>2026-05-03T09:17:50.093Z</time></trkpt><trkpt lat="37.1780605" lon="10.0175564"><ele>46.0</ele><time>2026-05-03T09:17:51.085Z</time></trkpt><trkpt lat="37.1778651" lon="10.017655"><ele>46.0</ele><time>2026-05-03T09:17:52.089Z</time></trkpt><trkpt lat="37.1776708" lon="10.0177472"><ele>46.0</ele><time>2026-05-03T09:17:53.07Z</time></trkpt><trkpt lat="37.1774743" lon="10.0178453"><ele>45.66666666666667</ele><time>2026-05-03T09:17:54.093Z</time></trkpt><trkpt lat="37.1772742" lon="10.017943"><ele>45.333333333333336</ele><time>2026-05-03T09:17:55.072Z</time></trkpt><trkpt lat="37.1770705" lon="10.0180386"><ele>45.0</ele><time>2026-05-03T09:17:56.076Z</time></trkpt><trkpt lat="37.1768731" lon="10.0181329"><ele>45.0</ele><time>2026-05-03T09:17:57.063Z</time></trkpt><trkpt lat="37.1766726" lon="10.0182282"><ele>45.0</ele><time>2026-05-03T09:17:58.061Z</time></trkpt><trkpt lat="37.1764737" lon="10.0183197"><ele>45.0</ele><time>2026-05-03T09:17:59.085Z</time></trkpt><trkpt lat="37.1762766" lon="10.0184175"><ele>45.0</ele><time>2026-05-03T09:18:00.075Z</time></trkpt><trkpt lat="37.1760791" lon="10.0185159"><ele>45.0</ele><time>2026-05-03T09:18:01.092Z</time></trkpt><trkpt lat="37.1758808" lon="10.0186118"><ele>45.0</ele><time>2026-05-03T09:18:02.088Z</time></trkpt><trkpt lat="37.1756815" lon="10.0187131"><ele>45.0</ele><time>2026-05-03T09:18:03.093Z</time></trkpt><trkpt lat="37.1754812" lon="10.0188066"><ele>45.0</ele><time>2026-05-03T09:18:04.09Z</time></trkpt><trkpt lat="37.1752833" lon="10.018896"><ele>45.0</ele><time>2026-05-03T09:18:05.057Z</time></trkpt><trkpt lat="37.1750816" lon="10.0189925"><ele>45.0</ele><time>2026-05-03T09:18:06.076Z</time></trkpt><trkpt lat="37.1748808" lon="10.0190876"><ele>45.0</ele><time>2026-05-03T09:18:07.077Z</time></trkpt><trkpt lat="37.1746818" lon="10.0191838"><ele>45.0</ele><time>2026-05-03T09:18:08.078Z</time></trkpt><trkpt lat="37.1744827" lon="10.0192782"><ele>44.666666666666664</ele><time>2026-05-03T09:18:09.071Z</time></trkpt><trkpt lat="37.1742832" lon="10.0193753"><ele>44.33333333333333</ele><time>2026-05-03T09:18:10.069Z</time></trkpt><trkpt lat="37.1740822" lon="10.0194712"><ele>44.0</ele><time>2026-05-03T09:18:11.079Z</time></trkpt><trkpt lat="37.17388" lon="10.0195684"><ele>44.0</ele><time>2026-05-03T09:18:12.102Z</time></trkpt><trkpt lat="37.1736756" lon="10.019663"><ele>44.0</ele><time>2026-05-03T09:18:13.077Z</time></trkpt><trkpt lat="37.1734737" lon="10.0197548"><ele>44.0</ele><time>2026-05-03T09:18:14.078Z</time></trkpt><trkpt lat="37.1732733" lon="10.0198506"><ele>44.0</ele><time>2026-05-03T09:18:15.086Z</time></trkpt><trkpt lat="37.1730761" lon="10.0199491"><ele>44.0</ele><time>2026-05-03T09:18:16.091Z</time></trkpt><trkpt lat="37.1728774" lon="10.0200472"><ele>44.0</ele><time>2026-05-03T09:18:17.08Z</time></trkpt><trkpt lat="37.1726778" lon="10.0201469"><ele>44.0</ele><time>2026-05-03T09:18:18.082Z</time></trkpt><trkpt lat="37.1724786" lon="10.0202471"><ele>44.0</ele><time>2026-05-03T09:18:19.082Z</time></trkpt><trkpt lat="37.1722793" lon="10.0203421"><ele>44.0</ele><time>2026-05-03T09:18:20.069Z</time></trkpt><trkpt lat="37.1720812" lon="10.0204339"><ele>44.33333333333333</ele><time>2026-05-03T09:18:21.072Z</time></trkpt><trkpt lat="37.1718816" lon="10.020528"><ele>44.666666666666664</ele><time>2026-05-03T09:18:22.076Z</time></trkpt><trkpt lat="37.1716797" lon="10.0206193"><ele>45.0</ele><time>2026-05-03T09:18:23.08Z</time></trkpt><trkpt lat="37.1714819" lon="10.0207128"><ele>45.0</ele><time>2026-05-03T09:18:24.083Z</time></trkpt><trkpt lat="37.1712796" lon="10.0208072"><ele>45.0</ele><time>2026-05-03T09:18:25.078Z</time></trkpt><trkpt lat="37.1710827" lon="10.020908"><ele>45.0</ele><time>2026-05-03T09:18:26.089Z</time></trkpt><trkpt lat="37.1708868" lon="10.0210043"><ele>44.666666666666664</ele><time>2026-05-03T09:18:27.078Z</time></trkpt><trkpt lat="37.170688" lon="10.0210998"><ele>44.33333333333333</ele><time>2026-05-03T09:18:28.087Z</time></trkpt><trkpt lat="37.1704874" lon="10.0211997"><ele>44.0</ele><time>2026-05-03T09:18:29.085Z</time></trkpt><trkpt lat="37.170283" lon="10.0212978"><ele>44.0</ele><time>2026-05-03T09:18:30.084Z</time></trkpt><trkpt lat="37.1700834" lon="10.0213973"><ele>44.0</ele><time>2026-05-03T09:18:31.08Z</time></trkpt><trkpt lat="37.1698838" lon="10.0214912"><ele>44.0</ele><time>2026-05-03T09:18:32.083Z</time></trkpt><trkpt lat="37.169681" lon="10.0215845"><ele>44.0</ele><time>2026-05-03T09:18:33.065Z</time></trkpt><trkpt lat="37.1694821" lon="10.0216838"><ele>44.0</ele><time>2026-05-03T09:18:34.084Z</time></trkpt><trkpt lat="37.1692869" lon="10.0217818"><ele>44.0</ele><time>2026-05-03T09:18:35.074Z</time></trkpt><trkpt lat="37.1690857" lon="10.0218748"><ele>44.0</ele><time>2026-05-03T09:18:36.064Z</time></trkpt><trkpt lat="37.1688879" lon="10.0219679"><ele>44.0</ele><time>2026-05-03T09:18:37.089Z</time></trkpt><trkpt lat="37.1686897" lon="10.0220633"><ele>44.0</ele><time>2026-05-03T09:18:38.077Z</time></trkpt><trkpt lat="37.1684903" lon="10.0221602"><ele>44.0</ele><time>2026-05-03T09:18:39.061Z</time></trkpt><trkpt lat="37.168291" lon="10.022256"><ele>44.0</ele><time>2026-05-03T09:18:40.071Z</time></trkpt><trkpt lat="37.1680895" lon="10.0223522"><ele>44.0</ele><time>2026-05-03T09:18:41.079Z</time></trkpt><trkpt lat="37.1678934" lon="10.022444"><ele>44.33333333333333</ele><time>2026-05-03T09:18:42.098Z</time></trkpt><trkpt lat="37.1676969" lon="10.0225418"><ele>44.666666666666664</ele><time>2026-05-03T09:18:43.087Z</time></trkpt><trkpt lat="37.1674946" lon="10.0226401"><ele>45.0</ele><time>2026-05-03T09:18:44.089Z</time></trkpt><trkpt lat="37.1672934" lon="10.0227301"><ele>44.333333333333336</ele><time>2026-05-03T09:18:45.072Z</time></trkpt><trkpt lat="37.1670938" lon="10.0228246"><ele>43.66666666666667</ele><time>2026-05-03T09:18:46.072Z</time></trkpt><trkpt lat="37.1668928" lon="10.0229232"><ele>43.0</ele><time>2026-05-03T09:18:47.074Z</time></trkpt><trkpt lat="37.1666961" lon="10.0230219"><ele>42.66666666666667</ele><time>2026-05-03T09:18:48.079Z</time></trkpt><trkpt lat="37.1664974" lon="10.023118"><ele>42.333333333333336</ele><time>2026-05-03T09:18:49.077Z</time></trkpt><trkpt lat="37.1662975" lon="10.0232134"><ele>42.0</ele><time>2026-05-03T09:18:50.091Z</time></trkpt><trkpt lat="37.1660993" lon="10.023313"><ele>42.0</ele><time>2026-05-03T09:18:51.08Z</time></trkpt><trkpt lat="37.165902" lon="10.0234086"><ele>42.0</ele><time>2026-05-03T09:18:52.103Z</time></trkpt><trkpt lat="37.1656999" lon="10.0235044"><ele>42.0</ele><time>2026-05-03T09:18:53.074Z</time></trkpt><trkpt lat="37.1654987" lon="10.0236016"><ele>42.666666666666664</ele><time>2026-05-03T09:18:54.093Z</time></trkpt><trkpt lat="37.1652992" lon="10.0236977"><ele>43.33333333333333</ele><time>2026-05-03T09:18:55.074Z</time></trkpt><trkpt lat="37.1651008" lon="10.0237986"><ele>44.0</ele><time>2026-05-03T09:18:56.066Z</time></trkpt><trkpt lat="37.1649021" lon="10.0238914"><ele>43.666666666666664</ele><time>2026-05-03T09:18:57.068Z</time></trkpt><trkpt lat="37.1647049" lon="10.0239872"><ele>43.333333333333336</ele><time>2026-05-03T09:18:58.06Z</time></trkpt><trkpt lat="37.1645048" lon="10.0240851"><ele>43.0</ele><time>2026-05-03T09:18:59.078Z</time></trkpt><trkpt lat="37.164302" lon="10.0241794"><ele>43.0</ele><time>2026-05-03T09:19:00.08Z</time></trkpt><trkpt lat="37.1641036" lon="10.0242733"><ele>43.0</ele><time>2026-05-03T09:19:01.065Z</time></trkpt><trkpt lat="37.1639029" lon="10.0243682"><ele>43.0</ele><time>2026-05-03T09:19:02.071Z</time></trkpt><trkpt lat="37.1637022" lon="10.0244663"><ele>43.0</ele><time>2026-05-03T09:19:03.09Z</time></trkpt><trkpt lat="37.1635061" lon="10.0245593"><ele>43.0</ele><time>2026-05-03T09:19:04.092Z</time></trkpt><trkpt lat="37.1633096" lon="10.0246537"><ele>43.0</ele><time>2026-05-03T09:19:05.095Z</time></trkpt><trkpt lat="37.1631119" lon="10.0247495"><ele>43.0</ele><time>2026-05-03T09:19:06.066Z</time></trkpt><trkpt lat="37.162925" lon="10.0248248"><ele>43.0</ele><time>2026-05-03T09:19:07.073Z</time></trkpt><trkpt lat="37.1627572" lon="10.0248958"><ele>43.0</ele><time>2026-05-03T09:19:08.064Z</time></trkpt><trkpt lat="37.1625959" lon="10.024962"><ele>43.333333333333336</ele><time>2026-05-03T09:19:09.069Z</time></trkpt><trkpt lat="37.1624352" lon="10.0250315"><ele>43.666666666666664</ele><time>2026-05-03T09:19:10.069Z</time></trkpt><trkpt lat="37.1622882" lon="10.0250993"><ele>44.0</ele><time>2026-05-03T09:19:11.08Z</time></trkpt><trkpt lat="37.162143" lon="10.0251573"><ele>45.0</ele><time>2026-05-03T09:19:12.1Z</time></trkpt><trkpt lat="37.1619888" lon="10.0251994"><ele>46.0</ele><time>2026-05-03T09:19:13.088Z</time></trkpt><trkpt lat="37.1618374" lon="10.0252161"><ele>47.0</ele><time>2026-05-03T09:19:14.083Z</time></trkpt><trkpt lat="37.1616828" lon="10.0252053"><ele>46.666666666666664</ele><time>2026-05-03T09:19:15.066Z</time></trkpt><trkpt lat="37.1615277" lon="10.0251719"><ele>46.333333333333336</ele><time>2026-05-03T09:19:16.089Z</time></trkpt><trkpt lat="37.1613755" lon="10.0251185"><ele>46.0</ele><time>2026-05-03T09:19:17.085Z</time></trkpt><trkpt lat="37.161219" lon="10.0250577"><ele>46.0</ele><time>2026-05-03T09:19:18.093Z</time></trkpt><trkpt lat="37.1610667" lon="10.0249836"><ele>46.0</ele><time>2026-05-03T09:19:19.075Z</time></trkpt><trkpt lat="37.1609173" lon="10.0248838"><ele>46.0</ele><time>2026-05-03T09:19:20.078Z</time></trkpt><trkpt lat="37.160779" lon="10.0247782"><ele>45.66666666666667</ele><time>2026-05-03T09:19:21.078Z</time></trkpt><trkpt lat="37.1606417" lon="10.0246789"><ele>45.333333333333336</ele><time>2026-05-03T09:19:22.085Z</time></trkpt><trkpt lat="37.1605098" lon="10.0245771"><ele>45.0</ele><time>2026-05-03T09:19:23.086Z</time></trkpt><trkpt lat="37.1603914" lon="10.0244871"><ele>45.0</ele><time>2026-05-03T09:19:24.092Z</time></trkpt><trkpt lat="37.16029" lon="10.0244052"><ele>45.0</ele><time>2026-05-03T09:19:25.063Z</time></trkpt><trkpt lat="37.1602123" lon="10.0243384"><ele>45.0</ele><time>2026-05-03T09:19:26.085Z</time></trkpt><trkpt lat="37.1601437" lon="10.0242808"><ele>45.0</ele><time>2026-05-03T09:19:27.084Z</time></trkpt><trkpt lat="37.1600808" lon="10.0242085"><ele>45.0</ele><time>2026-05-03T09:19:28.092Z</time></trkpt><trkpt lat="37.1600262" lon="10.0241418"><ele>45.0</ele><time>2026-05-03T09:19:29.086Z</time></trkpt><trkpt lat="37.1599701" lon="10.0240633"><ele>45.0</ele><time>2026-05-03T09:19:30.078Z</time></trkpt><trkpt lat="37.1599145" lon="10.0239981"><ele>45.0</ele><time>2026-05-03T09:19:31.091Z</time></trkpt><trkpt lat="37.1598375" lon="10.0239217"><ele>45.0</ele><time>2026-05-03T09:19:33.079Z</time></trkpt><trkpt lat="37.1597784" lon="10.0238727"><ele>45.0</ele><time>2026-05-03T09:19:35.065Z</time></trkpt><trkpt lat="37.1597343" lon="10.0238121"><ele>45.0</ele><time>2026-05-03T09:19:38.093Z</time></trkpt><trkpt lat="37.1596827" lon="10.0237556"><ele>44.666666666666664</ele><time>2026-05-03T09:19:42.097Z</time></trkpt><trkpt lat="37.1596183" lon="10.0237121"><ele>44.333333333333336</ele><time>2026-05-03T09:19:50.093Z</time></trkpt><trkpt lat="37.1595679" lon="10.0236369"><ele>44.0</ele><time>2026-05-03T09:20:02.087Z</time></trkpt><trkpt lat="37.1594983" lon="10.0235899"><ele>43.66666666666667</ele><time>2026-05-03T09:22:11.077Z</time></trkpt><trkpt lat="37.1594426" lon="10.0235137"><ele>43.333333333333336</ele><time>2026-05-03T09:22:14.084Z</time></trkpt><trkpt lat="37.1594017" lon="10.0234316"><ele>43.0</ele><time>2026-05-03T09:22:15.101Z</time></trkpt><trkpt lat="37.1593507" lon="10.0233681"><ele>42.714285714285715</ele><time>2026-05-03T09:22:16.081Z</time></trkpt><trkpt lat="37.1593021" lon="10.0233082"><ele>42.42857142857143</ele><time>2026-05-03T09:22:17.087Z</time></trkpt><trkpt lat="37.1592462" lon="10.0232475"><ele>42.14285714285714</ele><time>2026-05-03T09:22:18.101Z</time></trkpt><trkpt lat="37.1591929" lon="10.0231813"><ele>41.85714285714286</ele><time>2026-05-03T09:22:19.092Z</time></trkpt><trkpt lat="37.1591408" lon="10.023118"><ele>41.57142857142857</ele><time>2026-05-03T09:22:20.087Z</time></trkpt><trkpt lat="37.1590947" lon="10.0230572"><ele>41.285714285714285</ele><time>2026-05-03T09:22:21.11Z</time></trkpt><trkpt lat="37.1590456" lon="10.0230014"><ele>41.0</ele><time>2026-05-03T09:22:22.089Z</time></trkpt><trkpt lat="37.1589942" lon="10.0229361"><ele>40.83333333333333</ele><time>2026-05-03T09:22:23.101Z</time></trkpt><trkpt lat="37.1589434" lon="10.0228682"><ele>40.666666666666664</ele><time>2026-05-03T09:22:24.092Z</time></trkpt><trkpt lat="37.1588874" lon="10.0227985"><ele>40.5</ele><time>2026-05-03T09:22:25.099Z</time></trkpt><trkpt lat="37.1588212" lon="10.0227176"><ele>40.333333333333336</ele><time>2026-05-03T09:22:26.054Z</time></trkpt><trkpt lat="37.1587517" lon="10.0226371"><ele>40.16666666666667</ele><time>2026-05-03T09:22:27.063Z</time></trkpt><trkpt lat="37.1586896" lon="10.0225562"><ele>40.0</ele><time>2026-05-03T09:22:28.083Z</time></trkpt><trkpt lat="37.1586249" lon="10.0224755"><ele>40.0</ele><time>2026-05-03T09:22:29.092Z</time></trkpt><trkpt lat="37.1585626" lon="10.022404"><ele>40.0</ele><time>2026-05-03T09:22:30.08Z</time></trkpt><trkpt lat="37.1584998" lon="10.0223301"><ele>40.0</ele><time>2026-05-03T09:22:31.1Z</time></trkpt><trkpt lat="37.1584416" lon="10.0222409"><ele>40.0</ele><time>2026-05-03T09:22:32.078Z</time></trkpt><trkpt lat="37.1583889" lon="10.0221431"><ele>40.0</ele><time>2026-05-03T09:22:33.1Z</time></trkpt><trkpt lat="37.1583487" lon="10.0220301"><ele>40.0</ele><time>2026-05-03T09:22:34.09Z</time></trkpt><trkpt lat="37.158326" lon="10.0219119"><ele>40.0</ele><time>2026-05-03T09:22:35.088Z</time></trkpt><trkpt lat="37.1583132" lon="10.0217747"><ele>40.0</ele><time>2026-05-03T09:22:36.078Z</time></trkpt><trkpt lat="37.158315" lon="10.0216338"><ele>40.0</ele><time>2026-05-03T09:22:37.081Z</time></trkpt><trkpt lat="37.1583317" lon="10.0214984"><ele>40.0</ele><time>2026-05-03T09:22:38.063Z</time></trkpt><trkpt lat="37.1583613" lon="10.0213635"><ele>40.0</ele><time>2026-05-03T09:22:39.091Z</time></trkpt><trkpt lat="37.1584086" lon="10.0212417"><ele>40.0</ele><time>2026-05-03T09:22:40.08Z</time></trkpt><trkpt lat="37.1584642" lon="10.0211309"><ele>40.0</ele><time>2026-05-03T09:22:41.094Z</time></trkpt><trkpt lat="37.1585303" lon="10.0210281"><ele>40.0</ele><time>2026-05-03T09:22:42.086Z</time></trkpt><trkpt lat="37.1586065" lon="10.0209379"><ele>40.0</ele><time>2026-05-03T09:22:43.091Z</time></trkpt><trkpt lat="37.1586836" lon="10.0208593"><ele>39.6</ele><time>2026-05-03T09:22:44.086Z</time></trkpt><trkpt lat="37.158766" lon="10.0207852"><ele>39.2</ele><time>2026-05-03T09:22:45.096Z</time></trkpt><trkpt lat="37.1588447" lon="10.020715"><ele>38.8</ele><time>2026-05-03T09:22:46.095Z</time></trkpt><trkpt lat="37.1589232" lon="10.0206512"><ele>38.4</ele><time>2026-05-03T09:22:47.061Z</time></trkpt><trkpt lat="37.1589926" lon="10.0205846"><ele>38.0</ele><time>2026-05-03T09:22:48.072Z</time></trkpt><trkpt lat="37.1590627" lon="10.0205192"><ele>37.83333333333333</ele><time>2026-05-03T09:22:49.091Z</time></trkpt><trkpt lat="37.1591261" lon="10.0204598"><ele>37.666666666666664</ele><time>2026-05-03T09:22:50.089Z</time></trkpt><trkpt lat="37.1591926" lon="10.0203968"><ele>37.5</ele><time>2026-05-03T09:22:51.099Z</time></trkpt><trkpt lat="37.1592614" lon="10.0203288"><ele>37.333333333333336</ele><time>2026-05-03T09:22:52.093Z</time></trkpt><trkpt lat="37.1593252" lon="10.0202642"><ele>37.16666666666667</ele><time>2026-05-03T09:22:53.092Z</time></trkpt><trkpt lat="37.1593918" lon="10.0202"><ele>37.0</ele><time>2026-05-03T09:22:54.091Z</time></trkpt><trkpt lat="37.1594505" lon="10.0201495"><ele>37.0</ele><time>2026-05-03T09:22:55.088Z</time></trkpt><trkpt lat="37.159506" lon="10.0201032"><ele>37.0</ele><time>2026-05-03T09:22:56.079Z</time></trkpt><trkpt lat="37.1596008" lon="10.0200478"><ele>37.0</ele><time>2026-05-03T09:22:58.089Z</time></trkpt><trkpt lat="37.1597044" lon="10.0200203"><ele>37.0</ele><time>2026-05-03T09:23:00.076Z</time></trkpt><trkpt lat="37.1598207" lon="10.0200137"><ele>37.0</ele><time>2026-05-03T09:23:02.074Z</time></trkpt><trkpt lat="37.1599191" lon="10.0199727"><ele>37.0</ele><time>2026-05-03T09:23:04.104Z</time></trkpt><trkpt lat="37.1599728" lon="10.0198978"><ele>37.0</ele><time>2026-05-03T09:23:06.073Z</time></trkpt><trkpt lat="37.159993" lon="10.0197794"><ele>37.0</ele><time>2026-05-03T09:23:08.061Z</time></trkpt><trkpt lat="37.1599662" lon="10.0196545"><ele>37.0</ele><time>2026-05-03T09:23:10.065Z</time></trkpt><trkpt lat="37.1599218" lon="10.0195928"><ele>37.0</ele><time>2026-05-03T09:23:11.092Z</time></trkpt><trkpt lat="37.159869" lon="10.0195354"><ele>37.0</ele><time>2026-05-03T09:23:12.086Z</time></trkpt><trkpt lat="37.1598073" lon="10.01948"><ele>37.0</ele><time>2026-05-03T09:23:13.066Z</time></trkpt><trkpt lat="37.1597433" lon="10.0194067"><ele>37.0</ele><time>2026-05-03T09:23:14.065Z</time></trkpt><trkpt lat="37.1596801" lon="10.0193186"><ele>37.0</ele><time>2026-05-03T09:23:15.075Z</time></trkpt><trkpt lat="37.1596116" lon="10.0192124"><ele>37.0</ele><time>2026-05-03T09:23:16.073Z</time></trkpt><trkpt lat="37.1595438" lon="10.0190965"><ele>37.0</ele><time>2026-05-03T09:23:17.077Z</time></trkpt><trkpt lat="37.15948" lon="10.018939"><ele>36.333333333333336</ele><time>2026-05-03T09:23:18.072Z</time></trkpt><trkpt lat="37.159417" lon="10.0187791"><ele>35.666666666666664</ele><time>2026-05-03T09:23:19.066Z</time></trkpt><trkpt lat="37.1593428" lon="10.0186049"><ele>35.0</ele><time>2026-05-03T09:23:20.099Z</time></trkpt><trkpt lat="37.1592689" lon="10.0184203"><ele>34.33333333333333</ele><time>2026-05-03T09:23:21.084Z</time></trkpt><trkpt lat="37.1592007" lon="10.0182347"><ele>33.666666666666664</ele><time>2026-05-03T09:23:22.106Z</time></trkpt><trkpt lat="37.1591353" lon="10.0180486"><ele>33.0</ele><time>2026-05-03T09:23:23.084Z</time></trkpt><trkpt lat="37.1590766" lon="10.0178616"><ele>33.0</ele><time>2026-05-03T09:23:24.08Z</time></trkpt><trkpt lat="37.1590164" lon="10.0176706"><ele>33.0</ele><time>2026-05-03T09:23:25.086Z</time></trkpt><trkpt lat="37.1589562" lon="10.0174794"><ele>33.0</ele><time>2026-05-03T09:23:26.088Z</time></trkpt><trkpt lat="37.1588898" lon="10.0172889"><ele>33.0</ele><time>2026-05-03T09:23:27.094Z</time></trkpt><trkpt lat="37.158813" lon="10.017095"><ele>33.0</ele><time>2026-05-03T09:23:28.085Z</time></trkpt><trkpt lat="37.1587412" lon="10.0168987"><ele>33.0</ele><time>2026-05-03T09:23:29.088Z</time></trkpt><trkpt lat="37.1586671" lon="10.0167079"><ele>33.333333333333336</ele><time>2026-05-03T09:23:30.09Z</time></trkpt><trkpt lat="37.1585954" lon="10.0165184"><ele>33.66666666666667</ele><time>2026-05-03T09:23:31.078Z</time></trkpt><trkpt lat="37.1585187" lon="10.0163233"><ele>34.0</ele><time>2026-05-03T09:23:32.081Z</time></trkpt><trkpt lat="37.1584481" lon="10.0161311"><ele>34.0</ele><time>2026-05-03T09:23:33.083Z</time></trkpt><trkpt lat="37.1583749" lon="10.0159495"><ele>34.0</ele><time>2026-05-03T09:23:34.084Z</time></trkpt><trkpt lat="37.1582943" lon="10.0157667"><ele>34.0</ele><time>2026-05-03T09:23:35.087Z</time></trkpt><trkpt lat="37.1582116" lon="10.0155854"><ele>34.333333333333336</ele><time>2026-05-03T09:23:36.092Z</time></trkpt><trkpt lat="37.1581279" lon="10.0153974"><ele>34.666666666666664</ele><time>2026-05-03T09:23:37.089Z</time></trkpt><trkpt lat="37.1580451" lon="10.0152157"><ele>35.0</ele><time>2026-05-03T09:23:38.081Z</time></trkpt><trkpt lat="37.1579584" lon="10.0150329"><ele>34.33333333333333</ele><time>2026-05-03T09:23:39.083Z</time></trkpt><trkpt lat="37.1578737" lon="10.0148527"><ele>33.666666666666664</ele><time>2026-05-03T09:23:40.083Z</time></trkpt><trkpt lat="37.1577882" lon="10.0146744"><ele>33.0</ele><time>2026-05-03T09:23:41.088Z</time></trkpt><trkpt lat="37.1577057" lon="10.0144949"><ele>33.0</ele><time>2026-05-03T09:23:42.094Z</time></trkpt><trkpt lat="37.1576227" lon="10.0143142"><ele>33.0</ele><time>2026-05-03T09:23:43.089Z</time></trkpt><trkpt lat="37.1575412" lon="10.0141323"><ele>33.0</ele><time>2026-05-03T09:23:44.098Z</time></trkpt><trkpt lat="37.1574586" lon="10.0139534"><ele>32.333333333333336</ele><time>2026-05-03T09:23:45.092Z</time></trkpt><trkpt lat="37.1573749" lon="10.0137711"><ele>31.666666666666668</ele><time>2026-05-03T09:23:46.086Z</time></trkpt><trkpt lat="37.1572925" lon="10.0135886"><ele>31.0</ele><time>2026-05-03T09:23:47.095Z</time></trkpt><trkpt lat="37.1572076" lon="10.0134077"><ele>31.333333333333336</ele><time>2026-05-03T09:23:48.097Z</time></trkpt><trkpt lat="37.1571204" lon="10.013222"><ele>31.666666666666664</ele><time>2026-05-03T09:23:49.072Z</time></trkpt><trkpt lat="37.1570391" lon="10.0130368"><ele>32.0</ele><time>2026-05-03T09:23:50.073Z</time></trkpt><trkpt lat="37.1569548" lon="10.0128538"><ele>32.0</ele><time>2026-05-03T09:23:51.085Z</time></trkpt><trkpt lat="37.1568665" lon="10.0126655"><ele>32.0</ele><time>2026-05-03T09:23:52.077Z</time></trkpt><trkpt lat="37.1567765" lon="10.0124809"><ele>32.0</ele><time>2026-05-03T09:23:53.089Z</time></trkpt><trkpt lat="37.1566901" lon="10.0123019"><ele>32.33333333333333</ele><time>2026-05-03T09:23:54.093Z</time></trkpt><trkpt lat="37.1566018" lon="10.0121138"><ele>32.666666666666664</ele><time>2026-05-03T09:23:55.093Z</time></trkpt><trkpt lat="37.1565187" lon="10.0119247"><ele>33.0</ele><time>2026-05-03T09:23:56.11Z</time></trkpt><trkpt lat="37.1564359" lon="10.0117371"><ele>32.666666666666664</ele><time>2026-05-03T09:23:57.087Z</time></trkpt><trkpt lat="37.1563488" lon="10.0115583"><ele>32.33333333333333</ele><time>2026-05-03T09:23:58.085Z</time></trkpt><trkpt lat="37.1562589" lon="10.0113808"><ele>32.0</ele><time>2026-05-03T09:23:59.085Z</time></trkpt><trkpt lat="37.1561675" lon="10.0112046"><ele>32.0</ele><time>2026-05-03T09:24:00.065Z</time></trkpt><trkpt lat="37.1560717" lon="10.011034"><ele>32.0</ele><time>2026-05-03T09:24:01.091Z</time></trkpt><trkpt lat="37.1559779" lon="10.0108686"><ele>32.0</ele><time>2026-05-03T09:24:02.104Z</time></trkpt><trkpt lat="37.1558819" lon="10.0107034"><ele>31.666666666666664</ele><time>2026-05-03T09:24:03.082Z</time></trkpt><trkpt lat="37.1557797" lon="10.0105376"><ele>31.333333333333336</ele><time>2026-05-03T09:24:04.095Z</time></trkpt><trkpt lat="37.1556757" lon="10.0103721"><ele>31.0</ele><time>2026-05-03T09:24:05.097Z</time></trkpt><trkpt lat="37.1555703" lon="10.0102139"><ele>30.666666666666668</ele><time>2026-05-03T09:24:06.079Z</time></trkpt><trkpt lat="37.1554651" lon="10.0100537"><ele>30.333333333333336</ele><time>2026-05-03T09:24:07.084Z</time></trkpt><trkpt lat="37.1553573" lon="10.0098944"><ele>30.0</ele><time>2026-05-03T09:24:08.06Z</time></trkpt><trkpt lat="37.1552465" lon="10.0097337"><ele>30.0</ele><time>2026-05-03T09:24:09.078Z</time></trkpt><trkpt lat="37.1551325" lon="10.0095831"><ele>30.0</ele><time>2026-05-03T09:24:10.083Z</time></trkpt><trkpt lat="37.1550176" lon="10.009434"><ele>30.0</ele><time>2026-05-03T09:24:11.081Z</time></trkpt><trkpt lat="37.1549035" lon="10.0092852"><ele>30.333333333333336</ele><time>2026-05-03T09:24:12.092Z</time></trkpt><trkpt lat="37.1547881" lon="10.0091384"><ele>30.666666666666668</ele><time>2026-05-03T09:24:13.11Z</time></trkpt><trkpt lat="37.1546736" lon="10.0089938"><ele>31.0</ele><time>2026-05-03T09:24:14.07Z</time></trkpt><trkpt lat="37.1545588" lon="10.0088469"><ele>31.0</ele><time>2026-05-03T09:24:15.089Z</time></trkpt><trkpt lat="37.154445" lon="10.0087029"><ele>31.0</ele><time>2026-05-03T09:24:16.09Z</time></trkpt><trkpt lat="37.1543195" lon="10.0085599"><ele>31.0</ele><time>2026-05-03T09:24:17.087Z</time></trkpt><trkpt lat="37.1541879" lon="10.0084205"><ele>31.0</ele><time>2026-05-03T09:24:18.095Z</time></trkpt><trkpt lat="37.1540508" lon="10.0082826"><ele>31.0</ele><time>2026-05-03T09:24:19.11Z</time></trkpt><trkpt lat="37.1539151" lon="10.0081418"><ele>31.0</ele><time>2026-05-03T09:24:20.113Z</time></trkpt><trkpt lat="37.1537729" lon="10.0079985"><ele>31.0</ele><time>2026-05-03T09:24:21.092Z</time></trkpt><trkpt lat="37.1536309" lon="10.007845"><ele>31.0</ele><time>2026-05-03T09:24:22.095Z</time></trkpt><trkpt lat="37.1534888" lon="10.0076833"><ele>31.0</ele><time>2026-05-03T09:24:23.107Z</time></trkpt><trkpt lat="37.1533478" lon="10.0075132"><ele>30.333333333333336</ele><time>2026-05-03T09:24:24.107Z</time></trkpt><trkpt lat="37.1532023" lon="10.0073425"><ele>29.666666666666664</ele><time>2026-05-03T09:24:25.089Z</time></trkpt><trkpt lat="37.1530574" lon="10.0071732"><ele>29.0</ele><time>2026-05-03T09:24:26.078Z</time></trkpt><trkpt lat="37.1529141" lon="10.0070066"><ele>29.0</ele><time>2026-05-03T09:24:27.11Z</time></trkpt><trkpt lat="37.1527764" lon="10.0068404"><ele>29.0</ele><time>2026-05-03T09:24:28.09Z</time></trkpt><trkpt lat="37.1526415" lon="10.0066749"><ele>29.0</ele><time>2026-05-03T09:24:29.074Z</time></trkpt><trkpt lat="37.1525093" lon="10.0065016"><ele>29.0</ele><time>2026-05-03T09:24:30.088Z</time></trkpt><trkpt lat="37.1523774" lon="10.0063351"><ele>29.0</ele><time>2026-05-03T09:24:31.082Z</time></trkpt><trkpt lat="37.1522458" lon="10.0061708"><ele>29.0</ele><time>2026-05-03T09:24:32.1Z</time></trkpt><trkpt lat="37.1521096" lon="10.0060172"><ele>29.0</ele><time>2026-05-03T09:24:33.074Z</time></trkpt><trkpt lat="37.1519757" lon="10.0058681"><ele>29.0</ele><time>2026-05-03T09:24:34.105Z</time></trkpt><trkpt lat="37.1518444" lon="10.0057167"><ele>29.0</ele><time>2026-05-03T09:24:35.095Z</time></trkpt><trkpt lat="37.1517192" lon="10.0055668"><ele>28.666666666666664</ele><time>2026-05-03T09:24:36.097Z</time></trkpt><trkpt lat="37.1515947" lon="10.0054189"><ele>28.333333333333336</ele><time>2026-05-03T09:24:37.077Z</time></trkpt><trkpt lat="37.1514703" lon="10.0052689"><ele>28.0</ele><time>2026-05-03T09:24:38.095Z</time></trkpt><trkpt lat="37.1513434" lon="10.005122"><ele>28.666666666666668</ele><time>2026-05-03T09:24:39.102Z</time></trkpt><trkpt lat="37.1512168" lon="10.0049753"><ele>29.333333333333336</ele><time>2026-05-03T09:24:40.088Z</time></trkpt><trkpt lat="37.1510898" lon="10.0048296"><ele>30.0</ele><time>2026-05-03T09:24:41.105Z</time></trkpt><trkpt lat="37.1509598" lon="10.0046859"><ele>30.0</ele><time>2026-05-03T09:24:42.102Z</time></trkpt><trkpt lat="37.1508335" lon="10.0045421"><ele>30.0</ele><time>2026-05-03T09:24:43.094Z</time></trkpt><trkpt lat="37.1507027" lon="10.0043955"><ele>30.0</ele><time>2026-05-03T09:24:44.092Z</time></trkpt><trkpt lat="37.1505741" lon="10.0042474"><ele>30.0</ele><time>2026-05-03T09:24:45.083Z</time></trkpt><trkpt lat="37.1504431" lon="10.0040994"><ele>30.0</ele><time>2026-05-03T09:24:46.086Z</time></trkpt><trkpt lat="37.1503149" lon="10.0039469"><ele>30.0</ele><time>2026-05-03T09:24:47.072Z</time></trkpt><trkpt lat="37.1501833" lon="10.0037936"><ele>30.0</ele><time>2026-05-03T09:24:48.085Z</time></trkpt><trkpt lat="37.1500474" lon="10.0036405"><ele>30.0</ele><time>2026-05-03T09:24:49.06Z</time></trkpt><trkpt lat="37.1499108" lon="10.0034829"><ele>30.0</ele><time>2026-05-03T09:24:50.077Z</time></trkpt><trkpt lat="37.1497772" lon="10.0033253"><ele>29.333333333333336</ele><time>2026-05-03T09:24:51.069Z</time></trkpt><trkpt lat="37.1496446" lon="10.003168"><ele>28.666666666666668</ele><time>2026-05-03T09:24:52.092Z</time></trkpt><trkpt lat="37.1495104" lon="10.0030058"><ele>28.0</ele><time>2026-05-03T09:24:53.084Z</time></trkpt><trkpt lat="37.1493808" lon="10.0028429"><ele>28.0</ele><time>2026-05-03T09:24:54.093Z</time></trkpt><trkpt lat="37.1492634" lon="10.0026699"><ele>28.0</ele><time>2026-05-03T09:24:55.094Z</time></trkpt><trkpt lat="37.1491396" lon="10.0024852"><ele>28.0</ele><time>2026-05-03T09:24:56.083Z</time></trkpt><trkpt lat="37.1490325" lon="10.0022958"><ele>28.666666666666668</ele><time>2026-05-03T09:24:57.064Z</time></trkpt><trkpt lat="37.1489339" lon="10.0020941"><ele>29.333333333333336</ele><time>2026-05-03T09:24:58.097Z</time></trkpt><trkpt lat="37.1488514" lon="10.00189"><ele>30.0</ele><time>2026-05-03T09:24:59.067Z</time></trkpt><trkpt lat="37.1487764" lon="10.0016739"><ele>30.0</ele><time>2026-05-03T09:25:00.076Z</time></trkpt><trkpt lat="37.1487174" lon="10.0014627"><ele>30.0</ele><time>2026-05-03T09:25:01.086Z</time></trkpt><trkpt lat="37.1486682" lon="10.0012428"><ele>30.0</ele><time>2026-05-03T09:25:02.075Z</time></trkpt><trkpt lat="37.1486255" lon="10.0010247"><ele>30.0</ele><time>2026-05-03T09:25:03.083Z</time></trkpt><trkpt lat="37.1485884" lon="10.0008074"><ele>30.0</ele><time>2026-05-03T09:25:04.087Z</time></trkpt><trkpt lat="37.1485532" lon="10.0005896"><ele>30.0</ele><time>2026-05-03T09:25:05.107Z</time></trkpt><trkpt lat="37.1485185" lon="10.0003683"><ele>30.0</ele><time>2026-05-03T09:25:06.1Z</time></trkpt><trkpt lat="37.1484858" lon="10.0001522"><ele>30.0</ele><time>2026-05-03T09:25:07.083Z</time></trkpt><trkpt lat="37.1484594" lon="9.9999365"><ele>30.0</ele><time>2026-05-03T09:25:08.104Z</time></trkpt><trkpt lat="37.1484365" lon="9.9997236"><ele>30.0</ele><time>2026-05-03T09:25:09.09Z</time></trkpt><trkpt lat="37.1484165" lon="9.999506"><ele>30.0</ele><time>2026-05-03T09:25:10.098Z</time></trkpt><trkpt lat="37.1484077" lon="9.9992831"><ele>30.0</ele><time>2026-05-03T09:25:11.102Z</time></trkpt><trkpt lat="37.1484097" lon="9.9990573"><ele>30.333333333333336</ele><time>2026-05-03T09:25:12.088Z</time></trkpt><trkpt lat="37.1484131" lon="9.9988245"><ele>30.666666666666668</ele><time>2026-05-03T09:25:13.088Z</time></trkpt><trkpt lat="37.1484261" lon="9.998594"><ele>31.0</ele><time>2026-05-03T09:25:14.086Z</time></trkpt><trkpt lat="37.1484362" lon="9.9983671"><ele>30.666666666666668</ele><time>2026-05-03T09:25:15.093Z</time></trkpt><trkpt lat="37.1484444" lon="9.9981416"><ele>30.333333333333336</ele><time>2026-05-03T09:25:16.051Z</time></trkpt><trkpt lat="37.1484498" lon="9.9979136"><ele>30.0</ele><time>2026-05-03T09:25:17.062Z</time></trkpt><trkpt lat="37.1484548" lon="9.997695"><ele>29.666666666666664</ele><time>2026-05-03T09:25:18.063Z</time></trkpt><trkpt lat="37.1484619" lon="9.9974781"><ele>29.333333333333332</ele><time>2026-05-03T09:25:19.079Z</time></trkpt><trkpt lat="37.1484693" lon="9.997263"><ele>29.0</ele><time>2026-05-03T09:25:20.066Z</time></trkpt><trkpt lat="37.1484748" lon="9.9970488"><ele>29.0</ele><time>2026-05-03T09:25:21.097Z</time></trkpt><trkpt lat="37.148484" lon="9.9968409"><ele>29.0</ele><time>2026-05-03T09:25:22.094Z</time></trkpt><trkpt lat="37.1484906" lon="9.9966362"><ele>29.0</ele><time>2026-05-03T09:25:23.071Z</time></trkpt><trkpt lat="37.1484985" lon="9.9964318"><ele>29.0</ele><time>2026-05-03T09:25:24.056Z</time></trkpt><trkpt lat="37.1485042" lon="9.9962249"><ele>29.0</ele><time>2026-05-03T09:25:25.074Z</time></trkpt><trkpt lat="37.1485084" lon="9.9960193"><ele>29.0</ele><time>2026-05-03T09:25:26.081Z</time></trkpt><trkpt lat="37.1485125" lon="9.9958135"><ele>29.0</ele><time>2026-05-03T09:25:27.093Z</time></trkpt><trkpt lat="37.1485177" lon="9.9956168"><ele>29.0</ele><time>2026-05-03T09:25:28.102Z</time></trkpt><trkpt lat="37.1485235" lon="9.9954171"><ele>29.0</ele><time>2026-05-03T09:25:29.097Z</time></trkpt><trkpt lat="37.1485303" lon="9.9952231"><ele>29.0</ele><time>2026-05-03T09:25:30.098Z</time></trkpt><trkpt lat="37.1485374" lon="9.9950338"><ele>29.0</ele><time>2026-05-03T09:25:31.092Z</time></trkpt><trkpt lat="37.1485453" lon="9.9948531"><ele>29.0</ele><time>2026-05-03T09:25:32.104Z</time></trkpt><trkpt lat="37.148559" lon="9.994689"><ele>29.0</ele><time>2026-05-03T09:25:33.097Z</time></trkpt><trkpt lat="37.1485787" lon="9.9945489"><ele>28.85714285714286</ele><time>2026-05-03T09:25:34.1Z</time></trkpt><trkpt lat="37.1486078" lon="9.9944304"><ele>28.714285714285715</ele><time>2026-05-03T09:25:35.088Z</time></trkpt><trkpt lat="37.1486264" lon="9.9943337"><ele>28.571428571428573</ele><time>2026-05-03T09:25:36.093Z</time></trkpt><trkpt lat="37.1486276" lon="9.9942456"><ele>28.42857142857143</ele><time>2026-05-03T09:25:37.089Z</time></trkpt><trkpt lat="37.1486062" lon="9.9941702"><ele>28.285714285714285</ele><time>2026-05-03T09:25:38.092Z</time></trkpt><trkpt lat="37.1485663" lon="9.9941083"><ele>28.142857142857142</ele><time>2026-05-03T09:25:39.054Z</time></trkpt><trkpt lat="37.1485073" lon="9.9940759"><ele>28.0</ele><time>2026-05-03T09:25:40.065Z</time></trkpt><trkpt lat="37.1483807" lon="9.9940919"><ele>28.333333333333336</ele><time>2026-05-03T09:25:42.097Z</time></trkpt><trkpt lat="37.1483124" lon="9.9940994"><ele>28.666666666666668</ele><time>2026-05-03T09:25:43.084Z</time></trkpt><trkpt lat="37.1482308" lon="9.9940835"><ele>29.0</ele><time>2026-05-03T09:25:44.092Z</time></trkpt><trkpt lat="37.1481644" lon="9.9940267"><ele>29.333333333333336</ele><time>2026-05-03T09:25:45.098Z</time></trkpt><trkpt lat="37.1481118" lon="9.9939542"><ele>29.666666666666668</ele><time>2026-05-03T09:25:46.084Z</time></trkpt><trkpt lat="37.1480609" lon="9.9938512"><ele>30.0</ele><time>2026-05-03T09:25:47.092Z</time></trkpt><trkpt lat="37.148007" lon="9.9937143"><ele>31.333333333333336</ele><time>2026-05-03T09:25:48.085Z</time></trkpt><trkpt lat="37.1479515" lon="9.9935592"><ele>32.66666666666667</ele><time>2026-05-03T09:25:49.079Z</time></trkpt><trkpt lat="37.1478892" lon="9.9933878"><ele>34.0</ele><time>2026-05-03T09:25:50.093Z</time></trkpt><trkpt lat="37.1478275" lon="9.9931877"><ele>34.333333333333336</ele><time>2026-05-03T09:25:51.092Z</time></trkpt><trkpt lat="37.147775" lon="9.9929808"><ele>34.666666666666664</ele><time>2026-05-03T09:25:52.089Z</time></trkpt><trkpt lat="37.1477254" lon="9.9927949"><ele>35.0</ele><time>2026-05-03T09:25:53.107Z</time></trkpt><trkpt lat="37.1476866" lon="9.9926243"><ele>35.0</ele><time>2026-05-03T09:25:54.088Z</time></trkpt><trkpt lat="37.147649" lon="9.9924566"><ele>35.0</ele><time>2026-05-03T09:25:55.082Z</time></trkpt><trkpt lat="37.14761" lon="9.9922817"><ele>35.0</ele><time>2026-05-03T09:25:56.068Z</time></trkpt><trkpt lat="37.1475732" lon="9.9921125"><ele>35.0</ele><time>2026-05-03T09:25:57.09Z</time></trkpt><trkpt lat="37.1475328" lon="9.9919337"><ele>35.0</ele><time>2026-05-03T09:25:58.087Z</time></trkpt><trkpt lat="37.1474981" lon="9.9917493"><ele>35.0</ele><time>2026-05-03T09:25:59.081Z</time></trkpt><trkpt lat="37.1474586" lon="9.9915665"><ele>35.0</ele><time>2026-05-03T09:26:00.072Z</time></trkpt><trkpt lat="37.1474175" lon="9.9913969"><ele>35.0</ele><time>2026-05-03T09:26:01.077Z</time></trkpt><trkpt lat="37.14738" lon="9.991225"><ele>35.5</ele><time>2026-05-03T09:26:02.065Z</time></trkpt><trkpt lat="37.1473473" lon="9.991063"><ele>36.0</ele><time>2026-05-03T09:26:03.059Z</time></trkpt><trkpt lat="37.1473132" lon="9.9909058"><ele>36.5</ele><time>2026-05-03T09:26:04.062Z</time></trkpt><trkpt lat="37.1472722" lon="9.990755"><ele>37.0</ele><time>2026-05-03T09:26:05.054Z</time></trkpt><trkpt lat="37.1472442" lon="9.9906139"><ele>37.4</ele><time>2026-05-03T09:26:06.061Z</time></trkpt><trkpt lat="37.1472079" lon="9.99048"><ele>37.800000000000004</ele><time>2026-05-03T09:26:07.082Z</time></trkpt><trkpt lat="37.1471832" lon="9.9903507"><ele>38.2</ele><time>2026-05-03T09:26:08.058Z</time></trkpt><trkpt lat="37.1471585" lon="9.9902234"><ele>38.6</ele><time>2026-05-03T09:26:09.089Z</time></trkpt><trkpt lat="37.1471361" lon="9.9901118"><ele>39.0</ele><time>2026-05-03T09:26:10.08Z</time></trkpt><trkpt lat="37.1471214" lon="9.9900001"><ele>39.0</ele><time>2026-05-03T09:26:11.074Z</time></trkpt><trkpt lat="37.1471112" lon="9.9898964"><ele>39.0</ele><time>2026-05-03T09:26:12.078Z</time></trkpt><trkpt lat="37.1470964" lon="9.9898067"><ele>39.0</ele><time>2026-05-03T09:26:13.094Z</time></trkpt><trkpt lat="37.1470824" lon="9.9897176"><ele>39.0</ele><time>2026-05-03T09:26:14.085Z</time></trkpt><trkpt lat="37.1470658" lon="9.9896166"><ele>39.0</ele><time>2026-05-03T09:26:15.086Z</time></trkpt><trkpt lat="37.1470507" lon="9.9895164"><ele>39.0</ele><time>2026-05-03T09:26:16.086Z</time></trkpt><trkpt lat="37.1470379" lon="9.9894189"><ele>39.0</ele><time>2026-05-03T09:26:17.063Z</time></trkpt><trkpt lat="37.1470246" lon="9.9893181"><ele>39.0</ele><time>2026-05-03T09:26:18.089Z</time></trkpt><trkpt lat="37.1470088" lon="9.9892109"><ele>39.0</ele><time>2026-05-03T09:26:19.056Z</time></trkpt><trkpt lat="37.1469985" lon="9.9890961"><ele>39.0</ele><time>2026-05-03T09:26:20.076Z</time></trkpt><trkpt lat="37.1469883" lon="9.9889814"><ele>39.0</ele><time>2026-05-03T09:26:21.089Z</time></trkpt><trkpt lat="37.1469743" lon="9.9888641"><ele>39.0</ele><time>2026-05-03T09:26:22.094Z</time></trkpt><trkpt lat="37.1469682" lon="9.9887489"><ele>39.0</ele><time>2026-05-03T09:26:23.082Z</time></trkpt><trkpt lat="37.1469564" lon="9.98864"><ele>39.0</ele><time>2026-05-03T09:26:24.089Z</time></trkpt><trkpt lat="37.1469441" lon="9.9885222"><ele>39.0</ele><time>2026-05-03T09:26:25.067Z</time></trkpt><trkpt lat="37.1469341" lon="9.9884056"><ele>39.0</ele><time>2026-05-03T09:26:26.088Z</time></trkpt><trkpt lat="37.1469197" lon="9.9882842"><ele>39.0</ele><time>2026-05-03T09:26:27.079Z</time></trkpt><trkpt lat="37.1469062" lon="9.9881603"><ele>39.0</ele><time>2026-05-03T09:26:28.054Z</time></trkpt><trkpt lat="37.1468928" lon="9.9880309"><ele>39.0</ele><time>2026-05-03T09:26:29.06Z</time></trkpt><trkpt lat="37.146883" lon="9.9879005"><ele>39.0</ele><time>2026-05-03T09:26:30.052Z</time></trkpt><trkpt lat="37.1468734" lon="9.9877749"><ele>39.0</ele><time>2026-05-03T09:26:31.076Z</time></trkpt><trkpt lat="37.146864" lon="9.9876485"><ele>39.0</ele><time>2026-05-03T09:26:32.095Z</time></trkpt><trkpt lat="37.1468523" lon="9.9875113"><ele>39.2</ele><time>2026-05-03T09:26:33.082Z</time></trkpt><trkpt lat="37.1468411" lon="9.987378"><ele>39.4</ele><time>2026-05-03T09:26:34.069Z</time></trkpt><trkpt lat="37.1468295" lon="9.9872476"><ele>39.6</ele><time>2026-05-03T09:26:35.08Z</time></trkpt><trkpt lat="37.1468101" lon="9.9871225"><ele>39.8</ele><time>2026-05-03T09:26:36.061Z</time></trkpt><trkpt lat="37.1467982" lon="9.9869976"><ele>40.0</ele><time>2026-05-03T09:26:37.089Z</time></trkpt><trkpt lat="37.1467873" lon="9.9868712"><ele>40.0</ele><time>2026-05-03T09:26:38.081Z</time></trkpt><trkpt lat="37.1467772" lon="9.98674"><ele>40.0</ele><time>2026-05-03T09:26:39.091Z</time></trkpt><trkpt lat="37.146765" lon="9.986607"><ele>40.0</ele><time>2026-05-03T09:26:40.094Z</time></trkpt><trkpt lat="37.1467474" lon="9.9864696"><ele>40.0</ele><time>2026-05-03T09:26:41.094Z</time></trkpt><trkpt lat="37.1467241" lon="9.9863304"><ele>40.0</ele><time>2026-05-03T09:26:42.093Z</time></trkpt><trkpt lat="37.1467104" lon="9.9862"><ele>40.0</ele><time>2026-05-03T09:26:43.067Z</time></trkpt><trkpt lat="37.1466997" lon="9.9860755"><ele>40.0</ele><time>2026-05-03T09:26:44.083Z</time></trkpt><trkpt lat="37.1466917" lon="9.9859599"><ele>40.0</ele><time>2026-05-03T09:26:45.075Z</time></trkpt><trkpt lat="37.146687" lon="9.9858512"><ele>40.0</ele><time>2026-05-03T09:26:46.093Z</time></trkpt><trkpt lat="37.1466806" lon="9.9857458"><ele>40.0</ele><time>2026-05-03T09:26:47.082Z</time></trkpt><trkpt lat="37.1466726" lon="9.985658"><ele>40.0</ele><time>2026-05-03T09:26:48.056Z</time></trkpt><trkpt lat="37.1466613" lon="9.9855709"><ele>40.0</ele><time>2026-05-03T09:26:49.107Z</time></trkpt><trkpt lat="37.1466607" lon="9.9854866"><ele>40.0</ele><time>2026-05-03T09:26:50.076Z</time></trkpt><trkpt lat="37.1466511" lon="9.9853487"><ele>40.0</ele><time>2026-05-03T09:26:52.07Z</time></trkpt><trkpt lat="37.1466428" lon="9.9852319"><ele>40.0</ele><time>2026-05-03T09:26:54.077Z</time></trkpt><trkpt lat="37.1466339" lon="9.9851533"><ele>40.0</ele><time>2026-05-03T09:26:57.082Z</time></trkpt><trkpt lat="37.1466081" lon="9.9850644"><ele>40.0</ele><time>2026-05-03T09:27:01.078Z</time></trkpt><trkpt lat="37.1465816" lon="9.9849539"><ele>40.0</ele><time>2026-05-03T09:27:04.078Z</time></trkpt><trkpt lat="37.1465693" lon="9.9848668"><ele>40.0</ele><time>2026-05-03T09:27:06.089Z</time></trkpt><trkpt lat="37.1465622" lon="9.984763"><ele>40.0</ele><time>2026-05-03T09:27:09.075Z</time></trkpt><trkpt lat="37.1465642" lon="9.9846578"><ele>40.0</ele><time>2026-05-03T09:27:11.089Z</time></trkpt><trkpt lat="37.1465487" lon="9.9845676"><ele>40.0</ele><time>2026-05-03T09:27:13.091Z</time></trkpt><trkpt lat="37.1465089" lon="9.9845045"><ele>40.0</ele><time>2026-05-03T09:27:16.087Z</time></trkpt><trkpt lat="37.1464084" lon="9.9844577"><ele>40.6</ele><time>2026-05-03T09:27:19.085Z</time></trkpt><trkpt lat="37.1462799" lon="9.9844498"><ele>41.2</ele><time>2026-05-03T09:27:21.091Z</time></trkpt><trkpt lat="37.1462036" lon="9.9844493"><ele>41.8</ele><time>2026-05-03T09:27:22.099Z</time></trkpt><trkpt lat="37.1461082" lon="9.9844464"><ele>42.4</ele><time>2026-05-03T09:27:23.089Z</time></trkpt><trkpt lat="37.1459929" lon="9.9844521"><ele>43.0</ele><time>2026-05-03T09:27:24.097Z</time></trkpt><trkpt lat="37.1458523" lon="9.9844532"><ele>44.0</ele><time>2026-05-03T09:27:25.085Z</time></trkpt><trkpt lat="37.1457015" lon="9.9844492"><ele>45.0</ele><time>2026-05-03T09:27:26.089Z</time></trkpt><trkpt lat="37.1455552" lon="9.984444"><ele>46.0</ele><time>2026-05-03T09:27:27.107Z</time></trkpt><trkpt lat="37.1454287" lon="9.9844298"><ele>47.0</ele><time>2026-05-03T09:27:28.079Z</time></trkpt><trkpt lat="37.1453056" lon="9.9844212"><ele>47.0</ele><time>2026-05-03T09:27:29.075Z</time></trkpt><trkpt lat="37.1451841" lon="9.984416"><ele>47.0</ele><time>2026-05-03T09:27:30.091Z</time></trkpt><trkpt lat="37.1450675" lon="9.9844106"><ele>47.0</ele><time>2026-05-03T09:27:31.09Z</time></trkpt><trkpt lat="37.1449528" lon="9.9844067"><ele>47.0</ele><time>2026-05-03T09:27:32.094Z</time></trkpt><trkpt lat="37.1448394" lon="9.9844154"><ele>47.75</ele><time>2026-05-03T09:27:33.1Z</time></trkpt><trkpt lat="37.1447232" lon="9.9844267"><ele>48.5</ele><time>2026-05-03T09:27:34.085Z</time></trkpt><trkpt lat="37.1446015" lon="9.9844563"><ele>49.25</ele><time>2026-05-03T09:27:35.085Z</time></trkpt><trkpt lat="37.1444705" lon="9.984503"><ele>50.0</ele><time>2026-05-03T09:27:36.098Z</time></trkpt><trkpt lat="37.1443548" lon="9.9845607"><ele>50.0</ele><time>2026-05-03T09:27:37.091Z</time></trkpt><trkpt lat="37.1442465" lon="9.9846227"><ele>50.0</ele><time>2026-05-03T09:27:38.085Z</time></trkpt><trkpt lat="37.144136" lon="9.9846926"><ele>50.0</ele><time>2026-05-03T09:27:39.089Z</time></trkpt><trkpt lat="37.1440268" lon="9.9847747"><ele>50.0</ele><time>2026-05-03T09:27:40.092Z</time></trkpt><trkpt lat="37.1439182" lon="9.9848609"><ele>50.25</ele><time>2026-05-03T09:27:41.1Z</time></trkpt><trkpt lat="37.143804" lon="9.9849458"><ele>50.5</ele><time>2026-05-03T09:27:42.08Z</time></trkpt><trkpt lat="37.1436896" lon="9.9850266"><ele>50.75</ele><time>2026-05-03T09:27:43.086Z</time></trkpt><trkpt lat="37.1435777" lon="9.9851102"><ele>51.0</ele><time>2026-05-03T09:27:44.107Z</time></trkpt><trkpt lat="37.14347" lon="9.9851913"><ele>51.25</ele><time>2026-05-03T09:27:45.094Z</time></trkpt><trkpt lat="37.1433626" lon="9.9852686"><ele>51.5</ele><time>2026-05-03T09:27:46.088Z</time></trkpt><trkpt lat="37.1432552" lon="9.9853488"><ele>51.75</ele><time>2026-05-03T09:27:47.094Z</time></trkpt><trkpt lat="37.1431408" lon="9.985435"><ele>52.0</ele><time>2026-05-03T09:27:48.074Z</time></trkpt><trkpt lat="37.143021" lon="9.9855233"><ele>52.5</ele><time>2026-05-03T09:27:49.082Z</time></trkpt><trkpt lat="37.1429007" lon="9.9856103"><ele>53.0</ele><time>2026-05-03T09:27:50.08Z</time></trkpt><trkpt lat="37.1427805" lon="9.9857004"><ele>53.5</ele><time>2026-05-03T09:27:51.082Z</time></trkpt><trkpt lat="37.1426598" lon="9.9857994"><ele>54.0</ele><time>2026-05-03T09:27:52.088Z</time></trkpt><trkpt lat="37.1425379" lon="9.9858955"><ele>54.0</ele><time>2026-05-03T09:27:53.085Z</time></trkpt><trkpt lat="37.1424155" lon="9.9859889"><ele>54.0</ele><time>2026-05-03T09:27:54.102Z</time></trkpt><trkpt lat="37.1422895" lon="9.9860835"><ele>54.0</ele><time>2026-05-03T09:27:55.086Z</time></trkpt><trkpt lat="37.1421677" lon="9.9861811"><ele>54.0</ele><time>2026-05-03T09:27:56.085Z</time></trkpt><trkpt lat="37.1420485" lon="9.9862781"><ele>54.75</ele><time>2026-05-03T09:27:57.085Z</time></trkpt><trkpt lat="37.141935" lon="9.9863738"><ele>55.5</ele><time>2026-05-03T09:27:58.067Z</time></trkpt><trkpt lat="37.1418193" lon="9.9864757"><ele>56.25</ele><time>2026-05-03T09:27:59.074Z</time></trkpt><trkpt lat="37.1417022" lon="9.9865826"><ele>57.0</ele><time>2026-05-03T09:28:00.081Z</time></trkpt><trkpt lat="37.1415846" lon="9.9866897"><ele>58.5</ele><time>2026-05-03T09:28:01.085Z</time></trkpt><trkpt lat="37.141471" lon="9.9867962"><ele>60.0</ele><time>2026-05-03T09:28:02.085Z</time></trkpt><trkpt lat="37.1413598" lon="9.9869046"><ele>61.5</ele><time>2026-05-03T09:28:03.095Z</time></trkpt><trkpt lat="37.1412444" lon="9.9870142"><ele>63.0</ele><time>2026-05-03T09:28:04.091Z</time></trkpt><trkpt lat="37.1411291" lon="9.9871277"><ele>63.0</ele><time>2026-05-03T09:28:05.098Z</time></trkpt><trkpt lat="37.1410124" lon="9.9872437"><ele>63.0</ele><time>2026-05-03T09:28:06.061Z</time></trkpt><trkpt lat="37.1408945" lon="9.9873657"><ele>63.0</ele><time>2026-05-03T09:28:07.086Z</time></trkpt><trkpt lat="37.1407735" lon="9.9874933"><ele>63.66666666666667</ele><time>2026-05-03T09:28:08.089Z</time></trkpt><trkpt lat="37.1406435" lon="9.9876385"><ele>64.33333333333334</ele><time>2026-05-03T09:28:09.085Z</time></trkpt><trkpt lat="37.1405049" lon="9.9878068"><ele>65.0</ele><time>2026-05-03T09:28:10.079Z</time></trkpt><trkpt lat="37.1403574" lon="9.9879823"><ele>65.0</ele><time>2026-05-03T09:28:11.089Z</time></trkpt><trkpt lat="37.1402127" lon="9.9881618"><ele>65.0</ele><time>2026-05-03T09:28:12.075Z</time></trkpt><trkpt lat="37.1400716" lon="9.9883541"><ele>65.0</ele><time>2026-05-03T09:28:13.083Z</time></trkpt><trkpt lat="37.1399302" lon="9.9885574"><ele>65.66666666666667</ele><time>2026-05-03T09:28:14.076Z</time></trkpt><trkpt lat="37.1397866" lon="9.9887606"><ele>66.33333333333333</ele><time>2026-05-03T09:28:15.089Z</time></trkpt><trkpt lat="37.1396439" lon="9.9889625"><ele>67.0</ele><time>2026-05-03T09:28:16.082Z</time></trkpt><trkpt lat="37.1395052" lon="9.9891658"><ele>68.33333333333333</ele><time>2026-05-03T09:28:17.05Z</time></trkpt><trkpt lat="37.1393658" lon="9.9893602"><ele>69.66666666666667</ele><time>2026-05-03T09:28:18.059Z</time></trkpt><trkpt lat="37.1392254" lon="9.9895525"><ele>71.0</ele><time>2026-05-03T09:28:19.079Z</time></trkpt><trkpt lat="37.1390919" lon="9.989744"><ele>70.66666666666667</ele><time>2026-05-03T09:28:20.079Z</time></trkpt><trkpt lat="37.1389585" lon="9.9899332"><ele>70.33333333333333</ele><time>2026-05-03T09:28:21.075Z</time></trkpt><trkpt lat="37.1388296" lon="9.9901196"><ele>70.0</ele><time>2026-05-03T09:28:22.056Z</time></trkpt><trkpt lat="37.1387012" lon="9.9903031"><ele>70.0</ele><time>2026-05-03T09:28:23.072Z</time></trkpt><trkpt lat="37.1385698" lon="9.9904828"><ele>70.0</ele><time>2026-05-03T09:28:24.064Z</time></trkpt><trkpt lat="37.1384349" lon="9.9906574"><ele>70.0</ele><time>2026-05-03T09:28:25.08Z</time></trkpt><trkpt lat="37.1383017" lon="9.9908288"><ele>70.66666666666666</ele><time>2026-05-03T09:28:26.081Z</time></trkpt><trkpt lat="37.1381635" lon="9.990988"><ele>71.33333333333333</ele><time>2026-05-03T09:28:27.086Z</time></trkpt><trkpt lat="37.1380192" lon="9.9911425"><ele>72.0</ele><time>2026-05-03T09:28:28.07Z</time></trkpt><trkpt lat="37.1378737" lon="9.9912955"><ele>72.0</ele><time>2026-05-03T09:28:29.073Z</time></trkpt><trkpt lat="37.1377244" lon="9.9914432"><ele>72.0</ele><time>2026-05-03T09:28:30.07Z</time></trkpt><trkpt lat="37.1375736" lon="9.991587"><ele>72.0</ele><time>2026-05-03T09:28:31.073Z</time></trkpt><trkpt lat="37.1374219" lon="9.9917204"><ele>73.33333333333333</ele><time>2026-05-03T09:28:32.074Z</time></trkpt><trkpt lat="37.1372695" lon="9.9918522"><ele>74.66666666666666</ele><time>2026-05-03T09:28:33.072Z</time></trkpt><trkpt lat="37.1371083" lon="9.9919786"><ele>76.0</ele><time>2026-05-03T09:28:34.084Z</time></trkpt><trkpt lat="37.1369431" lon="9.9920956"><ele>76.0</ele><time>2026-05-03T09:28:35.092Z</time></trkpt><trkpt lat="37.1367824" lon="9.9922102"><ele>76.0</ele><time>2026-05-03T09:28:36.084Z</time></trkpt><trkpt lat="37.1366223" lon="9.9923189"><ele>76.0</ele><time>2026-05-03T09:28:37.078Z</time></trkpt><trkpt lat="37.1364615" lon="9.9924253"><ele>77.33333333333333</ele><time>2026-05-03T09:28:38.085Z</time></trkpt><trkpt lat="37.1362964" lon="9.9925204"><ele>78.66666666666667</ele><time>2026-05-03T09:28:39.064Z</time></trkpt><trkpt lat="37.1361288" lon="9.9926085"><ele>80.0</ele><time>2026-05-03T09:28:40.079Z</time></trkpt><trkpt lat="37.1359606" lon="9.992691"><ele>80.0</ele><time>2026-05-03T09:28:41.099Z</time></trkpt><trkpt lat="37.1357929" lon="9.9927715"><ele>80.0</ele><time>2026-05-03T09:28:42.08Z</time></trkpt><trkpt lat="37.1356234" lon="9.9928477"><ele>80.0</ele><time>2026-05-03T09:28:43.08Z</time></trkpt><trkpt lat="37.1354504" lon="9.992918"><ele>82.0</ele><time>2026-05-03T09:28:44.094Z</time></trkpt><trkpt lat="37.1352745" lon="9.9929841"><ele>84.0</ele><time>2026-05-03T09:28:45.074Z</time></trkpt><trkpt lat="37.1351011" lon="9.9930459"><ele>86.0</ele><time>2026-05-03T09:28:46.064Z</time></trkpt><trkpt lat="37.1349301" lon="9.9930972"><ele>89.0</ele><time>2026-05-03T09:28:47.065Z</time></trkpt><trkpt lat="37.1347539" lon="9.9931389"><ele>92.0</ele><time>2026-05-03T09:28:48.088Z</time></trkpt><trkpt lat="37.1345785" lon="9.9931681"><ele>95.0</ele><time>2026-05-03T09:28:49.086Z</time></trkpt><trkpt lat="37.1343995" lon="9.9931967"><ele>95.0</ele><time>2026-05-03T09:28:50.078Z</time></trkpt><trkpt lat="37.1342181" lon="9.9932307"><ele>95.0</ele><time>2026-05-03T09:28:51.085Z</time></trkpt><trkpt lat="37.1340339" lon="9.9932601"><ele>95.0</ele><time>2026-05-03T09:28:52.066Z</time></trkpt><trkpt lat="37.1338484" lon="9.9932789"><ele>97.33333333333334</ele><time>2026-05-03T09:28:53.059Z</time></trkpt><trkpt lat="37.1336661" lon="9.9932931"><ele>99.66666666666667</ele><time>2026-05-03T09:28:54.073Z</time></trkpt><trkpt lat="37.1334859" lon="9.9933033"><ele>102.0</ele><time>2026-05-03T09:28:55.083Z</time></trkpt><trkpt lat="37.1333048" lon="9.9933093"><ele>106.33333333333334</ele><time>2026-05-03T09:28:56.059Z</time></trkpt><trkpt lat="37.1331259" lon="9.9933106"><ele>110.66666666666667</ele><time>2026-05-03T09:28:57.074Z</time></trkpt><trkpt lat="37.1329514" lon="9.993305"><ele>115.0</ele><time>2026-05-03T09:28:58.072Z</time></trkpt><trkpt lat="37.1327796" lon="9.9932876"><ele>115.0</ele><time>2026-05-03T09:28:59.076Z</time></trkpt><trkpt lat="37.1326072" lon="9.9932657"><ele>115.0</ele><time>2026-05-03T09:29:00.071Z</time></trkpt><trkpt lat="37.1324384" lon="9.9932412"><ele>115.0</ele><time>2026-05-03T09:29:01.076Z</time></trkpt><trkpt lat="37.132271" lon="9.9932134"><ele>119.0</ele><time>2026-05-03T09:29:02.083Z</time></trkpt><trkpt lat="37.1321091" lon="9.9931841"><ele>123.0</ele><time>2026-05-03T09:29:03.083Z</time></trkpt><trkpt lat="37.1319445" lon="9.9931435"><ele>127.0</ele><time>2026-05-03T09:29:04.086Z</time></trkpt><trkpt lat="37.1317817" lon="9.9930957"><ele>127.0</ele><time>2026-05-03T09:29:05.08Z</time></trkpt><trkpt lat="37.1316201" lon="9.9930438"><ele>127.0</ele><time>2026-05-03T09:29:06.083Z</time></trkpt><trkpt lat="37.13145" lon="9.992992"><ele>127.0</ele><time>2026-05-03T09:29:07.073Z</time></trkpt><trkpt lat="37.1312794" lon="9.9929325"><ele>129.66666666666669</ele><time>2026-05-03T09:29:08.067Z</time></trkpt><trkpt lat="37.1311007" lon="9.9928672"><ele>132.33333333333334</ele><time>2026-05-03T09:29:09.06Z</time></trkpt><trkpt lat="37.1309164" lon="9.9927924"><ele>135.0</ele><time>2026-05-03T09:29:10.067Z</time></trkpt><trkpt lat="37.1307328" lon="9.9927087"><ele>133.66666666666666</ele><time>2026-05-03T09:29:11.078Z</time></trkpt><trkpt lat="37.1305462" lon="9.9926157"><ele>132.33333333333331</ele><time>2026-05-03T09:29:12.089Z</time></trkpt><trkpt lat="37.1303591" lon="9.992522"><ele>131.0</ele><time>2026-05-03T09:29:13.07Z</time></trkpt><trkpt lat="37.1301715" lon="9.9924265"><ele>129.66666666666666</ele><time>2026-05-03T09:29:14.058Z</time></trkpt><trkpt lat="37.1299892" lon="9.9923352"><ele>128.33333333333334</ele><time>2026-05-03T09:29:15.067Z</time></trkpt><trkpt lat="37.1298066" lon="9.9922434"><ele>127.0</ele><time>2026-05-03T09:29:16.067Z</time></trkpt><trkpt lat="37.1296244" lon="9.9921501"><ele>125.0</ele><time>2026-05-03T09:29:17.058Z</time></trkpt><trkpt lat="37.1294411" lon="9.9920598"><ele>123.0</ele><time>2026-05-03T09:29:18.063Z</time></trkpt><trkpt lat="37.1292586" lon="9.9919768"><ele>121.0</ele><time>2026-05-03T09:29:19.075Z</time></trkpt><trkpt lat="37.1290745" lon="9.9918985"><ele>117.33333333333334</ele><time>2026-05-03T09:29:20.101Z</time></trkpt><trkpt lat="37.1288903" lon="9.9918222"><ele>113.66666666666666</ele><time>2026-05-03T09:29:21.096Z</time></trkpt><trkpt lat="37.1287046" lon="9.9917514"><ele>110.0</ele><time>2026-05-03T09:29:22.082Z</time></trkpt><trkpt lat="37.1285212" lon="9.9916862"><ele>109.66666666666666</ele><time>2026-05-03T09:29:23.082Z</time></trkpt><trkpt lat="37.1283405" lon="9.9916309"><ele>109.33333333333334</ele><time>2026-05-03T09:29:24.092Z</time></trkpt><trkpt lat="37.1281562" lon="9.9915847"><ele>109.0</ele><time>2026-05-03T09:29:25.108Z</time></trkpt><trkpt lat="37.1279647" lon="9.9915393"><ele>109.0</ele><time>2026-05-03T09:29:26.09Z</time></trkpt><trkpt lat="37.1277784" lon="9.9914992"><ele>109.0</ele><time>2026-05-03T09:29:27.098Z</time></trkpt><trkpt lat="37.1275835" lon="9.9914673"><ele>109.0</ele><time>2026-05-03T09:29:28.096Z</time></trkpt><trkpt lat="37.1273876" lon="9.9914432"><ele>107.66666666666667</ele><time>2026-05-03T09:29:29.08Z</time></trkpt><trkpt lat="37.1271961" lon="9.9914225"><ele>106.33333333333334</ele><time>2026-05-03T09:29:30.097Z</time></trkpt><trkpt lat="37.127004" lon="9.9914147"><ele>105.0</ele><time>2026-05-03T09:29:31.088Z</time></trkpt><trkpt lat="37.1268032" lon="9.9914076"><ele>105.0</ele><time>2026-05-03T09:29:32.095Z</time></trkpt><trkpt lat="37.126601" lon="9.9914065"><ele>105.0</ele><time>2026-05-03T09:29:33.093Z</time></trkpt><trkpt lat="37.1263896" lon="9.991411"><ele>105.0</ele><time>2026-05-03T09:29:34.085Z</time></trkpt><trkpt lat="37.1261792" lon="9.9914234"><ele>103.66666666666666</ele><time>2026-05-03T09:29:35.095Z</time></trkpt><trkpt lat="37.1259709" lon="9.9914494"><ele>102.33333333333333</ele><time>2026-05-03T09:29:36.094Z</time></trkpt><trkpt lat="37.1257639" lon="9.9914828"><ele>101.0</ele><time>2026-05-03T09:29:37.104Z</time></trkpt><trkpt lat="37.1255513" lon="9.9915246"><ele>100.66666666666666</ele><time>2026-05-03T09:29:38.088Z</time></trkpt><trkpt lat="37.1253386" lon="9.9915805"><ele>100.33333333333334</ele><time>2026-05-03T09:29:39.093Z</time></trkpt><trkpt lat="37.1251229" lon="9.9916369"><ele>100.0</ele><time>2026-05-03T09:29:40.082Z</time></trkpt><trkpt lat="37.1249078" lon="9.9916996"><ele>99.0</ele><time>2026-05-03T09:29:41.091Z</time></trkpt><trkpt lat="37.1246973" lon="9.9917564"><ele>98.0</ele><time>2026-05-03T09:29:42.1Z</time></trkpt><trkpt lat="37.1244946" lon="9.9918145"><ele>97.0</ele><time>2026-05-03T09:29:43.103Z</time></trkpt><trkpt lat="37.1243007" lon="9.991876"><ele>97.0</ele><time>2026-05-03T09:29:44.087Z</time></trkpt><trkpt lat="37.1241197" lon="9.9919379"><ele>97.0</ele><time>2026-05-03T09:29:45.094Z</time></trkpt><trkpt lat="37.123946" lon="9.9919887"><ele>97.0</ele><time>2026-05-03T09:29:46.087Z</time></trkpt><trkpt lat="37.1237694" lon="9.9920406"><ele>97.0</ele><time>2026-05-03T09:29:47.106Z</time></trkpt><trkpt lat="37.1235923" lon="9.9920964"><ele>97.0</ele><time>2026-05-03T09:29:48.11Z</time></trkpt><trkpt lat="37.1234152" lon="9.9921529"><ele>97.0</ele><time>2026-05-03T09:29:49.094Z</time></trkpt><trkpt lat="37.1232256" lon="9.9922093"><ele>98.33333333333334</ele><time>2026-05-03T09:29:50.091Z</time></trkpt><trkpt lat="37.1230334" lon="9.9922692"><ele>99.66666666666666</ele><time>2026-05-03T09:29:51.086Z</time></trkpt><trkpt lat="37.1228327" lon="9.9923266"><ele>101.0</ele><time>2026-05-03T09:29:52.096Z</time></trkpt><trkpt lat="37.122634" lon="9.9923849"><ele>101.0</ele><time>2026-05-03T09:29:53.089Z</time></trkpt><trkpt lat="37.1224354" lon="9.9924428"><ele>101.0</ele><time>2026-05-03T09:29:54.112Z</time></trkpt><trkpt lat="37.1222392" lon="9.9925046"><ele>101.0</ele><time>2026-05-03T09:29:55.108Z</time></trkpt><trkpt lat="37.1220479" lon="9.9925651"><ele>103.0</ele><time>2026-05-03T09:29:56.096Z</time></trkpt><trkpt lat="37.1218573" lon="9.9926285"><ele>105.0</ele><time>2026-05-03T09:29:57.071Z</time></trkpt><trkpt lat="37.1216686" lon="9.9926959"><ele>107.0</ele><time>2026-05-03T09:29:58.097Z</time></trkpt><trkpt lat="37.1214752" lon="9.9927584"><ele>108.66666666666666</ele><time>2026-05-03T09:29:59.085Z</time></trkpt><trkpt lat="37.1212849" lon="9.9928123"><ele>110.33333333333334</ele><time>2026-05-03T09:30:00.079Z</time></trkpt><trkpt lat="37.1210952" lon="9.9928554"><ele>112.0</ele><time>2026-05-03T09:30:01.082Z</time></trkpt><trkpt lat="37.120908" lon="9.9928988"><ele>112.0</ele><time>2026-05-03T09:30:02.093Z</time></trkpt><trkpt lat="37.1207317" lon="9.9929453"><ele>112.0</ele><time>2026-05-03T09:30:03.087Z</time></trkpt><trkpt lat="37.1205633" lon="9.9929967"><ele>112.0</ele><time>2026-05-03T09:30:04.093Z</time></trkpt><trkpt lat="37.1203992" lon="9.9930428"><ele>112.0</ele><time>2026-05-03T09:30:05.11Z</time></trkpt><trkpt lat="37.1202437" lon="9.9930912"><ele>112.0</ele><time>2026-05-03T09:30:06.092Z</time></trkpt><trkpt lat="37.120101" lon="9.9931304"><ele>112.0</ele><time>2026-05-03T09:30:07.113Z</time></trkpt><trkpt lat="37.1199698" lon="9.9931747"><ele>112.0</ele><time>2026-05-03T09:30:08.1Z</time></trkpt><trkpt lat="37.1198513" lon="9.9932089"><ele>111.5</ele><time>2026-05-03T09:30:09.084Z</time></trkpt><trkpt lat="37.1197324" lon="9.9932486"><ele>111.0</ele><time>2026-05-03T09:30:10.09Z</time></trkpt><trkpt lat="37.1196124" lon="9.9932956"><ele>110.5</ele><time>2026-05-03T09:30:11.093Z</time></trkpt><trkpt lat="37.1194845" lon="9.99334"><ele>110.0</ele><time>2026-05-03T09:30:12.094Z</time></trkpt><trkpt lat="37.1193541" lon="9.9933825"><ele>110.0</ele><time>2026-05-03T09:30:13.092Z</time></trkpt><trkpt lat="37.1192143" lon="9.9934379"><ele>110.0</ele><time>2026-05-03T09:30:14.084Z</time></trkpt><trkpt lat="37.1190758" lon="9.9934956"><ele>110.0</ele><time>2026-05-03T09:30:15.051Z</time></trkpt><trkpt lat="37.118938" lon="9.9935557"><ele>110.0</ele><time>2026-05-03T09:30:16.097Z</time></trkpt><trkpt lat="37.1187992" lon="9.993609"><ele>110.0</ele><time>2026-05-03T09:30:17.071Z</time></trkpt><trkpt lat="37.1186691" lon="9.9936577"><ele>110.0</ele><time>2026-05-03T09:30:18.1Z</time></trkpt><trkpt lat="37.1185511" lon="9.9937015"><ele>110.0</ele><time>2026-05-03T09:30:19.076Z</time></trkpt><trkpt lat="37.1184395" lon="9.9937382"><ele>110.0</ele><time>2026-05-03T09:30:20.081Z</time></trkpt><trkpt lat="37.118334" lon="9.9937794"><ele>110.99999999999999</ele><time>2026-05-03T09:30:21.102Z</time></trkpt><trkpt lat="37.1182307" lon="9.9938155"><ele>112.0</ele><time>2026-05-03T09:30:22.089Z</time></trkpt><trkpt lat="37.118144" lon="9.9938474"><ele>113.0</ele><time>2026-05-03T09:30:23.092Z</time></trkpt><trkpt lat="37.1180701" lon="9.9938728"><ele>114.0</ele><time>2026-05-03T09:30:24.093Z</time></trkpt><trkpt lat="37.1179977" lon="9.9938996"><ele>114.99999999999999</ele><time>2026-05-03T09:30:25.088Z</time></trkpt><trkpt lat="37.1179341" lon="9.9939219"><ele>116.0</ele><time>2026-05-03T09:30:26.085Z</time></trkpt><trkpt lat="37.1178634" lon="9.9939467"><ele>115.99999999999999</ele><time>2026-05-03T09:30:27.088Z</time></trkpt><trkpt lat="37.1177966" lon="9.9939748"><ele>116.0</ele><time>2026-05-03T09:30:28.093Z</time></trkpt><trkpt lat="37.117735" lon="9.9939953"><ele>116.0</ele><time>2026-05-03T09:30:29.098Z</time></trkpt><trkpt lat="37.1176329" lon="9.9940351"><ele>116.0</ele><time>2026-05-03T09:30:31.088Z</time></trkpt><trkpt lat="37.1175202" lon="9.994087"><ele>115.99999999999999</ele><time>2026-05-03T09:30:33.086Z</time></trkpt><trkpt lat="37.1174534" lon="9.9941167"><ele>116.0</ele><time>2026-05-03T09:30:34.084Z</time></trkpt><trkpt lat="37.1173887" lon="9.9941426"><ele>115.99999999999999</ele><time>2026-05-03T09:30:35.081Z</time></trkpt><trkpt lat="37.1173175" lon="9.9941667"><ele>116.0</ele><time>2026-05-03T09:30:36.098Z</time></trkpt><trkpt lat="37.11724" lon="9.9941891"><ele>116.0</ele><time>2026-05-03T09:30:37.082Z</time></trkpt><trkpt lat="37.1171579" lon="9.9942146"><ele>116.0</ele><time>2026-05-03T09:30:38.069Z</time></trkpt><trkpt lat="37.1170711" lon="9.9942402"><ele>115.99999999999999</ele><time>2026-05-03T09:30:39.074Z</time></trkpt><trkpt lat="37.1169866" lon="9.9942711"><ele>116.0</ele><time>2026-05-03T09:30:40.087Z</time></trkpt><trkpt lat="37.1168972" lon="9.9943075"><ele>115.19999999999999</ele><time>2026-05-03T09:30:41.09Z</time></trkpt><trkpt lat="37.1168055" lon="9.9943439"><ele>114.39999999999999</ele><time>2026-05-03T09:30:42.095Z</time></trkpt><trkpt lat="37.1167053" lon="9.9943756"><ele>113.6</ele><time>2026-05-03T09:30:43.099Z</time></trkpt><trkpt lat="37.1165947" lon="9.9944052"><ele>112.8</ele><time>2026-05-03T09:30:44.085Z</time></trkpt><trkpt lat="37.1164719" lon="9.9944283"><ele>112.0</ele><time>2026-05-03T09:30:45.084Z</time></trkpt><trkpt lat="37.1163376" lon="9.9944471"><ele>111.5</ele><time>2026-05-03T09:30:46.096Z</time></trkpt><trkpt lat="37.1161984" lon="9.9944582"><ele>111.0</ele><time>2026-05-03T09:30:47.09Z</time></trkpt><trkpt lat="37.1160465" lon="9.9944594"><ele>110.5</ele><time>2026-05-03T09:30:48.094Z</time></trkpt><trkpt lat="37.1158965" lon="9.9944525"><ele>110.0</ele><time>2026-05-03T09:30:49.074Z</time></trkpt><trkpt lat="37.1157526" lon="9.9944318"><ele>109.5</ele><time>2026-05-03T09:30:50.104Z</time></trkpt><trkpt lat="37.1156052" lon="9.9944192"><ele>109.0</ele><time>2026-05-03T09:30:51.09Z</time></trkpt><trkpt lat="37.1154661" lon="9.994398"><ele>108.5</ele><time>2026-05-03T09:30:52.086Z</time></trkpt><trkpt lat="37.1153178" lon="9.9943827"><ele>108.0</ele><time>2026-05-03T09:30:53.083Z</time></trkpt><trkpt lat="37.1151679" lon="9.9943651"><ele>108.0</ele><time>2026-05-03T09:30:54.096Z</time></trkpt><trkpt lat="37.1150214" lon="9.9943384"><ele>108.0</ele><time>2026-05-03T09:30:55.094Z</time></trkpt><trkpt lat="37.1148641" lon="9.9943196"><ele>108.0</ele><time>2026-05-03T09:30:56.101Z</time></trkpt><trkpt lat="37.114703" lon="9.9943021"><ele>107.33333333333334</ele><time>2026-05-03T09:30:57.106Z</time></trkpt><trkpt lat="37.1145259" lon="9.9942944"><ele>106.66666666666667</ele><time>2026-05-03T09:30:58.088Z</time></trkpt><trkpt lat="37.1143451" lon="9.9942825"><ele>106.0</ele><time>2026-05-03T09:30:59.075Z</time></trkpt><trkpt lat="37.1141584" lon="9.994274"><ele>105.66666666666667</ele><time>2026-05-03T09:31:00.078Z</time></trkpt><trkpt lat="37.1139729" lon="9.99426"><ele>105.33333333333334</ele><time>2026-05-03T09:31:01.088Z</time></trkpt><trkpt lat="37.1137835" lon="9.994251"><ele>105.0</ele><time>2026-05-03T09:31:02.108Z</time></trkpt><trkpt lat="37.113592" lon="9.9942405"><ele>105.0</ele><time>2026-05-03T09:31:03.073Z</time></trkpt><trkpt lat="37.1134021" lon="9.9942301"><ele>105.0</ele><time>2026-05-03T09:31:04.088Z</time></trkpt><trkpt lat="37.1132155" lon="9.9942192"><ele>105.0</ele><time>2026-05-03T09:31:05.087Z</time></trkpt><trkpt lat="37.1130349" lon="9.9942131"><ele>105.33333333333334</ele><time>2026-05-03T09:31:06.086Z</time></trkpt><trkpt lat="37.1128586" lon="9.9942099"><ele>105.66666666666667</ele><time>2026-05-03T09:31:07.101Z</time></trkpt><trkpt lat="37.112679" lon="9.9942102"><ele>106.0</ele><time>2026-05-03T09:31:08.091Z</time></trkpt><trkpt lat="37.1125039" lon="9.9942084"><ele>108.0</ele><time>2026-05-03T09:31:09.074Z</time></trkpt><trkpt lat="37.1123293" lon="9.9942088"><ele>110.0</ele><time>2026-05-03T09:31:10.087Z</time></trkpt><trkpt lat="37.1121573" lon="9.9942047"><ele>112.0</ele><time>2026-05-03T09:31:11.103Z</time></trkpt><trkpt lat="37.1119855" lon="9.9941969"><ele>112.0</ele><time>2026-05-03T09:31:12.093Z</time></trkpt><trkpt lat="37.1118157" lon="9.9941845"><ele>112.0</ele><time>2026-05-03T09:31:13.086Z</time></trkpt><trkpt lat="37.1116437" lon="9.9941709"><ele>112.0</ele><time>2026-05-03T09:31:14.081Z</time></trkpt><trkpt lat="37.1114689" lon="9.9941557"><ele>113.0</ele><time>2026-05-03T09:31:15.083Z</time></trkpt><trkpt lat="37.1112917" lon="9.9941426"><ele>114.0</ele><time>2026-05-03T09:31:16.08Z</time></trkpt><trkpt lat="37.1111115" lon="9.9941416"><ele>115.0</ele><time>2026-05-03T09:31:17.09Z</time></trkpt><trkpt lat="37.1109385" lon="9.9941406"><ele>115.0</ele><time>2026-05-03T09:31:18.102Z</time></trkpt><trkpt lat="37.1107599" lon="9.9941373"><ele>115.0</ele><time>2026-05-03T09:31:19.086Z</time></trkpt><trkpt lat="37.1105819" lon="9.9941352"><ele>115.0</ele><time>2026-05-03T09:31:20.075Z</time></trkpt><trkpt lat="37.110403" lon="9.9941332"><ele>116.0</ele><time>2026-05-03T09:31:21.089Z</time></trkpt><trkpt lat="37.1102249" lon="9.9941394"><ele>117.0</ele><time>2026-05-03T09:31:22.085Z</time></trkpt><trkpt lat="37.1100476" lon="9.9941532"><ele>118.0</ele><time>2026-05-03T09:31:23.09Z</time></trkpt><trkpt lat="37.1098751" lon="9.9941786"><ele>121.0</ele><time>2026-05-03T09:31:24.105Z</time></trkpt><trkpt lat="37.1097033" lon="9.994209"><ele>124.0</ele><time>2026-05-03T09:31:25.087Z</time></trkpt><trkpt lat="37.109538" lon="9.9942553"><ele>127.0</ele><time>2026-05-03T09:31:26.061Z</time></trkpt><trkpt lat="37.1093744" lon="9.9943102"><ele>127.0</ele><time>2026-05-03T09:31:27.092Z</time></trkpt><trkpt lat="37.1092108" lon="9.99437"><ele>127.0</ele><time>2026-05-03T09:31:28.103Z</time></trkpt><trkpt lat="37.1090516" lon="9.994433"><ele>127.0</ele><time>2026-05-03T09:31:29.082Z</time></trkpt><trkpt lat="37.1088944" lon="9.994506"><ele>126.66666666666667</ele><time>2026-05-03T09:31:30.077Z</time></trkpt><trkpt lat="37.1087402" lon="9.9945794"><ele>126.33333333333334</ele><time>2026-05-03T09:31:31.058Z</time></trkpt><trkpt lat="37.1085897" lon="9.994658"><ele>126.0</ele><time>2026-05-03T09:31:32.073Z</time></trkpt><trkpt lat="37.1084398" lon="9.9947393"><ele>126.0</ele><time>2026-05-03T09:31:33.089Z</time></trkpt><trkpt lat="37.1082846" lon="9.9948159"><ele>126.0</ele><time>2026-05-03T09:31:34.083Z</time></trkpt><trkpt lat="37.1081385" lon="9.9948855"><ele>126.0</ele><time>2026-05-03T09:31:35.088Z</time></trkpt><trkpt lat="37.1079853" lon="9.9949294"><ele>124.66666666666666</ele><time>2026-05-03T09:31:36.079Z</time></trkpt><trkpt lat="37.1078293" lon="9.994963"><ele>123.33333333333333</ele><time>2026-05-03T09:31:37.08Z</time></trkpt><trkpt lat="37.1076734" lon="9.9949839"><ele>122.0</ele><time>2026-05-03T09:31:38.077Z</time></trkpt><trkpt lat="37.1075151" lon="9.9949875"><ele>121.0</ele><time>2026-05-03T09:31:39.081Z</time></trkpt><trkpt lat="37.1073667" lon="9.9949789"><ele>120.0</ele><time>2026-05-03T09:31:40.081Z</time></trkpt><trkpt lat="37.1072211" lon="9.9949632"><ele>119.0</ele><time>2026-05-03T09:31:41.079Z</time></trkpt><trkpt lat="37.1070688" lon="9.9949479"><ele>118.0</ele><time>2026-05-03T09:31:42.093Z</time></trkpt><trkpt lat="37.1069165" lon="9.9949243"><ele>118.0</ele><time>2026-05-03T09:31:43.085Z</time></trkpt><trkpt lat="37.1067566" lon="9.9949014"><ele>118.0</ele><time>2026-05-03T09:31:44.079Z</time></trkpt><trkpt lat="37.1065982" lon="9.9948797"><ele>118.0</ele><time>2026-05-03T09:31:45.091Z</time></trkpt><trkpt lat="37.1064364" lon="9.9948584"><ele>115.66666666666667</ele><time>2026-05-03T09:31:46.084Z</time></trkpt><trkpt lat="37.1062712" lon="9.9948372"><ele>113.33333333333334</ele><time>2026-05-03T09:31:47.094Z</time></trkpt><trkpt lat="37.1061084" lon="9.9948153"><ele>111.0</ele><time>2026-05-03T09:31:48.092Z</time></trkpt><trkpt lat="37.1059467" lon="9.9947918"><ele>111.0</ele><time>2026-05-03T09:31:49.087Z</time></trkpt><trkpt lat="37.105788" lon="9.9947671"><ele>111.0</ele><time>2026-05-03T09:31:50.086Z</time></trkpt><trkpt lat="37.105635" lon="9.9947424"><ele>111.0</ele><time>2026-05-03T09:31:51.096Z</time></trkpt><trkpt lat="37.1054875" lon="9.9947259"><ele>108.75</ele><time>2026-05-03T09:31:52.098Z</time></trkpt><trkpt lat="37.105339" lon="9.9947152"><ele>106.5</ele><time>2026-05-03T09:31:53.084Z</time></trkpt><trkpt lat="37.1051969" lon="9.9947075"><ele>104.25</ele><time>2026-05-03T09:31:54.089Z</time></trkpt><trkpt lat="37.105046" lon="9.9947071"><ele>102.0</ele><time>2026-05-03T09:31:55.085Z</time></trkpt><trkpt lat="37.1048985" lon="9.9947263"><ele>101.33333333333334</ele><time>2026-05-03T09:31:56.092Z</time></trkpt><trkpt lat="37.1047496" lon="9.9947558"><ele>100.66666666666667</ele><time>2026-05-03T09:31:57.079Z</time></trkpt><trkpt lat="37.104595" lon="9.9948012"><ele>100.0</ele><time>2026-05-03T09:31:58.086Z</time></trkpt><trkpt lat="37.1044426" lon="9.9948688"><ele>100.0</ele><time>2026-05-03T09:31:59.08Z</time></trkpt><trkpt lat="37.1042933" lon="9.9949506"><ele>100.0</ele><time>2026-05-03T09:32:00.072Z</time></trkpt><trkpt lat="37.1041388" lon="9.9950434"><ele>100.0</ele><time>2026-05-03T09:32:01.067Z</time></trkpt><trkpt lat="37.1039839" lon="9.9951466"><ele>98.0</ele><time>2026-05-03T09:32:02.069Z</time></trkpt><trkpt lat="37.1038294" lon="9.995259"><ele>96.0</ele><time>2026-05-03T09:32:03.074Z</time></trkpt><trkpt lat="37.1036803" lon="9.9953747"><ele>94.0</ele><time>2026-05-03T09:32:04.072Z</time></trkpt><trkpt lat="37.1035297" lon="9.9954795"><ele>94.0</ele><time>2026-05-03T09:32:05.071Z</time></trkpt><trkpt lat="37.1033783" lon="9.9955857"><ele>94.0</ele><time>2026-05-03T09:32:06.083Z</time></trkpt><trkpt lat="37.1032286" lon="9.995697"><ele>94.0</ele><time>2026-05-03T09:32:07.09Z</time></trkpt><trkpt lat="37.1030697" lon="9.9958064"><ele>91.66666666666666</ele><time>2026-05-03T09:32:08.092Z</time></trkpt><trkpt lat="37.1029128" lon="9.9959113"><ele>89.33333333333333</ele><time>2026-05-03T09:32:09.072Z</time></trkpt><trkpt lat="37.102757" lon="9.9960219"><ele>87.0</ele><time>2026-05-03T09:32:10.075Z</time></trkpt><trkpt lat="37.102595" lon="9.9961302"><ele>87.0</ele><time>2026-05-03T09:32:11.078Z</time></trkpt><trkpt lat="37.1024304" lon="9.9962408"><ele>87.0</ele><time>2026-05-03T09:32:12.07Z</time></trkpt><trkpt lat="37.1022692" lon="9.996354"><ele>87.0</ele><time>2026-05-03T09:32:13.085Z</time></trkpt><trkpt lat="37.1021086" lon="9.9964705"><ele>87.66666666666667</ele><time>2026-05-03T09:32:14.084Z</time></trkpt><trkpt lat="37.1019448" lon="9.9965859"><ele>88.33333333333334</ele><time>2026-05-03T09:32:15.074Z</time></trkpt><trkpt lat="37.1017819" lon="9.9966984"><ele>89.0</ele><time>2026-05-03T09:32:16.086Z</time></trkpt><trkpt lat="37.1016189" lon="9.9968104"><ele>85.0</ele><time>2026-05-03T09:32:17.077Z</time></trkpt><trkpt lat="37.1014507" lon="9.9969254"><ele>81.0</ele><time>2026-05-03T09:32:18.093Z</time></trkpt><trkpt lat="37.1012885" lon="9.9970285"><ele>77.0</ele><time>2026-05-03T09:32:19.08Z</time></trkpt><trkpt lat="37.1011236" lon="9.9971265"><ele>77.0</ele><time>2026-05-03T09:32:20.063Z</time></trkpt><trkpt lat="37.10095" lon="9.9972133"><ele>77.0</ele><time>2026-05-03T09:32:21.075Z</time></trkpt><trkpt lat="37.1007702" lon="9.9972755"><ele>77.0</ele><time>2026-05-03T09:32:22.078Z</time></trkpt><trkpt lat="37.1005764" lon="9.997317"><ele>76.0</ele><time>2026-05-03T09:32:23.068Z</time></trkpt><trkpt lat="37.1003837" lon="9.9973489"><ele>75.0</ele><time>2026-05-03T09:32:24.09Z</time></trkpt><trkpt lat="37.1001821" lon="9.9973771"><ele>74.0</ele><time>2026-05-03T09:32:25.061Z</time></trkpt><trkpt lat="37.0999885" lon="9.9974185"><ele>74.66666666666667</ele><time>2026-05-03T09:32:26.09Z</time></trkpt><trkpt lat="37.0997935" lon="9.9974701"><ele>75.33333333333333</ele><time>2026-05-03T09:32:27.085Z</time></trkpt><trkpt lat="37.099612" lon="9.9975408"><ele>76.0</ele><time>2026-05-03T09:32:28.081Z</time></trkpt><trkpt lat="37.0994392" lon="9.997642"><ele>73.66666666666666</ele><time>2026-05-03T09:32:29.081Z</time></trkpt><trkpt lat="37.099267" lon="9.9977684"><ele>71.33333333333333</ele><time>2026-05-03T09:32:30.093Z</time></trkpt><trkpt lat="37.0991114" lon="9.9979226"><ele>69.0</ele><time>2026-05-03T09:32:31.094Z</time></trkpt><trkpt lat="37.0989623" lon="9.9981012"><ele>69.0</ele><time>2026-05-03T09:32:32.053Z</time></trkpt><trkpt lat="37.0988213" lon="9.9982649"><ele>69.0</ele><time>2026-05-03T09:32:33.076Z</time></trkpt><trkpt lat="37.0986903" lon="9.9984321"><ele>69.0</ele><time>2026-05-03T09:32:34.079Z</time></trkpt><trkpt lat="37.0985543" lon="9.9986017"><ele>67.33333333333333</ele><time>2026-05-03T09:32:35.064Z</time></trkpt><trkpt lat="37.0984208" lon="9.9987632"><ele>65.66666666666666</ele><time>2026-05-03T09:32:36.093Z</time></trkpt><trkpt lat="37.0982851" lon="9.9989179"><ele>64.0</ele><time>2026-05-03T09:32:37.091Z</time></trkpt><trkpt lat="37.0981404" lon="9.9990667"><ele>62.33333333333333</ele><time>2026-05-03T09:32:38.088Z</time></trkpt><trkpt lat="37.0979895" lon="9.9991843"><ele>60.66666666666667</ele><time>2026-05-03T09:32:39.087Z</time></trkpt><trkpt lat="37.0978191" lon="9.999277"><ele>59.0</ele><time>2026-05-03T09:32:40.08Z</time></trkpt><trkpt lat="37.0976483" lon="9.9993581"><ele>59.0</ele><time>2026-05-03T09:32:41.075Z</time></trkpt><trkpt lat="37.0974683" lon="9.9994218"><ele>59.0</ele><time>2026-05-03T09:32:42.08Z</time></trkpt><trkpt lat="37.0972891" lon="9.9994716"><ele>59.0</ele><time>2026-05-03T09:32:43.08Z</time></trkpt><trkpt lat="37.0971062" lon="9.9995173"><ele>58.0</ele><time>2026-05-03T09:32:44.083Z</time></trkpt><trkpt lat="37.0969241" lon="9.9995604"><ele>57.0</ele><time>2026-05-03T09:32:45.082Z</time></trkpt><trkpt lat="37.0967387" lon="9.9996017"><ele>56.0</ele><time>2026-05-03T09:32:46.061Z</time></trkpt><trkpt lat="37.0965531" lon="9.999646"><ele>54.333333333333336</ele><time>2026-05-03T09:32:47.069Z</time></trkpt><trkpt lat="37.0963631" lon="9.9996956"><ele>52.66666666666667</ele><time>2026-05-03T09:32:48.084Z</time></trkpt><trkpt lat="37.0961734" lon="9.9997422"><ele>51.0</ele><time>2026-05-03T09:32:49.098Z</time></trkpt><trkpt lat="37.0959821" lon="9.999791"><ele>51.0</ele><time>2026-05-03T09:32:50.089Z</time></trkpt><trkpt lat="37.0957957" lon="9.9998328"><ele>51.0</ele><time>2026-05-03T09:32:51.089Z</time></trkpt><trkpt lat="37.0956082" lon="9.9998749"><ele>51.0</ele><time>2026-05-03T09:32:52.091Z</time></trkpt><trkpt lat="37.0954189" lon="9.9999195"><ele>49.666666666666664</ele><time>2026-05-03T09:32:53.071Z</time></trkpt><trkpt lat="37.0952294" lon="9.9999661"><ele>48.33333333333333</ele><time>2026-05-03T09:32:54.067Z</time></trkpt><trkpt lat="37.095043" lon="10.000008"><ele>47.0</ele><time>2026-05-03T09:32:55.07Z</time></trkpt><trkpt lat="37.0948518" lon="10.0000487"><ele>46.666666666666664</ele><time>2026-05-03T09:32:56.077Z</time></trkpt><trkpt lat="37.0946635" lon="10.0000865"><ele>46.333333333333336</ele><time>2026-05-03T09:32:57.089Z</time></trkpt><trkpt lat="37.0944692" lon="10.0001353"><ele>46.0</ele><time>2026-05-03T09:32:58.088Z</time></trkpt><trkpt lat="37.0942764" lon="10.0001766"><ele>45.0</ele><time>2026-05-03T09:32:59.071Z</time></trkpt><trkpt lat="37.094083" lon="10.0002187"><ele>44.0</ele><time>2026-05-03T09:33:00.086Z</time></trkpt><trkpt lat="37.0938947" lon="10.0002628"><ele>43.0</ele><time>2026-05-03T09:33:01.094Z</time></trkpt><trkpt lat="37.0937076" lon="10.0003054"><ele>43.0</ele><time>2026-05-03T09:33:02.099Z</time></trkpt><trkpt lat="37.0935207" lon="10.000355"><ele>43.0</ele><time>2026-05-03T09:33:03.094Z</time></trkpt><trkpt lat="37.0933311" lon="10.0003987"><ele>43.0</ele><time>2026-05-03T09:33:04.086Z</time></trkpt><trkpt lat="37.0931427" lon="10.0004403"><ele>42.0</ele><time>2026-05-03T09:33:05.095Z</time></trkpt><trkpt lat="37.0929562" lon="10.0004848"><ele>41.0</ele><time>2026-05-03T09:33:06.093Z</time></trkpt><trkpt lat="37.0927702" lon="10.0005261"><ele>40.0</ele><time>2026-05-03T09:33:07.087Z</time></trkpt><trkpt lat="37.0925847" lon="10.0005655"><ele>40.0</ele><time>2026-05-03T09:33:08.087Z</time></trkpt><trkpt lat="37.0923978" lon="10.0006071"><ele>40.0</ele><time>2026-05-03T09:33:09.086Z</time></trkpt><trkpt lat="37.092211" lon="10.0006511"><ele>40.0</ele><time>2026-05-03T09:33:10.097Z</time></trkpt><trkpt lat="37.0920271" lon="10.0006939"><ele>40.0</ele><time>2026-05-03T09:33:11.086Z</time></trkpt><trkpt lat="37.091846" lon="10.0007351"><ele>40.0</ele><time>2026-05-03T09:33:12.082Z</time></trkpt><trkpt lat="37.0916715" lon="10.0007798"><ele>40.0</ele><time>2026-05-03T09:33:13.089Z</time></trkpt><trkpt lat="37.0915055" lon="10.0008208"><ele>38.66666666666667</ele><time>2026-05-03T09:33:14.085Z</time></trkpt><trkpt lat="37.0913447" lon="10.0008585"><ele>37.333333333333336</ele><time>2026-05-03T09:33:15.097Z</time></trkpt><trkpt lat="37.0911934" lon="10.0008879"><ele>36.0</ele><time>2026-05-03T09:33:16.08Z</time></trkpt><trkpt lat="37.0910554" lon="10.000913"><ele>36.0</ele><time>2026-05-03T09:33:17.088Z</time></trkpt><trkpt lat="37.0909241" lon="10.0009321"><ele>36.0</ele><time>2026-05-03T09:33:18.106Z</time></trkpt><trkpt lat="37.0907918" lon="10.0009513"><ele>36.0</ele><time>2026-05-03T09:33:19.082Z</time></trkpt><trkpt lat="37.0906662" lon="10.0009633"><ele>36.0</ele><time>2026-05-03T09:33:20.089Z</time></trkpt><trkpt lat="37.0905431" lon="10.0009653"><ele>35.6</ele><time>2026-05-03T09:33:21.097Z</time></trkpt><trkpt lat="37.0904291" lon="10.000972"><ele>35.2</ele><time>2026-05-03T09:33:22.096Z</time></trkpt><trkpt lat="37.0903232" lon="10.0009787"><ele>34.8</ele><time>2026-05-03T09:33:23.086Z</time></trkpt><trkpt lat="37.0902185" lon="10.0009854"><ele>34.4</ele><time>2026-05-03T09:33:24.094Z</time></trkpt><trkpt lat="37.0901116" lon="10.0009892"><ele>34.0</ele><time>2026-05-03T09:33:25.088Z</time></trkpt><trkpt lat="37.0899983" lon="10.0009881"><ele>32.75</ele><time>2026-05-03T09:33:26.09Z</time></trkpt><trkpt lat="37.0898751" lon="10.0009944"><ele>31.5</ele><time>2026-05-03T09:33:27.086Z</time></trkpt><trkpt lat="37.0897467" lon="10.0009945"><ele>30.25</ele><time>2026-05-03T09:33:28.09Z</time></trkpt><trkpt lat="37.0896107" lon="10.0009996"><ele>29.0</ele><time>2026-05-03T09:33:29.074Z</time></trkpt><trkpt lat="37.089472" lon="10.0010041"><ele>29.0</ele><time>2026-05-03T09:33:30.075Z</time></trkpt><trkpt lat="37.0893288" lon="10.0010086"><ele>29.0</ele><time>2026-05-03T09:33:31.097Z</time></trkpt><trkpt lat="37.0891813" lon="10.0010165"><ele>29.0</ele><time>2026-05-03T09:33:32.097Z</time></trkpt><trkpt lat="37.0890338" lon="10.0010167"><ele>29.0</ele><time>2026-05-03T09:33:33.056Z</time></trkpt><trkpt lat="37.0888852" lon="10.0010211"><ele>29.0</ele><time>2026-05-03T09:33:34.066Z</time></trkpt><trkpt lat="37.0887363" lon="10.0010269"><ele>29.0</ele><time>2026-05-03T09:33:35.079Z</time></trkpt><trkpt lat="37.0885897" lon="10.0010318"><ele>29.0</ele><time>2026-05-03T09:33:36.078Z</time></trkpt><trkpt lat="37.0884371" lon="10.0010304"><ele>29.0</ele><time>2026-05-03T09:33:37.109Z</time></trkpt><trkpt lat="37.0882848" lon="10.0010293"><ele>28.666666666666664</ele><time>2026-05-03T09:33:38.098Z</time></trkpt><trkpt lat="37.0881318" lon="10.001029"><ele>28.333333333333336</ele><time>2026-05-03T09:33:39.09Z</time></trkpt><trkpt lat="37.0879757" lon="10.0010327"><ele>28.0</ele><time>2026-05-03T09:33:40.08Z</time></trkpt><trkpt lat="37.0878148" lon="10.0010341"><ele>28.0</ele><time>2026-05-03T09:33:41.085Z</time></trkpt><trkpt lat="37.0876475" lon="10.0010358"><ele>28.0</ele><time>2026-05-03T09:33:42.086Z</time></trkpt><trkpt lat="37.0874743" lon="10.001044"><ele>28.0</ele><time>2026-05-03T09:33:43.082Z</time></trkpt><trkpt lat="37.0872998" lon="10.001043"><ele>28.0</ele><time>2026-05-03T09:33:44.082Z</time></trkpt><trkpt lat="37.0871188" lon="10.0010409"><ele>28.0</ele><time>2026-05-03T09:33:45.094Z</time></trkpt><trkpt lat="37.0869425" lon="10.0010412"><ele>28.0</ele><time>2026-05-03T09:33:46.115Z</time></trkpt><trkpt lat="37.0867664" lon="10.0010455"><ele>27.333333333333336</ele><time>2026-05-03T09:33:47.1Z</time></trkpt><trkpt lat="37.0865917" lon="10.0010481"><ele>26.666666666666664</ele><time>2026-05-03T09:33:48.08Z</time></trkpt><trkpt lat="37.086406" lon="10.0010506"><ele>26.0</ele><time>2026-05-03T09:33:49.084Z</time></trkpt><trkpt lat="37.0862091" lon="10.0010504"><ele>26.0</ele><time>2026-05-03T09:33:50.114Z</time></trkpt><trkpt lat="37.0860044" lon="10.0010391"><ele>26.0</ele><time>2026-05-03T09:33:51.086Z</time></trkpt><trkpt lat="37.0858007" lon="10.0010176"><ele>26.0</ele><time>2026-05-03T09:33:52.074Z</time></trkpt><trkpt lat="37.0855995" lon="10.0009853"><ele>24.333333333333332</ele><time>2026-05-03T09:33:53.09Z</time></trkpt><trkpt lat="37.0854016" lon="10.0009505"><ele>22.666666666666664</ele><time>2026-05-03T09:33:54.081Z</time></trkpt><trkpt lat="37.0852065" lon="10.0009165"><ele>21.0</ele><time>2026-05-03T09:33:55.093Z</time></trkpt><trkpt lat="37.0850102" lon="10.0008911"><ele>20.333333333333332</ele><time>2026-05-03T09:33:56.092Z</time></trkpt><trkpt lat="37.0848123" lon="10.0008715"><ele>19.666666666666664</ele><time>2026-05-03T09:33:57.078Z</time></trkpt><trkpt lat="37.0846133" lon="10.0008569"><ele>19.0</ele><time>2026-05-03T09:33:58.089Z</time></trkpt><trkpt lat="37.0844178" lon="10.0008488"><ele>19.0</ele><time>2026-05-03T09:33:59.081Z</time></trkpt><trkpt lat="37.0842226" lon="10.0008442"><ele>19.0</ele><time>2026-05-03T09:34:00.075Z</time></trkpt><trkpt lat="37.0840326" lon="10.000844"><ele>19.0</ele><time>2026-05-03T09:34:01.081Z</time></trkpt><trkpt lat="37.0838405" lon="10.0008458"><ele>19.0</ele><time>2026-05-03T09:34:02.07Z</time></trkpt><trkpt lat="37.0836445" lon="10.0008435"><ele>19.0</ele><time>2026-05-03T09:34:03.079Z</time></trkpt><trkpt lat="37.0834513" lon="10.0008432"><ele>19.0</ele><time>2026-05-03T09:34:04.058Z</time></trkpt><trkpt lat="37.0832591" lon="10.0008405"><ele>19.333333333333332</ele><time>2026-05-03T09:34:05.083Z</time></trkpt><trkpt lat="37.0830644" lon="10.0008365"><ele>19.666666666666668</ele><time>2026-05-03T09:34:06.083Z</time></trkpt><trkpt lat="37.0828724" lon="10.0008293"><ele>20.0</ele><time>2026-05-03T09:34:07.082Z</time></trkpt><trkpt lat="37.0826769" lon="10.0008299"><ele>20.0</ele><time>2026-05-03T09:34:08.084Z</time></trkpt><trkpt lat="37.0824801" lon="10.0008305"><ele>20.0</ele><time>2026-05-03T09:34:09.088Z</time></trkpt><trkpt lat="37.0822883" lon="10.0008308"><ele>20.0</ele><time>2026-05-03T09:34:10.103Z</time></trkpt><trkpt lat="37.0820913" lon="10.0008312"><ele>19.666666666666668</ele><time>2026-05-03T09:34:11.09Z</time></trkpt><trkpt lat="37.0818943" lon="10.0008309"><ele>19.333333333333332</ele><time>2026-05-03T09:34:12.086Z</time></trkpt><trkpt lat="37.0817032" lon="10.0008376"><ele>19.0</ele><time>2026-05-03T09:34:13.084Z</time></trkpt><trkpt lat="37.0815081" lon="10.0008606"><ele>19.0</ele><time>2026-05-03T09:34:14.084Z</time></trkpt><trkpt lat="37.0813176" lon="10.0009006"><ele>19.0</ele><time>2026-05-03T09:34:15.076Z</time></trkpt><trkpt lat="37.0811298" lon="10.0009645"><ele>19.0</ele><time>2026-05-03T09:34:16.102Z</time></trkpt><trkpt lat="37.0809459" lon="10.0010388"><ele>19.0</ele><time>2026-05-03T09:34:17.091Z</time></trkpt><trkpt lat="37.0807749" lon="10.0011187"><ele>19.0</ele><time>2026-05-03T09:34:18.077Z</time></trkpt><trkpt lat="37.0806076" lon="10.0012108"><ele>19.0</ele><time>2026-05-03T09:34:19.081Z</time></trkpt><trkpt lat="37.0804382" lon="10.0013049"><ele>18.333333333333332</ele><time>2026-05-03T09:34:20.102Z</time></trkpt><trkpt lat="37.0802741" lon="10.0013978"><ele>17.666666666666668</ele><time>2026-05-03T09:34:21.088Z</time></trkpt><trkpt lat="37.0801104" lon="10.0014874"><ele>17.0</ele><time>2026-05-03T09:34:22.096Z</time></trkpt><trkpt lat="37.0799483" lon="10.0015721"><ele>17.0</ele><time>2026-05-03T09:34:23.098Z</time></trkpt><trkpt lat="37.0797884" lon="10.001655"><ele>17.0</ele><time>2026-05-03T09:34:24.098Z</time></trkpt><trkpt lat="37.0796307" lon="10.001739"><ele>17.0</ele><time>2026-05-03T09:34:25.089Z</time></trkpt><trkpt lat="37.0794753" lon="10.0018236"><ele>16.666666666666668</ele><time>2026-05-03T09:34:26.088Z</time></trkpt><trkpt lat="37.0793249" lon="10.0019031"><ele>16.333333333333332</ele><time>2026-05-03T09:34:27.11Z</time></trkpt><trkpt lat="37.0791796" lon="10.0019833"><ele>16.0</ele><time>2026-05-03T09:34:28.093Z</time></trkpt><trkpt lat="37.0790424" lon="10.0020605"><ele>15.5</ele><time>2026-05-03T09:34:29.081Z</time></trkpt><trkpt lat="37.0789193" lon="10.0021308"><ele>15.0</ele><time>2026-05-03T09:34:30.086Z</time></trkpt><trkpt lat="37.0788031" lon="10.0021957"><ele>14.5</ele><time>2026-05-03T09:34:31.085Z</time></trkpt><trkpt lat="37.0786995" lon="10.0022519"><ele>14.0</ele><time>2026-05-03T09:34:32.093Z</time></trkpt><trkpt lat="37.078612" lon="10.0022942"><ele>14.000000000000002</ele><time>2026-05-03T09:34:33.065Z</time></trkpt><trkpt lat="37.0785326" lon="10.002341"><ele>14.0</ele><time>2026-05-03T09:34:34.074Z</time></trkpt><trkpt lat="37.0784519" lon="10.0023825"><ele>14.0</ele><time>2026-05-03T09:34:35.06Z</time></trkpt><trkpt lat="37.0783828" lon="10.0024128"><ele>14.0</ele><time>2026-05-03T09:34:36.096Z</time></trkpt><trkpt lat="37.0783139" lon="10.0024213"><ele>14.000000000000002</ele><time>2026-05-03T09:34:37.086Z</time></trkpt><trkpt lat="37.0782325" lon="10.0024131"><ele>14.0</ele><time>2026-05-03T09:34:38.087Z</time></trkpt><trkpt lat="37.0781539" lon="10.0024019"><ele>14.0</ele><time>2026-05-03T09:34:39.085Z</time></trkpt><trkpt lat="37.0780707" lon="10.0024105"><ele>13.999999999999998</ele><time>2026-05-03T09:34:40.084Z</time></trkpt><trkpt lat="37.0779956" lon="10.0024581"><ele>13.999999999999998</ele><time>2026-05-03T09:34:41.079Z</time></trkpt><trkpt lat="37.0779187" lon="10.0025267"><ele>14.0</ele><time>2026-05-03T09:34:42.089Z</time></trkpt><trkpt lat="37.0778478" lon="10.0026132"><ele>14.0</ele><time>2026-05-03T09:34:43.091Z</time></trkpt><trkpt lat="37.0777702" lon="10.0027069"><ele>14.0</ele><time>2026-05-03T09:34:44.094Z</time></trkpt><trkpt lat="37.0776771" lon="10.0027979"><ele>14.0</ele><time>2026-05-03T09:34:45.099Z</time></trkpt><trkpt lat="37.0775585" lon="10.0028823"><ele>14.0</ele><time>2026-05-03T09:34:46.082Z</time></trkpt><trkpt lat="37.0774067" lon="10.0029608"><ele>14.0</ele><time>2026-05-03T09:34:47.083Z</time></trkpt><trkpt lat="37.0772455" lon="10.0030471"><ele>14.0</ele><time>2026-05-03T09:34:48.098Z</time></trkpt><trkpt lat="37.0770801" lon="10.0031242"><ele>14.0</ele><time>2026-05-03T09:34:49.093Z</time></trkpt><trkpt lat="37.0769221" lon="10.0031988"><ele>14.0</ele><time>2026-05-03T09:34:50.093Z</time></trkpt><trkpt lat="37.0767681" lon="10.0032787"><ele>14.0</ele><time>2026-05-03T09:34:51.1Z</time></trkpt><trkpt lat="37.0766206" lon="10.0033561"><ele>14.0</ele><time>2026-05-03T09:34:52.082Z</time></trkpt><trkpt lat="37.076476" lon="10.0034367"><ele>14.0</ele><time>2026-05-03T09:34:53.094Z</time></trkpt><trkpt lat="37.076333" lon="10.0035131"><ele>14.0</ele><time>2026-05-03T09:34:54.093Z</time></trkpt><trkpt lat="37.0761938" lon="10.0035913"><ele>14.0</ele><time>2026-05-03T09:34:55.091Z</time></trkpt><trkpt lat="37.0760546" lon="10.0036689"><ele>14.0</ele><time>2026-05-03T09:34:56.077Z</time></trkpt><trkpt lat="37.0759154" lon="10.0037481"><ele>14.0</ele><time>2026-05-03T09:34:57.08Z</time></trkpt><trkpt lat="37.0757787" lon="10.0038268"><ele>14.0</ele><time>2026-05-03T09:34:58.091Z</time></trkpt><trkpt lat="37.0756395" lon="10.0039013"><ele>14.0</ele><time>2026-05-03T09:34:59.086Z</time></trkpt><trkpt lat="37.0755086" lon="10.0039747"><ele>14.0</ele><time>2026-05-03T09:35:00.087Z</time></trkpt><trkpt lat="37.075379" lon="10.0040471"><ele>14.333333333333334</ele><time>2026-05-03T09:35:01.056Z</time></trkpt><trkpt lat="37.0752438" lon="10.0041226"><ele>14.666666666666668</ele><time>2026-05-03T09:35:02.115Z</time></trkpt><trkpt lat="37.0751054" lon="10.0041976"><ele>15.0</ele><time>2026-05-03T09:35:03.099Z</time></trkpt><trkpt lat="37.0749609" lon="10.0042775"><ele>14.666666666666668</ele><time>2026-05-03T09:35:04.088Z</time></trkpt><trkpt lat="37.0748097" lon="10.0043591"><ele>14.333333333333334</ele><time>2026-05-03T09:35:05.083Z</time></trkpt><trkpt lat="37.0746592" lon="10.0044393"><ele>14.0</ele><time>2026-05-03T09:35:06.096Z</time></trkpt><trkpt lat="37.0745088" lon="10.0045137"><ele>14.0</ele><time>2026-05-03T09:35:07.089Z</time></trkpt><trkpt lat="37.0743561" lon="10.0045957"><ele>14.0</ele><time>2026-05-03T09:35:08.06Z</time></trkpt><trkpt lat="37.0741992" lon="10.0046798"><ele>14.0</ele><time>2026-05-03T09:35:09.085Z</time></trkpt><trkpt lat="37.0740434" lon="10.0047671"><ele>13.333333333333334</ele><time>2026-05-03T09:35:10.08Z</time></trkpt><trkpt lat="37.0738784" lon="10.004855"><ele>12.666666666666668</ele><time>2026-05-03T09:35:11.084Z</time></trkpt><trkpt lat="37.0737132" lon="10.004944"><ele>12.0</ele><time>2026-05-03T09:35:12.074Z</time></trkpt><trkpt lat="37.0735494" lon="10.0050355"><ele>12.0</ele><time>2026-05-03T09:35:13.082Z</time></trkpt><trkpt lat="37.073385" lon="10.0051238"><ele>12.0</ele><time>2026-05-03T09:35:14.085Z</time></trkpt><trkpt lat="37.0732212" lon="10.0052104"><ele>12.0</ele><time>2026-05-03T09:35:15.081Z</time></trkpt><trkpt lat="37.0730509" lon="10.0053026"><ele>11.333333333333334</ele><time>2026-05-03T09:35:16.074Z</time></trkpt><trkpt lat="37.0728818" lon="10.0053963"><ele>10.666666666666668</ele><time>2026-05-03T09:35:17.09Z</time></trkpt><trkpt lat="37.0727145" lon="10.0054896"><ele>10.0</ele><time>2026-05-03T09:35:18.085Z</time></trkpt><trkpt lat="37.0725515" lon="10.0055813"><ele>10.0</ele><time>2026-05-03T09:35:19.106Z</time></trkpt><trkpt lat="37.0723886" lon="10.0056657"><ele>10.0</ele><time>2026-05-03T09:35:20.092Z</time></trkpt><trkpt lat="37.0722278" lon="10.0057516"><ele>10.0</ele><time>2026-05-03T09:35:21.101Z</time></trkpt><trkpt lat="37.0720648" lon="10.0058356"><ele>10.0</ele><time>2026-05-03T09:35:22.083Z</time></trkpt><trkpt lat="37.0719025" lon="10.0059205"><ele>10.0</ele><time>2026-05-03T09:35:23.105Z</time></trkpt><trkpt lat="37.0717411" lon="10.0060091"><ele>10.0</ele><time>2026-05-03T09:35:24.08Z</time></trkpt><trkpt lat="37.0715787" lon="10.0060997"><ele>10.0</ele><time>2026-05-03T09:35:25.084Z</time></trkpt><trkpt lat="37.0714181" lon="10.0061879"><ele>10.0</ele><time>2026-05-03T09:35:26.093Z</time></trkpt><trkpt lat="37.0712572" lon="10.0062695"><ele>10.0</ele><time>2026-05-03T09:35:27.092Z</time></trkpt><trkpt lat="37.0710965" lon="10.0063573"><ele>10.0</ele><time>2026-05-03T09:35:28.098Z</time></trkpt><trkpt lat="37.0709395" lon="10.0064426"><ele>10.0</ele><time>2026-05-03T09:35:29.086Z</time></trkpt><trkpt lat="37.0707808" lon="10.006532"><ele>10.0</ele><time>2026-05-03T09:35:30.088Z</time></trkpt><trkpt lat="37.0706233" lon="10.0066155"><ele>10.333333333333334</ele><time>2026-05-03T09:35:31.082Z</time></trkpt><trkpt lat="37.0704657" lon="10.0066963"><ele>10.666666666666666</ele><time>2026-05-03T09:35:32.079Z</time></trkpt><trkpt lat="37.0703072" lon="10.0067767"><ele>11.0</ele><time>2026-05-03T09:35:33.094Z</time></trkpt><trkpt lat="37.0701514" lon="10.0068597"><ele>11.0</ele><time>2026-05-03T09:35:34.051Z</time></trkpt><trkpt lat="37.0699914" lon="10.0069473"><ele>11.0</ele><time>2026-05-03T09:35:35.089Z</time></trkpt><trkpt lat="37.0698273" lon="10.0070352"><ele>11.0</ele><time>2026-05-03T09:35:36.069Z</time></trkpt><trkpt lat="37.0696627" lon="10.007125"><ele>11.0</ele><time>2026-05-03T09:35:37.091Z</time></trkpt><trkpt lat="37.0694943" lon="10.0072177"><ele>11.0</ele><time>2026-05-03T09:35:38.09Z</time></trkpt><trkpt lat="37.0693287" lon="10.0073116"><ele>11.0</ele><time>2026-05-03T09:35:39.091Z</time></trkpt><trkpt lat="37.0691641" lon="10.0074086"><ele>11.0</ele><time>2026-05-03T09:35:40.086Z</time></trkpt><trkpt lat="37.0689999" lon="10.0075062"><ele>11.0</ele><time>2026-05-03T09:35:41.084Z</time></trkpt><trkpt lat="37.0688367" lon="10.0076114"><ele>11.0</ele><time>2026-05-03T09:35:42.083Z</time></trkpt><trkpt lat="37.0686755" lon="10.0077214"><ele>11.0</ele><time>2026-05-03T09:35:43.088Z</time></trkpt><trkpt lat="37.0685189" lon="10.0078329"><ele>11.0</ele><time>2026-05-03T09:35:44.085Z</time></trkpt><trkpt lat="37.0683665" lon="10.0079496"><ele>11.0</ele><time>2026-05-03T09:35:45.074Z</time></trkpt><trkpt lat="37.0682163" lon="10.008078"><ele>11.0</ele><time>2026-05-03T09:35:46.074Z</time></trkpt><trkpt lat="37.0680636" lon="10.008206"><ele>11.0</ele><time>2026-05-03T09:35:47.091Z</time></trkpt><trkpt lat="37.0679151" lon="10.0083414"><ele>11.0</ele><time>2026-05-03T09:35:48.093Z</time></trkpt><trkpt lat="37.0677668" lon="10.0084883"><ele>11.0</ele><time>2026-05-03T09:35:49.1Z</time></trkpt><trkpt lat="37.067625" lon="10.0086378"><ele>11.0</ele><time>2026-05-03T09:35:50.1Z</time></trkpt><trkpt lat="37.0674824" lon="10.0087901"><ele>11.0</ele><time>2026-05-03T09:35:51.081Z</time></trkpt><trkpt lat="37.0673496" lon="10.0089486"><ele>11.0</ele><time>2026-05-03T09:35:52.096Z</time></trkpt><trkpt lat="37.0672194" lon="10.009106"><ele>11.0</ele><time>2026-05-03T09:35:53.066Z</time></trkpt><trkpt lat="37.0670867" lon="10.0092616"><ele>11.0</ele><time>2026-05-03T09:35:54.086Z</time></trkpt><trkpt lat="37.0669543" lon="10.0094236"><ele>11.0</ele><time>2026-05-03T09:35:55.089Z</time></trkpt><trkpt lat="37.0668284" lon="10.0095877"><ele>11.0</ele><time>2026-05-03T09:35:56.092Z</time></trkpt><trkpt lat="37.0667074" lon="10.0097523"><ele>11.0</ele><time>2026-05-03T09:35:57.094Z</time></trkpt><trkpt lat="37.0665882" lon="10.0099118"><ele>11.0</ele><time>2026-05-03T09:35:58.079Z</time></trkpt><trkpt lat="37.0664619" lon="10.0100748"><ele>11.0</ele><time>2026-05-03T09:35:59.097Z</time></trkpt><trkpt lat="37.0663409" lon="10.0102381"><ele>11.0</ele><time>2026-05-03T09:36:00.074Z</time></trkpt><trkpt lat="37.0662152" lon="10.0103971"><ele>11.0</ele><time>2026-05-03T09:36:01.082Z</time></trkpt><trkpt lat="37.0660907" lon="10.0105587"><ele>11.0</ele><time>2026-05-03T09:36:02.085Z</time></trkpt><trkpt lat="37.0659604" lon="10.0107224"><ele>11.0</ele><time>2026-05-03T09:36:03.095Z</time></trkpt><trkpt lat="37.0658326" lon="10.0108858"><ele>11.0</ele><time>2026-05-03T09:36:04.092Z</time></trkpt><trkpt lat="37.0656988" lon="10.0110442"><ele>11.0</ele><time>2026-05-03T09:36:05.082Z</time></trkpt><trkpt lat="37.0655651" lon="10.011198"><ele>11.0</ele><time>2026-05-03T09:36:06.096Z</time></trkpt><trkpt lat="37.0654299" lon="10.0113451"><ele>11.0</ele><time>2026-05-03T09:36:07.088Z</time></trkpt><trkpt lat="37.0652933" lon="10.0114891"><ele>11.0</ele><time>2026-05-03T09:36:08.084Z</time></trkpt><trkpt lat="37.0651553" lon="10.0116361"><ele>11.0</ele><time>2026-05-03T09:36:09.071Z</time></trkpt><trkpt lat="37.0650202" lon="10.0117831"><ele>11.0</ele><time>2026-05-03T09:36:10.083Z</time></trkpt><trkpt lat="37.0648833" lon="10.0119302"><ele>11.0</ele><time>2026-05-03T09:36:11.082Z</time></trkpt><trkpt lat="37.0647477" lon="10.0120736"><ele>11.0</ele><time>2026-05-03T09:36:12.094Z</time></trkpt><trkpt lat="37.0646156" lon="10.0122173"><ele>11.0</ele><time>2026-05-03T09:36:13.049Z</time></trkpt><trkpt lat="37.0644807" lon="10.0123642"><ele>11.0</ele><time>2026-05-03T09:36:14.058Z</time></trkpt><trkpt lat="37.0643451" lon="10.0125108"><ele>11.0</ele><time>2026-05-03T09:36:15.067Z</time></trkpt><trkpt lat="37.0642108" lon="10.0126535"><ele>10.666666666666666</ele><time>2026-05-03T09:36:16.071Z</time></trkpt><trkpt lat="37.0640752" lon="10.0127961"><ele>10.333333333333334</ele><time>2026-05-03T09:36:17.06Z</time></trkpt><trkpt lat="37.0639402" lon="10.0129413"><ele>10.0</ele><time>2026-05-03T09:36:18.051Z</time></trkpt><trkpt lat="37.0638069" lon="10.01309"><ele>10.0</ele><time>2026-05-03T09:36:19.069Z</time></trkpt><trkpt lat="37.0636821" lon="10.0132486"><ele>10.0</ele><time>2026-05-03T09:36:20.065Z</time></trkpt><trkpt lat="37.063557" lon="10.013412"><ele>10.0</ele><time>2026-05-03T09:36:21.076Z</time></trkpt><trkpt lat="37.0634309" lon="10.0135779"><ele>10.0</ele><time>2026-05-03T09:36:22.075Z</time></trkpt><trkpt lat="37.063304" lon="10.0137492"><ele>10.0</ele><time>2026-05-03T09:36:23.067Z</time></trkpt><trkpt lat="37.0631768" lon="10.0139211"><ele>10.0</ele><time>2026-05-03T09:36:24.054Z</time></trkpt><trkpt lat="37.0630492" lon="10.014098"><ele>10.0</ele><time>2026-05-03T09:36:25.084Z</time></trkpt><trkpt lat="37.0629186" lon="10.0142769"><ele>10.0</ele><time>2026-05-03T09:36:26.062Z</time></trkpt><trkpt lat="37.0627893" lon="10.0144533"><ele>10.0</ele><time>2026-05-03T09:36:27.062Z</time></trkpt><trkpt lat="37.062664" lon="10.0146292"><ele>10.0</ele><time>2026-05-03T09:36:28.052Z</time></trkpt><trkpt lat="37.0625338" lon="10.0148057"><ele>10.0</ele><time>2026-05-03T09:36:29.079Z</time></trkpt><trkpt lat="37.062401" lon="10.014985"><ele>10.0</ele><time>2026-05-03T09:36:30.078Z</time></trkpt><trkpt lat="37.0622719" lon="10.0151567"><ele>9.666666666666668</ele><time>2026-05-03T09:36:31.069Z</time></trkpt><trkpt lat="37.0621468" lon="10.0153172"><ele>9.333333333333334</ele><time>2026-05-03T09:36:32.082Z</time></trkpt><trkpt lat="37.0620237" lon="10.0154888"><ele>9.0</ele><time>2026-05-03T09:36:33.078Z</time></trkpt><trkpt lat="37.0619041" lon="10.0156501"><ele>9.0</ele><time>2026-05-03T09:36:34.056Z</time></trkpt><trkpt lat="37.061784" lon="10.0158123"><ele>9.0</ele><time>2026-05-03T09:36:35.063Z</time></trkpt><trkpt lat="37.0616643" lon="10.0159736"><ele>9.0</ele><time>2026-05-03T09:36:36.06Z</time></trkpt><trkpt lat="37.0615483" lon="10.0161275"><ele>9.333333333333334</ele><time>2026-05-03T09:36:37.082Z</time></trkpt><trkpt lat="37.0614285" lon="10.0162855"><ele>9.666666666666668</ele><time>2026-05-03T09:36:38.089Z</time></trkpt><trkpt lat="37.0613125" lon="10.0164496"><ele>10.0</ele><time>2026-05-03T09:36:39.079Z</time></trkpt><trkpt lat="37.0611884" lon="10.0166014"><ele>10.0</ele><time>2026-05-03T09:36:40.066Z</time></trkpt><trkpt lat="37.0610651" lon="10.0167573"><ele>10.0</ele><time>2026-05-03T09:36:41.084Z</time></trkpt><trkpt lat="37.0609339" lon="10.0169125"><ele>10.0</ele><time>2026-05-03T09:36:42.091Z</time></trkpt><trkpt lat="37.0608003" lon="10.0170687"><ele>9.666666666666668</ele><time>2026-05-03T09:36:43.092Z</time></trkpt><trkpt lat="37.0606668" lon="10.0172258"><ele>9.333333333333334</ele><time>2026-05-03T09:36:44.093Z</time></trkpt><trkpt lat="37.060528" lon="10.0173747"><ele>9.0</ele><time>2026-05-03T09:36:45.095Z</time></trkpt><trkpt lat="37.0603802" lon="10.0175195"><ele>8.666666666666666</ele><time>2026-05-03T09:36:46.08Z</time></trkpt><trkpt lat="37.0602312" lon="10.0176633"><ele>8.333333333333332</ele><time>2026-05-03T09:36:47.093Z</time></trkpt><trkpt lat="37.0600746" lon="10.0178068"><ele>8.0</ele><time>2026-05-03T09:36:48.081Z</time></trkpt><trkpt lat="37.0599182" lon="10.0179421"><ele>7.666666666666666</ele><time>2026-05-03T09:36:49.09Z</time></trkpt><trkpt lat="37.0597605" lon="10.018072"><ele>7.333333333333334</ele><time>2026-05-03T09:36:50.087Z</time></trkpt><trkpt lat="37.0596041" lon="10.0182045"><ele>7.0</ele><time>2026-05-03T09:36:51.083Z</time></trkpt><trkpt lat="37.059445" lon="10.0183325"><ele>7.0</ele><time>2026-05-03T09:36:52.09Z</time></trkpt><trkpt lat="37.0592885" lon="10.0184636"><ele>7.0</ele><time>2026-05-03T09:36:53.086Z</time></trkpt><trkpt lat="37.0591342" lon="10.0185899"><ele>7.0</ele><time>2026-05-03T09:36:54.106Z</time></trkpt><trkpt lat="37.0589775" lon="10.0187129"><ele>7.333333333333334</ele><time>2026-05-03T09:36:55.084Z</time></trkpt><trkpt lat="37.0588198" lon="10.0188383"><ele>7.666666666666666</ele><time>2026-05-03T09:36:56.086Z</time></trkpt><trkpt lat="37.0586659" lon="10.018961"><ele>8.0</ele><time>2026-05-03T09:36:57.09Z</time></trkpt><trkpt lat="37.0585122" lon="10.0190854"><ele>8.0</ele><time>2026-05-03T09:36:58.09Z</time></trkpt><trkpt lat="37.0583663" lon="10.0192136"><ele>8.0</ele><time>2026-05-03T09:36:59.1Z</time></trkpt><trkpt lat="37.0582174" lon="10.0193383"><ele>8.0</ele><time>2026-05-03T09:37:00.075Z</time></trkpt><trkpt lat="37.0580675" lon="10.0194629"><ele>8.0</ele><time>2026-05-03T09:37:01.069Z</time></trkpt><trkpt lat="37.0579162" lon="10.0195815"><ele>8.0</ele><time>2026-05-03T09:37:02.088Z</time></trkpt><trkpt lat="37.0577702" lon="10.0196988"><ele>8.0</ele><time>2026-05-03T09:37:03.087Z</time></trkpt><trkpt lat="37.0576229" lon="10.0198242"><ele>8.0</ele><time>2026-05-03T09:37:04.088Z</time></trkpt><trkpt lat="37.0574751" lon="10.0199462"><ele>8.0</ele><time>2026-05-03T09:37:05.09Z</time></trkpt><trkpt lat="37.0573266" lon="10.0200695"><ele>8.0</ele><time>2026-05-03T09:37:06.106Z</time></trkpt><trkpt lat="37.0571779" lon="10.0202026"><ele>7.333333333333333</ele><time>2026-05-03T09:37:07.103Z</time></trkpt><trkpt lat="37.0570289" lon="10.0203376"><ele>6.666666666666666</ele><time>2026-05-03T09:37:08.105Z</time></trkpt><trkpt lat="37.0568879" lon="10.0204707"><ele>6.0</ele><time>2026-05-03T09:37:09.097Z</time></trkpt><trkpt lat="37.0567551" lon="10.020603"><ele>6.0</ele><time>2026-05-03T09:37:10.089Z</time></trkpt><trkpt lat="37.0566227" lon="10.0207416"><ele>6.0</ele><time>2026-05-03T09:37:11.09Z</time></trkpt><trkpt lat="37.0564949" lon="10.0208733"><ele>6.0</ele><time>2026-05-03T09:37:12.084Z</time></trkpt><trkpt lat="37.0563746" lon="10.0210059"><ele>6.0</ele><time>2026-05-03T09:37:13.072Z</time></trkpt><trkpt lat="37.0562554" lon="10.0211425"><ele>6.0</ele><time>2026-05-03T09:37:14.095Z</time></trkpt><trkpt lat="37.0561396" lon="10.0212962"><ele>6.0</ele><time>2026-05-03T09:37:15.096Z</time></trkpt><trkpt lat="37.0560156" lon="10.0214703"><ele>6.0</ele><time>2026-05-03T09:37:16.067Z</time></trkpt><trkpt lat="37.055884" lon="10.0216649"><ele>6.0</ele><time>2026-05-03T09:37:17.098Z</time></trkpt><trkpt lat="37.0557398" lon="10.0218742"><ele>6.0</ele><time>2026-05-03T09:37:18.09Z</time></trkpt><trkpt lat="37.0555875" lon="10.022082"><ele>6.0</ele><time>2026-05-03T09:37:19.076Z</time></trkpt><trkpt lat="37.055441" lon="10.0222794"><ele>6.0</ele><time>2026-05-03T09:37:20.091Z</time></trkpt><trkpt lat="37.0552984" lon="10.0224724"><ele>6.0</ele><time>2026-05-03T09:37:21.094Z</time></trkpt><trkpt lat="37.055165" lon="10.0226595"><ele>6.0</ele><time>2026-05-03T09:37:22.081Z</time></trkpt><trkpt lat="37.0550426" lon="10.0228372"><ele>6.0</ele><time>2026-05-03T09:37:23.093Z</time></trkpt><trkpt lat="37.0549231" lon="10.0230135"><ele>6.0</ele><time>2026-05-03T09:37:24.087Z</time></trkpt><trkpt lat="37.0547996" lon="10.0231832"><ele>5.666666666666667</ele><time>2026-05-03T09:37:25.105Z</time></trkpt><trkpt lat="37.0546793" lon="10.0233478"><ele>5.333333333333334</ele><time>2026-05-03T09:37:26.094Z</time></trkpt><trkpt lat="37.0545567" lon="10.0235115"><ele>5.0</ele><time>2026-05-03T09:37:27.087Z</time></trkpt><trkpt lat="37.0544307" lon="10.0236673"><ele>5.0</ele><time>2026-05-03T09:37:28.09Z</time></trkpt><trkpt lat="37.0542954" lon="10.0238162"><ele>5.0</ele><time>2026-05-03T09:37:29.089Z</time></trkpt><trkpt lat="37.0541576" lon="10.0239595"><ele>5.0</ele><time>2026-05-03T09:37:30.08Z</time></trkpt><trkpt lat="37.0540189" lon="10.0241004"><ele>5.333333333333334</ele><time>2026-05-03T09:37:31.074Z</time></trkpt><trkpt lat="37.0538838" lon="10.0242369"><ele>5.666666666666667</ele><time>2026-05-03T09:37:32.087Z</time></trkpt><trkpt lat="37.0537462" lon="10.0243759"><ele>6.0</ele><time>2026-05-03T09:37:33.067Z</time></trkpt><trkpt lat="37.0536" lon="10.0245104"><ele>6.0</ele><time>2026-05-03T09:37:34.073Z</time></trkpt><trkpt lat="37.0534551" lon="10.0246476"><ele>6.0</ele><time>2026-05-03T09:37:35.079Z</time></trkpt><trkpt lat="37.0533134" lon="10.0247835"><ele>6.0</ele><time>2026-05-03T09:37:36.078Z</time></trkpt><trkpt lat="37.0531746" lon="10.0249169"><ele>6.0</ele><time>2026-05-03T09:37:37.057Z</time></trkpt><trkpt lat="37.0530316" lon="10.0250475"><ele>6.0</ele><time>2026-05-03T09:37:38.094Z</time></trkpt><trkpt lat="37.0528871" lon="10.0251799"><ele>6.0</ele><time>2026-05-03T09:37:39.082Z</time></trkpt><trkpt lat="37.0527511" lon="10.0253148"><ele>6.0</ele><time>2026-05-03T09:37:40.096Z</time></trkpt><trkpt lat="37.052611" lon="10.025452"><ele>6.0</ele><time>2026-05-03T09:37:41.083Z</time></trkpt><trkpt lat="37.0524758" lon="10.0255805"><ele>6.0</ele><time>2026-05-03T09:37:42.07Z</time></trkpt><trkpt lat="37.0523396" lon="10.0257107"><ele>6.0</ele><time>2026-05-03T09:37:43.066Z</time></trkpt><trkpt lat="37.0521982" lon="10.0258411"><ele>6.0</ele><time>2026-05-03T09:37:44.077Z</time></trkpt><trkpt lat="37.0520558" lon="10.0259661"><ele>6.0</ele><time>2026-05-03T09:37:45.085Z</time></trkpt><trkpt lat="37.0519076" lon="10.0260921"><ele>6.0</ele><time>2026-05-03T09:37:46.101Z</time></trkpt><trkpt lat="37.0517619" lon="10.0262178"><ele>6.0</ele><time>2026-05-03T09:37:47.08Z</time></trkpt><trkpt lat="37.0516165" lon="10.0263364"><ele>6.0</ele><time>2026-05-03T09:37:48.087Z</time></trkpt><trkpt lat="37.0514707" lon="10.0264585"><ele>6.333333333333334</ele><time>2026-05-03T09:37:49.087Z</time></trkpt><trkpt lat="37.0513221" lon="10.0265775"><ele>6.666666666666667</ele><time>2026-05-03T09:37:50.084Z</time></trkpt><trkpt lat="37.0511701" lon="10.0266982"><ele>7.0</ele><time>2026-05-03T09:37:51.088Z</time></trkpt><trkpt lat="37.0510213" lon="10.0268222"><ele>7.0</ele><time>2026-05-03T09:37:52.081Z</time></trkpt><trkpt lat="37.0508712" lon="10.026944"><ele>7.0</ele><time>2026-05-03T09:37:53.079Z</time></trkpt><trkpt lat="37.0507251" lon="10.0270626"><ele>7.0</ele><time>2026-05-03T09:37:54.1Z</time></trkpt><trkpt lat="37.0505783" lon="10.0271843"><ele>7.333333333333334</ele><time>2026-05-03T09:37:55.08Z</time></trkpt><trkpt lat="37.0504342" lon="10.0273026"><ele>7.666666666666666</ele><time>2026-05-03T09:37:56.086Z</time></trkpt><trkpt lat="37.0502945" lon="10.027422"><ele>8.0</ele><time>2026-05-03T09:37:57.083Z</time></trkpt><trkpt lat="37.0501536" lon="10.0275391"><ele>8.0</ele><time>2026-05-03T09:37:58.096Z</time></trkpt><trkpt lat="37.0500152" lon="10.0276516"><ele>8.0</ele><time>2026-05-03T09:37:59.091Z</time></trkpt><trkpt lat="37.0498781" lon="10.0277649"><ele>8.0</ele><time>2026-05-03T09:38:00.075Z</time></trkpt><trkpt lat="37.049742" lon="10.0278835"><ele>8.333333333333332</ele><time>2026-05-03T09:38:01.09Z</time></trkpt><trkpt lat="37.049601" lon="10.0279998"><ele>8.666666666666666</ele><time>2026-05-03T09:38:02.087Z</time></trkpt><trkpt lat="37.0494575" lon="10.0281241"><ele>9.0</ele><time>2026-05-03T09:38:03.098Z</time></trkpt><trkpt lat="37.0493115" lon="10.0282499"><ele>9.333333333333334</ele><time>2026-05-03T09:38:04.09Z</time></trkpt><trkpt lat="37.0491638" lon="10.0283768"><ele>9.666666666666668</ele><time>2026-05-03T09:38:05.087Z</time></trkpt><trkpt lat="37.0490194" lon="10.0285073"><ele>10.0</ele><time>2026-05-03T09:38:06.095Z</time></trkpt><trkpt lat="37.0488736" lon="10.0286365"><ele>10.666666666666668</ele><time>2026-05-03T09:38:07.089Z</time></trkpt><trkpt lat="37.0487295" lon="10.0287658"><ele>11.333333333333334</ele><time>2026-05-03T09:38:08.096Z</time></trkpt><trkpt lat="37.0485828" lon="10.0288949"><ele>12.0</ele><time>2026-05-03T09:38:09.085Z</time></trkpt><trkpt lat="37.048437" lon="10.0290235"><ele>13.333333333333332</ele><time>2026-05-03T09:38:10.091Z</time></trkpt><trkpt lat="37.0482886" lon="10.0291554"><ele>14.666666666666666</ele><time>2026-05-03T09:38:11.092Z</time></trkpt><trkpt lat="37.048145" lon="10.0292834"><ele>16.0</ele><time>2026-05-03T09:38:12.069Z</time></trkpt><trkpt lat="37.0479994" lon="10.0294164"><ele>16.0</ele><time>2026-05-03T09:38:13.096Z</time></trkpt><trkpt lat="37.0478564" lon="10.029546"><ele>16.0</ele><time>2026-05-03T09:38:14.069Z</time></trkpt><trkpt lat="37.0477135" lon="10.0296749"><ele>16.0</ele><time>2026-05-03T09:38:15.098Z</time></trkpt><trkpt lat="37.0475695" lon="10.0298082"><ele>17.333333333333332</ele><time>2026-05-03T09:38:16.095Z</time></trkpt><trkpt lat="37.0474224" lon="10.0299413"><ele>18.666666666666668</ele><time>2026-05-03T09:38:17.1Z</time></trkpt><trkpt lat="37.0472739" lon="10.0300715"><ele>20.0</ele><time>2026-05-03T09:38:18.094Z</time></trkpt><trkpt lat="37.0471276" lon="10.0302001"><ele>20.0</ele><time>2026-05-03T09:38:19.087Z</time></trkpt><trkpt lat="37.0469794" lon="10.0303325"><ele>20.0</ele><time>2026-05-03T09:38:20.084Z</time></trkpt><trkpt lat="37.0468342" lon="10.0304616"><ele>20.0</ele><time>2026-05-03T09:38:21.088Z</time></trkpt><trkpt lat="37.046685" lon="10.0305921"><ele>21.333333333333336</ele><time>2026-05-03T09:38:22.091Z</time></trkpt><trkpt lat="37.0465414" lon="10.0307207"><ele>22.666666666666668</ele><time>2026-05-03T09:38:23.093Z</time></trkpt><trkpt lat="37.0463977" lon="10.030854"><ele>24.0</ele><time>2026-05-03T09:38:24.093Z</time></trkpt><trkpt lat="37.0462581" lon="10.0309926"><ele>25.0</ele><time>2026-05-03T09:38:25.09Z</time></trkpt><trkpt lat="37.0461225" lon="10.0311317"><ele>26.0</ele><time>2026-05-03T09:38:26.104Z</time></trkpt><trkpt lat="37.0459945" lon="10.0312647"><ele>27.0</ele><time>2026-05-03T09:38:27.085Z</time></trkpt><trkpt lat="37.0458732" lon="10.0313892"><ele>28.25</ele><time>2026-05-03T09:38:28.088Z</time></trkpt><trkpt lat="37.045769" lon="10.0314926"><ele>29.5</ele><time>2026-05-03T09:38:29.109Z</time></trkpt><trkpt lat="37.0456839" lon="10.0315925"><ele>30.75</ele><time>2026-05-03T09:38:30.099Z</time></trkpt><trkpt lat="37.0456028" lon="10.0316864"><ele>32.0</ele><time>2026-05-03T09:38:31.094Z</time></trkpt><trkpt lat="37.0455161" lon="10.0317999"><ele>32.75</ele><time>2026-05-03T09:38:32.095Z</time></trkpt><trkpt lat="37.0454249" lon="10.0319189"><ele>33.5</ele><time>2026-05-03T09:38:33.099Z</time></trkpt><trkpt lat="37.0453325" lon="10.0320363"><ele>34.25</ele><time>2026-05-03T09:38:34.093Z</time></trkpt><trkpt lat="37.0452384" lon="10.0321493"><ele>35.0</ele><time>2026-05-03T09:38:35.086Z</time></trkpt><trkpt lat="37.0451387" lon="10.0322642"><ele>35.0</ele><time>2026-05-03T09:38:36.069Z</time></trkpt><trkpt lat="37.0450428" lon="10.0323763"><ele>35.0</ele><time>2026-05-03T09:38:37.085Z</time></trkpt><trkpt lat="37.0449416" lon="10.0324919"><ele>35.0</ele><time>2026-05-03T09:38:38.095Z</time></trkpt><trkpt lat="37.0448421" lon="10.0326144"><ele>35.0</ele><time>2026-05-03T09:38:39.093Z</time></trkpt><trkpt lat="37.0447411" lon="10.032736"><ele>37.25</ele><time>2026-05-03T09:38:40.086Z</time></trkpt><trkpt lat="37.0446344" lon="10.0328599"><ele>39.5</ele><time>2026-05-03T09:38:41.091Z</time></trkpt><trkpt lat="37.0445277" lon="10.0329893"><ele>41.75</ele><time>2026-05-03T09:38:42.088Z</time></trkpt><trkpt lat="37.0444174" lon="10.0331202"><ele>44.0</ele><time>2026-05-03T09:38:43.089Z</time></trkpt><trkpt lat="37.0443097" lon="10.033251"><ele>43.666666666666664</ele><time>2026-05-03T09:38:44.097Z</time></trkpt><trkpt lat="37.0442021" lon="10.0333883"><ele>43.333333333333336</ele><time>2026-05-03T09:38:45.082Z</time></trkpt><trkpt lat="37.0440976" lon="10.0335272"><ele>43.0</ele><time>2026-05-03T09:38:46.082Z</time></trkpt><trkpt lat="37.0439899" lon="10.0336713"><ele>47.66666666666667</ele><time>2026-05-03T09:38:47.086Z</time></trkpt><trkpt lat="37.0438797" lon="10.033808"><ele>52.333333333333336</ele><time>2026-05-03T09:38:48.096Z</time></trkpt><trkpt lat="37.043768" lon="10.0339548"><ele>57.0</ele><time>2026-05-03T09:38:49.107Z</time></trkpt><trkpt lat="37.0436627" lon="10.0341013"><ele>56.0</ele><time>2026-05-03T09:38:50.095Z</time></trkpt><trkpt lat="37.0435557" lon="10.0342499"><ele>55.0</ele><time>2026-05-03T09:38:51.062Z</time></trkpt><trkpt lat="37.0434455" lon="10.0344069"><ele>54.0</ele><time>2026-05-03T09:38:52.086Z</time></trkpt><trkpt lat="37.0433367" lon="10.0345623"><ele>57.33333333333333</ele><time>2026-05-03T09:38:53.089Z</time></trkpt><trkpt lat="37.0432345" lon="10.0347183"><ele>60.666666666666664</ele><time>2026-05-03T09:38:54.085Z</time></trkpt><trkpt lat="37.0431309" lon="10.0348799"><ele>64.0</ele><time>2026-05-03T09:38:55.082Z</time></trkpt><trkpt lat="37.0430309" lon="10.0350393"><ele>64.0</ele><time>2026-05-03T09:38:56.088Z</time></trkpt><trkpt lat="37.0429321" lon="10.0352024"><ele>64.0</ele><time>2026-05-03T09:38:57.091Z</time></trkpt><trkpt lat="37.0428406" lon="10.0353611"><ele>64.0</ele><time>2026-05-03T09:38:58.093Z</time></trkpt><trkpt lat="37.0427568" lon="10.0355212"><ele>64.0</ele><time>2026-05-03T09:38:59.08Z</time></trkpt><trkpt lat="37.0426795" lon="10.0356744"><ele>64.0</ele><time>2026-05-03T09:39:00.075Z</time></trkpt><trkpt lat="37.0426076" lon="10.0358176"><ele>64.0</ele><time>2026-05-03T09:39:01.079Z</time></trkpt><trkpt lat="37.0425412" lon="10.0359516"><ele>64.0</ele><time>2026-05-03T09:39:02.073Z</time></trkpt><trkpt lat="37.0424811" lon="10.0360758"><ele>63.6</ele><time>2026-05-03T09:39:03.086Z</time></trkpt><trkpt lat="37.0424265" lon="10.0361823"><ele>63.2</ele><time>2026-05-03T09:39:04.092Z</time></trkpt><trkpt lat="37.0423781" lon="10.0362832"><ele>62.800000000000004</ele><time>2026-05-03T09:39:05.085Z</time></trkpt><trkpt lat="37.042328" lon="10.0363651"><ele>62.400000000000006</ele><time>2026-05-03T09:39:06.082Z</time></trkpt><trkpt lat="37.0422776" lon="10.0364378"><ele>62.0</ele><time>2026-05-03T09:39:07.083Z</time></trkpt><trkpt lat="37.0421874" lon="10.0365271"><ele>59.8</ele><time>2026-05-03T09:39:09.099Z</time></trkpt><trkpt lat="37.0421499" lon="10.0366409"><ele>57.6</ele><time>2026-05-03T09:39:11.084Z</time></trkpt><trkpt lat="37.04212" lon="10.0367959"><ele>55.4</ele><time>2026-05-03T09:39:13.099Z</time></trkpt><trkpt lat="37.0420979" lon="10.0368838"><ele>53.199999999999996</ele><time>2026-05-03T09:39:14.068Z</time></trkpt><trkpt lat="37.0420609" lon="10.0369763"><ele>51.0</ele><time>2026-05-03T09:39:15.073Z</time></trkpt><trkpt lat="37.0420193" lon="10.0370691"><ele>51.0</ele><time>2026-05-03T09:39:16.051Z</time></trkpt><trkpt lat="37.0419723" lon="10.0371664"><ele>51.0</ele><time>2026-05-03T09:39:17.087Z</time></trkpt><trkpt lat="37.0419233" lon="10.0372777"><ele>51.0</ele><time>2026-05-03T09:39:18.089Z</time></trkpt><trkpt lat="37.0418692" lon="10.0373919"><ele>51.0</ele><time>2026-05-03T09:39:19.08Z</time></trkpt><trkpt lat="37.0418133" lon="10.0375059"><ele>51.0</ele><time>2026-05-03T09:39:20.086Z</time></trkpt><trkpt lat="37.0417514" lon="10.0376267"><ele>50.5</ele><time>2026-05-03T09:39:21.09Z</time></trkpt><trkpt lat="37.041695" lon="10.0377501"><ele>50.0</ele><time>2026-05-03T09:39:22.063Z</time></trkpt><trkpt lat="37.0416349" lon="10.0378838"><ele>49.5</ele><time>2026-05-03T09:39:23.073Z</time></trkpt><trkpt lat="37.0415643" lon="10.038017"><ele>49.0</ele><time>2026-05-03T09:39:24.08Z</time></trkpt><trkpt lat="37.0414995" lon="10.0381585"><ele>46.25</ele><time>2026-05-03T09:39:25.086Z</time></trkpt><trkpt lat="37.0414361" lon="10.0383049"><ele>43.5</ele><time>2026-05-03T09:39:26.082Z</time></trkpt><trkpt lat="37.0413631" lon="10.0384528"><ele>40.75</ele><time>2026-05-03T09:39:27.074Z</time></trkpt><trkpt lat="37.0412905" lon="10.0386054"><ele>38.0</ele><time>2026-05-03T09:39:28.086Z</time></trkpt><trkpt lat="37.0412162" lon="10.0387548"><ele>38.0</ele><time>2026-05-03T09:39:29.093Z</time></trkpt><trkpt lat="37.0411379" lon="10.0389097"><ele>38.0</ele><time>2026-05-03T09:39:30.094Z</time></trkpt><trkpt lat="37.0410573" lon="10.0390625"><ele>38.0</ele><time>2026-05-03T09:39:31.047Z</time></trkpt><trkpt lat="37.0409718" lon="10.0392077"><ele>38.0</ele><time>2026-05-03T09:39:32.082Z</time></trkpt><trkpt lat="37.0408835" lon="10.0393597"><ele>34.33333333333333</ele><time>2026-05-03T09:39:33.074Z</time></trkpt><trkpt lat="37.0407883" lon="10.0395137"><ele>30.666666666666664</ele><time>2026-05-03T09:39:34.094Z</time></trkpt><trkpt lat="37.0406891" lon="10.0396702"><ele>27.0</ele><time>2026-05-03T09:39:35.087Z</time></trkpt><trkpt lat="37.0405803" lon="10.0398172"><ele>27.0</ele><time>2026-05-03T09:39:36.05Z</time></trkpt><trkpt lat="37.0404642" lon="10.0399645"><ele>27.0</ele><time>2026-05-03T09:39:37.061Z</time></trkpt><trkpt lat="37.0403438" lon="10.0401003"><ele>27.0</ele><time>2026-05-03T09:39:38.074Z</time></trkpt><trkpt lat="37.0402139" lon="10.040237"><ele>25.666666666666668</ele><time>2026-05-03T09:39:39.073Z</time></trkpt><trkpt lat="37.0400818" lon="10.0403717"><ele>24.333333333333336</ele><time>2026-05-03T09:39:40.068Z</time></trkpt><trkpt lat="37.0399497" lon="10.0405003"><ele>23.0</ele><time>2026-05-03T09:39:41.075Z</time></trkpt><trkpt lat="37.0398076" lon="10.0406168"><ele>21.666666666666668</ele><time>2026-05-03T09:39:42.084Z</time></trkpt><trkpt lat="37.0396605" lon="10.0407286"><ele>20.333333333333332</ele><time>2026-05-03T09:39:43.081Z</time></trkpt><trkpt lat="37.0395075" lon="10.0408277"><ele>19.0</ele><time>2026-05-03T09:39:44.088Z</time></trkpt><trkpt lat="37.0393519" lon="10.0409182"><ele>17.333333333333332</ele><time>2026-05-03T09:39:45.078Z</time></trkpt><trkpt lat="37.0391964" lon="10.0410022"><ele>15.666666666666668</ele><time>2026-05-03T09:39:46.046Z</time></trkpt><trkpt lat="37.0390356" lon="10.0410745"><ele>14.0</ele><time>2026-05-03T09:39:47.084Z</time></trkpt><trkpt lat="37.0388777" lon="10.0411362"><ele>12.666666666666668</ele><time>2026-05-03T09:39:48.058Z</time></trkpt><trkpt lat="37.0387205" lon="10.041196"><ele>11.333333333333334</ele><time>2026-05-03T09:39:49.073Z</time></trkpt><trkpt lat="37.0385548" lon="10.0412468"><ele>10.0</ele><time>2026-05-03T09:39:50.099Z</time></trkpt><trkpt lat="37.0383921" lon="10.0412875"><ele>9.666666666666668</ele><time>2026-05-03T09:39:51.075Z</time></trkpt><trkpt lat="37.0382297" lon="10.0413214"><ele>9.333333333333334</ele><time>2026-05-03T09:39:52.088Z</time></trkpt><trkpt lat="37.0380767" lon="10.0413484"><ele>9.0</ele><time>2026-05-03T09:39:53.083Z</time></trkpt><trkpt lat="37.0379271" lon="10.0413614"><ele>9.0</ele><time>2026-05-03T09:39:54.088Z</time></trkpt><trkpt lat="37.0377835" lon="10.0413726"><ele>9.0</ele><time>2026-05-03T09:39:55.072Z</time></trkpt><trkpt lat="37.0376465" lon="10.0413752"><ele>9.0</ele><time>2026-05-03T09:39:56.082Z</time></trkpt><trkpt lat="37.0375074" lon="10.0413778"><ele>9.0</ele><time>2026-05-03T09:39:57.076Z</time></trkpt><trkpt lat="37.037367" lon="10.0413757"><ele>9.0</ele><time>2026-05-03T09:39:58.078Z</time></trkpt><trkpt lat="37.03722" lon="10.0413735"><ele>9.0</ele><time>2026-05-03T09:39:59.085Z</time></trkpt><trkpt lat="37.0370785" lon="10.0413592"><ele>9.0</ele><time>2026-05-03T09:40:00.07Z</time></trkpt><trkpt lat="37.0369359" lon="10.0413456"><ele>9.0</ele><time>2026-05-03T09:40:01.088Z</time></trkpt><trkpt lat="37.0367971" lon="10.0413305"><ele>9.0</ele><time>2026-05-03T09:40:02.089Z</time></trkpt><trkpt lat="37.0366531" lon="10.0413128"><ele>9.0</ele><time>2026-05-03T09:40:03.077Z</time></trkpt><trkpt lat="37.0365128" lon="10.0412999"><ele>9.0</ele><time>2026-05-03T09:40:04.089Z</time></trkpt><trkpt lat="37.036368" lon="10.0412792"><ele>9.0</ele><time>2026-05-03T09:40:05.094Z</time></trkpt><trkpt lat="37.0362204" lon="10.0412561"><ele>9.0</ele><time>2026-05-03T09:40:06.085Z</time></trkpt><trkpt lat="37.0360717" lon="10.0412362"><ele>9.0</ele><time>2026-05-03T09:40:07.084Z</time></trkpt><trkpt lat="37.035921" lon="10.0412172"><ele>9.0</ele><time>2026-05-03T09:40:08.075Z</time></trkpt><trkpt lat="37.0357645" lon="10.0411994"><ele>9.0</ele><time>2026-05-03T09:40:09.065Z</time></trkpt><trkpt lat="37.0356099" lon="10.0411844"><ele>9.0</ele><time>2026-05-03T09:40:10.102Z</time></trkpt><trkpt lat="37.0354569" lon="10.0411639"><ele>9.0</ele><time>2026-05-03T09:40:11.086Z</time></trkpt><trkpt lat="37.0353049" lon="10.0411504"><ele>9.0</ele><time>2026-05-03T09:40:12.085Z</time></trkpt><trkpt lat="37.0351486" lon="10.0411307"><ele>9.0</ele><time>2026-05-03T09:40:13.085Z</time></trkpt><trkpt lat="37.0349922" lon="10.0411079"><ele>9.0</ele><time>2026-05-03T09:40:14.056Z</time></trkpt><trkpt lat="37.034832" lon="10.0410914"><ele>8.333333333333334</ele><time>2026-05-03T09:40:15.087Z</time></trkpt><trkpt lat="37.0346782" lon="10.0410893"><ele>7.666666666666667</ele><time>2026-05-03T09:40:16.068Z</time></trkpt><trkpt lat="37.0345281" lon="10.0410927"><ele>7.0</ele><time>2026-05-03T09:40:17.079Z</time></trkpt><trkpt lat="37.0343798" lon="10.0411073"><ele>7.0</ele><time>2026-05-03T09:40:18.084Z</time></trkpt><trkpt lat="37.0342273" lon="10.0411239"><ele>7.0</ele><time>2026-05-03T09:40:19.093Z</time></trkpt><trkpt lat="37.0340773" lon="10.041142"><ele>7.0</ele><time>2026-05-03T09:40:20.076Z</time></trkpt><trkpt lat="37.0339256" lon="10.0411683"><ele>6.666666666666667</ele><time>2026-05-03T09:40:21.076Z</time></trkpt><trkpt lat="37.0337761" lon="10.0411986"><ele>6.333333333333334</ele><time>2026-05-03T09:40:22.087Z</time></trkpt><trkpt lat="37.0336231" lon="10.0412457"><ele>6.0</ele><time>2026-05-03T09:40:23.088Z</time></trkpt><trkpt lat="37.0334672" lon="10.0412978"><ele>6.0</ele><time>2026-05-03T09:40:24.067Z</time></trkpt><trkpt lat="37.0333082" lon="10.0413516"><ele>6.0</ele><time>2026-05-03T09:40:25.062Z</time></trkpt><trkpt lat="37.0331497" lon="10.0414087"><ele>6.0</ele><time>2026-05-03T09:40:26.092Z</time></trkpt><trkpt lat="37.0329859" lon="10.0414652"><ele>5.666666666666667</ele><time>2026-05-03T09:40:27.086Z</time></trkpt><trkpt lat="37.0328261" lon="10.0415238"><ele>5.333333333333334</ele><time>2026-05-03T09:40:28.099Z</time></trkpt><trkpt lat="37.0326668" lon="10.0415735"><ele>5.0</ele><time>2026-05-03T09:40:29.081Z</time></trkpt><trkpt lat="37.0325148" lon="10.0416251"><ele>5.333333333333334</ele><time>2026-05-03T09:40:30.089Z</time></trkpt><trkpt lat="37.0323655" lon="10.041681"><ele>5.666666666666667</ele><time>2026-05-03T09:40:31.1Z</time></trkpt><trkpt lat="37.0322144" lon="10.0417399"><ele>6.0</ele><time>2026-05-03T09:40:32.07Z</time></trkpt><trkpt lat="37.0320642" lon="10.0417979"><ele>6.0</ele><time>2026-05-03T09:40:33.107Z</time></trkpt><trkpt lat="37.0319128" lon="10.0418585"><ele>6.0</ele><time>2026-05-03T09:40:34.052Z</time></trkpt><trkpt lat="37.0317604" lon="10.0419229"><ele>6.0</ele><time>2026-05-03T09:40:35.051Z</time></trkpt><trkpt lat="37.0316052" lon="10.0419849"><ele>6.0</ele><time>2026-05-03T09:40:36.065Z</time></trkpt><trkpt lat="37.0314493" lon="10.042044"><ele>6.0</ele><time>2026-05-03T09:40:37.055Z</time></trkpt><trkpt lat="37.0312944" lon="10.0420973"><ele>6.0</ele><time>2026-05-03T09:40:38.099Z</time></trkpt><trkpt lat="37.0311416" lon="10.0421557"><ele>6.0</ele><time>2026-05-03T09:40:39.073Z</time></trkpt><trkpt lat="37.0309856" lon="10.0422104"><ele>6.0</ele><time>2026-05-03T09:40:40.065Z</time></trkpt><trkpt lat="37.0308316" lon="10.042265"><ele>6.0</ele><time>2026-05-03T09:40:41.058Z</time></trkpt><trkpt lat="37.0306776" lon="10.0423176"><ele>6.0</ele><time>2026-05-03T09:40:42.067Z</time></trkpt><trkpt lat="37.0305215" lon="10.0423766"><ele>6.0</ele><time>2026-05-03T09:40:43.048Z</time></trkpt><trkpt lat="37.0303679" lon="10.0424384"><ele>6.0</ele><time>2026-05-03T09:40:44.048Z</time></trkpt><trkpt lat="37.0302148" lon="10.0424965"><ele>6.0</ele><time>2026-05-03T09:40:45.051Z</time></trkpt><trkpt lat="37.0300599" lon="10.0425544"><ele>6.0</ele><time>2026-05-03T09:40:46.07Z</time></trkpt><trkpt lat="37.0299036" lon="10.0426144"><ele>6.0</ele><time>2026-05-03T09:40:47.053Z</time></trkpt><trkpt lat="37.0297396" lon="10.0426827"><ele>6.0</ele><time>2026-05-03T09:40:48.084Z</time></trkpt><trkpt lat="37.0295761" lon="10.0427487"><ele>6.0</ele><time>2026-05-03T09:40:49.067Z</time></trkpt><trkpt lat="37.0294036" lon="10.0428183"><ele>6.0</ele><time>2026-05-03T09:40:50.075Z</time></trkpt><trkpt lat="37.0292337" lon="10.042888"><ele>5.666666666666667</ele><time>2026-05-03T09:40:51.095Z</time></trkpt><trkpt lat="37.0290637" lon="10.0429629"><ele>5.333333333333334</ele><time>2026-05-03T09:40:52.093Z</time></trkpt><trkpt lat="37.0288902" lon="10.0430392"><ele>5.0</ele><time>2026-05-03T09:40:53.074Z</time></trkpt><trkpt lat="37.0287175" lon="10.0431214"><ele>5.0</ele><time>2026-05-03T09:40:54.087Z</time></trkpt><trkpt lat="37.0285423" lon="10.0432039"><ele>5.0</ele><time>2026-05-03T09:40:55.091Z</time></trkpt><trkpt lat="37.0283702" lon="10.0432921"><ele>5.0</ele><time>2026-05-03T09:40:56.094Z</time></trkpt><trkpt lat="37.0281993" lon="10.0433725"><ele>5.666666666666667</ele><time>2026-05-03T09:40:57.082Z</time></trkpt><trkpt lat="37.0280275" lon="10.0434558"><ele>6.333333333333334</ele><time>2026-05-03T09:40:58.083Z</time></trkpt><trkpt lat="37.0278547" lon="10.0435357"><ele>7.0</ele><time>2026-05-03T09:40:59.087Z</time></trkpt><trkpt lat="37.0276852" lon="10.0436143"><ele>7.0</ele><time>2026-05-03T09:41:00.081Z</time></trkpt><trkpt lat="37.0275193" lon="10.0436935"><ele>7.0</ele><time>2026-05-03T09:41:01.084Z</time></trkpt><trkpt lat="37.0273607" lon="10.0437705"><ele>7.0</ele><time>2026-05-03T09:41:02.094Z</time></trkpt><trkpt lat="37.0271959" lon="10.0438529"><ele>7.333333333333334</ele><time>2026-05-03T09:41:03.075Z</time></trkpt><trkpt lat="37.0270351" lon="10.0439337"><ele>7.666666666666666</ele><time>2026-05-03T09:41:04.094Z</time></trkpt><trkpt lat="37.0268731" lon="10.0440085"><ele>8.0</ele><time>2026-05-03T09:41:05.086Z</time></trkpt><trkpt lat="37.0267163" lon="10.0440845"><ele>7.666666666666666</ele><time>2026-05-03T09:41:06.089Z</time></trkpt><trkpt lat="37.0265586" lon="10.0441581"><ele>7.333333333333334</ele><time>2026-05-03T09:41:07.073Z</time></trkpt><trkpt lat="37.0264038" lon="10.0442314"><ele>7.0</ele><time>2026-05-03T09:41:08.106Z</time></trkpt><trkpt lat="37.0262471" lon="10.0443048"><ele>7.0</ele><time>2026-05-03T09:41:09.079Z</time></trkpt><trkpt lat="37.026091" lon="10.0443833"><ele>7.0</ele><time>2026-05-03T09:41:10.084Z</time></trkpt><trkpt lat="37.0259351" lon="10.0444626"><ele>7.0</ele><time>2026-05-03T09:41:11.088Z</time></trkpt><trkpt lat="37.0257799" lon="10.0445452"><ele>6.666666666666667</ele><time>2026-05-03T09:41:12.074Z</time></trkpt><trkpt lat="37.0256227" lon="10.0446232"><ele>6.333333333333334</ele><time>2026-05-03T09:41:13.091Z</time></trkpt><trkpt lat="37.0254656" lon="10.0447032"><ele>6.0</ele><time>2026-05-03T09:41:14.094Z</time></trkpt><trkpt lat="37.0253074" lon="10.0447816"><ele>6.0</ele><time>2026-05-03T09:41:15.077Z</time></trkpt><trkpt lat="37.0251397" lon="10.0448605"><ele>6.0</ele><time>2026-05-03T09:41:16.082Z</time></trkpt><trkpt lat="37.0249681" lon="10.0449436"><ele>6.0</ele><time>2026-05-03T09:41:17.084Z</time></trkpt><trkpt lat="37.0247986" lon="10.0450266"><ele>6.666666666666666</ele><time>2026-05-03T09:41:18.097Z</time></trkpt><trkpt lat="37.0246276" lon="10.0451116"><ele>7.333333333333333</ele><time>2026-05-03T09:41:19.076Z</time></trkpt><trkpt lat="37.0244598" lon="10.0451955"><ele>8.0</ele><time>2026-05-03T09:41:20.084Z</time></trkpt><trkpt lat="37.0242877" lon="10.0452736"><ele>7.666666666666666</ele><time>2026-05-03T09:41:21.073Z</time></trkpt><trkpt lat="37.0241133" lon="10.0453559"><ele>7.333333333333334</ele><time>2026-05-03T09:41:22.078Z</time></trkpt><trkpt lat="37.0239428" lon="10.0454369"><ele>7.0</ele><time>2026-05-03T09:41:23.061Z</time></trkpt><trkpt lat="37.0237816" lon="10.0455165"><ele>7.0</ele><time>2026-05-03T09:41:24.073Z</time></trkpt><trkpt lat="37.0236166" lon="10.0455948"><ele>7.0</ele><time>2026-05-03T09:41:25.084Z</time></trkpt><trkpt lat="37.0234485" lon="10.0456731"><ele>7.0</ele><time>2026-05-03T09:41:26.085Z</time></trkpt><trkpt lat="37.0232846" lon="10.0457484"><ele>7.0</ele><time>2026-05-03T09:41:27.057Z</time></trkpt><trkpt lat="37.0231207" lon="10.0458288"><ele>7.0</ele><time>2026-05-03T09:41:28.09Z</time></trkpt><trkpt lat="37.0229557" lon="10.0459093"><ele>7.0</ele><time>2026-05-03T09:41:29.106Z</time></trkpt><trkpt lat="37.0227874" lon="10.0459899"><ele>7.0</ele><time>2026-05-03T09:41:30.083Z</time></trkpt><trkpt lat="37.0226211" lon="10.0460686"><ele>7.0</ele><time>2026-05-03T09:41:31.094Z</time></trkpt><trkpt lat="37.0224533" lon="10.0461559"><ele>7.0</ele><time>2026-05-03T09:41:32.075Z</time></trkpt><trkpt lat="37.0222857" lon="10.0462422"><ele>6.666666666666667</ele><time>2026-05-03T09:41:33.069Z</time></trkpt><trkpt lat="37.0221207" lon="10.0463236"><ele>6.333333333333334</ele><time>2026-05-03T09:41:34.085Z</time></trkpt><trkpt lat="37.021956" lon="10.046405"><ele>6.0</ele><time>2026-05-03T09:41:35.087Z</time></trkpt><trkpt lat="37.0217889" lon="10.046482"><ele>6.333333333333334</ele><time>2026-05-03T09:41:36.089Z</time></trkpt><trkpt lat="37.0216218" lon="10.0465594"><ele>6.666666666666667</ele><time>2026-05-03T09:41:37.097Z</time></trkpt><trkpt lat="37.0214603" lon="10.0466382"><ele>7.0</ele><time>2026-05-03T09:41:38.077Z</time></trkpt><trkpt lat="37.0212965" lon="10.0467167"><ele>7.0</ele><time>2026-05-03T09:41:39.075Z</time></trkpt><trkpt lat="37.0211391" lon="10.0467977"><ele>7.0</ele><time>2026-05-03T09:41:40.087Z</time></trkpt><trkpt lat="37.020984" lon="10.0468792"><ele>7.0</ele><time>2026-05-03T09:41:41.087Z</time></trkpt><trkpt lat="37.0208255" lon="10.0469568"><ele>7.333333333333334</ele><time>2026-05-03T09:41:42.097Z</time></trkpt><trkpt lat="37.0206638" lon="10.0470381"><ele>7.666666666666666</ele><time>2026-05-03T09:41:43.084Z</time></trkpt><trkpt lat="37.0204962" lon="10.0471208"><ele>8.0</ele><time>2026-05-03T09:41:44.089Z</time></trkpt><trkpt lat="37.0203336" lon="10.0472031"><ele>8.0</ele><time>2026-05-03T09:41:45.094Z</time></trkpt><trkpt lat="37.0201674" lon="10.0472909"><ele>8.0</ele><time>2026-05-03T09:41:46.08Z</time></trkpt><trkpt lat="37.0199963" lon="10.0473727"><ele>8.0</ele><time>2026-05-03T09:41:47.09Z</time></trkpt><trkpt lat="37.0198252" lon="10.0474535"><ele>7.666666666666666</ele><time>2026-05-03T09:41:48.078Z</time></trkpt><trkpt lat="37.0196541" lon="10.0475338"><ele>7.333333333333334</ele><time>2026-05-03T09:41:49.075Z</time></trkpt><trkpt lat="37.0194856" lon="10.0476156"><ele>7.0</ele><time>2026-05-03T09:41:50.085Z</time></trkpt><trkpt lat="37.01932" lon="10.0476991"><ele>7.0</ele><time>2026-05-03T09:41:51.079Z</time></trkpt><trkpt lat="37.0191575" lon="10.0477773"><ele>7.0</ele><time>2026-05-03T09:41:52.085Z</time></trkpt><trkpt lat="37.0189964" lon="10.047856"><ele>7.0</ele><time>2026-05-03T09:41:53.091Z</time></trkpt><trkpt lat="37.018832" lon="10.0479365"><ele>6.666666666666667</ele><time>2026-05-03T09:41:54.083Z</time></trkpt><trkpt lat="37.0186709" lon="10.0480123"><ele>6.333333333333334</ele><time>2026-05-03T09:41:55.096Z</time></trkpt><trkpt lat="37.0185104" lon="10.0480884"><ele>6.0</ele><time>2026-05-03T09:41:56.092Z</time></trkpt><trkpt lat="37.018346" lon="10.0481689"><ele>6.333333333333334</ele><time>2026-05-03T09:41:57.073Z</time></trkpt><trkpt lat="37.0181813" lon="10.0482509"><ele>6.666666666666667</ele><time>2026-05-03T09:41:58.102Z</time></trkpt><trkpt lat="37.0180199" lon="10.048327"><ele>7.0</ele><time>2026-05-03T09:41:59.079Z</time></trkpt><trkpt lat="37.0178558" lon="10.0484062"><ele>7.333333333333334</ele><time>2026-05-03T09:42:00.077Z</time></trkpt><trkpt lat="37.017687" lon="10.0484831"><ele>7.666666666666666</ele><time>2026-05-03T09:42:01.073Z</time></trkpt><trkpt lat="37.0175182" lon="10.0485636"><ele>8.0</ele><time>2026-05-03T09:42:02.094Z</time></trkpt><trkpt lat="37.0173506" lon="10.0486408"><ele>7.333333333333333</ele><time>2026-05-03T09:42:03.109Z</time></trkpt><trkpt lat="37.0171861" lon="10.0487194"><ele>6.666666666666666</ele><time>2026-05-03T09:42:04.091Z</time></trkpt><trkpt lat="37.0170202" lon="10.0487983"><ele>6.0</ele><time>2026-05-03T09:42:05.078Z</time></trkpt><trkpt lat="37.0168578" lon="10.0488791"><ele>6.0</ele><time>2026-05-03T09:42:06.076Z</time></trkpt><trkpt lat="37.0166937" lon="10.0489586"><ele>6.0</ele><time>2026-05-03T09:42:07.096Z</time></trkpt><trkpt lat="37.0165264" lon="10.0490387"><ele>6.0</ele><time>2026-05-03T09:42:08.08Z</time></trkpt><trkpt lat="37.0163579" lon="10.0491229"><ele>6.0</ele><time>2026-05-03T09:42:09.091Z</time></trkpt><trkpt lat="37.0161906" lon="10.0492053"><ele>6.0</ele><time>2026-05-03T09:42:10.08Z</time></trkpt><trkpt lat="37.0160242" lon="10.0492878"><ele>6.0</ele><time>2026-05-03T09:42:11.099Z</time></trkpt><trkpt lat="37.0158577" lon="10.0493674"><ele>6.0</ele><time>2026-05-03T09:42:12.1Z</time></trkpt><trkpt lat="37.0156958" lon="10.0494481"><ele>6.0</ele><time>2026-05-03T09:42:13.062Z</time></trkpt><trkpt lat="37.0155312" lon="10.0495293"><ele>6.0</ele><time>2026-05-03T09:42:14.099Z</time></trkpt><trkpt lat="37.0153669" lon="10.0496109"><ele>6.0</ele><time>2026-05-03T09:42:15.087Z</time></trkpt><trkpt lat="37.0152045" lon="10.0496943"><ele>6.0</ele><time>2026-05-03T09:42:16.09Z</time></trkpt><trkpt lat="37.0150373" lon="10.0497751"><ele>6.0</ele><time>2026-05-03T09:42:17.096Z</time></trkpt><trkpt lat="37.0148672" lon="10.0498603"><ele>5.666666666666667</ele><time>2026-05-03T09:42:18.048Z</time></trkpt><trkpt lat="37.0146989" lon="10.0499438"><ele>5.333333333333334</ele><time>2026-05-03T09:42:19.064Z</time></trkpt><trkpt lat="37.0145241" lon="10.0500307"><ele>5.0</ele><time>2026-05-03T09:42:20.087Z</time></trkpt><trkpt lat="37.0143535" lon="10.0501173"><ele>5.333333333333334</ele><time>2026-05-03T09:42:21.08Z</time></trkpt><trkpt lat="37.014179" lon="10.0502034"><ele>5.666666666666667</ele><time>2026-05-03T09:42:22.081Z</time></trkpt><trkpt lat="37.0140042" lon="10.0502912"><ele>6.0</ele><time>2026-05-03T09:42:23.097Z</time></trkpt><trkpt lat="37.0138259" lon="10.0503767"><ele>6.0</ele><time>2026-05-03T09:42:24.065Z</time></trkpt><trkpt lat="37.0136504" lon="10.0504624"><ele>6.0</ele><time>2026-05-03T09:42:25.078Z</time></trkpt><trkpt lat="37.0134747" lon="10.0505476"><ele>6.0</ele><time>2026-05-03T09:42:26.081Z</time></trkpt><trkpt lat="37.0132985" lon="10.0506319"><ele>6.0</ele><time>2026-05-03T09:42:27.078Z</time></trkpt><trkpt lat="37.0131219" lon="10.0507146"><ele>6.0</ele><time>2026-05-03T09:42:28.077Z</time></trkpt><trkpt lat="37.0129408" lon="10.0507859"><ele>6.0</ele><time>2026-05-03T09:42:29.079Z</time></trkpt><trkpt lat="37.0127543" lon="10.0508455"><ele>6.0</ele><time>2026-05-03T09:42:30.076Z</time></trkpt><trkpt lat="37.0125656" lon="10.0509037"><ele>6.0</ele><time>2026-05-03T09:42:31.095Z</time></trkpt><trkpt lat="37.0123778" lon="10.0509599"><ele>6.0</ele><time>2026-05-03T09:42:32.085Z</time></trkpt><trkpt lat="37.0121849" lon="10.0510136"><ele>6.0</ele><time>2026-05-03T09:42:33.054Z</time></trkpt><trkpt lat="37.0119973" lon="10.0510719"><ele>6.0</ele><time>2026-05-03T09:42:34.072Z</time></trkpt><trkpt lat="37.0118094" lon="10.0511328"><ele>6.0</ele><time>2026-05-03T09:42:35.07Z</time></trkpt><trkpt lat="37.0116212" lon="10.0511895"><ele>5.666666666666667</ele><time>2026-05-03T09:42:36.086Z</time></trkpt><trkpt lat="37.0114319" lon="10.0512471"><ele>5.333333333333334</ele><time>2026-05-03T09:42:37.077Z</time></trkpt><trkpt lat="37.0112374" lon="10.0513037"><ele>5.0</ele><time>2026-05-03T09:42:38.089Z</time></trkpt><trkpt lat="37.0110498" lon="10.0513578"><ele>5.0</ele><time>2026-05-03T09:42:39.07Z</time></trkpt><trkpt lat="37.010865" lon="10.0514125"><ele>5.0</ele><time>2026-05-03T09:42:40.086Z</time></trkpt><trkpt lat="37.0106765" lon="10.0514657"><ele>5.0</ele><time>2026-05-03T09:42:41.077Z</time></trkpt><trkpt lat="37.0104882" lon="10.05152"><ele>5.0</ele><time>2026-05-03T09:42:42.085Z</time></trkpt><trkpt lat="37.0102975" lon="10.0515765"><ele>5.0</ele><time>2026-05-03T09:42:43.073Z</time></trkpt><trkpt lat="37.0101117" lon="10.0516373"><ele>5.0</ele><time>2026-05-03T09:42:44.073Z</time></trkpt><trkpt lat="37.009922" lon="10.0516983"><ele>5.333333333333334</ele><time>2026-05-03T09:42:45.087Z</time></trkpt><trkpt lat="37.0097338" lon="10.0517568"><ele>5.666666666666667</ele><time>2026-05-03T09:42:46.075Z</time></trkpt><trkpt lat="37.0095455" lon="10.0518214"><ele>6.0</ele><time>2026-05-03T09:42:47.083Z</time></trkpt><trkpt lat="37.0093597" lon="10.0518934"><ele>6.0</ele><time>2026-05-03T09:42:48.095Z</time></trkpt><trkpt lat="37.009177" lon="10.0519722"><ele>6.0</ele><time>2026-05-03T09:42:49.047Z</time></trkpt><trkpt lat="37.0089989" lon="10.0520587"><ele>6.0</ele><time>2026-05-03T09:42:50.074Z</time></trkpt><trkpt lat="37.0088186" lon="10.052152"><ele>6.333333333333334</ele><time>2026-05-03T09:42:51.089Z</time></trkpt><trkpt lat="37.0086376" lon="10.0522453"><ele>6.666666666666667</ele><time>2026-05-03T09:42:52.084Z</time></trkpt><trkpt lat="37.0084574" lon="10.0523353"><ele>7.0</ele><time>2026-05-03T09:42:53.091Z</time></trkpt><trkpt lat="37.0082781" lon="10.0524272"><ele>7.0</ele><time>2026-05-03T09:42:54.063Z</time></trkpt><trkpt lat="37.0081054" lon="10.0525207"><ele>7.0</ele><time>2026-05-03T09:42:55.076Z</time></trkpt><trkpt lat="37.007935" lon="10.0526045"><ele>7.0</ele><time>2026-05-03T09:42:56.073Z</time></trkpt><trkpt lat="37.0077614" lon="10.0526935"><ele>7.0</ele><time>2026-05-03T09:42:57.083Z</time></trkpt><trkpt lat="37.0075848" lon="10.0527828"><ele>7.0</ele><time>2026-05-03T09:42:58.082Z</time></trkpt><trkpt lat="37.007411" lon="10.052874"><ele>7.0</ele><time>2026-05-03T09:42:59.088Z</time></trkpt><trkpt lat="37.0072359" lon="10.0529642"><ele>7.0</ele><time>2026-05-03T09:43:00.067Z</time></trkpt><trkpt lat="37.007058" lon="10.0530542"><ele>7.0</ele><time>2026-05-03T09:43:01.082Z</time></trkpt><trkpt lat="37.006879" lon="10.0531433"><ele>7.0</ele><time>2026-05-03T09:43:02.093Z</time></trkpt><trkpt lat="37.0067019" lon="10.0532268"><ele>7.333333333333334</ele><time>2026-05-03T09:43:03.082Z</time></trkpt><trkpt lat="37.0065315" lon="10.0533133"><ele>7.666666666666666</ele><time>2026-05-03T09:43:04.09Z</time></trkpt><trkpt lat="37.0063623" lon="10.0533946"><ele>8.0</ele><time>2026-05-03T09:43:05.089Z</time></trkpt><trkpt lat="37.0061897" lon="10.0534838"><ele>8.0</ele><time>2026-05-03T09:43:06.088Z</time></trkpt><trkpt lat="37.0060185" lon="10.0535671"><ele>8.0</ele><time>2026-05-03T09:43:07.105Z</time></trkpt><trkpt lat="37.0058504" lon="10.053651"><ele>8.0</ele><time>2026-05-03T09:43:08.08Z</time></trkpt><trkpt lat="37.0056863" lon="10.0537378"><ele>7.333333333333333</ele><time>2026-05-03T09:43:09.079Z</time></trkpt><trkpt lat="37.0055241" lon="10.0538187"><ele>6.666666666666666</ele><time>2026-05-03T09:43:10.079Z</time></trkpt><trkpt lat="37.0053582" lon="10.0539067"><ele>6.0</ele><time>2026-05-03T09:43:11.086Z</time></trkpt><trkpt lat="37.0051958" lon="10.0539934"><ele>6.0</ele><time>2026-05-03T09:43:12.072Z</time></trkpt><trkpt lat="37.0050313" lon="10.0540763"><ele>6.0</ele><time>2026-05-03T09:43:13.081Z</time></trkpt><trkpt lat="37.0048604" lon="10.0541581"><ele>6.0</ele><time>2026-05-03T09:43:14.08Z</time></trkpt><trkpt lat="37.004692" lon="10.0542419"><ele>6.666666666666666</ele><time>2026-05-03T09:43:15.073Z</time></trkpt><trkpt lat="37.004524" lon="10.0543259"><ele>7.333333333333333</ele><time>2026-05-03T09:43:16.078Z</time></trkpt><trkpt lat="37.0043519" lon="10.0544054"><ele>8.0</ele><time>2026-05-03T09:43:17.095Z</time></trkpt><trkpt lat="37.0041844" lon="10.0544891"><ele>7.666666666666666</ele><time>2026-05-03T09:43:18.09Z</time></trkpt><trkpt lat="37.0040179" lon="10.0545758"><ele>7.333333333333334</ele><time>2026-05-03T09:43:19.088Z</time></trkpt><trkpt lat="37.0038538" lon="10.0546662"><ele>7.0</ele><time>2026-05-03T09:43:20.093Z</time></trkpt><trkpt lat="37.0036999" lon="10.054745"><ele>7.0</ele><time>2026-05-03T09:43:21.092Z</time></trkpt><trkpt lat="37.0035476" lon="10.0548178"><ele>7.0</ele><time>2026-05-03T09:43:22.092Z</time></trkpt><trkpt lat="37.0034087" lon="10.05488"><ele>7.0</ele><time>2026-05-03T09:43:23.082Z</time></trkpt><trkpt lat="37.0032884" lon="10.0549253"><ele>7.0</ele><time>2026-05-03T09:43:24.09Z</time></trkpt><trkpt lat="37.0031845" lon="10.054964"><ele>7.000000000000001</ele><time>2026-05-03T09:43:25.073Z</time></trkpt><trkpt lat="37.0030952" lon="10.0549875"><ele>7.0</ele><time>2026-05-03T09:43:26.072Z</time></trkpt><trkpt lat="37.003019" lon="10.0550043"><ele>7.0</ele><time>2026-05-03T09:43:27.076Z</time></trkpt><trkpt lat="37.0029555" lon="10.0550161"><ele>7.0</ele><time>2026-05-03T09:43:28.088Z</time></trkpt><trkpt lat="37.0028725" lon="10.0549884"><ele>7.000000000000001</ele><time>2026-05-03T09:43:30.085Z</time></trkpt><trkpt lat="37.0028182" lon="10.0549477"><ele>7.0</ele><time>2026-05-03T09:43:33.085Z</time></trkpt><trkpt lat="37.0027503" lon="10.0549186"><ele>7.0</ele><time>2026-05-03T09:46:33.092Z</time></trkpt><trkpt lat="37.0026615" lon="10.0549152"><ele>6.999999999999999</ele><time>2026-05-03T09:46:35.072Z</time></trkpt><trkpt lat="37.0025446" lon="10.054886"><ele>6.999999999999999</ele><time>2026-05-03T09:46:37.09Z</time></trkpt><trkpt lat="37.0024776" lon="10.0548398"><ele>7.0</ele><time>2026-05-03T09:46:38.073Z</time></trkpt><trkpt lat="37.0024028" lon="10.0547662"><ele>7.0</ele><time>2026-05-03T09:46:39.073Z</time></trkpt><trkpt lat="37.0023069" lon="10.0546682"><ele>6.75</ele><time>2026-05-03T09:46:40.059Z</time></trkpt><trkpt lat="37.0021978" lon="10.0545519"><ele>6.5</ele><time>2026-05-03T09:46:41.087Z</time></trkpt><trkpt lat="37.0020912" lon="10.0544254"><ele>6.25</ele><time>2026-05-03T09:46:42.092Z</time></trkpt><trkpt lat="37.0020003" lon="10.0543091"><ele>6.0</ele><time>2026-05-03T09:46:43.052Z</time></trkpt><trkpt lat="37.0019081" lon="10.0542006"><ele>6.0</ele><time>2026-05-03T09:46:44.081Z</time></trkpt><trkpt lat="37.0018147" lon="10.0540863"><ele>6.0</ele><time>2026-05-03T09:46:45.088Z</time></trkpt><trkpt lat="37.0017155" lon="10.0539617"><ele>6.0</ele><time>2026-05-03T09:46:46.089Z</time></trkpt><trkpt lat="37.0016157" lon="10.053843"><ele>6.0</ele><time>2026-05-03T09:46:47.076Z</time></trkpt><trkpt lat="37.0015136" lon="10.053711"><ele>6.333333333333334</ele><time>2026-05-03T09:46:48.048Z</time></trkpt><trkpt lat="37.0014044" lon="10.0535763"><ele>6.666666666666667</ele><time>2026-05-03T09:46:49.074Z</time></trkpt><trkpt lat="37.0012901" lon="10.053439"><ele>7.0</ele><time>2026-05-03T09:46:50.067Z</time></trkpt><trkpt lat="37.0011734" lon="10.0532901"><ele>6.666666666666667</ele><time>2026-05-03T09:46:51.078Z</time></trkpt><trkpt lat="37.0010519" lon="10.0531363"><ele>6.333333333333334</ele><time>2026-05-03T09:46:52.084Z</time></trkpt><trkpt lat="37.0009333" lon="10.0529807"><ele>6.0</ele><time>2026-05-03T09:46:53.079Z</time></trkpt><trkpt lat="37.0008175" lon="10.0528362"><ele>6.0</ele><time>2026-05-03T09:46:54.062Z</time></trkpt><trkpt lat="37.000701" lon="10.0526971"><ele>6.0</ele><time>2026-05-03T09:46:55.068Z</time></trkpt><trkpt lat="37.0005984" lon="10.0525686"><ele>6.0</ele><time>2026-05-03T09:46:56.064Z</time></trkpt><trkpt lat="37.0005057" lon="10.0524497"><ele>6.0</ele><time>2026-05-03T09:46:57.078Z</time></trkpt><trkpt lat="37.0004142" lon="10.0523348"><ele>6.0</ele><time>2026-05-03T09:46:58.081Z</time></trkpt><trkpt lat="37.0003145" lon="10.052212"><ele>6.0</ele><time>2026-05-03T09:46:59.086Z</time></trkpt><trkpt lat="37.0002124" lon="10.052079"><ele>6.0</ele><time>2026-05-03T09:47:00.05Z</time></trkpt><trkpt lat="37.0001032" lon="10.0519423"><ele>6.0</ele><time>2026-05-03T09:47:01.074Z</time></trkpt><trkpt lat="36.9999918" lon="10.0518002"><ele>6.0</ele><time>2026-05-03T09:47:02.061Z</time></trkpt><trkpt lat="36.9998769" lon="10.0516585"><ele>6.0</ele><time>2026-05-03T09:47:03.069Z</time></trkpt><trkpt lat="36.9997623" lon="10.0515194"><ele>6.0</ele><time>2026-05-03T09:47:04.08Z</time></trkpt><trkpt lat="36.9996493" lon="10.0513827"><ele>6.333333333333334</ele><time>2026-05-03T09:47:05.063Z</time></trkpt><trkpt lat="36.9995379" lon="10.0512407"><ele>6.666666666666667</ele><time>2026-05-03T09:47:06.088Z</time></trkpt><trkpt lat="36.9994246" lon="10.0510898"><ele>7.0</ele><time>2026-05-03T09:47:07.093Z</time></trkpt><trkpt lat="36.9993064" lon="10.050944"><ele>7.0</ele><time>2026-05-03T09:47:08.078Z</time></trkpt><trkpt lat="36.9991857" lon="10.0507963"><ele>7.0</ele><time>2026-05-03T09:47:09.061Z</time></trkpt><trkpt lat="36.9990633" lon="10.0506516"><ele>7.0</ele><time>2026-05-03T09:47:10.066Z</time></trkpt><trkpt lat="36.9989451" lon="10.0505026"><ele>7.666666666666667</ele><time>2026-05-03T09:47:11.072Z</time></trkpt><trkpt lat="36.9988264" lon="10.0503571"><ele>8.333333333333334</ele><time>2026-05-03T09:47:12.083Z</time></trkpt><trkpt lat="36.9987066" lon="10.0502088"><ele>9.0</ele><time>2026-05-03T09:47:13.078Z</time></trkpt><trkpt lat="36.9985901" lon="10.0500618"><ele>9.0</ele><time>2026-05-03T09:47:14.073Z</time></trkpt><trkpt lat="36.9984768" lon="10.049909"><ele>9.0</ele><time>2026-05-03T09:47:15.082Z</time></trkpt><trkpt lat="36.9983702" lon="10.0497418"><ele>9.0</ele><time>2026-05-03T09:47:16.061Z</time></trkpt><trkpt lat="36.9982683" lon="10.0495631"><ele>9.0</ele><time>2026-05-03T09:47:17.085Z</time></trkpt><trkpt lat="36.9981733" lon="10.0493738"><ele>9.0</ele><time>2026-05-03T09:47:18.064Z</time></trkpt><trkpt lat="36.9980875" lon="10.0491625"><ele>9.0</ele><time>2026-05-03T09:47:19.088Z</time></trkpt><trkpt lat="36.9980079" lon="10.0489444"><ele>8.333333333333334</ele><time>2026-05-03T09:47:20.066Z</time></trkpt><trkpt lat="36.9979393" lon="10.0487177"><ele>7.666666666666667</ele><time>2026-05-03T09:47:21.089Z</time></trkpt><trkpt lat="36.9978812" lon="10.0484872"><ele>7.0</ele><time>2026-05-03T09:47:22.081Z</time></trkpt><trkpt lat="36.997838" lon="10.0482505"><ele>7.0</ele><time>2026-05-03T09:47:23.096Z</time></trkpt><trkpt lat="36.9977945" lon="10.048013"><ele>7.0</ele><time>2026-05-03T09:47:24.069Z</time></trkpt><trkpt lat="36.9977587" lon="10.0477805"><ele>7.0</ele><time>2026-05-03T09:47:25.075Z</time></trkpt><trkpt lat="36.9977143" lon="10.0475467"><ele>6.666666666666667</ele><time>2026-05-03T09:47:26.082Z</time></trkpt><trkpt lat="36.9976689" lon="10.0473072"><ele>6.333333333333334</ele><time>2026-05-03T09:47:27.079Z</time></trkpt><trkpt lat="36.9976275" lon="10.0470679"><ele>6.0</ele><time>2026-05-03T09:47:28.089Z</time></trkpt><trkpt lat="36.9975862" lon="10.0468326"><ele>6.0</ele><time>2026-05-03T09:47:29.09Z</time></trkpt><trkpt lat="36.997544" lon="10.0465969"><ele>6.0</ele><time>2026-05-03T09:47:30.083Z</time></trkpt><trkpt lat="36.9975055" lon="10.0463655"><ele>6.0</ele><time>2026-05-03T09:47:31.078Z</time></trkpt><trkpt lat="36.9974624" lon="10.0461316"><ele>6.0</ele><time>2026-05-03T09:47:32.08Z</time></trkpt><trkpt lat="36.9974173" lon="10.0458985"><ele>6.0</ele><time>2026-05-03T09:47:33.079Z</time></trkpt><trkpt lat="36.9973773" lon="10.0456595"><ele>6.0</ele><time>2026-05-03T09:47:34.085Z</time></trkpt><trkpt lat="36.9973362" lon="10.0454284"><ele>6.0</ele><time>2026-05-03T09:47:35.098Z</time></trkpt><trkpt lat="36.9972951" lon="10.0451992"><ele>6.0</ele><time>2026-05-03T09:47:36.087Z</time></trkpt><trkpt lat="36.997254" lon="10.0449676"><ele>6.0</ele><time>2026-05-03T09:47:37.074Z</time></trkpt><trkpt lat="36.9972109" lon="10.0447316"><ele>6.333333333333334</ele><time>2026-05-03T09:47:38.072Z</time></trkpt><trkpt lat="36.9971678" lon="10.0445015"><ele>6.666666666666667</ele><time>2026-05-03T09:47:39.079Z</time></trkpt><trkpt lat="36.9971224" lon="10.0442699"><ele>7.0</ele><time>2026-05-03T09:47:40.081Z</time></trkpt><trkpt lat="36.9970828" lon="10.0440344"><ele>7.333333333333334</ele><time>2026-05-03T09:47:41.08Z</time></trkpt><trkpt lat="36.9970452" lon="10.0438018"><ele>7.666666666666666</ele><time>2026-05-03T09:47:42.081Z</time></trkpt><trkpt lat="36.997003" lon="10.0435728"><ele>8.0</ele><time>2026-05-03T09:47:43.094Z</time></trkpt><trkpt lat="36.9969609" lon="10.0433417"><ele>7.666666666666666</ele><time>2026-05-03T09:47:44.067Z</time></trkpt><trkpt lat="36.9969168" lon="10.043108"><ele>7.333333333333334</ele><time>2026-05-03T09:47:45.093Z</time></trkpt><trkpt lat="36.9968747" lon="10.0428733"><ele>7.0</ele><time>2026-05-03T09:47:46.079Z</time></trkpt><trkpt lat="36.996835" lon="10.0426361"><ele>6.666666666666667</ele><time>2026-05-03T09:47:47.076Z</time></trkpt><trkpt lat="36.9967965" lon="10.0424013"><ele>6.333333333333334</ele><time>2026-05-03T09:47:48.079Z</time></trkpt><trkpt lat="36.9967569" lon="10.042162"><ele>6.0</ele><time>2026-05-03T09:47:49.084Z</time></trkpt><trkpt lat="36.9967184" lon="10.0419253"><ele>6.0</ele><time>2026-05-03T09:47:50.088Z</time></trkpt><trkpt lat="36.9966755" lon="10.0416896"><ele>6.0</ele><time>2026-05-03T09:47:51.078Z</time></trkpt><trkpt lat="36.9966315" lon="10.0414495"><ele>6.0</ele><time>2026-05-03T09:47:52.07Z</time></trkpt><trkpt lat="36.9965877" lon="10.0412131"><ele>6.333333333333334</ele><time>2026-05-03T09:47:53.072Z</time></trkpt><trkpt lat="36.9965468" lon="10.0409685"><ele>6.666666666666667</ele><time>2026-05-03T09:47:54.064Z</time></trkpt><trkpt lat="36.9965038" lon="10.0407273"><ele>7.0</ele><time>2026-05-03T09:47:55.068Z</time></trkpt><trkpt lat="36.9964636" lon="10.0404864"><ele>7.0</ele><time>2026-05-03T09:47:56.076Z</time></trkpt><trkpt lat="36.9964231" lon="10.0402465"><ele>7.0</ele><time>2026-05-03T09:47:57.047Z</time></trkpt><trkpt lat="36.9963797" lon="10.0400048"><ele>7.0</ele><time>2026-05-03T09:47:58.049Z</time></trkpt><trkpt lat="36.9963415" lon="10.0397611"><ele>7.0</ele><time>2026-05-03T09:47:59.059Z</time></trkpt><trkpt lat="36.9962984" lon="10.0395141"><ele>7.0</ele><time>2026-05-03T09:48:00.077Z</time></trkpt><trkpt lat="36.9962581" lon="10.0392697"><ele>7.0</ele><time>2026-05-03T09:48:01.078Z</time></trkpt><trkpt lat="36.9962188" lon="10.0390271"><ele>7.0</ele><time>2026-05-03T09:48:02.061Z</time></trkpt><trkpt lat="36.9961775" lon="10.0387857"><ele>7.0</ele><time>2026-05-03T09:48:03.08Z</time></trkpt><trkpt lat="36.996135" lon="10.0385451"><ele>7.0</ele><time>2026-05-03T09:48:04.082Z</time></trkpt><trkpt lat="36.9960938" lon="10.0383058"><ele>7.0</ele><time>2026-05-03T09:48:05.082Z</time></trkpt><trkpt lat="36.9960535" lon="10.0380683"><ele>7.0</ele><time>2026-05-03T09:48:06.089Z</time></trkpt><trkpt lat="36.9960117" lon="10.0378327"><ele>7.0</ele><time>2026-05-03T09:48:07.094Z</time></trkpt><trkpt lat="36.9959681" lon="10.0375981"><ele>7.333333333333334</ele><time>2026-05-03T09:48:08.075Z</time></trkpt><trkpt lat="36.9959281" lon="10.0373614"><ele>7.666666666666666</ele><time>2026-05-03T09:48:09.086Z</time></trkpt><trkpt lat="36.9958875" lon="10.0371238"><ele>8.0</ele><time>2026-05-03T09:48:10.087Z</time></trkpt><trkpt lat="36.9958476" lon="10.0368867"><ele>8.0</ele><time>2026-05-03T09:48:11.076Z</time></trkpt><trkpt lat="36.9958077" lon="10.0366462"><ele>8.0</ele><time>2026-05-03T09:48:12.082Z</time></trkpt><trkpt lat="36.9957664" lon="10.0364105"><ele>8.0</ele><time>2026-05-03T09:48:13.094Z</time></trkpt><trkpt lat="36.9957275" lon="10.0361659"><ele>8.0</ele><time>2026-05-03T09:48:14.083Z</time></trkpt><trkpt lat="36.9956871" lon="10.0359229"><ele>8.0</ele><time>2026-05-03T09:48:15.111Z</time></trkpt><trkpt lat="36.9956439" lon="10.0356772"><ele>8.0</ele><time>2026-05-03T09:48:16.1Z</time></trkpt><trkpt lat="36.9956027" lon="10.035432"><ele>8.0</ele><time>2026-05-03T09:48:17.09Z</time></trkpt><trkpt lat="36.9955615" lon="10.035187"><ele>8.0</ele><time>2026-05-03T09:48:18.085Z</time></trkpt><trkpt lat="36.9955219" lon="10.0349389"><ele>8.0</ele><time>2026-05-03T09:48:19.079Z</time></trkpt><trkpt lat="36.9954795" lon="10.0346886"><ele>7.666666666666666</ele><time>2026-05-03T09:48:20.087Z</time></trkpt><trkpt lat="36.995439" lon="10.0344459"><ele>7.333333333333334</ele><time>2026-05-03T09:48:21.062Z</time></trkpt><trkpt lat="36.9954" lon="10.0342013"><ele>7.0</ele><time>2026-05-03T09:48:22.079Z</time></trkpt><trkpt lat="36.9953582" lon="10.0339591"><ele>7.0</ele><time>2026-05-03T09:48:23.082Z</time></trkpt><trkpt lat="36.9953186" lon="10.0337176"><ele>7.0</ele><time>2026-05-03T09:48:24.096Z</time></trkpt><trkpt lat="36.9952787" lon="10.0334748"><ele>7.0</ele><time>2026-05-03T09:48:25.073Z</time></trkpt><trkpt lat="36.9952396" lon="10.0332366"><ele>7.0</ele><time>2026-05-03T09:48:26.084Z</time></trkpt><trkpt lat="36.9952027" lon="10.0329927"><ele>7.0</ele><time>2026-05-03T09:48:27.075Z</time></trkpt><trkpt lat="36.9951629" lon="10.0327522"><ele>7.0</ele><time>2026-05-03T09:48:28.105Z</time></trkpt><trkpt lat="36.9951205" lon="10.0325136"><ele>7.666666666666667</ele><time>2026-05-03T09:48:29.091Z</time></trkpt><trkpt lat="36.9950799" lon="10.0322794"><ele>8.333333333333334</ele><time>2026-05-03T09:48:30.082Z</time></trkpt><trkpt lat="36.9950426" lon="10.0320438"><ele>9.0</ele><time>2026-05-03T09:48:31.075Z</time></trkpt><trkpt lat="36.9950001" lon="10.0318096"><ele>9.0</ele><time>2026-05-03T09:48:32.074Z</time></trkpt><trkpt lat="36.9949555" lon="10.0315788"><ele>9.0</ele><time>2026-05-03T09:48:33.094Z</time></trkpt><trkpt lat="36.9949146" lon="10.0313466"><ele>9.0</ele><time>2026-05-03T09:48:34.072Z</time></trkpt><trkpt lat="36.9948765" lon="10.0311144"><ele>9.0</ele><time>2026-05-03T09:48:35.081Z</time></trkpt><trkpt lat="36.9948361" lon="10.0308827"><ele>9.0</ele><time>2026-05-03T09:48:36.089Z</time></trkpt><trkpt lat="36.9947952" lon="10.0306555"><ele>9.0</ele><time>2026-05-03T09:48:37.079Z</time></trkpt><trkpt lat="36.9947542" lon="10.0304301"><ele>9.0</ele><time>2026-05-03T09:48:38.086Z</time></trkpt><trkpt lat="36.9947154" lon="10.0302057"><ele>9.0</ele><time>2026-05-03T09:48:39.051Z</time></trkpt><trkpt lat="36.9946757" lon="10.0299853"><ele>9.0</ele><time>2026-05-03T09:48:40.071Z</time></trkpt><trkpt lat="36.9946373" lon="10.0297598"><ele>8.666666666666666</ele><time>2026-05-03T09:48:41.076Z</time></trkpt><trkpt lat="36.9946061" lon="10.0295324"><ele>8.333333333333332</ele><time>2026-05-03T09:48:42.079Z</time></trkpt><trkpt lat="36.9945811" lon="10.029306"><ele>8.0</ele><time>2026-05-03T09:48:43.078Z</time></trkpt><trkpt lat="36.9945731" lon="10.0290822"><ele>8.0</ele><time>2026-05-03T09:48:44.099Z</time></trkpt><trkpt lat="36.9945795" lon="10.0288542"><ele>8.0</ele><time>2026-05-03T09:48:45.071Z</time></trkpt><trkpt lat="36.9945984" lon="10.0286204"><ele>8.0</ele><time>2026-05-03T09:48:46.074Z</time></trkpt><trkpt lat="36.9946172" lon="10.0283874"><ele>7.666666666666666</ele><time>2026-05-03T09:48:47.082Z</time></trkpt><trkpt lat="36.9946343" lon="10.0281522"><ele>7.333333333333334</ele><time>2026-05-03T09:48:48.082Z</time></trkpt><trkpt lat="36.9946342" lon="10.0279186"><ele>7.0</ele><time>2026-05-03T09:48:49.076Z</time></trkpt><trkpt lat="36.9946246" lon="10.0276758"><ele>7.0</ele><time>2026-05-03T09:48:50.092Z</time></trkpt><trkpt lat="36.994603" lon="10.0274404"><ele>7.0</ele><time>2026-05-03T09:48:51.086Z</time></trkpt><trkpt lat="36.9945668" lon="10.0272073"><ele>7.0</ele><time>2026-05-03T09:48:52.073Z</time></trkpt><trkpt lat="36.9945124" lon="10.0269781"><ele>7.0</ele><time>2026-05-03T09:48:53.092Z</time></trkpt><trkpt lat="36.9944499" lon="10.0267553"><ele>7.0</ele><time>2026-05-03T09:48:54.062Z</time></trkpt><trkpt lat="36.9943821" lon="10.0265417"><ele>7.0</ele><time>2026-05-03T09:48:55.09Z</time></trkpt><trkpt lat="36.9943052" lon="10.0263328"><ele>7.0</ele><time>2026-05-03T09:48:56.1Z</time></trkpt><trkpt lat="36.9942216" lon="10.026119"><ele>7.0</ele><time>2026-05-03T09:48:57.076Z</time></trkpt><trkpt lat="36.9941421" lon="10.025901"><ele>7.0</ele><time>2026-05-03T09:48:58.093Z</time></trkpt><trkpt lat="36.9940607" lon="10.0256902"><ele>7.0</ele><time>2026-05-03T09:48:59.072Z</time></trkpt><trkpt lat="36.9939775" lon="10.0254819"><ele>7.0</ele><time>2026-05-03T09:49:00.079Z</time></trkpt><trkpt lat="36.9938999" lon="10.0252734"><ele>7.0</ele><time>2026-05-03T09:49:01.095Z</time></trkpt><trkpt lat="36.993807" lon="10.0250667"><ele>7.0</ele><time>2026-05-03T09:49:02.088Z</time></trkpt><trkpt lat="36.993692" lon="10.0248668"><ele>7.0</ele><time>2026-05-03T09:49:03.099Z</time></trkpt><trkpt lat="36.9935647" lon="10.0246806"><ele>7.0</ele><time>2026-05-03T09:49:04.082Z</time></trkpt><trkpt lat="36.9934299" lon="10.0244957"><ele>7.0</ele><time>2026-05-03T09:49:05.101Z</time></trkpt><trkpt lat="36.9932896" lon="10.0243111"><ele>7.0</ele><time>2026-05-03T09:49:06.082Z</time></trkpt><trkpt lat="36.9931507" lon="10.0241215"><ele>7.0</ele><time>2026-05-03T09:49:07.05Z</time></trkpt><trkpt lat="36.9930092" lon="10.0239242"><ele>7.0</ele><time>2026-05-03T09:49:08.092Z</time></trkpt><trkpt lat="36.992871" lon="10.0237209"><ele>7.0</ele><time>2026-05-03T09:49:09.076Z</time></trkpt><trkpt lat="36.9927313" lon="10.0235193"><ele>7.0</ele><time>2026-05-03T09:49:10.083Z</time></trkpt><trkpt lat="36.992593" lon="10.0233175"><ele>7.0</ele><time>2026-05-03T09:49:11.085Z</time></trkpt><trkpt lat="36.992449" lon="10.0231149"><ele>7.0</ele><time>2026-05-03T09:49:12.09Z</time></trkpt><trkpt lat="36.9923042" lon="10.0229141"><ele>7.0</ele><time>2026-05-03T09:49:13.085Z</time></trkpt><trkpt lat="36.9921605" lon="10.0227178"><ele>7.0</ele><time>2026-05-03T09:49:14.085Z</time></trkpt><trkpt lat="36.9920191" lon="10.0225126"><ele>7.0</ele><time>2026-05-03T09:49:15.084Z</time></trkpt><trkpt lat="36.99188" lon="10.0223088"><ele>7.0</ele><time>2026-05-03T09:49:16.087Z</time></trkpt><trkpt lat="36.9917409" lon="10.0221093"><ele>7.0</ele><time>2026-05-03T09:49:17.09Z</time></trkpt><trkpt lat="36.9916057" lon="10.0219139"><ele>7.0</ele><time>2026-05-03T09:49:18.077Z</time></trkpt><trkpt lat="36.9914744" lon="10.0217233"><ele>7.0</ele><time>2026-05-03T09:49:19.086Z</time></trkpt><trkpt lat="36.9913429" lon="10.0215315"><ele>7.0</ele><time>2026-05-03T09:49:20.091Z</time></trkpt><trkpt lat="36.9912115" lon="10.0213384"><ele>7.0</ele><time>2026-05-03T09:49:21.091Z</time></trkpt><trkpt lat="36.9910807" lon="10.0211483"><ele>7.0</ele><time>2026-05-03T09:49:22.091Z</time></trkpt><trkpt lat="36.9909493" lon="10.0209558"><ele>7.0</ele><time>2026-05-03T09:49:23.088Z</time></trkpt><trkpt lat="36.9908158" lon="10.0207696"><ele>7.0</ele><time>2026-05-03T09:49:24.096Z</time></trkpt><trkpt lat="36.9906828" lon="10.0205833"><ele>7.0</ele><time>2026-05-03T09:49:25.089Z</time></trkpt><trkpt lat="36.9905508" lon="10.0203994"><ele>7.0</ele><time>2026-05-03T09:49:26.078Z</time></trkpt><trkpt lat="36.9904244" lon="10.0202103"><ele>7.0</ele><time>2026-05-03T09:49:27.072Z</time></trkpt><trkpt lat="36.9902972" lon="10.0200194"><ele>7.0</ele><time>2026-05-03T09:49:28.091Z</time></trkpt><trkpt lat="36.9901687" lon="10.0198327"><ele>7.333333333333334</ele><time>2026-05-03T09:49:29.089Z</time></trkpt><trkpt lat="36.990039" lon="10.0196483"><ele>7.666666666666666</ele><time>2026-05-03T09:49:30.069Z</time></trkpt><trkpt lat="36.9899098" lon="10.0194604"><ele>8.0</ele><time>2026-05-03T09:49:31.069Z</time></trkpt><trkpt lat="36.989782" lon="10.0192748"><ele>7.333333333333333</ele><time>2026-05-03T09:49:32.086Z</time></trkpt><trkpt lat="36.9896521" lon="10.019091"><ele>6.666666666666666</ele><time>2026-05-03T09:49:33.083Z</time></trkpt><trkpt lat="36.9895221" lon="10.0189074"><ele>6.0</ele><time>2026-05-03T09:49:34.077Z</time></trkpt><trkpt lat="36.9893928" lon="10.0187278"><ele>6.0</ele><time>2026-05-03T09:49:35.089Z</time></trkpt><trkpt lat="36.9892633" lon="10.0185471"><ele>6.0</ele><time>2026-05-03T09:49:36.085Z</time></trkpt><trkpt lat="36.9891366" lon="10.0183596"><ele>6.0</ele><time>2026-05-03T09:49:37.079Z</time></trkpt><trkpt lat="36.9890087" lon="10.018179"><ele>6.0</ele><time>2026-05-03T09:49:38.092Z</time></trkpt><trkpt lat="36.9888779" lon="10.0179973"><ele>6.0</ele><time>2026-05-03T09:49:39.1Z</time></trkpt><trkpt lat="36.9887464" lon="10.0178088"><ele>6.0</ele><time>2026-05-03T09:49:40.084Z</time></trkpt><trkpt lat="36.98862" lon="10.0176219"><ele>6.333333333333334</ele><time>2026-05-03T09:49:41.115Z</time></trkpt><trkpt lat="36.9884945" lon="10.0174383"><ele>6.666666666666667</ele><time>2026-05-03T09:49:42.073Z</time></trkpt><trkpt lat="36.988373" lon="10.0172515"><ele>7.0</ele><time>2026-05-03T09:49:43.081Z</time></trkpt><trkpt lat="36.9882656" lon="10.0170572"><ele>7.0</ele><time>2026-05-03T09:49:44.079Z</time></trkpt><trkpt lat="36.9881716" lon="10.0168529"><ele>7.0</ele><time>2026-05-03T09:49:45.084Z</time></trkpt><trkpt lat="36.9881081" lon="10.0166196"><ele>7.0</ele><time>2026-05-03T09:49:46.08Z</time></trkpt><trkpt lat="36.9880625" lon="10.0163822"><ele>6.666666666666667</ele><time>2026-05-03T09:49:47.078Z</time></trkpt><trkpt lat="36.9880337" lon="10.0161274"><ele>6.333333333333334</ele><time>2026-05-03T09:49:48.08Z</time></trkpt><trkpt lat="36.9879957" lon="10.015875"><ele>6.0</ele><time>2026-05-03T09:49:49.092Z</time></trkpt><trkpt lat="36.9879525" lon="10.015628"><ele>6.0</ele><time>2026-05-03T09:49:50.088Z</time></trkpt><trkpt lat="36.9879158" lon="10.0153825"><ele>6.0</ele><time>2026-05-03T09:49:51.088Z</time></trkpt><trkpt lat="36.9878743" lon="10.0151353"><ele>6.0</ele><time>2026-05-03T09:49:52.088Z</time></trkpt><trkpt lat="36.9878342" lon="10.0148956"><ele>5.666666666666667</ele><time>2026-05-03T09:49:53.088Z</time></trkpt><trkpt lat="36.9877942" lon="10.0146515"><ele>5.333333333333334</ele><time>2026-05-03T09:49:54.089Z</time></trkpt><trkpt lat="36.9877577" lon="10.0144097"><ele>5.0</ele><time>2026-05-03T09:49:55.086Z</time></trkpt><trkpt lat="36.9877181" lon="10.0141673"><ele>5.666666666666667</ele><time>2026-05-03T09:49:56.101Z</time></trkpt><trkpt lat="36.9876792" lon="10.0139257"><ele>6.333333333333334</ele><time>2026-05-03T09:49:57.078Z</time></trkpt><trkpt lat="36.9876399" lon="10.0136844"><ele>7.0</ele><time>2026-05-03T09:49:58.085Z</time></trkpt><trkpt lat="36.9876018" lon="10.0134451"><ele>6.666666666666667</ele><time>2026-05-03T09:49:59.081Z</time></trkpt><trkpt lat="36.9875639" lon="10.0132053"><ele>6.333333333333334</ele><time>2026-05-03T09:50:00.08Z</time></trkpt><trkpt lat="36.9875255" lon="10.0129578"><ele>6.0</ele><time>2026-05-03T09:50:01.082Z</time></trkpt><trkpt lat="36.9874837" lon="10.0127135"><ele>6.333333333333334</ele><time>2026-05-03T09:50:02.099Z</time></trkpt><trkpt lat="36.9874441" lon="10.012468"><ele>6.666666666666667</ele><time>2026-05-03T09:50:03.087Z</time></trkpt><trkpt lat="36.9874056" lon="10.0122226"><ele>7.0</ele><time>2026-05-03T09:50:04.095Z</time></trkpt><trkpt lat="36.9873676" lon="10.0119844"><ele>7.0</ele><time>2026-05-03T09:50:05.084Z</time></trkpt><trkpt lat="36.9873307" lon="10.0117436"><ele>7.0</ele><time>2026-05-03T09:50:06.099Z</time></trkpt><trkpt lat="36.9872934" lon="10.0115042"><ele>7.0</ele><time>2026-05-03T09:50:07.049Z</time></trkpt><trkpt lat="36.9872565" lon="10.011265"><ele>6.333333333333334</ele><time>2026-05-03T09:50:08.058Z</time></trkpt><trkpt lat="36.9872203" lon="10.0110271"><ele>5.666666666666667</ele><time>2026-05-03T09:50:09.064Z</time></trkpt><trkpt lat="36.9871827" lon="10.0107857"><ele>5.0</ele><time>2026-05-03T09:50:10.094Z</time></trkpt><trkpt lat="36.9871473" lon="10.0105468"><ele>5.0</ele><time>2026-05-03T09:50:11.086Z</time></trkpt><trkpt lat="36.9871112" lon="10.0103058"><ele>5.0</ele><time>2026-05-03T09:50:12.072Z</time></trkpt><trkpt lat="36.9870768" lon="10.0100646"><ele>5.0</ele><time>2026-05-03T09:50:13.091Z</time></trkpt><trkpt lat="36.9870484" lon="10.0098194"><ele>5.333333333333334</ele><time>2026-05-03T09:50:14.085Z</time></trkpt><trkpt lat="36.9870115" lon="10.0095786"><ele>5.666666666666667</ele><time>2026-05-03T09:50:15.088Z</time></trkpt><trkpt lat="36.9869747" lon="10.0093388"><ele>6.0</ele><time>2026-05-03T09:50:16.077Z</time></trkpt><trkpt lat="36.9869372" lon="10.009105"><ele>6.0</ele><time>2026-05-03T09:50:17.085Z</time></trkpt><trkpt lat="36.9869029" lon="10.0088698"><ele>6.0</ele><time>2026-05-03T09:50:18.084Z</time></trkpt><trkpt lat="36.9868687" lon="10.0086323"><ele>6.0</ele><time>2026-05-03T09:50:19.078Z</time></trkpt><trkpt lat="36.9868323" lon="10.0083923"><ele>6.0</ele><time>2026-05-03T09:50:20.089Z</time></trkpt><trkpt lat="36.986794" lon="10.0081573"><ele>6.0</ele><time>2026-05-03T09:50:21.081Z</time></trkpt><trkpt lat="36.9867525" lon="10.0079163"><ele>6.0</ele><time>2026-05-03T09:50:22.088Z</time></trkpt><trkpt lat="36.986714" lon="10.0076745"><ele>6.666666666666666</ele><time>2026-05-03T09:50:23.086Z</time></trkpt><trkpt lat="36.9866779" lon="10.0074391"><ele>7.333333333333333</ele><time>2026-05-03T09:50:24.102Z</time></trkpt><trkpt lat="36.986645" lon="10.0072028"><ele>8.0</ele><time>2026-05-03T09:50:25.092Z</time></trkpt><trkpt lat="36.986606" lon="10.0069573"><ele>8.0</ele><time>2026-05-03T09:50:26.094Z</time></trkpt><trkpt lat="36.9865697" lon="10.0067194"><ele>8.0</ele><time>2026-05-03T09:50:27.085Z</time></trkpt><trkpt lat="36.986532" lon="10.0064744"><ele>8.0</ele><time>2026-05-03T09:50:28.079Z</time></trkpt><trkpt lat="36.9864957" lon="10.0062251"><ele>7.666666666666666</ele><time>2026-05-03T09:50:29.083Z</time></trkpt><trkpt lat="36.9864601" lon="10.0059827"><ele>7.333333333333334</ele><time>2026-05-03T09:50:30.041Z</time></trkpt><trkpt lat="36.9864253" lon="10.0057398"><ele>7.0</ele><time>2026-05-03T09:50:31.046Z</time></trkpt><trkpt lat="36.9863851" lon="10.0055011"><ele>7.0</ele><time>2026-05-03T09:50:32.055Z</time></trkpt><trkpt lat="36.9863474" lon="10.0052554"><ele>7.0</ele><time>2026-05-03T09:50:33.066Z</time></trkpt><trkpt lat="36.9863117" lon="10.0050159"><ele>7.0</ele><time>2026-05-03T09:50:34.066Z</time></trkpt><trkpt lat="36.9862691" lon="10.0047782"><ele>7.0</ele><time>2026-05-03T09:50:35.046Z</time></trkpt><trkpt lat="36.9862319" lon="10.0045345"><ele>7.0</ele><time>2026-05-03T09:50:36.076Z</time></trkpt><trkpt lat="36.9861957" lon="10.0042943"><ele>7.0</ele><time>2026-05-03T09:50:37.074Z</time></trkpt><trkpt lat="36.9861553" lon="10.0040575"><ele>7.0</ele><time>2026-05-03T09:50:38.081Z</time></trkpt><trkpt lat="36.9861172" lon="10.0038231"><ele>7.0</ele><time>2026-05-03T09:50:39.077Z</time></trkpt><trkpt lat="36.9860778" lon="10.0035855"><ele>7.0</ele><time>2026-05-03T09:50:40.057Z</time></trkpt><trkpt lat="36.9860416" lon="10.0033461"><ele>6.666666666666667</ele><time>2026-05-03T09:50:41.08Z</time></trkpt><trkpt lat="36.9860022" lon="10.0031003"><ele>6.333333333333334</ele><time>2026-05-03T09:50:42.079Z</time></trkpt><trkpt lat="36.9859638" lon="10.0028591"><ele>6.0</ele><time>2026-05-03T09:50:43.095Z</time></trkpt><trkpt lat="36.9859258" lon="10.0026134"><ele>5.666666666666667</ele><time>2026-05-03T09:50:44.061Z</time></trkpt><trkpt lat="36.9858888" lon="10.002361"><ele>5.333333333333334</ele><time>2026-05-03T09:50:45.083Z</time></trkpt><trkpt lat="36.9858497" lon="10.0021197"><ele>5.0</ele><time>2026-05-03T09:50:46.067Z</time></trkpt><trkpt lat="36.985811" lon="10.0018746"><ele>5.0</ele><time>2026-05-03T09:50:47.082Z</time></trkpt><trkpt lat="36.9857732" lon="10.001634"><ele>5.0</ele><time>2026-05-03T09:50:48.058Z</time></trkpt><trkpt lat="36.9857351" lon="10.001393"><ele>5.0</ele><time>2026-05-03T09:50:49.085Z</time></trkpt><trkpt lat="36.9856956" lon="10.0011538"><ele>5.0</ele><time>2026-05-03T09:50:50.077Z</time></trkpt><trkpt lat="36.985655" lon="10.0009084"><ele>5.0</ele><time>2026-05-03T09:50:51.076Z</time></trkpt><trkpt lat="36.9856182" lon="10.0006682"><ele>5.0</ele><time>2026-05-03T09:50:52.088Z</time></trkpt><trkpt lat="36.9855807" lon="10.0004233"><ele>4.666666666666667</ele><time>2026-05-03T09:50:53.079Z</time></trkpt><trkpt lat="36.9855424" lon="10.0001821"><ele>4.333333333333333</ele><time>2026-05-03T09:50:54.093Z</time></trkpt><trkpt lat="36.9855075" lon="9.9999417"><ele>4.0</ele><time>2026-05-03T09:50:55.073Z</time></trkpt><trkpt lat="36.9854702" lon="9.9997107"><ele>4.0</ele><time>2026-05-03T09:50:56.093Z</time></trkpt><trkpt lat="36.9854347" lon="9.9994784"><ele>4.0</ele><time>2026-05-03T09:50:57.089Z</time></trkpt><trkpt lat="36.9854009" lon="9.9992515"><ele>4.0</ele><time>2026-05-03T09:50:58.084Z</time></trkpt><trkpt lat="36.985367" lon="9.9990215"><ele>4.666666666666666</ele><time>2026-05-03T09:50:59.084Z</time></trkpt><trkpt lat="36.9853301" lon="9.9987931"><ele>5.333333333333333</ele><time>2026-05-03T09:51:00.066Z</time></trkpt><trkpt lat="36.985291" lon="9.9985649"><ele>6.0</ele><time>2026-05-03T09:51:01.083Z</time></trkpt><trkpt lat="36.9852566" lon="9.9983313"><ele>6.333333333333334</ele><time>2026-05-03T09:51:02.083Z</time></trkpt><trkpt lat="36.9852214" lon="9.9980941"><ele>6.666666666666667</ele><time>2026-05-03T09:51:03.083Z</time></trkpt><trkpt lat="36.9851872" lon="9.9978577"><ele>7.0</ele><time>2026-05-03T09:51:04.082Z</time></trkpt><trkpt lat="36.9851525" lon="9.9976153"><ele>7.0</ele><time>2026-05-03T09:51:05.076Z</time></trkpt><trkpt lat="36.9851138" lon="9.9973729"><ele>7.0</ele><time>2026-05-03T09:51:06.085Z</time></trkpt><trkpt lat="36.9850764" lon="9.9971412"><ele>7.0</ele><time>2026-05-03T09:51:07.099Z</time></trkpt><trkpt lat="36.9850401" lon="9.9969047"><ele>7.333333333333334</ele><time>2026-05-03T09:51:08.075Z</time></trkpt><trkpt lat="36.9849979" lon="9.9966654"><ele>7.666666666666666</ele><time>2026-05-03T09:51:09.073Z</time></trkpt><trkpt lat="36.9849579" lon="9.9964348"><ele>8.0</ele><time>2026-05-03T09:51:10.083Z</time></trkpt><trkpt lat="36.9849198" lon="9.9962125"><ele>8.0</ele><time>2026-05-03T09:51:11.086Z</time></trkpt><trkpt lat="36.9848874" lon="9.9959836"><ele>8.0</ele><time>2026-05-03T09:51:12.087Z</time></trkpt><trkpt lat="36.9848491" lon="9.9957501"><ele>8.0</ele><time>2026-05-03T09:51:13.08Z</time></trkpt><trkpt lat="36.9848122" lon="9.995522"><ele>7.333333333333333</ele><time>2026-05-03T09:51:14.096Z</time></trkpt><trkpt lat="36.9847767" lon="9.9952972"><ele>6.666666666666666</ele><time>2026-05-03T09:51:15.067Z</time></trkpt><trkpt lat="36.9847391" lon="9.9950659"><ele>6.0</ele><time>2026-05-03T09:51:16.08Z</time></trkpt><trkpt lat="36.9847019" lon="9.9948351"><ele>6.0</ele><time>2026-05-03T09:51:17.075Z</time></trkpt><trkpt lat="36.9846647" lon="9.9946042"><ele>6.0</ele><time>2026-05-03T09:51:18.08Z</time></trkpt><trkpt lat="36.9846258" lon="9.9943704"><ele>6.0</ele><time>2026-05-03T09:51:19.062Z</time></trkpt><trkpt lat="36.984593" lon="9.9941379"><ele>6.0</ele><time>2026-05-03T09:51:20.09Z</time></trkpt><trkpt lat="36.9845559" lon="9.993901"><ele>6.0</ele><time>2026-05-03T09:51:21.074Z</time></trkpt><trkpt lat="36.9845212" lon="9.9936638"><ele>6.0</ele><time>2026-05-03T09:51:22.089Z</time></trkpt><trkpt lat="36.984487" lon="9.9934255"><ele>6.0</ele><time>2026-05-03T09:51:23.093Z</time></trkpt><trkpt lat="36.9844492" lon="9.9931825"><ele>6.0</ele><time>2026-05-03T09:51:24.09Z</time></trkpt><trkpt lat="36.9844051" lon="9.9929325"><ele>6.0</ele><time>2026-05-03T09:51:25.087Z</time></trkpt><trkpt lat="36.984359" lon="9.992669"><ele>6.0</ele><time>2026-05-03T09:51:26.087Z</time></trkpt><trkpt lat="36.984316" lon="9.9923986"><ele>6.0</ele><time>2026-05-03T09:51:27.075Z</time></trkpt><trkpt lat="36.9842754" lon="9.9921177"><ele>6.0</ele><time>2026-05-03T09:51:28.077Z</time></trkpt><trkpt lat="36.9842338" lon="9.9918399"><ele>6.0</ele><time>2026-05-03T09:51:29.063Z</time></trkpt><trkpt lat="36.9841913" lon="9.9915613"><ele>6.0</ele><time>2026-05-03T09:51:30.081Z</time></trkpt><trkpt lat="36.9841474" lon="9.9912814"><ele>6.0</ele><time>2026-05-03T09:51:31.051Z</time></trkpt><trkpt lat="36.9841038" lon="9.9910074"><ele>6.0</ele><time>2026-05-03T09:51:32.081Z</time></trkpt><trkpt lat="36.9840594" lon="9.9907314"><ele>6.0</ele><time>2026-05-03T09:51:33.095Z</time></trkpt><trkpt lat="36.9840166" lon="9.9904579"><ele>5.666666666666667</ele><time>2026-05-03T09:51:34.053Z</time></trkpt><trkpt lat="36.9839752" lon="9.9901818"><ele>5.333333333333334</ele><time>2026-05-03T09:51:35.054Z</time></trkpt><trkpt lat="36.9839339" lon="9.9899088"><ele>5.0</ele><time>2026-05-03T09:51:36.064Z</time></trkpt><trkpt lat="36.9838971" lon="9.9896436"><ele>5.0</ele><time>2026-05-03T09:51:37.078Z</time></trkpt><trkpt lat="36.9838586" lon="9.9893785"><ele>5.0</ele><time>2026-05-03T09:51:38.085Z</time></trkpt><trkpt lat="36.9838188" lon="9.989117"><ele>5.0</ele><time>2026-05-03T09:51:39.07Z</time></trkpt><trkpt lat="36.9837778" lon="9.9888507"><ele>5.666666666666667</ele><time>2026-05-03T09:51:40.067Z</time></trkpt><trkpt lat="36.9837334" lon="9.988591"><ele>6.333333333333334</ele><time>2026-05-03T09:51:41.085Z</time></trkpt><trkpt lat="36.9836903" lon="9.9883311"><ele>7.0</ele><time>2026-05-03T09:51:42.08Z</time></trkpt><trkpt lat="36.9836492" lon="9.988073"><ele>7.0</ele><time>2026-05-03T09:51:43.073Z</time></trkpt><trkpt lat="36.9836097" lon="9.9878099"><ele>7.0</ele><time>2026-05-03T09:51:44.073Z</time></trkpt><trkpt lat="36.9835683" lon="9.9875479"><ele>7.0</ele><time>2026-05-03T09:51:45.09Z</time></trkpt><trkpt lat="36.9835284" lon="9.9872875"><ele>7.0</ele><time>2026-05-03T09:51:46.091Z</time></trkpt><trkpt lat="36.9834865" lon="9.9870201"><ele>7.0</ele><time>2026-05-03T09:51:47.078Z</time></trkpt><trkpt lat="36.9834429" lon="9.9867489"><ele>7.0</ele><time>2026-05-03T09:51:48.087Z</time></trkpt><trkpt lat="36.9834001" lon="9.9864823"><ele>7.0</ele><time>2026-05-03T09:51:49.096Z</time></trkpt><trkpt lat="36.9833577" lon="9.9862149"><ele>7.0</ele><time>2026-05-03T09:51:50.084Z</time></trkpt><trkpt lat="36.9833143" lon="9.9859434"><ele>7.0</ele><time>2026-05-03T09:51:51.084Z</time></trkpt><trkpt lat="36.9832713" lon="9.9856663"><ele>6.666666666666667</ele><time>2026-05-03T09:51:52.089Z</time></trkpt><trkpt lat="36.9832254" lon="9.9853937"><ele>6.333333333333334</ele><time>2026-05-03T09:51:53.084Z</time></trkpt><trkpt lat="36.9831811" lon="9.9851165"><ele>6.0</ele><time>2026-05-03T09:51:54.086Z</time></trkpt><trkpt lat="36.9831358" lon="9.984844"><ele>6.0</ele><time>2026-05-03T09:51:55.089Z</time></trkpt><trkpt lat="36.9830943" lon="9.9845714"><ele>6.0</ele><time>2026-05-03T09:51:56.097Z</time></trkpt><trkpt lat="36.9830506" lon="9.9843013"><ele>6.0</ele><time>2026-05-03T09:51:57.082Z</time></trkpt><trkpt lat="36.9830088" lon="9.984032"><ele>6.0</ele><time>2026-05-03T09:51:58.086Z</time></trkpt><trkpt lat="36.9829677" lon="9.9837563"><ele>6.0</ele><time>2026-05-03T09:51:59.088Z</time></trkpt><trkpt lat="36.9829261" lon="9.9834854"><ele>6.0</ele><time>2026-05-03T09:52:00.079Z</time></trkpt><trkpt lat="36.9828806" lon="9.9832147"><ele>6.0</ele><time>2026-05-03T09:52:01.087Z</time></trkpt><trkpt lat="36.9828297" lon="9.9829453"><ele>6.0</ele><time>2026-05-03T09:52:02.08Z</time></trkpt><trkpt lat="36.9827855" lon="9.9826686"><ele>6.0</ele><time>2026-05-03T09:52:03.092Z</time></trkpt><trkpt lat="36.9827429" lon="9.9823948"><ele>6.0</ele><time>2026-05-03T09:52:04.08Z</time></trkpt><trkpt lat="36.9827002" lon="9.9821276"><ele>6.0</ele><time>2026-05-03T09:52:05.082Z</time></trkpt><trkpt lat="36.9826609" lon="9.9818534"><ele>6.0</ele><time>2026-05-03T09:52:06.09Z</time></trkpt><trkpt lat="36.9826211" lon="9.9815787"><ele>5.666666666666667</ele><time>2026-05-03T09:52:07.076Z</time></trkpt><trkpt lat="36.9825811" lon="9.9813046"><ele>5.333333333333334</ele><time>2026-05-03T09:52:08.092Z</time></trkpt><trkpt lat="36.9825391" lon="9.9810311"><ele>5.0</ele><time>2026-05-03T09:52:09.098Z</time></trkpt><trkpt lat="36.9824938" lon="9.9807596"><ele>5.0</ele><time>2026-05-03T09:52:10.087Z</time></trkpt><trkpt lat="36.9824508" lon="9.980489"><ele>5.0</ele><time>2026-05-03T09:52:11.083Z</time></trkpt><trkpt lat="36.9824097" lon="9.9802179"><ele>5.0</ele><time>2026-05-03T09:52:12.086Z</time></trkpt><trkpt lat="36.9823652" lon="9.9799491"><ele>5.333333333333334</ele><time>2026-05-03T09:52:13.089Z</time></trkpt><trkpt lat="36.9823252" lon="9.9796782"><ele>5.666666666666667</ele><time>2026-05-03T09:52:14.09Z</time></trkpt><trkpt lat="36.9822852" lon="9.9794126"><ele>6.0</ele><time>2026-05-03T09:52:15.086Z</time></trkpt><trkpt lat="36.9822429" lon="9.9791499"><ele>6.0</ele><time>2026-05-03T09:52:16.092Z</time></trkpt><trkpt lat="36.9821992" lon="9.9788824"><ele>6.0</ele><time>2026-05-03T09:52:17.08Z</time></trkpt><trkpt lat="36.9821608" lon="9.9786234"><ele>6.0</ele><time>2026-05-03T09:52:18.085Z</time></trkpt><trkpt lat="36.9821203" lon="9.9783562"><ele>6.0</ele><time>2026-05-03T09:52:19.086Z</time></trkpt><trkpt lat="36.982076" lon="9.9780916"><ele>6.0</ele><time>2026-05-03T09:52:20.085Z</time></trkpt><trkpt lat="36.9820289" lon="9.977828"><ele>6.0</ele><time>2026-05-03T09:52:21.085Z</time></trkpt><trkpt lat="36.9819835" lon="9.9775639"><ele>6.333333333333334</ele><time>2026-05-03T09:52:22.089Z</time></trkpt><trkpt lat="36.9819428" lon="9.9773005"><ele>6.666666666666667</ele><time>2026-05-03T09:52:23.087Z</time></trkpt><trkpt lat="36.981902" lon="9.9770258"><ele>7.0</ele><time>2026-05-03T09:52:24.085Z</time></trkpt><trkpt lat="36.9818626" lon="9.9767485"><ele>7.0</ele><time>2026-05-03T09:52:25.086Z</time></trkpt><trkpt lat="36.9818234" lon="9.9764691"><ele>7.0</ele><time>2026-05-03T09:52:26.079Z</time></trkpt><trkpt lat="36.9817834" lon="9.9761918"><ele>7.0</ele><time>2026-05-03T09:52:27.077Z</time></trkpt><trkpt lat="36.9817395" lon="9.9759231"><ele>7.0</ele><time>2026-05-03T09:52:28.086Z</time></trkpt><trkpt lat="36.9817005" lon="9.9756463"><ele>7.0</ele><time>2026-05-03T09:52:29.076Z</time></trkpt><trkpt lat="36.9816596" lon="9.9753772"><ele>6.666666666666667</ele><time>2026-05-03T09:52:30.089Z</time></trkpt><trkpt lat="36.9816146" lon="9.9751088"><ele>6.333333333333334</ele><time>2026-05-03T09:52:31.09Z</time></trkpt><trkpt lat="36.9815712" lon="9.974841"><ele>6.0</ele><time>2026-05-03T09:52:32.087Z</time></trkpt><trkpt lat="36.9815296" lon="9.9745707"><ele>6.0</ele><time>2026-05-03T09:52:33.074Z</time></trkpt><trkpt lat="36.9814871" lon="9.9743072"><ele>6.0</ele><time>2026-05-03T09:52:34.084Z</time></trkpt><trkpt lat="36.9814445" lon="9.9740426"><ele>6.0</ele><time>2026-05-03T09:52:35.073Z</time></trkpt><trkpt lat="36.9814034" lon="9.9737752"><ele>6.0</ele><time>2026-05-03T09:52:36.097Z</time></trkpt><trkpt lat="36.9813621" lon="9.9735105"><ele>6.0</ele><time>2026-05-03T09:52:37.053Z</time></trkpt><trkpt lat="36.9813191" lon="9.9732461"><ele>6.0</ele><time>2026-05-03T09:52:38.093Z</time></trkpt><trkpt lat="36.9812736" lon="9.972983"><ele>6.0</ele><time>2026-05-03T09:52:39.084Z</time></trkpt><trkpt lat="36.9812272" lon="9.9727197"><ele>6.0</ele><time>2026-05-03T09:52:40.09Z</time></trkpt><trkpt lat="36.9811885" lon="9.9724522"><ele>6.0</ele><time>2026-05-03T09:52:41.09Z</time></trkpt><trkpt lat="36.9811423" lon="9.9721902"><ele>6.0</ele><time>2026-05-03T09:52:42.071Z</time></trkpt><trkpt lat="36.9810865" lon="9.9719259"><ele>6.0</ele><time>2026-05-03T09:52:43.081Z</time></trkpt><trkpt lat="36.9810264" lon="9.9716697"><ele>6.0</ele><time>2026-05-03T09:52:44.087Z</time></trkpt><trkpt lat="36.9809608" lon="9.9714158"><ele>6.0</ele><time>2026-05-03T09:52:45.085Z</time></trkpt><trkpt lat="36.9808907" lon="9.9711611"><ele>6.0</ele><time>2026-05-03T09:52:46.083Z</time></trkpt><trkpt lat="36.9808196" lon="9.9709135"><ele>6.0</ele><time>2026-05-03T09:52:47.096Z</time></trkpt><trkpt lat="36.9807393" lon="9.9706612"><ele>6.0</ele><time>2026-05-03T09:52:48.082Z</time></trkpt><trkpt lat="36.9806547" lon="9.9704114"><ele>6.0</ele><time>2026-05-03T09:52:49.087Z</time></trkpt><trkpt lat="36.9805631" lon="9.9701574"><ele>6.0</ele><time>2026-05-03T09:52:50.083Z</time></trkpt><trkpt lat="36.9804633" lon="9.9699111"><ele>6.5</ele><time>2026-05-03T09:52:51.081Z</time></trkpt><trkpt lat="36.9803577" lon="9.9696642"><ele>7.0</ele><time>2026-05-03T09:52:52.091Z</time></trkpt><trkpt lat="36.9802415" lon="9.9694126"><ele>6.5</ele><time>2026-05-03T09:52:53.083Z</time></trkpt><trkpt lat="36.9801223" lon="9.9691682"><ele>6.0</ele><time>2026-05-03T09:52:54.089Z</time></trkpt><trkpt lat="36.9800052" lon="9.9689259"><ele>6.666666666666666</ele><time>2026-05-03T09:52:55.091Z</time></trkpt><trkpt lat="36.9798843" lon="9.9686842"><ele>7.333333333333333</ele><time>2026-05-03T09:52:56.093Z</time></trkpt><trkpt lat="36.9797699" lon="9.9684477"><ele>8.0</ele><time>2026-05-03T09:52:57.07Z</time></trkpt><trkpt lat="36.9796581" lon="9.9682203"><ele>8.0</ele><time>2026-05-03T09:52:58.093Z</time></trkpt><trkpt lat="36.9795506" lon="9.9679944"><ele>8.0</ele><time>2026-05-03T09:52:59.086Z</time></trkpt><trkpt lat="36.9794396" lon="9.9677737"><ele>8.0</ele><time>2026-05-03T09:53:00.072Z</time></trkpt><trkpt lat="36.9793348" lon="9.9675537"><ele>7.666666666666666</ele><time>2026-05-03T09:53:01.077Z</time></trkpt><trkpt lat="36.9792244" lon="9.9673388"><ele>7.333333333333334</ele><time>2026-05-03T09:53:02.091Z</time></trkpt><trkpt lat="36.9791194" lon="9.9671278"><ele>7.0</ele><time>2026-05-03T09:53:03.088Z</time></trkpt><trkpt lat="36.9790158" lon="9.9669082"><ele>6.666666666666667</ele><time>2026-05-03T09:53:04.088Z</time></trkpt><trkpt lat="36.9789086" lon="9.9666834"><ele>6.333333333333334</ele><time>2026-05-03T09:53:05.086Z</time></trkpt><trkpt lat="36.9787957" lon="9.9664534"><ele>6.0</ele><time>2026-05-03T09:53:06.094Z</time></trkpt><trkpt lat="36.9786837" lon="9.9662258"><ele>6.0</ele><time>2026-05-03T09:53:07.089Z</time></trkpt><trkpt lat="36.9785731" lon="9.9660044"><ele>6.0</ele><time>2026-05-03T09:53:08.101Z</time></trkpt><trkpt lat="36.9784642" lon="9.9657796"><ele>6.0</ele><time>2026-05-03T09:53:09.086Z</time></trkpt><trkpt lat="36.9783505" lon="9.9655569"><ele>6.0</ele><time>2026-05-03T09:53:10.074Z</time></trkpt><trkpt lat="36.9782413" lon="9.9653337"><ele>6.0</ele><time>2026-05-03T09:53:11.092Z</time></trkpt><trkpt lat="36.9781341" lon="9.9651086"><ele>6.0</ele><time>2026-05-03T09:53:12.084Z</time></trkpt><trkpt lat="36.978025" lon="9.9648879"><ele>6.0</ele><time>2026-05-03T09:53:13.087Z</time></trkpt><trkpt lat="36.9779182" lon="9.9646592"><ele>6.0</ele><time>2026-05-03T09:53:14.088Z</time></trkpt><trkpt lat="36.9778132" lon="9.9644393"><ele>6.0</ele><time>2026-05-03T09:53:15.086Z</time></trkpt><trkpt lat="36.9777086" lon="9.9642192"><ele>6.333333333333334</ele><time>2026-05-03T09:53:16.075Z</time></trkpt><trkpt lat="36.9776042" lon="9.9640025"><ele>6.666666666666667</ele><time>2026-05-03T09:53:17.095Z</time></trkpt><trkpt lat="36.9775016" lon="9.9637917"><ele>7.0</ele><time>2026-05-03T09:53:18.089Z</time></trkpt><trkpt lat="36.9773998" lon="9.9635763"><ele>7.0</ele><time>2026-05-03T09:53:19.076Z</time></trkpt><trkpt lat="36.9772997" lon="9.963365"><ele>7.0</ele><time>2026-05-03T09:53:20.079Z</time></trkpt><trkpt lat="36.9771957" lon="9.9631508"><ele>7.0</ele><time>2026-05-03T09:53:21.078Z</time></trkpt><trkpt lat="36.9770921" lon="9.9629411"><ele>7.0</ele><time>2026-05-03T09:53:22.098Z</time></trkpt><trkpt lat="36.97699" lon="9.9627295"><ele>7.0</ele><time>2026-05-03T09:53:23.087Z</time></trkpt><trkpt lat="36.9768888" lon="9.9625233"><ele>7.0</ele><time>2026-05-03T09:53:24.064Z</time></trkpt><trkpt lat="36.9767966" lon="9.9623176"><ele>7.0</ele><time>2026-05-03T09:53:25.101Z</time></trkpt><trkpt lat="36.9766976" lon="9.9621158"><ele>7.0</ele><time>2026-05-03T09:53:26.085Z</time></trkpt><trkpt lat="36.9766012" lon="9.9619122"><ele>7.0</ele><time>2026-05-03T09:53:27.071Z</time></trkpt><trkpt lat="36.9765057" lon="9.9617163"><ele>7.0</ele><time>2026-05-03T09:53:28.096Z</time></trkpt><trkpt lat="36.976409" lon="9.9615199"><ele>7.0</ele><time>2026-05-03T09:53:29.083Z</time></trkpt><trkpt lat="36.9763071" lon="9.9613172"><ele>7.0</ele><time>2026-05-03T09:53:30.083Z</time></trkpt><trkpt lat="36.9762056" lon="9.961117"><ele>7.0</ele><time>2026-05-03T09:53:31.079Z</time></trkpt><trkpt lat="36.9761063" lon="9.9609124"><ele>7.0</ele><time>2026-05-03T09:53:32.089Z</time></trkpt><trkpt lat="36.9760028" lon="9.9607046"><ele>7.0</ele><time>2026-05-03T09:53:33.088Z</time></trkpt><trkpt lat="36.9758994" lon="9.9604967"><ele>7.0</ele><time>2026-05-03T09:53:34.097Z</time></trkpt><trkpt lat="36.9757976" lon="9.960288"><ele>7.0</ele><time>2026-05-03T09:53:35.088Z</time></trkpt><trkpt lat="36.9756982" lon="9.9600807"><ele>7.0</ele><time>2026-05-03T09:53:36.084Z</time></trkpt><trkpt lat="36.9756039" lon="9.9598767"><ele>7.0</ele><time>2026-05-03T09:53:37.083Z</time></trkpt><trkpt lat="36.9755081" lon="9.9596862"><ele>7.0</ele><time>2026-05-03T09:53:38.087Z</time></trkpt><trkpt lat="36.9754196" lon="9.9595071"><ele>7.0</ele><time>2026-05-03T09:53:39.083Z</time></trkpt><trkpt lat="36.9753399" lon="9.9593343"><ele>7.0</ele><time>2026-05-03T09:53:40.087Z</time></trkpt><trkpt lat="36.9752589" lon="9.9591834"><ele>7.0</ele><time>2026-05-03T09:53:41.081Z</time></trkpt><trkpt lat="36.9751911" lon="9.9590425"><ele>7.0</ele><time>2026-05-03T09:53:42.086Z</time></trkpt><trkpt lat="36.9751336" lon="9.9589228"><ele>7.0</ele><time>2026-05-03T09:53:43.089Z</time></trkpt><trkpt lat="36.9750912" lon="9.9588313"><ele>7.000000000000001</ele><time>2026-05-03T09:53:44.081Z</time></trkpt><trkpt lat="36.9750594" lon="9.9587533"><ele>7.0</ele><time>2026-05-03T09:53:45.086Z</time></trkpt><trkpt lat="36.9750241" lon="9.9586832"><ele>7.0</ele><time>2026-05-03T09:53:46.066Z</time></trkpt><trkpt lat="36.9749812" lon="9.9586016"><ele>7.0</ele><time>2026-05-03T09:53:47.083Z</time></trkpt><trkpt lat="36.9749376" lon="9.9585055"><ele>7.000000000000001</ele><time>2026-05-03T09:53:48.091Z</time></trkpt><trkpt lat="36.9748926" lon="9.9584125"><ele>7.0</ele><time>2026-05-03T09:53:49.073Z</time></trkpt><trkpt lat="36.9748449" lon="9.9583189"><ele>7.166666666666667</ele><time>2026-05-03T09:53:50.086Z</time></trkpt><trkpt lat="36.9747961" lon="9.9582235"><ele>7.333333333333334</ele><time>2026-05-03T09:53:51.086Z</time></trkpt><trkpt lat="36.9747507" lon="9.9581324"><ele>7.5</ele><time>2026-05-03T09:53:52.074Z</time></trkpt><trkpt lat="36.9747097" lon="9.9580421"><ele>7.666666666666666</ele><time>2026-05-03T09:53:53.078Z</time></trkpt><trkpt lat="36.9746697" lon="9.957954"><ele>7.833333333333333</ele><time>2026-05-03T09:53:54.074Z</time></trkpt><trkpt lat="36.9746263" lon="9.9578681"><ele>8.0</ele><time>2026-05-03T09:53:55.092Z</time></trkpt><trkpt lat="36.9745779" lon="9.9577716"><ele>8.0</ele><time>2026-05-03T09:53:56.084Z</time></trkpt><trkpt lat="36.9745222" lon="9.9576704"><ele>8.0</ele><time>2026-05-03T09:53:57.093Z</time></trkpt><trkpt lat="36.9744686" lon="9.9575568"><ele>8.0</ele><time>2026-05-03T09:53:58.1Z</time></trkpt><trkpt lat="36.9744127" lon="9.9574347"><ele>8.0</ele><time>2026-05-03T09:53:59.088Z</time></trkpt><trkpt lat="36.9743526" lon="9.9573108"><ele>8.0</ele><time>2026-05-03T09:54:00.071Z</time></trkpt><trkpt lat="36.9742926" lon="9.9571914"><ele>8.4</ele><time>2026-05-03T09:54:01.076Z</time></trkpt><trkpt lat="36.9742392" lon="9.9570791"><ele>8.8</ele><time>2026-05-03T09:54:02.082Z</time></trkpt><trkpt lat="36.9741952" lon="9.9569826"><ele>9.2</ele><time>2026-05-03T09:54:03.083Z</time></trkpt><trkpt lat="36.9741519" lon="9.9568845"><ele>9.6</ele><time>2026-05-03T09:54:04.081Z</time></trkpt><trkpt lat="36.9741017" lon="9.9567683"><ele>10.0</ele><time>2026-05-03T09:54:05.09Z</time></trkpt><trkpt lat="36.974034" lon="9.9566215"><ele>10.0</ele><time>2026-05-03T09:54:06.09Z</time></trkpt><trkpt lat="36.9739514" lon="9.9564511"><ele>10.0</ele><time>2026-05-03T09:54:07.101Z</time></trkpt><trkpt lat="36.9738604" lon="9.9562568"><ele>10.0</ele><time>2026-05-03T09:54:08.083Z</time></trkpt><trkpt lat="36.9737723" lon="9.9560658"><ele>10.0</ele><time>2026-05-03T09:54:09.077Z</time></trkpt><trkpt lat="36.9736725" lon="9.9558873"><ele>10.0</ele><time>2026-05-03T09:54:10.081Z</time></trkpt><trkpt lat="36.9735805" lon="9.9557015"><ele>10.0</ele><time>2026-05-03T09:54:11.093Z</time></trkpt><trkpt lat="36.9734912" lon="9.9555115"><ele>9.333333333333334</ele><time>2026-05-03T09:54:12.081Z</time></trkpt><trkpt lat="36.9734018" lon="9.9553295"><ele>8.666666666666666</ele><time>2026-05-03T09:54:13.079Z</time></trkpt><trkpt lat="36.9733167" lon="9.9551438"><ele>8.0</ele><time>2026-05-03T09:54:14.078Z</time></trkpt><trkpt lat="36.9732336" lon="9.9549706"><ele>7.666666666666666</ele><time>2026-05-03T09:54:15.091Z</time></trkpt><trkpt lat="36.9731491" lon="9.9547909"><ele>7.333333333333334</ele><time>2026-05-03T09:54:16.086Z</time></trkpt><trkpt lat="36.9730669" lon="9.9546175"><ele>7.0</ele><time>2026-05-03T09:54:17.091Z</time></trkpt><trkpt lat="36.9729817" lon="9.9544392"><ele>7.0</ele><time>2026-05-03T09:54:18.09Z</time></trkpt><trkpt lat="36.9728979" lon="9.9542638"><ele>7.0</ele><time>2026-05-03T09:54:19.093Z</time></trkpt><trkpt lat="36.9728105" lon="9.9540822"><ele>7.0</ele><time>2026-05-03T09:54:20.085Z</time></trkpt><trkpt lat="36.9727209" lon="9.9539056"><ele>7.333333333333334</ele><time>2026-05-03T09:54:21.083Z</time></trkpt><trkpt lat="36.9726343" lon="9.9537233"><ele>7.666666666666666</ele><time>2026-05-03T09:54:22.096Z</time></trkpt><trkpt lat="36.9725463" lon="9.9535382"><ele>8.0</ele><time>2026-05-03T09:54:23.089Z</time></trkpt><trkpt lat="36.9724502" lon="9.9533545"><ele>8.0</ele><time>2026-05-03T09:54:24.087Z</time></trkpt><trkpt lat="36.9723576" lon="9.9531605"><ele>8.0</ele><time>2026-05-03T09:54:25.081Z</time></trkpt><trkpt lat="36.9722632" lon="9.9529616"><ele>8.0</ele><time>2026-05-03T09:54:26.101Z</time></trkpt><trkpt lat="36.9721595" lon="9.9527541"><ele>8.0</ele><time>2026-05-03T09:54:27.087Z</time></trkpt><trkpt lat="36.9720536" lon="9.9525394"><ele>8.0</ele><time>2026-05-03T09:54:28.08Z</time></trkpt><trkpt lat="36.9719452" lon="9.9523239"><ele>8.0</ele><time>2026-05-03T09:54:29.094Z</time></trkpt><trkpt lat="36.9718426" lon="9.9521117"><ele>8.0</ele><time>2026-05-03T09:54:30.119Z</time></trkpt><trkpt lat="36.971741" lon="9.9518962"><ele>8.0</ele><time>2026-05-03T09:54:31.093Z</time></trkpt><trkpt lat="36.9716354" lon="9.9516797"><ele>8.0</ele><time>2026-05-03T09:54:32.089Z</time></trkpt><trkpt lat="36.971531" lon="9.9514672"><ele>7.666666666666666</ele><time>2026-05-03T09:54:33.104Z</time></trkpt><trkpt lat="36.9714262" lon="9.9512564"><ele>7.333333333333334</ele><time>2026-05-03T09:54:34.104Z</time></trkpt><trkpt lat="36.9713243" lon="9.9510483"><ele>7.0</ele><time>2026-05-03T09:54:35.099Z</time></trkpt><trkpt lat="36.9712245" lon="9.9508405"><ele>7.666666666666667</ele><time>2026-05-03T09:54:36.089Z</time></trkpt><trkpt lat="36.9711236" lon="9.9506354"><ele>8.333333333333334</ele><time>2026-05-03T09:54:37.079Z</time></trkpt><trkpt lat="36.9710242" lon="9.9504249"><ele>9.0</ele><time>2026-05-03T09:54:38.093Z</time></trkpt><trkpt lat="36.9709219" lon="9.9502102"><ele>8.666666666666666</ele><time>2026-05-03T09:54:39.084Z</time></trkpt><trkpt lat="36.9708153" lon="9.9499985"><ele>8.333333333333332</ele><time>2026-05-03T09:54:40.09Z</time></trkpt><trkpt lat="36.970712" lon="9.9497865"><ele>8.0</ele><time>2026-05-03T09:54:41.085Z</time></trkpt><trkpt lat="36.9706053" lon="9.9495733"><ele>8.0</ele><time>2026-05-03T09:54:42.086Z</time></trkpt><trkpt lat="36.9705032" lon="9.9493554"><ele>8.0</ele><time>2026-05-03T09:54:43.094Z</time></trkpt><trkpt lat="36.9704005" lon="9.9491384"><ele>8.0</ele><time>2026-05-03T09:54:44.1Z</time></trkpt><trkpt lat="36.9702974" lon="9.9489201"><ele>7.666666666666666</ele><time>2026-05-03T09:54:45.07Z</time></trkpt><trkpt lat="36.9701985" lon="9.948704"><ele>7.333333333333334</ele><time>2026-05-03T09:54:46.081Z</time></trkpt><trkpt lat="36.9700958" lon="9.9484926"><ele>7.0</ele><time>2026-05-03T09:54:47.089Z</time></trkpt><trkpt lat="36.9699906" lon="9.9482806"><ele>6.666666666666667</ele><time>2026-05-03T09:54:48.075Z</time></trkpt><trkpt lat="36.9698896" lon="9.9480695"><ele>6.333333333333334</ele><time>2026-05-03T09:54:49.099Z</time></trkpt><trkpt lat="36.9697871" lon="9.9478576"><ele>6.0</ele><time>2026-05-03T09:54:50.088Z</time></trkpt><trkpt lat="36.9696859" lon="9.9476444"><ele>6.666666666666666</ele><time>2026-05-03T09:54:51.085Z</time></trkpt><trkpt lat="36.9695825" lon="9.9474365"><ele>7.333333333333333</ele><time>2026-05-03T09:54:52.083Z</time></trkpt><trkpt lat="36.969479" lon="9.947229"><ele>8.0</ele><time>2026-05-03T09:54:53.08Z</time></trkpt><trkpt lat="36.9693761" lon="9.9470165"><ele>8.0</ele><time>2026-05-03T09:54:54.087Z</time></trkpt><trkpt lat="36.9692736" lon="9.9468127"><ele>8.0</ele><time>2026-05-03T09:54:55.088Z</time></trkpt><trkpt lat="36.9691798" lon="9.9466208"><ele>8.0</ele><time>2026-05-03T09:54:56.089Z</time></trkpt><trkpt lat="36.9690939" lon="9.9464468"><ele>7.800000000000001</ele><time>2026-05-03T09:54:57.09Z</time></trkpt><trkpt lat="36.969022" lon="9.9462974"><ele>7.6000000000000005</ele><time>2026-05-03T09:54:58.079Z</time></trkpt><trkpt lat="36.9689716" lon="9.9461883"><ele>7.3999999999999995</ele><time>2026-05-03T09:54:59.095Z</time></trkpt><trkpt lat="36.9689254" lon="9.9460959"><ele>7.199999999999999</ele><time>2026-05-03T09:55:00.059Z</time></trkpt><trkpt lat="36.9688738" lon="9.9460053"><ele>7.0</ele><time>2026-05-03T09:55:01.066Z</time></trkpt><trkpt lat="36.9688226" lon="9.9459099"><ele>7.3999999999999995</ele><time>2026-05-03T09:55:02.086Z</time></trkpt><trkpt lat="36.9687666" lon="9.9457987"><ele>7.799999999999999</ele><time>2026-05-03T09:55:03.093Z</time></trkpt><trkpt lat="36.9687128" lon="9.9456837"><ele>8.2</ele><time>2026-05-03T09:55:04.081Z</time></trkpt><trkpt lat="36.9686589" lon="9.9455624"><ele>8.6</ele><time>2026-05-03T09:55:05.081Z</time></trkpt><trkpt lat="36.9686069" lon="9.9454424"><ele>9.0</ele><time>2026-05-03T09:55:06.1Z</time></trkpt><trkpt lat="36.9685468" lon="9.9453127"><ele>9.0</ele><time>2026-05-03T09:55:07.078Z</time></trkpt><trkpt lat="36.9684845" lon="9.9451868"><ele>9.0</ele><time>2026-05-03T09:55:08.072Z</time></trkpt><trkpt lat="36.9684209" lon="9.9450474"><ele>9.0</ele><time>2026-05-03T09:55:09.091Z</time></trkpt><trkpt lat="36.9683526" lon="9.9449135"><ele>9.0</ele><time>2026-05-03T09:55:10.062Z</time></trkpt><trkpt lat="36.9682836" lon="9.9447679"><ele>8.5</ele><time>2026-05-03T09:55:11.089Z</time></trkpt><trkpt lat="36.9682121" lon="9.9446181"><ele>8.0</ele><time>2026-05-03T09:55:12.085Z</time></trkpt><trkpt lat="36.9681448" lon="9.9444688"><ele>7.5</ele><time>2026-05-03T09:55:13.09Z</time></trkpt><trkpt lat="36.9680812" lon="9.9443251"><ele>7.0</ele><time>2026-05-03T09:55:14.095Z</time></trkpt><trkpt lat="36.9680126" lon="9.9441882"><ele>7.0</ele><time>2026-05-03T09:55:15.081Z</time></trkpt><trkpt lat="36.9679449" lon="9.944047"><ele>7.0</ele><time>2026-05-03T09:55:16.087Z</time></trkpt><trkpt lat="36.9678774" lon="9.9439139"><ele>7.0</ele><time>2026-05-03T09:55:17.076Z</time></trkpt><trkpt lat="36.9678112" lon="9.9437775"><ele>7.0</ele><time>2026-05-03T09:55:18.101Z</time></trkpt><trkpt lat="36.9677433" lon="9.9436375"><ele>7.0</ele><time>2026-05-03T09:55:19.077Z</time></trkpt><trkpt lat="36.9676716" lon="9.943502"><ele>7.0</ele><time>2026-05-03T09:55:20.082Z</time></trkpt><trkpt lat="36.9676017" lon="9.9433581"><ele>7.0</ele><time>2026-05-03T09:55:21.079Z</time></trkpt><trkpt lat="36.9675273" lon="9.9432066"><ele>7.0</ele><time>2026-05-03T09:55:22.092Z</time></trkpt><trkpt lat="36.9674529" lon="9.9430541"><ele>7.0</ele><time>2026-05-03T09:55:23.079Z</time></trkpt><trkpt lat="36.967375" lon="9.9428872"><ele>7.0</ele><time>2026-05-03T09:55:24.088Z</time></trkpt><trkpt lat="36.9673012" lon="9.9427338"><ele>7.0</ele><time>2026-05-03T09:55:25.095Z</time></trkpt><trkpt lat="36.9672365" lon="9.9426"><ele>7.0</ele><time>2026-05-03T09:55:26.085Z</time></trkpt><trkpt lat="36.9671754" lon="9.9424887"><ele>7.000000000000001</ele><time>2026-05-03T09:55:27.096Z</time></trkpt><trkpt lat="36.9671219" lon="9.9423902"><ele>7.0</ele><time>2026-05-03T09:55:28.087Z</time></trkpt><trkpt lat="36.9670795" lon="9.9423047"><ele>7.0</ele><time>2026-05-03T09:55:29.084Z</time></trkpt><trkpt lat="36.9670397" lon="9.9422208"><ele>7.0</ele><time>2026-05-03T09:55:30.105Z</time></trkpt><trkpt lat="36.9670009" lon="9.9421437"><ele>7.000000000000001</ele><time>2026-05-03T09:55:31.099Z</time></trkpt><trkpt lat="36.9669615" lon="9.9420512"><ele>7.0</ele><time>2026-05-03T09:55:32.056Z</time></trkpt><trkpt lat="36.9669088" lon="9.9419433"><ele>7.0</ele><time>2026-05-03T09:55:33.092Z</time></trkpt><trkpt lat="36.966848" lon="9.9418228"><ele>7.0</ele><time>2026-05-03T09:55:34.091Z</time></trkpt><trkpt lat="36.9667824" lon="9.9416934"><ele>7.0</ele><time>2026-05-03T09:55:35.052Z</time></trkpt><trkpt lat="36.9667116" lon="9.9415531"><ele>7.0</ele><time>2026-05-03T09:55:36.091Z</time></trkpt><trkpt lat="36.9666394" lon="9.9413953"><ele>7.666666666666667</ele><time>2026-05-03T09:55:37.087Z</time></trkpt><trkpt lat="36.9665602" lon="9.9412347"><ele>8.333333333333334</ele><time>2026-05-03T09:55:38.087Z</time></trkpt><trkpt lat="36.966478" lon="9.9410702"><ele>9.0</ele><time>2026-05-03T09:55:39.072Z</time></trkpt><trkpt lat="36.9663983" lon="9.9409014"><ele>8.0</ele><time>2026-05-03T09:55:40.048Z</time></trkpt><trkpt lat="36.9663161" lon="9.9407268"><ele>7.0</ele><time>2026-05-03T09:55:41.05Z</time></trkpt><trkpt lat="36.9662322" lon="9.9405468"><ele>6.0</ele><time>2026-05-03T09:55:42.082Z</time></trkpt><trkpt lat="36.9661489" lon="9.9403697"><ele>6.0</ele><time>2026-05-03T09:55:43.085Z</time></trkpt><trkpt lat="36.966064" lon="9.9401943"><ele>6.0</ele><time>2026-05-03T09:55:44.08Z</time></trkpt><trkpt lat="36.9659823" lon="9.9400088"><ele>6.0</ele><time>2026-05-03T09:55:45.078Z</time></trkpt><trkpt lat="36.9658995" lon="9.9398201"><ele>6.666666666666666</ele><time>2026-05-03T09:55:46.077Z</time></trkpt><trkpt lat="36.9658068" lon="9.9396269"><ele>7.333333333333333</ele><time>2026-05-03T09:55:47.06Z</time></trkpt><trkpt lat="36.9656991" lon="9.9394218"><ele>8.0</ele><time>2026-05-03T09:55:48.082Z</time></trkpt><trkpt lat="36.9655887" lon="9.9391993"><ele>8.0</ele><time>2026-05-03T09:55:49.084Z</time></trkpt><trkpt lat="36.9654793" lon="9.938984"><ele>8.0</ele><time>2026-05-03T09:55:50.09Z</time></trkpt><trkpt lat="36.9653767" lon="9.9387659"><ele>8.0</ele><time>2026-05-03T09:55:51.107Z</time></trkpt><trkpt lat="36.9652719" lon="9.9385539"><ele>8.0</ele><time>2026-05-03T09:55:52.097Z</time></trkpt><trkpt lat="36.9651662" lon="9.9383411"><ele>8.0</ele><time>2026-05-03T09:55:53.088Z</time></trkpt><trkpt lat="36.9650562" lon="9.9381229"><ele>8.0</ele><time>2026-05-03T09:55:54.092Z</time></trkpt><trkpt lat="36.9649396" lon="9.9379007"><ele>8.0</ele><time>2026-05-03T09:55:55.083Z</time></trkpt><trkpt lat="36.9648091" lon="9.9376474"><ele>8.0</ele><time>2026-05-03T09:55:56.084Z</time></trkpt><trkpt lat="36.9646679" lon="9.9373493"><ele>7.5</ele><time>2026-05-03T09:55:57.063Z</time></trkpt><trkpt lat="36.9645079" lon="9.9370237"><ele>7.0</ele><time>2026-05-03T09:55:58.082Z</time></trkpt><trkpt lat="36.9643437" lon="9.9366713"><ele>6.5</ele><time>2026-05-03T09:55:59.088Z</time></trkpt><trkpt lat="36.9641745" lon="9.9363005"><ele>6.0</ele><time>2026-05-03T09:56:00.078Z</time></trkpt><trkpt lat="36.96402" lon="9.9359542"><ele>6.5</ele><time>2026-05-03T09:56:01.086Z</time></trkpt><trkpt lat="36.9638888" lon="9.9356657"><ele>7.0</ele><time>2026-05-03T09:56:02.087Z</time></trkpt><trkpt lat="36.9637548" lon="9.9353936"><ele>7.0</ele><time>2026-05-03T09:56:03.097Z</time></trkpt><trkpt lat="36.9636249" lon="9.9351409"><ele>7.0</ele><time>2026-05-03T09:56:04.09Z</time></trkpt><trkpt lat="36.9635135" lon="9.934908"><ele>7.0</ele><time>2026-05-03T09:56:05.079Z</time></trkpt><trkpt lat="36.9634036" lon="9.9346906"><ele>7.0</ele><time>2026-05-03T09:56:06.081Z</time></trkpt><trkpt lat="36.9633009" lon="9.9344832"><ele>7.0</ele><time>2026-05-03T09:56:07.089Z</time></trkpt><trkpt lat="36.9631999" lon="9.9342782"><ele>6.666666666666667</ele><time>2026-05-03T09:56:08.077Z</time></trkpt><trkpt lat="36.9630981" lon="9.9340719"><ele>6.333333333333334</ele><time>2026-05-03T09:56:09.061Z</time></trkpt><trkpt lat="36.9629945" lon="9.9338574"><ele>6.0</ele><time>2026-05-03T09:56:10.078Z</time></trkpt><trkpt lat="36.9628915" lon="9.9336417"><ele>6.0</ele><time>2026-05-03T09:56:11.089Z</time></trkpt><trkpt lat="36.9627867" lon="9.9334281"><ele>6.0</ele><time>2026-05-03T09:56:12.102Z</time></trkpt><trkpt lat="36.9626858" lon="9.9332108"><ele>6.0</ele><time>2026-05-03T09:56:13.079Z</time></trkpt><trkpt lat="36.9625823" lon="9.9329972"><ele>6.333333333333334</ele><time>2026-05-03T09:56:14.085Z</time></trkpt><trkpt lat="36.9624796" lon="9.9327869"><ele>6.666666666666667</ele><time>2026-05-03T09:56:15.082Z</time></trkpt><trkpt lat="36.9623753" lon="9.9325854"><ele>7.0</ele><time>2026-05-03T09:56:16.086Z</time></trkpt><trkpt lat="36.9622753" lon="9.9323771"><ele>7.0</ele><time>2026-05-03T09:56:17.09Z</time></trkpt><trkpt lat="36.9621743" lon="9.9321665"><ele>7.0</ele><time>2026-05-03T09:56:18.08Z</time></trkpt><trkpt lat="36.9620735" lon="9.9319535"><ele>7.0</ele><time>2026-05-03T09:56:19.081Z</time></trkpt><trkpt lat="36.9619709" lon="9.93174"><ele>7.0</ele><time>2026-05-03T09:56:20.078Z</time></trkpt><trkpt lat="36.9618653" lon="9.9315259"><ele>7.0</ele><time>2026-05-03T09:56:21.078Z</time></trkpt><trkpt lat="36.9617596" lon="9.9313107"><ele>7.0</ele><time>2026-05-03T09:56:22.085Z</time></trkpt><trkpt lat="36.961658" lon="9.9310983"><ele>7.333333333333334</ele><time>2026-05-03T09:56:23.092Z</time></trkpt><trkpt lat="36.9615556" lon="9.9308865"><ele>7.666666666666666</ele><time>2026-05-03T09:56:24.064Z</time></trkpt><trkpt lat="36.961454" lon="9.9306777"><ele>8.0</ele><time>2026-05-03T09:56:25.088Z</time></trkpt><trkpt lat="36.9613498" lon="9.9304691"><ele>8.0</ele><time>2026-05-03T09:56:26.084Z</time></trkpt><trkpt lat="36.9612498" lon="9.9302582"><ele>8.0</ele><time>2026-05-03T09:56:27.086Z</time></trkpt><trkpt lat="36.9611499" lon="9.9300468"><ele>8.0</ele><time>2026-05-03T09:56:28.07Z</time></trkpt><trkpt lat="36.9610496" lon="9.9298378"><ele>8.0</ele><time>2026-05-03T09:56:29.095Z</time></trkpt><trkpt lat="36.9609489" lon="9.9296306"><ele>8.0</ele><time>2026-05-03T09:56:30.081Z</time></trkpt><trkpt lat="36.960847" lon="9.9294203"><ele>8.0</ele><time>2026-05-03T09:56:31.079Z</time></trkpt><trkpt lat="36.9607426" lon="9.9292104"><ele>7.666666666666666</ele><time>2026-05-03T09:56:32.09Z</time></trkpt><trkpt lat="36.9606443" lon="9.9290086"><ele>7.333333333333334</ele><time>2026-05-03T09:56:33.079Z</time></trkpt><trkpt lat="36.9605422" lon="9.9288007"><ele>7.0</ele><time>2026-05-03T09:56:34.086Z</time></trkpt><trkpt lat="36.9604427" lon="9.9285961"><ele>7.333333333333334</ele><time>2026-05-03T09:56:35.091Z</time></trkpt><trkpt lat="36.9603444" lon="9.9283867"><ele>7.666666666666666</ele><time>2026-05-03T09:56:36.076Z</time></trkpt><trkpt lat="36.9602462" lon="9.9281802"><ele>8.0</ele><time>2026-05-03T09:56:37.078Z</time></trkpt><trkpt lat="36.960147" lon="9.9279748"><ele>8.0</ele><time>2026-05-03T09:56:38.088Z</time></trkpt><trkpt lat="36.960049" lon="9.9277787"><ele>8.0</ele><time>2026-05-03T09:56:39.086Z</time></trkpt><trkpt lat="36.9599553" lon="9.9275874"><ele>8.0</ele><time>2026-05-03T09:56:40.09Z</time></trkpt><trkpt lat="36.9598639" lon="9.9274024"><ele>8.333333333333332</ele><time>2026-05-03T09:56:41.098Z</time></trkpt><trkpt lat="36.9597705" lon="9.9272203"><ele>8.666666666666666</ele><time>2026-05-03T09:56:42.086Z</time></trkpt><trkpt lat="36.9596832" lon="9.9270471"><ele>9.0</ele><time>2026-05-03T09:56:43.084Z</time></trkpt><trkpt lat="36.9595952" lon="9.9268827"><ele>9.0</ele><time>2026-05-03T09:56:44.091Z</time></trkpt><trkpt lat="36.9595162" lon="9.9267236"><ele>9.0</ele><time>2026-05-03T09:56:45.104Z</time></trkpt><trkpt lat="36.9594464" lon="9.9265692"><ele>9.0</ele><time>2026-05-03T09:56:46.079Z</time></trkpt><trkpt lat="36.9593783" lon="9.9264211"><ele>9.0</ele><time>2026-05-03T09:56:47.083Z</time></trkpt><trkpt lat="36.9593076" lon="9.9262826"><ele>9.0</ele><time>2026-05-03T09:56:48.084Z</time></trkpt><trkpt lat="36.9592445" lon="9.9261485"><ele>9.0</ele><time>2026-05-03T09:56:49.06Z</time></trkpt><trkpt lat="36.9591803" lon="9.926021"><ele>9.0</ele><time>2026-05-03T09:56:50.074Z</time></trkpt><trkpt lat="36.9591249" lon="9.9258982"><ele>9.0</ele><time>2026-05-03T09:56:51.084Z</time></trkpt><trkpt lat="36.9590703" lon="9.9257741"><ele>9.666666666666666</ele><time>2026-05-03T09:56:52.082Z</time></trkpt><trkpt lat="36.9590225" lon="9.9256647"><ele>10.333333333333332</ele><time>2026-05-03T09:56:53.082Z</time></trkpt><trkpt lat="36.9589873" lon="9.9255819"><ele>11.0</ele><time>2026-05-03T09:56:54.08Z</time></trkpt><trkpt lat="36.9589554" lon="9.9255124"><ele>11.666666666666666</ele><time>2026-05-03T09:56:55.089Z</time></trkpt><trkpt lat="36.9589123" lon="9.925419"><ele>12.333333333333332</ele><time>2026-05-03T09:56:57.093Z</time></trkpt><trkpt lat="36.9588831" lon="9.9253066"><ele>13.0</ele><time>2026-05-03T09:57:00.062Z</time></trkpt><trkpt lat="36.958865" lon="9.9252154"><ele>12.999999999999998</ele><time>2026-05-03T09:57:02.093Z</time></trkpt><trkpt lat="36.9588307" lon="9.9251343"><ele>13.0</ele><time>2026-05-03T09:57:04.073Z</time></trkpt><trkpt lat="36.9588008" lon="9.9250645"><ele>13.0</ele><time>2026-05-03T09:57:11.083Z</time></trkpt><trkpt lat="36.9587569" lon="9.9249191"><ele>13.0</ele><time>2026-05-03T09:57:13.084Z</time></trkpt><trkpt lat="36.9587251" lon="9.9248408"><ele>12.999999999999998</ele><time>2026-05-03T09:57:14.074Z</time></trkpt><trkpt lat="36.9586954" lon="9.924752"><ele>13.0</ele><time>2026-05-03T09:57:15.083Z</time></trkpt><trkpt lat="36.9586667" lon="9.9246602"><ele>13.8</ele><time>2026-05-03T09:57:16.095Z</time></trkpt><trkpt lat="36.9586349" lon="9.9245546"><ele>14.600000000000001</ele><time>2026-05-03T09:57:17.072Z</time></trkpt><trkpt lat="36.9585951" lon="9.9244412"><ele>15.399999999999999</ele><time>2026-05-03T09:57:18.077Z</time></trkpt><trkpt lat="36.9585532" lon="9.92431"><ele>16.2</ele><time>2026-05-03T09:57:19.066Z</time></trkpt><trkpt lat="36.9585096" lon="9.9241695"><ele>17.0</ele><time>2026-05-03T09:57:20.068Z</time></trkpt><trkpt lat="36.958465" lon="9.924013"><ele>17.25</ele><time>2026-05-03T09:57:21.079Z</time></trkpt><trkpt lat="36.9584182" lon="9.9238641"><ele>17.5</ele><time>2026-05-03T09:57:22.08Z</time></trkpt><trkpt lat="36.9583648" lon="9.9237191"><ele>17.75</ele><time>2026-05-03T09:57:23.069Z</time></trkpt><trkpt lat="36.9582987" lon="9.9235813"><ele>18.0</ele><time>2026-05-03T09:57:24.075Z</time></trkpt><trkpt lat="36.9582252" lon="9.9234521"><ele>19.25</ele><time>2026-05-03T09:57:25.079Z</time></trkpt><trkpt lat="36.9581407" lon="9.9233329"><ele>20.5</ele><time>2026-05-03T09:57:26.09Z</time></trkpt><trkpt lat="36.9580413" lon="9.9232161"><ele>21.75</ele><time>2026-05-03T09:57:27.09Z</time></trkpt><trkpt lat="36.957938" lon="9.9231058"><ele>23.0</ele><time>2026-05-03T09:57:28.08Z</time></trkpt><trkpt lat="36.9578218" lon="9.9230196"><ele>23.0</ele><time>2026-05-03T09:57:29.081Z</time></trkpt><trkpt lat="36.9576927" lon="9.9229417"><ele>23.0</ele><time>2026-05-03T09:57:30.084Z</time></trkpt><trkpt lat="36.9575563" lon="9.9228725"><ele>23.0</ele><time>2026-05-03T09:57:31.075Z</time></trkpt><trkpt lat="36.957417" lon="9.9228062"><ele>23.0</ele><time>2026-05-03T09:57:32.102Z</time></trkpt><trkpt lat="36.9572682" lon="9.9227431"><ele>23.333333333333336</ele><time>2026-05-03T09:57:33.078Z</time></trkpt><trkpt lat="36.9571118" lon="9.9226817"><ele>23.666666666666668</ele><time>2026-05-03T09:57:34.077Z</time></trkpt><trkpt lat="36.9569515" lon="9.9226248"><ele>24.0</ele><time>2026-05-03T09:57:35.066Z</time></trkpt><trkpt lat="36.9567809" lon="9.9225601"><ele>23.666666666666668</ele><time>2026-05-03T09:57:36.089Z</time></trkpt><trkpt lat="36.9565972" lon="9.9224924"><ele>23.333333333333336</ele><time>2026-05-03T09:57:37.095Z</time></trkpt><trkpt lat="36.956393" lon="9.9224111"><ele>23.0</ele><time>2026-05-03T09:57:38.08Z</time></trkpt><trkpt lat="36.9561825" lon="9.9223295"><ele>23.0</ele><time>2026-05-03T09:57:39.069Z</time></trkpt><trkpt lat="36.9559825" lon="9.9222503"><ele>23.0</ele><time>2026-05-03T09:57:40.075Z</time></trkpt><trkpt lat="36.9557908" lon="9.9221779"><ele>23.0</ele><time>2026-05-03T09:57:41.079Z</time></trkpt><trkpt lat="36.9556069" lon="9.9221097"><ele>23.666666666666668</ele><time>2026-05-03T09:57:42.071Z</time></trkpt><trkpt lat="36.9554259" lon="9.9220381"><ele>24.333333333333336</ele><time>2026-05-03T09:57:43.084Z</time></trkpt><trkpt lat="36.9552492" lon="9.9219734"><ele>25.0</ele><time>2026-05-03T09:57:44.071Z</time></trkpt><trkpt lat="36.9550697" lon="9.9219062"><ele>25.666666666666668</ele><time>2026-05-03T09:57:45.094Z</time></trkpt><trkpt lat="36.9548933" lon="9.9218344"><ele>26.333333333333336</ele><time>2026-05-03T09:57:46.076Z</time></trkpt><trkpt lat="36.9547216" lon="9.9217663"><ele>27.0</ele><time>2026-05-03T09:57:47.076Z</time></trkpt><trkpt lat="36.9545583" lon="9.9217003"><ele>27.0</ele><time>2026-05-03T09:57:48.063Z</time></trkpt><trkpt lat="36.9543906" lon="9.9216253"><ele>27.0</ele><time>2026-05-03T09:57:49.081Z</time></trkpt><trkpt lat="36.9542226" lon="9.9215595"><ele>27.0</ele><time>2026-05-03T09:57:50.061Z</time></trkpt><trkpt lat="36.9540526" lon="9.9214888"><ele>27.0</ele><time>2026-05-03T09:57:51.059Z</time></trkpt><trkpt lat="36.9538762" lon="9.9214169"><ele>27.0</ele><time>2026-05-03T09:57:52.075Z</time></trkpt><trkpt lat="36.9536966" lon="9.9213387"><ele>27.0</ele><time>2026-05-03T09:57:53.078Z</time></trkpt><trkpt lat="36.9535114" lon="9.9212445"><ele>27.333333333333336</ele><time>2026-05-03T09:57:54.077Z</time></trkpt><trkpt lat="36.9533178" lon="9.9211476"><ele>27.666666666666668</ele><time>2026-05-03T09:57:55.058Z</time></trkpt><trkpt lat="36.9531119" lon="9.9210329"><ele>28.0</ele><time>2026-05-03T09:57:56.07Z</time></trkpt><trkpt lat="36.9529089" lon="9.9209085"><ele>28.0</ele><time>2026-05-03T09:57:57.071Z</time></trkpt><trkpt lat="36.9527132" lon="9.9207814"><ele>28.0</ele><time>2026-05-03T09:57:58.067Z</time></trkpt><trkpt lat="36.9525196" lon="9.9206608"><ele>28.0</ele><time>2026-05-03T09:57:59.067Z</time></trkpt><trkpt lat="36.9523318" lon="9.9205419"><ele>28.0</ele><time>2026-05-03T09:58:00.067Z</time></trkpt><trkpt lat="36.9521494" lon="9.9204257"><ele>28.0</ele><time>2026-05-03T09:58:01.07Z</time></trkpt><trkpt lat="36.9519708" lon="9.9203111"><ele>28.0</ele><time>2026-05-03T09:58:02.071Z</time></trkpt><trkpt lat="36.95179" lon="9.920197"><ele>28.333333333333336</ele><time>2026-05-03T09:58:03.09Z</time></trkpt><trkpt lat="36.9516111" lon="9.9200834"><ele>28.666666666666664</ele><time>2026-05-03T09:58:04.08Z</time></trkpt><trkpt lat="36.9514321" lon="9.91997"><ele>29.0</ele><time>2026-05-03T09:58:05.045Z</time></trkpt><trkpt lat="36.9512549" lon="9.9198533"><ele>29.0</ele><time>2026-05-03T09:58:06.078Z</time></trkpt><trkpt lat="36.9510772" lon="9.919741"><ele>29.0</ele><time>2026-05-03T09:58:07.065Z</time></trkpt><trkpt lat="36.9508989" lon="9.9196215"><ele>29.0</ele><time>2026-05-03T09:58:08.074Z</time></trkpt><trkpt lat="36.9507215" lon="9.9195105"><ele>29.0</ele><time>2026-05-03T09:58:09.06Z</time></trkpt><trkpt lat="36.9505437" lon="9.9193978"><ele>29.0</ele><time>2026-05-03T09:58:10.048Z</time></trkpt><trkpt lat="36.9503658" lon="9.9192809"><ele>29.0</ele><time>2026-05-03T09:58:11.055Z</time></trkpt><trkpt lat="36.9501905" lon="9.9191669"><ele>28.666666666666664</ele><time>2026-05-03T09:58:12.08Z</time></trkpt><trkpt lat="36.950024" lon="9.9190617"><ele>28.333333333333336</ele><time>2026-05-03T09:58:13.084Z</time></trkpt><trkpt lat="36.9498663" lon="9.9189614"><ele>28.0</ele><time>2026-05-03T09:58:14.085Z</time></trkpt><trkpt lat="36.9497217" lon="9.9188609"><ele>28.0</ele><time>2026-05-03T09:58:15.078Z</time></trkpt><trkpt lat="36.9495748" lon="9.9187597"><ele>28.0</ele><time>2026-05-03T09:58:16.077Z</time></trkpt><trkpt lat="36.9494271" lon="9.9186594"><ele>28.0</ele><time>2026-05-03T09:58:17.077Z</time></trkpt><trkpt lat="36.9492731" lon="9.9185548"><ele>27.666666666666668</ele><time>2026-05-03T09:58:18.074Z</time></trkpt><trkpt lat="36.9491118" lon="9.9184556"><ele>27.333333333333336</ele><time>2026-05-03T09:58:19.081Z</time></trkpt><trkpt lat="36.9489473" lon="9.9183513"><ele>27.0</ele><time>2026-05-03T09:58:20.071Z</time></trkpt><trkpt lat="36.9487824" lon="9.9182464"><ele>27.333333333333336</ele><time>2026-05-03T09:58:21.059Z</time></trkpt><trkpt lat="36.9486153" lon="9.9181384"><ele>27.666666666666668</ele><time>2026-05-03T09:58:22.092Z</time></trkpt><trkpt lat="36.9484447" lon="9.9180287"><ele>28.0</ele><time>2026-05-03T09:58:23.073Z</time></trkpt><trkpt lat="36.948274" lon="9.9179205"><ele>28.0</ele><time>2026-05-03T09:58:24.093Z</time></trkpt><trkpt lat="36.9481015" lon="9.9178133"><ele>28.0</ele><time>2026-05-03T09:58:25.079Z</time></trkpt><trkpt lat="36.9479244" lon="9.9176994"><ele>28.0</ele><time>2026-05-03T09:58:26.046Z</time></trkpt><trkpt lat="36.947754" lon="9.9175843"><ele>28.0</ele><time>2026-05-03T09:58:27.074Z</time></trkpt><trkpt lat="36.9475814" lon="9.9174717"><ele>28.0</ele><time>2026-05-03T09:58:28.056Z</time></trkpt><trkpt lat="36.9474125" lon="9.9173562"><ele>28.0</ele><time>2026-05-03T09:58:29.075Z</time></trkpt><trkpt lat="36.9472416" lon="9.9172389"><ele>28.0</ele><time>2026-05-03T09:58:30.057Z</time></trkpt><trkpt lat="36.9470676" lon="9.9171272"><ele>28.0</ele><time>2026-05-03T09:58:31.064Z</time></trkpt><trkpt lat="36.9468926" lon="9.9170193"><ele>28.0</ele><time>2026-05-03T09:58:32.088Z</time></trkpt><trkpt lat="36.9467253" lon="9.9169118"><ele>28.333333333333336</ele><time>2026-05-03T09:58:33.052Z</time></trkpt><trkpt lat="36.9465576" lon="9.9168023"><ele>28.666666666666664</ele><time>2026-05-03T09:58:34.078Z</time></trkpt><trkpt lat="36.9463966" lon="9.9166971"><ele>29.0</ele><time>2026-05-03T09:58:35.092Z</time></trkpt><trkpt lat="36.9462364" lon="9.9165933"><ele>29.666666666666664</ele><time>2026-05-03T09:58:36.072Z</time></trkpt><trkpt lat="36.9460807" lon="9.9164934"><ele>30.333333333333336</ele><time>2026-05-03T09:58:37.079Z</time></trkpt><trkpt lat="36.9459248" lon="9.9163946"><ele>31.0</ele><time>2026-05-03T09:58:38.09Z</time></trkpt><trkpt lat="36.9457673" lon="9.9162919"><ele>32.333333333333336</ele><time>2026-05-03T09:58:39.049Z</time></trkpt><trkpt lat="36.9456118" lon="9.916191"><ele>33.666666666666664</ele><time>2026-05-03T09:58:40.056Z</time></trkpt><trkpt lat="36.9454537" lon="9.9160935"><ele>35.0</ele><time>2026-05-03T09:58:41.051Z</time></trkpt><trkpt lat="36.945299" lon="9.9159896"><ele>36.666666666666664</ele><time>2026-05-03T09:58:42.068Z</time></trkpt><trkpt lat="36.9451375" lon="9.9158861"><ele>38.333333333333336</ele><time>2026-05-03T09:58:43.069Z</time></trkpt><trkpt lat="36.9449741" lon="9.9157772"><ele>40.0</ele><time>2026-05-03T09:58:44.078Z</time></trkpt><trkpt lat="36.9448061" lon="9.9156684"><ele>40.0</ele><time>2026-05-03T09:58:45.07Z</time></trkpt><trkpt lat="36.9446369" lon="9.9155683"><ele>40.0</ele><time>2026-05-03T09:58:46.063Z</time></trkpt><trkpt lat="36.9444629" lon="9.9154734"><ele>40.0</ele><time>2026-05-03T09:58:47.073Z</time></trkpt><trkpt lat="36.9442882" lon="9.9153853"><ele>40.333333333333336</ele><time>2026-05-03T09:58:48.086Z</time></trkpt><trkpt lat="36.9441133" lon="9.9152994"><ele>40.666666666666664</ele><time>2026-05-03T09:58:49.066Z</time></trkpt><trkpt lat="36.9439329" lon="9.9152123"><ele>41.0</ele><time>2026-05-03T09:58:50.05Z</time></trkpt><trkpt lat="36.9437539" lon="9.9151296"><ele>41.0</ele><time>2026-05-03T09:58:51.071Z</time></trkpt><trkpt lat="36.9435735" lon="9.9150471"><ele>41.0</ele><time>2026-05-03T09:58:52.072Z</time></trkpt><trkpt lat="36.9433906" lon="9.9149649"><ele>41.0</ele><time>2026-05-03T09:58:53.081Z</time></trkpt><trkpt lat="36.9432056" lon="9.9148865"><ele>41.0</ele><time>2026-05-03T09:58:54.038Z</time></trkpt><trkpt lat="36.943017" lon="9.9148134"><ele>41.0</ele><time>2026-05-03T09:58:55.069Z</time></trkpt><trkpt lat="36.9428227" lon="9.9147383"><ele>41.0</ele><time>2026-05-03T09:58:56.077Z</time></trkpt><trkpt lat="36.9426284" lon="9.9146628"><ele>41.0</ele><time>2026-05-03T09:58:57.078Z</time></trkpt><trkpt lat="36.9424399" lon="9.9145873"><ele>41.0</ele><time>2026-05-03T09:58:58.077Z</time></trkpt><trkpt lat="36.9422486" lon="9.914513"><ele>41.0</ele><time>2026-05-03T09:58:59.101Z</time></trkpt><trkpt lat="36.9420578" lon="9.9144406"><ele>41.0</ele><time>2026-05-03T09:59:00.062Z</time></trkpt><trkpt lat="36.9418703" lon="9.9143625"><ele>41.0</ele><time>2026-05-03T09:59:01.066Z</time></trkpt><trkpt lat="36.9416811" lon="9.9142894"><ele>41.0</ele><time>2026-05-03T09:59:02.086Z</time></trkpt><trkpt lat="36.9414949" lon="9.9142135"><ele>41.666666666666664</ele><time>2026-05-03T09:59:03.065Z</time></trkpt><trkpt lat="36.941314" lon="9.9141422"><ele>42.333333333333336</ele><time>2026-05-03T09:59:04.046Z</time></trkpt><trkpt lat="36.9411323" lon="9.9140746"><ele>43.0</ele><time>2026-05-03T09:59:05.072Z</time></trkpt><trkpt lat="36.9409565" lon="9.9140131"><ele>42.66666666666667</ele><time>2026-05-03T09:59:06.064Z</time></trkpt><trkpt lat="36.9407852" lon="9.9139464"><ele>42.333333333333336</ele><time>2026-05-03T09:59:07.089Z</time></trkpt><trkpt lat="36.9406244" lon="9.9138869"><ele>42.0</ele><time>2026-05-03T09:59:08.089Z</time></trkpt><trkpt lat="36.9404777" lon="9.913831"><ele>42.0</ele><time>2026-05-03T09:59:09.051Z</time></trkpt><trkpt lat="36.9403432" lon="9.9137794"><ele>42.0</ele><time>2026-05-03T09:59:10.079Z</time></trkpt><trkpt lat="36.9402199" lon="9.9137313"><ele>42.0</ele><time>2026-05-03T09:59:11.072Z</time></trkpt><trkpt lat="36.9400923" lon="9.91368"><ele>42.0</ele><time>2026-05-03T09:59:12.06Z</time></trkpt><trkpt lat="36.939963" lon="9.9136201"><ele>42.25</ele><time>2026-05-03T09:59:13.047Z</time></trkpt><trkpt lat="36.9398282" lon="9.9135516"><ele>42.5</ele><time>2026-05-03T09:59:14.051Z</time></trkpt><trkpt lat="36.9396994" lon="9.9134742"><ele>42.75</ele><time>2026-05-03T09:59:15.065Z</time></trkpt><trkpt lat="36.9395722" lon="9.9133879"><ele>43.0</ele><time>2026-05-03T09:59:16.104Z</time></trkpt><trkpt lat="36.9394556" lon="9.9132868"><ele>43.5</ele><time>2026-05-03T09:59:17.084Z</time></trkpt><trkpt lat="36.939344" lon="9.9131764"><ele>44.0</ele><time>2026-05-03T09:59:18.084Z</time></trkpt><trkpt lat="36.9392372" lon="9.9130588"><ele>44.5</ele><time>2026-05-03T09:59:19.078Z</time></trkpt><trkpt lat="36.9391425" lon="9.912932"><ele>45.0</ele><time>2026-05-03T09:59:20.083Z</time></trkpt><trkpt lat="36.9390538" lon="9.9127861"><ele>45.0</ele><time>2026-05-03T09:59:21.068Z</time></trkpt><trkpt lat="36.9389795" lon="9.9126242"><ele>45.0</ele><time>2026-05-03T09:59:22.09Z</time></trkpt><trkpt lat="36.9389038" lon="9.9124459"><ele>45.0</ele><time>2026-05-03T09:59:23.093Z</time></trkpt><trkpt lat="36.9388277" lon="9.9122648"><ele>46.0</ele><time>2026-05-03T09:59:24.096Z</time></trkpt><trkpt lat="36.93875" lon="9.9120812"><ele>47.0</ele><time>2026-05-03T09:59:25.099Z</time></trkpt><trkpt lat="36.9386718" lon="9.9118914"><ele>48.0</ele><time>2026-05-03T09:59:26.097Z</time></trkpt><trkpt lat="36.9385919" lon="9.9116973"><ele>48.0</ele><time>2026-05-03T09:59:27.082Z</time></trkpt><trkpt lat="36.938515" lon="9.9115019"><ele>48.0</ele><time>2026-05-03T09:59:28.089Z</time></trkpt><trkpt lat="36.9384434" lon="9.9113045"><ele>48.0</ele><time>2026-05-03T09:59:29.088Z</time></trkpt><trkpt lat="36.9383689" lon="9.9111041"><ele>46.666666666666664</ele><time>2026-05-03T09:59:30.09Z</time></trkpt><trkpt lat="36.9382794" lon="9.910896"><ele>45.33333333333333</ele><time>2026-05-03T09:59:31.097Z</time></trkpt><trkpt lat="36.9381707" lon="9.910692"><ele>44.0</ele><time>2026-05-03T09:59:32.048Z</time></trkpt><trkpt lat="36.9380575" lon="9.9104963"><ele>44.0</ele><time>2026-05-03T09:59:33.093Z</time></trkpt><trkpt lat="36.9379397" lon="9.9103063"><ele>44.0</ele><time>2026-05-03T09:59:34.09Z</time></trkpt><trkpt lat="36.9378172" lon="9.910126"><ele>44.0</ele><time>2026-05-03T09:59:35.104Z</time></trkpt><trkpt lat="36.9377044" lon="9.9099501"><ele>44.666666666666664</ele><time>2026-05-03T09:59:36.092Z</time></trkpt><trkpt lat="36.9375926" lon="9.9097718"><ele>45.333333333333336</ele><time>2026-05-03T09:59:37.093Z</time></trkpt><trkpt lat="36.9374824" lon="9.9095923"><ele>46.0</ele><time>2026-05-03T09:59:38.094Z</time></trkpt><trkpt lat="36.9373794" lon="9.9094101"><ele>46.66666666666667</ele><time>2026-05-03T09:59:39.093Z</time></trkpt><trkpt lat="36.9372856" lon="9.9092267"><ele>47.333333333333336</ele><time>2026-05-03T09:59:40.088Z</time></trkpt><trkpt lat="36.9371943" lon="9.9090437"><ele>48.0</ele><time>2026-05-03T09:59:41.055Z</time></trkpt><trkpt lat="36.9371035" lon="9.9088574"><ele>48.0</ele><time>2026-05-03T09:59:42.092Z</time></trkpt><trkpt lat="36.9370124" lon="9.908673"><ele>48.0</ele><time>2026-05-03T09:59:43.11Z</time></trkpt><trkpt lat="36.9369151" lon="9.9084901"><ele>48.0</ele><time>2026-05-03T09:59:44.091Z</time></trkpt><trkpt lat="36.9367987" lon="9.9083176"><ele>47.0</ele><time>2026-05-03T09:59:45.095Z</time></trkpt><trkpt lat="36.9366734" lon="9.9081538"><ele>46.0</ele><time>2026-05-03T09:59:46.073Z</time></trkpt><trkpt lat="36.9365379" lon="9.9080021"><ele>45.0</ele><time>2026-05-03T09:59:47.087Z</time></trkpt><trkpt lat="36.9364029" lon="9.9078534"><ele>45.0</ele><time>2026-05-03T09:59:48.091Z</time></trkpt><trkpt lat="36.9362647" lon="9.9077105"><ele>45.0</ele><time>2026-05-03T09:59:49.092Z</time></trkpt><trkpt lat="36.9361332" lon="9.9075552"><ele>45.0</ele><time>2026-05-03T09:59:50.094Z</time></trkpt><trkpt lat="36.9360075" lon="9.9073949"><ele>44.666666666666664</ele><time>2026-05-03T09:59:51.093Z</time></trkpt><trkpt lat="36.9358897" lon="9.9072236"><ele>44.33333333333333</ele><time>2026-05-03T09:59:52.086Z</time></trkpt><trkpt lat="36.9357725" lon="9.9070544"><ele>44.0</ele><time>2026-05-03T09:59:53.068Z</time></trkpt><trkpt lat="36.9356582" lon="9.9068826"><ele>44.33333333333333</ele><time>2026-05-03T09:59:54.096Z</time></trkpt><trkpt lat="36.9355395" lon="9.9067149"><ele>44.666666666666664</ele><time>2026-05-03T09:59:55.095Z</time></trkpt><trkpt lat="36.9354259" lon="9.906554"><ele>45.0</ele><time>2026-05-03T09:59:56.096Z</time></trkpt><trkpt lat="36.9353136" lon="9.9063826"><ele>45.0</ele><time>2026-05-03T09:59:57.095Z</time></trkpt><trkpt lat="36.9351994" lon="9.9062145"><ele>45.0</ele><time>2026-05-03T09:59:58.075Z</time></trkpt><trkpt lat="36.9350798" lon="9.9060399"><ele>45.0</ele><time>2026-05-03T09:59:59.085Z</time></trkpt><trkpt lat="36.9349567" lon="9.9058639"><ele>43.666666666666664</ele><time>2026-05-03T10:00:00.084Z</time></trkpt><trkpt lat="36.9348333" lon="9.9056799"><ele>42.33333333333333</ele><time>2026-05-03T10:00:01.085Z</time></trkpt><trkpt lat="36.9347075" lon="9.9054962"><ele>41.0</ele><time>2026-05-03T10:00:02.089Z</time></trkpt><trkpt lat="36.934581" lon="9.9053081"><ele>41.0</ele><time>2026-05-03T10:00:03.076Z</time></trkpt><trkpt lat="36.9344522" lon="9.9051227"><ele>41.0</ele><time>2026-05-03T10:00:04.097Z</time></trkpt><trkpt lat="36.934325" lon="9.9049422"><ele>41.0</ele><time>2026-05-03T10:00:05.087Z</time></trkpt><trkpt lat="36.9342003" lon="9.9047604"><ele>39.0</ele><time>2026-05-03T10:00:06.087Z</time></trkpt><trkpt lat="36.9340828" lon="9.9045803"><ele>37.0</ele><time>2026-05-03T10:00:07.051Z</time></trkpt><trkpt lat="36.9339716" lon="9.9043886"><ele>35.0</ele><time>2026-05-03T10:00:08.097Z</time></trkpt><trkpt lat="36.933863" lon="9.9041948"><ele>35.0</ele><time>2026-05-03T10:00:09.086Z</time></trkpt><trkpt lat="36.9337609" lon="9.9040088"><ele>35.0</ele><time>2026-05-03T10:00:10.092Z</time></trkpt><trkpt lat="36.9336615" lon="9.9038163"><ele>35.0</ele><time>2026-05-03T10:00:11.087Z</time></trkpt><trkpt lat="36.9335601" lon="9.903625"><ele>35.0</ele><time>2026-05-03T10:00:12.076Z</time></trkpt><trkpt lat="36.9334673" lon="9.9034281"><ele>35.0</ele><time>2026-05-03T10:00:13.076Z</time></trkpt><trkpt lat="36.9333823" lon="9.9032202"><ele>35.0</ele><time>2026-05-03T10:00:14.091Z</time></trkpt><trkpt lat="36.933305" lon="9.9030086"><ele>35.0</ele><time>2026-05-03T10:00:15.086Z</time></trkpt><trkpt lat="36.933234" lon="9.9027874"><ele>35.0</ele><time>2026-05-03T10:00:16.077Z</time></trkpt><trkpt lat="36.9331673" lon="9.9025628"><ele>35.0</ele><time>2026-05-03T10:00:17.085Z</time></trkpt><trkpt lat="36.9331101" lon="9.9023416"><ele>35.0</ele><time>2026-05-03T10:00:18.087Z</time></trkpt><trkpt lat="36.9330572" lon="9.9021193"><ele>35.0</ele><time>2026-05-03T10:00:19.083Z</time></trkpt><trkpt lat="36.9330062" lon="9.9019077"><ele>35.0</ele><time>2026-05-03T10:00:20.072Z</time></trkpt><trkpt lat="36.9329421" lon="9.9017159"><ele>35.33333333333333</ele><time>2026-05-03T10:00:21.098Z</time></trkpt><trkpt lat="36.932877" lon="9.9015421"><ele>35.666666666666664</ele><time>2026-05-03T10:00:22.097Z</time></trkpt><trkpt lat="36.9328019" lon="9.9013784"><ele>36.0</ele><time>2026-05-03T10:00:23.083Z</time></trkpt><trkpt lat="36.9327105" lon="9.9012287"><ele>36.0</ele><time>2026-05-03T10:00:24.064Z</time></trkpt><trkpt lat="36.9325978" lon="9.9010893"><ele>36.0</ele><time>2026-05-03T10:00:25.099Z</time></trkpt><trkpt lat="36.9324652" lon="9.9009543"><ele>36.0</ele><time>2026-05-03T10:00:26.085Z</time></trkpt><trkpt lat="36.9323285" lon="9.9008216"><ele>34.666666666666664</ele><time>2026-05-03T10:00:27.089Z</time></trkpt><trkpt lat="36.9321848" lon="9.900695"><ele>33.33333333333333</ele><time>2026-05-03T10:00:28.092Z</time></trkpt><trkpt lat="36.9320395" lon="9.9005599"><ele>32.0</ele><time>2026-05-03T10:00:29.082Z</time></trkpt><trkpt lat="36.9318851" lon="9.900422"><ele>32.0</ele><time>2026-05-03T10:00:30.08Z</time></trkpt><trkpt lat="36.9317246" lon="9.9002872"><ele>32.0</ele><time>2026-05-03T10:00:31.091Z</time></trkpt><trkpt lat="36.9315676" lon="9.900146"><ele>32.0</ele><time>2026-05-03T10:00:32.091Z</time></trkpt><trkpt lat="36.931416" lon="9.8999967"><ele>32.0</ele><time>2026-05-03T10:00:33.094Z</time></trkpt><trkpt lat="36.9312628" lon="9.8998448"><ele>32.0</ele><time>2026-05-03T10:00:34.064Z</time></trkpt><trkpt lat="36.9311216" lon="9.8996828"><ele>32.0</ele><time>2026-05-03T10:00:35.051Z</time></trkpt><trkpt lat="36.9309864" lon="9.8995045"><ele>32.0</ele><time>2026-05-03T10:00:36.081Z</time></trkpt><trkpt lat="36.9308627" lon="9.8993276"><ele>32.0</ele><time>2026-05-03T10:00:37.089Z</time></trkpt><trkpt lat="36.9307481" lon="9.8991354"><ele>32.0</ele><time>2026-05-03T10:00:38.108Z</time></trkpt><trkpt lat="36.9306318" lon="9.8989432"><ele>32.0</ele><time>2026-05-03T10:00:39.054Z</time></trkpt><trkpt lat="36.9305163" lon="9.8987548"><ele>32.0</ele><time>2026-05-03T10:00:40.084Z</time></trkpt><trkpt lat="36.9303959" lon="9.8985915"><ele>32.0</ele><time>2026-05-03T10:00:41.045Z</time></trkpt><trkpt lat="36.9302646" lon="9.8984319"><ele>32.33333333333333</ele><time>2026-05-03T10:00:42.085Z</time></trkpt><trkpt lat="36.9301215" lon="9.8982862"><ele>32.666666666666664</ele><time>2026-05-03T10:00:43.081Z</time></trkpt><trkpt lat="36.9299683" lon="9.8981559"><ele>33.0</ele><time>2026-05-03T10:00:44.069Z</time></trkpt><trkpt lat="36.9298147" lon="9.8980306"><ele>33.0</ele><time>2026-05-03T10:00:45.061Z</time></trkpt><trkpt lat="36.9296684" lon="9.8979149"><ele>33.0</ele><time>2026-05-03T10:00:46.088Z</time></trkpt><trkpt lat="36.9295435" lon="9.8977932"><ele>33.0</ele><time>2026-05-03T10:00:47.092Z</time></trkpt><trkpt lat="36.9294381" lon="9.8976597"><ele>33.666666666666664</ele><time>2026-05-03T10:00:48.089Z</time></trkpt><trkpt lat="36.9293479" lon="9.8975045"><ele>34.33333333333333</ele><time>2026-05-03T10:00:49.086Z</time></trkpt><trkpt lat="36.9292587" lon="9.8973484"><ele>35.0</ele><time>2026-05-03T10:00:50.077Z</time></trkpt><trkpt lat="36.9291684" lon="9.8971913"><ele>35.0</ele><time>2026-05-03T10:00:51.094Z</time></trkpt><trkpt lat="36.9290902" lon="9.8970276"><ele>35.0</ele><time>2026-05-03T10:00:52.081Z</time></trkpt><trkpt lat="36.9290139" lon="9.8968533"><ele>35.0</ele><time>2026-05-03T10:00:53.089Z</time></trkpt><trkpt lat="36.9289392" lon="9.8966652"><ele>35.33333333333333</ele><time>2026-05-03T10:00:54.084Z</time></trkpt><trkpt lat="36.9288709" lon="9.8964671"><ele>35.666666666666664</ele><time>2026-05-03T10:00:55.091Z</time></trkpt><trkpt lat="36.9287994" lon="9.8962635"><ele>36.0</ele><time>2026-05-03T10:00:56.083Z</time></trkpt><trkpt lat="36.9287297" lon="9.8960554"><ele>36.333333333333336</ele><time>2026-05-03T10:00:57.047Z</time></trkpt><trkpt lat="36.928658" lon="9.8958547"><ele>36.66666666666667</ele><time>2026-05-03T10:00:58.069Z</time></trkpt><trkpt lat="36.92859" lon="9.8956554"><ele>37.0</ele><time>2026-05-03T10:00:59.065Z</time></trkpt><trkpt lat="36.928523" lon="9.8954521"><ele>37.0</ele><time>2026-05-03T10:01:00.068Z</time></trkpt><trkpt lat="36.9284542" lon="9.8952522"><ele>37.0</ele><time>2026-05-03T10:01:01.063Z</time></trkpt><trkpt lat="36.9283844" lon="9.8950529"><ele>37.0</ele><time>2026-05-03T10:01:02.067Z</time></trkpt><trkpt lat="36.9283191" lon="9.8948473"><ele>37.333333333333336</ele><time>2026-05-03T10:01:03.061Z</time></trkpt><trkpt lat="36.9282514" lon="9.8946419"><ele>37.666666666666664</ele><time>2026-05-03T10:01:04.09Z</time></trkpt><trkpt lat="36.9281767" lon="9.8944427"><ele>38.0</ele><time>2026-05-03T10:01:05.09Z</time></trkpt><trkpt lat="36.9281059" lon="9.894246"><ele>38.0</ele><time>2026-05-03T10:01:06.095Z</time></trkpt><trkpt lat="36.9280269" lon="9.8940464"><ele>38.0</ele><time>2026-05-03T10:01:07.061Z</time></trkpt><trkpt lat="36.9279441" lon="9.8938505"><ele>38.0</ele><time>2026-05-03T10:01:08.086Z</time></trkpt><trkpt lat="36.9278556" lon="9.8936546"><ele>38.0</ele><time>2026-05-03T10:01:09.054Z</time></trkpt><trkpt lat="36.9277687" lon="9.8934571"><ele>38.0</ele><time>2026-05-03T10:01:10.089Z</time></trkpt><trkpt lat="36.9276815" lon="9.8932648"><ele>38.0</ele><time>2026-05-03T10:01:11.091Z</time></trkpt><trkpt lat="36.9275855" lon="9.8930741"><ele>37.666666666666664</ele><time>2026-05-03T10:01:12.075Z</time></trkpt><trkpt lat="36.9274893" lon="9.8928857"><ele>37.333333333333336</ele><time>2026-05-03T10:01:13.064Z</time></trkpt><trkpt lat="36.927391" lon="9.8926937"><ele>37.0</ele><time>2026-05-03T10:01:14.082Z</time></trkpt><trkpt lat="36.9272964" lon="9.8925025"><ele>38.333333333333336</ele><time>2026-05-03T10:01:15.108Z</time></trkpt><trkpt lat="36.9272001" lon="9.892318"><ele>39.666666666666664</ele><time>2026-05-03T10:01:16.065Z</time></trkpt><trkpt lat="36.9270956" lon="9.8921321"><ele>41.0</ele><time>2026-05-03T10:01:17.068Z</time></trkpt><trkpt lat="36.9269898" lon="9.8919479"><ele>41.0</ele><time>2026-05-03T10:01:18.05Z</time></trkpt><trkpt lat="36.9268845" lon="9.8917662"><ele>41.0</ele><time>2026-05-03T10:01:19.082Z</time></trkpt><trkpt lat="36.9267794" lon="9.8915841"><ele>41.0</ele><time>2026-05-03T10:01:20.045Z</time></trkpt><trkpt lat="36.9266669" lon="9.8914073"><ele>41.0</ele><time>2026-05-03T10:01:21.101Z</time></trkpt><trkpt lat="36.9265543" lon="9.8912341"><ele>41.0</ele><time>2026-05-03T10:01:22.092Z</time></trkpt><trkpt lat="36.9264424" lon="9.8910725"><ele>41.0</ele><time>2026-05-03T10:01:23.064Z</time></trkpt><trkpt lat="36.9263361" lon="9.890915"><ele>41.0</ele><time>2026-05-03T10:01:24.084Z</time></trkpt><trkpt lat="36.9262314" lon="9.890763"><ele>41.0</ele><time>2026-05-03T10:01:25.096Z</time></trkpt><trkpt lat="36.9261359" lon="9.8906185"><ele>41.0</ele><time>2026-05-03T10:01:26.09Z</time></trkpt><trkpt lat="36.9260441" lon="9.8904923"><ele>41.0</ele><time>2026-05-03T10:01:27.065Z</time></trkpt><trkpt lat="36.9259595" lon="9.8903883"><ele>40.8</ele><time>2026-05-03T10:01:28.085Z</time></trkpt><trkpt lat="36.925892" lon="9.8902927"><ele>40.599999999999994</ele><time>2026-05-03T10:01:29.099Z</time></trkpt><trkpt lat="36.925833" lon="9.8901956"><ele>40.4</ele><time>2026-05-03T10:01:30.082Z</time></trkpt><trkpt lat="36.925773" lon="9.8901093"><ele>40.2</ele><time>2026-05-03T10:01:31.086Z</time></trkpt><trkpt lat="36.9256967" lon="9.8900127"><ele>40.0</ele><time>2026-05-03T10:01:32.08Z</time></trkpt><trkpt lat="36.925621" lon="9.8899075"><ele>40.75</ele><time>2026-05-03T10:01:33.068Z</time></trkpt><trkpt lat="36.9255389" lon="9.8898034"><ele>41.5</ele><time>2026-05-03T10:01:34.09Z</time></trkpt><trkpt lat="36.9254536" lon="9.8896982"><ele>42.25</ele><time>2026-05-03T10:01:35.094Z</time></trkpt><trkpt lat="36.9253641" lon="9.889605"><ele>43.0</ele><time>2026-05-03T10:01:36.088Z</time></trkpt><trkpt lat="36.92527" lon="9.8895108"><ele>43.0</ele><time>2026-05-03T10:01:37.091Z</time></trkpt><trkpt lat="36.9251795" lon="9.8894365"><ele>43.0</ele><time>2026-05-03T10:01:38.091Z</time></trkpt><trkpt lat="36.9250906" lon="9.8893748"><ele>43.0</ele><time>2026-05-03T10:01:39.079Z</time></trkpt><trkpt lat="36.9249989" lon="9.8893118"><ele>43.0</ele><time>2026-05-03T10:01:40.078Z</time></trkpt><trkpt lat="36.9248954" lon="9.889241"><ele>43.0</ele><time>2026-05-03T10:01:41.085Z</time></trkpt><trkpt lat="36.9247832" lon="9.8891806"><ele>42.25</ele><time>2026-05-03T10:01:42.07Z</time></trkpt><trkpt lat="36.9246656" lon="9.889122"><ele>41.5</ele><time>2026-05-03T10:01:43.07Z</time></trkpt><trkpt lat="36.9245439" lon="9.8890608"><ele>40.75</ele><time>2026-05-03T10:01:44.069Z</time></trkpt><trkpt lat="36.9244176" lon="9.8890026"><ele>40.0</ele><time>2026-05-03T10:01:45.077Z</time></trkpt><trkpt lat="36.9242908" lon="9.8889417"><ele>39.25</ele><time>2026-05-03T10:01:46.088Z</time></trkpt><trkpt lat="36.9241617" lon="9.8888825"><ele>38.5</ele><time>2026-05-03T10:01:47.095Z</time></trkpt><trkpt lat="36.9240265" lon="9.8888227"><ele>37.75</ele><time>2026-05-03T10:01:48.086Z</time></trkpt><trkpt lat="36.9238881" lon="9.8887586"><ele>37.0</ele><time>2026-05-03T10:01:49.09Z</time></trkpt><trkpt lat="36.9237485" lon="9.8886802"><ele>37.0</ele><time>2026-05-03T10:01:50.07Z</time></trkpt><trkpt lat="36.9236076" lon="9.8885785"><ele>37.0</ele><time>2026-05-03T10:01:51.087Z</time></trkpt><trkpt lat="36.9234724" lon="9.8884708"><ele>37.0</ele><time>2026-05-03T10:01:52.071Z</time></trkpt><trkpt lat="36.9233434" lon="9.8883539"><ele>36.66666666666667</ele><time>2026-05-03T10:01:53.079Z</time></trkpt><trkpt lat="36.923216" lon="9.8882277"><ele>36.333333333333336</ele><time>2026-05-03T10:01:54.068Z</time></trkpt><trkpt lat="36.9230883" lon="9.8881036"><ele>36.0</ele><time>2026-05-03T10:01:55.087Z</time></trkpt><trkpt lat="36.9229612" lon="9.8879761"><ele>36.0</ele><time>2026-05-03T10:01:56.072Z</time></trkpt><trkpt lat="36.9228362" lon="9.8878561"><ele>36.0</ele><time>2026-05-03T10:01:57.08Z</time></trkpt><trkpt lat="36.9227091" lon="9.8877339"><ele>36.0</ele><time>2026-05-03T10:01:58.078Z</time></trkpt><trkpt lat="36.9225749" lon="9.8876142"><ele>36.0</ele><time>2026-05-03T10:01:59.083Z</time></trkpt><trkpt lat="36.9224359" lon="9.8875054"><ele>36.0</ele><time>2026-05-03T10:02:00.066Z</time></trkpt><trkpt lat="36.9222965" lon="9.8874076"><ele>36.0</ele><time>2026-05-03T10:02:01.064Z</time></trkpt><trkpt lat="36.9221529" lon="9.887312"><ele>36.0</ele><time>2026-05-03T10:02:02.086Z</time></trkpt><trkpt lat="36.9220098" lon="9.8872206"><ele>36.0</ele><time>2026-05-03T10:02:03.101Z</time></trkpt><trkpt lat="36.9218666" lon="9.8871244"><ele>36.0</ele><time>2026-05-03T10:02:04.069Z</time></trkpt><trkpt lat="36.9217205" lon="9.8870305"><ele>35.666666666666664</ele><time>2026-05-03T10:02:05.09Z</time></trkpt><trkpt lat="36.921571" lon="9.8869375"><ele>35.33333333333333</ele><time>2026-05-03T10:02:06.063Z</time></trkpt><trkpt lat="36.9214233" lon="9.8868432"><ele>35.0</ele><time>2026-05-03T10:02:07.086Z</time></trkpt><trkpt lat="36.9212735" lon="9.8867444"><ele>35.666666666666664</ele><time>2026-05-03T10:02:08.037Z</time></trkpt><trkpt lat="36.9211207" lon="9.8866494"><ele>36.333333333333336</ele><time>2026-05-03T10:02:09.059Z</time></trkpt><trkpt lat="36.9209719" lon="9.8865521"><ele>37.0</ele><time>2026-05-03T10:02:10.098Z</time></trkpt><trkpt lat="36.9208241" lon="9.8864586"><ele>37.0</ele><time>2026-05-03T10:02:11.086Z</time></trkpt><trkpt lat="36.9206765" lon="9.8863631"><ele>37.0</ele><time>2026-05-03T10:02:12.073Z</time></trkpt><trkpt lat="36.9205326" lon="9.8862726"><ele>37.0</ele><time>2026-05-03T10:02:13.077Z</time></trkpt><trkpt lat="36.9203955" lon="9.8861618"><ele>37.0</ele><time>2026-05-03T10:02:14.083Z</time></trkpt><trkpt lat="36.9202627" lon="9.8860442"><ele>37.0</ele><time>2026-05-03T10:02:15.074Z</time></trkpt><trkpt lat="36.9201222" lon="9.8859377"><ele>37.0</ele><time>2026-05-03T10:02:16.071Z</time></trkpt><trkpt lat="36.9199867" lon="9.885824"><ele>37.0</ele><time>2026-05-03T10:02:17.088Z</time></trkpt><trkpt lat="36.9198412" lon="9.8857236"><ele>37.0</ele><time>2026-05-03T10:02:18.093Z</time></trkpt><trkpt lat="36.919691" lon="9.8856226"><ele>37.0</ele><time>2026-05-03T10:02:19.083Z</time></trkpt><trkpt lat="36.9195425" lon="9.8855212"><ele>37.0</ele><time>2026-05-03T10:02:20.077Z</time></trkpt><trkpt lat="36.9193905" lon="9.8854271"><ele>37.0</ele><time>2026-05-03T10:02:21.077Z</time></trkpt><trkpt lat="36.9192325" lon="9.8853384"><ele>37.0</ele><time>2026-05-03T10:02:22.079Z</time></trkpt><trkpt lat="36.9190667" lon="9.8852488"><ele>37.0</ele><time>2026-05-03T10:02:23.085Z</time></trkpt><trkpt lat="36.9188992" lon="9.8851502"><ele>37.0</ele><time>2026-05-03T10:02:24.101Z</time></trkpt><trkpt lat="36.9187297" lon="9.8850575"><ele>37.0</ele><time>2026-05-03T10:02:25.087Z</time></trkpt><trkpt lat="36.918558" lon="9.8849693"><ele>36.333333333333336</ele><time>2026-05-03T10:02:26.099Z</time></trkpt><trkpt lat="36.9183876" lon="9.8848817"><ele>35.666666666666664</ele><time>2026-05-03T10:02:27.084Z</time></trkpt><trkpt lat="36.9182199" lon="9.8848019"><ele>35.0</ele><time>2026-05-03T10:02:28.09Z</time></trkpt><trkpt lat="36.9180508" lon="9.8847169"><ele>35.0</ele><time>2026-05-03T10:02:29.091Z</time></trkpt><trkpt lat="36.9178762" lon="9.8846312"><ele>35.0</ele><time>2026-05-03T10:02:30.092Z</time></trkpt><trkpt lat="36.9177031" lon="9.8845422"><ele>35.0</ele><time>2026-05-03T10:02:31.046Z</time></trkpt><trkpt lat="36.9175257" lon="9.8844645"><ele>35.33333333333333</ele><time>2026-05-03T10:02:32.051Z</time></trkpt><trkpt lat="36.9173451" lon="9.8843923"><ele>35.666666666666664</ele><time>2026-05-03T10:02:33.093Z</time></trkpt><trkpt lat="36.9171644" lon="9.8843249"><ele>36.0</ele><time>2026-05-03T10:02:34.093Z</time></trkpt><trkpt lat="36.916981" lon="9.8842651"><ele>36.0</ele><time>2026-05-03T10:02:35.077Z</time></trkpt><trkpt lat="36.9167988" lon="9.8841952"><ele>36.0</ele><time>2026-05-03T10:02:36.102Z</time></trkpt><trkpt lat="36.9166145" lon="9.8841051"><ele>36.0</ele><time>2026-05-03T10:02:37.094Z</time></trkpt><trkpt lat="36.9164323" lon="9.8840023"><ele>36.666666666666664</ele><time>2026-05-03T10:02:38.089Z</time></trkpt><trkpt lat="36.9162481" lon="9.8839036"><ele>37.33333333333333</ele><time>2026-05-03T10:02:39.093Z</time></trkpt><trkpt lat="36.9160615" lon="9.8838083"><ele>38.0</ele><time>2026-05-03T10:02:40.09Z</time></trkpt><trkpt lat="36.9158795" lon="9.8837058"><ele>38.0</ele><time>2026-05-03T10:02:41.097Z</time></trkpt><trkpt lat="36.9157003" lon="9.8835954"><ele>38.0</ele><time>2026-05-03T10:02:42.051Z</time></trkpt><trkpt lat="36.9155189" lon="9.8834945"><ele>38.0</ele><time>2026-05-03T10:02:43.098Z</time></trkpt><trkpt lat="36.9153339" lon="9.8833956"><ele>38.0</ele><time>2026-05-03T10:02:44.09Z</time></trkpt><trkpt lat="36.915142" lon="9.8832982"><ele>38.0</ele><time>2026-05-03T10:02:45.062Z</time></trkpt><trkpt lat="36.9149595" lon="9.8832033"><ele>38.0</ele><time>2026-05-03T10:02:46.089Z</time></trkpt><trkpt lat="36.9147785" lon="9.8831091"><ele>38.0</ele><time>2026-05-03T10:02:47.071Z</time></trkpt><trkpt lat="36.9145955" lon="9.8830114"><ele>38.0</ele><time>2026-05-03T10:02:48.086Z</time></trkpt><trkpt lat="36.9144142" lon="9.8829153"><ele>38.0</ele><time>2026-05-03T10:02:49.081Z</time></trkpt><trkpt lat="36.9142308" lon="9.8828267"><ele>38.0</ele><time>2026-05-03T10:02:50.084Z</time></trkpt><trkpt lat="36.9140453" lon="9.8827427"><ele>38.0</ele><time>2026-05-03T10:02:51.087Z</time></trkpt><trkpt lat="36.9138585" lon="9.8826554"><ele>38.0</ele><time>2026-05-03T10:02:52.091Z</time></trkpt><trkpt lat="36.9136716" lon="9.8825767"><ele>37.666666666666664</ele><time>2026-05-03T10:02:53.09Z</time></trkpt><trkpt lat="36.9134838" lon="9.8824907"><ele>37.333333333333336</ele><time>2026-05-03T10:02:54.093Z</time></trkpt><trkpt lat="36.9132948" lon="9.8824031"><ele>37.0</ele><time>2026-05-03T10:02:55.094Z</time></trkpt><trkpt lat="36.9131081" lon="9.8823193"><ele>36.66666666666667</ele><time>2026-05-03T10:02:56.092Z</time></trkpt><trkpt lat="36.9129234" lon="9.8822446"><ele>36.333333333333336</ele><time>2026-05-03T10:02:57.089Z</time></trkpt><trkpt lat="36.9127382" lon="9.8821673"><ele>36.0</ele><time>2026-05-03T10:02:58.103Z</time></trkpt><trkpt lat="36.9125655" lon="9.8820947"><ele>35.333333333333336</ele><time>2026-05-03T10:02:59.087Z</time></trkpt><trkpt lat="36.912413" lon="9.8820328"><ele>34.66666666666667</ele><time>2026-05-03T10:03:00.058Z</time></trkpt><trkpt lat="36.9122699" lon="9.8819756"><ele>34.0</ele><time>2026-05-03T10:03:01.068Z</time></trkpt><trkpt lat="36.912136" lon="9.8819206"><ele>34.0</ele><time>2026-05-03T10:03:02.099Z</time></trkpt><trkpt lat="36.9120045" lon="9.8818674"><ele>34.0</ele><time>2026-05-03T10:03:03.092Z</time></trkpt><trkpt lat="36.9118687" lon="9.8818079"><ele>34.0</ele><time>2026-05-03T10:03:04.088Z</time></trkpt><trkpt lat="36.9117177" lon="9.8817347"><ele>34.0</ele><time>2026-05-03T10:03:05.089Z</time></trkpt><trkpt lat="36.9115496" lon="9.8816602"><ele>34.0</ele><time>2026-05-03T10:03:06.105Z</time></trkpt><trkpt lat="36.9113792" lon="9.8815913"><ele>34.0</ele><time>2026-05-03T10:03:07.104Z</time></trkpt><trkpt lat="36.911204" lon="9.8815225"><ele>34.0</ele><time>2026-05-03T10:03:08.099Z</time></trkpt><trkpt lat="36.9110276" lon="9.8814552"><ele>34.0</ele><time>2026-05-03T10:03:09.086Z</time></trkpt><trkpt lat="36.9108488" lon="9.8813831"><ele>34.0</ele><time>2026-05-03T10:03:10.093Z</time></trkpt><trkpt lat="36.9106665" lon="9.8813127"><ele>34.0</ele><time>2026-05-03T10:03:11.089Z</time></trkpt><trkpt lat="36.9104804" lon="9.8812401"><ele>34.0</ele><time>2026-05-03T10:03:12.074Z</time></trkpt><trkpt lat="36.910295" lon="9.8811689"><ele>34.0</ele><time>2026-05-03T10:03:13.08Z</time></trkpt><trkpt lat="36.9101075" lon="9.8810997"><ele>34.0</ele><time>2026-05-03T10:03:14.092Z</time></trkpt><trkpt lat="36.9099191" lon="9.8810268"><ele>34.0</ele><time>2026-05-03T10:03:15.064Z</time></trkpt><trkpt lat="36.9097279" lon="9.8809566"><ele>34.0</ele><time>2026-05-03T10:03:16.101Z</time></trkpt><trkpt lat="36.9095472" lon="9.8808876"><ele>34.0</ele><time>2026-05-03T10:03:17.098Z</time></trkpt><trkpt lat="36.9093656" lon="9.8808182"><ele>34.0</ele><time>2026-05-03T10:03:18.08Z</time></trkpt><trkpt lat="36.909186" lon="9.8807491"><ele>34.0</ele><time>2026-05-03T10:03:19.09Z</time></trkpt><trkpt lat="36.9090036" lon="9.8806786"><ele>34.0</ele><time>2026-05-03T10:03:20.09Z</time></trkpt><trkpt lat="36.9088256" lon="9.8806069"><ele>34.0</ele><time>2026-05-03T10:03:21.058Z</time></trkpt><trkpt lat="36.9086459" lon="9.8805355"><ele>34.0</ele><time>2026-05-03T10:03:22.084Z</time></trkpt><trkpt lat="36.9084668" lon="9.8804616"><ele>34.0</ele><time>2026-05-03T10:03:23.091Z</time></trkpt><trkpt lat="36.908289" lon="9.8803974"><ele>34.0</ele><time>2026-05-03T10:03:24.104Z</time></trkpt><trkpt lat="36.9081101" lon="9.8803305"><ele>34.0</ele><time>2026-05-03T10:03:25.089Z</time></trkpt><trkpt lat="36.9079326" lon="9.8802633"><ele>34.0</ele><time>2026-05-03T10:03:26.077Z</time></trkpt><trkpt lat="36.9077618" lon="9.8801888"><ele>34.0</ele><time>2026-05-03T10:03:27.091Z</time></trkpt><trkpt lat="36.907587" lon="9.8801242"><ele>34.0</ele><time>2026-05-03T10:03:28.074Z</time></trkpt><trkpt lat="36.9074183" lon="9.880055"><ele>34.0</ele><time>2026-05-03T10:03:29.082Z</time></trkpt><trkpt lat="36.9072509" lon="9.8799916"><ele>35.66666666666667</ele><time>2026-05-03T10:03:30.095Z</time></trkpt><trkpt lat="36.9070846" lon="9.8799317"><ele>37.333333333333336</ele><time>2026-05-03T10:03:31.076Z</time></trkpt><trkpt lat="36.9069232" lon="9.8798694"><ele>39.0</ele><time>2026-05-03T10:03:32.093Z</time></trkpt><trkpt lat="36.9067671" lon="9.8798101"><ele>38.333333333333336</ele><time>2026-05-03T10:03:33.09Z</time></trkpt><trkpt lat="36.9066129" lon="9.8797556"><ele>37.66666666666667</ele><time>2026-05-03T10:03:34.084Z</time></trkpt><trkpt lat="36.9064645" lon="9.8797001"><ele>37.0</ele><time>2026-05-03T10:03:35.099Z</time></trkpt><trkpt lat="36.9063231" lon="9.8796457"><ele>37.0</ele><time>2026-05-03T10:03:36.094Z</time></trkpt><trkpt lat="36.9061815" lon="9.8795945"><ele>37.0</ele><time>2026-05-03T10:03:37.096Z</time></trkpt><trkpt lat="36.9060494" lon="9.879539"><ele>37.0</ele><time>2026-05-03T10:03:38.097Z</time></trkpt><trkpt lat="36.9059195" lon="9.8794871"><ele>37.0</ele><time>2026-05-03T10:03:39.044Z</time></trkpt><trkpt lat="36.9057918" lon="9.8794349"><ele>36.0</ele><time>2026-05-03T10:03:40.09Z</time></trkpt><trkpt lat="36.9056691" lon="9.8793835"><ele>35.0</ele><time>2026-05-03T10:03:41.106Z</time></trkpt><trkpt lat="36.9055529" lon="9.8793366"><ele>34.0</ele><time>2026-05-03T10:03:42.087Z</time></trkpt><trkpt lat="36.9054408" lon="9.87929"><ele>33.0</ele><time>2026-05-03T10:03:43.072Z</time></trkpt><trkpt lat="36.9053266" lon="9.8792386"><ele>33.0</ele><time>2026-05-03T10:03:44.087Z</time></trkpt><trkpt lat="36.9052118" lon="9.8791847"><ele>33.0</ele><time>2026-05-03T10:03:45.067Z</time></trkpt><trkpt lat="36.9051" lon="9.879128"><ele>33.0</ele><time>2026-05-03T10:03:46.093Z</time></trkpt><trkpt lat="36.9049865" lon="9.8790709"><ele>33.0</ele><time>2026-05-03T10:03:47.077Z</time></trkpt><trkpt lat="36.9048642" lon="9.8790121"><ele>32.333333333333336</ele><time>2026-05-03T10:03:48.089Z</time></trkpt><trkpt lat="36.9047279" lon="9.8789573"><ele>31.666666666666668</ele><time>2026-05-03T10:03:49.059Z</time></trkpt><trkpt lat="36.9045816" lon="9.8789074"><ele>31.0</ele><time>2026-05-03T10:03:50.1Z</time></trkpt><trkpt lat="36.9044222" lon="9.8788548"><ele>31.0</ele><time>2026-05-03T10:03:51.091Z</time></trkpt><trkpt lat="36.904254" lon="9.8787973"><ele>31.0</ele><time>2026-05-03T10:03:52.102Z</time></trkpt><trkpt lat="36.9040814" lon="9.8787352"><ele>31.0</ele><time>2026-05-03T10:03:53.085Z</time></trkpt><trkpt lat="36.9039084" lon="9.8786528"><ele>31.0</ele><time>2026-05-03T10:03:54.092Z</time></trkpt><trkpt lat="36.9037414" lon="9.8785671"><ele>31.0</ele><time>2026-05-03T10:03:55.088Z</time></trkpt><trkpt lat="36.9035777" lon="9.878473"><ele>31.0</ele><time>2026-05-03T10:03:56.086Z</time></trkpt><trkpt lat="36.9034247" lon="9.8783715"><ele>31.0</ele><time>2026-05-03T10:03:57.087Z</time></trkpt><trkpt lat="36.9032747" lon="9.8782565"><ele>31.0</ele><time>2026-05-03T10:03:58.092Z</time></trkpt><trkpt lat="36.9031259" lon="9.8781253"><ele>31.0</ele><time>2026-05-03T10:03:59.084Z</time></trkpt><trkpt lat="36.9029878" lon="9.8779846"><ele>31.0</ele><time>2026-05-03T10:04:00.084Z</time></trkpt><trkpt lat="36.9028506" lon="9.8778376"><ele>31.0</ele><time>2026-05-03T10:04:01.069Z</time></trkpt><trkpt lat="36.9027101" lon="9.8776852"><ele>31.0</ele><time>2026-05-03T10:04:02.089Z</time></trkpt><trkpt lat="36.9025738" lon="9.8775351"><ele>30.666666666666668</ele><time>2026-05-03T10:04:03.089Z</time></trkpt><trkpt lat="36.9024441" lon="9.877378"><ele>30.333333333333336</ele><time>2026-05-03T10:04:04.099Z</time></trkpt><trkpt lat="36.9023155" lon="9.8772189"><ele>30.0</ele><time>2026-05-03T10:04:05.097Z</time></trkpt><trkpt lat="36.9021828" lon="9.8770637"><ele>30.0</ele><time>2026-05-03T10:04:06.091Z</time></trkpt><trkpt lat="36.9020534" lon="9.8769115"><ele>30.0</ele><time>2026-05-03T10:04:07.083Z</time></trkpt><trkpt lat="36.9019278" lon="9.8767672"><ele>30.0</ele><time>2026-05-03T10:04:08.088Z</time></trkpt><trkpt lat="36.9018004" lon="9.87662"><ele>30.0</ele><time>2026-05-03T10:04:09.042Z</time></trkpt><trkpt lat="36.901674" lon="9.8764646"><ele>30.0</ele><time>2026-05-03T10:04:10.094Z</time></trkpt><trkpt lat="36.9015463" lon="9.8763169"><ele>30.0</ele><time>2026-05-03T10:04:11.087Z</time></trkpt><trkpt lat="36.9014211" lon="9.8761692"><ele>30.0</ele><time>2026-05-03T10:04:12.077Z</time></trkpt><trkpt lat="36.9012934" lon="9.8760254"><ele>30.0</ele><time>2026-05-03T10:04:13.089Z</time></trkpt><trkpt lat="36.9011713" lon="9.8758844"><ele>30.0</ele><time>2026-05-03T10:04:14.1Z</time></trkpt><trkpt lat="36.9010536" lon="9.8757456"><ele>30.0</ele><time>2026-05-03T10:04:15.074Z</time></trkpt><trkpt lat="36.9009324" lon="9.8756106"><ele>30.0</ele><time>2026-05-03T10:04:16.097Z</time></trkpt><trkpt lat="36.900822" lon="9.8754708"><ele>30.0</ele><time>2026-05-03T10:04:17.083Z</time></trkpt><trkpt lat="36.9007132" lon="9.8753347"><ele>30.0</ele><time>2026-05-03T10:04:18.089Z</time></trkpt><trkpt lat="36.9005907" lon="9.8752008"><ele>30.0</ele><time>2026-05-03T10:04:19.093Z</time></trkpt><trkpt lat="36.900464" lon="9.8750504"><ele>30.0</ele><time>2026-05-03T10:04:20.092Z</time></trkpt><trkpt lat="36.9003433" lon="9.8748938"><ele>30.333333333333336</ele><time>2026-05-03T10:04:21.073Z</time></trkpt><trkpt lat="36.9002192" lon="9.874735"><ele>30.666666666666668</ele><time>2026-05-03T10:04:22.104Z</time></trkpt><trkpt lat="36.9000888" lon="9.8745832"><ele>31.0</ele><time>2026-05-03T10:04:23.088Z</time></trkpt><trkpt lat="36.8999622" lon="9.8744278"><ele>31.0</ele><time>2026-05-03T10:04:24.08Z</time></trkpt><trkpt lat="36.8998343" lon="9.8742653"><ele>31.0</ele><time>2026-05-03T10:04:25.072Z</time></trkpt><trkpt lat="36.8997109" lon="9.874107"><ele>31.0</ele><time>2026-05-03T10:04:26.084Z</time></trkpt><trkpt lat="36.8995848" lon="9.8739504"><ele>31.0</ele><time>2026-05-03T10:04:27.094Z</time></trkpt><trkpt lat="36.8994559" lon="9.8737888"><ele>31.0</ele><time>2026-05-03T10:04:28.086Z</time></trkpt><trkpt lat="36.8993288" lon="9.8736288"><ele>31.0</ele><time>2026-05-03T10:04:29.09Z</time></trkpt><trkpt lat="36.8992036" lon="9.8734703"><ele>31.0</ele><time>2026-05-03T10:04:30.099Z</time></trkpt><trkpt lat="36.8990761" lon="9.8733047"><ele>31.0</ele><time>2026-05-03T10:04:31.054Z</time></trkpt><trkpt lat="36.8989471" lon="9.8731466"><ele>31.0</ele><time>2026-05-03T10:04:32.088Z</time></trkpt><trkpt lat="36.8988177" lon="9.8729919"><ele>31.0</ele><time>2026-05-03T10:04:33.087Z</time></trkpt><trkpt lat="36.8986842" lon="9.8728325"><ele>31.0</ele><time>2026-05-03T10:04:34.096Z</time></trkpt><trkpt lat="36.8985516" lon="9.8726711"><ele>31.0</ele><time>2026-05-03T10:04:35.092Z</time></trkpt><trkpt lat="36.89842" lon="9.8725145"><ele>31.333333333333336</ele><time>2026-05-03T10:04:36.057Z</time></trkpt><trkpt lat="36.8982969" lon="9.8723615"><ele>31.666666666666664</ele><time>2026-05-03T10:04:37.083Z</time></trkpt><trkpt lat="36.8981836" lon="9.872227"><ele>32.0</ele><time>2026-05-03T10:04:38.103Z</time></trkpt><trkpt lat="36.8980785" lon="9.8721"><ele>32.0</ele><time>2026-05-03T10:04:39.089Z</time></trkpt><trkpt lat="36.8979736" lon="9.8719757"><ele>32.0</ele><time>2026-05-03T10:04:40.071Z</time></trkpt><trkpt lat="36.8978766" lon="9.8718546"><ele>32.0</ele><time>2026-05-03T10:04:41.083Z</time></trkpt><trkpt lat="36.8977796" lon="9.8717338"><ele>32.0</ele><time>2026-05-03T10:04:42.05Z</time></trkpt><trkpt lat="36.8976805" lon="9.8716052"><ele>33.0</ele><time>2026-05-03T10:04:43.069Z</time></trkpt><trkpt lat="36.8975715" lon="9.8714766"><ele>34.0</ele><time>2026-05-03T10:04:44.099Z</time></trkpt><trkpt lat="36.8974391" lon="9.8713394"><ele>35.0</ele><time>2026-05-03T10:04:45.083Z</time></trkpt><trkpt lat="36.8972933" lon="9.8712109"><ele>35.0</ele><time>2026-05-03T10:04:46.095Z</time></trkpt><trkpt lat="36.897137" lon="9.871085"><ele>35.0</ele><time>2026-05-03T10:04:47.081Z</time></trkpt><trkpt lat="36.8969798" lon="9.8709631"><ele>35.0</ele><time>2026-05-03T10:04:48.042Z</time></trkpt><trkpt lat="36.8968182" lon="9.8708427"><ele>35.0</ele><time>2026-05-03T10:04:49.067Z</time></trkpt><trkpt lat="36.8966613" lon="9.8707241"><ele>35.0</ele><time>2026-05-03T10:04:50.053Z</time></trkpt><trkpt lat="36.8965066" lon="9.8706034"><ele>35.0</ele><time>2026-05-03T10:04:51.074Z</time></trkpt><trkpt lat="36.8963489" lon="9.870484"><ele>35.0</ele><time>2026-05-03T10:04:52.06Z</time></trkpt><trkpt lat="36.8961878" lon="9.8703615"><ele>35.0</ele><time>2026-05-03T10:04:53.062Z</time></trkpt><trkpt lat="36.8960242" lon="9.87024"><ele>35.0</ele><time>2026-05-03T10:04:54.072Z</time></trkpt><trkpt lat="36.8958621" lon="9.8701152"><ele>34.666666666666664</ele><time>2026-05-03T10:04:55.052Z</time></trkpt><trkpt lat="36.8957027" lon="9.8699976"><ele>34.333333333333336</ele><time>2026-05-03T10:04:56.077Z</time></trkpt><trkpt lat="36.8955423" lon="9.8698833"><ele>34.0</ele><time>2026-05-03T10:04:57.067Z</time></trkpt><trkpt lat="36.8953869" lon="9.8697651"><ele>34.0</ele><time>2026-05-03T10:04:58.068Z</time></trkpt><trkpt lat="36.8952314" lon="9.8696456"><ele>34.0</ele><time>2026-05-03T10:04:59.082Z</time></trkpt><trkpt lat="36.8950749" lon="9.8695233"><ele>34.0</ele><time>2026-05-03T10:05:00.056Z</time></trkpt><trkpt lat="36.8949188" lon="9.8694022"><ele>34.333333333333336</ele><time>2026-05-03T10:05:01.046Z</time></trkpt><trkpt lat="36.8947612" lon="9.8692778"><ele>34.666666666666664</ele><time>2026-05-03T10:05:02.07Z</time></trkpt><trkpt lat="36.8946019" lon="9.8691631"><ele>35.0</ele><time>2026-05-03T10:05:03.047Z</time></trkpt><trkpt lat="36.8944455" lon="9.8690485"><ele>35.0</ele><time>2026-05-03T10:05:04.078Z</time></trkpt><trkpt lat="36.8942939" lon="9.8689303"><ele>35.0</ele><time>2026-05-03T10:05:05.061Z</time></trkpt><trkpt lat="36.8941392" lon="9.868817"><ele>35.0</ele><time>2026-05-03T10:05:06.059Z</time></trkpt><trkpt lat="36.8939834" lon="9.8687098"><ele>35.0</ele><time>2026-05-03T10:05:07.068Z</time></trkpt><trkpt lat="36.8938277" lon="9.8686058"><ele>35.0</ele><time>2026-05-03T10:05:08.06Z</time></trkpt><trkpt lat="36.8936707" lon="9.8685125"><ele>35.0</ele><time>2026-05-03T10:05:09.06Z</time></trkpt><trkpt lat="36.8935105" lon="9.868421"><ele>36.33333333333333</ele><time>2026-05-03T10:05:10.041Z</time></trkpt><trkpt lat="36.8933435" lon="9.8683412"><ele>37.666666666666664</ele><time>2026-05-03T10:05:11.065Z</time></trkpt><trkpt lat="36.8931759" lon="9.8682694"><ele>39.0</ele><time>2026-05-03T10:05:12.045Z</time></trkpt><trkpt lat="36.8930072" lon="9.8682086"><ele>39.0</ele><time>2026-05-03T10:05:13.054Z</time></trkpt><trkpt lat="36.8928342" lon="9.8681612"><ele>39.0</ele><time>2026-05-03T10:05:14.063Z</time></trkpt><trkpt lat="36.8926568" lon="9.8681204"><ele>39.0</ele><time>2026-05-03T10:05:15.044Z</time></trkpt><trkpt lat="36.8924819" lon="9.8680768"><ele>38.666666666666664</ele><time>2026-05-03T10:05:16.064Z</time></trkpt><trkpt lat="36.8923084" lon="9.8680335"><ele>38.33333333333333</ele><time>2026-05-03T10:05:17.042Z</time></trkpt><trkpt lat="36.892132" lon="9.8679993"><ele>38.0</ele><time>2026-05-03T10:05:18.073Z</time></trkpt><trkpt lat="36.8919584" lon="9.8679703"><ele>38.0</ele><time>2026-05-03T10:05:19.067Z</time></trkpt><trkpt lat="36.891786" lon="9.8679371"><ele>38.0</ele><time>2026-05-03T10:05:20.072Z</time></trkpt><trkpt lat="36.8916124" lon="9.8679051"><ele>38.0</ele><time>2026-05-03T10:05:21.087Z</time></trkpt><trkpt lat="36.8914373" lon="9.8678727"><ele>39.33333333333333</ele><time>2026-05-03T10:05:22.085Z</time></trkpt><trkpt lat="36.8912669" lon="9.8678392"><ele>40.666666666666664</ele><time>2026-05-03T10:05:23.074Z</time></trkpt><trkpt lat="36.8910962" lon="9.8678045"><ele>42.0</ele><time>2026-05-03T10:05:24.081Z</time></trkpt><trkpt lat="36.8909289" lon="9.8677707"><ele>41.666666666666664</ele><time>2026-05-03T10:05:25.055Z</time></trkpt><trkpt lat="36.8907562" lon="9.86774"><ele>41.33333333333333</ele><time>2026-05-03T10:05:26.088Z</time></trkpt><trkpt lat="36.8905899" lon="9.8677019"><ele>41.0</ele><time>2026-05-03T10:05:27.074Z</time></trkpt><trkpt lat="36.8904247" lon="9.8676657"><ele>41.0</ele><time>2026-05-03T10:05:28.066Z</time></trkpt><trkpt lat="36.8902468" lon="9.8676233"><ele>41.0</ele><time>2026-05-03T10:05:29.082Z</time></trkpt><trkpt lat="36.8900315" lon="9.8675732"><ele>41.0</ele><time>2026-05-03T10:05:30.069Z</time></trkpt><trkpt lat="36.8897808" lon="9.8675095"><ele>40.0</ele><time>2026-05-03T10:05:31.079Z</time></trkpt><trkpt lat="36.8895329" lon="9.8674427"><ele>39.0</ele><time>2026-05-03T10:05:32.067Z</time></trkpt><trkpt lat="36.8893027" lon="9.8673892"><ele>38.0</ele><time>2026-05-03T10:05:33.06Z</time></trkpt><trkpt lat="36.889096" lon="9.8673445"><ele>37.0</ele><time>2026-05-03T10:05:34.096Z</time></trkpt><trkpt lat="36.8889078" lon="9.8673031"><ele>36.0</ele><time>2026-05-03T10:05:35.077Z</time></trkpt><trkpt lat="36.8887272" lon="9.8672642"><ele>36.0</ele><time>2026-05-03T10:05:36.066Z</time></trkpt><trkpt lat="36.8885568" lon="9.867225"><ele>36.0</ele><time>2026-05-03T10:05:37.081Z</time></trkpt><trkpt lat="36.8884015" lon="9.8671987"><ele>36.0</ele><time>2026-05-03T10:05:38.087Z</time></trkpt><trkpt lat="36.8882587" lon="9.8671649"><ele>35.25</ele><time>2026-05-03T10:05:39.082Z</time></trkpt><trkpt lat="36.8881204" lon="9.8671327"><ele>34.5</ele><time>2026-05-03T10:05:40.081Z</time></trkpt><trkpt lat="36.8879786" lon="9.8671008"><ele>33.75</ele><time>2026-05-03T10:05:41.053Z</time></trkpt><trkpt lat="36.8878321" lon="9.8670757"><ele>33.0</ele><time>2026-05-03T10:05:42.076Z</time></trkpt><trkpt lat="36.887682" lon="9.8670541"><ele>31.666666666666664</ele><time>2026-05-03T10:05:43.065Z</time></trkpt><trkpt lat="36.8875337" lon="9.8670265"><ele>30.333333333333332</ele><time>2026-05-03T10:05:44.076Z</time></trkpt><trkpt lat="36.8873737" lon="9.8669918"><ele>29.0</ele><time>2026-05-03T10:05:45.077Z</time></trkpt><trkpt lat="36.8872002" lon="9.8669554"><ele>29.0</ele><time>2026-05-03T10:05:46.061Z</time></trkpt><trkpt lat="36.8870076" lon="9.8669334"><ele>29.0</ele><time>2026-05-03T10:05:47.075Z</time></trkpt><trkpt lat="36.886803" lon="9.866912"><ele>29.0</ele><time>2026-05-03T10:05:48.05Z</time></trkpt><trkpt lat="36.8865998" lon="9.8668784"><ele>28.666666666666664</ele><time>2026-05-03T10:05:49.054Z</time></trkpt><trkpt lat="36.8864121" lon="9.8668431"><ele>28.333333333333336</ele><time>2026-05-03T10:05:50.08Z</time></trkpt><trkpt lat="36.8862385" lon="9.8668121"><ele>28.0</ele><time>2026-05-03T10:05:51.073Z</time></trkpt><trkpt lat="36.8860666" lon="9.8667871"><ele>28.0</ele><time>2026-05-03T10:05:52.07Z</time></trkpt><trkpt lat="36.8859063" lon="9.8667711"><ele>28.0</ele><time>2026-05-03T10:05:53.071Z</time></trkpt><trkpt lat="36.8857452" lon="9.866758"><ele>28.0</ele><time>2026-05-03T10:05:54.097Z</time></trkpt><trkpt lat="36.8855834" lon="9.8667388"><ele>28.0</ele><time>2026-05-03T10:05:55.056Z</time></trkpt><trkpt lat="36.8854192" lon="9.8667153"><ele>28.0</ele><time>2026-05-03T10:05:56.06Z</time></trkpt><trkpt lat="36.8852509" lon="9.8666858"><ele>28.0</ele><time>2026-05-03T10:05:57.067Z</time></trkpt><trkpt lat="36.8850756" lon="9.8666583"><ele>28.333333333333336</ele><time>2026-05-03T10:05:58.06Z</time></trkpt><trkpt lat="36.8849039" lon="9.8666256"><ele>28.666666666666664</ele><time>2026-05-03T10:05:59.055Z</time></trkpt><trkpt lat="36.8847322" lon="9.8666021"><ele>29.0</ele><time>2026-05-03T10:06:00.05Z</time></trkpt><trkpt lat="36.8845606" lon="9.866574"><ele>29.0</ele><time>2026-05-03T10:06:01.044Z</time></trkpt><trkpt lat="36.8843938" lon="9.8665374"><ele>29.0</ele><time>2026-05-03T10:06:02.08Z</time></trkpt><trkpt lat="36.8842323" lon="9.8664986"><ele>29.0</ele><time>2026-05-03T10:06:03.065Z</time></trkpt><trkpt lat="36.884067" lon="9.8664551"><ele>29.5</ele><time>2026-05-03T10:06:04.072Z</time></trkpt><trkpt lat="36.8839149" lon="9.8664084"><ele>30.0</ele><time>2026-05-03T10:06:05.087Z</time></trkpt><trkpt lat="36.8837697" lon="9.8663547"><ele>30.5</ele><time>2026-05-03T10:06:06.087Z</time></trkpt><trkpt lat="36.8836359" lon="9.8663016"><ele>31.0</ele><time>2026-05-03T10:06:07.08Z</time></trkpt><trkpt lat="36.8835103" lon="9.8662511"><ele>30.6</ele><time>2026-05-03T10:06:08.062Z</time></trkpt><trkpt lat="36.8833927" lon="9.866197"><ele>30.200000000000003</ele><time>2026-05-03T10:06:09.09Z</time></trkpt><trkpt lat="36.883291" lon="9.8661493"><ele>29.799999999999997</ele><time>2026-05-03T10:06:10.075Z</time></trkpt><trkpt lat="36.8832134" lon="9.8661085"><ele>29.4</ele><time>2026-05-03T10:06:11.042Z</time></trkpt><trkpt lat="36.8831182" lon="9.8660604"><ele>29.0</ele><time>2026-05-03T10:06:13.05Z</time></trkpt><trkpt lat="36.8830316" lon="9.8660072"><ele>28.999999999999996</ele><time>2026-05-03T10:06:15.073Z</time></trkpt><trkpt lat="36.8829167" lon="9.865947"><ele>29.0</ele><time>2026-05-03T10:06:17.067Z</time></trkpt><trkpt lat="36.8828475" lon="9.865918"><ele>29.0</ele><time>2026-05-03T10:06:18.089Z</time></trkpt><trkpt lat="36.882776" lon="9.8658833"><ele>29.0</ele><time>2026-05-03T10:06:19.088Z</time></trkpt><trkpt lat="36.8827016" lon="9.8658477"><ele>28.999999999999996</ele><time>2026-05-03T10:06:20.098Z</time></trkpt><trkpt lat="36.8826177" lon="9.8658068"><ele>29.0</ele><time>2026-05-03T10:06:21.07Z</time></trkpt><trkpt lat="36.8825248" lon="9.8657636"><ele>29.0</ele><time>2026-05-03T10:06:22.056Z</time></trkpt><trkpt lat="36.8824209" lon="9.8657217"><ele>29.0</ele><time>2026-05-03T10:06:23.056Z</time></trkpt><trkpt lat="36.882296" lon="9.865666"><ele>29.0</ele><time>2026-05-03T10:06:24.074Z</time></trkpt><trkpt lat="36.8821316" lon="9.8655843"><ele>29.0</ele><time>2026-05-03T10:06:25.066Z</time></trkpt><trkpt lat="36.881945" lon="9.8654915"><ele>29.0</ele><time>2026-05-03T10:06:26.057Z</time></trkpt><trkpt lat="36.8817557" lon="9.865395"><ele>29.0</ele><time>2026-05-03T10:06:27.054Z</time></trkpt><trkpt lat="36.8815683" lon="9.8652996"><ele>29.0</ele><time>2026-05-03T10:06:28.08Z</time></trkpt><trkpt lat="36.8813974" lon="9.8652127"><ele>29.0</ele><time>2026-05-03T10:06:29.042Z</time></trkpt><trkpt lat="36.8812302" lon="9.8651239"><ele>29.0</ele><time>2026-05-03T10:06:30.103Z</time></trkpt><trkpt lat="36.8810672" lon="9.8650393"><ele>29.0</ele><time>2026-05-03T10:06:31.067Z</time></trkpt><trkpt lat="36.8808994" lon="9.8649595"><ele>29.666666666666664</ele><time>2026-05-03T10:06:32.055Z</time></trkpt><trkpt lat="36.8807346" lon="9.864886"><ele>30.333333333333336</ele><time>2026-05-03T10:06:33.096Z</time></trkpt><trkpt lat="36.8805726" lon="9.8648216"><ele>31.0</ele><time>2026-05-03T10:06:34.072Z</time></trkpt><trkpt lat="36.8804117" lon="9.8647537"><ele>31.0</ele><time>2026-05-03T10:06:35.074Z</time></trkpt><trkpt lat="36.8802414" lon="9.8646944"><ele>31.0</ele><time>2026-05-03T10:06:36.061Z</time></trkpt><trkpt lat="36.8800601" lon="9.8646318"><ele>31.0</ele><time>2026-05-03T10:06:37.111Z</time></trkpt><trkpt lat="36.8798598" lon="9.8645613"><ele>30.333333333333336</ele><time>2026-05-03T10:06:38.114Z</time></trkpt><trkpt lat="36.8796544" lon="9.8644946"><ele>29.666666666666664</ele><time>2026-05-03T10:06:39.096Z</time></trkpt><trkpt lat="36.8794826" lon="9.8644249"><ele>29.0</ele><time>2026-05-03T10:06:40.123Z</time></trkpt><trkpt lat="36.8793477" lon="9.8643696"><ele>29.25</ele><time>2026-05-03T10:06:41.094Z</time></trkpt><trkpt lat="36.8792179" lon="9.8643168"><ele>29.5</ele><time>2026-05-03T10:06:42.086Z</time></trkpt><trkpt lat="36.8790916" lon="9.8642655"><ele>29.75</ele><time>2026-05-03T10:06:43.073Z</time></trkpt><trkpt lat="36.8789663" lon="9.8642152"><ele>30.0</ele><time>2026-05-03T10:06:44.071Z</time></trkpt><trkpt lat="36.8788379" lon="9.8641654"><ele>30.0</ele><time>2026-05-03T10:06:45.077Z</time></trkpt><trkpt lat="36.8786989" lon="9.8641176"><ele>30.0</ele><time>2026-05-03T10:06:46.08Z</time></trkpt><trkpt lat="36.8785456" lon="9.8640693"><ele>30.0</ele><time>2026-05-03T10:06:47.082Z</time></trkpt><trkpt lat="36.8783845" lon="9.8640155"><ele>29.666666666666664</ele><time>2026-05-03T10:06:48.096Z</time></trkpt><trkpt lat="36.8782228" lon="9.8639538"><ele>29.333333333333332</ele><time>2026-05-03T10:06:49.065Z</time></trkpt><trkpt lat="36.878065" lon="9.8638921"><ele>29.0</ele><time>2026-05-03T10:06:50.078Z</time></trkpt><trkpt lat="36.8779067" lon="9.8638284"><ele>29.0</ele><time>2026-05-03T10:06:51.072Z</time></trkpt><trkpt lat="36.8777553" lon="9.8637643"><ele>29.0</ele><time>2026-05-03T10:06:52.084Z</time></trkpt><trkpt lat="36.8776078" lon="9.8637122"><ele>29.0</ele><time>2026-05-03T10:06:53.087Z</time></trkpt><trkpt lat="36.8774559" lon="9.8636598"><ele>28.0</ele><time>2026-05-03T10:06:54.087Z</time></trkpt><trkpt lat="36.8773014" lon="9.8636081"><ele>27.0</ele><time>2026-05-03T10:06:55.092Z</time></trkpt><trkpt lat="36.8771421" lon="9.8635595"><ele>26.0</ele><time>2026-05-03T10:06:56.086Z</time></trkpt><trkpt lat="36.8769821" lon="9.8635046"><ele>26.0</ele><time>2026-05-03T10:06:57.085Z</time></trkpt><trkpt lat="36.8768257" lon="9.8634472"><ele>26.0</ele><time>2026-05-03T10:06:58.073Z</time></trkpt><trkpt lat="36.8766649" lon="9.8633902"><ele>26.0</ele><time>2026-05-03T10:06:59.081Z</time></trkpt><trkpt lat="36.8765049" lon="9.8633263"><ele>26.666666666666664</ele><time>2026-05-03T10:07:00.098Z</time></trkpt><trkpt lat="36.8763451" lon="9.863265"><ele>27.333333333333336</ele><time>2026-05-03T10:07:01.053Z</time></trkpt><trkpt lat="36.8761859" lon="9.8631948"><ele>28.0</ele><time>2026-05-03T10:07:02.084Z</time></trkpt><trkpt lat="36.8760301" lon="9.8631196"><ele>27.0</ele><time>2026-05-03T10:07:03.083Z</time></trkpt><trkpt lat="36.8758694" lon="9.8630406"><ele>26.0</ele><time>2026-05-03T10:07:04.07Z</time></trkpt><trkpt lat="36.8757107" lon="9.862958"><ele>25.0</ele><time>2026-05-03T10:07:05.096Z</time></trkpt><trkpt lat="36.8755571" lon="9.8628759"><ele>25.0</ele><time>2026-05-03T10:07:06.095Z</time></trkpt><trkpt lat="36.8754032" lon="9.8627957"><ele>25.0</ele><time>2026-05-03T10:07:07.094Z</time></trkpt><trkpt lat="36.875252" lon="9.8627143"><ele>25.0</ele><time>2026-05-03T10:07:08.095Z</time></trkpt><trkpt lat="36.8751027" lon="9.8626331"><ele>25.333333333333336</ele><time>2026-05-03T10:07:09.1Z</time></trkpt><trkpt lat="36.8749539" lon="9.862549"><ele>25.666666666666664</ele><time>2026-05-03T10:07:10.097Z</time></trkpt><trkpt lat="36.8748096" lon="9.8624715"><ele>26.0</ele><time>2026-05-03T10:07:11.089Z</time></trkpt><trkpt lat="36.8746614" lon="9.8623904"><ele>26.0</ele><time>2026-05-03T10:07:12.081Z</time></trkpt><trkpt lat="36.8745132" lon="9.8623054"><ele>26.0</ele><time>2026-05-03T10:07:13.064Z</time></trkpt><trkpt lat="36.8743657" lon="9.8622244"><ele>26.0</ele><time>2026-05-03T10:07:14.113Z</time></trkpt><trkpt lat="36.8742164" lon="9.8621402"><ele>25.666666666666664</ele><time>2026-05-03T10:07:15.094Z</time></trkpt><trkpt lat="36.8740667" lon="9.8620539"><ele>25.333333333333336</ele><time>2026-05-03T10:07:16.064Z</time></trkpt><trkpt lat="36.8739144" lon="9.8619695"><ele>25.0</ele><time>2026-05-03T10:07:17.058Z</time></trkpt><trkpt lat="36.8737632" lon="9.8618865"><ele>25.0</ele><time>2026-05-03T10:07:18.088Z</time></trkpt><trkpt lat="36.8736136" lon="9.8618022"><ele>25.0</ele><time>2026-05-03T10:07:19.091Z</time></trkpt><trkpt lat="36.8734634" lon="9.8617192"><ele>25.0</ele><time>2026-05-03T10:07:20.092Z</time></trkpt><trkpt lat="36.8733139" lon="9.861634"><ele>25.666666666666668</ele><time>2026-05-03T10:07:21.067Z</time></trkpt><trkpt lat="36.873167" lon="9.8615538"><ele>26.333333333333336</ele><time>2026-05-03T10:07:22.052Z</time></trkpt><trkpt lat="36.8730177" lon="9.8614693"><ele>27.0</ele><time>2026-05-03T10:07:23.084Z</time></trkpt><trkpt lat="36.8728701" lon="9.8613886"><ele>27.0</ele><time>2026-05-03T10:07:24.095Z</time></trkpt><trkpt lat="36.8727234" lon="9.8613042"><ele>27.0</ele><time>2026-05-03T10:07:25.091Z</time></trkpt><trkpt lat="36.8725751" lon="9.8612242"><ele>27.0</ele><time>2026-05-03T10:07:26.089Z</time></trkpt><trkpt lat="36.8724311" lon="9.8611391"><ele>26.666666666666664</ele><time>2026-05-03T10:07:27.09Z</time></trkpt><trkpt lat="36.8722945" lon="9.8610481"><ele>26.333333333333332</ele><time>2026-05-03T10:07:28.106Z</time></trkpt><trkpt lat="36.8721548" lon="9.86096"><ele>26.0</ele><time>2026-05-03T10:07:29.107Z</time></trkpt><trkpt lat="36.8720162" lon="9.8608748"><ele>26.333333333333332</ele><time>2026-05-03T10:07:30.107Z</time></trkpt><trkpt lat="36.8718778" lon="9.8607975"><ele>26.666666666666664</ele><time>2026-05-03T10:07:31.099Z</time></trkpt><trkpt lat="36.8717377" lon="9.8607216"><ele>27.0</ele><time>2026-05-03T10:07:32.123Z</time></trkpt><trkpt lat="36.8715994" lon="9.8606458"><ele>27.0</ele><time>2026-05-03T10:07:33.088Z</time></trkpt><trkpt lat="36.8714629" lon="9.8605698"><ele>27.0</ele><time>2026-05-03T10:07:34.082Z</time></trkpt><trkpt lat="36.8713272" lon="9.8604881"><ele>27.0</ele><time>2026-05-03T10:07:35.102Z</time></trkpt><trkpt lat="36.8711869" lon="9.8604056"><ele>27.0</ele><time>2026-05-03T10:07:36.101Z</time></trkpt><trkpt lat="36.8710441" lon="9.8603247"><ele>27.0</ele><time>2026-05-03T10:07:37.092Z</time></trkpt><trkpt lat="36.8709094" lon="9.8602473"><ele>27.0</ele><time>2026-05-03T10:07:38.092Z</time></trkpt><trkpt lat="36.8707864" lon="9.8601707"><ele>27.0</ele><time>2026-05-03T10:07:39.083Z</time></trkpt><trkpt lat="36.870672" lon="9.8600974"><ele>27.25</ele><time>2026-05-03T10:07:40.092Z</time></trkpt><trkpt lat="36.8705566" lon="9.8600128"><ele>27.5</ele><time>2026-05-03T10:07:41.091Z</time></trkpt><trkpt lat="36.8704481" lon="9.8599278"><ele>27.75</ele><time>2026-05-03T10:07:42.09Z</time></trkpt><trkpt lat="36.87034" lon="9.8598429"><ele>28.0</ele><time>2026-05-03T10:07:43.069Z</time></trkpt><trkpt lat="36.8702335" lon="9.8597537"><ele>28.0</ele><time>2026-05-03T10:07:44.095Z</time></trkpt><trkpt lat="36.8701321" lon="9.8596542"><ele>28.0</ele><time>2026-05-03T10:07:45.084Z</time></trkpt><trkpt lat="36.8700285" lon="9.859549"><ele>28.0</ele><time>2026-05-03T10:07:46.095Z</time></trkpt><trkpt lat="36.8699228" lon="9.8594475"><ele>28.0</ele><time>2026-05-03T10:07:47.095Z</time></trkpt><trkpt lat="36.8698262" lon="9.8593396"><ele>28.0</ele><time>2026-05-03T10:07:48.073Z</time></trkpt><trkpt lat="36.8697309" lon="9.8592335"><ele>28.0</ele><time>2026-05-03T10:07:49.115Z</time></trkpt><trkpt lat="36.8696378" lon="9.8591326"><ele>28.0</ele><time>2026-05-03T10:07:50.088Z</time></trkpt><trkpt lat="36.8695481" lon="9.8590248"><ele>28.0</ele><time>2026-05-03T10:07:51.071Z</time></trkpt><trkpt lat="36.8694593" lon="9.8589223"><ele>28.0</ele><time>2026-05-03T10:07:52.089Z</time></trkpt><trkpt lat="36.8693686" lon="9.8588203"><ele>28.0</ele><time>2026-05-03T10:07:53.083Z</time></trkpt><trkpt lat="36.8692795" lon="9.8587213"><ele>28.0</ele><time>2026-05-03T10:07:54.099Z</time></trkpt><trkpt lat="36.8691865" lon="9.8586164"><ele>28.0</ele><time>2026-05-03T10:07:55.083Z</time></trkpt><trkpt lat="36.8691011" lon="9.858515"><ele>28.0</ele><time>2026-05-03T10:07:56.058Z</time></trkpt><trkpt lat="36.8690079" lon="9.8584051"><ele>28.0</ele><time>2026-05-03T10:07:57.067Z</time></trkpt><trkpt lat="36.8689156" lon="9.8582959"><ele>28.0</ele><time>2026-05-03T10:07:58.091Z</time></trkpt><trkpt lat="36.8688183" lon="9.858182"><ele>28.0</ele><time>2026-05-03T10:07:59.106Z</time></trkpt><trkpt lat="36.868716" lon="9.8580742"><ele>28.0</ele><time>2026-05-03T10:08:00.069Z</time></trkpt><trkpt lat="36.8686161" lon="9.857963"><ele>28.0</ele><time>2026-05-03T10:08:01.052Z</time></trkpt><trkpt lat="36.8685112" lon="9.85786"><ele>28.0</ele><time>2026-05-03T10:08:02.093Z</time></trkpt><trkpt lat="36.868408" lon="9.8577488"><ele>28.0</ele><time>2026-05-03T10:08:03.087Z</time></trkpt><trkpt lat="36.8683119" lon="9.8576398"><ele>28.25</ele><time>2026-05-03T10:08:04.056Z</time></trkpt><trkpt lat="36.8682104" lon="9.8575334"><ele>28.5</ele><time>2026-05-03T10:08:05.092Z</time></trkpt><trkpt lat="36.8681037" lon="9.8574288"><ele>28.75</ele><time>2026-05-03T10:08:06.09Z</time></trkpt><trkpt lat="36.8679918" lon="9.8573289"><ele>29.0</ele><time>2026-05-03T10:08:07.091Z</time></trkpt><trkpt lat="36.8678808" lon="9.8572249"><ele>29.0</ele><time>2026-05-03T10:08:08.093Z</time></trkpt><trkpt lat="36.8677641" lon="9.8571232"><ele>29.0</ele><time>2026-05-03T10:08:09.089Z</time></trkpt><trkpt lat="36.867648" lon="9.8570239"><ele>29.0</ele><time>2026-05-03T10:08:10.092Z</time></trkpt><trkpt lat="36.8675275" lon="9.8569248"><ele>29.0</ele><time>2026-05-03T10:08:11.094Z</time></trkpt><trkpt lat="36.8674111" lon="9.8568274"><ele>29.5</ele><time>2026-05-03T10:08:12.082Z</time></trkpt><trkpt lat="36.8672919" lon="9.8567257"><ele>30.0</ele><time>2026-05-03T10:08:13.083Z</time></trkpt><trkpt lat="36.8671722" lon="9.8566259"><ele>30.5</ele><time>2026-05-03T10:08:14.098Z</time></trkpt><trkpt lat="36.8670508" lon="9.8565267"><ele>31.0</ele><time>2026-05-03T10:08:15.066Z</time></trkpt><trkpt lat="36.866927" lon="9.856426"><ele>31.0</ele><time>2026-05-03T10:08:16.085Z</time></trkpt><trkpt lat="36.8668012" lon="9.8563249"><ele>31.0</ele><time>2026-05-03T10:08:17.087Z</time></trkpt><trkpt lat="36.8666781" lon="9.8562204"><ele>31.0</ele><time>2026-05-03T10:08:18.098Z</time></trkpt><trkpt lat="36.8665543" lon="9.8561078"><ele>30.666666666666668</ele><time>2026-05-03T10:08:19.083Z</time></trkpt><trkpt lat="36.8664339" lon="9.855991"><ele>30.333333333333336</ele><time>2026-05-03T10:08:20.07Z</time></trkpt><trkpt lat="36.8663116" lon="9.8558759"><ele>30.0</ele><time>2026-05-03T10:08:21.089Z</time></trkpt><trkpt lat="36.8661875" lon="9.8557595"><ele>30.0</ele><time>2026-05-03T10:08:22.094Z</time></trkpt><trkpt lat="36.8660618" lon="9.85565"><ele>30.0</ele><time>2026-05-03T10:08:23.089Z</time></trkpt><trkpt lat="36.8659348" lon="9.8555417"><ele>30.0</ele><time>2026-05-03T10:08:24.093Z</time></trkpt><trkpt lat="36.8658121" lon="9.8554335"><ele>29.666666666666664</ele><time>2026-05-03T10:08:25.101Z</time></trkpt><trkpt lat="36.865687" lon="9.8553254"><ele>29.333333333333332</ele><time>2026-05-03T10:08:26.081Z</time></trkpt><trkpt lat="36.8655621" lon="9.855219"><ele>29.0</ele><time>2026-05-03T10:08:27.079Z</time></trkpt><trkpt lat="36.8654357" lon="9.8551167"><ele>29.0</ele><time>2026-05-03T10:08:28.096Z</time></trkpt><trkpt lat="36.8653084" lon="9.855012"><ele>29.0</ele><time>2026-05-03T10:08:29.101Z</time></trkpt><trkpt lat="36.8651855" lon="9.8549169"><ele>29.0</ele><time>2026-05-03T10:08:30.09Z</time></trkpt><trkpt lat="36.8650695" lon="9.8548141"><ele>29.0</ele><time>2026-05-03T10:08:31.089Z</time></trkpt><trkpt lat="36.8649539" lon="9.8547162"><ele>29.25</ele><time>2026-05-03T10:08:32.095Z</time></trkpt><trkpt lat="36.8648343" lon="9.8546116"><ele>29.5</ele><time>2026-05-03T10:08:33.086Z</time></trkpt><trkpt lat="36.8647145" lon="9.8545091"><ele>29.75</ele><time>2026-05-03T10:08:34.077Z</time></trkpt><trkpt lat="36.864596" lon="9.854406"><ele>30.0</ele><time>2026-05-03T10:08:35.088Z</time></trkpt><trkpt lat="36.8644751" lon="9.8543013"><ele>30.0</ele><time>2026-05-03T10:08:36.072Z</time></trkpt><trkpt lat="36.8643528" lon="9.8541967"><ele>30.0</ele><time>2026-05-03T10:08:37.041Z</time></trkpt><trkpt lat="36.8642312" lon="9.854087"><ele>30.0</ele><time>2026-05-03T10:08:38.056Z</time></trkpt><trkpt lat="36.8641007" lon="9.8539779"><ele>29.666666666666664</ele><time>2026-05-03T10:08:39.061Z</time></trkpt><trkpt lat="36.8639693" lon="9.8538757"><ele>29.333333333333332</ele><time>2026-05-03T10:08:40.069Z</time></trkpt><trkpt lat="36.863834" lon="9.8537755"><ele>29.0</ele><time>2026-05-03T10:08:41.089Z</time></trkpt><trkpt lat="36.8636959" lon="9.8536804"><ele>29.0</ele><time>2026-05-03T10:08:42.074Z</time></trkpt><trkpt lat="36.8635564" lon="9.8536023"><ele>29.0</ele><time>2026-05-03T10:08:43.049Z</time></trkpt><trkpt lat="36.8634201" lon="9.8535441"><ele>29.0</ele><time>2026-05-03T10:08:44.054Z</time></trkpt><trkpt lat="36.8632925" lon="9.8534936"><ele>29.0</ele><time>2026-05-03T10:08:45.071Z</time></trkpt><trkpt lat="36.8631737" lon="9.8534539"><ele>29.2</ele><time>2026-05-03T10:08:46.092Z</time></trkpt><trkpt lat="36.8630673" lon="9.8534208"><ele>29.4</ele><time>2026-05-03T10:08:47.084Z</time></trkpt><trkpt lat="36.862971" lon="9.8533935"><ele>29.6</ele><time>2026-05-03T10:08:48.083Z</time></trkpt><trkpt lat="36.8628848" lon="9.8533761"><ele>29.8</ele><time>2026-05-03T10:08:49.079Z</time></trkpt><trkpt lat="36.8628046" lon="9.8533603"><ele>30.0</ele><time>2026-05-03T10:08:50.061Z</time></trkpt><trkpt lat="36.8627217" lon="9.8533386"><ele>30.0</ele><time>2026-05-03T10:08:51.091Z</time></trkpt><trkpt lat="36.8626257" lon="9.8533156"><ele>30.0</ele><time>2026-05-03T10:08:52.077Z</time></trkpt><trkpt lat="36.862523" lon="9.8532894"><ele>30.0</ele><time>2026-05-03T10:08:53.063Z</time></trkpt><trkpt lat="36.8624281" lon="9.8532638"><ele>30.0</ele><time>2026-05-03T10:08:54.07Z</time></trkpt><trkpt lat="36.862338" lon="9.8532317"><ele>30.0</ele><time>2026-05-03T10:08:55.043Z</time></trkpt><trkpt lat="36.8622537" lon="9.8532031"><ele>29.8</ele><time>2026-05-03T10:08:56.072Z</time></trkpt><trkpt lat="36.8621661" lon="9.8531841"><ele>29.6</ele><time>2026-05-03T10:08:57.08Z</time></trkpt><trkpt lat="36.862072" lon="9.853158"><ele>29.4</ele><time>2026-05-03T10:08:58.069Z</time></trkpt><trkpt lat="36.8619771" lon="9.8531316"><ele>29.2</ele><time>2026-05-03T10:08:59.077Z</time></trkpt><trkpt lat="36.8618867" lon="9.8531097"><ele>29.0</ele><time>2026-05-03T10:09:00.091Z</time></trkpt><trkpt lat="36.8618053" lon="9.8530901"><ele>29.166666666666664</ele><time>2026-05-03T10:09:01.08Z</time></trkpt><trkpt lat="36.8617252" lon="9.8530714"><ele>29.333333333333332</ele><time>2026-05-03T10:09:02.075Z</time></trkpt><trkpt lat="36.8616534" lon="9.8530499"><ele>29.5</ele><time>2026-05-03T10:09:03.074Z</time></trkpt><trkpt lat="36.8615764" lon="9.8530291"><ele>29.666666666666664</ele><time>2026-05-03T10:09:04.091Z</time></trkpt><trkpt lat="36.8614863" lon="9.8530127"><ele>29.833333333333332</ele><time>2026-05-03T10:09:05.09Z</time></trkpt><trkpt lat="36.8613888" lon="9.8529802"><ele>30.0</ele><time>2026-05-03T10:09:06.087Z</time></trkpt><trkpt lat="36.8612879" lon="9.8529421"><ele>30.0</ele><time>2026-05-03T10:09:07.068Z</time></trkpt><trkpt lat="36.861177" lon="9.8529048"><ele>30.0</ele><time>2026-05-03T10:09:08.096Z</time></trkpt><trkpt lat="36.8610418" lon="9.852871"><ele>30.0</ele><time>2026-05-03T10:09:09.109Z</time></trkpt><trkpt lat="36.8608709" lon="9.8528275"><ele>30.0</ele><time>2026-05-03T10:09:10.099Z</time></trkpt><trkpt lat="36.8606537" lon="9.8527753"><ele>30.666666666666664</ele><time>2026-05-03T10:09:11.091Z</time></trkpt><trkpt lat="36.8604298" lon="9.8527177"><ele>31.333333333333332</ele><time>2026-05-03T10:09:12.084Z</time></trkpt><trkpt lat="36.8602263" lon="9.852657"><ele>32.0</ele><time>2026-05-03T10:09:13.09Z</time></trkpt><trkpt lat="36.8600549" lon="9.8526144"><ele>32.25</ele><time>2026-05-03T10:09:14.101Z</time></trkpt><trkpt lat="36.859888" lon="9.8525729"><ele>32.5</ele><time>2026-05-03T10:09:15.095Z</time></trkpt><trkpt lat="36.8597485" lon="9.8525368"><ele>32.75</ele><time>2026-05-03T10:09:16.096Z</time></trkpt><trkpt lat="36.8596346" lon="9.8525031"><ele>33.0</ele><time>2026-05-03T10:09:17.1Z</time></trkpt><trkpt lat="36.8595422" lon="9.8524761"><ele>33.0</ele><time>2026-05-03T10:09:18.085Z</time></trkpt><trkpt lat="36.8594627" lon="9.8524497"><ele>33.0</ele><time>2026-05-03T10:09:19.093Z</time></trkpt><trkpt lat="36.8593906" lon="9.8524198"><ele>33.0</ele><time>2026-05-03T10:09:20.097Z</time></trkpt><trkpt lat="36.8593364" lon="9.8523795"><ele>33.0</ele><time>2026-05-03T10:09:21.105Z</time></trkpt><trkpt lat="36.8592905" lon="9.8523223"><ele>33.0</ele><time>2026-05-03T10:09:22.098Z</time></trkpt><trkpt lat="36.8592225" lon="9.8522212"><ele>33.0</ele><time>2026-05-03T10:09:24.084Z</time></trkpt><trkpt lat="36.8591538" lon="9.8521301"><ele>33.0</ele><time>2026-05-03T10:09:26.088Z</time></trkpt><trkpt lat="36.8590941" lon="9.8520508"><ele>33.0</ele><time>2026-05-03T10:09:28.105Z</time></trkpt><trkpt lat="36.8590394" lon="9.8519801"><ele>33.0</ele><time>2026-05-03T10:09:30.101Z</time></trkpt><trkpt lat="36.8589765" lon="9.8519001"><ele>33.0</ele><time>2026-05-03T10:09:32.102Z</time></trkpt><trkpt lat="36.8588895" lon="9.8517975"><ele>33.0</ele><time>2026-05-03T10:09:34.077Z</time></trkpt><trkpt lat="36.8588368" lon="9.8517353"><ele>33.0</ele><time>2026-05-03T10:09:35.087Z</time></trkpt><trkpt lat="36.8587831" lon="9.8516713"><ele>33.0</ele><time>2026-05-03T10:09:36.088Z</time></trkpt><trkpt lat="36.8587229" lon="9.8516023"><ele>33.0</ele><time>2026-05-03T10:09:37.08Z</time></trkpt><trkpt lat="36.8586537" lon="9.8515266"><ele>33.0</ele><time>2026-05-03T10:09:38.077Z</time></trkpt><trkpt lat="36.858582" lon="9.8514465"><ele>33.0</ele><time>2026-05-03T10:09:39.05Z</time></trkpt><trkpt lat="36.8584958" lon="9.8513465"><ele>33.0</ele><time>2026-05-03T10:09:40.083Z</time></trkpt><trkpt lat="36.8583775" lon="9.8512184"><ele>32.75</ele><time>2026-05-03T10:09:41.081Z</time></trkpt><trkpt lat="36.8582787" lon="9.8510976"><ele>32.5</ele><time>2026-05-03T10:09:42.08Z</time></trkpt><trkpt lat="36.8581994" lon="9.8510046"><ele>32.25</ele><time>2026-05-03T10:09:43.071Z</time></trkpt><trkpt lat="36.858118" lon="9.8509051"><ele>32.0</ele><time>2026-05-03T10:09:44.068Z</time></trkpt><trkpt lat="36.8580347" lon="9.8508019"><ele>32.0</ele><time>2026-05-03T10:09:45.07Z</time></trkpt><trkpt lat="36.8579406" lon="9.8507001"><ele>32.0</ele><time>2026-05-03T10:09:46.047Z</time></trkpt><trkpt lat="36.857844" lon="9.8505859"><ele>32.0</ele><time>2026-05-03T10:09:47.103Z</time></trkpt><trkpt lat="36.8577569" lon="9.8504772"><ele>32.0</ele><time>2026-05-03T10:09:48.081Z</time></trkpt><trkpt lat="36.8576801" lon="9.8503727"><ele>31.75</ele><time>2026-05-03T10:09:49.054Z</time></trkpt><trkpt lat="36.8575986" lon="9.8502692"><ele>31.5</ele><time>2026-05-03T10:09:50.101Z</time></trkpt><trkpt lat="36.8575103" lon="9.8501655"><ele>31.25</ele><time>2026-05-03T10:09:51.102Z</time></trkpt><trkpt lat="36.857425" lon="9.8500607"><ele>31.0</ele><time>2026-05-03T10:09:52.095Z</time></trkpt><trkpt lat="36.8573409" lon="9.849963"><ele>31.0</ele><time>2026-05-03T10:09:53.065Z</time></trkpt><trkpt lat="36.8572485" lon="9.8498581"><ele>31.0</ele><time>2026-05-03T10:09:54.092Z</time></trkpt><trkpt lat="36.8571516" lon="9.8497534"><ele>31.0</ele><time>2026-05-03T10:09:55.089Z</time></trkpt><trkpt lat="36.8570542" lon="9.8496603"><ele>31.0</ele><time>2026-05-03T10:09:56.102Z</time></trkpt><trkpt lat="36.8569586" lon="9.8495664"><ele>31.0</ele><time>2026-05-03T10:09:57.099Z</time></trkpt><trkpt lat="36.8568574" lon="9.8494722"><ele>31.0</ele><time>2026-05-03T10:09:58.099Z</time></trkpt><trkpt lat="36.8567385" lon="9.8493761"><ele>31.0</ele><time>2026-05-03T10:09:59.079Z</time></trkpt><trkpt lat="36.8565917" lon="9.8492582"><ele>31.0</ele><time>2026-05-03T10:10:00.081Z</time></trkpt><trkpt lat="36.8564106" lon="9.8491026"><ele>31.0</ele><time>2026-05-03T10:10:01.064Z</time></trkpt><trkpt lat="36.8562266" lon="9.8489416"><ele>31.0</ele><time>2026-05-03T10:10:02.091Z</time></trkpt><trkpt lat="36.8560554" lon="9.848807"><ele>31.0</ele><time>2026-05-03T10:10:03.067Z</time></trkpt><trkpt lat="36.8559001" lon="9.8486783"><ele>31.0</ele><time>2026-05-03T10:10:04.112Z</time></trkpt><trkpt lat="36.8557576" lon="9.8485647"><ele>31.0</ele><time>2026-05-03T10:10:05.074Z</time></trkpt><trkpt lat="36.8556336" lon="9.84846"><ele>31.0</ele><time>2026-05-03T10:10:06.094Z</time></trkpt><trkpt lat="36.8555098" lon="9.8483536"><ele>31.25</ele><time>2026-05-03T10:10:07.045Z</time></trkpt><trkpt lat="36.8553862" lon="9.8482534"><ele>31.5</ele><time>2026-05-03T10:10:08.078Z</time></trkpt><trkpt lat="36.8552636" lon="9.8481515"><ele>31.75</ele><time>2026-05-03T10:10:09.065Z</time></trkpt><trkpt lat="36.855136" lon="9.8480534"><ele>32.0</ele><time>2026-05-03T10:10:10.079Z</time></trkpt><trkpt lat="36.855005" lon="9.8479631"><ele>32.0</ele><time>2026-05-03T10:10:11.075Z</time></trkpt><trkpt lat="36.8548681" lon="9.8478798"><ele>32.0</ele><time>2026-05-03T10:10:12.082Z</time></trkpt><trkpt lat="36.8547255" lon="9.8478052"><ele>32.0</ele><time>2026-05-03T10:10:13.073Z</time></trkpt><trkpt lat="36.8545828" lon="9.8477279"><ele>32.0</ele><time>2026-05-03T10:10:14.076Z</time></trkpt><trkpt lat="36.8544395" lon="9.8476575"><ele>32.0</ele><time>2026-05-03T10:10:15.069Z</time></trkpt><trkpt lat="36.8542955" lon="9.8475868"><ele>32.0</ele><time>2026-05-03T10:10:16.075Z</time></trkpt><trkpt lat="36.8541567" lon="9.8475147"><ele>32.0</ele><time>2026-05-03T10:10:17.078Z</time></trkpt><trkpt lat="36.8540119" lon="9.8474354"><ele>32.0</ele><time>2026-05-03T10:10:18.071Z</time></trkpt><trkpt lat="36.8538705" lon="9.8473618"><ele>32.0</ele><time>2026-05-03T10:10:19.074Z</time></trkpt><trkpt lat="36.8537322" lon="9.8472903"><ele>32.0</ele><time>2026-05-03T10:10:20.083Z</time></trkpt><trkpt lat="36.8535949" lon="9.8472193"><ele>32.0</ele><time>2026-05-03T10:10:21.068Z</time></trkpt><trkpt lat="36.8534561" lon="9.8471479"><ele>32.0</ele><time>2026-05-03T10:10:22.074Z</time></trkpt><trkpt lat="36.853321" lon="9.8470788"><ele>32.0</ele><time>2026-05-03T10:10:23.073Z</time></trkpt><trkpt lat="36.8531881" lon="9.847011"><ele>32.0</ele><time>2026-05-03T10:10:24.071Z</time></trkpt><trkpt lat="36.8530615" lon="9.8469412"><ele>32.0</ele><time>2026-05-03T10:10:25.072Z</time></trkpt><trkpt lat="36.8529479" lon="9.84687"><ele>32.0</ele><time>2026-05-03T10:10:26.065Z</time></trkpt><trkpt lat="36.8528395" lon="9.8467939"><ele>32.0</ele><time>2026-05-03T10:10:27.07Z</time></trkpt><trkpt lat="36.8527358" lon="9.8467082"><ele>32.0</ele><time>2026-05-03T10:10:28.069Z</time></trkpt><trkpt lat="36.852636" lon="9.8465977"><ele>32.0</ele><time>2026-05-03T10:10:29.072Z</time></trkpt><trkpt lat="36.8525419" lon="9.8464848"><ele>32.0</ele><time>2026-05-03T10:10:30.076Z</time></trkpt><trkpt lat="36.852451" lon="9.8463693"><ele>32.0</ele><time>2026-05-03T10:10:31.071Z</time></trkpt><trkpt lat="36.8523639" lon="9.8462424"><ele>31.75</ele><time>2026-05-03T10:10:32.076Z</time></trkpt><trkpt lat="36.8522758" lon="9.8461113"><ele>31.5</ele><time>2026-05-03T10:10:33.075Z</time></trkpt><trkpt lat="36.852189" lon="9.8459793"><ele>31.25</ele><time>2026-05-03T10:10:34.054Z</time></trkpt><trkpt lat="36.8521038" lon="9.8458418"><ele>31.0</ele><time>2026-05-03T10:10:35.053Z</time></trkpt><trkpt lat="36.8520116" lon="9.8456974"><ele>31.0</ele><time>2026-05-03T10:10:36.105Z</time></trkpt><trkpt lat="36.8519225" lon="9.8455509"><ele>31.0</ele><time>2026-05-03T10:10:37.069Z</time></trkpt><trkpt lat="36.8518313" lon="9.8454065"><ele>31.0</ele><time>2026-05-03T10:10:38.079Z</time></trkpt><trkpt lat="36.851742" lon="9.8452657"><ele>31.0</ele><time>2026-05-03T10:10:39.07Z</time></trkpt><trkpt lat="36.8516515" lon="9.8451194"><ele>30.75</ele><time>2026-05-03T10:10:40.041Z</time></trkpt><trkpt lat="36.8515662" lon="9.8449774"><ele>30.5</ele><time>2026-05-03T10:10:41.073Z</time></trkpt><trkpt lat="36.8514765" lon="9.844837"><ele>30.25</ele><time>2026-05-03T10:10:42.073Z</time></trkpt><trkpt lat="36.8513836" lon="9.8446965"><ele>30.0</ele><time>2026-05-03T10:10:43.07Z</time></trkpt><trkpt lat="36.8512961" lon="9.8445516"><ele>30.0</ele><time>2026-05-03T10:10:44.072Z</time></trkpt><trkpt lat="36.8512078" lon="9.8444119"><ele>30.0</ele><time>2026-05-03T10:10:45.052Z</time></trkpt><trkpt lat="36.8511184" lon="9.8442724"><ele>30.0</ele><time>2026-05-03T10:10:46.057Z</time></trkpt><trkpt lat="36.8510295" lon="9.844131"><ele>30.0</ele><time>2026-05-03T10:10:47.061Z</time></trkpt><trkpt lat="36.8509396" lon="9.8439927"><ele>30.25</ele><time>2026-05-03T10:10:48.053Z</time></trkpt><trkpt lat="36.8508534" lon="9.8438522"><ele>30.5</ele><time>2026-05-03T10:10:49.07Z</time></trkpt><trkpt lat="36.8507691" lon="9.8437151"><ele>30.75</ele><time>2026-05-03T10:10:50.072Z</time></trkpt><trkpt lat="36.8506832" lon="9.8435819"><ele>31.0</ele><time>2026-05-03T10:10:51.072Z</time></trkpt><trkpt lat="36.8505937" lon="9.8434576"><ele>31.0</ele><time>2026-05-03T10:10:52.068Z</time></trkpt><trkpt lat="36.8505011" lon="9.8433459"><ele>31.0</ele><time>2026-05-03T10:10:53.077Z</time></trkpt><trkpt lat="36.8503996" lon="9.8432379"><ele>31.0</ele><time>2026-05-03T10:10:54.071Z</time></trkpt><trkpt lat="36.8502947" lon="9.8431421"><ele>31.0</ele><time>2026-05-03T10:10:55.063Z</time></trkpt><trkpt lat="36.8501795" lon="9.8430559"><ele>30.75</ele><time>2026-05-03T10:10:56.066Z</time></trkpt><trkpt lat="36.8500602" lon="9.8429747"><ele>30.5</ele><time>2026-05-03T10:10:57.073Z</time></trkpt><trkpt lat="36.8499358" lon="9.8429023"><ele>30.25</ele><time>2026-05-03T10:10:58.073Z</time></trkpt><trkpt lat="36.849811" lon="9.842836"><ele>30.0</ele><time>2026-05-03T10:10:59.062Z</time></trkpt><trkpt lat="36.8496774" lon="9.8427811"><ele>30.0</ele><time>2026-05-03T10:11:00.06Z</time></trkpt><trkpt lat="36.8495502" lon="9.8427324"><ele>30.0</ele><time>2026-05-03T10:11:01.082Z</time></trkpt><trkpt lat="36.8494164" lon="9.842679"><ele>30.0</ele><time>2026-05-03T10:11:02.081Z</time></trkpt><trkpt lat="36.8492787" lon="9.8426344"><ele>30.0</ele><time>2026-05-03T10:11:03.082Z</time></trkpt><trkpt lat="36.8491364" lon="9.8425833"><ele>29.5</ele><time>2026-05-03T10:11:04.039Z</time></trkpt><trkpt lat="36.848993" lon="9.8425335"><ele>29.0</ele><time>2026-05-03T10:11:05.056Z</time></trkpt><trkpt lat="36.8488502" lon="9.8424835"><ele>28.5</ele><time>2026-05-03T10:11:06.058Z</time></trkpt><trkpt lat="36.8487084" lon="9.8424367"><ele>28.0</ele><time>2026-05-03T10:11:07.061Z</time></trkpt><trkpt lat="36.8485642" lon="9.842393"><ele>28.0</ele><time>2026-05-03T10:11:08.058Z</time></trkpt><trkpt lat="36.8484159" lon="9.8423537"><ele>28.0</ele><time>2026-05-03T10:11:09.071Z</time></trkpt><trkpt lat="36.8482733" lon="9.8423236"><ele>28.0</ele><time>2026-05-03T10:11:10.069Z</time></trkpt><trkpt lat="36.8481359" lon="9.8422941"><ele>28.0</ele><time>2026-05-03T10:11:11.089Z</time></trkpt><trkpt lat="36.8479926" lon="9.8422658"><ele>28.0</ele><time>2026-05-03T10:11:12.059Z</time></trkpt><trkpt lat="36.8478504" lon="9.8422315"><ele>28.0</ele><time>2026-05-03T10:11:13.049Z</time></trkpt><trkpt lat="36.8477088" lon="9.8421995"><ele>28.0</ele><time>2026-05-03T10:11:14.059Z</time></trkpt><trkpt lat="36.8475713" lon="9.8421698"><ele>28.0</ele><time>2026-05-03T10:11:15.068Z</time></trkpt><trkpt lat="36.8474398" lon="9.842137"><ele>27.75</ele><time>2026-05-03T10:11:16.064Z</time></trkpt><trkpt lat="36.8473021" lon="9.842115"><ele>27.5</ele><time>2026-05-03T10:11:17.062Z</time></trkpt><trkpt lat="36.8471682" lon="9.8420859"><ele>27.25</ele><time>2026-05-03T10:11:18.083Z</time></trkpt><trkpt lat="36.8470305" lon="9.8420562"><ele>27.0</ele><time>2026-05-03T10:11:19.069Z</time></trkpt><trkpt lat="36.8468859" lon="9.8420201"><ele>27.333333333333336</ele><time>2026-05-03T10:11:20.066Z</time></trkpt><trkpt lat="36.8467318" lon="9.8419755"><ele>27.666666666666668</ele><time>2026-05-03T10:11:21.06Z</time></trkpt><trkpt lat="36.8465798" lon="9.8419137"><ele>28.0</ele><time>2026-05-03T10:11:22.054Z</time></trkpt><trkpt lat="36.8464341" lon="9.8418543"><ele>28.0</ele><time>2026-05-03T10:11:23.08Z</time></trkpt><trkpt lat="36.8463034" lon="9.8418005"><ele>28.0</ele><time>2026-05-03T10:11:24.04Z</time></trkpt><trkpt lat="36.8461755" lon="9.8417487"><ele>28.0</ele><time>2026-05-03T10:11:25.05Z</time></trkpt><trkpt lat="36.8460498" lon="9.8417017"><ele>28.0</ele><time>2026-05-03T10:11:26.054Z</time></trkpt><trkpt lat="36.8459218" lon="9.8416508"><ele>28.25</ele><time>2026-05-03T10:11:27.055Z</time></trkpt><trkpt lat="36.8457881" lon="9.8416017"><ele>28.5</ele><time>2026-05-03T10:11:28.071Z</time></trkpt><trkpt lat="36.8456443" lon="9.8415526"><ele>28.75</ele><time>2026-05-03T10:11:29.071Z</time></trkpt><trkpt lat="36.8455033" lon="9.8414958"><ele>29.0</ele><time>2026-05-03T10:11:30.078Z</time></trkpt><trkpt lat="36.8453632" lon="9.841439"><ele>29.0</ele><time>2026-05-03T10:11:31.072Z</time></trkpt><trkpt lat="36.845227" lon="9.8413804"><ele>29.0</ele><time>2026-05-03T10:11:32.054Z</time></trkpt><trkpt lat="36.8450892" lon="9.8413195"><ele>29.0</ele><time>2026-05-03T10:11:33.084Z</time></trkpt><trkpt lat="36.8449563" lon="9.8412659"><ele>29.0</ele><time>2026-05-03T10:11:34.075Z</time></trkpt><trkpt lat="36.8448206" lon="9.8412129"><ele>29.75</ele><time>2026-05-03T10:11:35.076Z</time></trkpt><trkpt lat="36.8446938" lon="9.8411584"><ele>30.5</ele><time>2026-05-03T10:11:36.057Z</time></trkpt><trkpt lat="36.8445657" lon="9.8411038"><ele>31.25</ele><time>2026-05-03T10:11:37.081Z</time></trkpt><trkpt lat="36.8444433" lon="9.8410477"><ele>32.0</ele><time>2026-05-03T10:11:38.065Z</time></trkpt><trkpt lat="36.8443195" lon="9.8410001"><ele>32.5</ele><time>2026-05-03T10:11:39.077Z</time></trkpt><trkpt lat="36.8441941" lon="9.840953"><ele>33.0</ele><time>2026-05-03T10:11:40.064Z</time></trkpt><trkpt lat="36.8440735" lon="9.8408998"><ele>33.5</ele><time>2026-05-03T10:11:41.076Z</time></trkpt><trkpt lat="36.8439574" lon="9.8408563"><ele>34.0</ele><time>2026-05-03T10:11:42.068Z</time></trkpt><trkpt lat="36.84384" lon="9.8408118"><ele>34.0</ele><time>2026-05-03T10:11:43.071Z</time></trkpt><trkpt lat="36.8437265" lon="9.8407709"><ele>34.0</ele><time>2026-05-03T10:11:44.074Z</time></trkpt><trkpt lat="36.8436151" lon="9.8407282"><ele>34.0</ele><time>2026-05-03T10:11:45.065Z</time></trkpt><trkpt lat="36.8435091" lon="9.8406853"><ele>34.0</ele><time>2026-05-03T10:11:46.082Z</time></trkpt><trkpt lat="36.8434005" lon="9.8406406"><ele>33.75</ele><time>2026-05-03T10:11:47.069Z</time></trkpt><trkpt lat="36.8432917" lon="9.8406007"><ele>33.5</ele><time>2026-05-03T10:11:48.069Z</time></trkpt><trkpt lat="36.8431745" lon="9.8405806"><ele>33.25</ele><time>2026-05-03T10:11:49.07Z</time></trkpt><trkpt lat="36.8430578" lon="9.840574"><ele>33.0</ele><time>2026-05-03T10:11:50.081Z</time></trkpt><trkpt lat="36.8429417" lon="9.8405728"><ele>33.0</ele><time>2026-05-03T10:11:51.091Z</time></trkpt><trkpt lat="36.8428277" lon="9.8405779"><ele>33.0</ele><time>2026-05-03T10:11:52.089Z</time></trkpt><trkpt lat="36.8427166" lon="9.8405881"><ele>33.0</ele><time>2026-05-03T10:11:53.072Z</time></trkpt><trkpt lat="36.8426031" lon="9.8405971"><ele>33.0</ele><time>2026-05-03T10:11:54.086Z</time></trkpt><trkpt lat="36.8424973" lon="9.8406078"><ele>33.0</ele><time>2026-05-03T10:11:55.081Z</time></trkpt><trkpt lat="36.8423971" lon="9.8406147"><ele>32.833333333333336</ele><time>2026-05-03T10:11:56.078Z</time></trkpt><trkpt lat="36.8423079" lon="9.8406278"><ele>32.666666666666664</ele><time>2026-05-03T10:11:57.083Z</time></trkpt><trkpt lat="36.8422221" lon="9.8406387"><ele>32.5</ele><time>2026-05-03T10:11:58.075Z</time></trkpt><trkpt lat="36.8421362" lon="9.8406464"><ele>32.33333333333333</ele><time>2026-05-03T10:11:59.09Z</time></trkpt><trkpt lat="36.8420568" lon="9.8406593"><ele>32.166666666666664</ele><time>2026-05-03T10:12:00.047Z</time></trkpt><trkpt lat="36.8419851" lon="9.8406712"><ele>32.0</ele><time>2026-05-03T10:12:01.089Z</time></trkpt><trkpt lat="36.8419156" lon="9.8406809"><ele>31.999999999999996</ele><time>2026-05-03T10:12:02.057Z</time></trkpt><trkpt lat="36.8418477" lon="9.8406914"><ele>32.0</ele><time>2026-05-03T10:12:03.07Z</time></trkpt><trkpt lat="36.8417835" lon="9.8407023"><ele>32.0</ele><time>2026-05-03T10:12:04.063Z</time></trkpt><trkpt lat="36.8416904" lon="9.8406903"><ele>32.0</ele><time>2026-05-03T10:12:06.07Z</time></trkpt><trkpt lat="36.8416423" lon="9.8406005"><ele>31.999999999999996</ele><time>2026-05-03T10:12:08.053Z</time></trkpt><trkpt lat="36.8416263" lon="9.8404643"><ele>32.0</ele><time>2026-05-03T10:12:10.059Z</time></trkpt><trkpt lat="36.8416179" lon="9.8403769"><ele>31.999999999999996</ele><time>2026-05-03T10:12:11.062Z</time></trkpt><trkpt lat="36.8416103" lon="9.8402827"><ele>32.0</ele><time>2026-05-03T10:12:12.066Z</time></trkpt><trkpt lat="36.8416046" lon="9.8401761"><ele>32.0</ele><time>2026-05-03T10:12:13.072Z</time></trkpt><trkpt lat="36.8415963" lon="9.8400666"><ele>32.0</ele><time>2026-05-03T10:12:14.086Z</time></trkpt><trkpt lat="36.8415921" lon="9.8399596"><ele>31.999999999999996</ele><time>2026-05-03T10:12:15.069Z</time></trkpt><trkpt lat="36.8415839" lon="9.8398528"><ele>32.0</ele><time>2026-05-03T10:12:16.079Z</time></trkpt><trkpt lat="36.8415746" lon="9.8397383"><ele>31.833333333333332</ele><time>2026-05-03T10:12:17.074Z</time></trkpt><trkpt lat="36.8415673" lon="9.8396279"><ele>31.666666666666664</ele><time>2026-05-03T10:12:18.082Z</time></trkpt><trkpt lat="36.8415578" lon="9.8395228"><ele>31.5</ele><time>2026-05-03T10:12:19.04Z</time></trkpt><trkpt lat="36.8415479" lon="9.8394145"><ele>31.333333333333336</ele><time>2026-05-03T10:12:20.095Z</time></trkpt><trkpt lat="36.8415414" lon="9.8393053"><ele>31.166666666666668</ele><time>2026-05-03T10:12:21.066Z</time></trkpt><trkpt lat="36.8415364" lon="9.8391937"><ele>31.0</ele><time>2026-05-03T10:12:22.069Z</time></trkpt><trkpt lat="36.84153" lon="9.839084"><ele>31.0</ele><time>2026-05-03T10:12:23.07Z</time></trkpt><trkpt lat="36.8415258" lon="9.8389797"><ele>31.000000000000004</ele><time>2026-05-03T10:12:24.07Z</time></trkpt><trkpt lat="36.8415175" lon="9.8388794"><ele>31.0</ele><time>2026-05-03T10:12:25.075Z</time></trkpt><trkpt lat="36.8415154" lon="9.8387924"><ele>31.0</ele><time>2026-05-03T10:12:26.068Z</time></trkpt><trkpt lat="36.8415102" lon="9.8387036"><ele>31.000000000000004</ele><time>2026-05-03T10:12:27.062Z</time></trkpt><trkpt lat="36.8415028" lon="9.8386195"><ele>31.0</ele><time>2026-05-03T10:12:28.086Z</time></trkpt><trkpt lat="36.8414986" lon="9.8385355"><ele>31.0</ele><time>2026-05-03T10:12:29.067Z</time></trkpt><trkpt lat="36.8414922" lon="9.8384479"><ele>31.000000000000004</ele><time>2026-05-03T10:12:30.074Z</time></trkpt><trkpt lat="36.8414906" lon="9.83836"><ele>31.0</ele><time>2026-05-03T10:12:31.069Z</time></trkpt><trkpt lat="36.84149" lon="9.8382774"><ele>31.0</ele><time>2026-05-03T10:12:32.075Z</time></trkpt><trkpt lat="36.8414841" lon="9.838177"><ele>31.0</ele><time>2026-05-03T10:12:33.071Z</time></trkpt><trkpt lat="36.8414707" lon="9.8380513"><ele>31.000000000000004</ele><time>2026-05-03T10:12:34.075Z</time></trkpt><trkpt lat="36.8414613" lon="9.8379225"><ele>31.0</ele><time>2026-05-03T10:12:35.066Z</time></trkpt><trkpt lat="36.8414523" lon="9.8378017"><ele>31.0</ele><time>2026-05-03T10:12:36.072Z</time></trkpt><trkpt lat="36.841446" lon="9.8376787"><ele>31.0</ele><time>2026-05-03T10:12:37.069Z</time></trkpt><trkpt lat="36.8414364" lon="9.8375515"><ele>31.0</ele><time>2026-05-03T10:12:38.07Z</time></trkpt><trkpt lat="36.8414276" lon="9.8374194"><ele>31.0</ele><time>2026-05-03T10:12:39.087Z</time></trkpt><trkpt lat="36.8414148" lon="9.8372845"><ele>31.0</ele><time>2026-05-03T10:12:40.088Z</time></trkpt><trkpt lat="36.8414016" lon="9.837146"><ele>31.0</ele><time>2026-05-03T10:12:41.05Z</time></trkpt><trkpt lat="36.8413847" lon="9.8370143"><ele>31.0</ele><time>2026-05-03T10:12:42.091Z</time></trkpt><trkpt lat="36.8413746" lon="9.8368859"><ele>31.0</ele><time>2026-05-03T10:12:43.081Z</time></trkpt><trkpt lat="36.8413612" lon="9.8367547"><ele>31.0</ele><time>2026-05-03T10:12:44.058Z</time></trkpt><trkpt lat="36.84135" lon="9.8366232"><ele>31.0</ele><time>2026-05-03T10:12:45.082Z</time></trkpt><trkpt lat="36.8413362" lon="9.836496"><ele>31.0</ele><time>2026-05-03T10:12:46.092Z</time></trkpt><trkpt lat="36.8413256" lon="9.8363822"><ele>31.0</ele><time>2026-05-03T10:12:47.05Z</time></trkpt><trkpt lat="36.8413174" lon="9.8362677"><ele>31.0</ele><time>2026-05-03T10:12:48.079Z</time></trkpt><trkpt lat="36.8413134" lon="9.8361486"><ele>31.0</ele><time>2026-05-03T10:12:49.073Z</time></trkpt><trkpt lat="36.8413039" lon="9.8360337"><ele>31.0</ele><time>2026-05-03T10:12:50.081Z</time></trkpt><trkpt lat="36.8412915" lon="9.8359239"><ele>31.166666666666668</ele><time>2026-05-03T10:12:51.075Z</time></trkpt><trkpt lat="36.8412827" lon="9.835814"><ele>31.333333333333336</ele><time>2026-05-03T10:12:52.073Z</time></trkpt><trkpt lat="36.8412777" lon="9.8357035"><ele>31.5</ele><time>2026-05-03T10:12:53.081Z</time></trkpt><trkpt lat="36.8412726" lon="9.835603"><ele>31.666666666666664</ele><time>2026-05-03T10:12:54.07Z</time></trkpt><trkpt lat="36.8412719" lon="9.8354923"><ele>31.833333333333332</ele><time>2026-05-03T10:12:55.081Z</time></trkpt><trkpt lat="36.8412661" lon="9.8353822"><ele>32.0</ele><time>2026-05-03T10:12:56.076Z</time></trkpt><trkpt lat="36.8412605" lon="9.8352723"><ele>32.0</ele><time>2026-05-03T10:12:57.067Z</time></trkpt><trkpt lat="36.8412572" lon="9.8351563"><ele>32.0</ele><time>2026-05-03T10:12:58.071Z</time></trkpt><trkpt lat="36.8412491" lon="9.8350446"><ele>32.0</ele><time>2026-05-03T10:12:59.06Z</time></trkpt><trkpt lat="36.8412415" lon="9.8349294"><ele>32.0</ele><time>2026-05-03T10:13:00.07Z</time></trkpt><trkpt lat="36.8412358" lon="9.8348146"><ele>32.0</ele><time>2026-05-03T10:13:01.072Z</time></trkpt><trkpt lat="36.8412267" lon="9.8347036"><ele>32.2</ele><time>2026-05-03T10:13:02.078Z</time></trkpt><trkpt lat="36.8412208" lon="9.8346115"><ele>32.400000000000006</ele><time>2026-05-03T10:13:03.087Z</time></trkpt><trkpt lat="36.8412124" lon="9.8345228"><ele>32.599999999999994</ele><time>2026-05-03T10:13:04.074Z</time></trkpt><trkpt lat="36.8412025" lon="9.834383"><ele>32.8</ele><time>2026-05-03T10:13:06.077Z</time></trkpt><trkpt lat="36.8412256" lon="9.8342781"><ele>33.0</ele><time>2026-05-03T10:13:08.069Z</time></trkpt><trkpt lat="36.8413579" lon="9.8341302"><ele>33.166666666666664</ele><time>2026-05-03T10:13:11.08Z</time></trkpt><trkpt lat="36.8414188" lon="9.8340761"><ele>33.333333333333336</ele><time>2026-05-03T10:13:12.081Z</time></trkpt><trkpt lat="36.8414844" lon="9.8340215"><ele>33.5</ele><time>2026-05-03T10:13:13.067Z</time></trkpt><trkpt lat="36.8415487" lon="9.8339762"><ele>33.66666666666667</ele><time>2026-05-03T10:13:14.074Z</time></trkpt><trkpt lat="36.8416233" lon="9.8339276"><ele>33.833333333333336</ele><time>2026-05-03T10:13:15.057Z</time></trkpt><trkpt lat="36.8417134" lon="9.8338866"><ele>34.0</ele><time>2026-05-03T10:13:16.077Z</time></trkpt><trkpt lat="36.8418088" lon="9.8338454"><ele>34.0</ele><time>2026-05-03T10:13:17.078Z</time></trkpt><trkpt lat="36.8419032" lon="9.8338152"><ele>34.0</ele><time>2026-05-03T10:13:18.059Z</time></trkpt><trkpt lat="36.8419949" lon="9.8337901"><ele>34.0</ele><time>2026-05-03T10:13:19.065Z</time></trkpt><trkpt lat="36.8420855" lon="9.8337646"><ele>34.0</ele><time>2026-05-03T10:13:20.072Z</time></trkpt><trkpt lat="36.8421775" lon="9.8337453"><ele>34.0</ele><time>2026-05-03T10:13:21.083Z</time></trkpt><trkpt lat="36.8422754" lon="9.833723"><ele>34.0</ele><time>2026-05-03T10:13:22.062Z</time></trkpt><trkpt lat="36.8423655" lon="9.8337061"><ele>34.0</ele><time>2026-05-03T10:13:23.07Z</time></trkpt><trkpt lat="36.8424463" lon="9.8336891"><ele>34.0</ele><time>2026-05-03T10:13:24.067Z</time></trkpt><trkpt lat="36.8425155" lon="9.8336708"><ele>34.0</ele><time>2026-05-03T10:13:25.065Z</time></trkpt><trkpt lat="36.8425989" lon="9.8336335"><ele>34.0</ele><time>2026-05-03T10:13:27.078Z</time></trkpt><trkpt lat="36.8426221" lon="9.8335261"><ele>34.0</ele><time>2026-05-03T10:13:30.072Z</time></trkpt><trkpt lat="36.8426147" lon="9.8334092"><ele>34.4</ele><time>2026-05-03T10:13:32.074Z</time></trkpt><trkpt lat="36.8425995" lon="9.8332833"><ele>34.8</ele><time>2026-05-03T10:13:34.06Z</time></trkpt><trkpt lat="36.8425889" lon="9.8331591"><ele>35.2</ele><time>2026-05-03T10:13:36.037Z</time></trkpt><trkpt lat="36.8425804" lon="9.8330332"><ele>35.6</ele><time>2026-05-03T10:13:38.047Z</time></trkpt><trkpt lat="36.8425773" lon="9.8329072"><ele>36.0</ele><time>2026-05-03T10:13:40.06Z</time></trkpt><trkpt lat="36.8425728" lon="9.832763"><ele>36.6</ele><time>2026-05-03T10:13:42.039Z</time></trkpt><trkpt lat="36.8425541" lon="9.8326267"><ele>37.2</ele><time>2026-05-03T10:13:44.071Z</time></trkpt><trkpt lat="36.8425436" lon="9.83251"><ele>37.8</ele><time>2026-05-03T10:13:46.077Z</time></trkpt><trkpt lat="36.8425385" lon="9.8323993"><ele>38.4</ele><time>2026-05-03T10:13:48.046Z</time></trkpt><trkpt lat="36.8425335" lon="9.8322849"><ele>39.0</ele><time>2026-05-03T10:13:50.063Z</time></trkpt><trkpt lat="36.84253" lon="9.8321574"><ele>39.0</ele><time>2026-05-03T10:13:52.088Z</time></trkpt><trkpt lat="36.8425255" lon="9.8320241"><ele>39.0</ele><time>2026-05-03T10:13:54.076Z</time></trkpt><trkpt lat="36.8425199" lon="9.8318811"><ele>39.0</ele><time>2026-05-03T10:13:56.064Z</time></trkpt><trkpt lat="36.8425199" lon="9.8317376"><ele>39.0</ele><time>2026-05-03T10:13:58.065Z</time></trkpt><trkpt lat="36.8425126" lon="9.8316009"><ele>39.0</ele><time>2026-05-03T10:14:00.067Z</time></trkpt><trkpt lat="36.8425098" lon="9.83148"><ele>39.0</ele><time>2026-05-03T10:14:02.07Z</time></trkpt><trkpt lat="36.842508" lon="9.8313587"><ele>39.0</ele><time>2026-05-03T10:14:04.068Z</time></trkpt><trkpt lat="36.8425113" lon="9.8312184"><ele>39.0</ele><time>2026-05-03T10:14:06.067Z</time></trkpt><trkpt lat="36.8424987" lon="9.8310977"><ele>39.0</ele><time>2026-05-03T10:14:08.066Z</time></trkpt><trkpt lat="36.8424953" lon="9.8309839"><ele>39.0</ele><time>2026-05-03T10:14:10.09Z</time></trkpt><trkpt lat="36.8424937" lon="9.8308917"><ele>39.0</ele><time>2026-05-03T10:14:12.079Z</time></trkpt><trkpt lat="36.8425031" lon="9.8307965"><ele>39.0</ele><time>2026-05-03T10:14:15.05Z</time></trkpt><trkpt lat="36.8425561" lon="9.8307249"><ele>39.0</ele><time>2026-05-03T10:14:18.053Z</time></trkpt><trkpt lat="36.8426278" lon="9.8306441"><ele>39.0</ele><time>2026-05-03T10:14:21.081Z</time></trkpt><trkpt lat="36.8426567" lon="9.8305069"><ele>39.0</ele><time>2026-05-03T10:14:23.064Z</time></trkpt><trkpt lat="36.8426695" lon="9.8304286"><ele>39.0</ele><time>2026-05-03T10:14:24.074Z</time></trkpt><trkpt lat="36.8426709" lon="9.8303355"><ele>38.666666666666664</ele><time>2026-05-03T10:14:25.069Z</time></trkpt><trkpt lat="36.842675" lon="9.8302426"><ele>38.333333333333336</ele><time>2026-05-03T10:14:26.064Z</time></trkpt><trkpt lat="36.842667" lon="9.8301403"><ele>38.0</ele><time>2026-05-03T10:14:27.06Z</time></trkpt><trkpt lat="36.8426597" lon="9.8300375"><ele>37.66666666666667</ele><time>2026-05-03T10:14:28.058Z</time></trkpt><trkpt lat="36.8426541" lon="9.8299349"><ele>37.333333333333336</ele><time>2026-05-03T10:14:29.065Z</time></trkpt><trkpt lat="36.8426468" lon="9.8298382"><ele>37.0</ele><time>2026-05-03T10:14:30.069Z</time></trkpt><trkpt lat="36.8426449" lon="9.8297307"><ele>37.8</ele><time>2026-05-03T10:14:31.069Z</time></trkpt><trkpt lat="36.8426456" lon="9.8296238"><ele>38.6</ele><time>2026-05-03T10:14:32.052Z</time></trkpt><trkpt lat="36.8426351" lon="9.8295081"><ele>39.4</ele><time>2026-05-03T10:14:33.06Z</time></trkpt><trkpt lat="36.8426287" lon="9.8293914"><ele>40.199999999999996</ele><time>2026-05-03T10:14:34.061Z</time></trkpt><trkpt lat="36.8426234" lon="9.8292723"><ele>41.0</ele><time>2026-05-03T10:14:35.076Z</time></trkpt><trkpt lat="36.8426245" lon="9.8291434"><ele>41.4</ele><time>2026-05-03T10:14:36.072Z</time></trkpt><trkpt lat="36.8426206" lon="9.8290129"><ele>41.8</ele><time>2026-05-03T10:14:37.082Z</time></trkpt><trkpt lat="36.8426171" lon="9.8288797"><ele>42.199999999999996</ele><time>2026-05-03T10:14:38.068Z</time></trkpt><trkpt lat="36.8426072" lon="9.8287434"><ele>42.599999999999994</ele><time>2026-05-03T10:14:39.069Z</time></trkpt><trkpt lat="36.8425968" lon="9.8286083"><ele>43.0</ele><time>2026-05-03T10:14:40.066Z</time></trkpt><trkpt lat="36.8425861" lon="9.8284788"><ele>43.599999999999994</ele><time>2026-05-03T10:14:41.071Z</time></trkpt><trkpt lat="36.8425764" lon="9.8283467"><ele>44.199999999999996</ele><time>2026-05-03T10:14:42.062Z</time></trkpt><trkpt lat="36.8425673" lon="9.8282121"><ele>44.8</ele><time>2026-05-03T10:14:43.04Z</time></trkpt><trkpt lat="36.8425594" lon="9.828083"><ele>45.4</ele><time>2026-05-03T10:14:44.07Z</time></trkpt><trkpt lat="36.8425504" lon="9.8279481"><ele>46.0</ele><time>2026-05-03T10:14:45.062Z</time></trkpt><trkpt lat="36.8425411" lon="9.8278148"><ele>46.0</ele><time>2026-05-03T10:14:46.067Z</time></trkpt><trkpt lat="36.8425289" lon="9.8276793"><ele>46.0</ele><time>2026-05-03T10:14:47.049Z</time></trkpt><trkpt lat="36.842521" lon="9.8275451"><ele>46.0</ele><time>2026-05-03T10:14:48.056Z</time></trkpt><trkpt lat="36.842512" lon="9.8274052"><ele>46.0</ele><time>2026-05-03T10:14:49.069Z</time></trkpt><trkpt lat="36.8425058" lon="9.8272558"><ele>46.0</ele><time>2026-05-03T10:14:50.078Z</time></trkpt><trkpt lat="36.8424955" lon="9.8271078"><ele>46.8</ele><time>2026-05-03T10:14:51.07Z</time></trkpt><trkpt lat="36.8424839" lon="9.8269665"><ele>47.599999999999994</ele><time>2026-05-03T10:14:52.073Z</time></trkpt><trkpt lat="36.8424727" lon="9.8268279"><ele>48.4</ele><time>2026-05-03T10:14:53.075Z</time></trkpt><trkpt lat="36.8424613" lon="9.8266905"><ele>49.2</ele><time>2026-05-03T10:14:54.077Z</time></trkpt><trkpt lat="36.8424531" lon="9.8265498"><ele>50.0</ele><time>2026-05-03T10:14:55.051Z</time></trkpt><trkpt lat="36.8424434" lon="9.826403"><ele>50.0</ele><time>2026-05-03T10:14:56.077Z</time></trkpt><trkpt lat="36.8424297" lon="9.8262546"><ele>50.0</ele><time>2026-05-03T10:14:57.084Z</time></trkpt><trkpt lat="36.8424199" lon="9.8261094"><ele>50.0</ele><time>2026-05-03T10:14:58.079Z</time></trkpt><trkpt lat="36.8424093" lon="9.8259597"><ele>50.0</ele><time>2026-05-03T10:14:59.065Z</time></trkpt><trkpt lat="36.8424008" lon="9.8258131"><ele>50.25</ele><time>2026-05-03T10:15:00.065Z</time></trkpt><trkpt lat="36.8423842" lon="9.8256681"><ele>50.5</ele><time>2026-05-03T10:15:01.07Z</time></trkpt><trkpt lat="36.842356" lon="9.8255137"><ele>50.75</ele><time>2026-05-03T10:15:02.081Z</time></trkpt><trkpt lat="36.8423243" lon="9.825348"><ele>51.0</ele><time>2026-05-03T10:15:03.067Z</time></trkpt><trkpt lat="36.8422912" lon="9.8251683"><ele>50.33333333333333</ele><time>2026-05-03T10:15:04.067Z</time></trkpt><trkpt lat="36.8422566" lon="9.8249848"><ele>49.666666666666664</ele><time>2026-05-03T10:15:05.061Z</time></trkpt><trkpt lat="36.8422109" lon="9.8247963"><ele>49.0</ele><time>2026-05-03T10:15:06.068Z</time></trkpt><trkpt lat="36.8421617" lon="9.8245978"><ele>49.0</ele><time>2026-05-03T10:15:07.06Z</time></trkpt><trkpt lat="36.8420979" lon="9.8243954"><ele>49.0</ele><time>2026-05-03T10:15:08.064Z</time></trkpt><trkpt lat="36.8420112" lon="9.8241907"><ele>49.0</ele><time>2026-05-03T10:15:09.074Z</time></trkpt><trkpt lat="36.8418976" lon="9.823948"><ele>49.0</ele><time>2026-05-03T10:15:10.073Z</time></trkpt><trkpt lat="36.8417627" lon="9.8236878"><ele>49.0</ele><time>2026-05-03T10:15:11.056Z</time></trkpt><trkpt lat="36.8416173" lon="9.8233951"><ele>49.5</ele><time>2026-05-03T10:15:12.079Z</time></trkpt><trkpt lat="36.8414872" lon="9.823107"><ele>50.0</ele><time>2026-05-03T10:15:13.051Z</time></trkpt><trkpt lat="36.8413687" lon="9.8228403"><ele>50.0</ele><time>2026-05-03T10:15:14.066Z</time></trkpt><trkpt lat="36.8412562" lon="9.822566"><ele>50.0</ele><time>2026-05-03T10:15:15.084Z</time></trkpt><trkpt lat="36.8411344" lon="9.8222913"><ele>50.0</ele><time>2026-05-03T10:15:16.078Z</time></trkpt><trkpt lat="36.8410156" lon="9.8220182"><ele>50.0</ele><time>2026-05-03T10:15:17.074Z</time></trkpt><trkpt lat="36.8409069" lon="9.8217588"><ele>49.66666666666667</ele><time>2026-05-03T10:15:18.07Z</time></trkpt><trkpt lat="36.8408044" lon="9.8215105"><ele>49.33333333333333</ele><time>2026-05-03T10:15:19.063Z</time></trkpt><trkpt lat="36.8407055" lon="9.8212763"><ele>49.0</ele><time>2026-05-03T10:15:20.087Z</time></trkpt><trkpt lat="36.8406142" lon="9.8210559"><ele>48.33333333333333</ele><time>2026-05-03T10:15:21.062Z</time></trkpt><trkpt lat="36.8405277" lon="9.8208435"><ele>47.666666666666664</ele><time>2026-05-03T10:15:22.082Z</time></trkpt><trkpt lat="36.8404427" lon="9.8206381"><ele>47.0</ele><time>2026-05-03T10:15:23.066Z</time></trkpt><trkpt lat="36.8403678" lon="9.8204269"><ele>47.0</ele><time>2026-05-03T10:15:24.064Z</time></trkpt><trkpt lat="36.840308" lon="9.8201977"><ele>47.0</ele><time>2026-05-03T10:15:25.061Z</time></trkpt><trkpt lat="36.8402658" lon="9.8199642"><ele>47.0</ele><time>2026-05-03T10:15:26.075Z</time></trkpt><trkpt lat="36.8402213" lon="9.8197275"><ele>48.0</ele><time>2026-05-03T10:15:27.069Z</time></trkpt><trkpt lat="36.8401701" lon="9.8194395"><ele>49.0</ele><time>2026-05-03T10:15:28.066Z</time></trkpt><trkpt lat="36.8401053" lon="9.8191163"><ele>45.5</ele><time>2026-05-03T10:15:29.071Z</time></trkpt><trkpt lat="36.8400453" lon="9.8187703"><ele>42.0</ele><time>2026-05-03T10:15:30.079Z</time></trkpt><trkpt lat="36.8400022" lon="9.8184501"><ele>41.5</ele><time>2026-05-03T10:15:31.083Z</time></trkpt><trkpt lat="36.8399525" lon="9.8181519"><ele>41.0</ele><time>2026-05-03T10:15:32.087Z</time></trkpt><trkpt lat="36.8399027" lon="9.8178822"><ele>42.0</ele><time>2026-05-03T10:15:33.071Z</time></trkpt><trkpt lat="36.8398468" lon="9.8176244"><ele>43.0</ele><time>2026-05-03T10:15:34.101Z</time></trkpt><trkpt lat="36.8397895" lon="9.8173815"><ele>44.0</ele><time>2026-05-03T10:15:35.066Z</time></trkpt><trkpt lat="36.8397239" lon="9.8171562"><ele>44.0</ele><time>2026-05-03T10:15:36.098Z</time></trkpt><trkpt lat="36.8396377" lon="9.8169483"><ele>44.0</ele><time>2026-05-03T10:15:37.078Z</time></trkpt><trkpt lat="36.8395316" lon="9.816741"><ele>44.0</ele><time>2026-05-03T10:15:38.09Z</time></trkpt><trkpt lat="36.8394108" lon="9.8165476"><ele>43.33333333333333</ele><time>2026-05-03T10:15:39.099Z</time></trkpt><trkpt lat="36.8392807" lon="9.8163598"><ele>42.666666666666664</ele><time>2026-05-03T10:15:40.097Z</time></trkpt><trkpt lat="36.8391415" lon="9.8161833"><ele>42.0</ele><time>2026-05-03T10:15:41.098Z</time></trkpt><trkpt lat="36.838993" lon="9.8160086"><ele>43.5</ele><time>2026-05-03T10:15:42.096Z</time></trkpt><trkpt lat="36.8388279" lon="9.8158331"><ele>45.0</ele><time>2026-05-03T10:15:43.093Z</time></trkpt><trkpt lat="36.8386464" lon="9.8156269"><ele>45.0</ele><time>2026-05-03T10:15:44.092Z</time></trkpt><trkpt lat="36.83847" lon="9.8154256"><ele>45.0</ele><time>2026-05-03T10:15:45.054Z</time></trkpt><trkpt lat="36.8383122" lon="9.8152437"><ele>45.333333333333336</ele><time>2026-05-03T10:15:46.094Z</time></trkpt><trkpt lat="36.838161" lon="9.8150619"><ele>45.66666666666667</ele><time>2026-05-03T10:15:47.085Z</time></trkpt><trkpt lat="36.8380147" lon="9.8148899"><ele>46.0</ele><time>2026-05-03T10:15:48.085Z</time></trkpt><trkpt lat="36.8378715" lon="9.8147163"><ele>46.0</ele><time>2026-05-03T10:15:49.083Z</time></trkpt><trkpt lat="36.8377256" lon="9.8145376"><ele>46.0</ele><time>2026-05-03T10:15:50.086Z</time></trkpt><trkpt lat="36.8375903" lon="9.8143555"><ele>46.0</ele><time>2026-05-03T10:15:51.095Z</time></trkpt><trkpt lat="36.8374717" lon="9.8141738"><ele>45.0</ele><time>2026-05-03T10:15:52.073Z</time></trkpt><trkpt lat="36.8373667" lon="9.813967"><ele>44.0</ele><time>2026-05-03T10:15:53.106Z</time></trkpt><trkpt lat="36.8372751" lon="9.8137486"><ele>43.0</ele><time>2026-05-03T10:15:54.095Z</time></trkpt><trkpt lat="36.8372031" lon="9.8135328"><ele>43.333333333333336</ele><time>2026-05-03T10:15:55.102Z</time></trkpt><trkpt lat="36.837153" lon="9.8133239"><ele>43.666666666666664</ele><time>2026-05-03T10:15:56.097Z</time></trkpt><trkpt lat="36.8371194" lon="9.8131105"><ele>44.0</ele><time>2026-05-03T10:15:57.091Z</time></trkpt><trkpt lat="36.8370874" lon="9.8128948"><ele>44.0</ele><time>2026-05-03T10:15:58.103Z</time></trkpt><trkpt lat="36.8370678" lon="9.8126905"><ele>44.0</ele><time>2026-05-03T10:15:59.095Z</time></trkpt><trkpt lat="36.8370539" lon="9.8124784"><ele>44.0</ele><time>2026-05-03T10:16:00.077Z</time></trkpt><trkpt lat="36.8370448" lon="9.8122758"><ele>44.33333333333333</ele><time>2026-05-03T10:16:01.089Z</time></trkpt><trkpt lat="36.8370331" lon="9.812075"><ele>44.666666666666664</ele><time>2026-05-03T10:16:02.087Z</time></trkpt><trkpt lat="36.8370269" lon="9.8118824"><ele>45.0</ele><time>2026-05-03T10:16:03.093Z</time></trkpt><trkpt lat="36.8370171" lon="9.8117035"><ele>45.0</ele><time>2026-05-03T10:16:04.09Z</time></trkpt><trkpt lat="36.837011" lon="9.8115391"><ele>45.0</ele><time>2026-05-03T10:16:05.092Z</time></trkpt><trkpt lat="36.8370057" lon="9.8113735"><ele>45.0</ele><time>2026-05-03T10:16:06.098Z</time></trkpt><trkpt lat="36.8370039" lon="9.8112232"><ele>45.0</ele><time>2026-05-03T10:16:07.053Z</time></trkpt><trkpt lat="36.837" lon="9.8110802"><ele>44.75</ele><time>2026-05-03T10:16:08.092Z</time></trkpt><trkpt lat="36.8370059" lon="9.8109287"><ele>44.5</ele><time>2026-05-03T10:16:09.081Z</time></trkpt><trkpt lat="36.8370177" lon="9.8107708"><ele>44.25</ele><time>2026-05-03T10:16:10.104Z</time></trkpt><trkpt lat="36.837043" lon="9.810614"><ele>44.0</ele><time>2026-05-03T10:16:11.051Z</time></trkpt><trkpt lat="36.837073" lon="9.8104636"><ele>44.0</ele><time>2026-05-03T10:16:12.076Z</time></trkpt><trkpt lat="36.8371022" lon="9.8103075"><ele>44.0</ele><time>2026-05-03T10:16:13.062Z</time></trkpt><trkpt lat="36.83713" lon="9.8101438"><ele>44.0</ele><time>2026-05-03T10:16:14.091Z</time></trkpt><trkpt lat="36.837157" lon="9.8099838"><ele>44.0</ele><time>2026-05-03T10:16:15.093Z</time></trkpt><trkpt lat="36.8371935" lon="9.8098131"><ele>42.666666666666664</ele><time>2026-05-03T10:16:16.101Z</time></trkpt><trkpt lat="36.8372328" lon="9.8096317"><ele>41.333333333333336</ele><time>2026-05-03T10:16:17.058Z</time></trkpt><trkpt lat="36.8372789" lon="9.8094507"><ele>40.0</ele><time>2026-05-03T10:16:18.078Z</time></trkpt><trkpt lat="36.8373185" lon="9.809267"><ele>39.333333333333336</ele><time>2026-05-03T10:16:19.086Z</time></trkpt><trkpt lat="36.8373593" lon="9.8090782"><ele>38.666666666666664</ele><time>2026-05-03T10:16:20.104Z</time></trkpt><trkpt lat="36.837404" lon="9.8088823"><ele>38.0</ele><time>2026-05-03T10:16:21.093Z</time></trkpt><trkpt lat="36.8374439" lon="9.808671"><ele>37.33333333333333</ele><time>2026-05-03T10:16:22.08Z</time></trkpt><trkpt lat="36.8374895" lon="9.8084614"><ele>36.666666666666664</ele><time>2026-05-03T10:16:23.093Z</time></trkpt><trkpt lat="36.8375375" lon="9.8082446"><ele>36.0</ele><time>2026-05-03T10:16:24.094Z</time></trkpt><trkpt lat="36.8375867" lon="9.8080266"><ele>36.0</ele><time>2026-05-03T10:16:25.103Z</time></trkpt><trkpt lat="36.8376331" lon="9.8078123"><ele>36.0</ele><time>2026-05-03T10:16:26.101Z</time></trkpt><trkpt lat="36.837678" lon="9.8075991"><ele>36.0</ele><time>2026-05-03T10:16:27.09Z</time></trkpt><trkpt lat="36.8377147" lon="9.8073847"><ele>34.666666666666664</ele><time>2026-05-03T10:16:28.092Z</time></trkpt><trkpt lat="36.8377358" lon="9.8071748"><ele>33.33333333333333</ele><time>2026-05-03T10:16:29.083Z</time></trkpt><trkpt lat="36.8377402" lon="9.8069709"><ele>32.0</ele><time>2026-05-03T10:16:30.098Z</time></trkpt><trkpt lat="36.837737" lon="9.8067554"><ele>32.0</ele><time>2026-05-03T10:16:31.088Z</time></trkpt><trkpt lat="36.8377146" lon="9.8065277"><ele>32.0</ele><time>2026-05-03T10:16:32.093Z</time></trkpt><trkpt lat="36.8376726" lon="9.8062887"><ele>32.0</ele><time>2026-05-03T10:16:33.089Z</time></trkpt><trkpt lat="36.8376201" lon="9.8060345"><ele>32.0</ele><time>2026-05-03T10:16:34.071Z</time></trkpt><trkpt lat="36.8375393" lon="9.805762"><ele>32.0</ele><time>2026-05-03T10:16:35.085Z</time></trkpt><trkpt lat="36.8374584" lon="9.8054553"><ele>31.0</ele><time>2026-05-03T10:16:36.099Z</time></trkpt><trkpt lat="36.8373693" lon="9.8051088"><ele>30.0</ele><time>2026-05-03T10:16:37.079Z</time></trkpt><trkpt lat="36.8372816" lon="9.804756"><ele>30.0</ele><time>2026-05-03T10:16:38.088Z</time></trkpt><trkpt lat="36.8371997" lon="9.8044299"><ele>30.0</ele><time>2026-05-03T10:16:39.088Z</time></trkpt><trkpt lat="36.8371266" lon="9.804122"><ele>31.5</ele><time>2026-05-03T10:16:40.093Z</time></trkpt><trkpt lat="36.8370508" lon="9.8038312"><ele>33.0</ele><time>2026-05-03T10:16:41.089Z</time></trkpt><trkpt lat="36.8369781" lon="9.8035521"><ele>33.0</ele><time>2026-05-03T10:16:42.102Z</time></trkpt><trkpt lat="36.8369113" lon="9.8032947"><ele>33.0</ele><time>2026-05-03T10:16:43.09Z</time></trkpt><trkpt lat="36.8368451" lon="9.8030569"><ele>33.0</ele><time>2026-05-03T10:16:44.088Z</time></trkpt><trkpt lat="36.8367713" lon="9.8028309"><ele>33.333333333333336</ele><time>2026-05-03T10:16:45.071Z</time></trkpt><trkpt lat="36.8366871" lon="9.8026149"><ele>33.66666666666667</ele><time>2026-05-03T10:16:46.075Z</time></trkpt><trkpt lat="36.8365941" lon="9.8024112"><ele>34.0</ele><time>2026-05-03T10:16:47.06Z</time></trkpt><trkpt lat="36.8364883" lon="9.8022223"><ele>34.0</ele><time>2026-05-03T10:16:48.066Z</time></trkpt><trkpt lat="36.8363757" lon="9.8020313"><ele>34.0</ele><time>2026-05-03T10:16:49.092Z</time></trkpt><trkpt lat="36.8362626" lon="9.8018401"><ele>34.0</ele><time>2026-05-03T10:16:50.107Z</time></trkpt><trkpt lat="36.8361515" lon="9.8016428"><ele>33.66666666666667</ele><time>2026-05-03T10:16:51.049Z</time></trkpt><trkpt lat="36.8360272" lon="9.801434"><ele>33.333333333333336</ele><time>2026-05-03T10:16:52.052Z</time></trkpt><trkpt lat="36.8358865" lon="9.8012122"><ele>33.0</ele><time>2026-05-03T10:16:53.056Z</time></trkpt><trkpt lat="36.8357303" lon="9.8009694"><ele>33.0</ele><time>2026-05-03T10:16:54.049Z</time></trkpt><trkpt lat="36.8355724" lon="9.8006844"><ele>33.0</ele><time>2026-05-03T10:16:55.091Z</time></trkpt><trkpt lat="36.8354128" lon="9.8003888"><ele>32.5</ele><time>2026-05-03T10:16:56.1Z</time></trkpt><trkpt lat="36.8352621" lon="9.8001053"><ele>32.0</ele><time>2026-05-03T10:16:57.036Z</time></trkpt><trkpt lat="36.8351109" lon="9.7998321"><ele>32.0</ele><time>2026-05-03T10:16:58.051Z</time></trkpt><trkpt lat="36.8349626" lon="9.7995731"><ele>32.0</ele><time>2026-05-03T10:16:59.067Z</time></trkpt><trkpt lat="36.8348176" lon="9.7993231"><ele>32.0</ele><time>2026-05-03T10:17:00.061Z</time></trkpt><trkpt lat="36.8346744" lon="9.7990839"><ele>32.0</ele><time>2026-05-03T10:17:01.039Z</time></trkpt><trkpt lat="36.8345368" lon="9.7988454"><ele>32.0</ele><time>2026-05-03T10:17:02.087Z</time></trkpt><trkpt lat="36.8344015" lon="9.7986178"><ele>32.0</ele><time>2026-05-03T10:17:03.086Z</time></trkpt><trkpt lat="36.834268" lon="9.7983883"><ele>31.666666666666664</ele><time>2026-05-03T10:17:04.054Z</time></trkpt><trkpt lat="36.8341373" lon="9.7981646"><ele>31.333333333333336</ele><time>2026-05-03T10:17:05.054Z</time></trkpt><trkpt lat="36.8340062" lon="9.7979497"><ele>31.0</ele><time>2026-05-03T10:17:06.066Z</time></trkpt><trkpt lat="36.8338738" lon="9.7977356"><ele>31.0</ele><time>2026-05-03T10:17:07.089Z</time></trkpt><trkpt lat="36.8337461" lon="9.7975204"><ele>31.0</ele><time>2026-05-03T10:17:08.045Z</time></trkpt><trkpt lat="36.8336233" lon="9.7973077"><ele>31.0</ele><time>2026-05-03T10:17:09.089Z</time></trkpt><trkpt lat="36.833499" lon="9.7970926"><ele>31.333333333333336</ele><time>2026-05-03T10:17:10.088Z</time></trkpt><trkpt lat="36.8333785" lon="9.7968836"><ele>31.666666666666664</ele><time>2026-05-03T10:17:11.05Z</time></trkpt><trkpt lat="36.8332576" lon="9.7966802"><ele>32.0</ele><time>2026-05-03T10:17:12.056Z</time></trkpt><trkpt lat="36.8331403" lon="9.7964804"><ele>32.0</ele><time>2026-05-03T10:17:13.081Z</time></trkpt><trkpt lat="36.8330281" lon="9.7962766"><ele>32.0</ele><time>2026-05-03T10:17:14.07Z</time></trkpt><trkpt lat="36.8329115" lon="9.7960778"><ele>32.0</ele><time>2026-05-03T10:17:15.058Z</time></trkpt><trkpt lat="36.8327977" lon="9.7958814"><ele>32.33333333333333</ele><time>2026-05-03T10:17:16.086Z</time></trkpt><trkpt lat="36.8326826" lon="9.7956807"><ele>32.666666666666664</ele><time>2026-05-03T10:17:17.09Z</time></trkpt><trkpt lat="36.832564" lon="9.7954838"><ele>33.0</ele><time>2026-05-03T10:17:18.109Z</time></trkpt><trkpt lat="36.8324484" lon="9.7952831"><ele>33.0</ele><time>2026-05-03T10:17:19.082Z</time></trkpt><trkpt lat="36.8323338" lon="9.7950889"><ele>33.0</ele><time>2026-05-03T10:17:20.093Z</time></trkpt><trkpt lat="36.8322186" lon="9.7948916"><ele>33.0</ele><time>2026-05-03T10:17:21.097Z</time></trkpt><trkpt lat="36.8321037" lon="9.7946917"><ele>33.0</ele><time>2026-05-03T10:17:22.095Z</time></trkpt><trkpt lat="36.8319925" lon="9.7944991"><ele>33.0</ele><time>2026-05-03T10:17:23.098Z</time></trkpt><trkpt lat="36.8318865" lon="9.7943017"><ele>33.0</ele><time>2026-05-03T10:17:24.098Z</time></trkpt><trkpt lat="36.8317783" lon="9.7941117"><ele>32.666666666666664</ele><time>2026-05-03T10:17:25.1Z</time></trkpt><trkpt lat="36.8316684" lon="9.7939193"><ele>32.33333333333333</ele><time>2026-05-03T10:17:26.105Z</time></trkpt><trkpt lat="36.8315516" lon="9.7937233"><ele>32.0</ele><time>2026-05-03T10:17:27.091Z</time></trkpt><trkpt lat="36.8314337" lon="9.7935222"><ele>32.33333333333333</ele><time>2026-05-03T10:17:28.081Z</time></trkpt><trkpt lat="36.831317" lon="9.7933241"><ele>32.666666666666664</ele><time>2026-05-03T10:17:29.086Z</time></trkpt><trkpt lat="36.831206" lon="9.7931272"><ele>33.0</ele><time>2026-05-03T10:17:30.1Z</time></trkpt><trkpt lat="36.8310916" lon="9.7929337"><ele>33.0</ele><time>2026-05-03T10:17:31.088Z</time></trkpt><trkpt lat="36.8309842" lon="9.792742"><ele>33.0</ele><time>2026-05-03T10:17:32.069Z</time></trkpt><trkpt lat="36.8308742" lon="9.7925558"><ele>33.0</ele><time>2026-05-03T10:17:33.091Z</time></trkpt><trkpt lat="36.830764" lon="9.7923679"><ele>32.666666666666664</ele><time>2026-05-03T10:17:34.099Z</time></trkpt><trkpt lat="36.830652" lon="9.79218"><ele>32.33333333333333</ele><time>2026-05-03T10:17:35.092Z</time></trkpt><trkpt lat="36.830541" lon="9.7919886"><ele>32.0</ele><time>2026-05-03T10:17:36.1Z</time></trkpt><trkpt lat="36.8304324" lon="9.7917933"><ele>32.0</ele><time>2026-05-03T10:17:37.095Z</time></trkpt><trkpt lat="36.8303224" lon="9.7915995"><ele>32.0</ele><time>2026-05-03T10:17:38.094Z</time></trkpt><trkpt lat="36.83021" lon="9.7914026"><ele>32.0</ele><time>2026-05-03T10:17:39.092Z</time></trkpt><trkpt lat="36.8300945" lon="9.7912046"><ele>32.33333333333333</ele><time>2026-05-03T10:17:40.069Z</time></trkpt><trkpt lat="36.8299816" lon="9.7910091"><ele>32.666666666666664</ele><time>2026-05-03T10:17:41.089Z</time></trkpt><trkpt lat="36.8298644" lon="9.7908099"><ele>33.0</ele><time>2026-05-03T10:17:42.101Z</time></trkpt><trkpt lat="36.8297421" lon="9.7906025"><ele>33.0</ele><time>2026-05-03T10:17:43.086Z</time></trkpt><trkpt lat="36.8296148" lon="9.7903947"><ele>33.0</ele><time>2026-05-03T10:17:44.064Z</time></trkpt><trkpt lat="36.8294891" lon="9.7901738"><ele>33.0</ele><time>2026-05-03T10:17:45.087Z</time></trkpt><trkpt lat="36.8293653" lon="9.7899547"><ele>33.333333333333336</ele><time>2026-05-03T10:17:46.082Z</time></trkpt><trkpt lat="36.8292324" lon="9.7897327"><ele>33.66666666666667</ele><time>2026-05-03T10:17:47.081Z</time></trkpt><trkpt lat="36.8291009" lon="9.7895103"><ele>34.0</ele><time>2026-05-03T10:17:48.081Z</time></trkpt><trkpt lat="36.8289702" lon="9.7892893"><ele>34.0</ele><time>2026-05-03T10:17:49.05Z</time></trkpt><trkpt lat="36.8288385" lon="9.7890638"><ele>34.0</ele><time>2026-05-03T10:17:50.091Z</time></trkpt><trkpt lat="36.8287046" lon="9.7888424"><ele>34.0</ele><time>2026-05-03T10:17:51.075Z</time></trkpt><trkpt lat="36.8285735" lon="9.7886227"><ele>34.0</ele><time>2026-05-03T10:17:52.082Z</time></trkpt><trkpt lat="36.8284457" lon="9.7883994"><ele>34.0</ele><time>2026-05-03T10:17:53.087Z</time></trkpt><trkpt lat="36.8283185" lon="9.7881714"><ele>34.0</ele><time>2026-05-03T10:17:54.092Z</time></trkpt><trkpt lat="36.8281854" lon="9.7879494"><ele>34.0</ele><time>2026-05-03T10:17:55.064Z</time></trkpt><trkpt lat="36.8280506" lon="9.7877233"><ele>34.0</ele><time>2026-05-03T10:17:56.08Z</time></trkpt><trkpt lat="36.8279211" lon="9.7875027"><ele>34.0</ele><time>2026-05-03T10:17:57.072Z</time></trkpt><trkpt lat="36.8277932" lon="9.7872843"><ele>34.0</ele><time>2026-05-03T10:17:58.063Z</time></trkpt><trkpt lat="36.8276641" lon="9.7870636"><ele>34.0</ele><time>2026-05-03T10:17:59.083Z</time></trkpt><trkpt lat="36.827532" lon="9.7868448"><ele>34.0</ele><time>2026-05-03T10:18:00.087Z</time></trkpt><trkpt lat="36.8274007" lon="9.7866276"><ele>33.66666666666667</ele><time>2026-05-03T10:18:01.063Z</time></trkpt><trkpt lat="36.8272707" lon="9.7864099"><ele>33.333333333333336</ele><time>2026-05-03T10:18:02.102Z</time></trkpt><trkpt lat="36.8271456" lon="9.7861976"><ele>33.0</ele><time>2026-05-03T10:18:03.075Z</time></trkpt><trkpt lat="36.8270187" lon="9.7859844"><ele>33.0</ele><time>2026-05-03T10:18:04.088Z</time></trkpt><trkpt lat="36.8268955" lon="9.7857713"><ele>33.0</ele><time>2026-05-03T10:18:05.093Z</time></trkpt><trkpt lat="36.826779" lon="9.7855596"><ele>33.0</ele><time>2026-05-03T10:18:06.067Z</time></trkpt><trkpt lat="36.8266566" lon="9.78535"><ele>33.333333333333336</ele><time>2026-05-03T10:18:07.09Z</time></trkpt><trkpt lat="36.8265408" lon="9.7851447"><ele>33.66666666666667</ele><time>2026-05-03T10:18:08.068Z</time></trkpt><trkpt lat="36.8264228" lon="9.7849427"><ele>34.0</ele><time>2026-05-03T10:18:09.09Z</time></trkpt><trkpt lat="36.8263074" lon="9.7847469"><ele>34.0</ele><time>2026-05-03T10:18:10.095Z</time></trkpt><trkpt lat="36.8261868" lon="9.7845531"><ele>34.0</ele><time>2026-05-03T10:18:11.103Z</time></trkpt><trkpt lat="36.8260606" lon="9.7843643"><ele>34.0</ele><time>2026-05-03T10:18:12.081Z</time></trkpt><trkpt lat="36.8259241" lon="9.7841827"><ele>34.0</ele><time>2026-05-03T10:18:13.092Z</time></trkpt><trkpt lat="36.8257821" lon="9.7840014"><ele>34.0</ele><time>2026-05-03T10:18:14.1Z</time></trkpt><trkpt lat="36.8256319" lon="9.7838336"><ele>34.0</ele><time>2026-05-03T10:18:15.072Z</time></trkpt><trkpt lat="36.8254697" lon="9.7836636"><ele>34.0</ele><time>2026-05-03T10:18:16.072Z</time></trkpt><trkpt lat="36.8253035" lon="9.7835008"><ele>34.0</ele><time>2026-05-03T10:18:17.078Z</time></trkpt><trkpt lat="36.8251314" lon="9.7833428"><ele>34.0</ele><time>2026-05-03T10:18:18.087Z</time></trkpt><trkpt lat="36.8249608" lon="9.783199"><ele>34.0</ele><time>2026-05-03T10:18:19.092Z</time></trkpt><trkpt lat="36.8247856" lon="9.783061"><ele>34.0</ele><time>2026-05-03T10:18:20.098Z</time></trkpt><trkpt lat="36.8246073" lon="9.7829255"><ele>34.0</ele><time>2026-05-03T10:18:21.074Z</time></trkpt><trkpt lat="36.8244354" lon="9.7827986"><ele>35.0</ele><time>2026-05-03T10:18:22.088Z</time></trkpt><trkpt lat="36.8242666" lon="9.7826717"><ele>36.0</ele><time>2026-05-03T10:18:23.083Z</time></trkpt><trkpt lat="36.8240974" lon="9.7825484"><ele>37.0</ele><time>2026-05-03T10:18:24.084Z</time></trkpt><trkpt lat="36.8239253" lon="9.7824202"><ele>37.0</ele><time>2026-05-03T10:18:25.065Z</time></trkpt><trkpt lat="36.8237599" lon="9.7822909"><ele>37.0</ele><time>2026-05-03T10:18:26.066Z</time></trkpt><trkpt lat="36.8236019" lon="9.7821622"><ele>37.0</ele><time>2026-05-03T10:18:27.085Z</time></trkpt><trkpt lat="36.8234362" lon="9.7820357"><ele>36.66666666666667</ele><time>2026-05-03T10:18:28.083Z</time></trkpt><trkpt lat="36.8232701" lon="9.7819176"><ele>36.333333333333336</ele><time>2026-05-03T10:18:29.07Z</time></trkpt><trkpt lat="36.8230974" lon="9.7817953"><ele>36.0</ele><time>2026-05-03T10:18:30.09Z</time></trkpt><trkpt lat="36.8229336" lon="9.7816741"><ele>36.0</ele><time>2026-05-03T10:18:31.085Z</time></trkpt><trkpt lat="36.8227699" lon="9.7815549"><ele>36.0</ele><time>2026-05-03T10:18:32.086Z</time></trkpt><trkpt lat="36.8226062" lon="9.7814297"><ele>36.0</ele><time>2026-05-03T10:18:33.091Z</time></trkpt><trkpt lat="36.8224486" lon="9.7813144"><ele>36.0</ele><time>2026-05-03T10:18:34.093Z</time></trkpt><trkpt lat="36.8222966" lon="9.7812038"><ele>36.0</ele><time>2026-05-03T10:18:35.083Z</time></trkpt><trkpt lat="36.8221484" lon="9.7810946"><ele>36.0</ele><time>2026-05-03T10:18:36.077Z</time></trkpt><trkpt lat="36.8220036" lon="9.7809903"><ele>36.0</ele><time>2026-05-03T10:18:37.074Z</time></trkpt><trkpt lat="36.8218675" lon="9.7808855"><ele>36.0</ele><time>2026-05-03T10:18:38.095Z</time></trkpt><trkpt lat="36.82174" lon="9.7807869"><ele>36.0</ele><time>2026-05-03T10:18:39.077Z</time></trkpt><trkpt lat="36.8216209" lon="9.7806857"><ele>36.25</ele><time>2026-05-03T10:18:40.068Z</time></trkpt><trkpt lat="36.8214984" lon="9.7805953"><ele>36.5</ele><time>2026-05-03T10:18:41.087Z</time></trkpt><trkpt lat="36.8213834" lon="9.780503"><ele>36.75</ele><time>2026-05-03T10:18:42.057Z</time></trkpt><trkpt lat="36.8212648" lon="9.7804159"><ele>37.0</ele><time>2026-05-03T10:18:43.097Z</time></trkpt><trkpt lat="36.8211384" lon="9.7803095"><ele>37.0</ele><time>2026-05-03T10:18:44.083Z</time></trkpt><trkpt lat="36.8210031" lon="9.7801978"><ele>37.0</ele><time>2026-05-03T10:18:45.068Z</time></trkpt><trkpt lat="36.8208569" lon="9.7800877"><ele>37.0</ele><time>2026-05-03T10:18:46.081Z</time></trkpt><trkpt lat="36.8207148" lon="9.7799713"><ele>36.66666666666667</ele><time>2026-05-03T10:18:47.083Z</time></trkpt><trkpt lat="36.82058" lon="9.7798331"><ele>36.333333333333336</ele><time>2026-05-03T10:18:48.095Z</time></trkpt><trkpt lat="36.820445" lon="9.7796681"><ele>36.0</ele><time>2026-05-03T10:18:49.082Z</time></trkpt><trkpt lat="36.8203141" lon="9.7794757"><ele>36.0</ele><time>2026-05-03T10:18:50.089Z</time></trkpt><trkpt lat="36.8201795" lon="9.7792597"><ele>36.0</ele><time>2026-05-03T10:18:51.071Z</time></trkpt><trkpt lat="36.8200484" lon="9.7790467"><ele>36.0</ele><time>2026-05-03T10:18:52.081Z</time></trkpt><trkpt lat="36.8199307" lon="9.7788514"><ele>36.0</ele><time>2026-05-03T10:18:53.084Z</time></trkpt><trkpt lat="36.8198198" lon="9.7786641"><ele>36.0</ele><time>2026-05-03T10:18:54.047Z</time></trkpt><trkpt lat="36.8197108" lon="9.7784794"><ele>36.0</ele><time>2026-05-03T10:18:55.073Z</time></trkpt><trkpt lat="36.8195991" lon="9.7782976"><ele>36.0</ele><time>2026-05-03T10:18:56.082Z</time></trkpt><trkpt lat="36.8194879" lon="9.7781223"><ele>36.0</ele><time>2026-05-03T10:18:57.065Z</time></trkpt><trkpt lat="36.8193643" lon="9.7779543"><ele>36.0</ele><time>2026-05-03T10:18:58.088Z</time></trkpt><trkpt lat="36.8192353" lon="9.7777965"><ele>36.666666666666664</ele><time>2026-05-03T10:18:59.082Z</time></trkpt><trkpt lat="36.8190916" lon="9.7776476"><ele>37.33333333333333</ele><time>2026-05-03T10:19:00.09Z</time></trkpt><trkpt lat="36.8189338" lon="9.7775136"><ele>38.0</ele><time>2026-05-03T10:19:01.081Z</time></trkpt><trkpt lat="36.8187708" lon="9.7773967"><ele>38.0</ele><time>2026-05-03T10:19:02.057Z</time></trkpt><trkpt lat="36.8186017" lon="9.7772839"><ele>38.0</ele><time>2026-05-03T10:19:03.077Z</time></trkpt><trkpt lat="36.8184278" lon="9.7771838"><ele>38.0</ele><time>2026-05-03T10:19:04.094Z</time></trkpt><trkpt lat="36.8182597" lon="9.7770861"><ele>37.33333333333333</ele><time>2026-05-03T10:19:05.108Z</time></trkpt><trkpt lat="36.8180907" lon="9.7769907"><ele>36.666666666666664</ele><time>2026-05-03T10:19:06.085Z</time></trkpt><trkpt lat="36.8179262" lon="9.7768949"><ele>36.0</ele><time>2026-05-03T10:19:07.093Z</time></trkpt><trkpt lat="36.8177633" lon="9.7767994"><ele>35.666666666666664</ele><time>2026-05-03T10:19:08.083Z</time></trkpt><trkpt lat="36.817601" lon="9.7767039"><ele>35.33333333333333</ele><time>2026-05-03T10:19:09.084Z</time></trkpt><trkpt lat="36.8174365" lon="9.7766082"><ele>35.0</ele><time>2026-05-03T10:19:10.087Z</time></trkpt><trkpt lat="36.8172698" lon="9.7765069"><ele>35.0</ele><time>2026-05-03T10:19:11.091Z</time></trkpt><trkpt lat="36.8171029" lon="9.7764059"><ele>35.0</ele><time>2026-05-03T10:19:12.079Z</time></trkpt><trkpt lat="36.8169371" lon="9.7763067"><ele>35.0</ele><time>2026-05-03T10:19:13.088Z</time></trkpt><trkpt lat="36.8167673" lon="9.776207"><ele>34.666666666666664</ele><time>2026-05-03T10:19:14.083Z</time></trkpt><trkpt lat="36.8166013" lon="9.776108"><ele>34.333333333333336</ele><time>2026-05-03T10:19:15.078Z</time></trkpt><trkpt lat="36.8164378" lon="9.7760082"><ele>34.0</ele><time>2026-05-03T10:19:16.09Z</time></trkpt><trkpt lat="36.8162713" lon="9.7759073"><ele>34.0</ele><time>2026-05-03T10:19:17.066Z</time></trkpt><trkpt lat="36.8161075" lon="9.7758215"><ele>34.0</ele><time>2026-05-03T10:19:18.097Z</time></trkpt><trkpt lat="36.8159375" lon="9.77576"><ele>34.0</ele><time>2026-05-03T10:19:19.087Z</time></trkpt><trkpt lat="36.8157579" lon="9.775721"><ele>34.0</ele><time>2026-05-03T10:19:20.082Z</time></trkpt><trkpt lat="36.815577" lon="9.7757"><ele>34.0</ele><time>2026-05-03T10:19:21.087Z</time></trkpt><trkpt lat="36.8153933" lon="9.7756886"><ele>34.0</ele><time>2026-05-03T10:19:22.077Z</time></trkpt><trkpt lat="36.8152067" lon="9.7756781"><ele>34.0</ele><time>2026-05-03T10:19:23.074Z</time></trkpt><trkpt lat="36.8150231" lon="9.7756723"><ele>34.0</ele><time>2026-05-03T10:19:24.091Z</time></trkpt><trkpt lat="36.8148438" lon="9.7756541"><ele>34.0</ele><time>2026-05-03T10:19:25.087Z</time></trkpt><trkpt lat="36.81466" lon="9.7756387"><ele>34.0</ele><time>2026-05-03T10:19:26.087Z</time></trkpt><trkpt lat="36.8144841" lon="9.77563"><ele>34.0</ele><time>2026-05-03T10:19:27.053Z</time></trkpt><trkpt lat="36.8142969" lon="9.7756218"><ele>34.0</ele><time>2026-05-03T10:19:28.091Z</time></trkpt><trkpt lat="36.8141086" lon="9.7756106"><ele>34.333333333333336</ele><time>2026-05-03T10:19:29.085Z</time></trkpt><trkpt lat="36.8139161" lon="9.7756101"><ele>34.666666666666664</ele><time>2026-05-03T10:19:30.089Z</time></trkpt><trkpt lat="36.8137185" lon="9.7756211"><ele>35.0</ele><time>2026-05-03T10:19:31.099Z</time></trkpt><trkpt lat="36.813516" lon="9.7756367"><ele>35.0</ele><time>2026-05-03T10:19:32.049Z</time></trkpt><trkpt lat="36.8133168" lon="9.7756619"><ele>35.0</ele><time>2026-05-03T10:19:33.035Z</time></trkpt><trkpt lat="36.8131195" lon="9.7756872"><ele>35.0</ele><time>2026-05-03T10:19:34.047Z</time></trkpt><trkpt lat="36.8129232" lon="9.7757085"><ele>35.0</ele><time>2026-05-03T10:19:35.059Z</time></trkpt><trkpt lat="36.8127265" lon="9.7757257"><ele>35.0</ele><time>2026-05-03T10:19:36.039Z</time></trkpt><trkpt lat="36.812535" lon="9.7757469"><ele>35.0</ele><time>2026-05-03T10:19:37.066Z</time></trkpt><trkpt lat="36.8123473" lon="9.7757694"><ele>35.666666666666664</ele><time>2026-05-03T10:19:38.054Z</time></trkpt><trkpt lat="36.8121653" lon="9.775795"><ele>36.333333333333336</ele><time>2026-05-03T10:19:39.049Z</time></trkpt><trkpt lat="36.811986" lon="9.7758187"><ele>37.0</ele><time>2026-05-03T10:19:40.07Z</time></trkpt><trkpt lat="36.811803" lon="9.7758402"><ele>37.333333333333336</ele><time>2026-05-03T10:19:41.077Z</time></trkpt><trkpt lat="36.8116144" lon="9.7758635"><ele>37.666666666666664</ele><time>2026-05-03T10:19:42.053Z</time></trkpt><trkpt lat="36.8114344" lon="9.7758854"><ele>38.0</ele><time>2026-05-03T10:19:43.057Z</time></trkpt><trkpt lat="36.8112576" lon="9.7759044"><ele>38.0</ele><time>2026-05-03T10:19:44.046Z</time></trkpt><trkpt lat="36.811078" lon="9.7759062"><ele>38.0</ele><time>2026-05-03T10:19:45.073Z</time></trkpt><trkpt lat="36.8109057" lon="9.7758863"><ele>38.0</ele><time>2026-05-03T10:19:46.081Z</time></trkpt><trkpt lat="36.8107345" lon="9.7758479"><ele>38.666666666666664</ele><time>2026-05-03T10:19:47.076Z</time></trkpt><trkpt lat="36.8105601" lon="9.7757915"><ele>39.333333333333336</ele><time>2026-05-03T10:19:48.089Z</time></trkpt><trkpt lat="36.8103882" lon="9.7757264"><ele>40.0</ele><time>2026-05-03T10:19:49.072Z</time></trkpt><trkpt lat="36.8102201" lon="9.7756636"><ele>39.66666666666667</ele><time>2026-05-03T10:19:50.064Z</time></trkpt><trkpt lat="36.8100508" lon="9.7756013"><ele>39.333333333333336</ele><time>2026-05-03T10:19:51.089Z</time></trkpt><trkpt lat="36.8098806" lon="9.7755344"><ele>39.0</ele><time>2026-05-03T10:19:52.092Z</time></trkpt><trkpt lat="36.8097108" lon="9.7754645"><ele>39.0</ele><time>2026-05-03T10:19:53.091Z</time></trkpt><trkpt lat="36.8095366" lon="9.7753882"><ele>39.0</ele><time>2026-05-03T10:19:54.049Z</time></trkpt><trkpt lat="36.8093587" lon="9.7753188"><ele>39.0</ele><time>2026-05-03T10:19:55.08Z</time></trkpt><trkpt lat="36.8091753" lon="9.7752481"><ele>39.333333333333336</ele><time>2026-05-03T10:19:56.092Z</time></trkpt><trkpt lat="36.8089943" lon="9.775174"><ele>39.66666666666667</ele><time>2026-05-03T10:19:57.059Z</time></trkpt><trkpt lat="36.8088069" lon="9.7751011"><ele>40.0</ele><time>2026-05-03T10:19:58.071Z</time></trkpt><trkpt lat="36.8086209" lon="9.775021"><ele>39.0</ele><time>2026-05-03T10:19:59.08Z</time></trkpt><trkpt lat="36.8084361" lon="9.7749445"><ele>38.0</ele><time>2026-05-03T10:20:00.085Z</time></trkpt><trkpt lat="36.8082521" lon="9.7748627"><ele>37.0</ele><time>2026-05-03T10:20:01.081Z</time></trkpt><trkpt lat="36.8080656" lon="9.7747744"><ele>37.0</ele><time>2026-05-03T10:20:02.099Z</time></trkpt><trkpt lat="36.8078793" lon="9.7746689"><ele>37.0</ele><time>2026-05-03T10:20:03.073Z</time></trkpt><trkpt lat="36.8076993" lon="9.7745555"><ele>37.0</ele><time>2026-05-03T10:20:04.082Z</time></trkpt><trkpt lat="36.8075203" lon="9.7744382"><ele>36.66666666666667</ele><time>2026-05-03T10:20:05.092Z</time></trkpt><trkpt lat="36.8073414" lon="9.7743242"><ele>36.333333333333336</ele><time>2026-05-03T10:20:06.085Z</time></trkpt><trkpt lat="36.807164" lon="9.7742112"><ele>36.0</ele><time>2026-05-03T10:20:07.066Z</time></trkpt><trkpt lat="36.8069893" lon="9.7741008"><ele>36.0</ele><time>2026-05-03T10:20:08.086Z</time></trkpt><trkpt lat="36.8068144" lon="9.7739893"><ele>36.0</ele><time>2026-05-03T10:20:09.091Z</time></trkpt><trkpt lat="36.8066419" lon="9.7738866"><ele>36.0</ele><time>2026-05-03T10:20:10.075Z</time></trkpt><trkpt lat="36.8064722" lon="9.7737791"><ele>36.0</ele><time>2026-05-03T10:20:11.084Z</time></trkpt><trkpt lat="36.8063025" lon="9.773669"><ele>36.0</ele><time>2026-05-03T10:20:12.102Z</time></trkpt><trkpt lat="36.8061283" lon="9.7735596"><ele>36.0</ele><time>2026-05-03T10:20:13.093Z</time></trkpt><trkpt lat="36.8059561" lon="9.7734522"><ele>36.0</ele><time>2026-05-03T10:20:14.047Z</time></trkpt><trkpt lat="36.805789" lon="9.7733503"><ele>36.0</ele><time>2026-05-03T10:20:15.042Z</time></trkpt><trkpt lat="36.80562" lon="9.7732444"><ele>36.0</ele><time>2026-05-03T10:20:16.038Z</time></trkpt><trkpt lat="36.8054516" lon="9.7731311"><ele>36.0</ele><time>2026-05-03T10:20:17.051Z</time></trkpt><trkpt lat="36.8052858" lon="9.7730198"><ele>36.0</ele><time>2026-05-03T10:20:18.087Z</time></trkpt><trkpt lat="36.8051195" lon="9.7729121"><ele>36.0</ele><time>2026-05-03T10:20:19.07Z</time></trkpt><trkpt lat="36.8049541" lon="9.7728078"><ele>36.333333333333336</ele><time>2026-05-03T10:20:20.059Z</time></trkpt><trkpt lat="36.8047847" lon="9.7726997"><ele>36.66666666666667</ele><time>2026-05-03T10:20:21.045Z</time></trkpt><trkpt lat="36.8046159" lon="9.772595"><ele>37.0</ele><time>2026-05-03T10:20:22.081Z</time></trkpt><trkpt lat="36.804447" lon="9.7724881"><ele>37.333333333333336</ele><time>2026-05-03T10:20:23.086Z</time></trkpt><trkpt lat="36.8042766" lon="9.7723833"><ele>37.666666666666664</ele><time>2026-05-03T10:20:24.095Z</time></trkpt><trkpt lat="36.8041022" lon="9.7722725"><ele>38.0</ele><time>2026-05-03T10:20:25.087Z</time></trkpt><trkpt lat="36.8039286" lon="9.7721627"><ele>38.0</ele><time>2026-05-03T10:20:26.083Z</time></trkpt><trkpt lat="36.8037534" lon="9.7720533"><ele>38.0</ele><time>2026-05-03T10:20:27.078Z</time></trkpt><trkpt lat="36.8035799" lon="9.771944"><ele>38.0</ele><time>2026-05-03T10:20:28.091Z</time></trkpt><trkpt lat="36.8034064" lon="9.771837"><ele>37.0</ele><time>2026-05-03T10:20:29.066Z</time></trkpt><trkpt lat="36.8032338" lon="9.7717261"><ele>36.0</ele><time>2026-05-03T10:20:30.083Z</time></trkpt><trkpt lat="36.8030553" lon="9.771617"><ele>35.0</ele><time>2026-05-03T10:20:31.08Z</time></trkpt><trkpt lat="36.8028855" lon="9.7715127"><ele>35.0</ele><time>2026-05-03T10:20:32.09Z</time></trkpt><trkpt lat="36.802718" lon="9.7714024"><ele>35.0</ele><time>2026-05-03T10:20:33.086Z</time></trkpt><trkpt lat="36.8025608" lon="9.7712974"><ele>35.0</ele><time>2026-05-03T10:20:34.071Z</time></trkpt><trkpt lat="36.8024099" lon="9.7712095"><ele>35.0</ele><time>2026-05-03T10:20:35.085Z</time></trkpt><trkpt lat="36.80226" lon="9.7711175"><ele>35.0</ele><time>2026-05-03T10:20:36.08Z</time></trkpt><trkpt lat="36.8021098" lon="9.7710297"><ele>35.0</ele><time>2026-05-03T10:20:37.071Z</time></trkpt><trkpt lat="36.8019559" lon="9.7709517"><ele>35.33333333333333</ele><time>2026-05-03T10:20:38.083Z</time></trkpt><trkpt lat="36.8018002" lon="9.7708874"><ele>35.666666666666664</ele><time>2026-05-03T10:20:39.079Z</time></trkpt><trkpt lat="36.8016469" lon="9.7708321"><ele>36.0</ele><time>2026-05-03T10:20:40.061Z</time></trkpt><trkpt lat="36.8014931" lon="9.7707813"><ele>36.0</ele><time>2026-05-03T10:20:41.09Z</time></trkpt><trkpt lat="36.8013411" lon="9.7707349"><ele>36.0</ele><time>2026-05-03T10:20:42.088Z</time></trkpt><trkpt lat="36.8011915" lon="9.7706891"><ele>36.0</ele><time>2026-05-03T10:20:43.074Z</time></trkpt><trkpt lat="36.8010518" lon="9.7706475"><ele>36.6</ele><time>2026-05-03T10:20:44.077Z</time></trkpt><trkpt lat="36.8009241" lon="9.7706147"><ele>37.2</ele><time>2026-05-03T10:20:45.073Z</time></trkpt><trkpt lat="36.8008181" lon="9.7705845"><ele>37.8</ele><time>2026-05-03T10:20:46.095Z</time></trkpt><trkpt lat="36.8007238" lon="9.770558"><ele>38.4</ele><time>2026-05-03T10:20:47.091Z</time></trkpt><trkpt lat="36.8006483" lon="9.7705318"><ele>39.0</ele><time>2026-05-03T10:20:48.097Z</time></trkpt><trkpt lat="36.8005776" lon="9.7705132"><ele>39.0</ele><time>2026-05-03T10:20:49.095Z</time></trkpt><trkpt lat="36.8005132" lon="9.770497"><ele>39.0</ele><time>2026-05-03T10:20:50.064Z</time></trkpt><trkpt lat="36.8004503" lon="9.7704777"><ele>39.0</ele><time>2026-05-03T10:20:51.08Z</time></trkpt><trkpt lat="36.8003652" lon="9.7704633"><ele>39.0</ele><time>2026-05-03T10:20:52.062Z</time></trkpt><trkpt lat="36.8002656" lon="9.770435"><ele>39.0</ele><time>2026-05-03T10:20:53.082Z</time></trkpt><trkpt lat="36.8001564" lon="9.7704034"><ele>39.0</ele><time>2026-05-03T10:20:54.056Z</time></trkpt><trkpt lat="36.8000319" lon="9.7703542"><ele>40.666666666666664</ele><time>2026-05-03T10:20:55.036Z</time></trkpt><trkpt lat="36.7998775" lon="9.7702809"><ele>42.33333333333333</ele><time>2026-05-03T10:20:56.095Z</time></trkpt><trkpt lat="36.7996852" lon="9.7701715"><ele>44.0</ele><time>2026-05-03T10:20:57.049Z</time></trkpt><trkpt lat="36.7994756" lon="9.7700234"><ele>45.33333333333333</ele><time>2026-05-03T10:20:58.109Z</time></trkpt><trkpt lat="36.7992777" lon="9.7698796"><ele>46.666666666666664</ele><time>2026-05-03T10:20:59.063Z</time></trkpt><trkpt lat="36.7990993" lon="9.7697512"><ele>48.0</ele><time>2026-05-03T10:21:00.048Z</time></trkpt><trkpt lat="36.798933" lon="9.7696317"><ele>48.0</ele><time>2026-05-03T10:21:01.077Z</time></trkpt><trkpt lat="36.7987714" lon="9.769507"><ele>48.0</ele><time>2026-05-03T10:21:02.073Z</time></trkpt><trkpt lat="36.798608" lon="9.7693843"><ele>48.0</ele><time>2026-05-03T10:21:03.079Z</time></trkpt><trkpt lat="36.798451" lon="9.7692673"><ele>47.666666666666664</ele><time>2026-05-03T10:21:04.067Z</time></trkpt><trkpt lat="36.7982909" lon="9.7691441"><ele>47.33333333333333</ele><time>2026-05-03T10:21:05.042Z</time></trkpt><trkpt lat="36.7981289" lon="9.7690296"><ele>47.0</ele><time>2026-05-03T10:21:06.04Z</time></trkpt><trkpt lat="36.7979624" lon="9.7689083"><ele>47.0</ele><time>2026-05-03T10:21:07.039Z</time></trkpt><trkpt lat="36.7977923" lon="9.7687952"><ele>47.0</ele><time>2026-05-03T10:21:08.051Z</time></trkpt><trkpt lat="36.7976207" lon="9.7686897"><ele>47.0</ele><time>2026-05-03T10:21:09.077Z</time></trkpt><trkpt lat="36.7974515" lon="9.76859"><ele>47.666666666666664</ele><time>2026-05-03T10:21:10.061Z</time></trkpt><trkpt lat="36.7972845" lon="9.7684957"><ele>48.33333333333333</ele><time>2026-05-03T10:21:11.088Z</time></trkpt><trkpt lat="36.7971217" lon="9.7683982"><ele>49.0</ele><time>2026-05-03T10:21:12.073Z</time></trkpt><trkpt lat="36.7969596" lon="9.7683024"><ele>49.33333333333333</ele><time>2026-05-03T10:21:13.074Z</time></trkpt><trkpt lat="36.7967997" lon="9.7682019"><ele>49.66666666666667</ele><time>2026-05-03T10:21:14.084Z</time></trkpt><trkpt lat="36.7966288" lon="9.7680903"><ele>50.0</ele><time>2026-05-03T10:21:15.082Z</time></trkpt><trkpt lat="36.7964623" lon="9.7679578"><ele>50.0</ele><time>2026-05-03T10:21:16.05Z</time></trkpt><trkpt lat="36.7962962" lon="9.7678033"><ele>50.0</ele><time>2026-05-03T10:21:17.096Z</time></trkpt><trkpt lat="36.7961296" lon="9.7676417"><ele>50.0</ele><time>2026-05-03T10:21:18.081Z</time></trkpt><trkpt lat="36.7959506" lon="9.7674762"><ele>50.0</ele><time>2026-05-03T10:21:19.057Z</time></trkpt><trkpt lat="36.7957591" lon="9.7673056"><ele>50.0</ele><time>2026-05-03T10:21:20.083Z</time></trkpt><trkpt lat="36.7955593" lon="9.7671249"><ele>50.0</ele><time>2026-05-03T10:21:21.078Z</time></trkpt><trkpt lat="36.7953613" lon="9.7669459"><ele>50.0</ele><time>2026-05-03T10:21:22.083Z</time></trkpt><trkpt lat="36.7951648" lon="9.7667573"><ele>50.5</ele><time>2026-05-03T10:21:23.047Z</time></trkpt><trkpt lat="36.7949666" lon="9.7665849"><ele>51.0</ele><time>2026-05-03T10:21:24.08Z</time></trkpt><trkpt lat="36.7947756" lon="9.7664096"><ele>51.0</ele><time>2026-05-03T10:21:25.061Z</time></trkpt><trkpt lat="36.794585" lon="9.7662378"><ele>51.0</ele><time>2026-05-03T10:21:26.08Z</time></trkpt><trkpt lat="36.7943982" lon="9.7660676"><ele>51.5</ele><time>2026-05-03T10:21:27.082Z</time></trkpt><trkpt lat="36.7942116" lon="9.765892"><ele>52.0</ele><time>2026-05-03T10:21:28.081Z</time></trkpt><trkpt lat="36.7940261" lon="9.7657174"><ele>52.0</ele><time>2026-05-03T10:21:29.071Z</time></trkpt><trkpt lat="36.7938413" lon="9.7655499"><ele>52.0</ele><time>2026-05-03T10:21:30.087Z</time></trkpt><trkpt lat="36.7936501" lon="9.7653823"><ele>52.0</ele><time>2026-05-03T10:21:31.08Z</time></trkpt><trkpt lat="36.7934636" lon="9.7652178"><ele>52.0</ele><time>2026-05-03T10:21:32.076Z</time></trkpt><trkpt lat="36.7932786" lon="9.7650489"><ele>53.0</ele><time>2026-05-03T10:21:33.071Z</time></trkpt><trkpt lat="36.793091" lon="9.7648803"><ele>54.0</ele><time>2026-05-03T10:21:34.081Z</time></trkpt><trkpt lat="36.792902" lon="9.7647139"><ele>54.0</ele><time>2026-05-03T10:21:35.065Z</time></trkpt><trkpt lat="36.7927136" lon="9.7645512"><ele>54.0</ele><time>2026-05-03T10:21:36.096Z</time></trkpt><trkpt lat="36.7925274" lon="9.7643803"><ele>55.5</ele><time>2026-05-03T10:21:37.075Z</time></trkpt><trkpt lat="36.7923408" lon="9.7642098"><ele>57.0</ele><time>2026-05-03T10:21:38.058Z</time></trkpt><trkpt lat="36.7921581" lon="9.7640416"><ele>57.0</ele><time>2026-05-03T10:21:39.07Z</time></trkpt><trkpt lat="36.7919689" lon="9.7638815"><ele>57.0</ele><time>2026-05-03T10:21:40.05Z</time></trkpt><trkpt lat="36.7917846" lon="9.7637159"><ele>56.5</ele><time>2026-05-03T10:21:41.082Z</time></trkpt><trkpt lat="36.7916043" lon="9.76355"><ele>56.0</ele><time>2026-05-03T10:21:42.077Z</time></trkpt><trkpt lat="36.7914217" lon="9.7633795"><ele>56.0</ele><time>2026-05-03T10:21:43.084Z</time></trkpt><trkpt lat="36.7912354" lon="9.7632085"><ele>56.0</ele><time>2026-05-03T10:21:44.079Z</time></trkpt><trkpt lat="36.7910491" lon="9.7630389"><ele>55.5</ele><time>2026-05-03T10:21:45.065Z</time></trkpt><trkpt lat="36.7908671" lon="9.7628721"><ele>55.0</ele><time>2026-05-03T10:21:46.075Z</time></trkpt><trkpt lat="36.7906853" lon="9.7626984"><ele>56.0</ele><time>2026-05-03T10:21:47.045Z</time></trkpt><trkpt lat="36.790509" lon="9.7625315"><ele>57.0</ele><time>2026-05-03T10:21:48.058Z</time></trkpt><trkpt lat="36.7903326" lon="9.7623662"><ele>58.0</ele><time>2026-05-03T10:21:49.075Z</time></trkpt><trkpt lat="36.7901564" lon="9.7622021"><ele>58.0</ele><time>2026-05-03T10:21:50.063Z</time></trkpt><trkpt lat="36.7899828" lon="9.7620442"><ele>58.0</ele><time>2026-05-03T10:21:51.082Z</time></trkpt><trkpt lat="36.789808" lon="9.7618902"><ele>58.0</ele><time>2026-05-03T10:21:52.094Z</time></trkpt><trkpt lat="36.7896454" lon="9.7617415"><ele>58.33333333333333</ele><time>2026-05-03T10:21:53.085Z</time></trkpt><trkpt lat="36.7894891" lon="9.7615954"><ele>58.66666666666667</ele><time>2026-05-03T10:21:54.09Z</time></trkpt><trkpt lat="36.7893463" lon="9.7614481"><ele>59.0</ele><time>2026-05-03T10:21:55.074Z</time></trkpt><trkpt lat="36.789215" lon="9.7612997"><ele>58.66666666666667</ele><time>2026-05-03T10:21:56.095Z</time></trkpt><trkpt lat="36.7890907" lon="9.7611298"><ele>58.33333333333333</ele><time>2026-05-03T10:21:57.084Z</time></trkpt><trkpt lat="36.7889815" lon="9.7609258"><ele>58.0</ele><time>2026-05-03T10:21:58.081Z</time></trkpt><trkpt lat="36.7889013" lon="9.7607023"><ele>58.0</ele><time>2026-05-03T10:21:59.084Z</time></trkpt><trkpt lat="36.788832" lon="9.7604543"><ele>58.0</ele><time>2026-05-03T10:22:00.082Z</time></trkpt><trkpt lat="36.7887709" lon="9.7601927"><ele>58.0</ele><time>2026-05-03T10:22:01.038Z</time></trkpt><trkpt lat="36.7887136" lon="9.7599417"><ele>57.666666666666664</ele><time>2026-05-03T10:22:02.085Z</time></trkpt><trkpt lat="36.7886579" lon="9.7596923"><ele>57.33333333333333</ele><time>2026-05-03T10:22:03.085Z</time></trkpt><trkpt lat="36.788588" lon="9.7594714"><ele>57.0</ele><time>2026-05-03T10:22:04.07Z</time></trkpt><trkpt lat="36.7885072" lon="9.7592702"><ele>57.0</ele><time>2026-05-03T10:22:05.052Z</time></trkpt><trkpt lat="36.7884054" lon="9.7590907"><ele>57.0</ele><time>2026-05-03T10:22:06.063Z</time></trkpt><trkpt lat="36.7882803" lon="9.7589315"><ele>57.0</ele><time>2026-05-03T10:22:07.055Z</time></trkpt><trkpt lat="36.7881419" lon="9.7587981"><ele>57.0</ele><time>2026-05-03T10:22:08.067Z</time></trkpt><trkpt lat="36.7879821" lon="9.7586699"><ele>57.0</ele><time>2026-05-03T10:22:09.066Z</time></trkpt><trkpt lat="36.7878077" lon="9.7585651"><ele>57.0</ele><time>2026-05-03T10:22:10.081Z</time></trkpt><trkpt lat="36.7876382" lon="9.7584672"><ele>58.0</ele><time>2026-05-03T10:22:11.067Z</time></trkpt><trkpt lat="36.7874782" lon="9.7583724"><ele>59.0</ele><time>2026-05-03T10:22:12.072Z</time></trkpt><trkpt lat="36.7873211" lon="9.7582739"><ele>60.0</ele><time>2026-05-03T10:22:13.066Z</time></trkpt><trkpt lat="36.7871817" lon="9.7581552"><ele>60.0</ele><time>2026-05-03T10:22:14.077Z</time></trkpt><trkpt lat="36.7870558" lon="9.758014"><ele>60.0</ele><time>2026-05-03T10:22:15.064Z</time></trkpt><trkpt lat="36.7869433" lon="9.757858"><ele>60.0</ele><time>2026-05-03T10:22:16.082Z</time></trkpt><trkpt lat="36.7868435" lon="9.7576745"><ele>60.0</ele><time>2026-05-03T10:22:17.068Z</time></trkpt><trkpt lat="36.7867486" lon="9.7574691"><ele>60.0</ele><time>2026-05-03T10:22:18.081Z</time></trkpt><trkpt lat="36.7866577" lon="9.7572457"><ele>60.0</ele><time>2026-05-03T10:22:19.061Z</time></trkpt><trkpt lat="36.7865618" lon="9.7570061"><ele>59.66666666666667</ele><time>2026-05-03T10:22:20.069Z</time></trkpt><trkpt lat="36.7864671" lon="9.7567639"><ele>59.333333333333336</ele><time>2026-05-03T10:22:21.051Z</time></trkpt><trkpt lat="36.7863674" lon="9.7565132"><ele>59.0</ele><time>2026-05-03T10:22:22.065Z</time></trkpt><trkpt lat="36.7862648" lon="9.7562542"><ele>59.0</ele><time>2026-05-03T10:22:23.071Z</time></trkpt><trkpt lat="36.7861617" lon="9.7559978"><ele>59.0</ele><time>2026-05-03T10:22:24.046Z</time></trkpt><trkpt lat="36.786069" lon="9.7557546"><ele>59.0</ele><time>2026-05-03T10:22:25.043Z</time></trkpt><trkpt lat="36.7859775" lon="9.7555218"><ele>58.66666666666667</ele><time>2026-05-03T10:22:26.082Z</time></trkpt><trkpt lat="36.7858825" lon="9.7552891"><ele>58.33333333333333</ele><time>2026-05-03T10:22:27.09Z</time></trkpt><trkpt lat="36.7857877" lon="9.7550587"><ele>58.0</ele><time>2026-05-03T10:22:28.079Z</time></trkpt><trkpt lat="36.7856932" lon="9.7548326"><ele>58.0</ele><time>2026-05-03T10:22:29.08Z</time></trkpt><trkpt lat="36.7856013" lon="9.7546023"><ele>58.0</ele><time>2026-05-03T10:22:30.088Z</time></trkpt><trkpt lat="36.7855045" lon="9.754376"><ele>58.0</ele><time>2026-05-03T10:22:31.092Z</time></trkpt><trkpt lat="36.7854159" lon="9.7541507"><ele>57.666666666666664</ele><time>2026-05-03T10:22:32.077Z</time></trkpt><trkpt lat="36.7853259" lon="9.7539237"><ele>57.33333333333333</ele><time>2026-05-03T10:22:33.091Z</time></trkpt><trkpt lat="36.7852348" lon="9.7536973"><ele>57.0</ele><time>2026-05-03T10:22:34.07Z</time></trkpt><trkpt lat="36.7851463" lon="9.7534766"><ele>57.0</ele><time>2026-05-03T10:22:35.066Z</time></trkpt><trkpt lat="36.7850599" lon="9.7532582"><ele>57.0</ele><time>2026-05-03T10:22:36.091Z</time></trkpt><trkpt lat="36.7849775" lon="9.753056"><ele>57.0</ele><time>2026-05-03T10:22:37.091Z</time></trkpt><trkpt lat="36.7848995" lon="9.7528614"><ele>57.33333333333333</ele><time>2026-05-03T10:22:38.07Z</time></trkpt><trkpt lat="36.7848191" lon="9.7526762"><ele>57.666666666666664</ele><time>2026-05-03T10:22:39.061Z</time></trkpt><trkpt lat="36.7847284" lon="9.7524971"><ele>58.0</ele><time>2026-05-03T10:22:40.102Z</time></trkpt><trkpt lat="36.7846249" lon="9.7523242"><ele>58.0</ele><time>2026-05-03T10:22:41.071Z</time></trkpt><trkpt lat="36.7844965" lon="9.7521692"><ele>58.0</ele><time>2026-05-03T10:22:42.049Z</time></trkpt><trkpt lat="36.7843473" lon="9.7520396"><ele>58.0</ele><time>2026-05-03T10:22:43.094Z</time></trkpt><trkpt lat="36.7841911" lon="9.7519186"><ele>57.666666666666664</ele><time>2026-05-03T10:22:44.082Z</time></trkpt><trkpt lat="36.7840154" lon="9.7518297"><ele>57.33333333333333</ele><time>2026-05-03T10:22:45.081Z</time></trkpt><trkpt lat="36.7838174" lon="9.7517795"><ele>57.0</ele><time>2026-05-03T10:22:46.081Z</time></trkpt><trkpt lat="36.7836056" lon="9.751755"><ele>57.33333333333333</ele><time>2026-05-03T10:22:47.087Z</time></trkpt><trkpt lat="36.7834066" lon="9.7517299"><ele>57.666666666666664</ele><time>2026-05-03T10:22:48.09Z</time></trkpt><trkpt lat="36.7832041" lon="9.7516905"><ele>58.0</ele><time>2026-05-03T10:22:49.097Z</time></trkpt><trkpt lat="36.7830131" lon="9.7516327"><ele>58.0</ele><time>2026-05-03T10:22:50.089Z</time></trkpt><trkpt lat="36.7828296" lon="9.7515605"><ele>58.0</ele><time>2026-05-03T10:22:51.064Z</time></trkpt><trkpt lat="36.7826539" lon="9.7514637"><ele>58.0</ele><time>2026-05-03T10:22:52.11Z</time></trkpt><trkpt lat="36.7824849" lon="9.7513416"><ele>57.666666666666664</ele><time>2026-05-03T10:22:53.074Z</time></trkpt><trkpt lat="36.7823277" lon="9.7512005"><ele>57.33333333333333</ele><time>2026-05-03T10:22:54.087Z</time></trkpt><trkpt lat="36.7821866" lon="9.7510422"><ele>57.0</ele><time>2026-05-03T10:22:55.09Z</time></trkpt><trkpt lat="36.7820447" lon="9.7508711"><ele>57.0</ele><time>2026-05-03T10:22:56.097Z</time></trkpt><trkpt lat="36.7819036" lon="9.7506929"><ele>57.0</ele><time>2026-05-03T10:22:57.077Z</time></trkpt><trkpt lat="36.7817645" lon="9.7505105"><ele>57.0</ele><time>2026-05-03T10:22:58.063Z</time></trkpt><trkpt lat="36.781623" lon="9.7503315"><ele>56.33333333333333</ele><time>2026-05-03T10:22:59.077Z</time></trkpt><trkpt lat="36.7814796" lon="9.7501606"><ele>55.666666666666664</ele><time>2026-05-03T10:23:00.054Z</time></trkpt><trkpt lat="36.7813479" lon="9.7499997"><ele>55.0</ele><time>2026-05-03T10:23:01.092Z</time></trkpt><trkpt lat="36.7812281" lon="9.7498482"><ele>55.0</ele><time>2026-05-03T10:23:02.048Z</time></trkpt><trkpt lat="36.7811227" lon="9.7496879"><ele>55.0</ele><time>2026-05-03T10:23:03.064Z</time></trkpt><trkpt lat="36.781029" lon="9.7495149"><ele>55.0</ele><time>2026-05-03T10:23:04.083Z</time></trkpt><trkpt lat="36.7809549" lon="9.7493199"><ele>55.0</ele><time>2026-05-03T10:23:05.07Z</time></trkpt><trkpt lat="36.7809033" lon="9.7491039"><ele>55.0</ele><time>2026-05-03T10:23:06.082Z</time></trkpt><trkpt lat="36.7808726" lon="9.7488688"><ele>55.0</ele><time>2026-05-03T10:23:07.076Z</time></trkpt><trkpt lat="36.7808542" lon="9.7485943"><ele>54.33333333333333</ele><time>2026-05-03T10:23:08.08Z</time></trkpt><trkpt lat="36.7808296" lon="9.7483276"><ele>53.66666666666667</ele><time>2026-05-03T10:23:09.09Z</time></trkpt><trkpt lat="36.7808107" lon="9.7480976"><ele>53.0</ele><time>2026-05-03T10:23:10.076Z</time></trkpt><trkpt lat="36.7807745" lon="9.7478787"><ele>52.66666666666667</ele><time>2026-05-03T10:23:11.079Z</time></trkpt><trkpt lat="36.7807166" lon="9.7476915"><ele>52.33333333333333</ele><time>2026-05-03T10:23:12.083Z</time></trkpt><trkpt lat="36.7806525" lon="9.7475164"><ele>52.0</ele><time>2026-05-03T10:23:13.081Z</time></trkpt><trkpt lat="36.7805676" lon="9.7473449"><ele>52.0</ele><time>2026-05-03T10:23:14.076Z</time></trkpt><trkpt lat="36.780464" lon="9.7471762"><ele>52.0</ele><time>2026-05-03T10:23:15.084Z</time></trkpt><trkpt lat="36.7803364" lon="9.7470222"><ele>52.0</ele><time>2026-05-03T10:23:16.076Z</time></trkpt><trkpt lat="36.7801868" lon="9.7468886"><ele>52.0</ele><time>2026-05-03T10:23:17.086Z</time></trkpt><trkpt lat="36.7800225" lon="9.7467832"><ele>52.0</ele><time>2026-05-03T10:23:18.081Z</time></trkpt><trkpt lat="36.7798436" lon="9.7467109"><ele>52.0</ele><time>2026-05-03T10:23:19.077Z</time></trkpt><trkpt lat="36.77965" lon="9.7466599"><ele>52.0</ele><time>2026-05-03T10:23:20.046Z</time></trkpt><trkpt lat="36.7794506" lon="9.7466319"><ele>52.0</ele><time>2026-05-03T10:23:21.081Z</time></trkpt><trkpt lat="36.7792472" lon="9.7466133"><ele>52.0</ele><time>2026-05-03T10:23:22.079Z</time></trkpt><trkpt lat="36.7790512" lon="9.7466027"><ele>52.0</ele><time>2026-05-03T10:23:23.097Z</time></trkpt><trkpt lat="36.7788552" lon="9.7465876"><ele>52.0</ele><time>2026-05-03T10:23:24.077Z</time></trkpt><trkpt lat="36.7786593" lon="9.7465724"><ele>52.0</ele><time>2026-05-03T10:23:25.084Z</time></trkpt><trkpt lat="36.7784687" lon="9.7465533"><ele>52.666666666666664</ele><time>2026-05-03T10:23:26.077Z</time></trkpt><trkpt lat="36.778284" lon="9.7465374"><ele>53.33333333333333</ele><time>2026-05-03T10:23:27.079Z</time></trkpt><trkpt lat="36.7781052" lon="9.7465172"><ele>54.0</ele><time>2026-05-03T10:23:28.051Z</time></trkpt><trkpt lat="36.7779313" lon="9.7464807"><ele>54.0</ele><time>2026-05-03T10:23:29.079Z</time></trkpt><trkpt lat="36.7777639" lon="9.7464311"><ele>54.0</ele><time>2026-05-03T10:23:30.066Z</time></trkpt><trkpt lat="36.7775987" lon="9.7463685"><ele>54.0</ele><time>2026-05-03T10:23:31.079Z</time></trkpt><trkpt lat="36.7774405" lon="9.7462831"><ele>54.66666666666667</ele><time>2026-05-03T10:23:32.081Z</time></trkpt><trkpt lat="36.777299" lon="9.7461779"><ele>55.333333333333336</ele><time>2026-05-03T10:23:33.081Z</time></trkpt><trkpt lat="36.7771667" lon="9.7460599"><ele>56.0</ele><time>2026-05-03T10:23:34.064Z</time></trkpt><trkpt lat="36.7770359" lon="9.7459347"><ele>56.333333333333336</ele><time>2026-05-03T10:23:35.048Z</time></trkpt><trkpt lat="36.7769152" lon="9.7458104"><ele>56.66666666666667</ele><time>2026-05-03T10:23:36.06Z</time></trkpt><trkpt lat="36.7767982" lon="9.7456791"><ele>57.0</ele><time>2026-05-03T10:23:37.086Z</time></trkpt><trkpt lat="36.7766807" lon="9.7455465"><ele>57.0</ele><time>2026-05-03T10:23:38.069Z</time></trkpt><trkpt lat="36.7765605" lon="9.7454176"><ele>57.0</ele><time>2026-05-03T10:23:39.078Z</time></trkpt><trkpt lat="36.7764314" lon="9.7452896"><ele>57.0</ele><time>2026-05-03T10:23:40.056Z</time></trkpt><trkpt lat="36.7763011" lon="9.7451527"><ele>57.33333333333333</ele><time>2026-05-03T10:23:41.072Z</time></trkpt><trkpt lat="36.7761743" lon="9.7450138"><ele>57.666666666666664</ele><time>2026-05-03T10:23:42.056Z</time></trkpt><trkpt lat="36.7760457" lon="9.7448743"><ele>58.0</ele><time>2026-05-03T10:23:43.042Z</time></trkpt><trkpt lat="36.775923" lon="9.7447409"><ele>58.0</ele><time>2026-05-03T10:23:44.081Z</time></trkpt><trkpt lat="36.7758038" lon="9.7446102"><ele>58.0</ele><time>2026-05-03T10:23:45.058Z</time></trkpt><trkpt lat="36.775693" lon="9.7444895"><ele>58.0</ele><time>2026-05-03T10:23:46.081Z</time></trkpt><trkpt lat="36.7755874" lon="9.7443761"><ele>58.0</ele><time>2026-05-03T10:23:47.074Z</time></trkpt><trkpt lat="36.7754847" lon="9.7442689"><ele>58.0</ele><time>2026-05-03T10:23:48.069Z</time></trkpt><trkpt lat="36.7753747" lon="9.7441578"><ele>58.0</ele><time>2026-05-03T10:23:49.083Z</time></trkpt><trkpt lat="36.7752579" lon="9.744043"><ele>58.0</ele><time>2026-05-03T10:23:50.087Z</time></trkpt><trkpt lat="36.7751429" lon="9.7439124"><ele>58.0</ele><time>2026-05-03T10:23:51.085Z</time></trkpt><trkpt lat="36.7750206" lon="9.7437713"><ele>58.0</ele><time>2026-05-03T10:23:52.08Z</time></trkpt><trkpt lat="36.7748935" lon="9.7436413"><ele>58.0</ele><time>2026-05-03T10:23:53.079Z</time></trkpt><trkpt lat="36.7747558" lon="9.7435013"><ele>58.0</ele><time>2026-05-03T10:23:54.099Z</time></trkpt><trkpt lat="36.7746023" lon="9.7433366"><ele>58.0</ele><time>2026-05-03T10:23:55.083Z</time></trkpt><trkpt lat="36.7744252" lon="9.7431467"><ele>58.0</ele><time>2026-05-03T10:23:56.08Z</time></trkpt><trkpt lat="36.7742396" lon="9.7429511"><ele>57.666666666666664</ele><time>2026-05-03T10:23:57.077Z</time></trkpt><trkpt lat="36.7740711" lon="9.7427761"><ele>57.33333333333333</ele><time>2026-05-03T10:23:58.063Z</time></trkpt><trkpt lat="36.7739216" lon="9.7426155"><ele>57.0</ele><time>2026-05-03T10:23:59.074Z</time></trkpt><trkpt lat="36.773784" lon="9.7424668"><ele>58.0</ele><time>2026-05-03T10:24:00.073Z</time></trkpt><trkpt lat="36.773645" lon="9.7423209"><ele>59.0</ele><time>2026-05-03T10:24:01.089Z</time></trkpt><trkpt lat="36.7735078" lon="9.7421806"><ele>60.0</ele><time>2026-05-03T10:24:02.079Z</time></trkpt><trkpt lat="36.7733746" lon="9.7420463"><ele>60.0</ele><time>2026-05-03T10:24:03.073Z</time></trkpt><trkpt lat="36.773243" lon="9.7419088"><ele>60.0</ele><time>2026-05-03T10:24:04.083Z</time></trkpt><trkpt lat="36.7731115" lon="9.7417743"><ele>60.0</ele><time>2026-05-03T10:24:05.051Z</time></trkpt><trkpt lat="36.7729848" lon="9.7416336"><ele>60.0</ele><time>2026-05-03T10:24:06.085Z</time></trkpt><trkpt lat="36.7728506" lon="9.7414929"><ele>60.0</ele><time>2026-05-03T10:24:07.078Z</time></trkpt><trkpt lat="36.772713" lon="9.7413521"><ele>60.0</ele><time>2026-05-03T10:24:08.085Z</time></trkpt><trkpt lat="36.7725739" lon="9.7412092"><ele>60.0</ele><time>2026-05-03T10:24:09.074Z</time></trkpt><trkpt lat="36.7724282" lon="9.7410624"><ele>60.0</ele><time>2026-05-03T10:24:10.079Z</time></trkpt><trkpt lat="36.7722894" lon="9.7409109"><ele>60.0</ele><time>2026-05-03T10:24:11.091Z</time></trkpt><trkpt lat="36.7721482" lon="9.7407592"><ele>60.0</ele><time>2026-05-03T10:24:12.078Z</time></trkpt><trkpt lat="36.7719986" lon="9.7405989"><ele>60.0</ele><time>2026-05-03T10:24:13.083Z</time></trkpt><trkpt lat="36.7718397" lon="9.7404211"><ele>60.0</ele><time>2026-05-03T10:24:14.099Z</time></trkpt><trkpt lat="36.7716712" lon="9.7402352"><ele>61.0</ele><time>2026-05-03T10:24:15.098Z</time></trkpt><trkpt lat="36.7714932" lon="9.7400501"><ele>62.0</ele><time>2026-05-03T10:24:16.037Z</time></trkpt><trkpt lat="36.7713207" lon="9.7398618"><ele>62.0</ele><time>2026-05-03T10:24:17.083Z</time></trkpt><trkpt lat="36.7711533" lon="9.7396754"><ele>62.0</ele><time>2026-05-03T10:24:18.081Z</time></trkpt><trkpt lat="36.7709876" lon="9.7395003"><ele>62.0</ele><time>2026-05-03T10:24:19.074Z</time></trkpt><trkpt lat="36.7708235" lon="9.7393293"><ele>61.66666666666667</ele><time>2026-05-03T10:24:20.074Z</time></trkpt><trkpt lat="36.770663" lon="9.7391594"><ele>61.33333333333333</ele><time>2026-05-03T10:24:21.082Z</time></trkpt><trkpt lat="36.7705037" lon="9.7389894"><ele>61.0</ele><time>2026-05-03T10:24:22.087Z</time></trkpt><trkpt lat="36.7703482" lon="9.7388257"><ele>61.0</ele><time>2026-05-03T10:24:23.042Z</time></trkpt><trkpt lat="36.7701926" lon="9.7386692"><ele>61.0</ele><time>2026-05-03T10:24:24.088Z</time></trkpt><trkpt lat="36.770035" lon="9.7385048"><ele>61.0</ele><time>2026-05-03T10:24:25.089Z</time></trkpt><trkpt lat="36.7698768" lon="9.7383419"><ele>60.33333333333333</ele><time>2026-05-03T10:24:26.089Z</time></trkpt><trkpt lat="36.7697167" lon="9.7381735"><ele>59.66666666666667</ele><time>2026-05-03T10:24:27.079Z</time></trkpt><trkpt lat="36.7695621" lon="9.7380072"><ele>59.0</ele><time>2026-05-03T10:24:28.1Z</time></trkpt><trkpt lat="36.7694083" lon="9.7378401"><ele>58.66666666666667</ele><time>2026-05-03T10:24:29.08Z</time></trkpt><trkpt lat="36.7692494" lon="9.7376742"><ele>58.33333333333333</ele><time>2026-05-03T10:24:30.098Z</time></trkpt><trkpt lat="36.7690889" lon="9.7375078"><ele>58.0</ele><time>2026-05-03T10:24:31.079Z</time></trkpt><trkpt lat="36.7689268" lon="9.7373405"><ele>58.0</ele><time>2026-05-03T10:24:32.066Z</time></trkpt><trkpt lat="36.7687616" lon="9.7371712"><ele>58.0</ele><time>2026-05-03T10:24:33.067Z</time></trkpt><trkpt lat="36.7685987" lon="9.7369992"><ele>58.0</ele><time>2026-05-03T10:24:34.084Z</time></trkpt><trkpt lat="36.7684383" lon="9.7368286"><ele>58.0</ele><time>2026-05-03T10:24:35.048Z</time></trkpt><trkpt lat="36.7682772" lon="9.7366554"><ele>58.0</ele><time>2026-05-03T10:24:36.064Z</time></trkpt><trkpt lat="36.7681172" lon="9.7364894"><ele>58.0</ele><time>2026-05-03T10:24:37.074Z</time></trkpt><trkpt lat="36.7679583" lon="9.7363202"><ele>58.0</ele><time>2026-05-03T10:24:38.091Z</time></trkpt><trkpt lat="36.7677991" lon="9.7361507"><ele>58.0</ele><time>2026-05-03T10:24:39.061Z</time></trkpt><trkpt lat="36.7676432" lon="9.7359881"><ele>58.0</ele><time>2026-05-03T10:24:40.079Z</time></trkpt><trkpt lat="36.7674822" lon="9.7358216"><ele>58.0</ele><time>2026-05-03T10:24:41.092Z</time></trkpt><trkpt lat="36.7673195" lon="9.7356528"><ele>58.0</ele><time>2026-05-03T10:24:42.085Z</time></trkpt><trkpt lat="36.7671564" lon="9.7354819"><ele>58.0</ele><time>2026-05-03T10:24:43.078Z</time></trkpt><trkpt lat="36.7669956" lon="9.7353129"><ele>57.0</ele><time>2026-05-03T10:24:44.076Z</time></trkpt><trkpt lat="36.7668354" lon="9.735145"><ele>56.0</ele><time>2026-05-03T10:24:45.058Z</time></trkpt><trkpt lat="36.7666735" lon="9.7349779"><ele>55.0</ele><time>2026-05-03T10:24:46.06Z</time></trkpt><trkpt lat="36.7665156" lon="9.7348127"><ele>55.0</ele><time>2026-05-03T10:24:47.076Z</time></trkpt><trkpt lat="36.7663585" lon="9.7346526"><ele>55.0</ele><time>2026-05-03T10:24:48.096Z</time></trkpt><trkpt lat="36.7662002" lon="9.734484"><ele>55.0</ele><time>2026-05-03T10:24:49.058Z</time></trkpt><trkpt lat="36.7660481" lon="9.7343195"><ele>55.666666666666664</ele><time>2026-05-03T10:24:50.065Z</time></trkpt><trkpt lat="36.7658939" lon="9.734155"><ele>56.33333333333333</ele><time>2026-05-03T10:24:51.107Z</time></trkpt><trkpt lat="36.7657391" lon="9.733986"><ele>57.0</ele><time>2026-05-03T10:24:52.081Z</time></trkpt><trkpt lat="36.765583" lon="9.7338224"><ele>57.0</ele><time>2026-05-03T10:24:53.102Z</time></trkpt><trkpt lat="36.7654243" lon="9.7336586"><ele>57.0</ele><time>2026-05-03T10:24:54.085Z</time></trkpt><trkpt lat="36.7652719" lon="9.7334944"><ele>57.0</ele><time>2026-05-03T10:24:55.085Z</time></trkpt><trkpt lat="36.7651237" lon="9.7333318"><ele>56.66666666666667</ele><time>2026-05-03T10:24:56.086Z</time></trkpt><trkpt lat="36.7649738" lon="9.7331761"><ele>56.333333333333336</ele><time>2026-05-03T10:24:57.087Z</time></trkpt><trkpt lat="36.7648279" lon="9.7330185"><ele>56.0</ele><time>2026-05-03T10:24:58.089Z</time></trkpt><trkpt lat="36.764681" lon="9.7328555"><ele>56.333333333333336</ele><time>2026-05-03T10:24:59.045Z</time></trkpt><trkpt lat="36.7645413" lon="9.7326806"><ele>56.66666666666667</ele><time>2026-05-03T10:25:00.066Z</time></trkpt><trkpt lat="36.7644244" lon="9.7324975"><ele>57.0</ele><time>2026-05-03T10:25:01.09Z</time></trkpt><trkpt lat="36.7643175" lon="9.7322847"><ele>56.33333333333333</ele><time>2026-05-03T10:25:02.085Z</time></trkpt><trkpt lat="36.7642236" lon="9.7320572"><ele>55.666666666666664</ele><time>2026-05-03T10:25:03.064Z</time></trkpt><trkpt lat="36.7641395" lon="9.7317871"><ele>55.0</ele><time>2026-05-03T10:25:04.052Z</time></trkpt><trkpt lat="36.7640693" lon="9.7315035"><ele>55.0</ele><time>2026-05-03T10:25:05.083Z</time></trkpt><trkpt lat="36.7640119" lon="9.7312046"><ele>55.0</ele><time>2026-05-03T10:25:06.086Z</time></trkpt><trkpt lat="36.7639521" lon="9.7309406"><ele>54.666666666666664</ele><time>2026-05-03T10:25:07.081Z</time></trkpt><trkpt lat="36.7638962" lon="9.730692"><ele>54.33333333333333</ele><time>2026-05-03T10:25:08.096Z</time></trkpt><trkpt lat="36.7638424" lon="9.7304428"><ele>54.0</ele><time>2026-05-03T10:25:09.096Z</time></trkpt><trkpt lat="36.7637848" lon="9.7301995"><ele>53.33333333333333</ele><time>2026-05-03T10:25:10.071Z</time></trkpt><trkpt lat="36.7637171" lon="9.7299594"><ele>52.666666666666664</ele><time>2026-05-03T10:25:11.093Z</time></trkpt><trkpt lat="36.763644" lon="9.7296953"><ele>52.0</ele><time>2026-05-03T10:25:12.087Z</time></trkpt><trkpt lat="36.7635478" lon="9.7294198"><ele>52.0</ele><time>2026-05-03T10:25:13.094Z</time></trkpt><trkpt lat="36.7634463" lon="9.7291446"><ele>52.0</ele><time>2026-05-03T10:25:14.063Z</time></trkpt><trkpt lat="36.7633436" lon="9.7288926"><ele>52.0</ele><time>2026-05-03T10:25:15.035Z</time></trkpt><trkpt lat="36.7632365" lon="9.72867"><ele>52.0</ele><time>2026-05-03T10:25:16.06Z</time></trkpt><trkpt lat="36.7631209" lon="9.7284547"><ele>52.0</ele><time>2026-05-03T10:25:17.034Z</time></trkpt><trkpt lat="36.7629981" lon="9.728251"><ele>53.0</ele><time>2026-05-03T10:25:18.044Z</time></trkpt><trkpt lat="36.7628678" lon="9.7280507"><ele>54.0</ele><time>2026-05-03T10:25:19.034Z</time></trkpt><trkpt lat="36.7627336" lon="9.7278596"><ele>55.0</ele><time>2026-05-03T10:25:20.057Z</time></trkpt><trkpt lat="36.7625954" lon="9.7276729"><ele>55.33333333333333</ele><time>2026-05-03T10:25:21.046Z</time></trkpt><trkpt lat="36.7624513" lon="9.7274848"><ele>55.66666666666667</ele><time>2026-05-03T10:25:22.041Z</time></trkpt><trkpt lat="36.7622967" lon="9.7272897"><ele>56.0</ele><time>2026-05-03T10:25:23.039Z</time></trkpt><trkpt lat="36.7621381" lon="9.727081"><ele>56.5</ele><time>2026-05-03T10:25:24.066Z</time></trkpt><trkpt lat="36.7619835" lon="9.726872"><ele>57.0</ele><time>2026-05-03T10:25:25.086Z</time></trkpt><trkpt lat="36.7618294" lon="9.7266629"><ele>55.66666666666667</ele><time>2026-05-03T10:25:26.084Z</time></trkpt><trkpt lat="36.7616768" lon="9.7264677"><ele>54.333333333333336</ele><time>2026-05-03T10:25:27.081Z</time></trkpt><trkpt lat="36.7615262" lon="9.7262806"><ele>53.0</ele><time>2026-05-03T10:25:28.092Z</time></trkpt><trkpt lat="36.7613884" lon="9.7260978"><ele>53.0</ele><time>2026-05-03T10:25:29.059Z</time></trkpt><trkpt lat="36.7612466" lon="9.7259183"><ele>53.0</ele><time>2026-05-03T10:25:30.083Z</time></trkpt><trkpt lat="36.7611138" lon="9.7257398"><ele>53.0</ele><time>2026-05-03T10:25:31.083Z</time></trkpt><trkpt lat="36.7609777" lon="9.7255601"><ele>53.0</ele><time>2026-05-03T10:25:32.088Z</time></trkpt><trkpt lat="36.7608379" lon="9.7253836"><ele>53.0</ele><time>2026-05-03T10:25:33.076Z</time></trkpt><trkpt lat="36.7606924" lon="9.7252073"><ele>53.0</ele><time>2026-05-03T10:25:34.082Z</time></trkpt><trkpt lat="36.760554" lon="9.7250327"><ele>53.0</ele><time>2026-05-03T10:25:35.078Z</time></trkpt><trkpt lat="36.7604281" lon="9.7248646"><ele>53.0</ele><time>2026-05-03T10:25:36.085Z</time></trkpt><trkpt lat="36.7603029" lon="9.7247022"><ele>53.0</ele><time>2026-05-03T10:25:37.077Z</time></trkpt><trkpt lat="36.7601808" lon="9.7245378"><ele>53.0</ele><time>2026-05-03T10:25:38.08Z</time></trkpt><trkpt lat="36.7600567" lon="9.7243709"><ele>53.0</ele><time>2026-05-03T10:25:39.051Z</time></trkpt><trkpt lat="36.7599329" lon="9.7242055"><ele>53.0</ele><time>2026-05-03T10:25:40.081Z</time></trkpt><trkpt lat="36.7598114" lon="9.7240433"><ele>53.0</ele><time>2026-05-03T10:25:41.085Z</time></trkpt><trkpt lat="36.7596919" lon="9.723889"><ele>53.0</ele><time>2026-05-03T10:25:42.074Z</time></trkpt><trkpt lat="36.759579" lon="9.7237218"><ele>53.0</ele><time>2026-05-03T10:25:43.081Z</time></trkpt><trkpt lat="36.7594734" lon="9.7235761"><ele>53.0</ele><time>2026-05-03T10:25:44.088Z</time></trkpt><trkpt lat="36.7593842" lon="9.7234396"><ele>53.0</ele><time>2026-05-03T10:25:45.076Z</time></trkpt><trkpt lat="36.7593044" lon="9.7233036"><ele>53.0</ele><time>2026-05-03T10:25:46.076Z</time></trkpt><trkpt lat="36.7592343" lon="9.7231667"><ele>53.0</ele><time>2026-05-03T10:25:47.082Z</time></trkpt><trkpt lat="36.7591617" lon="9.7230158"><ele>52.0</ele><time>2026-05-03T10:25:48.087Z</time></trkpt><trkpt lat="36.7590872" lon="9.7228524"><ele>51.0</ele><time>2026-05-03T10:25:49.09Z</time></trkpt><trkpt lat="36.7590163" lon="9.7226868"><ele>50.0</ele><time>2026-05-03T10:25:50.072Z</time></trkpt><trkpt lat="36.7589484" lon="9.7225256"><ele>49.0</ele><time>2026-05-03T10:25:51.075Z</time></trkpt><trkpt lat="36.7588879" lon="9.7223809"><ele>48.6</ele><time>2026-05-03T10:25:52.074Z</time></trkpt><trkpt lat="36.7588387" lon="9.7222549"><ele>48.2</ele><time>2026-05-03T10:25:53.075Z</time></trkpt><trkpt lat="36.7587986" lon="9.7221393"><ele>47.800000000000004</ele><time>2026-05-03T10:25:54.088Z</time></trkpt><trkpt lat="36.7587556" lon="9.722034"><ele>47.400000000000006</ele><time>2026-05-03T10:25:55.078Z</time></trkpt><trkpt lat="36.7587076" lon="9.7219253"><ele>47.0</ele><time>2026-05-03T10:25:56.093Z</time></trkpt><trkpt lat="36.7586518" lon="9.7218002"><ele>47.0</ele><time>2026-05-03T10:25:57.081Z</time></trkpt><trkpt lat="36.7585886" lon="9.7216655"><ele>47.0</ele><time>2026-05-03T10:25:58.077Z</time></trkpt><trkpt lat="36.7585174" lon="9.7215231"><ele>47.0</ele><time>2026-05-03T10:25:59.067Z</time></trkpt><trkpt lat="36.7584391" lon="9.7213782"><ele>47.0</ele><time>2026-05-03T10:26:00.05Z</time></trkpt><trkpt lat="36.7583573" lon="9.7212409"><ele>47.0</ele><time>2026-05-03T10:26:01.081Z</time></trkpt><trkpt lat="36.7582709" lon="9.7211149"><ele>47.0</ele><time>2026-05-03T10:26:02.088Z</time></trkpt><trkpt lat="36.7581736" lon="9.7209965"><ele>47.0</ele><time>2026-05-03T10:26:03.086Z</time></trkpt><trkpt lat="36.7580672" lon="9.7208835"><ele>47.0</ele><time>2026-05-03T10:26:04.037Z</time></trkpt><trkpt lat="36.7579486" lon="9.7207861"><ele>47.75</ele><time>2026-05-03T10:26:05.058Z</time></trkpt><trkpt lat="36.757824" lon="9.7207008"><ele>48.5</ele><time>2026-05-03T10:26:06.051Z</time></trkpt><trkpt lat="36.7576879" lon="9.720626"><ele>49.25</ele><time>2026-05-03T10:26:07.086Z</time></trkpt><trkpt lat="36.7575592" lon="9.7205503"><ele>50.0</ele><time>2026-05-03T10:26:08.064Z</time></trkpt><trkpt lat="36.7574271" lon="9.7204762"><ele>50.5</ele><time>2026-05-03T10:26:09.068Z</time></trkpt><trkpt lat="36.757307" lon="9.7203921"><ele>51.0</ele><time>2026-05-03T10:26:10.086Z</time></trkpt><trkpt lat="36.7571841" lon="9.7202891"><ele>51.5</ele><time>2026-05-03T10:26:11.077Z</time></trkpt><trkpt lat="36.7570633" lon="9.7201608"><ele>52.0</ele><time>2026-05-03T10:26:12.073Z</time></trkpt><trkpt lat="36.7569502" lon="9.7200248"><ele>51.666666666666664</ele><time>2026-05-03T10:26:13.083Z</time></trkpt><trkpt lat="36.7568439" lon="9.7198842"><ele>51.33333333333333</ele><time>2026-05-03T10:26:14.085Z</time></trkpt><trkpt lat="36.7567382" lon="9.7197392"><ele>51.0</ele><time>2026-05-03T10:26:15.027Z</time></trkpt><trkpt lat="36.7566379" lon="9.7196019"><ele>51.0</ele><time>2026-05-03T10:26:16.064Z</time></trkpt><trkpt lat="36.7565462" lon="9.719476"><ele>51.0</ele><time>2026-05-03T10:26:17.093Z</time></trkpt><trkpt lat="36.7564571" lon="9.7193548"><ele>51.0</ele><time>2026-05-03T10:26:18.088Z</time></trkpt><trkpt lat="36.7563788" lon="9.7192512"><ele>51.0</ele><time>2026-05-03T10:26:19.06Z</time></trkpt><trkpt lat="36.7563064" lon="9.7191552"><ele>51.166666666666664</ele><time>2026-05-03T10:26:20.113Z</time></trkpt><trkpt lat="36.7562309" lon="9.719059"><ele>51.33333333333333</ele><time>2026-05-03T10:26:21.093Z</time></trkpt><trkpt lat="36.7561674" lon="9.7189823"><ele>51.5</ele><time>2026-05-03T10:26:22.076Z</time></trkpt><trkpt lat="36.7561127" lon="9.7189208"><ele>51.666666666666664</ele><time>2026-05-03T10:26:23.078Z</time></trkpt><trkpt lat="36.7560588" lon="9.7188487"><ele>51.83333333333333</ele><time>2026-05-03T10:26:24.074Z</time></trkpt><trkpt lat="36.7560057" lon="9.7187811"><ele>52.0</ele><time>2026-05-03T10:26:25.058Z</time></trkpt><trkpt lat="36.7559485" lon="9.7187159"><ele>52.0</ele><time>2026-05-03T10:26:26.075Z</time></trkpt><trkpt lat="36.7558875" lon="9.7186386"><ele>52.0</ele><time>2026-05-03T10:26:27.079Z</time></trkpt><trkpt lat="36.7558256" lon="9.7185509"><ele>52.0</ele><time>2026-05-03T10:26:28.077Z</time></trkpt><trkpt lat="36.7557653" lon="9.718464"><ele>52.0</ele><time>2026-05-03T10:26:29.056Z</time></trkpt><trkpt lat="36.7556973" lon="9.718381"><ele>52.0</ele><time>2026-05-03T10:26:30.035Z</time></trkpt><trkpt lat="36.7556354" lon="9.7182931"><ele>51.99999999999999</ele><time>2026-05-03T10:26:31.029Z</time></trkpt><trkpt lat="36.7555713" lon="9.7182148"><ele>52.0</ele><time>2026-05-03T10:26:32.041Z</time></trkpt><trkpt lat="36.7555098" lon="9.7181416"><ele>52.0</ele><time>2026-05-03T10:26:33.059Z</time></trkpt><trkpt lat="36.7554541" lon="9.7180649"><ele>52.0</ele><time>2026-05-03T10:26:34.045Z</time></trkpt><trkpt lat="36.7553947" lon="9.7179882"><ele>51.99999999999999</ele><time>2026-05-03T10:26:35.042Z</time></trkpt><trkpt lat="36.755329" lon="9.7179051"><ele>52.0</ele><time>2026-05-03T10:26:36.073Z</time></trkpt><trkpt lat="36.7552645" lon="9.7178166"><ele>52.0</ele><time>2026-05-03T10:26:37.069Z</time></trkpt><trkpt lat="36.7551963" lon="9.717729"><ele>52.0</ele><time>2026-05-03T10:26:38.087Z</time></trkpt><trkpt lat="36.7551262" lon="9.7176391"><ele>52.0</ele><time>2026-05-03T10:26:39.054Z</time></trkpt><trkpt lat="36.755057" lon="9.7175431"><ele>52.0</ele><time>2026-05-03T10:26:40.036Z</time></trkpt><trkpt lat="36.7549889" lon="9.7174469"><ele>52.0</ele><time>2026-05-03T10:26:41.062Z</time></trkpt><trkpt lat="36.7549209" lon="9.7173552"><ele>52.0</ele><time>2026-05-03T10:26:42.062Z</time></trkpt><trkpt lat="36.7548466" lon="9.7172644"><ele>52.0</ele><time>2026-05-03T10:26:43.074Z</time></trkpt><trkpt lat="36.7547792" lon="9.7171763"><ele>52.0</ele><time>2026-05-03T10:26:44.075Z</time></trkpt><trkpt lat="36.7547164" lon="9.7170937"><ele>52.0</ele><time>2026-05-03T10:26:45.062Z</time></trkpt><trkpt lat="36.754653" lon="9.7170072"><ele>52.0</ele><time>2026-05-03T10:26:46.067Z</time></trkpt><trkpt lat="36.7545864" lon="9.7169173"><ele>52.25</ele><time>2026-05-03T10:26:47.045Z</time></trkpt><trkpt lat="36.7545109" lon="9.7168139"><ele>52.5</ele><time>2026-05-03T10:26:48.068Z</time></trkpt><trkpt lat="36.7544256" lon="9.7167021"><ele>52.75</ele><time>2026-05-03T10:26:49.069Z</time></trkpt><trkpt lat="36.7543251" lon="9.7165774"><ele>53.0</ele><time>2026-05-03T10:26:50.071Z</time></trkpt><trkpt lat="36.7542315" lon="9.7164446"><ele>53.0</ele><time>2026-05-03T10:26:51.091Z</time></trkpt><trkpt lat="36.7541482" lon="9.716329"><ele>53.0</ele><time>2026-05-03T10:26:52.071Z</time></trkpt><trkpt lat="36.754066" lon="9.7162216"><ele>53.0</ele><time>2026-05-03T10:26:53.03Z</time></trkpt><trkpt lat="36.7539886" lon="9.716122"><ele>53.0</ele><time>2026-05-03T10:26:54.041Z</time></trkpt><trkpt lat="36.7539231" lon="9.7160364"><ele>53.0</ele><time>2026-05-03T10:26:55.091Z</time></trkpt><trkpt lat="36.7538673" lon="9.7159546"><ele>53.0</ele><time>2026-05-03T10:26:56.088Z</time></trkpt><trkpt lat="36.7538028" lon="9.7158701"><ele>53.0</ele><time>2026-05-03T10:26:57.101Z</time></trkpt><trkpt lat="36.7537158" lon="9.7157596"><ele>53.0</ele><time>2026-05-03T10:26:58.037Z</time></trkpt><trkpt lat="36.7536149" lon="9.7156301"><ele>53.0</ele><time>2026-05-03T10:26:59.065Z</time></trkpt><trkpt lat="36.7535093" lon="9.7154952"><ele>52.66666666666667</ele><time>2026-05-03T10:27:00.053Z</time></trkpt><trkpt lat="36.7534056" lon="9.7153576"><ele>52.33333333333333</ele><time>2026-05-03T10:27:01.078Z</time></trkpt><trkpt lat="36.7532932" lon="9.7152062"><ele>52.0</ele><time>2026-05-03T10:27:02.067Z</time></trkpt><trkpt lat="36.7531777" lon="9.7150577"><ele>52.0</ele><time>2026-05-03T10:27:03.073Z</time></trkpt><trkpt lat="36.753044" lon="9.7148966"><ele>52.0</ele><time>2026-05-03T10:27:04.055Z</time></trkpt><trkpt lat="36.7529046" lon="9.7147204"><ele>52.0</ele><time>2026-05-03T10:27:05.067Z</time></trkpt><trkpt lat="36.7527712" lon="9.7145407"><ele>50.666666666666664</ele><time>2026-05-03T10:27:06.055Z</time></trkpt><trkpt lat="36.7526292" lon="9.7143507"><ele>49.33333333333333</ele><time>2026-05-03T10:27:07.073Z</time></trkpt><trkpt lat="36.7524939" lon="9.7141652"><ele>48.0</ele><time>2026-05-03T10:27:08.07Z</time></trkpt><trkpt lat="36.7523675" lon="9.7139941"><ele>48.0</ele><time>2026-05-03T10:27:09.079Z</time></trkpt><trkpt lat="36.7522424" lon="9.7138263"><ele>48.0</ele><time>2026-05-03T10:27:10.084Z</time></trkpt><trkpt lat="36.7521165" lon="9.7136564"><ele>48.0</ele><time>2026-05-03T10:27:11.09Z</time></trkpt><trkpt lat="36.7519868" lon="9.7134878"><ele>48.66666666666667</ele><time>2026-05-03T10:27:12.077Z</time></trkpt><trkpt lat="36.7518564" lon="9.7133252"><ele>49.333333333333336</ele><time>2026-05-03T10:27:13.08Z</time></trkpt><trkpt lat="36.7517145" lon="9.7131335"><ele>50.0</ele><time>2026-05-03T10:27:14.079Z</time></trkpt><trkpt lat="36.751541" lon="9.7129001"><ele>51.0</ele><time>2026-05-03T10:27:15.081Z</time></trkpt><trkpt lat="36.7513355" lon="9.7126147"><ele>52.0</ele><time>2026-05-03T10:27:16.08Z</time></trkpt><trkpt lat="36.7511155" lon="9.7123205"><ele>51.0</ele><time>2026-05-03T10:27:17.067Z</time></trkpt><trkpt lat="36.7508752" lon="9.7120164"><ele>50.0</ele><time>2026-05-03T10:27:18.081Z</time></trkpt><trkpt lat="36.7506485" lon="9.7117188"><ele>50.0</ele><time>2026-05-03T10:27:19.074Z</time></trkpt><trkpt lat="36.7504371" lon="9.7114442"><ele>50.0</ele><time>2026-05-03T10:27:20.066Z</time></trkpt><trkpt lat="36.7502535" lon="9.7111992"><ele>50.0</ele><time>2026-05-03T10:27:21.081Z</time></trkpt><trkpt lat="36.7500865" lon="9.7109709"><ele>50.0</ele><time>2026-05-03T10:27:22.067Z</time></trkpt><trkpt lat="36.749929" lon="9.7107503"><ele>50.0</ele><time>2026-05-03T10:27:23.084Z</time></trkpt><trkpt lat="36.7497728" lon="9.7105492"><ele>50.0</ele><time>2026-05-03T10:27:24.089Z</time></trkpt><trkpt lat="36.7496226" lon="9.7103526"><ele>50.0</ele><time>2026-05-03T10:27:25.079Z</time></trkpt><trkpt lat="36.7494782" lon="9.7101539"><ele>50.0</ele><time>2026-05-03T10:27:26.087Z</time></trkpt><trkpt lat="36.7493493" lon="9.7099721"><ele>50.0</ele><time>2026-05-03T10:27:27.09Z</time></trkpt><trkpt lat="36.7492251" lon="9.7098102"><ele>50.0</ele><time>2026-05-03T10:27:28.077Z</time></trkpt><trkpt lat="36.7491103" lon="9.7096581"><ele>50.0</ele><time>2026-05-03T10:27:29.089Z</time></trkpt><trkpt lat="36.7490082" lon="9.7095152"><ele>50.0</ele><time>2026-05-03T10:27:30.067Z</time></trkpt><trkpt lat="36.748911" lon="9.7093865"><ele>50.0</ele><time>2026-05-03T10:27:31.075Z</time></trkpt><trkpt lat="36.7488209" lon="9.7092684"><ele>50.0</ele><time>2026-05-03T10:27:32.08Z</time></trkpt><trkpt lat="36.748743" lon="9.7091574"><ele>50.0</ele><time>2026-05-03T10:27:33.056Z</time></trkpt><trkpt lat="36.7486637" lon="9.7090549"><ele>50.0</ele><time>2026-05-03T10:27:34.079Z</time></trkpt><trkpt lat="36.7485909" lon="9.7089524"><ele>50.0</ele><time>2026-05-03T10:27:35.083Z</time></trkpt><trkpt lat="36.7485183" lon="9.708854"><ele>50.0</ele><time>2026-05-03T10:27:36.084Z</time></trkpt><trkpt lat="36.7484432" lon="9.7087647"><ele>50.0</ele><time>2026-05-03T10:27:37.091Z</time></trkpt><trkpt lat="36.7483789" lon="9.7086798"><ele>50.0</ele><time>2026-05-03T10:27:38.069Z</time></trkpt><trkpt lat="36.7483127" lon="9.7085954"><ele>50.0</ele><time>2026-05-03T10:27:39.056Z</time></trkpt><trkpt lat="36.7482458" lon="9.7085124"><ele>50.0</ele><time>2026-05-03T10:27:40.066Z</time></trkpt><trkpt lat="36.7481855" lon="9.7084251"><ele>50.0</ele><time>2026-05-03T10:27:41.091Z</time></trkpt><trkpt lat="36.7481258" lon="9.7083435"><ele>50.0</ele><time>2026-05-03T10:27:42.061Z</time></trkpt><trkpt lat="36.7480642" lon="9.7082612"><ele>50.0</ele><time>2026-05-03T10:27:43.075Z</time></trkpt><trkpt lat="36.7479937" lon="9.7081741"><ele>50.0</ele><time>2026-05-03T10:27:44.079Z</time></trkpt><trkpt lat="36.7479218" lon="9.7080839"><ele>50.0</ele><time>2026-05-03T10:27:45.082Z</time></trkpt><trkpt lat="36.7478437" lon="9.7079874"><ele>50.0</ele><time>2026-05-03T10:27:46.104Z</time></trkpt><trkpt lat="36.7477538" lon="9.7078738"><ele>50.0</ele><time>2026-05-03T10:27:47.068Z</time></trkpt><trkpt lat="36.7476377" lon="9.7077242"><ele>49.5</ele><time>2026-05-03T10:27:48.08Z</time></trkpt><trkpt lat="36.7474758" lon="9.7075164"><ele>49.0</ele><time>2026-05-03T10:27:49.07Z</time></trkpt><trkpt lat="36.7473043" lon="9.7072686"><ele>49.0</ele><time>2026-05-03T10:27:50.06Z</time></trkpt><trkpt lat="36.7470958" lon="9.7069984"><ele>49.0</ele><time>2026-05-03T10:27:51.092Z</time></trkpt><trkpt lat="36.7468848" lon="9.7067159"><ele>49.5</ele><time>2026-05-03T10:27:52.087Z</time></trkpt><trkpt lat="36.7466582" lon="9.7064082"><ele>50.0</ele><time>2026-05-03T10:27:53.098Z</time></trkpt><trkpt lat="36.7464242" lon="9.7061015"><ele>50.5</ele><time>2026-05-03T10:27:54.051Z</time></trkpt><trkpt lat="36.7462073" lon="9.7058044"><ele>51.0</ele><time>2026-05-03T10:27:55.074Z</time></trkpt><trkpt lat="36.7460003" lon="9.7055277"><ele>50.0</ele><time>2026-05-03T10:27:56.082Z</time></trkpt><trkpt lat="36.7458113" lon="9.7052656"><ele>49.0</ele><time>2026-05-03T10:27:57.085Z</time></trkpt><trkpt lat="36.7456259" lon="9.7050255"><ele>49.0</ele><time>2026-05-03T10:27:58.046Z</time></trkpt><trkpt lat="36.7454508" lon="9.7048017"><ele>49.0</ele><time>2026-05-03T10:27:59.05Z</time></trkpt><trkpt lat="36.7452793" lon="9.7045688"><ele>48.5</ele><time>2026-05-03T10:28:00.073Z</time></trkpt><trkpt lat="36.7451146" lon="9.704345"><ele>48.0</ele><time>2026-05-03T10:28:01.076Z</time></trkpt><trkpt lat="36.7449571" lon="9.7041283"><ele>48.0</ele><time>2026-05-03T10:28:02.093Z</time></trkpt><trkpt lat="36.7447989" lon="9.703914"><ele>48.0</ele><time>2026-05-03T10:28:03.08Z</time></trkpt><trkpt lat="36.7446398" lon="9.7036955"><ele>47.5</ele><time>2026-05-03T10:28:04.055Z</time></trkpt><trkpt lat="36.7444753" lon="9.7034773"><ele>47.0</ele><time>2026-05-03T10:28:05.087Z</time></trkpt><trkpt lat="36.7443111" lon="9.7032582"><ele>47.0</ele><time>2026-05-03T10:28:06.078Z</time></trkpt><trkpt lat="36.7441544" lon="9.7030506"><ele>47.0</ele><time>2026-05-03T10:28:07.08Z</time></trkpt><trkpt lat="36.7440124" lon="9.70285"><ele>47.0</ele><time>2026-05-03T10:28:08.077Z</time></trkpt><trkpt lat="36.7438842" lon="9.7026666"><ele>47.33333333333333</ele><time>2026-05-03T10:28:09.074Z</time></trkpt><trkpt lat="36.7437589" lon="9.7024931"><ele>47.666666666666664</ele><time>2026-05-03T10:28:10.085Z</time></trkpt><trkpt lat="36.7436406" lon="9.7023401"><ele>48.0</ele><time>2026-05-03T10:28:11.068Z</time></trkpt><trkpt lat="36.7435355" lon="9.7021998"><ele>48.25</ele><time>2026-05-03T10:28:12.078Z</time></trkpt><trkpt lat="36.7434342" lon="9.7020657"><ele>48.5</ele><time>2026-05-03T10:28:13.09Z</time></trkpt><trkpt lat="36.743339" lon="9.7019344"><ele>48.75</ele><time>2026-05-03T10:28:14.077Z</time></trkpt><trkpt lat="36.7432384" lon="9.701799"><ele>49.0</ele><time>2026-05-03T10:28:15.095Z</time></trkpt><trkpt lat="36.7431323" lon="9.7016586"><ele>49.33333333333333</ele><time>2026-05-03T10:28:16.088Z</time></trkpt><trkpt lat="36.7430266" lon="9.7015014"><ele>49.66666666666667</ele><time>2026-05-03T10:28:17.085Z</time></trkpt><trkpt lat="36.7429133" lon="9.7013472"><ele>50.0</ele><time>2026-05-03T10:28:18.098Z</time></trkpt><trkpt lat="36.7428008" lon="9.7011867"><ele>50.0</ele><time>2026-05-03T10:28:19.07Z</time></trkpt><trkpt lat="36.7426853" lon="9.7010289"><ele>50.0</ele><time>2026-05-03T10:28:20.09Z</time></trkpt><trkpt lat="36.7425677" lon="9.7008668"><ele>50.0</ele><time>2026-05-03T10:28:21.082Z</time></trkpt><trkpt lat="36.7424437" lon="9.7007031"><ele>50.0</ele><time>2026-05-03T10:28:22.081Z</time></trkpt><trkpt lat="36.7423175" lon="9.7005375"><ele>50.0</ele><time>2026-05-03T10:28:23.084Z</time></trkpt><trkpt lat="36.7421943" lon="9.7003702"><ele>50.0</ele><time>2026-05-03T10:28:24.07Z</time></trkpt><trkpt lat="36.7420786" lon="9.7002127"><ele>50.0</ele><time>2026-05-03T10:28:25.071Z</time></trkpt><trkpt lat="36.7419676" lon="9.7000558"><ele>50.0</ele><time>2026-05-03T10:28:26.09Z</time></trkpt><trkpt lat="36.7418564" lon="9.6999113"><ele>50.0</ele><time>2026-05-03T10:28:27.087Z</time></trkpt><trkpt lat="36.7417479" lon="9.6997694"><ele>50.0</ele><time>2026-05-03T10:28:28.087Z</time></trkpt><trkpt lat="36.7416431" lon="9.6996302"><ele>50.0</ele><time>2026-05-03T10:28:29.065Z</time></trkpt><trkpt lat="36.7415377" lon="9.699486"><ele>50.0</ele><time>2026-05-03T10:28:30.063Z</time></trkpt><trkpt lat="36.7414266" lon="9.699331"><ele>51.0</ele><time>2026-05-03T10:28:31.086Z</time></trkpt><trkpt lat="36.7413087" lon="9.6991603"><ele>52.0</ele><time>2026-05-03T10:28:32.077Z</time></trkpt><trkpt lat="36.7411834" lon="9.6989916"><ele>53.0</ele><time>2026-05-03T10:28:33.098Z</time></trkpt><trkpt lat="36.7410535" lon="9.6988166"><ele>52.66666666666667</ele><time>2026-05-03T10:28:34.086Z</time></trkpt><trkpt lat="36.7409235" lon="9.6986383"><ele>52.33333333333333</ele><time>2026-05-03T10:28:35.074Z</time></trkpt><trkpt lat="36.7407938" lon="9.6984569"><ele>52.0</ele><time>2026-05-03T10:28:36.073Z</time></trkpt><trkpt lat="36.7406581" lon="9.6982625"><ele>53.0</ele><time>2026-05-03T10:28:37.074Z</time></trkpt><trkpt lat="36.7405158" lon="9.6980506"><ele>54.0</ele><time>2026-05-03T10:28:38.068Z</time></trkpt><trkpt lat="36.7403611" lon="9.697831"><ele>53.5</ele><time>2026-05-03T10:28:39.075Z</time></trkpt><trkpt lat="36.7401995" lon="9.6976028"><ele>53.0</ele><time>2026-05-03T10:28:40.041Z</time></trkpt><trkpt lat="36.7400349" lon="9.6973663"><ele>53.0</ele><time>2026-05-03T10:28:41.076Z</time></trkpt><trkpt lat="36.7398757" lon="9.6971387"><ele>53.0</ele><time>2026-05-03T10:28:42.071Z</time></trkpt><trkpt lat="36.7397197" lon="9.696922"><ele>53.0</ele><time>2026-05-03T10:28:43.052Z</time></trkpt><trkpt lat="36.7395717" lon="9.6967066"><ele>53.0</ele><time>2026-05-03T10:28:44.062Z</time></trkpt><trkpt lat="36.7394261" lon="9.6964965"><ele>52.66666666666667</ele><time>2026-05-03T10:28:45.075Z</time></trkpt><trkpt lat="36.7392867" lon="9.6962927"><ele>52.33333333333333</ele><time>2026-05-03T10:28:46.076Z</time></trkpt><trkpt lat="36.7391544" lon="9.6961002"><ele>52.0</ele><time>2026-05-03T10:28:47.073Z</time></trkpt><trkpt lat="36.7390322" lon="9.6959149"><ele>52.0</ele><time>2026-05-03T10:28:48.082Z</time></trkpt><trkpt lat="36.7389017" lon="9.6957288"><ele>52.0</ele><time>2026-05-03T10:28:49.085Z</time></trkpt><trkpt lat="36.7387746" lon="9.6955466"><ele>52.0</ele><time>2026-05-03T10:28:50.052Z</time></trkpt><trkpt lat="36.7386488" lon="9.6953642"><ele>53.0</ele><time>2026-05-03T10:28:51.088Z</time></trkpt><trkpt lat="36.7385165" lon="9.6951769"><ele>54.0</ele><time>2026-05-03T10:28:52.089Z</time></trkpt><trkpt lat="36.7383836" lon="9.6949855"><ele>55.0</ele><time>2026-05-03T10:28:53.059Z</time></trkpt><trkpt lat="36.7382523" lon="9.6947944"><ele>55.0</ele><time>2026-05-03T10:28:54.081Z</time></trkpt><trkpt lat="36.7381153" lon="9.6945945"><ele>55.0</ele><time>2026-05-03T10:28:55.059Z</time></trkpt><trkpt lat="36.7379803" lon="9.6943995"><ele>55.0</ele><time>2026-05-03T10:28:56.078Z</time></trkpt><trkpt lat="36.7378409" lon="9.6942021"><ele>54.666666666666664</ele><time>2026-05-03T10:28:57.07Z</time></trkpt><trkpt lat="36.7377086" lon="9.6940052"><ele>54.33333333333333</ele><time>2026-05-03T10:28:58.077Z</time></trkpt><trkpt lat="36.7375771" lon="9.6938094"><ele>54.0</ele><time>2026-05-03T10:28:59.087Z</time></trkpt><trkpt lat="36.7374432" lon="9.6936159"><ele>54.33333333333333</ele><time>2026-05-03T10:29:00.042Z</time></trkpt><trkpt lat="36.7373126" lon="9.6934335"><ele>54.666666666666664</ele><time>2026-05-03T10:29:01.043Z</time></trkpt><trkpt lat="36.7371824" lon="9.6932489"><ele>55.0</ele><time>2026-05-03T10:29:02.078Z</time></trkpt><trkpt lat="36.7370484" lon="9.6930585"><ele>55.0</ele><time>2026-05-03T10:29:03.081Z</time></trkpt><trkpt lat="36.7369143" lon="9.6928696"><ele>55.0</ele><time>2026-05-03T10:29:04.066Z</time></trkpt><trkpt lat="36.7367741" lon="9.6926685"><ele>55.0</ele><time>2026-05-03T10:29:05.075Z</time></trkpt><trkpt lat="36.7366306" lon="9.6924685"><ele>54.0</ele><time>2026-05-03T10:29:06.069Z</time></trkpt><trkpt lat="36.7364922" lon="9.6922693"><ele>53.0</ele><time>2026-05-03T10:29:07.083Z</time></trkpt><trkpt lat="36.7363559" lon="9.692063"><ele>52.0</ele><time>2026-05-03T10:29:08.081Z</time></trkpt><trkpt lat="36.7362173" lon="9.6918604"><ele>52.0</ele><time>2026-05-03T10:29:09.075Z</time></trkpt><trkpt lat="36.7360849" lon="9.6916665"><ele>52.0</ele><time>2026-05-03T10:29:10.054Z</time></trkpt><trkpt lat="36.7359473" lon="9.6914705"><ele>52.0</ele><time>2026-05-03T10:29:11.051Z</time></trkpt><trkpt lat="36.7358093" lon="9.6912726"><ele>52.666666666666664</ele><time>2026-05-03T10:29:12.09Z</time></trkpt><trkpt lat="36.7356718" lon="9.6910705"><ele>53.33333333333333</ele><time>2026-05-03T10:29:13.089Z</time></trkpt><trkpt lat="36.7355337" lon="9.6908665"><ele>54.0</ele><time>2026-05-03T10:29:14.074Z</time></trkpt><trkpt lat="36.7353949" lon="9.6906604"><ele>54.0</ele><time>2026-05-03T10:29:15.076Z</time></trkpt><trkpt lat="36.7352517" lon="9.6904551"><ele>54.0</ele><time>2026-05-03T10:29:16.059Z</time></trkpt><trkpt lat="36.7351152" lon="9.6902534"><ele>54.0</ele><time>2026-05-03T10:29:17.075Z</time></trkpt><trkpt lat="36.734975" lon="9.6900456"><ele>53.66666666666667</ele><time>2026-05-03T10:29:18.093Z</time></trkpt><trkpt lat="36.7348327" lon="9.6898374"><ele>53.333333333333336</ele><time>2026-05-03T10:29:19.087Z</time></trkpt><trkpt lat="36.7346932" lon="9.6896355"><ele>53.0</ele><time>2026-05-03T10:29:20.082Z</time></trkpt><trkpt lat="36.7345515" lon="9.6894283"><ele>53.0</ele><time>2026-05-03T10:29:21.077Z</time></trkpt><trkpt lat="36.7344107" lon="9.6892226"><ele>53.0</ele><time>2026-05-03T10:29:22.081Z</time></trkpt><trkpt lat="36.7342658" lon="9.6890138"><ele>53.0</ele><time>2026-05-03T10:29:23.092Z</time></trkpt><trkpt lat="36.7341188" lon="9.6888095"><ele>53.0</ele><time>2026-05-03T10:29:24.082Z</time></trkpt><trkpt lat="36.733973" lon="9.6886072"><ele>53.0</ele><time>2026-05-03T10:29:25.08Z</time></trkpt><trkpt lat="36.73383" lon="9.6884098"><ele>53.0</ele><time>2026-05-03T10:29:26.084Z</time></trkpt><trkpt lat="36.7336849" lon="9.688215"><ele>52.66666666666667</ele><time>2026-05-03T10:29:27.083Z</time></trkpt><trkpt lat="36.7335487" lon="9.6880225"><ele>52.33333333333333</ele><time>2026-05-03T10:29:28.081Z</time></trkpt><trkpt lat="36.7334174" lon="9.6878344"><ele>52.0</ele><time>2026-05-03T10:29:29.082Z</time></trkpt><trkpt lat="36.7332863" lon="9.68764"><ele>52.0</ele><time>2026-05-03T10:29:30.078Z</time></trkpt><trkpt lat="36.733155" lon="9.6874439"><ele>52.0</ele><time>2026-05-03T10:29:31.075Z</time></trkpt><trkpt lat="36.7330326" lon="9.687238"><ele>52.0</ele><time>2026-05-03T10:29:32.074Z</time></trkpt><trkpt lat="36.7329242" lon="9.6870308"><ele>52.33333333333333</ele><time>2026-05-03T10:29:33.083Z</time></trkpt><trkpt lat="36.7328211" lon="9.686812"><ele>52.66666666666667</ele><time>2026-05-03T10:29:34.076Z</time></trkpt><trkpt lat="36.7327244" lon="9.6865954"><ele>53.0</ele><time>2026-05-03T10:29:35.09Z</time></trkpt><trkpt lat="36.732631" lon="9.6863758"><ele>52.66666666666667</ele><time>2026-05-03T10:29:36.08Z</time></trkpt><trkpt lat="36.7325495" lon="9.6861479"><ele>52.33333333333333</ele><time>2026-05-03T10:29:37.081Z</time></trkpt><trkpt lat="36.7324784" lon="9.6859209"><ele>52.0</ele><time>2026-05-03T10:29:38.083Z</time></trkpt><trkpt lat="36.7324142" lon="9.6856804"><ele>52.0</ele><time>2026-05-03T10:29:39.071Z</time></trkpt><trkpt lat="36.7323487" lon="9.6854432"><ele>52.0</ele><time>2026-05-03T10:29:40.083Z</time></trkpt><trkpt lat="36.732279" lon="9.6851931"><ele>52.0</ele><time>2026-05-03T10:29:41.068Z</time></trkpt><trkpt lat="36.7322127" lon="9.6849439"><ele>52.0</ele><time>2026-05-03T10:29:42.08Z</time></trkpt><trkpt lat="36.7321419" lon="9.6847016"><ele>52.0</ele><time>2026-05-03T10:29:43.069Z</time></trkpt><trkpt lat="36.7320729" lon="9.6844609"><ele>52.0</ele><time>2026-05-03T10:29:44.074Z</time></trkpt><trkpt lat="36.732002" lon="9.6842158"><ele>51.666666666666664</ele><time>2026-05-03T10:29:45.062Z</time></trkpt><trkpt lat="36.7319343" lon="9.6839698"><ele>51.33333333333333</ele><time>2026-05-03T10:29:46.071Z</time></trkpt><trkpt lat="36.7318675" lon="9.683723"><ele>51.0</ele><time>2026-05-03T10:29:47.074Z</time></trkpt><trkpt lat="36.7317976" lon="9.6834735"><ele>51.0</ele><time>2026-05-03T10:29:48.097Z</time></trkpt><trkpt lat="36.7317241" lon="9.6832195"><ele>51.0</ele><time>2026-05-03T10:29:49.086Z</time></trkpt><trkpt lat="36.731655" lon="9.682965"><ele>51.0</ele><time>2026-05-03T10:29:50.091Z</time></trkpt><trkpt lat="36.7315831" lon="9.6827155"><ele>51.0</ele><time>2026-05-03T10:29:51.07Z</time></trkpt><trkpt lat="36.7315109" lon="9.6824661"><ele>51.0</ele><time>2026-05-03T10:29:52.084Z</time></trkpt><trkpt lat="36.7314401" lon="9.6822179"><ele>51.0</ele><time>2026-05-03T10:29:53.088Z</time></trkpt><trkpt lat="36.7313717" lon="9.68197"><ele>51.33333333333333</ele><time>2026-05-03T10:29:54.086Z</time></trkpt><trkpt lat="36.7313032" lon="9.6817371"><ele>51.666666666666664</ele><time>2026-05-03T10:29:55.079Z</time></trkpt><trkpt lat="36.7312371" lon="9.681506"><ele>52.0</ele><time>2026-05-03T10:29:56.088Z</time></trkpt><trkpt lat="36.7311752" lon="9.6812749"><ele>52.33333333333333</ele><time>2026-05-03T10:29:57.091Z</time></trkpt><trkpt lat="36.7311086" lon="9.6810433"><ele>52.66666666666667</ele><time>2026-05-03T10:29:58.086Z</time></trkpt><trkpt lat="36.7310441" lon="9.6808172"><ele>53.0</ele><time>2026-05-03T10:29:59.088Z</time></trkpt><trkpt lat="36.7309821" lon="9.6805931"><ele>53.0</ele><time>2026-05-03T10:30:00.071Z</time></trkpt><trkpt lat="36.7309161" lon="9.680372"><ele>53.0</ele><time>2026-05-03T10:30:01.085Z</time></trkpt><trkpt lat="36.7308523" lon="9.6801466"><ele>53.0</ele><time>2026-05-03T10:30:02.085Z</time></trkpt><trkpt lat="36.7307945" lon="9.6799254"><ele>53.0</ele><time>2026-05-03T10:30:03.041Z</time></trkpt><trkpt lat="36.7307313" lon="9.679708"><ele>53.0</ele><time>2026-05-03T10:30:04.053Z</time></trkpt><trkpt lat="36.7306687" lon="9.6794964"><ele>53.0</ele><time>2026-05-03T10:30:05.09Z</time></trkpt><trkpt lat="36.7306115" lon="9.6792873"><ele>53.0</ele><time>2026-05-03T10:30:06.091Z</time></trkpt><trkpt lat="36.7305563" lon="9.6790824"><ele>53.0</ele><time>2026-05-03T10:30:07.078Z</time></trkpt><trkpt lat="36.7304965" lon="9.6788837"><ele>53.0</ele><time>2026-05-03T10:30:08.091Z</time></trkpt><trkpt lat="36.7304422" lon="9.6786856"><ele>53.0</ele><time>2026-05-03T10:30:09.067Z</time></trkpt><trkpt lat="36.7303803" lon="9.6784813"><ele>53.0</ele><time>2026-05-03T10:30:10.047Z</time></trkpt><trkpt lat="36.7303203" lon="9.6782645"><ele>53.0</ele><time>2026-05-03T10:30:11.076Z</time></trkpt><trkpt lat="36.7302574" lon="9.6780432"><ele>52.0</ele><time>2026-05-03T10:30:12.073Z</time></trkpt><trkpt lat="36.7301893" lon="9.6778207"><ele>51.0</ele><time>2026-05-03T10:30:13.07Z</time></trkpt><trkpt lat="36.7301155" lon="9.6775903"><ele>50.0</ele><time>2026-05-03T10:30:14.093Z</time></trkpt><trkpt lat="36.7300427" lon="9.6773504"><ele>50.0</ele><time>2026-05-03T10:30:15.081Z</time></trkpt><trkpt lat="36.7299746" lon="9.6771073"><ele>50.0</ele><time>2026-05-03T10:30:16.067Z</time></trkpt><trkpt lat="36.7299106" lon="9.6768668"><ele>50.0</ele><time>2026-05-03T10:30:17.087Z</time></trkpt><trkpt lat="36.7298539" lon="9.6766314"><ele>50.0</ele><time>2026-05-03T10:30:18.108Z</time></trkpt><trkpt lat="36.7298001" lon="9.6764048"><ele>50.0</ele><time>2026-05-03T10:30:19.085Z</time></trkpt><trkpt lat="36.72974" lon="9.6761795"><ele>50.0</ele><time>2026-05-03T10:30:20.083Z</time></trkpt><trkpt lat="36.7296774" lon="9.6759534"><ele>50.66666666666667</ele><time>2026-05-03T10:30:21.057Z</time></trkpt><trkpt lat="36.7296128" lon="9.6757311"><ele>51.33333333333333</ele><time>2026-05-03T10:30:22.089Z</time></trkpt><trkpt lat="36.7295489" lon="9.6755129"><ele>52.0</ele><time>2026-05-03T10:30:23.073Z</time></trkpt><trkpt lat="36.7294881" lon="9.6752993"><ele>52.0</ele><time>2026-05-03T10:30:24.09Z</time></trkpt><trkpt lat="36.7294232" lon="9.6750758"><ele>52.0</ele><time>2026-05-03T10:30:25.059Z</time></trkpt><trkpt lat="36.7293535" lon="9.6748486"><ele>52.0</ele><time>2026-05-03T10:30:26.089Z</time></trkpt><trkpt lat="36.7292867" lon="9.6746152"><ele>51.666666666666664</ele><time>2026-05-03T10:30:27.096Z</time></trkpt><trkpt lat="36.7292127" lon="9.6743854"><ele>51.33333333333333</ele><time>2026-05-03T10:30:28.092Z</time></trkpt><trkpt lat="36.7291397" lon="9.6741495"><ele>51.0</ele><time>2026-05-03T10:30:29.076Z</time></trkpt><trkpt lat="36.7290697" lon="9.6739133"><ele>51.0</ele><time>2026-05-03T10:30:30.088Z</time></trkpt><trkpt lat="36.7290035" lon="9.6736735"><ele>51.0</ele><time>2026-05-03T10:30:31.095Z</time></trkpt><trkpt lat="36.7289418" lon="9.6734365"><ele>51.0</ele><time>2026-05-03T10:30:32.087Z</time></trkpt><trkpt lat="36.7288823" lon="9.6732022"><ele>51.0</ele><time>2026-05-03T10:30:33.066Z</time></trkpt><trkpt lat="36.728817" lon="9.6729681"><ele>51.0</ele><time>2026-05-03T10:30:34.081Z</time></trkpt><trkpt lat="36.7287559" lon="9.6727407"><ele>51.0</ele><time>2026-05-03T10:30:35.078Z</time></trkpt><trkpt lat="36.7286906" lon="9.672508"><ele>51.0</ele><time>2026-05-03T10:30:36.083Z</time></trkpt><trkpt lat="36.7286283" lon="9.6722806"><ele>51.0</ele><time>2026-05-03T10:30:37.087Z</time></trkpt><trkpt lat="36.7285629" lon="9.6720517"><ele>51.0</ele><time>2026-05-03T10:30:38.087Z</time></trkpt><trkpt lat="36.7285009" lon="9.6718197"><ele>51.0</ele><time>2026-05-03T10:30:39.073Z</time></trkpt><trkpt lat="36.7284361" lon="9.6715866"><ele>51.0</ele><time>2026-05-03T10:30:40.078Z</time></trkpt><trkpt lat="36.7283709" lon="9.67135"><ele>51.0</ele><time>2026-05-03T10:30:41.083Z</time></trkpt><trkpt lat="36.7283059" lon="9.6711155"><ele>51.0</ele><time>2026-05-03T10:30:42.096Z</time></trkpt><trkpt lat="36.7282426" lon="9.6708903"><ele>51.0</ele><time>2026-05-03T10:30:43.063Z</time></trkpt><trkpt lat="36.728179" lon="9.6706624"><ele>51.0</ele><time>2026-05-03T10:30:44.075Z</time></trkpt><trkpt lat="36.7281137" lon="9.6704459"><ele>52.0</ele><time>2026-05-03T10:30:45.069Z</time></trkpt><trkpt lat="36.7280538" lon="9.6702322"><ele>53.0</ele><time>2026-05-03T10:30:46.076Z</time></trkpt><trkpt lat="36.7279888" lon="9.6700252"><ele>54.0</ele><time>2026-05-03T10:30:47.076Z</time></trkpt><trkpt lat="36.7279247" lon="9.6698302"><ele>54.0</ele><time>2026-05-03T10:30:48.074Z</time></trkpt><trkpt lat="36.7278556" lon="9.6696309"><ele>54.0</ele><time>2026-05-03T10:30:49.088Z</time></trkpt><trkpt lat="36.7277867" lon="9.6694438"><ele>54.0</ele><time>2026-05-03T10:30:50.089Z</time></trkpt><trkpt lat="36.7277141" lon="9.669259"><ele>53.66666666666667</ele><time>2026-05-03T10:30:51.091Z</time></trkpt><trkpt lat="36.7276435" lon="9.6690749"><ele>53.333333333333336</ele><time>2026-05-03T10:30:52.088Z</time></trkpt><trkpt lat="36.7275721" lon="9.6688928"><ele>53.0</ele><time>2026-05-03T10:30:53.099Z</time></trkpt><trkpt lat="36.7274943" lon="9.6687131"><ele>53.75</ele><time>2026-05-03T10:30:54.081Z</time></trkpt><trkpt lat="36.7274194" lon="9.6685391"><ele>54.5</ele><time>2026-05-03T10:30:55.088Z</time></trkpt><trkpt lat="36.7273465" lon="9.6683773"><ele>55.25</ele><time>2026-05-03T10:30:56.091Z</time></trkpt><trkpt lat="36.7272778" lon="9.6682227"><ele>56.0</ele><time>2026-05-03T10:30:57.08Z</time></trkpt><trkpt lat="36.7272106" lon="9.6680716"><ele>56.0</ele><time>2026-05-03T10:30:58.088Z</time></trkpt><trkpt lat="36.7271438" lon="9.6679244"><ele>56.0</ele><time>2026-05-03T10:30:59.088Z</time></trkpt><trkpt lat="36.7270798" lon="9.6677729"><ele>56.0</ele><time>2026-05-03T10:31:00.073Z</time></trkpt><trkpt lat="36.727017" lon="9.6676206"><ele>56.0</ele><time>2026-05-03T10:31:01.066Z</time></trkpt><trkpt lat="36.7269576" lon="9.6674732"><ele>56.199999999999996</ele><time>2026-05-03T10:31:02.064Z</time></trkpt><trkpt lat="36.7269076" lon="9.6673502"><ele>56.39999999999999</ele><time>2026-05-03T10:31:03.059Z</time></trkpt><trkpt lat="36.7268594" lon="9.6672454"><ele>56.6</ele><time>2026-05-03T10:31:04.091Z</time></trkpt><trkpt lat="36.7268134" lon="9.6671436"><ele>56.8</ele><time>2026-05-03T10:31:05.037Z</time></trkpt><trkpt lat="36.7267664" lon="9.6670418"><ele>57.0</ele><time>2026-05-03T10:31:06.085Z</time></trkpt><trkpt lat="36.7267172" lon="9.6669255"><ele>57.0</ele><time>2026-05-03T10:31:07.091Z</time></trkpt><trkpt lat="36.7266584" lon="9.6668065"><ele>57.0</ele><time>2026-05-03T10:31:08.059Z</time></trkpt><trkpt lat="36.7265924" lon="9.6666815"><ele>57.0</ele><time>2026-05-03T10:31:09.08Z</time></trkpt><trkpt lat="36.7265278" lon="9.6665603"><ele>57.0</ele><time>2026-05-03T10:31:10.064Z</time></trkpt><trkpt lat="36.7264667" lon="9.6664377"><ele>57.0</ele><time>2026-05-03T10:31:11.082Z</time></trkpt><trkpt lat="36.7264077" lon="9.6663145"><ele>57.0</ele><time>2026-05-03T10:31:12.076Z</time></trkpt><trkpt lat="36.7263473" lon="9.6661892"><ele>57.0</ele><time>2026-05-03T10:31:13.079Z</time></trkpt><trkpt lat="36.7262892" lon="9.6660641"><ele>57.0</ele><time>2026-05-03T10:31:14.081Z</time></trkpt><trkpt lat="36.7262324" lon="9.665947"><ele>56.8</ele><time>2026-05-03T10:31:15.085Z</time></trkpt><trkpt lat="36.7261823" lon="9.6658326"><ele>56.6</ele><time>2026-05-03T10:31:16.079Z</time></trkpt><trkpt lat="36.7261311" lon="9.6657207"><ele>56.39999999999999</ele><time>2026-05-03T10:31:17.086Z</time></trkpt><trkpt lat="36.7260838" lon="9.6656216"><ele>56.199999999999996</ele><time>2026-05-03T10:31:18.089Z</time></trkpt><trkpt lat="36.7260424" lon="9.66553"><ele>56.0</ele><time>2026-05-03T10:31:19.092Z</time></trkpt><trkpt lat="36.7259941" lon="9.6654414"><ele>55.599999999999994</ele><time>2026-05-03T10:31:20.084Z</time></trkpt><trkpt lat="36.7259467" lon="9.6653462"><ele>55.199999999999996</ele><time>2026-05-03T10:31:21.093Z</time></trkpt><trkpt lat="36.7258964" lon="9.6652445"><ele>54.800000000000004</ele><time>2026-05-03T10:31:22.083Z</time></trkpt><trkpt lat="36.7258431" lon="9.665134"><ele>54.400000000000006</ele><time>2026-05-03T10:31:23.088Z</time></trkpt><trkpt lat="36.7257809" lon="9.6650146"><ele>54.0</ele><time>2026-05-03T10:31:24.09Z</time></trkpt><trkpt lat="36.7257203" lon="9.6648861"><ele>53.75</ele><time>2026-05-03T10:31:25.084Z</time></trkpt><trkpt lat="36.7256563" lon="9.6647544"><ele>53.5</ele><time>2026-05-03T10:31:26.082Z</time></trkpt><trkpt lat="36.7255916" lon="9.6646179"><ele>53.25</ele><time>2026-05-03T10:31:27.081Z</time></trkpt><trkpt lat="36.7255305" lon="9.6644852"><ele>53.0</ele><time>2026-05-03T10:31:28.094Z</time></trkpt><trkpt lat="36.7254669" lon="9.6643473"><ele>53.4</ele><time>2026-05-03T10:31:29.087Z</time></trkpt><trkpt lat="36.7254098" lon="9.6642203"><ele>53.8</ele><time>2026-05-03T10:31:30.087Z</time></trkpt><trkpt lat="36.7253559" lon="9.6641007"><ele>54.2</ele><time>2026-05-03T10:31:31.067Z</time></trkpt><trkpt lat="36.7253143" lon="9.6640028"><ele>54.6</ele><time>2026-05-03T10:31:32.091Z</time></trkpt><trkpt lat="36.7252738" lon="9.663913"><ele>55.0</ele><time>2026-05-03T10:31:33.102Z</time></trkpt><trkpt lat="36.7252309" lon="9.6638234"><ele>54.8</ele><time>2026-05-03T10:31:34.103Z</time></trkpt><trkpt lat="36.7251886" lon="9.6637361"><ele>54.6</ele><time>2026-05-03T10:31:35.09Z</time></trkpt><trkpt lat="36.7251406" lon="9.6636377"><ele>54.400000000000006</ele><time>2026-05-03T10:31:36.09Z</time></trkpt><trkpt lat="36.725085" lon="9.6635122"><ele>54.2</ele><time>2026-05-03T10:31:37.108Z</time></trkpt><trkpt lat="36.725013" lon="9.6633804"><ele>54.0</ele><time>2026-05-03T10:31:38.082Z</time></trkpt><trkpt lat="36.724941" lon="9.6632385"><ele>54.0</ele><time>2026-05-03T10:31:39.039Z</time></trkpt><trkpt lat="36.7248711" lon="9.6630756"><ele>54.0</ele><time>2026-05-03T10:31:40.066Z</time></trkpt><trkpt lat="36.7247956" lon="9.6629094"><ele>54.0</ele><time>2026-05-03T10:31:41.057Z</time></trkpt><trkpt lat="36.7247219" lon="9.662738"><ele>53.66666666666667</ele><time>2026-05-03T10:31:42.089Z</time></trkpt><trkpt lat="36.7246518" lon="9.6625726"><ele>53.333333333333336</ele><time>2026-05-03T10:31:43.051Z</time></trkpt><trkpt lat="36.7245701" lon="9.6624043"><ele>53.0</ele><time>2026-05-03T10:31:44.099Z</time></trkpt><trkpt lat="36.7244836" lon="9.6622321"><ele>52.66666666666667</ele><time>2026-05-03T10:31:45.064Z</time></trkpt><trkpt lat="36.7243961" lon="9.6620602"><ele>52.33333333333333</ele><time>2026-05-03T10:31:46.081Z</time></trkpt><trkpt lat="36.7243142" lon="9.6618873"><ele>52.0</ele><time>2026-05-03T10:31:47.083Z</time></trkpt><trkpt lat="36.7242302" lon="9.6617112"><ele>52.0</ele><time>2026-05-03T10:31:48.069Z</time></trkpt><trkpt lat="36.7241428" lon="9.6615357"><ele>52.0</ele><time>2026-05-03T10:31:49.061Z</time></trkpt><trkpt lat="36.7240536" lon="9.6613546"><ele>52.0</ele><time>2026-05-03T10:31:50.076Z</time></trkpt><trkpt lat="36.7239608" lon="9.6611692"><ele>52.0</ele><time>2026-05-03T10:31:51.052Z</time></trkpt><trkpt lat="36.7238715" lon="9.660987"><ele>52.0</ele><time>2026-05-03T10:31:52.087Z</time></trkpt><trkpt lat="36.7237812" lon="9.6608036"><ele>52.0</ele><time>2026-05-03T10:31:53.096Z</time></trkpt><trkpt lat="36.7236842" lon="9.6606177"><ele>52.0</ele><time>2026-05-03T10:31:54.086Z</time></trkpt><trkpt lat="36.723585" lon="9.6604353"><ele>52.0</ele><time>2026-05-03T10:31:55.094Z</time></trkpt><trkpt lat="36.7234824" lon="9.660254"><ele>52.0</ele><time>2026-05-03T10:31:56.085Z</time></trkpt><trkpt lat="36.7233776" lon="9.660074"><ele>52.0</ele><time>2026-05-03T10:31:57.085Z</time></trkpt><trkpt lat="36.7232688" lon="9.659897"><ele>52.0</ele><time>2026-05-03T10:31:58.089Z</time></trkpt><trkpt lat="36.7231559" lon="9.6597112"><ele>52.0</ele><time>2026-05-03T10:31:59.073Z</time></trkpt><trkpt lat="36.7230433" lon="9.6595208"><ele>51.666666666666664</ele><time>2026-05-03T10:32:00.089Z</time></trkpt><trkpt lat="36.7229324" lon="9.6593356"><ele>51.33333333333333</ele><time>2026-05-03T10:32:01.085Z</time></trkpt><trkpt lat="36.7228213" lon="9.659161"><ele>51.0</ele><time>2026-05-03T10:32:02.084Z</time></trkpt><trkpt lat="36.7227068" lon="9.6589931"><ele>51.0</ele><time>2026-05-03T10:32:03.089Z</time></trkpt><trkpt lat="36.7225938" lon="9.6588288"><ele>51.0</ele><time>2026-05-03T10:32:04.076Z</time></trkpt><trkpt lat="36.7224881" lon="9.6586703"><ele>51.0</ele><time>2026-05-03T10:32:05.089Z</time></trkpt><trkpt lat="36.7223859" lon="9.6585133"><ele>52.33333333333333</ele><time>2026-05-03T10:32:06.08Z</time></trkpt><trkpt lat="36.7222815" lon="9.6583578"><ele>53.666666666666664</ele><time>2026-05-03T10:32:07.086Z</time></trkpt><trkpt lat="36.7221731" lon="9.6582134"><ele>55.0</ele><time>2026-05-03T10:32:08.085Z</time></trkpt><trkpt lat="36.7220634" lon="9.6580697"><ele>55.0</ele><time>2026-05-03T10:32:09.085Z</time></trkpt><trkpt lat="36.7219542" lon="9.6579379"><ele>55.0</ele><time>2026-05-03T10:32:10.086Z</time></trkpt><trkpt lat="36.7218334" lon="9.6578007"><ele>55.0</ele><time>2026-05-03T10:32:11.086Z</time></trkpt><trkpt lat="36.7217001" lon="9.6576614"><ele>55.0</ele><time>2026-05-03T10:32:12.076Z</time></trkpt><trkpt lat="36.7215625" lon="9.6575266"><ele>55.0</ele><time>2026-05-03T10:32:13.088Z</time></trkpt><trkpt lat="36.7214216" lon="9.6573931"><ele>55.0</ele><time>2026-05-03T10:32:14.08Z</time></trkpt><trkpt lat="36.7212794" lon="9.6572568"><ele>55.0</ele><time>2026-05-03T10:32:15.083Z</time></trkpt><trkpt lat="36.7211373" lon="9.6571159"><ele>55.0</ele><time>2026-05-03T10:32:16.054Z</time></trkpt><trkpt lat="36.7209912" lon="9.6569722"><ele>55.0</ele><time>2026-05-03T10:32:17.086Z</time></trkpt><trkpt lat="36.7208398" lon="9.65683"><ele>55.0</ele><time>2026-05-03T10:32:18.072Z</time></trkpt><trkpt lat="36.7206939" lon="9.6566866"><ele>55.0</ele><time>2026-05-03T10:32:19.079Z</time></trkpt><trkpt lat="36.7205464" lon="9.6565411"><ele>55.0</ele><time>2026-05-03T10:32:20.088Z</time></trkpt><trkpt lat="36.7203943" lon="9.6563949"><ele>55.0</ele><time>2026-05-03T10:32:21.068Z</time></trkpt><trkpt lat="36.7202433" lon="9.6562422"><ele>55.0</ele><time>2026-05-03T10:32:22.079Z</time></trkpt><trkpt lat="36.7200878" lon="9.6560898"><ele>55.0</ele><time>2026-05-03T10:32:23.1Z</time></trkpt><trkpt lat="36.7199341" lon="9.6559375"><ele>54.0</ele><time>2026-05-03T10:32:24.066Z</time></trkpt><trkpt lat="36.7197797" lon="9.6557827"><ele>53.0</ele><time>2026-05-03T10:32:25.091Z</time></trkpt><trkpt lat="36.7196223" lon="9.6556314"><ele>52.0</ele><time>2026-05-03T10:32:26.078Z</time></trkpt><trkpt lat="36.7194646" lon="9.6554766"><ele>52.0</ele><time>2026-05-03T10:32:27.074Z</time></trkpt><trkpt lat="36.7193037" lon="9.6553132"><ele>52.0</ele><time>2026-05-03T10:32:28.085Z</time></trkpt><trkpt lat="36.7191439" lon="9.6551587"><ele>52.0</ele><time>2026-05-03T10:32:29.067Z</time></trkpt><trkpt lat="36.7189869" lon="9.6549988"><ele>52.0</ele><time>2026-05-03T10:32:30.083Z</time></trkpt><trkpt lat="36.7188249" lon="9.6548353"><ele>52.0</ele><time>2026-05-03T10:32:31.083Z</time></trkpt><trkpt lat="36.7186596" lon="9.6546766"><ele>52.0</ele><time>2026-05-03T10:32:32.075Z</time></trkpt><trkpt lat="36.718496" lon="9.6545148"><ele>52.666666666666664</ele><time>2026-05-03T10:32:33.094Z</time></trkpt><trkpt lat="36.7183247" lon="9.6543496"><ele>53.33333333333333</ele><time>2026-05-03T10:32:34.088Z</time></trkpt><trkpt lat="36.7181581" lon="9.6541874"><ele>54.0</ele><time>2026-05-03T10:32:35.082Z</time></trkpt><trkpt lat="36.7179881" lon="9.654025"><ele>54.0</ele><time>2026-05-03T10:32:36.095Z</time></trkpt><trkpt lat="36.7178235" lon="9.6538618"><ele>54.0</ele><time>2026-05-03T10:32:37.078Z</time></trkpt><trkpt lat="36.7176645" lon="9.6537038"><ele>54.0</ele><time>2026-05-03T10:32:38.083Z</time></trkpt><trkpt lat="36.7175049" lon="9.6535385"><ele>54.0</ele><time>2026-05-03T10:32:39.057Z</time></trkpt><trkpt lat="36.7173461" lon="9.6533806"><ele>54.0</ele><time>2026-05-03T10:32:40.074Z</time></trkpt><trkpt lat="36.7171829" lon="9.6532266"><ele>54.0</ele><time>2026-05-03T10:32:41.086Z</time></trkpt><trkpt lat="36.7170185" lon="9.6530731"><ele>54.33333333333333</ele><time>2026-05-03T10:32:42.075Z</time></trkpt><trkpt lat="36.7168615" lon="9.6529236"><ele>54.666666666666664</ele><time>2026-05-03T10:32:43.095Z</time></trkpt><trkpt lat="36.7167167" lon="9.6527771"><ele>55.0</ele><time>2026-05-03T10:32:44.076Z</time></trkpt><trkpt lat="36.7165848" lon="9.6526494"><ele>55.25</ele><time>2026-05-03T10:32:45.049Z</time></trkpt><trkpt lat="36.7164692" lon="9.6525268"><ele>55.5</ele><time>2026-05-03T10:32:46.078Z</time></trkpt><trkpt lat="36.7163566" lon="9.6524154"><ele>55.75</ele><time>2026-05-03T10:32:47.098Z</time></trkpt><trkpt lat="36.7162514" lon="9.6523046"><ele>56.0</ele><time>2026-05-03T10:32:48.093Z</time></trkpt><trkpt lat="36.7161479" lon="9.6521962"><ele>55.66666666666667</ele><time>2026-05-03T10:32:49.079Z</time></trkpt><trkpt lat="36.7160343" lon="9.6520767"><ele>55.33333333333333</ele><time>2026-05-03T10:32:50.093Z</time></trkpt><trkpt lat="36.7159182" lon="9.6519493"><ele>55.0</ele><time>2026-05-03T10:32:51.091Z</time></trkpt><trkpt lat="36.7157974" lon="9.6518149"><ele>55.666666666666664</ele><time>2026-05-03T10:32:52.066Z</time></trkpt><trkpt lat="36.7156724" lon="9.6516639"><ele>56.33333333333333</ele><time>2026-05-03T10:32:53.07Z</time></trkpt><trkpt lat="36.7155514" lon="9.6514928"><ele>57.0</ele><time>2026-05-03T10:32:54.084Z</time></trkpt><trkpt lat="36.7154296" lon="9.6513185"><ele>57.0</ele><time>2026-05-03T10:32:55.085Z</time></trkpt><trkpt lat="36.7152945" lon="9.6511317"><ele>57.0</ele><time>2026-05-03T10:32:56.057Z</time></trkpt><trkpt lat="36.7151456" lon="9.6509332"><ele>57.0</ele><time>2026-05-03T10:32:57.081Z</time></trkpt><trkpt lat="36.7149945" lon="9.6507408"><ele>57.33333333333333</ele><time>2026-05-03T10:32:58.078Z</time></trkpt><trkpt lat="36.7148514" lon="9.650548"><ele>57.666666666666664</ele><time>2026-05-03T10:32:59.08Z</time></trkpt><trkpt lat="36.7147144" lon="9.6503674"><ele>58.0</ele><time>2026-05-03T10:33:00.086Z</time></trkpt><trkpt lat="36.71458" lon="9.6501919"><ele>58.0</ele><time>2026-05-03T10:33:01.052Z</time></trkpt><trkpt lat="36.7144495" lon="9.6500152"><ele>58.0</ele><time>2026-05-03T10:33:02.091Z</time></trkpt><trkpt lat="36.7143201" lon="9.6498446"><ele>58.0</ele><time>2026-05-03T10:33:03.096Z</time></trkpt><trkpt lat="36.7141894" lon="9.6496705"><ele>58.0</ele><time>2026-05-03T10:33:04.106Z</time></trkpt><trkpt lat="36.7140563" lon="9.6495026"><ele>58.0</ele><time>2026-05-03T10:33:05.076Z</time></trkpt><trkpt lat="36.7139268" lon="9.6493343"><ele>58.0</ele><time>2026-05-03T10:33:06.073Z</time></trkpt><trkpt lat="36.7137962" lon="9.6491608"><ele>58.33333333333333</ele><time>2026-05-03T10:33:07.047Z</time></trkpt><trkpt lat="36.7136653" lon="9.6489885"><ele>58.66666666666667</ele><time>2026-05-03T10:33:08.086Z</time></trkpt><trkpt lat="36.7135377" lon="9.6488147"><ele>59.0</ele><time>2026-05-03T10:33:09.079Z</time></trkpt><trkpt lat="36.7134054" lon="9.6486372"><ele>59.333333333333336</ele><time>2026-05-03T10:33:10.09Z</time></trkpt><trkpt lat="36.7132719" lon="9.6484615"><ele>59.66666666666667</ele><time>2026-05-03T10:33:11.105Z</time></trkpt><trkpt lat="36.7131393" lon="9.6482829"><ele>60.0</ele><time>2026-05-03T10:33:12.041Z</time></trkpt><trkpt lat="36.7130006" lon="9.6481051"><ele>60.0</ele><time>2026-05-03T10:33:13.039Z</time></trkpt><trkpt lat="36.7128645" lon="9.6479262"><ele>60.0</ele><time>2026-05-03T10:33:14.082Z</time></trkpt><trkpt lat="36.7127273" lon="9.6477549"><ele>60.0</ele><time>2026-05-03T10:33:15.073Z</time></trkpt><trkpt lat="36.7125863" lon="9.6475685"><ele>60.0</ele><time>2026-05-03T10:33:16.089Z</time></trkpt><trkpt lat="36.7124421" lon="9.6473794"><ele>60.0</ele><time>2026-05-03T10:33:17.07Z</time></trkpt><trkpt lat="36.7122964" lon="9.6471859"><ele>60.0</ele><time>2026-05-03T10:33:18.085Z</time></trkpt><trkpt lat="36.7121528" lon="9.6469945"><ele>60.66666666666667</ele><time>2026-05-03T10:33:19.086Z</time></trkpt><trkpt lat="36.7120117" lon="9.6468079"><ele>61.333333333333336</ele><time>2026-05-03T10:33:20.04Z</time></trkpt><trkpt lat="36.7118716" lon="9.6466225"><ele>62.0</ele><time>2026-05-03T10:33:21.037Z</time></trkpt><trkpt lat="36.7117291" lon="9.646442"><ele>62.0</ele><time>2026-05-03T10:33:22.041Z</time></trkpt><trkpt lat="36.7115889" lon="9.6462654"><ele>62.0</ele><time>2026-05-03T10:33:23.034Z</time></trkpt><trkpt lat="36.711449" lon="9.6460816"><ele>62.0</ele><time>2026-05-03T10:33:24.035Z</time></trkpt><trkpt lat="36.711308" lon="9.6458981"><ele>62.66666666666667</ele><time>2026-05-03T10:33:25.062Z</time></trkpt><trkpt lat="36.7111692" lon="9.6457079"><ele>63.33333333333333</ele><time>2026-05-03T10:33:26.069Z</time></trkpt><trkpt lat="36.7110317" lon="9.6455284"><ele>64.0</ele><time>2026-05-03T10:33:27.069Z</time></trkpt><trkpt lat="36.7108912" lon="9.6453431"><ele>64.66666666666666</ele><time>2026-05-03T10:33:28.046Z</time></trkpt><trkpt lat="36.71075" lon="9.6451587"><ele>65.33333333333333</ele><time>2026-05-03T10:33:29.07Z</time></trkpt><trkpt lat="36.7106088" lon="9.6449733"><ele>66.0</ele><time>2026-05-03T10:33:30.07Z</time></trkpt><trkpt lat="36.710468" lon="9.6447905"><ele>66.0</ele><time>2026-05-03T10:33:31.059Z</time></trkpt><trkpt lat="36.7103191" lon="9.6446148"><ele>66.0</ele><time>2026-05-03T10:33:32.053Z</time></trkpt><trkpt lat="36.7101744" lon="9.6444345"><ele>66.0</ele><time>2026-05-03T10:33:33.057Z</time></trkpt><trkpt lat="36.7100318" lon="9.6442594"><ele>66.0</ele><time>2026-05-03T10:33:34.051Z</time></trkpt><trkpt lat="36.709889" lon="9.6440789"><ele>66.0</ele><time>2026-05-03T10:33:35.065Z</time></trkpt><trkpt lat="36.7097402" lon="9.6439001"><ele>66.0</ele><time>2026-05-03T10:33:36.072Z</time></trkpt><trkpt lat="36.7095946" lon="9.6437269"><ele>66.0</ele><time>2026-05-03T10:33:37.059Z</time></trkpt><trkpt lat="36.7094511" lon="9.6435549"><ele>66.0</ele><time>2026-05-03T10:33:38.06Z</time></trkpt><trkpt lat="36.7093071" lon="9.6433829"><ele>66.0</ele><time>2026-05-03T10:33:39.065Z</time></trkpt><trkpt lat="36.7091644" lon="9.6432077"><ele>65.66666666666667</ele><time>2026-05-03T10:33:40.067Z</time></trkpt><trkpt lat="36.7090184" lon="9.6430377"><ele>65.33333333333334</ele><time>2026-05-03T10:33:41.073Z</time></trkpt><trkpt lat="36.7088782" lon="9.6428574"><ele>65.0</ele><time>2026-05-03T10:33:42.054Z</time></trkpt><trkpt lat="36.708737" lon="9.6426888"><ele>65.0</ele><time>2026-05-03T10:33:43.054Z</time></trkpt><trkpt lat="36.7085998" lon="9.6425235"><ele>65.0</ele><time>2026-05-03T10:33:44.062Z</time></trkpt><trkpt lat="36.7084622" lon="9.642362"><ele>65.0</ele><time>2026-05-03T10:33:45.067Z</time></trkpt><trkpt lat="36.7083304" lon="9.6422021"><ele>65.66666666666667</ele><time>2026-05-03T10:33:46.059Z</time></trkpt><trkpt lat="36.7081957" lon="9.6420435"><ele>66.33333333333333</ele><time>2026-05-03T10:33:47.057Z</time></trkpt><trkpt lat="36.7080608" lon="9.6418878"><ele>67.0</ele><time>2026-05-03T10:33:48.058Z</time></trkpt><trkpt lat="36.7079239" lon="9.6417341"><ele>67.33333333333333</ele><time>2026-05-03T10:33:49.06Z</time></trkpt><trkpt lat="36.7077853" lon="9.6415811"><ele>67.66666666666667</ele><time>2026-05-03T10:33:50.066Z</time></trkpt><trkpt lat="36.7076333" lon="9.6414352"><ele>68.0</ele><time>2026-05-03T10:33:51.067Z</time></trkpt><trkpt lat="36.7074784" lon="9.641298"><ele>68.0</ele><time>2026-05-03T10:33:52.049Z</time></trkpt><trkpt lat="36.7073131" lon="9.6411692"><ele>68.0</ele><time>2026-05-03T10:33:53.071Z</time></trkpt><trkpt lat="36.707142" lon="9.6410488"><ele>68.0</ele><time>2026-05-03T10:33:54.089Z</time></trkpt><trkpt lat="36.7069595" lon="9.6409291"><ele>68.66666666666667</ele><time>2026-05-03T10:33:55.062Z</time></trkpt><trkpt lat="36.70676" lon="9.6408204"><ele>69.33333333333333</ele><time>2026-05-03T10:33:56.058Z</time></trkpt><trkpt lat="36.7065473" lon="9.6407127"><ele>70.0</ele><time>2026-05-03T10:33:57.057Z</time></trkpt><trkpt lat="36.7063091" lon="9.6406005"><ele>69.5</ele><time>2026-05-03T10:33:58.072Z</time></trkpt><trkpt lat="36.7060569" lon="9.6404762"><ele>69.0</ele><time>2026-05-03T10:33:59.064Z</time></trkpt><trkpt lat="36.7058057" lon="9.6403521"><ele>69.0</ele><time>2026-05-03T10:34:00.06Z</time></trkpt><trkpt lat="36.7055565" lon="9.6402253"><ele>69.0</ele><time>2026-05-03T10:34:01.064Z</time></trkpt><trkpt lat="36.7053203" lon="9.6401092"><ele>69.0</ele><time>2026-05-03T10:34:02.067Z</time></trkpt><trkpt lat="36.7051001" lon="9.6399993"><ele>69.0</ele><time>2026-05-03T10:34:03.066Z</time></trkpt><trkpt lat="36.7048925" lon="9.6398944"><ele>69.0</ele><time>2026-05-03T10:34:04.067Z</time></trkpt><trkpt lat="36.7046942" lon="9.6397953"><ele>69.0</ele><time>2026-05-03T10:34:05.063Z</time></trkpt><trkpt lat="36.7044938" lon="9.6396926"><ele>69.0</ele><time>2026-05-03T10:34:06.059Z</time></trkpt><trkpt lat="36.7042872" lon="9.6395936"><ele>69.0</ele><time>2026-05-03T10:34:07.059Z</time></trkpt><trkpt lat="36.7040852" lon="9.6394963"><ele>69.0</ele><time>2026-05-03T10:34:08.038Z</time></trkpt><trkpt lat="36.7038858" lon="9.6394017"><ele>69.0</ele><time>2026-05-03T10:34:09.052Z</time></trkpt><trkpt lat="36.7036882" lon="9.6393008"><ele>68.66666666666667</ele><time>2026-05-03T10:34:10.086Z</time></trkpt><trkpt lat="36.7034875" lon="9.6391968"><ele>68.33333333333334</ele><time>2026-05-03T10:34:11.063Z</time></trkpt><trkpt lat="36.7032917" lon="9.6390875"><ele>68.0</ele><time>2026-05-03T10:34:12.043Z</time></trkpt><trkpt lat="36.7031008" lon="9.6389689"><ele>68.0</ele><time>2026-05-03T10:34:13.061Z</time></trkpt><trkpt lat="36.702908" lon="9.6388326"><ele>68.0</ele><time>2026-05-03T10:34:14.064Z</time></trkpt><trkpt lat="36.7027167" lon="9.6386748"><ele>68.5</ele><time>2026-05-03T10:34:15.066Z</time></trkpt><trkpt lat="36.7025221" lon="9.6385001"><ele>69.0</ele><time>2026-05-03T10:34:16.074Z</time></trkpt><trkpt lat="36.7023117" lon="9.6383124"><ele>69.0</ele><time>2026-05-03T10:34:17.069Z</time></trkpt><trkpt lat="36.7021052" lon="9.6381209"><ele>69.0</ele><time>2026-05-03T10:34:18.068Z</time></trkpt><trkpt lat="36.7019014" lon="9.6379293"><ele>69.5</ele><time>2026-05-03T10:34:19.061Z</time></trkpt><trkpt lat="36.7017063" lon="9.6377445"><ele>70.0</ele><time>2026-05-03T10:34:20.068Z</time></trkpt><trkpt lat="36.701524" lon="9.6375667"><ele>70.0</ele><time>2026-05-03T10:34:21.067Z</time></trkpt><trkpt lat="36.7013471" lon="9.6374"><ele>70.0</ele><time>2026-05-03T10:34:22.058Z</time></trkpt><trkpt lat="36.7011715" lon="9.6372356"><ele>70.0</ele><time>2026-05-03T10:34:23.05Z</time></trkpt><trkpt lat="36.7009963" lon="9.63707"><ele>69.33333333333333</ele><time>2026-05-03T10:34:24.072Z</time></trkpt><trkpt lat="36.7008233" lon="9.6368985"><ele>68.66666666666667</ele><time>2026-05-03T10:34:25.06Z</time></trkpt><trkpt lat="36.7006434" lon="9.6367292"><ele>68.0</ele><time>2026-05-03T10:34:26.046Z</time></trkpt><trkpt lat="36.7004681" lon="9.636559"><ele>68.0</ele><time>2026-05-03T10:34:27.059Z</time></trkpt><trkpt lat="36.7002894" lon="9.6363945"><ele>68.0</ele><time>2026-05-03T10:34:28.073Z</time></trkpt><trkpt lat="36.7001152" lon="9.636229"><ele>68.0</ele><time>2026-05-03T10:34:29.059Z</time></trkpt><trkpt lat="36.6999422" lon="9.6360654"><ele>67.66666666666667</ele><time>2026-05-03T10:34:30.037Z</time></trkpt><trkpt lat="36.6997664" lon="9.6359094"><ele>67.33333333333333</ele><time>2026-05-03T10:34:31.06Z</time></trkpt><trkpt lat="36.6995929" lon="9.6357551"><ele>67.0</ele><time>2026-05-03T10:34:32.059Z</time></trkpt><trkpt lat="36.6994237" lon="9.63559"><ele>66.0</ele><time>2026-05-03T10:34:33.062Z</time></trkpt><trkpt lat="36.699251" lon="9.6354175"><ele>65.0</ele><time>2026-05-03T10:34:34.053Z</time></trkpt><trkpt lat="36.6990767" lon="9.6352492"><ele>64.0</ele><time>2026-05-03T10:34:35.068Z</time></trkpt><trkpt lat="36.6989038" lon="9.6350845"><ele>64.0</ele><time>2026-05-03T10:34:36.046Z</time></trkpt><trkpt lat="36.698733" lon="9.6349227"><ele>64.0</ele><time>2026-05-03T10:34:37.06Z</time></trkpt><trkpt lat="36.6985649" lon="9.6347652"><ele>64.0</ele><time>2026-05-03T10:34:38.074Z</time></trkpt><trkpt lat="36.6983979" lon="9.6346033"><ele>63.666666666666664</ele><time>2026-05-03T10:34:39.079Z</time></trkpt><trkpt lat="36.6982316" lon="9.6344366"><ele>63.33333333333333</ele><time>2026-05-03T10:34:40.054Z</time></trkpt><trkpt lat="36.6980614" lon="9.6342748"><ele>63.0</ele><time>2026-05-03T10:34:41.065Z</time></trkpt><trkpt lat="36.6978949" lon="9.6341215"><ele>62.33333333333333</ele><time>2026-05-03T10:34:42.077Z</time></trkpt><trkpt lat="36.697727" lon="9.633965"><ele>61.666666666666664</ele><time>2026-05-03T10:34:43.062Z</time></trkpt><trkpt lat="36.6975602" lon="9.6338071"><ele>61.0</ele><time>2026-05-03T10:34:44.036Z</time></trkpt><trkpt lat="36.6973964" lon="9.633651"><ele>61.666666666666664</ele><time>2026-05-03T10:34:45.055Z</time></trkpt><trkpt lat="36.6972372" lon="9.6334842"><ele>62.33333333333333</ele><time>2026-05-03T10:34:46.049Z</time></trkpt><trkpt lat="36.6970773" lon="9.6333131"><ele>63.0</ele><time>2026-05-03T10:34:47.081Z</time></trkpt><trkpt lat="36.6969233" lon="9.6331337"><ele>63.33333333333333</ele><time>2026-05-03T10:34:48.068Z</time></trkpt><trkpt lat="36.6967635" lon="9.6329533"><ele>63.666666666666664</ele><time>2026-05-03T10:34:49.065Z</time></trkpt><trkpt lat="36.6965992" lon="9.6327638"><ele>64.0</ele><time>2026-05-03T10:34:50.069Z</time></trkpt><trkpt lat="36.6964413" lon="9.6325718"><ele>64.0</ele><time>2026-05-03T10:34:51.048Z</time></trkpt><trkpt lat="36.6962845" lon="9.6323797"><ele>64.0</ele><time>2026-05-03T10:34:52.062Z</time></trkpt><trkpt lat="36.6961285" lon="9.6321882"><ele>64.0</ele><time>2026-05-03T10:34:53.058Z</time></trkpt><trkpt lat="36.6959782" lon="9.6320049"><ele>64.33333333333333</ele><time>2026-05-03T10:34:54.07Z</time></trkpt><trkpt lat="36.6958315" lon="9.6318216"><ele>64.66666666666667</ele><time>2026-05-03T10:34:55.069Z</time></trkpt><trkpt lat="36.6956882" lon="9.631636"><ele>65.0</ele><time>2026-05-03T10:34:56.068Z</time></trkpt><trkpt lat="36.6955485" lon="9.6314554"><ele>65.0</ele><time>2026-05-03T10:34:57.05Z</time></trkpt><trkpt lat="36.6954066" lon="9.6312712"><ele>65.0</ele><time>2026-05-03T10:34:58.072Z</time></trkpt><trkpt lat="36.6952649" lon="9.6310847"><ele>65.0</ele><time>2026-05-03T10:34:59.045Z</time></trkpt><trkpt lat="36.6951243" lon="9.6309031"><ele>64.66666666666667</ele><time>2026-05-03T10:35:00.063Z</time></trkpt><trkpt lat="36.6949876" lon="9.6307227"><ele>64.33333333333333</ele><time>2026-05-03T10:35:01.053Z</time></trkpt><trkpt lat="36.6948519" lon="9.6305426"><ele>64.0</ele><time>2026-05-03T10:35:02.063Z</time></trkpt><trkpt lat="36.69471" lon="9.63036"><ele>64.0</ele><time>2026-05-03T10:35:03.048Z</time></trkpt><trkpt lat="36.6945611" lon="9.6301748"><ele>64.0</ele><time>2026-05-03T10:35:04.064Z</time></trkpt><trkpt lat="36.6944124" lon="9.6299872"><ele>64.0</ele><time>2026-05-03T10:35:05.071Z</time></trkpt><trkpt lat="36.694264" lon="9.6297944"><ele>64.0</ele><time>2026-05-03T10:35:06.079Z</time></trkpt><trkpt lat="36.6941147" lon="9.6296006"><ele>64.0</ele><time>2026-05-03T10:35:07.076Z</time></trkpt><trkpt lat="36.6939654" lon="9.6294055"><ele>64.0</ele><time>2026-05-03T10:35:08.071Z</time></trkpt><trkpt lat="36.6938129" lon="9.6292161"><ele>64.0</ele><time>2026-05-03T10:35:09.035Z</time></trkpt><trkpt lat="36.6936595" lon="9.6290247"><ele>64.0</ele><time>2026-05-03T10:35:10.068Z</time></trkpt><trkpt lat="36.6935071" lon="9.6288311"><ele>64.0</ele><time>2026-05-03T10:35:11.077Z</time></trkpt><trkpt lat="36.6933566" lon="9.628641"><ele>64.0</ele><time>2026-05-03T10:35:12.068Z</time></trkpt><trkpt lat="36.6932062" lon="9.6284584"><ele>64.0</ele><time>2026-05-03T10:35:13.067Z</time></trkpt><trkpt lat="36.6930581" lon="9.6282742"><ele>64.0</ele><time>2026-05-03T10:35:14.065Z</time></trkpt><trkpt lat="36.6929147" lon="9.6281035"><ele>64.0</ele><time>2026-05-03T10:35:15.065Z</time></trkpt><trkpt lat="36.6927823" lon="9.6279314"><ele>64.0</ele><time>2026-05-03T10:35:16.067Z</time></trkpt><trkpt lat="36.6926603" lon="9.6277624"><ele>64.0</ele><time>2026-05-03T10:35:17.066Z</time></trkpt><trkpt lat="36.6925503" lon="9.6275976"><ele>63.666666666666664</ele><time>2026-05-03T10:35:18.053Z</time></trkpt><trkpt lat="36.6924501" lon="9.6274199"><ele>63.33333333333333</ele><time>2026-05-03T10:35:19.06Z</time></trkpt><trkpt lat="36.6923556" lon="9.6272288"><ele>63.0</ele><time>2026-05-03T10:35:20.063Z</time></trkpt><trkpt lat="36.6922708" lon="9.6270187"><ele>63.0</ele><time>2026-05-03T10:35:21.067Z</time></trkpt><trkpt lat="36.6921929" lon="9.6267963"><ele>63.0</ele><time>2026-05-03T10:35:22.055Z</time></trkpt><trkpt lat="36.6921185" lon="9.626567"><ele>63.0</ele><time>2026-05-03T10:35:23.044Z</time></trkpt><trkpt lat="36.6920421" lon="9.6263367"><ele>63.33333333333333</ele><time>2026-05-03T10:35:24.048Z</time></trkpt><trkpt lat="36.6919644" lon="9.6261092"><ele>63.666666666666664</ele><time>2026-05-03T10:35:25.065Z</time></trkpt><trkpt lat="36.6918863" lon="9.6258806"><ele>64.0</ele><time>2026-05-03T10:35:26.06Z</time></trkpt><trkpt lat="36.6918122" lon="9.6256525"><ele>63.666666666666664</ele><time>2026-05-03T10:35:27.066Z</time></trkpt><trkpt lat="36.6917377" lon="9.6254224"><ele>63.33333333333333</ele><time>2026-05-03T10:35:28.063Z</time></trkpt><trkpt lat="36.6916663" lon="9.6251997"><ele>63.0</ele><time>2026-05-03T10:35:29.056Z</time></trkpt><trkpt lat="36.691592" lon="9.6249802"><ele>63.0</ele><time>2026-05-03T10:35:30.072Z</time></trkpt><trkpt lat="36.6915181" lon="9.624765"><ele>63.0</ele><time>2026-05-03T10:35:31.051Z</time></trkpt><trkpt lat="36.691448" lon="9.62455"><ele>63.0</ele><time>2026-05-03T10:35:32.042Z</time></trkpt><trkpt lat="36.69138" lon="9.6243367"><ele>63.33333333333333</ele><time>2026-05-03T10:35:33.06Z</time></trkpt><trkpt lat="36.6913101" lon="9.624123"><ele>63.666666666666664</ele><time>2026-05-03T10:35:34.079Z</time></trkpt><trkpt lat="36.6912397" lon="9.623912"><ele>64.0</ele><time>2026-05-03T10:35:35.062Z</time></trkpt><trkpt lat="36.6911679" lon="9.6237017"><ele>64.33333333333333</ele><time>2026-05-03T10:35:36.079Z</time></trkpt><trkpt lat="36.6910957" lon="9.6234897"><ele>64.66666666666667</ele><time>2026-05-03T10:35:37.073Z</time></trkpt><trkpt lat="36.6910246" lon="9.6232816"><ele>65.0</ele><time>2026-05-03T10:35:38.063Z</time></trkpt><trkpt lat="36.6909523" lon="9.6230698"><ele>64.0</ele><time>2026-05-03T10:35:39.063Z</time></trkpt><trkpt lat="36.6908788" lon="9.6228624"><ele>63.0</ele><time>2026-05-03T10:35:40.069Z</time></trkpt><trkpt lat="36.6908052" lon="9.6226536"><ele>62.0</ele><time>2026-05-03T10:35:41.075Z</time></trkpt><trkpt lat="36.6907268" lon="9.6224395"><ele>62.0</ele><time>2026-05-03T10:35:42.063Z</time></trkpt><trkpt lat="36.6906451" lon="9.6222203"><ele>62.0</ele><time>2026-05-03T10:35:43.072Z</time></trkpt><trkpt lat="36.6905635" lon="9.6219902"><ele>62.0</ele><time>2026-05-03T10:35:44.058Z</time></trkpt><trkpt lat="36.6904832" lon="9.6217696"><ele>62.0</ele><time>2026-05-03T10:35:45.071Z</time></trkpt><trkpt lat="36.6903971" lon="9.6215574"><ele>62.0</ele><time>2026-05-03T10:35:46.06Z</time></trkpt><trkpt lat="36.6902841" lon="9.6213482"><ele>62.0</ele><time>2026-05-03T10:35:47.066Z</time></trkpt><trkpt lat="36.6901491" lon="9.6211282"><ele>62.0</ele><time>2026-05-03T10:35:48.068Z</time></trkpt><trkpt lat="36.6899834" lon="9.6209008"><ele>62.0</ele><time>2026-05-03T10:35:49.056Z</time></trkpt><trkpt lat="36.689804" lon="9.6206592"><ele>62.0</ele><time>2026-05-03T10:35:50.05Z</time></trkpt><trkpt lat="36.6896155" lon="9.6204158"><ele>62.0</ele><time>2026-05-03T10:35:51.064Z</time></trkpt><trkpt lat="36.6894435" lon="9.6201842"><ele>60.0</ele><time>2026-05-03T10:35:52.078Z</time></trkpt><trkpt lat="36.689276" lon="9.6199521"><ele>58.0</ele><time>2026-05-03T10:35:53.066Z</time></trkpt><trkpt lat="36.6891117" lon="9.6197312"><ele>58.0</ele><time>2026-05-03T10:35:54.053Z</time></trkpt><trkpt lat="36.6889516" lon="9.6195168"><ele>58.0</ele><time>2026-05-03T10:35:55.05Z</time></trkpt><trkpt lat="36.6887974" lon="9.6193067"><ele>58.5</ele><time>2026-05-03T10:35:56.058Z</time></trkpt><trkpt lat="36.68864" lon="9.6191028"><ele>59.0</ele><time>2026-05-03T10:35:57.071Z</time></trkpt><trkpt lat="36.6884874" lon="9.6188946"><ele>59.0</ele><time>2026-05-03T10:35:58.071Z</time></trkpt><trkpt lat="36.6883329" lon="9.6186872"><ele>59.0</ele><time>2026-05-03T10:35:59.059Z</time></trkpt><trkpt lat="36.6881779" lon="9.6184788"><ele>59.0</ele><time>2026-05-03T10:36:00.061Z</time></trkpt><trkpt lat="36.6880277" lon="9.6182781"><ele>59.0</ele><time>2026-05-03T10:36:01.071Z</time></trkpt><trkpt lat="36.6878722" lon="9.6180762"><ele>59.0</ele><time>2026-05-03T10:36:02.065Z</time></trkpt><trkpt lat="36.6877134" lon="9.6178743"><ele>59.0</ele><time>2026-05-03T10:36:03.053Z</time></trkpt><trkpt lat="36.6875501" lon="9.6176696"><ele>59.0</ele><time>2026-05-03T10:36:04.088Z</time></trkpt><trkpt lat="36.687371" lon="9.6174445"><ele>59.0</ele><time>2026-05-03T10:36:05.065Z</time></trkpt><trkpt lat="36.6871889" lon="9.617213"><ele>59.0</ele><time>2026-05-03T10:36:06.084Z</time></trkpt><trkpt lat="36.6870124" lon="9.61698"><ele>59.0</ele><time>2026-05-03T10:36:07.051Z</time></trkpt><trkpt lat="36.6868509" lon="9.6167507"><ele>59.0</ele><time>2026-05-03T10:36:08.073Z</time></trkpt><trkpt lat="36.6866995" lon="9.6165267"><ele>59.0</ele><time>2026-05-03T10:36:09.065Z</time></trkpt><trkpt lat="36.6865463" lon="9.6163044"><ele>59.0</ele><time>2026-05-03T10:36:10.065Z</time></trkpt><trkpt lat="36.6863922" lon="9.6160876"><ele>59.333333333333336</ele><time>2026-05-03T10:36:11.06Z</time></trkpt><trkpt lat="36.686244" lon="9.61588"><ele>59.66666666666667</ele><time>2026-05-03T10:36:12.086Z</time></trkpt><trkpt lat="36.6861016" lon="9.61568"><ele>60.0</ele><time>2026-05-03T10:36:13.073Z</time></trkpt><trkpt lat="36.6859614" lon="9.6154898"><ele>60.0</ele><time>2026-05-03T10:36:14.071Z</time></trkpt><trkpt lat="36.685814" lon="9.6152962"><ele>60.0</ele><time>2026-05-03T10:36:15.066Z</time></trkpt><trkpt lat="36.6856685" lon="9.6151016"><ele>60.0</ele><time>2026-05-03T10:36:16.071Z</time></trkpt><trkpt lat="36.6855268" lon="9.6149121"><ele>60.0</ele><time>2026-05-03T10:36:17.043Z</time></trkpt><trkpt lat="36.6853834" lon="9.6147244"><ele>60.0</ele><time>2026-05-03T10:36:18.048Z</time></trkpt><trkpt lat="36.6852414" lon="9.6145399"><ele>60.0</ele><time>2026-05-03T10:36:19.064Z</time></trkpt><trkpt lat="36.6851007" lon="9.614349"><ele>59.33333333333333</ele><time>2026-05-03T10:36:20.076Z</time></trkpt><trkpt lat="36.6849593" lon="9.6141546"><ele>58.666666666666664</ele><time>2026-05-03T10:36:21.067Z</time></trkpt><trkpt lat="36.6848217" lon="9.6139618"><ele>58.0</ele><time>2026-05-03T10:36:22.059Z</time></trkpt><trkpt lat="36.6846852" lon="9.6137787"><ele>58.0</ele><time>2026-05-03T10:36:23.061Z</time></trkpt><trkpt lat="36.6845521" lon="9.6135897"><ele>58.0</ele><time>2026-05-03T10:36:24.087Z</time></trkpt><trkpt lat="36.6844165" lon="9.6134025"><ele>58.0</ele><time>2026-05-03T10:36:25.067Z</time></trkpt><trkpt lat="36.6842808" lon="9.6132167"><ele>58.0</ele><time>2026-05-03T10:36:26.068Z</time></trkpt><trkpt lat="36.6841475" lon="9.6130333"><ele>58.0</ele><time>2026-05-03T10:36:27.075Z</time></trkpt><trkpt lat="36.684017" lon="9.6128587"><ele>58.0</ele><time>2026-05-03T10:36:28.064Z</time></trkpt><trkpt lat="36.6838849" lon="9.6126856"><ele>58.0</ele><time>2026-05-03T10:36:29.048Z</time></trkpt><trkpt lat="36.6837565" lon="9.6125165"><ele>58.0</ele><time>2026-05-03T10:36:30.051Z</time></trkpt><trkpt lat="36.6836293" lon="9.6123479"><ele>58.0</ele><time>2026-05-03T10:36:31.063Z</time></trkpt><trkpt lat="36.6834935" lon="9.6121764"><ele>57.666666666666664</ele><time>2026-05-03T10:36:32.067Z</time></trkpt><trkpt lat="36.6833432" lon="9.6120219"><ele>57.33333333333333</ele><time>2026-05-03T10:36:33.065Z</time></trkpt><trkpt lat="36.683183" lon="9.6118683"><ele>57.0</ele><time>2026-05-03T10:36:34.061Z</time></trkpt><trkpt lat="36.6830116" lon="9.6117223"><ele>57.0</ele><time>2026-05-03T10:36:35.067Z</time></trkpt><trkpt lat="36.6828297" lon="9.6115712"><ele>57.0</ele><time>2026-05-03T10:36:36.049Z</time></trkpt><trkpt lat="36.682637" lon="9.6114244"><ele>57.0</ele><time>2026-05-03T10:36:37.063Z</time></trkpt><trkpt lat="36.6824393" lon="9.611277"><ele>56.5</ele><time>2026-05-03T10:36:38.066Z</time></trkpt><trkpt lat="36.6822409" lon="9.611135"><ele>56.0</ele><time>2026-05-03T10:36:39.058Z</time></trkpt><trkpt lat="36.6820495" lon="9.6109964"><ele>56.0</ele><time>2026-05-03T10:36:40.061Z</time></trkpt><trkpt lat="36.6818681" lon="9.610869"><ele>56.0</ele><time>2026-05-03T10:36:41.067Z</time></trkpt><trkpt lat="36.6816882" lon="9.6107395"><ele>56.0</ele><time>2026-05-03T10:36:42.084Z</time></trkpt><trkpt lat="36.6815066" lon="9.6106116"><ele>56.0</ele><time>2026-05-03T10:36:43.07Z</time></trkpt><trkpt lat="36.681332" lon="9.610485"><ele>56.0</ele><time>2026-05-03T10:36:44.073Z</time></trkpt><trkpt lat="36.6811562" lon="9.6103508"><ele>56.0</ele><time>2026-05-03T10:36:45.067Z</time></trkpt><trkpt lat="36.6809875" lon="9.6102265"><ele>55.66666666666667</ele><time>2026-05-03T10:36:46.071Z</time></trkpt><trkpt lat="36.6808223" lon="9.6101018"><ele>55.33333333333333</ele><time>2026-05-03T10:36:47.061Z</time></trkpt><trkpt lat="36.6806586" lon="9.6099863"><ele>55.0</ele><time>2026-05-03T10:36:48.073Z</time></trkpt><trkpt lat="36.680493" lon="9.6098669"><ele>55.0</ele><time>2026-05-03T10:36:49.062Z</time></trkpt><trkpt lat="36.6803291" lon="9.609749"><ele>55.0</ele><time>2026-05-03T10:36:50.083Z</time></trkpt><trkpt lat="36.6801686" lon="9.6096319"><ele>55.0</ele><time>2026-05-03T10:36:51.068Z</time></trkpt><trkpt lat="36.6800059" lon="9.6095141"><ele>55.33333333333333</ele><time>2026-05-03T10:36:52.053Z</time></trkpt><trkpt lat="36.6798399" lon="9.6093948"><ele>55.66666666666667</ele><time>2026-05-03T10:36:53.073Z</time></trkpt><trkpt lat="36.6796713" lon="9.6092797"><ele>56.0</ele><time>2026-05-03T10:36:54.057Z</time></trkpt><trkpt lat="36.6795016" lon="9.6091708"><ele>55.333333333333336</ele><time>2026-05-03T10:36:55.054Z</time></trkpt><trkpt lat="36.6793196" lon="9.6090749"><ele>54.66666666666667</ele><time>2026-05-03T10:36:56.06Z</time></trkpt><trkpt lat="36.6791248" lon="9.6090034"><ele>54.0</ele><time>2026-05-03T10:36:57.056Z</time></trkpt><trkpt lat="36.678923" lon="9.6089544"><ele>54.0</ele><time>2026-05-03T10:36:58.073Z</time></trkpt><trkpt lat="36.6787238" lon="9.6089224"><ele>54.0</ele><time>2026-05-03T10:36:59.074Z</time></trkpt><trkpt lat="36.6785231" lon="9.6088925"><ele>54.0</ele><time>2026-05-03T10:37:00.063Z</time></trkpt><trkpt lat="36.6783187" lon="9.6088623"><ele>54.0</ele><time>2026-05-03T10:37:01.055Z</time></trkpt><trkpt lat="36.6781206" lon="9.6088274"><ele>54.0</ele><time>2026-05-03T10:37:02.067Z</time></trkpt><trkpt lat="36.677923" lon="9.6087937"><ele>54.0</ele><time>2026-05-03T10:37:03.059Z</time></trkpt><trkpt lat="36.6777238" lon="9.6087579"><ele>54.33333333333333</ele><time>2026-05-03T10:37:04.091Z</time></trkpt><trkpt lat="36.6775252" lon="9.6087185"><ele>54.666666666666664</ele><time>2026-05-03T10:37:05.067Z</time></trkpt><trkpt lat="36.6773255" lon="9.6086776"><ele>55.0</ele><time>2026-05-03T10:37:06.074Z</time></trkpt><trkpt lat="36.6771266" lon="9.6086361"><ele>54.0</ele><time>2026-05-03T10:37:07.071Z</time></trkpt><trkpt lat="36.6769312" lon="9.6085958"><ele>53.0</ele><time>2026-05-03T10:37:08.083Z</time></trkpt><trkpt lat="36.6767281" lon="9.6085577"><ele>52.0</ele><time>2026-05-03T10:37:09.061Z</time></trkpt><trkpt lat="36.6765284" lon="9.6085165"><ele>52.0</ele><time>2026-05-03T10:37:10.046Z</time></trkpt><trkpt lat="36.6763273" lon="9.6084747"><ele>52.0</ele><time>2026-05-03T10:37:11.071Z</time></trkpt><trkpt lat="36.6761206" lon="9.6084323"><ele>52.0</ele><time>2026-05-03T10:37:12.081Z</time></trkpt><trkpt lat="36.6759121" lon="9.6083906"><ele>52.666666666666664</ele><time>2026-05-03T10:37:13.079Z</time></trkpt><trkpt lat="36.6757039" lon="9.60835"><ele>53.33333333333333</ele><time>2026-05-03T10:37:14.065Z</time></trkpt><trkpt lat="36.6754948" lon="9.608308"><ele>54.0</ele><time>2026-05-03T10:37:15.071Z</time></trkpt><trkpt lat="36.6752859" lon="9.6082663"><ele>54.0</ele><time>2026-05-03T10:37:16.074Z</time></trkpt><trkpt lat="36.6750768" lon="9.6082306"><ele>54.0</ele><time>2026-05-03T10:37:17.063Z</time></trkpt><trkpt lat="36.6748678" lon="9.6081935"><ele>54.0</ele><time>2026-05-03T10:37:18.063Z</time></trkpt><trkpt lat="36.6746619" lon="9.6081536"><ele>54.0</ele><time>2026-05-03T10:37:19.095Z</time></trkpt><trkpt lat="36.6744565" lon="9.6081162"><ele>54.0</ele><time>2026-05-03T10:37:20.064Z</time></trkpt><trkpt lat="36.6742537" lon="9.6080821"><ele>54.0</ele><time>2026-05-03T10:37:21.071Z</time></trkpt><trkpt lat="36.6740572" lon="9.6080459"><ele>54.0</ele><time>2026-05-03T10:37:22.068Z</time></trkpt><trkpt lat="36.673858" lon="9.6080097"><ele>54.0</ele><time>2026-05-03T10:37:23.066Z</time></trkpt><trkpt lat="36.6736599" lon="9.607972"><ele>54.0</ele><time>2026-05-03T10:37:24.065Z</time></trkpt><trkpt lat="36.673462" lon="9.6079376"><ele>54.0</ele><time>2026-05-03T10:37:25.062Z</time></trkpt><trkpt lat="36.6732702" lon="9.6078976"><ele>54.0</ele><time>2026-05-03T10:37:26.066Z</time></trkpt><trkpt lat="36.6730798" lon="9.60786"><ele>54.0</ele><time>2026-05-03T10:37:27.077Z</time></trkpt><trkpt lat="36.6728948" lon="9.607825"><ele>54.0</ele><time>2026-05-03T10:37:28.065Z</time></trkpt><trkpt lat="36.6727065" lon="9.6077934"><ele>54.0</ele><time>2026-05-03T10:37:29.053Z</time></trkpt><trkpt lat="36.6725187" lon="9.6077526"><ele>54.0</ele><time>2026-05-03T10:37:30.07Z</time></trkpt><trkpt lat="36.6723337" lon="9.6077143"><ele>54.0</ele><time>2026-05-03T10:37:31.071Z</time></trkpt><trkpt lat="36.6721463" lon="9.6076812"><ele>54.0</ele><time>2026-05-03T10:37:32.082Z</time></trkpt><trkpt lat="36.6719576" lon="9.6076525"><ele>54.0</ele><time>2026-05-03T10:37:33.069Z</time></trkpt><trkpt lat="36.6717699" lon="9.6076238"><ele>54.0</ele><time>2026-05-03T10:37:34.061Z</time></trkpt><trkpt lat="36.6715766" lon="9.6075925"><ele>54.0</ele><time>2026-05-03T10:37:35.063Z</time></trkpt><trkpt lat="36.6713822" lon="9.6075603"><ele>54.0</ele><time>2026-05-03T10:37:36.068Z</time></trkpt><trkpt lat="36.6711913" lon="9.6075221"><ele>54.33333333333333</ele><time>2026-05-03T10:37:37.065Z</time></trkpt><trkpt lat="36.6709909" lon="9.6074839"><ele>54.666666666666664</ele><time>2026-05-03T10:37:38.058Z</time></trkpt><trkpt lat="36.6707961" lon="9.607442"><ele>55.0</ele><time>2026-05-03T10:37:39.074Z</time></trkpt><trkpt lat="36.6706063" lon="9.6074087"><ele>55.0</ele><time>2026-05-03T10:37:40.067Z</time></trkpt><trkpt lat="36.6704181" lon="9.6073759"><ele>55.0</ele><time>2026-05-03T10:37:41.061Z</time></trkpt><trkpt lat="36.6702443" lon="9.6073588"><ele>55.0</ele><time>2026-05-03T10:37:42.079Z</time></trkpt><trkpt lat="36.6700763" lon="9.6073643"><ele>54.666666666666664</ele><time>2026-05-03T10:37:43.066Z</time></trkpt><trkpt lat="36.6699176" lon="9.6073832"><ele>54.33333333333333</ele><time>2026-05-03T10:37:44.048Z</time></trkpt><trkpt lat="36.6697595" lon="9.6074144"><ele>54.0</ele><time>2026-05-03T10:37:45.065Z</time></trkpt><trkpt lat="36.669613" lon="9.6074606"><ele>54.0</ele><time>2026-05-03T10:37:46.065Z</time></trkpt><trkpt lat="36.6694743" lon="9.6075037"><ele>54.0</ele><time>2026-05-03T10:37:47.044Z</time></trkpt><trkpt lat="36.6693411" lon="9.6075481"><ele>54.0</ele><time>2026-05-03T10:37:48.072Z</time></trkpt><trkpt lat="36.6692129" lon="9.6075893"><ele>54.0</ele><time>2026-05-03T10:37:49.06Z</time></trkpt><trkpt lat="36.669101" lon="9.6076339"><ele>54.0</ele><time>2026-05-03T10:37:50.065Z</time></trkpt><trkpt lat="36.6690054" lon="9.6076745"><ele>54.0</ele><time>2026-05-03T10:37:51.062Z</time></trkpt><trkpt lat="36.6689249" lon="9.6077143"><ele>54.0</ele><time>2026-05-03T10:37:52.048Z</time></trkpt><trkpt lat="36.6688615" lon="9.6077483"><ele>54.0</ele><time>2026-05-03T10:37:53.056Z</time></trkpt><trkpt lat="36.6687745" lon="9.6078153"><ele>54.0</ele><time>2026-05-03T10:37:55.059Z</time></trkpt><trkpt lat="36.6687273" lon="9.6078754"><ele>54.0</ele><time>2026-05-03T10:37:57.064Z</time></trkpt><trkpt lat="36.6686859" lon="9.6079607"><ele>54.0</ele><time>2026-05-03T10:38:01.068Z</time></trkpt><trkpt lat="36.6686608" lon="9.6080364"><ele>54.0</ele><time>2026-05-03T10:38:03.07Z</time></trkpt><trkpt lat="36.6686242" lon="9.6081256"><ele>54.0</ele><time>2026-05-03T10:38:05.05Z</time></trkpt><trkpt lat="36.6685976" lon="9.6082082"><ele>54.0</ele><time>2026-05-03T10:38:07.072Z</time></trkpt><trkpt lat="36.6685615" lon="9.6083067"><ele>54.0</ele><time>2026-05-03T10:38:09.048Z</time></trkpt><trkpt lat="36.668497" lon="9.6084371"><ele>54.0</ele><time>2026-05-03T10:38:11.067Z</time></trkpt><trkpt lat="36.6684563" lon="9.6084997"><ele>53.5</ele><time>2026-05-03T10:38:12.049Z</time></trkpt><trkpt lat="36.668403" lon="9.6085571"><ele>53.0</ele><time>2026-05-03T10:38:13.068Z</time></trkpt><trkpt lat="36.6683316" lon="9.6086056"><ele>52.5</ele><time>2026-05-03T10:38:14.059Z</time></trkpt><trkpt lat="36.6682599" lon="9.608624"><ele>52.0</ele><time>2026-05-03T10:38:15.054Z</time></trkpt><trkpt lat="36.6681835" lon="9.6086178"><ele>51.5</ele><time>2026-05-03T10:38:16.065Z</time></trkpt><trkpt lat="36.6681072" lon="9.6085892"><ele>51.0</ele><time>2026-05-03T10:38:17.06Z</time></trkpt><trkpt lat="36.6680254" lon="9.6085536"><ele>51.0</ele><time>2026-05-03T10:38:18.055Z</time></trkpt><trkpt lat="36.6679377" lon="9.6085121"><ele>51.0</ele><time>2026-05-03T10:38:19.063Z</time></trkpt><trkpt lat="36.6678454" lon="9.6084691"><ele>51.0</ele><time>2026-05-03T10:38:20.073Z</time></trkpt><trkpt lat="36.6677474" lon="9.6084243"><ele>51.0</ele><time>2026-05-03T10:38:21.079Z</time></trkpt><trkpt lat="36.6676493" lon="9.6083813"><ele>51.0</ele><time>2026-05-03T10:38:22.086Z</time></trkpt><trkpt lat="36.667546" lon="9.6083249"><ele>51.0</ele><time>2026-05-03T10:38:23.059Z</time></trkpt><trkpt lat="36.6674409" lon="9.6082674"><ele>51.0</ele><time>2026-05-03T10:38:24.048Z</time></trkpt><trkpt lat="36.6673343" lon="9.6082055"><ele>51.0</ele><time>2026-05-03T10:38:25.05Z</time></trkpt><trkpt lat="36.667231" lon="9.6081503"><ele>51.0</ele><time>2026-05-03T10:38:26.05Z</time></trkpt><trkpt lat="36.6671224" lon="9.6080959"><ele>51.0</ele><time>2026-05-03T10:38:27.079Z</time></trkpt><trkpt lat="36.6670075" lon="9.6080352"><ele>51.0</ele><time>2026-05-03T10:38:28.082Z</time></trkpt><trkpt lat="36.6668815" lon="9.6079718"><ele>51.0</ele><time>2026-05-03T10:38:29.073Z</time></trkpt><trkpt lat="36.6667613" lon="9.6079014"><ele>51.0</ele><time>2026-05-03T10:38:30.065Z</time></trkpt><trkpt lat="36.6666468" lon="9.6078424"><ele>51.5</ele><time>2026-05-03T10:38:31.051Z</time></trkpt><trkpt lat="36.6665361" lon="9.6077822"><ele>52.0</ele><time>2026-05-03T10:38:32.059Z</time></trkpt><trkpt lat="36.6664159" lon="9.6077173"><ele>52.5</ele><time>2026-05-03T10:38:33.083Z</time></trkpt><trkpt lat="36.6662934" lon="9.6076511"><ele>53.0</ele><time>2026-05-03T10:38:34.061Z</time></trkpt><trkpt lat="36.6661674" lon="9.6075882"><ele>52.75</ele><time>2026-05-03T10:38:35.056Z</time></trkpt><trkpt lat="36.6660378" lon="9.6075279"><ele>52.5</ele><time>2026-05-03T10:38:36.041Z</time></trkpt><trkpt lat="36.6659011" lon="9.60746"><ele>52.25</ele><time>2026-05-03T10:38:37.071Z</time></trkpt><trkpt lat="36.6657549" lon="9.6073991"><ele>52.0</ele><time>2026-05-03T10:38:38.058Z</time></trkpt><trkpt lat="36.665601" lon="9.6073408"><ele>52.0</ele><time>2026-05-03T10:38:39.062Z</time></trkpt><trkpt lat="36.6654348" lon="9.6072928"><ele>52.0</ele><time>2026-05-03T10:38:40.076Z</time></trkpt><trkpt lat="36.6652615" lon="9.6072488"><ele>52.0</ele><time>2026-05-03T10:38:41.069Z</time></trkpt><trkpt lat="36.6650969" lon="9.6072075"><ele>52.666666666666664</ele><time>2026-05-03T10:38:42.082Z</time></trkpt><trkpt lat="36.6649307" lon="9.6071687"><ele>53.33333333333333</ele><time>2026-05-03T10:38:43.074Z</time></trkpt><trkpt lat="36.6647657" lon="9.6071372"><ele>54.0</ele><time>2026-05-03T10:38:44.068Z</time></trkpt><trkpt lat="36.6645998" lon="9.6071026"><ele>53.33333333333333</ele><time>2026-05-03T10:38:45.053Z</time></trkpt><trkpt lat="36.6644405" lon="9.6070701"><ele>52.666666666666664</ele><time>2026-05-03T10:38:46.079Z</time></trkpt><trkpt lat="36.6642866" lon="9.6070428"><ele>52.0</ele><time>2026-05-03T10:38:47.04Z</time></trkpt><trkpt lat="36.6641353" lon="9.6070114"><ele>53.0</ele><time>2026-05-03T10:38:48.081Z</time></trkpt><trkpt lat="36.6639846" lon="9.6069776"><ele>54.0</ele><time>2026-05-03T10:38:49.07Z</time></trkpt><trkpt lat="36.6638331" lon="9.6069451"><ele>55.0</ele><time>2026-05-03T10:38:50.075Z</time></trkpt><trkpt lat="36.6636845" lon="9.6069151"><ele>54.666666666666664</ele><time>2026-05-03T10:38:51.051Z</time></trkpt><trkpt lat="36.6635288" lon="9.6068847"><ele>54.33333333333333</ele><time>2026-05-03T10:38:52.064Z</time></trkpt><trkpt lat="36.6633708" lon="9.6068542"><ele>54.0</ele><time>2026-05-03T10:38:53.069Z</time></trkpt><trkpt lat="36.6632086" lon="9.6068216"><ele>54.0</ele><time>2026-05-03T10:38:54.062Z</time></trkpt><trkpt lat="36.6630407" lon="9.6067825"><ele>54.0</ele><time>2026-05-03T10:38:55.057Z</time></trkpt><trkpt lat="36.6628767" lon="9.606752"><ele>54.0</ele><time>2026-05-03T10:38:56.074Z</time></trkpt><trkpt lat="36.662705" lon="9.6067166"><ele>53.33333333333333</ele><time>2026-05-03T10:38:57.064Z</time></trkpt><trkpt lat="36.6625294" lon="9.6066773"><ele>52.666666666666664</ele><time>2026-05-03T10:38:58.062Z</time></trkpt><trkpt lat="36.6623519" lon="9.60664"><ele>52.0</ele><time>2026-05-03T10:38:59.07Z</time></trkpt><trkpt lat="36.6621727" lon="9.6066026"><ele>52.0</ele><time>2026-05-03T10:39:00.068Z</time></trkpt><trkpt lat="36.6619924" lon="9.6065711"><ele>52.0</ele><time>2026-05-03T10:39:01.032Z</time></trkpt><trkpt lat="36.6618151" lon="9.606535"><ele>52.0</ele><time>2026-05-03T10:39:02.055Z</time></trkpt><trkpt lat="36.6616382" lon="9.6064993"><ele>51.0</ele><time>2026-05-03T10:39:03.057Z</time></trkpt><trkpt lat="36.6614658" lon="9.6064602"><ele>50.0</ele><time>2026-05-03T10:39:04.062Z</time></trkpt><trkpt lat="36.6612955" lon="9.6064241"><ele>49.0</ele><time>2026-05-03T10:39:05.067Z</time></trkpt><trkpt lat="36.6611294" lon="9.6063898"><ele>49.0</ele><time>2026-05-03T10:39:06.064Z</time></trkpt><trkpt lat="36.6609687" lon="9.606358"><ele>49.0</ele><time>2026-05-03T10:39:07.071Z</time></trkpt><trkpt lat="36.6608042" lon="9.6063262"><ele>49.0</ele><time>2026-05-03T10:39:08.065Z</time></trkpt><trkpt lat="36.6606354" lon="9.6062946"><ele>49.0</ele><time>2026-05-03T10:39:09.061Z</time></trkpt><trkpt lat="36.6604549" lon="9.6062591"><ele>49.0</ele><time>2026-05-03T10:39:10.05Z</time></trkpt><trkpt lat="36.6602774" lon="9.6062242"><ele>49.0</ele><time>2026-05-03T10:39:11.076Z</time></trkpt><trkpt lat="36.6601029" lon="9.606183"><ele>49.666666666666664</ele><time>2026-05-03T10:39:12.06Z</time></trkpt><trkpt lat="36.6599314" lon="9.6061437"><ele>50.33333333333333</ele><time>2026-05-03T10:39:13.063Z</time></trkpt><trkpt lat="36.6597581" lon="9.6061008"><ele>51.0</ele><time>2026-05-03T10:39:14.074Z</time></trkpt><trkpt lat="36.6595878" lon="9.6060521"><ele>50.66666666666667</ele><time>2026-05-03T10:39:15.071Z</time></trkpt><trkpt lat="36.6594188" lon="9.6059981"><ele>50.333333333333336</ele><time>2026-05-03T10:39:16.05Z</time></trkpt><trkpt lat="36.6592496" lon="9.6059335"><ele>50.0</ele><time>2026-05-03T10:39:17.07Z</time></trkpt><trkpt lat="36.6590821" lon="9.6058605"><ele>50.0</ele><time>2026-05-03T10:39:18.062Z</time></trkpt><trkpt lat="36.6589193" lon="9.6057818"><ele>50.0</ele><time>2026-05-03T10:39:19.072Z</time></trkpt><trkpt lat="36.658762" lon="9.6057"><ele>50.0</ele><time>2026-05-03T10:39:20.073Z</time></trkpt><trkpt lat="36.6586045" lon="9.6056179"><ele>49.333333333333336</ele><time>2026-05-03T10:39:21.056Z</time></trkpt><trkpt lat="36.6584475" lon="9.6055364"><ele>48.66666666666667</ele><time>2026-05-03T10:39:22.081Z</time></trkpt><trkpt lat="36.6582987" lon="9.6054607"><ele>48.0</ele><time>2026-05-03T10:39:23.069Z</time></trkpt><trkpt lat="36.6581456" lon="9.6053735"><ele>48.66666666666667</ele><time>2026-05-03T10:39:24.059Z</time></trkpt><trkpt lat="36.6580045" lon="9.605289"><ele>49.333333333333336</ele><time>2026-05-03T10:39:25.059Z</time></trkpt><trkpt lat="36.6578682" lon="9.6052026"><ele>50.0</ele><time>2026-05-03T10:39:26.058Z</time></trkpt><trkpt lat="36.6577387" lon="9.6051155"><ele>50.75</ele><time>2026-05-03T10:39:27.052Z</time></trkpt><trkpt lat="36.6576094" lon="9.6050389"><ele>51.5</ele><time>2026-05-03T10:39:28.066Z</time></trkpt><trkpt lat="36.6574736" lon="9.6049618"><ele>52.25</ele><time>2026-05-03T10:39:29.071Z</time></trkpt><trkpt lat="36.6573439" lon="9.6048865"><ele>53.0</ele><time>2026-05-03T10:39:30.076Z</time></trkpt><trkpt lat="36.657207" lon="9.6048021"><ele>53.0</ele><time>2026-05-03T10:39:31.063Z</time></trkpt><trkpt lat="36.65708" lon="9.6047183"><ele>53.0</ele><time>2026-05-03T10:39:32.067Z</time></trkpt><trkpt lat="36.6569529" lon="9.6046384"><ele>53.0</ele><time>2026-05-03T10:39:33.041Z</time></trkpt><trkpt lat="36.6568381" lon="9.6045629"><ele>53.0</ele><time>2026-05-03T10:39:34.042Z</time></trkpt><trkpt lat="36.656719" lon="9.6044867"><ele>53.0</ele><time>2026-05-03T10:39:35.058Z</time></trkpt><trkpt lat="36.6565937" lon="9.6044167"><ele>53.0</ele><time>2026-05-03T10:39:36.06Z</time></trkpt><trkpt lat="36.656469" lon="9.6043379"><ele>53.0</ele><time>2026-05-03T10:39:37.066Z</time></trkpt><trkpt lat="36.6563418" lon="9.6042615"><ele>53.0</ele><time>2026-05-03T10:39:38.038Z</time></trkpt><trkpt lat="36.6562156" lon="9.6041861"><ele>52.5</ele><time>2026-05-03T10:39:39.036Z</time></trkpt><trkpt lat="36.6560915" lon="9.6041084"><ele>52.0</ele><time>2026-05-03T10:39:40.06Z</time></trkpt><trkpt lat="36.655964" lon="9.6040286"><ele>51.5</ele><time>2026-05-03T10:39:41.059Z</time></trkpt><trkpt lat="36.6558301" lon="9.6039465"><ele>51.0</ele><time>2026-05-03T10:39:42.038Z</time></trkpt><trkpt lat="36.6556991" lon="9.6038683"><ele>51.0</ele><time>2026-05-03T10:39:43.037Z</time></trkpt><trkpt lat="36.6555663" lon="9.6037959"><ele>51.0</ele><time>2026-05-03T10:39:44.064Z</time></trkpt><trkpt lat="36.6554312" lon="9.6037251"><ele>51.0</ele><time>2026-05-03T10:39:45.052Z</time></trkpt><trkpt lat="36.6552974" lon="9.6036599"><ele>51.0</ele><time>2026-05-03T10:39:46.056Z</time></trkpt><trkpt lat="36.655159" lon="9.6035889"><ele>51.25</ele><time>2026-05-03T10:39:47.061Z</time></trkpt><trkpt lat="36.6550238" lon="9.6035219"><ele>51.5</ele><time>2026-05-03T10:39:48.063Z</time></trkpt><trkpt lat="36.6548901" lon="9.603457"><ele>51.75</ele><time>2026-05-03T10:39:49.027Z</time></trkpt><trkpt lat="36.654755" lon="9.6033928"><ele>52.0</ele><time>2026-05-03T10:39:50.071Z</time></trkpt><trkpt lat="36.6546209" lon="9.6033251"><ele>52.0</ele><time>2026-05-03T10:39:51.073Z</time></trkpt><trkpt lat="36.6544858" lon="9.6032652"><ele>52.0</ele><time>2026-05-03T10:39:52.04Z</time></trkpt><trkpt lat="36.6543552" lon="9.6031981"><ele>52.0</ele><time>2026-05-03T10:39:53.07Z</time></trkpt><trkpt lat="36.6542279" lon="9.6031336"><ele>52.0</ele><time>2026-05-03T10:39:54.056Z</time></trkpt><trkpt lat="36.6541023" lon="9.6030688"><ele>52.0</ele><time>2026-05-03T10:39:55.069Z</time></trkpt><trkpt lat="36.6539838" lon="9.6030065"><ele>52.0</ele><time>2026-05-03T10:39:56.074Z</time></trkpt><trkpt lat="36.6538687" lon="9.6029538"><ele>52.0</ele><time>2026-05-03T10:39:57.059Z</time></trkpt><trkpt lat="36.6537589" lon="9.6029063"><ele>52.0</ele><time>2026-05-03T10:39:58.054Z</time></trkpt><trkpt lat="36.6536492" lon="9.6028554"><ele>52.25</ele><time>2026-05-03T10:39:59.047Z</time></trkpt><trkpt lat="36.6535397" lon="9.6028017"><ele>52.5</ele><time>2026-05-03T10:40:00.054Z</time></trkpt><trkpt lat="36.6534329" lon="9.6027488"><ele>52.75</ele><time>2026-05-03T10:40:01.066Z</time></trkpt><trkpt lat="36.6533203" lon="9.6026901"><ele>53.0</ele><time>2026-05-03T10:40:02.059Z</time></trkpt><trkpt lat="36.653208" lon="9.6026382"><ele>53.0</ele><time>2026-05-03T10:40:03.068Z</time></trkpt><trkpt lat="36.6530922" lon="9.6025846"><ele>53.0</ele><time>2026-05-03T10:40:04.055Z</time></trkpt><trkpt lat="36.6529769" lon="9.6025357"><ele>53.0</ele><time>2026-05-03T10:40:05.066Z</time></trkpt><trkpt lat="36.6528593" lon="9.6024787"><ele>53.0</ele><time>2026-05-03T10:40:06.073Z</time></trkpt><trkpt lat="36.6527383" lon="9.6024218"><ele>53.25</ele><time>2026-05-03T10:40:07.064Z</time></trkpt><trkpt lat="36.6526215" lon="9.6023653"><ele>53.5</ele><time>2026-05-03T10:40:08.076Z</time></trkpt><trkpt lat="36.6525115" lon="9.602311"><ele>53.75</ele><time>2026-05-03T10:40:09.052Z</time></trkpt><trkpt lat="36.6524071" lon="9.6022528"><ele>54.0</ele><time>2026-05-03T10:40:10.082Z</time></trkpt><trkpt lat="36.6523071" lon="9.6022057"><ele>54.0</ele><time>2026-05-03T10:40:11.038Z</time></trkpt><trkpt lat="36.6522075" lon="9.6021567"><ele>54.00000000000001</ele><time>2026-05-03T10:40:12.066Z</time></trkpt><trkpt lat="36.6521071" lon="9.6021097"><ele>54.00000000000001</ele><time>2026-05-03T10:40:13.054Z</time></trkpt><trkpt lat="36.6520107" lon="9.6020753"><ele>54.0</ele><time>2026-05-03T10:40:14.063Z</time></trkpt><trkpt lat="36.6519192" lon="9.6020525"><ele>54.0</ele><time>2026-05-03T10:40:15.05Z</time></trkpt><trkpt lat="36.65183" lon="9.6020555"><ele>53.42857142857143</ele><time>2026-05-03T10:40:16.055Z</time></trkpt><trkpt lat="36.6517521" lon="9.6020739"><ele>52.857142857142854</ele><time>2026-05-03T10:40:17.064Z</time></trkpt><trkpt lat="36.6516771" lon="9.6021002"><ele>52.28571428571429</ele><time>2026-05-03T10:40:18.043Z</time></trkpt><trkpt lat="36.6516139" lon="9.602139"><ele>51.714285714285715</ele><time>2026-05-03T10:40:19.057Z</time></trkpt><trkpt lat="36.6515517" lon="9.6021867"><ele>51.142857142857146</ele><time>2026-05-03T10:40:20.077Z</time></trkpt><trkpt lat="36.6514914" lon="9.6022297"><ele>50.57142857142858</ele><time>2026-05-03T10:40:21.046Z</time></trkpt><trkpt lat="36.6514241" lon="9.6022711"><ele>50.0</ele><time>2026-05-03T10:40:22.066Z</time></trkpt><trkpt lat="36.6513533" lon="9.602321"><ele>50.0</ele><time>2026-05-03T10:40:23.069Z</time></trkpt><trkpt lat="36.6512801" lon="9.6023726"><ele>50.0</ele><time>2026-05-03T10:40:24.073Z</time></trkpt><trkpt lat="36.6512058" lon="9.6024244"><ele>50.0</ele><time>2026-05-03T10:40:25.076Z</time></trkpt><trkpt lat="36.6511268" lon="9.6024798"><ele>50.0</ele><time>2026-05-03T10:40:26.081Z</time></trkpt><trkpt lat="36.6510388" lon="9.6025285"><ele>50.0</ele><time>2026-05-03T10:40:27.059Z</time></trkpt><trkpt lat="36.6509505" lon="9.6025777"><ele>50.6</ele><time>2026-05-03T10:40:28.057Z</time></trkpt><trkpt lat="36.6508557" lon="9.6026249"><ele>51.2</ele><time>2026-05-03T10:40:29.056Z</time></trkpt><trkpt lat="36.6507605" lon="9.6026631"><ele>51.8</ele><time>2026-05-03T10:40:30.053Z</time></trkpt><trkpt lat="36.6506632" lon="9.6027033"><ele>52.4</ele><time>2026-05-03T10:40:31.055Z</time></trkpt><trkpt lat="36.650564" lon="9.6027411"><ele>53.0</ele><time>2026-05-03T10:40:32.06Z</time></trkpt><trkpt lat="36.6504626" lon="9.6027797"><ele>53.0</ele><time>2026-05-03T10:40:33.062Z</time></trkpt><trkpt lat="36.6503582" lon="9.6028157"><ele>53.0</ele><time>2026-05-03T10:40:34.027Z</time></trkpt><trkpt lat="36.6502555" lon="9.6028526"><ele>53.0</ele><time>2026-05-03T10:40:35.075Z</time></trkpt><trkpt lat="36.650149" lon="9.6028855"><ele>53.0</ele><time>2026-05-03T10:40:36.073Z</time></trkpt><trkpt lat="36.6500473" lon="9.6029196"><ele>53.0</ele><time>2026-05-03T10:40:37.08Z</time></trkpt><trkpt lat="36.6499493" lon="9.602952"><ele>53.00000000000001</ele><time>2026-05-03T10:40:38.067Z</time></trkpt><trkpt lat="36.6498586" lon="9.6029813"><ele>53.0</ele><time>2026-05-03T10:40:39.068Z</time></trkpt><trkpt lat="36.6497826" lon="9.6030027"><ele>53.0</ele><time>2026-05-03T10:40:40.069Z</time></trkpt><trkpt lat="36.6497182" lon="9.6030304"><ele>53.0</ele><time>2026-05-03T10:40:41.051Z</time></trkpt><trkpt lat="36.6496269" lon="9.6030665"><ele>53.00000000000001</ele><time>2026-05-03T10:40:43.063Z</time></trkpt><trkpt lat="36.649538" lon="9.6031025"><ele>53.0</ele><time>2026-05-03T10:40:45.038Z</time></trkpt><trkpt lat="36.6494492" lon="9.6031604"><ele>53.0</ele><time>2026-05-03T10:40:47.043Z</time></trkpt><trkpt lat="36.6493445" lon="9.6032437"><ele>53.0</ele><time>2026-05-03T10:40:49.057Z</time></trkpt><trkpt lat="36.6492851" lon="9.6033064"><ele>53.0</ele><time>2026-05-03T10:40:50.055Z</time></trkpt><trkpt lat="36.6492299" lon="9.6033873"><ele>53.0</ele><time>2026-05-03T10:40:51.045Z</time></trkpt><trkpt lat="36.649177" lon="9.603467"><ele>53.0</ele><time>2026-05-03T10:40:52.049Z</time></trkpt><trkpt lat="36.6491186" lon="9.6035445"><ele>53.00000000000001</ele><time>2026-05-03T10:40:53.043Z</time></trkpt><trkpt lat="36.6490634" lon="9.6036236"><ele>53.0</ele><time>2026-05-03T10:40:54.058Z</time></trkpt><trkpt lat="36.6490079" lon="9.6037051"><ele>53.0</ele><time>2026-05-03T10:40:55.069Z</time></trkpt><trkpt lat="36.6489583" lon="9.6037814"><ele>53.0</ele><time>2026-05-03T10:40:56.055Z</time></trkpt><trkpt lat="36.6489136" lon="9.6038599"><ele>53.00000000000001</ele><time>2026-05-03T10:40:57.057Z</time></trkpt><trkpt lat="36.6488624" lon="9.6039338"><ele>53.0</ele><time>2026-05-03T10:40:58.069Z</time></trkpt><trkpt lat="36.6488126" lon="9.6040109"><ele>53.0</ele><time>2026-05-03T10:40:59.049Z</time></trkpt><trkpt lat="36.6487675" lon="9.6040862"><ele>53.0</ele><time>2026-05-03T10:41:00.057Z</time></trkpt><trkpt lat="36.6487227" lon="9.6041523"><ele>53.0</ele><time>2026-05-03T10:41:01.071Z</time></trkpt><trkpt lat="36.6486462" lon="9.6042625"><ele>53.0</ele><time>2026-05-03T10:41:03.067Z</time></trkpt><trkpt lat="36.648576" lon="9.6043701"><ele>53.0</ele><time>2026-05-03T10:41:05.067Z</time></trkpt><trkpt lat="36.6485079" lon="9.6044846"><ele>53.0</ele><time>2026-05-03T10:41:07.054Z</time></trkpt><trkpt lat="36.6484295" lon="9.6046001"><ele>53.0</ele><time>2026-05-03T10:41:09.054Z</time></trkpt><trkpt lat="36.6483451" lon="9.6047134"><ele>53.0</ele><time>2026-05-03T10:41:11.061Z</time></trkpt><trkpt lat="36.6482999" lon="9.6047732"><ele>53.0</ele><time>2026-05-03T10:41:12.058Z</time></trkpt><trkpt lat="36.648226" lon="9.604885"><ele>53.0</ele><time>2026-05-03T10:41:14.059Z</time></trkpt><trkpt lat="36.6481625" lon="9.6049748"><ele>53.0</ele><time>2026-05-03T10:41:16.073Z</time></trkpt><trkpt lat="36.6480967" lon="9.6050369"><ele>53.0</ele><time>2026-05-03T10:41:18.07Z</time></trkpt><trkpt lat="36.6480429" lon="9.6050886"><ele>53.0</ele><time>2026-05-03T10:41:20.059Z</time></trkpt><trkpt lat="36.6479437" lon="9.6050602"><ele>53.0</ele><time>2026-05-03T10:41:23.059Z</time></trkpt><trkpt lat="36.6478753" lon="9.6049223"><ele>53.0</ele><time>2026-05-03T10:41:25.067Z</time></trkpt><trkpt lat="36.6478305" lon="9.6048233"><ele>53.0</ele><time>2026-05-03T10:41:26.058Z</time></trkpt><trkpt lat="36.6477736" lon="9.6047186"><ele>53.0</ele><time>2026-05-03T10:41:27.058Z</time></trkpt><trkpt lat="36.6477211" lon="9.6046155"><ele>53.0</ele><time>2026-05-03T10:41:28.047Z</time></trkpt><trkpt lat="36.6476676" lon="9.6045219"><ele>53.0</ele><time>2026-05-03T10:41:29.058Z</time></trkpt><trkpt lat="36.6476207" lon="9.6044282"><ele>53.0</ele><time>2026-05-03T10:41:30.048Z</time></trkpt><trkpt lat="36.6475772" lon="9.6043445"><ele>53.00000000000001</ele><time>2026-05-03T10:41:31.056Z</time></trkpt><trkpt lat="36.647535" lon="9.6042574"><ele>53.0</ele><time>2026-05-03T10:41:32.062Z</time></trkpt><trkpt lat="36.6474922" lon="9.6041692"><ele>53.0</ele><time>2026-05-03T10:41:33.05Z</time></trkpt><trkpt lat="36.64744" lon="9.6040734"><ele>53.0</ele><time>2026-05-03T10:41:34.066Z</time></trkpt><trkpt lat="36.6473822" lon="9.6039878"><ele>53.00000000000001</ele><time>2026-05-03T10:41:35.032Z</time></trkpt><trkpt lat="36.647318" lon="9.6038988"><ele>53.0</ele><time>2026-05-03T10:41:36.061Z</time></trkpt><trkpt lat="36.6472574" lon="9.6038044"><ele>53.0</ele><time>2026-05-03T10:41:37.047Z</time></trkpt><trkpt lat="36.647192" lon="9.6037208"><ele>53.0</ele><time>2026-05-03T10:41:38.05Z</time></trkpt><trkpt lat="36.6471294" lon="9.6036246"><ele>53.0</ele><time>2026-05-03T10:41:39.067Z</time></trkpt><trkpt lat="36.6470703" lon="9.6035323"><ele>53.0</ele><time>2026-05-03T10:41:40.06Z</time></trkpt><trkpt lat="36.6470158" lon="9.6034403"><ele>53.0</ele><time>2026-05-03T10:41:41.06Z</time></trkpt><trkpt lat="36.64696" lon="9.6033491"><ele>52.833333333333336</ele><time>2026-05-03T10:41:42.063Z</time></trkpt><trkpt lat="36.6469017" lon="9.6032602"><ele>52.66666666666667</ele><time>2026-05-03T10:41:43.051Z</time></trkpt><trkpt lat="36.6468465" lon="9.6031782"><ele>52.5</ele><time>2026-05-03T10:41:44.059Z</time></trkpt><trkpt lat="36.6467915" lon="9.6030976"><ele>52.33333333333333</ele><time>2026-05-03T10:41:45.081Z</time></trkpt><trkpt lat="36.646738" lon="9.603006"><ele>52.166666666666664</ele><time>2026-05-03T10:41:46.071Z</time></trkpt><trkpt lat="36.6466844" lon="9.6029196"><ele>52.0</ele><time>2026-05-03T10:41:47.073Z</time></trkpt><trkpt lat="36.6466322" lon="9.60283"><ele>52.33333333333333</ele><time>2026-05-03T10:41:48.073Z</time></trkpt><trkpt lat="36.646587" lon="9.6027506"><ele>52.666666666666664</ele><time>2026-05-03T10:41:49.062Z</time></trkpt><trkpt lat="36.6465357" lon="9.6026767"><ele>53.0</ele><time>2026-05-03T10:41:50.054Z</time></trkpt><trkpt lat="36.6464838" lon="9.6025989"><ele>53.33333333333333</ele><time>2026-05-03T10:41:51.061Z</time></trkpt><trkpt lat="36.6464355" lon="9.6025119"><ele>53.666666666666664</ele><time>2026-05-03T10:41:52.054Z</time></trkpt><trkpt lat="36.6463786" lon="9.6024251"><ele>54.0</ele><time>2026-05-03T10:41:53.06Z</time></trkpt><trkpt lat="36.6463248" lon="9.6023402"><ele>54.0</ele><time>2026-05-03T10:41:54.065Z</time></trkpt><trkpt lat="36.6462662" lon="9.6022439"><ele>54.00000000000001</ele><time>2026-05-03T10:41:55.063Z</time></trkpt><trkpt lat="36.6462084" lon="9.6021469"><ele>54.00000000000001</ele><time>2026-05-03T10:41:56.074Z</time></trkpt><trkpt lat="36.6461481" lon="9.6020359"><ele>54.0</ele><time>2026-05-03T10:41:57.072Z</time></trkpt><trkpt lat="36.6460782" lon="9.6019162"><ele>54.0</ele><time>2026-05-03T10:41:58.051Z</time></trkpt><trkpt lat="36.6459984" lon="9.601796"><ele>54.0</ele><time>2026-05-03T10:41:59.061Z</time></trkpt><trkpt lat="36.6459167" lon="9.6016727"><ele>54.0</ele><time>2026-05-03T10:42:00.056Z</time></trkpt><trkpt lat="36.6458352" lon="9.6015447"><ele>54.0</ele><time>2026-05-03T10:42:01.058Z</time></trkpt><trkpt lat="36.6457596" lon="9.6014278"><ele>54.0</ele><time>2026-05-03T10:42:02.056Z</time></trkpt><trkpt lat="36.6456813" lon="9.6013012"><ele>54.0</ele><time>2026-05-03T10:42:03.073Z</time></trkpt><trkpt lat="36.6456085" lon="9.6011724"><ele>54.0</ele><time>2026-05-03T10:42:04.058Z</time></trkpt><trkpt lat="36.6455328" lon="9.6010461"><ele>54.0</ele><time>2026-05-03T10:42:05.053Z</time></trkpt><trkpt lat="36.6454562" lon="9.6009226"><ele>54.0</ele><time>2026-05-03T10:42:06.056Z</time></trkpt><trkpt lat="36.6453812" lon="9.6007943"><ele>54.5</ele><time>2026-05-03T10:42:07.055Z</time></trkpt><trkpt lat="36.6453022" lon="9.6006642"><ele>55.0</ele><time>2026-05-03T10:42:08.062Z</time></trkpt><trkpt lat="36.6452215" lon="9.6005335"><ele>55.5</ele><time>2026-05-03T10:42:09.063Z</time></trkpt><trkpt lat="36.6451405" lon="9.6003946"><ele>56.0</ele><time>2026-05-03T10:42:10.064Z</time></trkpt><trkpt lat="36.6450598" lon="9.6002602"><ele>56.5</ele><time>2026-05-03T10:42:11.056Z</time></trkpt><trkpt lat="36.6449836" lon="9.6001376"><ele>57.0</ele><time>2026-05-03T10:42:12.063Z</time></trkpt><trkpt lat="36.6449093" lon="9.6000152"><ele>57.5</ele><time>2026-05-03T10:42:13.033Z</time></trkpt><trkpt lat="36.6448288" lon="9.5998886"><ele>58.0</ele><time>2026-05-03T10:42:14.039Z</time></trkpt><trkpt lat="36.6447494" lon="9.5997583"><ele>58.0</ele><time>2026-05-03T10:42:15.053Z</time></trkpt><trkpt lat="36.6446718" lon="9.5996183"><ele>58.0</ele><time>2026-05-03T10:42:16.061Z</time></trkpt><trkpt lat="36.6445984" lon="9.5994882"><ele>58.0</ele><time>2026-05-03T10:42:17.061Z</time></trkpt><trkpt lat="36.6445232" lon="9.5993546"><ele>58.0</ele><time>2026-05-03T10:42:18.059Z</time></trkpt><trkpt lat="36.6444517" lon="9.5992285"><ele>57.5</ele><time>2026-05-03T10:42:19.056Z</time></trkpt><trkpt lat="36.6443795" lon="9.5991045"><ele>57.0</ele><time>2026-05-03T10:42:20.053Z</time></trkpt><trkpt lat="36.6443111" lon="9.5989861"><ele>56.5</ele><time>2026-05-03T10:42:21.045Z</time></trkpt><trkpt lat="36.6442379" lon="9.5988652"><ele>56.0</ele><time>2026-05-03T10:42:22.059Z</time></trkpt><trkpt lat="36.644157" lon="9.5987265"><ele>56.25</ele><time>2026-05-03T10:42:23.052Z</time></trkpt><trkpt lat="36.6440683" lon="9.5985798"><ele>56.5</ele><time>2026-05-03T10:42:24.059Z</time></trkpt><trkpt lat="36.6439776" lon="9.5984285"><ele>56.75</ele><time>2026-05-03T10:42:25.058Z</time></trkpt><trkpt lat="36.6438915" lon="9.5982866"><ele>57.0</ele><time>2026-05-03T10:42:26.059Z</time></trkpt><trkpt lat="36.6438194" lon="9.5981591"><ele>57.0</ele><time>2026-05-03T10:42:27.059Z</time></trkpt><trkpt lat="36.6437516" lon="9.5980379"><ele>57.0</ele><time>2026-05-03T10:42:28.06Z</time></trkpt><trkpt lat="36.6436769" lon="9.5979109"><ele>57.0</ele><time>2026-05-03T10:42:29.044Z</time></trkpt><trkpt lat="36.6435969" lon="9.5977739"><ele>57.0</ele><time>2026-05-03T10:42:30.05Z</time></trkpt><trkpt lat="36.6435155" lon="9.5976416"><ele>56.5</ele><time>2026-05-03T10:42:31.068Z</time></trkpt><trkpt lat="36.6434312" lon="9.5975028"><ele>56.0</ele><time>2026-05-03T10:42:32.084Z</time></trkpt><trkpt lat="36.6433537" lon="9.5973614"><ele>55.5</ele><time>2026-05-03T10:42:33.055Z</time></trkpt><trkpt lat="36.6432724" lon="9.5972176"><ele>55.0</ele><time>2026-05-03T10:42:34.05Z</time></trkpt><trkpt lat="36.6431908" lon="9.5970812"><ele>55.0</ele><time>2026-05-03T10:42:35.051Z</time></trkpt><trkpt lat="36.6431104" lon="9.5969474"><ele>55.0</ele><time>2026-05-03T10:42:36.028Z</time></trkpt><trkpt lat="36.643028" lon="9.5968108"><ele>55.0</ele><time>2026-05-03T10:42:37.057Z</time></trkpt><trkpt lat="36.6429481" lon="9.59667"><ele>55.0</ele><time>2026-05-03T10:42:38.065Z</time></trkpt><trkpt lat="36.6428636" lon="9.5965321"><ele>55.25</ele><time>2026-05-03T10:42:39.059Z</time></trkpt><trkpt lat="36.6427816" lon="9.5963974"><ele>55.5</ele><time>2026-05-03T10:42:40.069Z</time></trkpt><trkpt lat="36.642701" lon="9.5962627"><ele>55.75</ele><time>2026-05-03T10:42:41.064Z</time></trkpt><trkpt lat="36.6426288" lon="9.5961381"><ele>56.0</ele><time>2026-05-03T10:42:42.059Z</time></trkpt><trkpt lat="36.6425502" lon="9.596008"><ele>56.0</ele><time>2026-05-03T10:42:43.058Z</time></trkpt><trkpt lat="36.6424728" lon="9.5958842"><ele>56.0</ele><time>2026-05-03T10:42:44.061Z</time></trkpt><trkpt lat="36.6423986" lon="9.5957568"><ele>56.0</ele><time>2026-05-03T10:42:45.053Z</time></trkpt><trkpt lat="36.642323" lon="9.5956291"><ele>56.0</ele><time>2026-05-03T10:42:46.041Z</time></trkpt><trkpt lat="36.6422531" lon="9.595502"><ele>56.0</ele><time>2026-05-03T10:42:47.046Z</time></trkpt><trkpt lat="36.6421808" lon="9.595377"><ele>56.0</ele><time>2026-05-03T10:42:48.037Z</time></trkpt><trkpt lat="36.6421099" lon="9.5952556"><ele>56.0</ele><time>2026-05-03T10:42:49.055Z</time></trkpt><trkpt lat="36.6420394" lon="9.5951408"><ele>56.0</ele><time>2026-05-03T10:42:50.041Z</time></trkpt><trkpt lat="36.6419726" lon="9.5950288"><ele>55.8</ele><time>2026-05-03T10:42:51.049Z</time></trkpt><trkpt lat="36.6419084" lon="9.5949206"><ele>55.599999999999994</ele><time>2026-05-03T10:42:52.064Z</time></trkpt><trkpt lat="36.6418521" lon="9.5948211"><ele>55.4</ele><time>2026-05-03T10:42:53.041Z</time></trkpt><trkpt lat="36.6418056" lon="9.5947278"><ele>55.2</ele><time>2026-05-03T10:42:54.048Z</time></trkpt><trkpt lat="36.6417569" lon="9.5946413"><ele>55.0</ele><time>2026-05-03T10:42:55.054Z</time></trkpt><trkpt lat="36.6417046" lon="9.5945571"><ele>55.2</ele><time>2026-05-03T10:42:56.065Z</time></trkpt><trkpt lat="36.641657" lon="9.5944578"><ele>55.4</ele><time>2026-05-03T10:42:57.061Z</time></trkpt><trkpt lat="36.6416102" lon="9.5943538"><ele>55.599999999999994</ele><time>2026-05-03T10:42:58.058Z</time></trkpt><trkpt lat="36.6415753" lon="9.5942431"><ele>55.8</ele><time>2026-05-03T10:42:59.061Z</time></trkpt><trkpt lat="36.6415367" lon="9.5941307"><ele>56.0</ele><time>2026-05-03T10:43:00.04Z</time></trkpt><trkpt lat="36.6415003" lon="9.5940307"><ele>56.0</ele><time>2026-05-03T10:43:01.048Z</time></trkpt><trkpt lat="36.6414492" lon="9.5939312"><ele>55.99999999999999</ele><time>2026-05-03T10:43:02.055Z</time></trkpt><trkpt lat="36.6413814" lon="9.5938369"><ele>55.99999999999999</ele><time>2026-05-03T10:43:03.054Z</time></trkpt><trkpt lat="36.6413023" lon="9.5937372"><ele>56.0</ele><time>2026-05-03T10:43:04.051Z</time></trkpt><trkpt lat="36.641218" lon="9.5936359"><ele>56.0</ele><time>2026-05-03T10:43:05.034Z</time></trkpt><trkpt lat="36.6411325" lon="9.5935274"><ele>56.75</ele><time>2026-05-03T10:43:06.048Z</time></trkpt><trkpt lat="36.6410441" lon="9.5934088"><ele>57.5</ele><time>2026-05-03T10:43:07.053Z</time></trkpt><trkpt lat="36.6409608" lon="9.5932952"><ele>58.25</ele><time>2026-05-03T10:43:08.062Z</time></trkpt><trkpt lat="36.6408759" lon="9.5931691"><ele>59.0</ele><time>2026-05-03T10:43:09.058Z</time></trkpt><trkpt lat="36.6407817" lon="9.5930298"><ele>59.0</ele><time>2026-05-03T10:43:10.042Z</time></trkpt><trkpt lat="36.6406775" lon="9.5928762"><ele>59.0</ele><time>2026-05-03T10:43:11.048Z</time></trkpt><trkpt lat="36.640562" lon="9.5926983"><ele>59.0</ele><time>2026-05-03T10:43:12.051Z</time></trkpt><trkpt lat="36.6404266" lon="9.5924957"><ele>58.0</ele><time>2026-05-03T10:43:13.051Z</time></trkpt><trkpt lat="36.6402915" lon="9.5922864"><ele>57.0</ele><time>2026-05-03T10:43:14.048Z</time></trkpt><trkpt lat="36.6401489" lon="9.5920528"><ele>56.5</ele><time>2026-05-03T10:43:15.062Z</time></trkpt><trkpt lat="36.640002" lon="9.5918105"><ele>56.0</ele><time>2026-05-03T10:43:16.063Z</time></trkpt><trkpt lat="36.6398612" lon="9.5915628"><ele>56.0</ele><time>2026-05-03T10:43:17.05Z</time></trkpt><trkpt lat="36.6397289" lon="9.5913297"><ele>56.0</ele><time>2026-05-03T10:43:18.075Z</time></trkpt><trkpt lat="36.6396021" lon="9.591101"><ele>56.333333333333336</ele><time>2026-05-03T10:43:19.059Z</time></trkpt><trkpt lat="36.6394867" lon="9.590886"><ele>56.66666666666667</ele><time>2026-05-03T10:43:20.067Z</time></trkpt><trkpt lat="36.6393753" lon="9.5906918"><ele>57.0</ele><time>2026-05-03T10:43:21.056Z</time></trkpt><trkpt lat="36.6392672" lon="9.5905125"><ele>56.66666666666667</ele><time>2026-05-03T10:43:22.061Z</time></trkpt><trkpt lat="36.63916" lon="9.5903299"><ele>56.333333333333336</ele><time>2026-05-03T10:43:23.082Z</time></trkpt><trkpt lat="36.6390551" lon="9.5901497"><ele>56.0</ele><time>2026-05-03T10:43:24.057Z</time></trkpt><trkpt lat="36.6389502" lon="9.5899735"><ele>56.0</ele><time>2026-05-03T10:43:25.064Z</time></trkpt><trkpt lat="36.6388437" lon="9.589794"><ele>56.0</ele><time>2026-05-03T10:43:26.067Z</time></trkpt><trkpt lat="36.6387356" lon="9.5896111"><ele>56.0</ele><time>2026-05-03T10:43:27.053Z</time></trkpt><trkpt lat="36.6386257" lon="9.5894262"><ele>55.66666666666667</ele><time>2026-05-03T10:43:28.06Z</time></trkpt><trkpt lat="36.6385114" lon="9.5892446"><ele>55.33333333333333</ele><time>2026-05-03T10:43:29.051Z</time></trkpt><trkpt lat="36.6383991" lon="9.5890609"><ele>55.0</ele><time>2026-05-03T10:43:30.063Z</time></trkpt><trkpt lat="36.6382827" lon="9.5888701"><ele>55.0</ele><time>2026-05-03T10:43:31.058Z</time></trkpt><trkpt lat="36.638159" lon="9.5886839"><ele>55.0</ele><time>2026-05-03T10:43:32.058Z</time></trkpt><trkpt lat="36.6380325" lon="9.5884972"><ele>55.0</ele><time>2026-05-03T10:43:33.063Z</time></trkpt><trkpt lat="36.6378932" lon="9.588313"><ele>54.666666666666664</ele><time>2026-05-03T10:43:34.065Z</time></trkpt><trkpt lat="36.6377519" lon="9.5881226"><ele>54.33333333333333</ele><time>2026-05-03T10:43:35.068Z</time></trkpt><trkpt lat="36.6376122" lon="9.587933"><ele>54.0</ele><time>2026-05-03T10:43:36.046Z</time></trkpt><trkpt lat="36.6374668" lon="9.5877505"><ele>54.0</ele><time>2026-05-03T10:43:37.051Z</time></trkpt><trkpt lat="36.6373211" lon="9.5875726"><ele>54.0</ele><time>2026-05-03T10:43:38.059Z</time></trkpt><trkpt lat="36.637175" lon="9.5873941"><ele>54.0</ele><time>2026-05-03T10:43:39.05Z</time></trkpt><trkpt lat="36.63703" lon="9.5872272"><ele>55.5</ele><time>2026-05-03T10:43:40.041Z</time></trkpt><trkpt lat="36.6368764" lon="9.5870381"><ele>57.0</ele><time>2026-05-03T10:43:41.068Z</time></trkpt><trkpt lat="36.6367091" lon="9.586834"><ele>57.0</ele><time>2026-05-03T10:43:42.069Z</time></trkpt><trkpt lat="36.6365301" lon="9.5866246"><ele>57.0</ele><time>2026-05-03T10:43:43.069Z</time></trkpt><trkpt lat="36.6363438" lon="9.5863974"><ele>56.5</ele><time>2026-05-03T10:43:44.059Z</time></trkpt><trkpt lat="36.6361438" lon="9.5861626"><ele>56.0</ele><time>2026-05-03T10:43:45.052Z</time></trkpt><trkpt lat="36.6359252" lon="9.5859185"><ele>55.0</ele><time>2026-05-03T10:43:46.066Z</time></trkpt><trkpt lat="36.6357093" lon="9.5856772"><ele>54.0</ele><time>2026-05-03T10:43:47.049Z</time></trkpt><trkpt lat="36.6354982" lon="9.5854419"><ele>54.0</ele><time>2026-05-03T10:43:48.056Z</time></trkpt><trkpt lat="36.6352923" lon="9.5851918"><ele>54.0</ele><time>2026-05-03T10:43:49.062Z</time></trkpt><trkpt lat="36.6350847" lon="9.5849392"><ele>54.0</ele><time>2026-05-03T10:43:50.064Z</time></trkpt><trkpt lat="36.6348862" lon="9.5846902"><ele>54.0</ele><time>2026-05-03T10:43:51.074Z</time></trkpt><trkpt lat="36.6346995" lon="9.5844576"><ele>54.5</ele><time>2026-05-03T10:43:52.063Z</time></trkpt><trkpt lat="36.6345259" lon="9.5842296"><ele>55.0</ele><time>2026-05-03T10:43:53.066Z</time></trkpt><trkpt lat="36.6343493" lon="9.5840124"><ele>55.5</ele><time>2026-05-03T10:43:54.049Z</time></trkpt><trkpt lat="36.6341705" lon="9.5837987"><ele>56.0</ele><time>2026-05-03T10:43:55.056Z</time></trkpt><trkpt lat="36.6339902" lon="9.5835854"><ele>56.0</ele><time>2026-05-03T10:43:56.037Z</time></trkpt><trkpt lat="36.6338178" lon="9.5833767"><ele>56.0</ele><time>2026-05-03T10:43:57.07Z</time></trkpt><trkpt lat="36.6336429" lon="9.5831723"><ele>55.5</ele><time>2026-05-03T10:43:58.053Z</time></trkpt><trkpt lat="36.633469" lon="9.5829643"><ele>55.0</ele><time>2026-05-03T10:43:59.046Z</time></trkpt><trkpt lat="36.633302" lon="9.5827606"><ele>55.0</ele><time>2026-05-03T10:44:00.049Z</time></trkpt><trkpt lat="36.6331417" lon="9.5825629"><ele>55.0</ele><time>2026-05-03T10:44:01.074Z</time></trkpt><trkpt lat="36.6329804" lon="9.5823657"><ele>55.0</ele><time>2026-05-03T10:44:02.07Z</time></trkpt><trkpt lat="36.6328167" lon="9.5821642"><ele>55.0</ele><time>2026-05-03T10:44:03.063Z</time></trkpt><trkpt lat="36.6326551" lon="9.5819654"><ele>55.0</ele><time>2026-05-03T10:44:04.061Z</time></trkpt><trkpt lat="36.6324907" lon="9.5817685"><ele>55.0</ele><time>2026-05-03T10:44:05.06Z</time></trkpt><trkpt lat="36.6323261" lon="9.5815742"><ele>55.0</ele><time>2026-05-03T10:44:06.061Z</time></trkpt><trkpt lat="36.6321584" lon="9.5813755"><ele>55.0</ele><time>2026-05-03T10:44:07.058Z</time></trkpt><trkpt lat="36.6319947" lon="9.5811825"><ele>56.666666666666664</ele><time>2026-05-03T10:44:08.072Z</time></trkpt><trkpt lat="36.6318356" lon="9.5809963"><ele>58.33333333333333</ele><time>2026-05-03T10:44:09.058Z</time></trkpt><trkpt lat="36.6316775" lon="9.5808199"><ele>60.0</ele><time>2026-05-03T10:44:10.045Z</time></trkpt><trkpt lat="36.6315055" lon="9.5806494"><ele>60.0</ele><time>2026-05-03T10:44:11.041Z</time></trkpt><trkpt lat="36.6313288" lon="9.5804867"><ele>60.0</ele><time>2026-05-03T10:44:12.058Z</time></trkpt><trkpt lat="36.6311392" lon="9.580348"><ele>60.0</ele><time>2026-05-03T10:44:13.055Z</time></trkpt><trkpt lat="36.6309519" lon="9.5802079"><ele>60.66666666666667</ele><time>2026-05-03T10:44:14.076Z</time></trkpt><trkpt lat="36.6307733" lon="9.580078"><ele>61.333333333333336</ele><time>2026-05-03T10:44:15.058Z</time></trkpt><trkpt lat="36.6306108" lon="9.5799535"><ele>62.0</ele><time>2026-05-03T10:44:16.045Z</time></trkpt><trkpt lat="36.6304564" lon="9.5798222"><ele>62.0</ele><time>2026-05-03T10:44:17.06Z</time></trkpt><trkpt lat="36.6303127" lon="9.5796853"><ele>62.0</ele><time>2026-05-03T10:44:18.06Z</time></trkpt><trkpt lat="36.6301669" lon="9.5795214"><ele>62.0</ele><time>2026-05-03T10:44:19.052Z</time></trkpt><trkpt lat="36.6300302" lon="9.5793426"><ele>61.0</ele><time>2026-05-03T10:44:20.055Z</time></trkpt><trkpt lat="36.6298934" lon="9.5791445"><ele>60.0</ele><time>2026-05-03T10:44:21.06Z</time></trkpt><trkpt lat="36.6297723" lon="9.5789343"><ele>59.0</ele><time>2026-05-03T10:44:22.073Z</time></trkpt><trkpt lat="36.6296526" lon="9.5787182"><ele>58.66666666666667</ele><time>2026-05-03T10:44:23.049Z</time></trkpt><trkpt lat="36.6295327" lon="9.5785158"><ele>58.33333333333333</ele><time>2026-05-03T10:44:24.063Z</time></trkpt><trkpt lat="36.6294199" lon="9.5783109"><ele>58.0</ele><time>2026-05-03T10:44:25.047Z</time></trkpt><trkpt lat="36.6293067" lon="9.5781084"><ele>57.33333333333333</ele><time>2026-05-03T10:44:26.07Z</time></trkpt><trkpt lat="36.6291897" lon="9.5778998"><ele>56.66666666666667</ele><time>2026-05-03T10:44:27.045Z</time></trkpt><trkpt lat="36.6290777" lon="9.5776919"><ele>56.0</ele><time>2026-05-03T10:44:28.063Z</time></trkpt><trkpt lat="36.6289589" lon="9.577488"><ele>56.0</ele><time>2026-05-03T10:44:29.059Z</time></trkpt><trkpt lat="36.6288447" lon="9.5772923"><ele>56.0</ele><time>2026-05-03T10:44:30.045Z</time></trkpt><trkpt lat="36.6287369" lon="9.5770998"><ele>56.0</ele><time>2026-05-03T10:44:31.047Z</time></trkpt><trkpt lat="36.6286302" lon="9.5769057"><ele>56.0</ele><time>2026-05-03T10:44:32.049Z</time></trkpt><trkpt lat="36.628522" lon="9.5767133"><ele>56.0</ele><time>2026-05-03T10:44:33.063Z</time></trkpt><trkpt lat="36.6284157" lon="9.5765255"><ele>56.0</ele><time>2026-05-03T10:44:34.062Z</time></trkpt><trkpt lat="36.6283101" lon="9.5763348"><ele>56.333333333333336</ele><time>2026-05-03T10:44:35.053Z</time></trkpt><trkpt lat="36.628209" lon="9.5761364"><ele>56.66666666666667</ele><time>2026-05-03T10:44:36.057Z</time></trkpt><trkpt lat="36.6281176" lon="9.5759288"><ele>57.0</ele><time>2026-05-03T10:44:37.05Z</time></trkpt><trkpt lat="36.6280547" lon="9.5757142"><ele>57.0</ele><time>2026-05-03T10:44:38.063Z</time></trkpt><trkpt lat="36.6280093" lon="9.5754907"><ele>57.0</ele><time>2026-05-03T10:44:39.057Z</time></trkpt><trkpt lat="36.6279563" lon="9.5752672"><ele>57.0</ele><time>2026-05-03T10:44:40.043Z</time></trkpt><trkpt lat="36.6278756" lon="9.5750463"><ele>57.66666666666667</ele><time>2026-05-03T10:44:41.055Z</time></trkpt><trkpt lat="36.6277674" lon="9.5748222"><ele>58.333333333333336</ele><time>2026-05-03T10:44:42.03Z</time></trkpt><trkpt lat="36.6276406" lon="9.5746009"><ele>59.0</ele><time>2026-05-03T10:44:43.064Z</time></trkpt><trkpt lat="36.6275031" lon="9.5743566"><ele>59.0</ele><time>2026-05-03T10:44:44.062Z</time></trkpt><trkpt lat="36.6273647" lon="9.5741117"><ele>59.0</ele><time>2026-05-03T10:44:45.053Z</time></trkpt><trkpt lat="36.6272278" lon="9.5738422"><ele>59.0</ele><time>2026-05-03T10:44:46.06Z</time></trkpt><trkpt lat="36.627086" lon="9.5735677"><ele>59.0</ele><time>2026-05-03T10:44:47.021Z</time></trkpt><trkpt lat="36.6269462" lon="9.5732941"><ele>59.0</ele><time>2026-05-03T10:44:48.038Z</time></trkpt><trkpt lat="36.626804" lon="9.5730251"><ele>59.0</ele><time>2026-05-03T10:44:49.056Z</time></trkpt><trkpt lat="36.6266637" lon="9.572757"><ele>58.5</ele><time>2026-05-03T10:44:50.071Z</time></trkpt><trkpt lat="36.6265236" lon="9.572506"><ele>58.0</ele><time>2026-05-03T10:44:51.064Z</time></trkpt><trkpt lat="36.6263869" lon="9.572257"><ele>58.0</ele><time>2026-05-03T10:44:52.051Z</time></trkpt><trkpt lat="36.6262561" lon="9.5720151"><ele>58.0</ele><time>2026-05-03T10:44:53.068Z</time></trkpt><trkpt lat="36.626127" lon="9.5717759"><ele>58.5</ele><time>2026-05-03T10:44:54.061Z</time></trkpt><trkpt lat="36.6259986" lon="9.5715402"><ele>59.0</ele><time>2026-05-03T10:44:55.052Z</time></trkpt><trkpt lat="36.6258681" lon="9.5713033"><ele>59.66666666666667</ele><time>2026-05-03T10:44:56.057Z</time></trkpt><trkpt lat="36.6257449" lon="9.5710782"><ele>60.33333333333333</ele><time>2026-05-03T10:44:57.066Z</time></trkpt><trkpt lat="36.6256179" lon="9.5708486"><ele>61.0</ele><time>2026-05-03T10:44:58.065Z</time></trkpt><trkpt lat="36.6254924" lon="9.5706146"><ele>61.0</ele><time>2026-05-03T10:44:59.066Z</time></trkpt><trkpt lat="36.6253683" lon="9.5703825"><ele>61.0</ele><time>2026-05-03T10:45:00.06Z</time></trkpt><trkpt lat="36.6252429" lon="9.5701461"><ele>60.0</ele><time>2026-05-03T10:45:01.057Z</time></trkpt><trkpt lat="36.6251146" lon="9.5699159"><ele>59.0</ele><time>2026-05-03T10:45:02.048Z</time></trkpt><trkpt lat="36.6249889" lon="9.5696798"><ele>59.5</ele><time>2026-05-03T10:45:03.066Z</time></trkpt><trkpt lat="36.6248614" lon="9.5694493"><ele>60.0</ele><time>2026-05-03T10:45:04.064Z</time></trkpt><trkpt lat="36.6247335" lon="9.5692183"><ele>60.0</ele><time>2026-05-03T10:45:05.058Z</time></trkpt><trkpt lat="36.6246034" lon="9.5689822"><ele>60.0</ele><time>2026-05-03T10:45:06.06Z</time></trkpt><trkpt lat="36.6244732" lon="9.5687459"><ele>61.0</ele><time>2026-05-03T10:45:07.054Z</time></trkpt><trkpt lat="36.6243443" lon="9.5685119"><ele>62.0</ele><time>2026-05-03T10:45:08.073Z</time></trkpt><trkpt lat="36.6242201" lon="9.568282"><ele>62.0</ele><time>2026-05-03T10:45:09.051Z</time></trkpt><trkpt lat="36.6240973" lon="9.5680472"><ele>62.0</ele><time>2026-05-03T10:45:10.036Z</time></trkpt><trkpt lat="36.623973" lon="9.5678117"><ele>61.0</ele><time>2026-05-03T10:45:11.058Z</time></trkpt><trkpt lat="36.6238502" lon="9.5675771"><ele>60.0</ele><time>2026-05-03T10:45:12.046Z</time></trkpt><trkpt lat="36.6237222" lon="9.5673455"><ele>60.0</ele><time>2026-05-03T10:45:13.05Z</time></trkpt><trkpt lat="36.6235938" lon="9.5671146"><ele>60.0</ele><time>2026-05-03T10:45:14.075Z</time></trkpt><trkpt lat="36.6234687" lon="9.5668847"><ele>60.0</ele><time>2026-05-03T10:45:15.065Z</time></trkpt><trkpt lat="36.62334" lon="9.5666481"><ele>60.5</ele><time>2026-05-03T10:45:16.054Z</time></trkpt><trkpt lat="36.6232126" lon="9.5664148"><ele>61.0</ele><time>2026-05-03T10:45:17.065Z</time></trkpt><trkpt lat="36.6230839" lon="9.5661769"><ele>61.5</ele><time>2026-05-03T10:45:18.065Z</time></trkpt><trkpt lat="36.6229559" lon="9.5659374"><ele>62.0</ele><time>2026-05-03T10:45:19.06Z</time></trkpt><trkpt lat="36.6228285" lon="9.5657031"><ele>62.5</ele><time>2026-05-03T10:45:20.069Z</time></trkpt><trkpt lat="36.6227047" lon="9.5654689"><ele>63.0</ele><time>2026-05-03T10:45:21.053Z</time></trkpt><trkpt lat="36.6225806" lon="9.5652298"><ele>64.0</ele><time>2026-05-03T10:45:22.055Z</time></trkpt><trkpt lat="36.6224619" lon="9.5649918"><ele>65.0</ele><time>2026-05-03T10:45:23.056Z</time></trkpt><trkpt lat="36.6223497" lon="9.5647445"><ele>65.5</ele><time>2026-05-03T10:45:24.053Z</time></trkpt><trkpt lat="36.6222569" lon="9.5644837"><ele>66.0</ele><time>2026-05-03T10:45:25.048Z</time></trkpt><trkpt lat="36.6221698" lon="9.5642191"><ele>66.0</ele><time>2026-05-03T10:45:26.054Z</time></trkpt><trkpt lat="36.6220796" lon="9.5639486"><ele>66.0</ele><time>2026-05-03T10:45:27.052Z</time></trkpt><trkpt lat="36.6219989" lon="9.5636844"><ele>65.5</ele><time>2026-05-03T10:45:28.036Z</time></trkpt><trkpt lat="36.6219226" lon="9.5634174"><ele>65.0</ele><time>2026-05-03T10:45:29.048Z</time></trkpt><trkpt lat="36.6218461" lon="9.5631525"><ele>65.0</ele><time>2026-05-03T10:45:30.066Z</time></trkpt><trkpt lat="36.6217684" lon="9.5628878"><ele>65.0</ele><time>2026-05-03T10:45:31.066Z</time></trkpt><trkpt lat="36.6216933" lon="9.5626181"><ele>65.0</ele><time>2026-05-03T10:45:32.063Z</time></trkpt><trkpt lat="36.6216143" lon="9.5623583"><ele>65.0</ele><time>2026-05-03T10:45:33.052Z</time></trkpt><trkpt lat="36.6215451" lon="9.5621116"><ele>65.0</ele><time>2026-05-03T10:45:34.056Z</time></trkpt><trkpt lat="36.6214766" lon="9.5618753"><ele>65.33333333333334</ele><time>2026-05-03T10:45:35.062Z</time></trkpt><trkpt lat="36.6214033" lon="9.5616368"><ele>65.66666666666667</ele><time>2026-05-03T10:45:36.066Z</time></trkpt><trkpt lat="36.6213312" lon="9.561398"><ele>66.0</ele><time>2026-05-03T10:45:37.035Z</time></trkpt><trkpt lat="36.6212591" lon="9.5611628"><ele>65.66666666666667</ele><time>2026-05-03T10:45:38.066Z</time></trkpt><trkpt lat="36.6211845" lon="9.5609288"><ele>65.33333333333334</ele><time>2026-05-03T10:45:39.076Z</time></trkpt><trkpt lat="36.6211164" lon="9.5606876"><ele>65.0</ele><time>2026-05-03T10:45:40.066Z</time></trkpt><trkpt lat="36.6210504" lon="9.5604509"><ele>65.0</ele><time>2026-05-03T10:45:41.063Z</time></trkpt><trkpt lat="36.6209813" lon="9.5602045"><ele>65.0</ele><time>2026-05-03T10:45:42.071Z</time></trkpt><trkpt lat="36.6209127" lon="9.5599608"><ele>65.0</ele><time>2026-05-03T10:45:43.056Z</time></trkpt><trkpt lat="36.620845" lon="9.5597092"><ele>65.0</ele><time>2026-05-03T10:45:44.063Z</time></trkpt><trkpt lat="36.6207758" lon="9.5594514"><ele>65.0</ele><time>2026-05-03T10:45:45.05Z</time></trkpt><trkpt lat="36.6207075" lon="9.5591884"><ele>65.0</ele><time>2026-05-03T10:45:46.064Z</time></trkpt><trkpt lat="36.6206389" lon="9.5589232"><ele>64.0</ele><time>2026-05-03T10:45:47.049Z</time></trkpt><trkpt lat="36.6205696" lon="9.5586537"><ele>63.0</ele><time>2026-05-03T10:45:48.041Z</time></trkpt><trkpt lat="36.6204992" lon="9.5583867"><ele>63.0</ele><time>2026-05-03T10:45:49.065Z</time></trkpt><trkpt lat="36.620426" lon="9.5581178"><ele>63.0</ele><time>2026-05-03T10:45:50.061Z</time></trkpt><trkpt lat="36.6203536" lon="9.5578502"><ele>62.0</ele><time>2026-05-03T10:45:51.064Z</time></trkpt><trkpt lat="36.6202786" lon="9.5575761"><ele>61.0</ele><time>2026-05-03T10:45:52.05Z</time></trkpt><trkpt lat="36.6202061" lon="9.5573122"><ele>61.0</ele><time>2026-05-03T10:45:53.064Z</time></trkpt><trkpt lat="36.6201339" lon="9.5570423"><ele>61.0</ele><time>2026-05-03T10:45:54.064Z</time></trkpt><trkpt lat="36.6200568" lon="9.5567728"><ele>61.0</ele><time>2026-05-03T10:45:55.055Z</time></trkpt><trkpt lat="36.6199825" lon="9.5565035"><ele>61.0</ele><time>2026-05-03T10:45:56.057Z</time></trkpt><trkpt lat="36.6199085" lon="9.5562322"><ele>61.0</ele><time>2026-05-03T10:45:57.07Z</time></trkpt><trkpt lat="36.619833" lon="9.5559582"><ele>61.0</ele><time>2026-05-03T10:45:58.058Z</time></trkpt><trkpt lat="36.6197597" lon="9.5556852"><ele>61.0</ele><time>2026-05-03T10:45:59.06Z</time></trkpt><trkpt lat="36.6196836" lon="9.5554067"><ele>61.0</ele><time>2026-05-03T10:46:00.033Z</time></trkpt><trkpt lat="36.6196025" lon="9.5551228"><ele>62.0</ele><time>2026-05-03T10:46:01.036Z</time></trkpt><trkpt lat="36.6195162" lon="9.5548421"><ele>63.0</ele><time>2026-05-03T10:46:02.063Z</time></trkpt><trkpt lat="36.619427" lon="9.5545651"><ele>63.5</ele><time>2026-05-03T10:46:03.061Z</time></trkpt><trkpt lat="36.6193332" lon="9.5542862"><ele>64.0</ele><time>2026-05-03T10:46:04.048Z</time></trkpt><trkpt lat="36.6192312" lon="9.5540224"><ele>64.0</ele><time>2026-05-03T10:46:05.042Z</time></trkpt><trkpt lat="36.6191261" lon="9.5537623"><ele>64.0</ele><time>2026-05-03T10:46:06.059Z</time></trkpt><trkpt lat="36.6190187" lon="9.5535072"><ele>64.5</ele><time>2026-05-03T10:46:07.059Z</time></trkpt><trkpt lat="36.6189111" lon="9.5532547"><ele>65.0</ele><time>2026-05-03T10:46:08.056Z</time></trkpt><trkpt lat="36.6188033" lon="9.5529972"><ele>65.0</ele><time>2026-05-03T10:46:09.064Z</time></trkpt><trkpt lat="36.6186969" lon="9.5527482"><ele>65.0</ele><time>2026-05-03T10:46:10.058Z</time></trkpt><trkpt lat="36.6185932" lon="9.552503"><ele>65.0</ele><time>2026-05-03T10:46:11.058Z</time></trkpt><trkpt lat="36.6184906" lon="9.5522619"><ele>65.33333333333334</ele><time>2026-05-03T10:46:12.059Z</time></trkpt><trkpt lat="36.6183891" lon="9.5520218"><ele>65.66666666666667</ele><time>2026-05-03T10:46:13.058Z</time></trkpt><trkpt lat="36.6182861" lon="9.5517812"><ele>66.0</ele><time>2026-05-03T10:46:14.048Z</time></trkpt><trkpt lat="36.6181826" lon="9.5515491"><ele>66.0</ele><time>2026-05-03T10:46:15.057Z</time></trkpt><trkpt lat="36.6180783" lon="9.5513097"><ele>66.0</ele><time>2026-05-03T10:46:16.057Z</time></trkpt><trkpt lat="36.6179731" lon="9.5510653"><ele>66.0</ele><time>2026-05-03T10:46:17.059Z</time></trkpt><trkpt lat="36.6178635" lon="9.5508255"><ele>65.33333333333333</ele><time>2026-05-03T10:46:18.06Z</time></trkpt><trkpt lat="36.6177584" lon="9.550582"><ele>64.66666666666666</ele><time>2026-05-03T10:46:19.053Z</time></trkpt><trkpt lat="36.6176503" lon="9.5503358"><ele>64.0</ele><time>2026-05-03T10:46:20.068Z</time></trkpt><trkpt lat="36.6175371" lon="9.550092"><ele>66.0</ele><time>2026-05-03T10:46:21.074Z</time></trkpt><trkpt lat="36.6174166" lon="9.5498537"><ele>68.0</ele><time>2026-05-03T10:46:22.065Z</time></trkpt><trkpt lat="36.6172849" lon="9.5496283"><ele>69.66666666666667</ele><time>2026-05-03T10:46:23.047Z</time></trkpt><trkpt lat="36.6171379" lon="9.54942"><ele>71.33333333333333</ele><time>2026-05-03T10:46:24.065Z</time></trkpt><trkpt lat="36.6169864" lon="9.5492146"><ele>73.0</ele><time>2026-05-03T10:46:25.08Z</time></trkpt><trkpt lat="36.6168312" lon="9.5490115"><ele>73.0</ele><time>2026-05-03T10:46:26.036Z</time></trkpt><trkpt lat="36.6166776" lon="9.5488166"><ele>73.0</ele><time>2026-05-03T10:46:27.057Z</time></trkpt><trkpt lat="36.6165195" lon="9.548627"><ele>73.0</ele><time>2026-05-03T10:46:28.062Z</time></trkpt><trkpt lat="36.6163521" lon="9.5484488"><ele>72.66666666666666</ele><time>2026-05-03T10:46:29.054Z</time></trkpt><trkpt lat="36.6161733" lon="9.5482934"><ele>72.33333333333333</ele><time>2026-05-03T10:46:30.063Z</time></trkpt><trkpt lat="36.6159858" lon="9.5481451"><ele>72.0</ele><time>2026-05-03T10:46:31.055Z</time></trkpt><trkpt lat="36.615792" lon="9.5480036"><ele>70.0</ele><time>2026-05-03T10:46:32.05Z</time></trkpt><trkpt lat="36.6155916" lon="9.5478694"><ele>68.0</ele><time>2026-05-03T10:46:33.067Z</time></trkpt><trkpt lat="36.6153882" lon="9.5477373"><ele>67.5</ele><time>2026-05-03T10:46:34.057Z</time></trkpt><trkpt lat="36.6151835" lon="9.547606"><ele>67.0</ele><time>2026-05-03T10:46:35.06Z</time></trkpt><trkpt lat="36.6149781" lon="9.5474757"><ele>67.0</ele><time>2026-05-03T10:46:36.064Z</time></trkpt><trkpt lat="36.6147764" lon="9.547345"><ele>67.0</ele><time>2026-05-03T10:46:37.06Z</time></trkpt><trkpt lat="36.6145751" lon="9.5472086"><ele>67.0</ele><time>2026-05-03T10:46:38.064Z</time></trkpt><trkpt lat="36.6143701" lon="9.5470726"><ele>67.0</ele><time>2026-05-03T10:46:39.06Z</time></trkpt><trkpt lat="36.6141726" lon="9.5469366"><ele>67.0</ele><time>2026-05-03T10:46:40.065Z</time></trkpt><trkpt lat="36.6139747" lon="9.5468052"><ele>67.0</ele><time>2026-05-03T10:46:41.062Z</time></trkpt><trkpt lat="36.6137875" lon="9.5466781"><ele>67.0</ele><time>2026-05-03T10:46:42.069Z</time></trkpt><trkpt lat="36.6136227" lon="9.546555"><ele>66.66666666666666</ele><time>2026-05-03T10:46:43.043Z</time></trkpt><trkpt lat="36.6134818" lon="9.5464274"><ele>66.33333333333333</ele><time>2026-05-03T10:46:44.066Z</time></trkpt><trkpt lat="36.6133634" lon="9.546289"><ele>66.0</ele><time>2026-05-03T10:46:45.041Z</time></trkpt><trkpt lat="36.6132702" lon="9.5461272"><ele>66.0</ele><time>2026-05-03T10:46:46.031Z</time></trkpt><trkpt lat="36.6131957" lon="9.5459493"><ele>66.0</ele><time>2026-05-03T10:46:47.047Z</time></trkpt><trkpt lat="36.6131427" lon="9.5457401"><ele>66.0</ele><time>2026-05-03T10:46:48.035Z</time></trkpt><trkpt lat="36.6131065" lon="9.5455006"><ele>65.66666666666667</ele><time>2026-05-03T10:46:49.064Z</time></trkpt><trkpt lat="36.6130828" lon="9.5452387"><ele>65.33333333333334</ele><time>2026-05-03T10:46:50.058Z</time></trkpt><trkpt lat="36.6130656" lon="9.5449574"><ele>65.0</ele><time>2026-05-03T10:46:51.044Z</time></trkpt><trkpt lat="36.6130482" lon="9.544653"><ele>65.0</ele><time>2026-05-03T10:46:52.063Z</time></trkpt><trkpt lat="36.6130286" lon="9.5443378"><ele>65.0</ele><time>2026-05-03T10:46:53.086Z</time></trkpt><trkpt lat="36.6130119" lon="9.5440248"><ele>65.0</ele><time>2026-05-03T10:46:54.07Z</time></trkpt><trkpt lat="36.6129946" lon="9.5437155"><ele>65.0</ele><time>2026-05-03T10:46:55.061Z</time></trkpt><trkpt lat="36.6129816" lon="9.5434152"><ele>65.0</ele><time>2026-05-03T10:46:56.072Z</time></trkpt><trkpt lat="36.612966" lon="9.5431231"><ele>65.0</ele><time>2026-05-03T10:46:57.064Z</time></trkpt><trkpt lat="36.612949" lon="9.542831"><ele>66.0</ele><time>2026-05-03T10:46:58.052Z</time></trkpt><trkpt lat="36.6129355" lon="9.5425453"><ele>67.0</ele><time>2026-05-03T10:46:59.052Z</time></trkpt><trkpt lat="36.6129342" lon="9.5422672"><ele>67.33333333333333</ele><time>2026-05-03T10:47:00.053Z</time></trkpt><trkpt lat="36.6129352" lon="9.5419895"><ele>67.66666666666667</ele><time>2026-05-03T10:47:01.043Z</time></trkpt><trkpt lat="36.6129549" lon="9.5417194"><ele>68.0</ele><time>2026-05-03T10:47:02.051Z</time></trkpt><trkpt lat="36.6129821" lon="9.5414439"><ele>68.33333333333334</ele><time>2026-05-03T10:47:03.045Z</time></trkpt><trkpt lat="36.6130166" lon="9.5411678"><ele>68.66666666666667</ele><time>2026-05-03T10:47:04.073Z</time></trkpt><trkpt lat="36.6130525" lon="9.5408962"><ele>69.0</ele><time>2026-05-03T10:47:05.063Z</time></trkpt><trkpt lat="36.613094" lon="9.5406285"><ele>68.66666666666667</ele><time>2026-05-03T10:47:06.075Z</time></trkpt><trkpt lat="36.613136" lon="9.5403639"><ele>68.33333333333334</ele><time>2026-05-03T10:47:07.055Z</time></trkpt><trkpt lat="36.6131771" lon="9.5401014"><ele>68.0</ele><time>2026-05-03T10:47:08.067Z</time></trkpt><trkpt lat="36.6132222" lon="9.5398327"><ele>68.0</ele><time>2026-05-03T10:47:09.064Z</time></trkpt><trkpt lat="36.6132658" lon="9.5395682"><ele>68.0</ele><time>2026-05-03T10:47:10.081Z</time></trkpt><trkpt lat="36.6133101" lon="9.5393056"><ele>68.0</ele><time>2026-05-03T10:47:11.063Z</time></trkpt><trkpt lat="36.6133559" lon="9.5390404"><ele>68.0</ele><time>2026-05-03T10:47:12.063Z</time></trkpt><trkpt lat="36.6134033" lon="9.5387788"><ele>68.0</ele><time>2026-05-03T10:47:13.05Z</time></trkpt><trkpt lat="36.6134486" lon="9.5385167"><ele>68.0</ele><time>2026-05-03T10:47:14.056Z</time></trkpt><trkpt lat="36.6134948" lon="9.5382509"><ele>68.0</ele><time>2026-05-03T10:47:15.058Z</time></trkpt><trkpt lat="36.61354" lon="9.5379905"><ele>68.0</ele><time>2026-05-03T10:47:16.071Z</time></trkpt><trkpt lat="36.6135771" lon="9.537734"><ele>68.0</ele><time>2026-05-03T10:47:17.065Z</time></trkpt><trkpt lat="36.6136115" lon="9.5374745"><ele>68.0</ele><time>2026-05-03T10:47:18.061Z</time></trkpt><trkpt lat="36.6136367" lon="9.5372193"><ele>68.0</ele><time>2026-05-03T10:47:19.048Z</time></trkpt><trkpt lat="36.6136456" lon="9.5369729"><ele>68.0</ele><time>2026-05-03T10:47:20.065Z</time></trkpt><trkpt lat="36.6136426" lon="9.5367292"><ele>68.0</ele><time>2026-05-03T10:47:21.049Z</time></trkpt><trkpt lat="36.6136268" lon="9.5364933"><ele>68.0</ele><time>2026-05-03T10:47:22.059Z</time></trkpt><trkpt lat="36.613597" lon="9.5362666"><ele>68.0</ele><time>2026-05-03T10:47:23.067Z</time></trkpt><trkpt lat="36.6135655" lon="9.5360445"><ele>68.0</ele><time>2026-05-03T10:47:24.061Z</time></trkpt><trkpt lat="36.613523" lon="9.5358342"><ele>68.0</ele><time>2026-05-03T10:47:25.038Z</time></trkpt><trkpt lat="36.6134756" lon="9.5356343"><ele>68.0</ele><time>2026-05-03T10:47:26.025Z</time></trkpt><trkpt lat="36.6134296" lon="9.5354409"><ele>69.0</ele><time>2026-05-03T10:47:27.062Z</time></trkpt><trkpt lat="36.6133764" lon="9.5352523"><ele>70.0</ele><time>2026-05-03T10:47:28.046Z</time></trkpt><trkpt lat="36.6133249" lon="9.5350611"><ele>71.0</ele><time>2026-05-03T10:47:29.071Z</time></trkpt><trkpt lat="36.6132693" lon="9.5348668"><ele>71.0</ele><time>2026-05-03T10:47:30.058Z</time></trkpt><trkpt lat="36.6132152" lon="9.5346656"><ele>71.0</ele><time>2026-05-03T10:47:31.059Z</time></trkpt><trkpt lat="36.6131611" lon="9.5344523"><ele>71.0</ele><time>2026-05-03T10:47:32.026Z</time></trkpt><trkpt lat="36.613104" lon="9.5342304"><ele>70.66666666666667</ele><time>2026-05-03T10:47:33.033Z</time></trkpt><trkpt lat="36.6130424" lon="9.5340042"><ele>70.33333333333333</ele><time>2026-05-03T10:47:34.045Z</time></trkpt><trkpt lat="36.6129803" lon="9.5337748"><ele>70.0</ele><time>2026-05-03T10:47:35.053Z</time></trkpt><trkpt lat="36.6129195" lon="9.5335436"><ele>68.33333333333333</ele><time>2026-05-03T10:47:36.055Z</time></trkpt><trkpt lat="36.6128642" lon="9.5333256"><ele>66.66666666666667</ele><time>2026-05-03T10:47:37.065Z</time></trkpt><trkpt lat="36.6128148" lon="9.5331138"><ele>65.0</ele><time>2026-05-03T10:47:38.064Z</time></trkpt><trkpt lat="36.6127655" lon="9.5329061"><ele>63.66666666666667</ele><time>2026-05-03T10:47:39.074Z</time></trkpt><trkpt lat="36.6127172" lon="9.5327041"><ele>62.33333333333333</ele><time>2026-05-03T10:47:40.052Z</time></trkpt><trkpt lat="36.6126689" lon="9.5325186"><ele>61.0</ele><time>2026-05-03T10:47:41.052Z</time></trkpt><trkpt lat="36.6126176" lon="9.532343"><ele>61.0</ele><time>2026-05-03T10:47:42.042Z</time></trkpt><trkpt lat="36.6125644" lon="9.5321752"><ele>61.0</ele><time>2026-05-03T10:47:43.049Z</time></trkpt><trkpt lat="36.6125045" lon="9.5320204"><ele>61.0</ele><time>2026-05-03T10:47:44.023Z</time></trkpt><trkpt lat="36.6124304" lon="9.5318716"><ele>61.0</ele><time>2026-05-03T10:47:45.049Z</time></trkpt><trkpt lat="36.6123414" lon="9.5317233"><ele>60.666666666666664</ele><time>2026-05-03T10:47:46.057Z</time></trkpt><trkpt lat="36.6122336" lon="9.531594"><ele>60.33333333333333</ele><time>2026-05-03T10:47:47.055Z</time></trkpt><trkpt lat="36.612101" lon="9.5314811"><ele>60.0</ele><time>2026-05-03T10:47:48.061Z</time></trkpt><trkpt lat="36.6119377" lon="9.5313877"><ele>59.33333333333333</ele><time>2026-05-03T10:47:49.038Z</time></trkpt><trkpt lat="36.6117518" lon="9.5313053"><ele>58.666666666666664</ele><time>2026-05-03T10:47:50.058Z</time></trkpt><trkpt lat="36.6115393" lon="9.5312091"><ele>58.0</ele><time>2026-05-03T10:47:51.046Z</time></trkpt><trkpt lat="36.6113186" lon="9.5310978"><ele>59.5</ele><time>2026-05-03T10:47:52.051Z</time></trkpt><trkpt lat="36.6111028" lon="9.5309915"><ele>61.0</ele><time>2026-05-03T10:47:53.067Z</time></trkpt><trkpt lat="36.6109037" lon="9.530881"><ele>61.0</ele><time>2026-05-03T10:47:54.057Z</time></trkpt><trkpt lat="36.6107147" lon="9.5307733"><ele>61.0</ele><time>2026-05-03T10:47:55.038Z</time></trkpt><trkpt lat="36.6105285" lon="9.5306526"><ele>61.0</ele><time>2026-05-03T10:47:56.058Z</time></trkpt><trkpt lat="36.6103462" lon="9.5305305"><ele>60.5</ele><time>2026-05-03T10:47:57.044Z</time></trkpt><trkpt lat="36.6101564" lon="9.5303885"><ele>60.0</ele><time>2026-05-03T10:47:58.041Z</time></trkpt><trkpt lat="36.6099613" lon="9.530219"><ele>60.0</ele><time>2026-05-03T10:47:59.053Z</time></trkpt><trkpt lat="36.6097547" lon="9.5300271"><ele>60.0</ele><time>2026-05-03T10:48:00.058Z</time></trkpt><trkpt lat="36.609528" lon="9.5298095"><ele>59.5</ele><time>2026-05-03T10:48:01.048Z</time></trkpt><trkpt lat="36.6092807" lon="9.5295746"><ele>59.0</ele><time>2026-05-03T10:48:02.058Z</time></trkpt><trkpt lat="36.6090409" lon="9.5293378"><ele>59.0</ele><time>2026-05-03T10:48:03.069Z</time></trkpt><trkpt lat="36.6088166" lon="9.5291069"><ele>59.0</ele><time>2026-05-03T10:48:04.053Z</time></trkpt><trkpt lat="36.6086064" lon="9.5288893"><ele>59.0</ele><time>2026-05-03T10:48:05.084Z</time></trkpt><trkpt lat="36.6084065" lon="9.5286757"><ele>59.0</ele><time>2026-05-03T10:48:06.034Z</time></trkpt><trkpt lat="36.6082004" lon="9.5284606"><ele>59.0</ele><time>2026-05-03T10:48:07.058Z</time></trkpt><trkpt lat="36.6079912" lon="9.5282289"><ele>59.0</ele><time>2026-05-03T10:48:08.055Z</time></trkpt><trkpt lat="36.6077821" lon="9.5280101"><ele>60.0</ele><time>2026-05-03T10:48:09.075Z</time></trkpt><trkpt lat="36.6075876" lon="9.5278029"><ele>61.0</ele><time>2026-05-03T10:48:10.069Z</time></trkpt><trkpt lat="36.607405" lon="9.5276087"><ele>61.0</ele><time>2026-05-03T10:48:11.045Z</time></trkpt><trkpt lat="36.6072299" lon="9.5274218"><ele>61.0</ele><time>2026-05-03T10:48:12.063Z</time></trkpt><trkpt lat="36.6070546" lon="9.5272384"><ele>61.0</ele><time>2026-05-03T10:48:13.059Z</time></trkpt><trkpt lat="36.606888" lon="9.5270664"><ele>61.0</ele><time>2026-05-03T10:48:14.066Z</time></trkpt><trkpt lat="36.6067194" lon="9.5268955"><ele>61.0</ele><time>2026-05-03T10:48:15.074Z</time></trkpt><trkpt lat="36.6065552" lon="9.5267273"><ele>61.666666666666664</ele><time>2026-05-03T10:48:16.067Z</time></trkpt><trkpt lat="36.6063937" lon="9.5265646"><ele>62.33333333333333</ele><time>2026-05-03T10:48:17.073Z</time></trkpt><trkpt lat="36.6062324" lon="9.5263999"><ele>63.0</ele><time>2026-05-03T10:48:18.059Z</time></trkpt><trkpt lat="36.6060723" lon="9.5262386"><ele>64.0</ele><time>2026-05-03T10:48:19.055Z</time></trkpt><trkpt lat="36.605918" lon="9.52609"><ele>65.0</ele><time>2026-05-03T10:48:20.058Z</time></trkpt><trkpt lat="36.6057749" lon="9.5259548"><ele>66.0</ele><time>2026-05-03T10:48:21.071Z</time></trkpt><trkpt lat="36.6056399" lon="9.5258289"><ele>66.0</ele><time>2026-05-03T10:48:22.062Z</time></trkpt><trkpt lat="36.6055063" lon="9.5256988"><ele>66.0</ele><time>2026-05-03T10:48:23.062Z</time></trkpt><trkpt lat="36.6053639" lon="9.5255579"><ele>66.0</ele><time>2026-05-03T10:48:24.063Z</time></trkpt><trkpt lat="36.6052182" lon="9.525408"><ele>66.66666666666667</ele><time>2026-05-03T10:48:25.071Z</time></trkpt><trkpt lat="36.6050537" lon="9.5252575"><ele>67.33333333333334</ele><time>2026-05-03T10:48:26.064Z</time></trkpt><trkpt lat="36.6048924" lon="9.5251171"><ele>68.0</ele><time>2026-05-03T10:48:27.051Z</time></trkpt><trkpt lat="36.6047379" lon="9.5249813"><ele>68.0</ele><time>2026-05-03T10:48:28.051Z</time></trkpt><trkpt lat="36.6045795" lon="9.5248709"><ele>68.0</ele><time>2026-05-03T10:48:29.065Z</time></trkpt><trkpt lat="36.604428" lon="9.5247582"><ele>68.0</ele><time>2026-05-03T10:48:30.062Z</time></trkpt><trkpt lat="36.604279" lon="9.5246623"><ele>68.0</ele><time>2026-05-03T10:48:31.056Z</time></trkpt><trkpt lat="36.604132" lon="9.5245688"><ele>68.0</ele><time>2026-05-03T10:48:32.038Z</time></trkpt><trkpt lat="36.6039799" lon="9.5244872"><ele>68.0</ele><time>2026-05-03T10:48:33.057Z</time></trkpt><trkpt lat="36.6038289" lon="9.5244044"><ele>68.0</ele><time>2026-05-03T10:48:34.059Z</time></trkpt><trkpt lat="36.6036743" lon="9.5243256"><ele>68.0</ele><time>2026-05-03T10:48:35.059Z</time></trkpt><trkpt lat="36.6035198" lon="9.5242595"><ele>68.0</ele><time>2026-05-03T10:48:36.053Z</time></trkpt><trkpt lat="36.6033753" lon="9.5241883"><ele>67.5</ele><time>2026-05-03T10:48:37.04Z</time></trkpt><trkpt lat="36.6032485" lon="9.5241256"><ele>67.0</ele><time>2026-05-03T10:48:38.049Z</time></trkpt><trkpt lat="36.6031368" lon="9.524059"><ele>66.5</ele><time>2026-05-03T10:48:39.047Z</time></trkpt><trkpt lat="36.6030414" lon="9.523993"><ele>66.0</ele><time>2026-05-03T10:48:40.037Z</time></trkpt><trkpt lat="36.6029655" lon="9.5239151"><ele>66.0</ele><time>2026-05-03T10:48:41.059Z</time></trkpt><trkpt lat="36.6029018" lon="9.5238392"><ele>66.0</ele><time>2026-05-03T10:48:42.047Z</time></trkpt><trkpt lat="36.6028562" lon="9.5237465"><ele>66.0</ele><time>2026-05-03T10:48:43.07Z</time></trkpt><trkpt lat="36.6028209" lon="9.5236595"><ele>66.0</ele><time>2026-05-03T10:48:44.052Z</time></trkpt><trkpt lat="36.6027904" lon="9.5235756"><ele>66.0</ele><time>2026-05-03T10:48:45.043Z</time></trkpt><trkpt lat="36.6027512" lon="9.5234954"><ele>66.0</ele><time>2026-05-03T10:48:46.055Z</time></trkpt><trkpt lat="36.6027027" lon="9.52343"><ele>66.33333333333333</ele><time>2026-05-03T10:48:47.06Z</time></trkpt><trkpt lat="36.6026472" lon="9.5233793"><ele>66.66666666666667</ele><time>2026-05-03T10:48:48.041Z</time></trkpt><trkpt lat="36.6025764" lon="9.5233528"><ele>67.0</ele><time>2026-05-03T10:48:49.063Z</time></trkpt><trkpt lat="36.6024993" lon="9.5233492"><ele>67.33333333333334</ele><time>2026-05-03T10:48:50.056Z</time></trkpt><trkpt lat="36.60241" lon="9.5233606"><ele>67.66666666666667</ele><time>2026-05-03T10:48:51.049Z</time></trkpt><trkpt lat="36.602327" lon="9.5233897"><ele>68.0</ele><time>2026-05-03T10:48:52.049Z</time></trkpt><trkpt lat="36.6022386" lon="9.5234246"><ele>68.0</ele><time>2026-05-03T10:48:53.047Z</time></trkpt><trkpt lat="36.6021462" lon="9.5234295"><ele>68.0</ele><time>2026-05-03T10:48:54.054Z</time></trkpt><trkpt lat="36.6020488" lon="9.5234124"><ele>68.0</ele><time>2026-05-03T10:48:55.05Z</time></trkpt><trkpt lat="36.6019552" lon="9.5233782"><ele>68.0</ele><time>2026-05-03T10:48:56.055Z</time></trkpt><trkpt lat="36.6018545" lon="9.5233355"><ele>68.0</ele><time>2026-05-03T10:48:57.065Z</time></trkpt><trkpt lat="36.6017488" lon="9.5232967"><ele>68.0</ele><time>2026-05-03T10:48:58.047Z</time></trkpt><trkpt lat="36.6016452" lon="9.5232472"><ele>68.0</ele><time>2026-05-03T10:48:59.049Z</time></trkpt><trkpt lat="36.6015398" lon="9.5231916"><ele>68.0</ele><time>2026-05-03T10:49:00.045Z</time></trkpt><trkpt lat="36.6014305" lon="9.5231401"><ele>68.0</ele><time>2026-05-03T10:49:01.05Z</time></trkpt><trkpt lat="36.6013154" lon="9.5230819"><ele>68.0</ele><time>2026-05-03T10:49:02.05Z</time></trkpt><trkpt lat="36.6011945" lon="9.5230211"><ele>68.0</ele><time>2026-05-03T10:49:03.054Z</time></trkpt><trkpt lat="36.6010646" lon="9.5229446"><ele>68.0</ele><time>2026-05-03T10:49:04.054Z</time></trkpt><trkpt lat="36.6009142" lon="9.5228731"><ele>68.0</ele><time>2026-05-03T10:49:05.063Z</time></trkpt><trkpt lat="36.6007524" lon="9.5227877"><ele>68.66666666666667</ele><time>2026-05-03T10:49:06.068Z</time></trkpt><trkpt lat="36.600586" lon="9.5226964"><ele>69.33333333333333</ele><time>2026-05-03T10:49:07.06Z</time></trkpt><trkpt lat="36.6004168" lon="9.5225951"><ele>70.0</ele><time>2026-05-03T10:49:08.052Z</time></trkpt><trkpt lat="36.6002385" lon="9.5224914"><ele>70.5</ele><time>2026-05-03T10:49:09.049Z</time></trkpt><trkpt lat="36.6000381" lon="9.5223876"><ele>71.0</ele><time>2026-05-03T10:49:10.049Z</time></trkpt><trkpt lat="36.5998162" lon="9.5222721"><ele>71.0</ele><time>2026-05-03T10:49:11.055Z</time></trkpt><trkpt lat="36.5995776" lon="9.5221474"><ele>71.0</ele><time>2026-05-03T10:49:12.04Z</time></trkpt><trkpt lat="36.59933" lon="9.5220127"><ele>70.5</ele><time>2026-05-03T10:49:13.055Z</time></trkpt><trkpt lat="36.599094" lon="9.5218791"><ele>70.0</ele><time>2026-05-03T10:49:14.051Z</time></trkpt><trkpt lat="36.5988618" lon="9.5217399"><ele>71.5</ele><time>2026-05-03T10:49:15.06Z</time></trkpt><trkpt lat="36.598635" lon="9.521604"><ele>73.0</ele><time>2026-05-03T10:49:16.065Z</time></trkpt><trkpt lat="36.5984076" lon="9.5214735"><ele>73.0</ele><time>2026-05-03T10:49:17.058Z</time></trkpt><trkpt lat="36.5981838" lon="9.521341"><ele>73.0</ele><time>2026-05-03T10:49:18.06Z</time></trkpt><trkpt lat="36.5979609" lon="9.5212154"><ele>72.0</ele><time>2026-05-03T10:49:19.062Z</time></trkpt><trkpt lat="36.5977409" lon="9.5210915"><ele>71.0</ele><time>2026-05-03T10:49:20.045Z</time></trkpt><trkpt lat="36.5975342" lon="9.5209712"><ele>71.0</ele><time>2026-05-03T10:49:21.06Z</time></trkpt><trkpt lat="36.5973321" lon="9.5208538"><ele>71.0</ele><time>2026-05-03T10:49:22.062Z</time></trkpt><trkpt lat="36.5971313" lon="9.5207426"><ele>71.0</ele><time>2026-05-03T10:49:23.054Z</time></trkpt><trkpt lat="36.5969437" lon="9.5206352"><ele>71.0</ele><time>2026-05-03T10:49:24.071Z</time></trkpt><trkpt lat="36.5967555" lon="9.5205278"><ele>71.0</ele><time>2026-05-03T10:49:25.068Z</time></trkpt><trkpt lat="36.5965669" lon="9.5204337"><ele>71.0</ele><time>2026-05-03T10:49:26.06Z</time></trkpt><trkpt lat="36.5963822" lon="9.52034"><ele>71.0</ele><time>2026-05-03T10:49:27.048Z</time></trkpt><trkpt lat="36.5961957" lon="9.5202509"><ele>71.0</ele><time>2026-05-03T10:49:28.05Z</time></trkpt><trkpt lat="36.5960096" lon="9.5201668"><ele>71.0</ele><time>2026-05-03T10:49:29.066Z</time></trkpt><trkpt lat="36.5958223" lon="9.520083"><ele>71.33333333333334</ele><time>2026-05-03T10:49:30.062Z</time></trkpt><trkpt lat="36.5956308" lon="9.5200049"><ele>71.66666666666667</ele><time>2026-05-03T10:49:31.067Z</time></trkpt><trkpt lat="36.5954328" lon="9.5199365"><ele>72.0</ele><time>2026-05-03T10:49:32.059Z</time></trkpt><trkpt lat="36.5952325" lon="9.5198768"><ele>71.33333333333333</ele><time>2026-05-03T10:49:33.045Z</time></trkpt><trkpt lat="36.5950282" lon="9.5198239"><ele>70.66666666666666</ele><time>2026-05-03T10:49:34.067Z</time></trkpt><trkpt lat="36.5948243" lon="9.5197682"><ele>70.0</ele><time>2026-05-03T10:49:35.058Z</time></trkpt><trkpt lat="36.5946215" lon="9.5197127"><ele>69.66666666666666</ele><time>2026-05-03T10:49:36.068Z</time></trkpt><trkpt lat="36.5944191" lon="9.5196583"><ele>69.33333333333333</ele><time>2026-05-03T10:49:37.043Z</time></trkpt><trkpt lat="36.5942281" lon="9.519602"><ele>69.0</ele><time>2026-05-03T10:49:38.059Z</time></trkpt><trkpt lat="36.594041" lon="9.5195527"><ele>69.33333333333333</ele><time>2026-05-03T10:49:39.056Z</time></trkpt><trkpt lat="36.5938643" lon="9.5195037"><ele>69.66666666666666</ele><time>2026-05-03T10:49:40.059Z</time></trkpt><trkpt lat="36.5936903" lon="9.5194562"><ele>70.0</ele><time>2026-05-03T10:49:41.044Z</time></trkpt><trkpt lat="36.5935249" lon="9.5194085"><ele>70.0</ele><time>2026-05-03T10:49:42.059Z</time></trkpt><trkpt lat="36.5933631" lon="9.5193651"><ele>70.0</ele><time>2026-05-03T10:49:43.051Z</time></trkpt><trkpt lat="36.5932032" lon="9.5193229"><ele>70.0</ele><time>2026-05-03T10:49:44.064Z</time></trkpt><trkpt lat="36.5930459" lon="9.5192818"><ele>70.0</ele><time>2026-05-03T10:49:45.044Z</time></trkpt><trkpt lat="36.5928806" lon="9.519238"><ele>70.0</ele><time>2026-05-03T10:49:46.055Z</time></trkpt><trkpt lat="36.5927128" lon="9.5191964"><ele>70.0</ele><time>2026-05-03T10:49:47.068Z</time></trkpt><trkpt lat="36.5925393" lon="9.5191512"><ele>68.66666666666666</ele><time>2026-05-03T10:49:48.054Z</time></trkpt><trkpt lat="36.5923613" lon="9.5191048"><ele>67.33333333333333</ele><time>2026-05-03T10:49:49.058Z</time></trkpt><trkpt lat="36.592179" lon="9.5190562"><ele>66.0</ele><time>2026-05-03T10:49:50.053Z</time></trkpt><trkpt lat="36.5919966" lon="9.5190135"><ele>65.33333333333333</ele><time>2026-05-03T10:49:51.052Z</time></trkpt><trkpt lat="36.5918096" lon="9.5189795"><ele>64.66666666666666</ele><time>2026-05-03T10:49:52.06Z</time></trkpt><trkpt lat="36.5916255" lon="9.5189581"><ele>64.0</ele><time>2026-05-03T10:49:53.061Z</time></trkpt><trkpt lat="36.5914426" lon="9.5189425"><ele>64.0</ele><time>2026-05-03T10:49:54.052Z</time></trkpt><trkpt lat="36.5912587" lon="9.518944"><ele>64.0</ele><time>2026-05-03T10:49:55.029Z</time></trkpt><trkpt lat="36.5910657" lon="9.5189601"><ele>64.0</ele><time>2026-05-03T10:49:56.059Z</time></trkpt><trkpt lat="36.5908645" lon="9.5189916"><ele>64.0</ele><time>2026-05-03T10:49:57.037Z</time></trkpt><trkpt lat="36.590664" lon="9.5190346"><ele>64.0</ele><time>2026-05-03T10:49:58.042Z</time></trkpt><trkpt lat="36.5904687" lon="9.5190922"><ele>64.0</ele><time>2026-05-03T10:49:59.056Z</time></trkpt><trkpt lat="36.5902754" lon="9.5191495"><ele>62.666666666666664</ele><time>2026-05-03T10:50:00.027Z</time></trkpt><trkpt lat="36.5900848" lon="9.5192084"><ele>61.33333333333333</ele><time>2026-05-03T10:50:01.07Z</time></trkpt><trkpt lat="36.5898987" lon="9.5192704"><ele>60.0</ele><time>2026-05-03T10:50:02.049Z</time></trkpt><trkpt lat="36.5897171" lon="9.5193256"><ele>60.0</ele><time>2026-05-03T10:50:03.054Z</time></trkpt><trkpt lat="36.5895407" lon="9.5193796"><ele>60.0</ele><time>2026-05-03T10:50:04.046Z</time></trkpt><trkpt lat="36.5893706" lon="9.5194306"><ele>60.0</ele><time>2026-05-03T10:50:05.053Z</time></trkpt><trkpt lat="36.5892108" lon="9.5194807"><ele>59.33333333333333</ele><time>2026-05-03T10:50:06.072Z</time></trkpt><trkpt lat="36.5890563" lon="9.5195318"><ele>58.666666666666664</ele><time>2026-05-03T10:50:07.065Z</time></trkpt><trkpt lat="36.5889069" lon="9.5195811"><ele>58.0</ele><time>2026-05-03T10:50:08.05Z</time></trkpt><trkpt lat="36.5887623" lon="9.5196263"><ele>60.33333333333333</ele><time>2026-05-03T10:50:09.055Z</time></trkpt><trkpt lat="36.5886199" lon="9.519672"><ele>62.66666666666667</ele><time>2026-05-03T10:50:10.037Z</time></trkpt><trkpt lat="36.5884751" lon="9.5197189"><ele>65.0</ele><time>2026-05-03T10:50:11.056Z</time></trkpt><trkpt lat="36.5883248" lon="9.5197586"><ele>65.0</ele><time>2026-05-03T10:50:12.052Z</time></trkpt><trkpt lat="36.5881783" lon="9.5197924"><ele>65.0</ele><time>2026-05-03T10:50:13.051Z</time></trkpt><trkpt lat="36.5880287" lon="9.5198049"><ele>65.0</ele><time>2026-05-03T10:50:14.047Z</time></trkpt><trkpt lat="36.587888" lon="9.5198029"><ele>65.0</ele><time>2026-05-03T10:50:15.036Z</time></trkpt><trkpt lat="36.5877504" lon="9.519778"><ele>65.0</ele><time>2026-05-03T10:50:16.046Z</time></trkpt><trkpt lat="36.5876176" lon="9.5197454"><ele>65.0</ele><time>2026-05-03T10:50:17.049Z</time></trkpt><trkpt lat="36.5874885" lon="9.5196999"><ele>65.0</ele><time>2026-05-03T10:50:18.05Z</time></trkpt><trkpt lat="36.5873589" lon="9.519648"><ele>65.0</ele><time>2026-05-03T10:50:19.059Z</time></trkpt><trkpt lat="36.5872367" lon="9.5195798"><ele>64.5</ele><time>2026-05-03T10:50:20.051Z</time></trkpt><trkpt lat="36.5871246" lon="9.5195128"><ele>64.0</ele><time>2026-05-03T10:50:21.054Z</time></trkpt><trkpt lat="36.5870227" lon="9.5194423"><ele>63.5</ele><time>2026-05-03T10:50:22.059Z</time></trkpt><trkpt lat="36.5869315" lon="9.5193699"><ele>63.0</ele><time>2026-05-03T10:50:23.059Z</time></trkpt><trkpt lat="36.58685" lon="9.5192909"><ele>63.666666666666664</ele><time>2026-05-03T10:50:24.061Z</time></trkpt><trkpt lat="36.5867776" lon="9.5192116"><ele>64.33333333333333</ele><time>2026-05-03T10:50:25.054Z</time></trkpt><trkpt lat="36.5867226" lon="9.5191352"><ele>65.0</ele><time>2026-05-03T10:50:26.06Z</time></trkpt><trkpt lat="36.5866731" lon="9.5190628"><ele>65.66666666666666</ele><time>2026-05-03T10:50:27.042Z</time></trkpt><trkpt lat="36.5866253" lon="9.518987"><ele>66.33333333333333</ele><time>2026-05-03T10:50:28.071Z</time></trkpt><trkpt lat="36.5865758" lon="9.518914"><ele>67.0</ele><time>2026-05-03T10:50:29.042Z</time></trkpt><trkpt lat="36.586532" lon="9.5188349"><ele>67.0</ele><time>2026-05-03T10:50:30.045Z</time></trkpt><trkpt lat="36.5864877" lon="9.5187529"><ele>67.0</ele><time>2026-05-03T10:50:31.049Z</time></trkpt><trkpt lat="36.586452" lon="9.5186765"><ele>67.0</ele><time>2026-05-03T10:50:32.046Z</time></trkpt><trkpt lat="36.5864197" lon="9.5186078"><ele>67.0</ele><time>2026-05-03T10:50:33.049Z</time></trkpt><trkpt lat="36.586373" lon="9.518484"><ele>67.0</ele><time>2026-05-03T10:50:35.065Z</time></trkpt><trkpt lat="36.5863371" lon="9.5183659"><ele>67.0</ele><time>2026-05-03T10:50:37.026Z</time></trkpt><trkpt lat="36.5863065" lon="9.5182716"><ele>67.0</ele><time>2026-05-03T10:50:39.058Z</time></trkpt><trkpt lat="36.5862875" lon="9.5181858"><ele>67.0</ele><time>2026-05-03T10:50:41.03Z</time></trkpt><trkpt lat="36.5862691" lon="9.5181099"><ele>67.0</ele><time>2026-05-03T10:50:43.064Z</time></trkpt><trkpt lat="36.5862239" lon="9.5180177"><ele>67.0</ele><time>2026-05-03T10:51:27.047Z</time></trkpt><trkpt lat="36.5861907" lon="9.5179324"><ele>67.0</ele><time>2026-05-03T10:51:28.033Z</time></trkpt><trkpt lat="36.5861542" lon="9.5178308"><ele>67.0</ele><time>2026-05-03T10:51:29.044Z</time></trkpt><trkpt lat="36.5861086" lon="9.5176893"><ele>68.66666666666666</ele><time>2026-05-03T10:51:30.049Z</time></trkpt><trkpt lat="36.5860399" lon="9.5175"><ele>70.33333333333333</ele><time>2026-05-03T10:51:31.059Z</time></trkpt><trkpt lat="36.5859669" lon="9.5172893"><ele>72.0</ele><time>2026-05-03T10:51:32.052Z</time></trkpt><trkpt lat="36.5859105" lon="9.5170855"><ele>71.33333333333333</ele><time>2026-05-03T10:51:33.042Z</time></trkpt><trkpt lat="36.5858426" lon="9.5168972"><ele>70.66666666666666</ele><time>2026-05-03T10:51:34.049Z</time></trkpt><trkpt lat="36.5857743" lon="9.5167137"><ele>70.0</ele><time>2026-05-03T10:51:35.042Z</time></trkpt><trkpt lat="36.5857163" lon="9.5165435"><ele>70.0</ele><time>2026-05-03T10:51:36.051Z</time></trkpt><trkpt lat="36.5856622" lon="9.5163755"><ele>70.0</ele><time>2026-05-03T10:51:37.043Z</time></trkpt><trkpt lat="36.5856091" lon="9.5162304"><ele>70.0</ele><time>2026-05-03T10:51:38.053Z</time></trkpt><trkpt lat="36.5855618" lon="9.5160946"><ele>70.0</ele><time>2026-05-03T10:51:39.043Z</time></trkpt><trkpt lat="36.5855139" lon="9.5159726"><ele>69.8</ele><time>2026-05-03T10:51:40.048Z</time></trkpt><trkpt lat="36.5854765" lon="9.5158613"><ele>69.6</ele><time>2026-05-03T10:51:41.044Z</time></trkpt><trkpt lat="36.5854398" lon="9.5157547"><ele>69.4</ele><time>2026-05-03T10:51:42.057Z</time></trkpt><trkpt lat="36.5853989" lon="9.5156339"><ele>69.2</ele><time>2026-05-03T10:51:43.052Z</time></trkpt><trkpt lat="36.5853523" lon="9.5154822"><ele>69.0</ele><time>2026-05-03T10:51:44.047Z</time></trkpt><trkpt lat="36.5852919" lon="9.5153069"><ele>68.66666666666667</ele><time>2026-05-03T10:51:45.054Z</time></trkpt><trkpt lat="36.5852246" lon="9.5151238"><ele>68.33333333333334</ele><time>2026-05-03T10:51:46.051Z</time></trkpt><trkpt lat="36.5851665" lon="9.514945"><ele>68.0</ele><time>2026-05-03T10:51:47.044Z</time></trkpt><trkpt lat="36.5851115" lon="9.5147799"><ele>68.0</ele><time>2026-05-03T10:51:48.045Z</time></trkpt><trkpt lat="36.5850491" lon="9.5146236"><ele>68.0</ele><time>2026-05-03T10:51:49.052Z</time></trkpt><trkpt lat="36.5849911" lon="9.5144517"><ele>68.0</ele><time>2026-05-03T10:51:50.056Z</time></trkpt><trkpt lat="36.5849294" lon="9.5142639"><ele>67.0</ele><time>2026-05-03T10:51:51.042Z</time></trkpt><trkpt lat="36.5848517" lon="9.514061"><ele>66.0</ele><time>2026-05-03T10:51:52.042Z</time></trkpt><trkpt lat="36.5847755" lon="9.5138413"><ele>65.0</ele><time>2026-05-03T10:51:53.043Z</time></trkpt><trkpt lat="36.5847043" lon="9.5136238"><ele>64.0</ele><time>2026-05-03T10:51:54.038Z</time></trkpt><trkpt lat="36.5846337" lon="9.5134131"><ele>63.0</ele><time>2026-05-03T10:51:55.044Z</time></trkpt><trkpt lat="36.5845555" lon="9.5132049"><ele>62.0</ele><time>2026-05-03T10:51:56.023Z</time></trkpt><trkpt lat="36.5844727" lon="9.5130127"><ele>61.333333333333336</ele><time>2026-05-03T10:51:57.05Z</time></trkpt><trkpt lat="36.5843843" lon="9.5128415"><ele>60.66666666666667</ele><time>2026-05-03T10:51:58.054Z</time></trkpt><trkpt lat="36.5842839" lon="9.5126793"><ele>60.0</ele><time>2026-05-03T10:51:59.048Z</time></trkpt><trkpt lat="36.5841723" lon="9.5125249"><ele>60.0</ele><time>2026-05-03T10:52:00.042Z</time></trkpt><trkpt lat="36.5840625" lon="9.5123881"><ele>60.0</ele><time>2026-05-03T10:52:01.043Z</time></trkpt><trkpt lat="36.5839553" lon="9.5122809"><ele>60.0</ele><time>2026-05-03T10:52:02.069Z</time></trkpt><trkpt lat="36.5838483" lon="9.5121927"><ele>60.0</ele><time>2026-05-03T10:52:03.043Z</time></trkpt><trkpt lat="36.5837475" lon="9.5121144"><ele>60.5</ele><time>2026-05-03T10:52:04.042Z</time></trkpt><trkpt lat="36.5836426" lon="9.5120477"><ele>61.0</ele><time>2026-05-03T10:52:05.048Z</time></trkpt><trkpt lat="36.583529" lon="9.5119956"><ele>61.5</ele><time>2026-05-03T10:52:06.061Z</time></trkpt><trkpt lat="36.5834211" lon="9.5119565"><ele>62.0</ele><time>2026-05-03T10:52:07.048Z</time></trkpt><trkpt lat="36.5833125" lon="9.5119186"><ele>62.0</ele><time>2026-05-03T10:52:08.051Z</time></trkpt><trkpt lat="36.5832139" lon="9.5118887"><ele>62.0</ele><time>2026-05-03T10:52:09.05Z</time></trkpt><trkpt lat="36.5831182" lon="9.5118502"><ele>62.0</ele><time>2026-05-03T10:52:10.057Z</time></trkpt><trkpt lat="36.5830325" lon="9.5118272"><ele>62.0</ele><time>2026-05-03T10:52:11.058Z</time></trkpt><trkpt lat="36.5829513" lon="9.5118069"><ele>62.0</ele><time>2026-05-03T10:52:12.045Z</time></trkpt><trkpt lat="36.5828751" lon="9.5117872"><ele>62.57142857142858</ele><time>2026-05-03T10:52:13.056Z</time></trkpt><trkpt lat="36.5828079" lon="9.5117641"><ele>63.14285714285715</ele><time>2026-05-03T10:52:14.059Z</time></trkpt><trkpt lat="36.5827459" lon="9.5117463"><ele>63.714285714285715</ele><time>2026-05-03T10:52:15.049Z</time></trkpt><trkpt lat="36.5826821" lon="9.5117262"><ele>64.28571428571429</ele><time>2026-05-03T10:52:16.057Z</time></trkpt><trkpt lat="36.5826076" lon="9.5116966"><ele>64.85714285714286</ele><time>2026-05-03T10:52:17.038Z</time></trkpt><trkpt lat="36.5825312" lon="9.5116727"><ele>65.42857142857143</ele><time>2026-05-03T10:52:18.059Z</time></trkpt><trkpt lat="36.5824552" lon="9.5116546"><ele>66.0</ele><time>2026-05-03T10:52:19.057Z</time></trkpt><trkpt lat="36.5823729" lon="9.5116354"><ele>66.0</ele><time>2026-05-03T10:52:20.053Z</time></trkpt><trkpt lat="36.5822959" lon="9.511607"><ele>66.0</ele><time>2026-05-03T10:52:21.049Z</time></trkpt><trkpt lat="36.5822105" lon="9.5115785"><ele>66.0</ele><time>2026-05-03T10:52:22.057Z</time></trkpt><trkpt lat="36.5821295" lon="9.5115484"><ele>66.0</ele><time>2026-05-03T10:52:23.05Z</time></trkpt><trkpt lat="36.5820415" lon="9.5115186"><ele>66.0</ele><time>2026-05-03T10:52:24.059Z</time></trkpt><trkpt lat="36.5819616" lon="9.51149"><ele>66.0</ele><time>2026-05-03T10:52:25.053Z</time></trkpt><trkpt lat="36.5818839" lon="9.5114673"><ele>67.6</ele><time>2026-05-03T10:52:26.047Z</time></trkpt><trkpt lat="36.5817956" lon="9.5114464"><ele>69.19999999999999</ele><time>2026-05-03T10:52:27.075Z</time></trkpt><trkpt lat="36.5816991" lon="9.5114188"><ele>70.80000000000001</ele><time>2026-05-03T10:52:28.049Z</time></trkpt><trkpt lat="36.5816088" lon="9.5113881"><ele>72.4</ele><time>2026-05-03T10:52:29.031Z</time></trkpt><trkpt lat="36.5815177" lon="9.5113496"><ele>74.0</ele><time>2026-05-03T10:52:30.057Z</time></trkpt><trkpt lat="36.581435" lon="9.5113157"><ele>74.0</ele><time>2026-05-03T10:52:31.073Z</time></trkpt><trkpt lat="36.5813496" lon="9.5112736"><ele>74.0</ele><time>2026-05-03T10:52:32.063Z</time></trkpt><trkpt lat="36.5812601" lon="9.5112257"><ele>74.0</ele><time>2026-05-03T10:52:33.066Z</time></trkpt><trkpt lat="36.5811692" lon="9.5111665"><ele>74.0</ele><time>2026-05-03T10:52:34.058Z</time></trkpt><trkpt lat="36.5810769" lon="9.5111011"><ele>74.0</ele><time>2026-05-03T10:52:35.059Z</time></trkpt><trkpt lat="36.5809812" lon="9.5110265"><ele>72.25</ele><time>2026-05-03T10:52:36.047Z</time></trkpt><trkpt lat="36.5808849" lon="9.5109452"><ele>70.5</ele><time>2026-05-03T10:52:37.059Z</time></trkpt><trkpt lat="36.5807904" lon="9.5108696"><ele>68.75</ele><time>2026-05-03T10:52:38.048Z</time></trkpt><trkpt lat="36.5806965" lon="9.5107927"><ele>67.0</ele><time>2026-05-03T10:52:39.048Z</time></trkpt><trkpt lat="36.5806033" lon="9.5107176"><ele>67.0</ele><time>2026-05-03T10:52:40.046Z</time></trkpt><trkpt lat="36.5805154" lon="9.510645"><ele>67.0</ele><time>2026-05-03T10:52:41.053Z</time></trkpt><trkpt lat="36.5804317" lon="9.5105727"><ele>67.0</ele><time>2026-05-03T10:52:42.062Z</time></trkpt><trkpt lat="36.580346" lon="9.5105021"><ele>67.0</ele><time>2026-05-03T10:52:43.064Z</time></trkpt><trkpt lat="36.5802663" lon="9.5104393"><ele>67.0</ele><time>2026-05-03T10:52:44.025Z</time></trkpt><trkpt lat="36.5801996" lon="9.5103774"><ele>67.66666666666666</ele><time>2026-05-03T10:52:45.055Z</time></trkpt><trkpt lat="36.5801363" lon="9.5103254"><ele>68.33333333333333</ele><time>2026-05-03T10:52:46.054Z</time></trkpt><trkpt lat="36.5800832" lon="9.5102693"><ele>69.0</ele><time>2026-05-03T10:52:47.046Z</time></trkpt><trkpt lat="36.5800284" lon="9.5102103"><ele>69.66666666666667</ele><time>2026-05-03T10:52:48.05Z</time></trkpt><trkpt lat="36.5799657" lon="9.5101466"><ele>70.33333333333334</ele><time>2026-05-03T10:52:49.041Z</time></trkpt><trkpt lat="36.5799161" lon="9.5100731"><ele>71.0</ele><time>2026-05-03T10:52:50.039Z</time></trkpt><trkpt lat="36.5798652" lon="9.5099879"><ele>71.0</ele><time>2026-05-03T10:52:51.022Z</time></trkpt><trkpt lat="36.5798161" lon="9.5098863"><ele>71.0</ele><time>2026-05-03T10:52:52.044Z</time></trkpt><trkpt lat="36.5797774" lon="9.5097793"><ele>71.0</ele><time>2026-05-03T10:52:53.053Z</time></trkpt><trkpt lat="36.5797341" lon="9.509669"><ele>71.0</ele><time>2026-05-03T10:52:54.072Z</time></trkpt><trkpt lat="36.5796953" lon="9.5095618"><ele>71.0</ele><time>2026-05-03T10:52:55.052Z</time></trkpt><trkpt lat="36.5796592" lon="9.5094605"><ele>69.83333333333334</ele><time>2026-05-03T10:52:56.053Z</time></trkpt><trkpt lat="36.5796254" lon="9.5093573"><ele>68.66666666666667</ele><time>2026-05-03T10:52:57.031Z</time></trkpt><trkpt lat="36.5795893" lon="9.5092655"><ele>67.5</ele><time>2026-05-03T10:52:58.057Z</time></trkpt><trkpt lat="36.5795533" lon="9.5091754"><ele>66.33333333333333</ele><time>2026-05-03T10:52:59.049Z</time></trkpt><trkpt lat="36.5795219" lon="9.5090789"><ele>65.16666666666666</ele><time>2026-05-03T10:53:00.047Z</time></trkpt><trkpt lat="36.5794881" lon="9.5089863"><ele>64.0</ele><time>2026-05-03T10:53:01.058Z</time></trkpt><trkpt lat="36.5794578" lon="9.5089005"><ele>65.16666666666666</ele><time>2026-05-03T10:53:02.043Z</time></trkpt><trkpt lat="36.5794303" lon="9.5088139"><ele>66.33333333333333</ele><time>2026-05-03T10:53:03.036Z</time></trkpt><trkpt lat="36.5793989" lon="9.5087226"><ele>67.5</ele><time>2026-05-03T10:53:04.037Z</time></trkpt><trkpt lat="36.5793658" lon="9.5086246"><ele>68.66666666666667</ele><time>2026-05-03T10:53:05.052Z</time></trkpt><trkpt lat="36.5793318" lon="9.5085321"><ele>69.83333333333334</ele><time>2026-05-03T10:53:06.052Z</time></trkpt><trkpt lat="36.5792962" lon="9.5084279"><ele>71.0</ele><time>2026-05-03T10:53:07.048Z</time></trkpt><trkpt lat="36.5792539" lon="9.5083076"><ele>71.0</ele><time>2026-05-03T10:53:08.059Z</time></trkpt><trkpt lat="36.5792074" lon="9.5081882"><ele>71.0</ele><time>2026-05-03T10:53:09.055Z</time></trkpt><trkpt lat="36.57916" lon="9.5080671"><ele>71.0</ele><time>2026-05-03T10:53:10.054Z</time></trkpt><trkpt lat="36.5791106" lon="9.5079455"><ele>71.0</ele><time>2026-05-03T10:53:11.049Z</time></trkpt><trkpt lat="36.5790669" lon="9.5078257"><ele>71.0</ele><time>2026-05-03T10:53:12.062Z</time></trkpt><trkpt lat="36.579019" lon="9.5077113"><ele>70.0</ele><time>2026-05-03T10:53:13.047Z</time></trkpt><trkpt lat="36.5789678" lon="9.5075877"><ele>69.0</ele><time>2026-05-03T10:53:14.043Z</time></trkpt><trkpt lat="36.5789164" lon="9.5074733"><ele>68.0</ele><time>2026-05-03T10:53:15.04Z</time></trkpt><trkpt lat="36.5788632" lon="9.5073622"><ele>67.0</ele><time>2026-05-03T10:53:16.032Z</time></trkpt><trkpt lat="36.5788199" lon="9.5072602"><ele>66.0</ele><time>2026-05-03T10:53:17.04Z</time></trkpt><trkpt lat="36.5787789" lon="9.5071671"><ele>66.0</ele><time>2026-05-03T10:53:18.041Z</time></trkpt><trkpt lat="36.5787396" lon="9.5070786"><ele>66.0</ele><time>2026-05-03T10:53:19.042Z</time></trkpt><trkpt lat="36.5787034" lon="9.5069997"><ele>66.0</ele><time>2026-05-03T10:53:20.044Z</time></trkpt><trkpt lat="36.5786707" lon="9.506919"><ele>66.0</ele><time>2026-05-03T10:53:21.048Z</time></trkpt><trkpt lat="36.5786388" lon="9.5068447"><ele>66.0</ele><time>2026-05-03T10:53:22.06Z</time></trkpt><trkpt lat="36.5786031" lon="9.5067622"><ele>66.0</ele><time>2026-05-03T10:53:23.055Z</time></trkpt><trkpt lat="36.5785585" lon="9.5066639"><ele>66.0</ele><time>2026-05-03T10:53:24.059Z</time></trkpt><trkpt lat="36.5785048" lon="9.5065556"><ele>66.0</ele><time>2026-05-03T10:53:25.045Z</time></trkpt><trkpt lat="36.5784475" lon="9.5064303"><ele>66.0</ele><time>2026-05-03T10:53:26.06Z</time></trkpt><trkpt lat="36.5783891" lon="9.5062927"><ele>66.0</ele><time>2026-05-03T10:53:27.033Z</time></trkpt><trkpt lat="36.5783223" lon="9.5061492"><ele>66.0</ele><time>2026-05-03T10:53:28.063Z</time></trkpt><trkpt lat="36.578263" lon="9.5060092"><ele>66.0</ele><time>2026-05-03T10:53:29.053Z</time></trkpt><trkpt lat="36.5782005" lon="9.5058648"><ele>66.0</ele><time>2026-05-03T10:53:30.046Z</time></trkpt><trkpt lat="36.578132" lon="9.5057075"><ele>66.0</ele><time>2026-05-03T10:53:31.049Z</time></trkpt><trkpt lat="36.5780598" lon="9.5055476"><ele>66.0</ele><time>2026-05-03T10:53:32.073Z</time></trkpt><trkpt lat="36.5779878" lon="9.5053979"><ele>66.0</ele><time>2026-05-03T10:53:33.065Z</time></trkpt><trkpt lat="36.5779204" lon="9.5052608"><ele>66.0</ele><time>2026-05-03T10:53:34.041Z</time></trkpt><trkpt lat="36.5778609" lon="9.5051277"><ele>66.0</ele><time>2026-05-03T10:53:35.048Z</time></trkpt><trkpt lat="36.5778074" lon="9.5049977"><ele>67.0</ele><time>2026-05-03T10:53:36.059Z</time></trkpt><trkpt lat="36.5777513" lon="9.5048715"><ele>68.0</ele><time>2026-05-03T10:53:37.057Z</time></trkpt><trkpt lat="36.5776942" lon="9.5047403"><ele>69.0</ele><time>2026-05-03T10:53:38.043Z</time></trkpt><trkpt lat="36.5776373" lon="9.5046074"><ele>70.0</ele><time>2026-05-03T10:53:39.063Z</time></trkpt><trkpt lat="36.5775817" lon="9.5044698"><ele>70.0</ele><time>2026-05-03T10:53:40.046Z</time></trkpt><trkpt lat="36.5775275" lon="9.5043238"><ele>70.0</ele><time>2026-05-03T10:53:41.046Z</time></trkpt><trkpt lat="36.5774751" lon="9.5041667"><ele>70.0</ele><time>2026-05-03T10:53:42.041Z</time></trkpt><trkpt lat="36.5774254" lon="9.5040116"><ele>70.0</ele><time>2026-05-03T10:53:43.043Z</time></trkpt><trkpt lat="36.5773811" lon="9.5038451"><ele>69.5</ele><time>2026-05-03T10:53:44.046Z</time></trkpt><trkpt lat="36.5773358" lon="9.5036777"><ele>69.0</ele><time>2026-05-03T10:53:45.05Z</time></trkpt><trkpt lat="36.5772953" lon="9.5035191"><ele>68.5</ele><time>2026-05-03T10:53:46.057Z</time></trkpt><trkpt lat="36.5772592" lon="9.5033665"><ele>68.0</ele><time>2026-05-03T10:53:47.054Z</time></trkpt><trkpt lat="36.5772294" lon="9.5032239"><ele>68.0</ele><time>2026-05-03T10:53:48.064Z</time></trkpt><trkpt lat="36.5772016" lon="9.5030921"><ele>68.0</ele><time>2026-05-03T10:53:49.054Z</time></trkpt><trkpt lat="36.5771804" lon="9.5029704"><ele>68.0</ele><time>2026-05-03T10:53:50.051Z</time></trkpt><trkpt lat="36.5771627" lon="9.5028624"><ele>68.0</ele><time>2026-05-03T10:53:51.037Z</time></trkpt><trkpt lat="36.5771486" lon="9.5027619"><ele>68.0</ele><time>2026-05-03T10:53:52.046Z</time></trkpt><trkpt lat="36.5771299" lon="9.5026595"><ele>68.2</ele><time>2026-05-03T10:53:53.071Z</time></trkpt><trkpt lat="36.5771098" lon="9.502551"><ele>68.4</ele><time>2026-05-03T10:53:54.051Z</time></trkpt><trkpt lat="36.5770895" lon="9.5024261"><ele>68.60000000000001</ele><time>2026-05-03T10:53:55.043Z</time></trkpt><trkpt lat="36.5770709" lon="9.5022843"><ele>68.8</ele><time>2026-05-03T10:53:56.056Z</time></trkpt><trkpt lat="36.5770511" lon="9.502132"><ele>69.0</ele><time>2026-05-03T10:53:57.059Z</time></trkpt><trkpt lat="36.5770313" lon="9.5019693"><ele>69.0</ele><time>2026-05-03T10:53:58.017Z</time></trkpt><trkpt lat="36.576994" lon="9.5016477"><ele>69.0</ele><time>2026-05-03T10:54:00.068Z</time></trkpt><trkpt lat="36.5769762" lon="9.5014784"><ele>69.0</ele><time>2026-05-03T10:54:01.055Z</time></trkpt><trkpt lat="36.5769535" lon="9.5013098"><ele>69.0</ele><time>2026-05-03T10:54:02.059Z</time></trkpt><trkpt lat="36.576931" lon="9.5011356"><ele>69.0</ele><time>2026-05-03T10:54:03.05Z</time></trkpt><trkpt lat="36.5769075" lon="9.5009557"><ele>69.0</ele><time>2026-05-03T10:54:04.062Z</time></trkpt><trkpt lat="36.5768872" lon="9.5007742"><ele>69.0</ele><time>2026-05-03T10:54:05.055Z</time></trkpt><trkpt lat="36.576868" lon="9.5005919"><ele>68.75</ele><time>2026-05-03T10:54:06.06Z</time></trkpt><trkpt lat="36.5768476" lon="9.5004052"><ele>68.5</ele><time>2026-05-03T10:54:07.065Z</time></trkpt><trkpt lat="36.5768253" lon="9.5002231"><ele>68.25</ele><time>2026-05-03T10:54:08.053Z</time></trkpt><trkpt lat="36.5768034" lon="9.5000398"><ele>68.0</ele><time>2026-05-03T10:54:09.052Z</time></trkpt><trkpt lat="36.5767816" lon="9.4998576"><ele>68.0</ele><time>2026-05-03T10:54:10.064Z</time></trkpt><trkpt lat="36.5767583" lon="9.4996749"><ele>68.0</ele><time>2026-05-03T10:54:11.057Z</time></trkpt><trkpt lat="36.5767317" lon="9.4994885"><ele>68.0</ele><time>2026-05-03T10:54:12.059Z</time></trkpt><trkpt lat="36.5767108" lon="9.4993005"><ele>68.33333333333334</ele><time>2026-05-03T10:54:13.047Z</time></trkpt><trkpt lat="36.5766872" lon="9.4991118"><ele>68.66666666666667</ele><time>2026-05-03T10:54:14.037Z</time></trkpt><trkpt lat="36.5766663" lon="9.4989281"><ele>69.0</ele><time>2026-05-03T10:54:15.053Z</time></trkpt><trkpt lat="36.5766414" lon="9.4987327"><ele>69.66666666666667</ele><time>2026-05-03T10:54:16.053Z</time></trkpt><trkpt lat="36.5766188" lon="9.498533"><ele>70.33333333333334</ele><time>2026-05-03T10:54:17.059Z</time></trkpt><trkpt lat="36.5765947" lon="9.4983296"><ele>71.0</ele><time>2026-05-03T10:54:18.072Z</time></trkpt><trkpt lat="36.5765712" lon="9.4981204"><ele>71.66666666666667</ele><time>2026-05-03T10:54:19.029Z</time></trkpt><trkpt lat="36.5765456" lon="9.4979102"><ele>72.33333333333333</ele><time>2026-05-03T10:54:20.046Z</time></trkpt><trkpt lat="36.5765197" lon="9.4976961"><ele>73.0</ele><time>2026-05-03T10:54:21.052Z</time></trkpt><trkpt lat="36.5764913" lon="9.4974779"><ele>73.0</ele><time>2026-05-03T10:54:22.051Z</time></trkpt><trkpt lat="36.5764622" lon="9.4972574"><ele>73.0</ele><time>2026-05-03T10:54:23.045Z</time></trkpt><trkpt lat="36.5764351" lon="9.4970405"><ele>73.0</ele><time>2026-05-03T10:54:24.05Z</time></trkpt><trkpt lat="36.5764057" lon="9.4968199"><ele>73.0</ele><time>2026-05-03T10:54:25.057Z</time></trkpt><trkpt lat="36.5763737" lon="9.4966064"><ele>73.0</ele><time>2026-05-03T10:54:26.039Z</time></trkpt><trkpt lat="36.5763405" lon="9.4963923"><ele>73.0</ele><time>2026-05-03T10:54:27.076Z</time></trkpt><trkpt lat="36.5763038" lon="9.496173"><ele>73.33333333333333</ele><time>2026-05-03T10:54:28.047Z</time></trkpt><trkpt lat="36.5762618" lon="9.4959539"><ele>73.66666666666667</ele><time>2026-05-03T10:54:29.058Z</time></trkpt><trkpt lat="36.5762185" lon="9.4957306"><ele>74.0</ele><time>2026-05-03T10:54:30.05Z</time></trkpt><trkpt lat="36.5761596" lon="9.495512"><ele>74.66666666666667</ele><time>2026-05-03T10:54:31.043Z</time></trkpt><trkpt lat="36.5760925" lon="9.4952976"><ele>75.33333333333333</ele><time>2026-05-03T10:54:32.057Z</time></trkpt><trkpt lat="36.5760215" lon="9.4950862"><ele>76.0</ele><time>2026-05-03T10:54:33.056Z</time></trkpt><trkpt lat="36.5759431" lon="9.4948795"><ele>76.0</ele><time>2026-05-03T10:54:34.056Z</time></trkpt><trkpt lat="36.5758606" lon="9.4946735"><ele>76.0</ele><time>2026-05-03T10:54:35.051Z</time></trkpt><trkpt lat="36.5757777" lon="9.4944753"><ele>76.0</ele><time>2026-05-03T10:54:36.054Z</time></trkpt><trkpt lat="36.5756973" lon="9.4942774"><ele>76.33333333333333</ele><time>2026-05-03T10:54:37.05Z</time></trkpt><trkpt lat="36.5756099" lon="9.4940866"><ele>76.66666666666667</ele><time>2026-05-03T10:54:38.043Z</time></trkpt><trkpt lat="36.5755184" lon="9.4938905"><ele>77.0</ele><time>2026-05-03T10:54:39.046Z</time></trkpt><trkpt lat="36.5754303" lon="9.4937029"><ele>78.33333333333334</ele><time>2026-05-03T10:54:40.054Z</time></trkpt><trkpt lat="36.57534" lon="9.4935099"><ele>79.66666666666667</ele><time>2026-05-03T10:54:41.029Z</time></trkpt><trkpt lat="36.5752507" lon="9.4933083"><ele>81.0</ele><time>2026-05-03T10:54:42.034Z</time></trkpt><trkpt lat="36.5751578" lon="9.4931116"><ele>80.33333333333333</ele><time>2026-05-03T10:54:43.056Z</time></trkpt><trkpt lat="36.5750622" lon="9.4929126"><ele>79.66666666666666</ele><time>2026-05-03T10:54:44.074Z</time></trkpt><trkpt lat="36.5749632" lon="9.4927127"><ele>79.0</ele><time>2026-05-03T10:54:45.059Z</time></trkpt><trkpt lat="36.5748635" lon="9.4925054"><ele>79.0</ele><time>2026-05-03T10:54:46.036Z</time></trkpt><trkpt lat="36.5747593" lon="9.4923026"><ele>79.0</ele><time>2026-05-03T10:54:47.038Z</time></trkpt><trkpt lat="36.5746476" lon="9.4920899"><ele>79.0</ele><time>2026-05-03T10:54:48.039Z</time></trkpt><trkpt lat="36.5745275" lon="9.4918804"><ele>78.33333333333333</ele><time>2026-05-03T10:54:49.032Z</time></trkpt><trkpt lat="36.574409" lon="9.4916724"><ele>77.66666666666667</ele><time>2026-05-03T10:54:50.028Z</time></trkpt><trkpt lat="36.574289" lon="9.4914664"><ele>77.0</ele><time>2026-05-03T10:54:51.036Z</time></trkpt><trkpt lat="36.5741698" lon="9.4912673"><ele>75.0</ele><time>2026-05-03T10:54:52.064Z</time></trkpt><trkpt lat="36.5740533" lon="9.4910665"><ele>73.0</ele><time>2026-05-03T10:54:53.056Z</time></trkpt><trkpt lat="36.5739345" lon="9.4908591"><ele>71.0</ele><time>2026-05-03T10:54:54.045Z</time></trkpt><trkpt lat="36.5738198" lon="9.4906525"><ele>71.0</ele><time>2026-05-03T10:54:55.033Z</time></trkpt><trkpt lat="36.5737053" lon="9.4904499"><ele>71.0</ele><time>2026-05-03T10:54:56.037Z</time></trkpt><trkpt lat="36.573595" lon="9.4902504"><ele>71.0</ele><time>2026-05-03T10:54:57.044Z</time></trkpt><trkpt lat="36.5734801" lon="9.4900494"><ele>72.0</ele><time>2026-05-03T10:54:58.071Z</time></trkpt><trkpt lat="36.5733653" lon="9.4898445"><ele>73.0</ele><time>2026-05-03T10:54:59.049Z</time></trkpt><trkpt lat="36.5732509" lon="9.4896415"><ele>74.0</ele><time>2026-05-03T10:55:00.055Z</time></trkpt><trkpt lat="36.5731347" lon="9.4894347"><ele>73.33333333333334</ele><time>2026-05-03T10:55:01.041Z</time></trkpt><trkpt lat="36.5730215" lon="9.489232"><ele>72.66666666666667</ele><time>2026-05-03T10:55:02.068Z</time></trkpt><trkpt lat="36.5729053" lon="9.4890312"><ele>72.0</ele><time>2026-05-03T10:55:03.051Z</time></trkpt><trkpt lat="36.5727926" lon="9.4888309"><ele>71.66666666666667</ele><time>2026-05-03T10:55:04.05Z</time></trkpt><trkpt lat="36.5726786" lon="9.4886318"><ele>71.33333333333334</ele><time>2026-05-03T10:55:05.043Z</time></trkpt><trkpt lat="36.5725627" lon="9.4884266"><ele>71.0</ele><time>2026-05-03T10:55:06.032Z</time></trkpt><trkpt lat="36.5724459" lon="9.4882218"><ele>71.0</ele><time>2026-05-03T10:55:07.044Z</time></trkpt><trkpt lat="36.5723321" lon="9.488023"><ele>71.0</ele><time>2026-05-03T10:55:08.055Z</time></trkpt><trkpt lat="36.5722145" lon="9.4878187"><ele>71.0</ele><time>2026-05-03T10:55:09.052Z</time></trkpt><trkpt lat="36.5720971" lon="9.4876203"><ele>71.33333333333334</ele><time>2026-05-03T10:55:10.06Z</time></trkpt><trkpt lat="36.5719814" lon="9.4874178"><ele>71.66666666666667</ele><time>2026-05-03T10:55:11.046Z</time></trkpt><trkpt lat="36.571866" lon="9.4872178"><ele>72.0</ele><time>2026-05-03T10:55:12.031Z</time></trkpt><trkpt lat="36.5717514" lon="9.4870193"><ele>72.0</ele><time>2026-05-03T10:55:13.043Z</time></trkpt><trkpt lat="36.5716361" lon="9.4868113"><ele>72.0</ele><time>2026-05-03T10:55:14.046Z</time></trkpt><trkpt lat="36.5715248" lon="9.4866163"><ele>72.0</ele><time>2026-05-03T10:55:15.059Z</time></trkpt><trkpt lat="36.5714217" lon="9.4864277"><ele>71.66666666666667</ele><time>2026-05-03T10:55:16.035Z</time></trkpt><trkpt lat="36.5713199" lon="9.4862508"><ele>71.33333333333334</ele><time>2026-05-03T10:55:17.052Z</time></trkpt><trkpt lat="36.5712187" lon="9.486073"><ele>71.0</ele><time>2026-05-03T10:55:18.048Z</time></trkpt><trkpt lat="36.5711191" lon="9.4858961"><ele>70.33333333333334</ele><time>2026-05-03T10:55:19.054Z</time></trkpt><trkpt lat="36.5710172" lon="9.4857151"><ele>69.66666666666667</ele><time>2026-05-03T10:55:20.046Z</time></trkpt><trkpt lat="36.5709093" lon="9.4855393"><ele>69.0</ele><time>2026-05-03T10:55:21.043Z</time></trkpt><trkpt lat="36.5708034" lon="9.4853608"><ele>68.66666666666667</ele><time>2026-05-03T10:55:22.033Z</time></trkpt><trkpt lat="36.5706956" lon="9.4851773"><ele>68.33333333333334</ele><time>2026-05-03T10:55:23.057Z</time></trkpt><trkpt lat="36.57059" lon="9.4849869"><ele>68.0</ele><time>2026-05-03T10:55:24.046Z</time></trkpt><trkpt lat="36.5704841" lon="9.4847979"><ele>68.0</ele><time>2026-05-03T10:55:25.045Z</time></trkpt><trkpt lat="36.5703782" lon="9.4846052"><ele>68.0</ele><time>2026-05-03T10:55:26.06Z</time></trkpt><trkpt lat="36.5702712" lon="9.484415"><ele>68.0</ele><time>2026-05-03T10:55:27.068Z</time></trkpt><trkpt lat="36.5701603" lon="9.4842245"><ele>68.0</ele><time>2026-05-03T10:55:28.046Z</time></trkpt><trkpt lat="36.570055" lon="9.484036"><ele>68.0</ele><time>2026-05-03T10:55:29.047Z</time></trkpt><trkpt lat="36.569948" lon="9.483851"><ele>68.0</ele><time>2026-05-03T10:55:30.049Z</time></trkpt><trkpt lat="36.5698427" lon="9.4836636"><ele>68.33333333333334</ele><time>2026-05-03T10:55:31.063Z</time></trkpt><trkpt lat="36.5697383" lon="9.4834779"><ele>68.66666666666667</ele><time>2026-05-03T10:55:32.051Z</time></trkpt><trkpt lat="36.5696304" lon="9.4832954"><ele>69.0</ele><time>2026-05-03T10:55:33.074Z</time></trkpt><trkpt lat="36.56953" lon="9.4831215"><ele>70.0</ele><time>2026-05-03T10:55:34.061Z</time></trkpt><trkpt lat="36.5694351" lon="9.4829524"><ele>71.0</ele><time>2026-05-03T10:55:35.068Z</time></trkpt><trkpt lat="36.5693429" lon="9.4827833"><ele>72.0</ele><time>2026-05-03T10:55:36.067Z</time></trkpt><trkpt lat="36.5692533" lon="9.4826204"><ele>72.0</ele><time>2026-05-03T10:55:37.048Z</time></trkpt><trkpt lat="36.56916" lon="9.4824577"><ele>72.0</ele><time>2026-05-03T10:55:38.073Z</time></trkpt><trkpt lat="36.5690686" lon="9.4822922"><ele>72.0</ele><time>2026-05-03T10:55:39.058Z</time></trkpt><trkpt lat="36.5689775" lon="9.4821276"><ele>71.33333333333333</ele><time>2026-05-03T10:55:40.056Z</time></trkpt><trkpt lat="36.5688858" lon="9.4819567"><ele>70.66666666666666</ele><time>2026-05-03T10:55:41.055Z</time></trkpt><trkpt lat="36.5687994" lon="9.4817867"><ele>70.0</ele><time>2026-05-03T10:55:42.06Z</time></trkpt><trkpt lat="36.5687129" lon="9.481615"><ele>71.66666666666666</ele><time>2026-05-03T10:55:43.043Z</time></trkpt><trkpt lat="36.5686338" lon="9.481439"><ele>73.33333333333333</ele><time>2026-05-03T10:55:44.054Z</time></trkpt><trkpt lat="36.5685595" lon="9.4812623"><ele>75.0</ele><time>2026-05-03T10:55:45.038Z</time></trkpt><trkpt lat="36.5684829" lon="9.4810792"><ele>75.0</ele><time>2026-05-03T10:55:46.043Z</time></trkpt><trkpt lat="36.5684115" lon="9.4808941"><ele>75.0</ele><time>2026-05-03T10:55:47.036Z</time></trkpt><trkpt lat="36.5683465" lon="9.4807087"><ele>75.0</ele><time>2026-05-03T10:55:48.054Z</time></trkpt><trkpt lat="36.5682825" lon="9.4805248"><ele>74.75</ele><time>2026-05-03T10:55:49.054Z</time></trkpt><trkpt lat="36.5682197" lon="9.4803467"><ele>74.5</ele><time>2026-05-03T10:55:50.049Z</time></trkpt><trkpt lat="36.568163" lon="9.480176"><ele>74.25</ele><time>2026-05-03T10:55:51.049Z</time></trkpt><trkpt lat="36.5681114" lon="9.4800093"><ele>74.0</ele><time>2026-05-03T10:55:52.045Z</time></trkpt><trkpt lat="36.5680576" lon="9.4798393"><ele>74.0</ele><time>2026-05-03T10:55:53.048Z</time></trkpt><trkpt lat="36.5680009" lon="9.47967"><ele>74.0</ele><time>2026-05-03T10:55:54.067Z</time></trkpt><trkpt lat="36.5679482" lon="9.4794908"><ele>74.0</ele><time>2026-05-03T10:55:55.06Z</time></trkpt><trkpt lat="36.567896" lon="9.4793152"><ele>75.0</ele><time>2026-05-03T10:55:56.064Z</time></trkpt><trkpt lat="36.5678439" lon="9.4791431"><ele>76.0</ele><time>2026-05-03T10:55:57.061Z</time></trkpt><trkpt lat="36.5677948" lon="9.4789733"><ele>77.0</ele><time>2026-05-03T10:55:58.04Z</time></trkpt><trkpt lat="36.5677415" lon="9.4788023"><ele>78.0</ele><time>2026-05-03T10:55:59.046Z</time></trkpt><trkpt lat="36.5676882" lon="9.4786318"><ele>78.0</ele><time>2026-05-03T10:56:00.061Z</time></trkpt><trkpt lat="36.5676355" lon="9.4784614"><ele>78.0</ele><time>2026-05-03T10:56:01.051Z</time></trkpt><trkpt lat="36.5675844" lon="9.4782963"><ele>78.0</ele><time>2026-05-03T10:56:02.057Z</time></trkpt><trkpt lat="36.5675324" lon="9.4781366"><ele>78.0</ele><time>2026-05-03T10:56:03.029Z</time></trkpt><trkpt lat="36.567484" lon="9.4779689"><ele>77.75</ele><time>2026-05-03T10:56:04.062Z</time></trkpt><trkpt lat="36.5674348" lon="9.4778042"><ele>77.5</ele><time>2026-05-03T10:56:05.065Z</time></trkpt><trkpt lat="36.5673845" lon="9.4776497"><ele>77.25</ele><time>2026-05-03T10:56:06.057Z</time></trkpt><trkpt lat="36.5673309" lon="9.4774985"><ele>77.0</ele><time>2026-05-03T10:56:07.054Z</time></trkpt><trkpt lat="36.5672676" lon="9.4773495"><ele>77.0</ele><time>2026-05-03T10:56:08.05Z</time></trkpt><trkpt lat="36.5672055" lon="9.4772095"><ele>77.0</ele><time>2026-05-03T10:56:09.035Z</time></trkpt><trkpt lat="36.5671469" lon="9.4770722"><ele>77.0</ele><time>2026-05-03T10:56:10.048Z</time></trkpt><trkpt lat="36.5670834" lon="9.4769325"><ele>77.0</ele><time>2026-05-03T10:56:11.036Z</time></trkpt><trkpt lat="36.5670157" lon="9.4768052"><ele>77.75</ele><time>2026-05-03T10:56:12.07Z</time></trkpt><trkpt lat="36.5669447" lon="9.4766827"><ele>78.5</ele><time>2026-05-03T10:56:13.062Z</time></trkpt><trkpt lat="36.5668684" lon="9.4765534"><ele>79.25</ele><time>2026-05-03T10:56:14.023Z</time></trkpt><trkpt lat="36.5667854" lon="9.4764199"><ele>80.0</ele><time>2026-05-03T10:56:15.034Z</time></trkpt><trkpt lat="36.5667011" lon="9.4762816"><ele>78.75</ele><time>2026-05-03T10:56:16.052Z</time></trkpt><trkpt lat="36.5666067" lon="9.476139"><ele>77.5</ele><time>2026-05-03T10:56:17.042Z</time></trkpt><trkpt lat="36.5665163" lon="9.4759957"><ele>76.25</ele><time>2026-05-03T10:56:18.051Z</time></trkpt><trkpt lat="36.5664242" lon="9.4758461"><ele>75.0</ele><time>2026-05-03T10:56:19.048Z</time></trkpt><trkpt lat="36.5663284" lon="9.4756961"><ele>75.0</ele><time>2026-05-03T10:56:20.04Z</time></trkpt><trkpt lat="36.5662262" lon="9.475542"><ele>75.0</ele><time>2026-05-03T10:56:21.03Z</time></trkpt><trkpt lat="36.5661213" lon="9.4753816"><ele>75.0</ele><time>2026-05-03T10:56:22.047Z</time></trkpt><trkpt lat="36.566018" lon="9.4752162"><ele>75.33333333333333</ele><time>2026-05-03T10:56:23.052Z</time></trkpt><trkpt lat="36.5659108" lon="9.4750546"><ele>75.66666666666666</ele><time>2026-05-03T10:56:24.059Z</time></trkpt><trkpt lat="36.5658026" lon="9.4748888"><ele>76.0</ele><time>2026-05-03T10:56:25.072Z</time></trkpt><trkpt lat="36.5656907" lon="9.4747163"><ele>75.0</ele><time>2026-05-03T10:56:26.062Z</time></trkpt><trkpt lat="36.5655803" lon="9.4745436"><ele>74.0</ele><time>2026-05-03T10:56:27.031Z</time></trkpt><trkpt lat="36.565472" lon="9.4743745"><ele>73.0</ele><time>2026-05-03T10:56:28.049Z</time></trkpt><trkpt lat="36.5653642" lon="9.4742051"><ele>74.0</ele><time>2026-05-03T10:56:29.061Z</time></trkpt><trkpt lat="36.5652536" lon="9.4740341"><ele>75.0</ele><time>2026-05-03T10:56:30.032Z</time></trkpt><trkpt lat="36.5651447" lon="9.4738689"><ele>76.0</ele><time>2026-05-03T10:56:31.072Z</time></trkpt><trkpt lat="36.5650315" lon="9.4736982"><ele>76.0</ele><time>2026-05-03T10:56:32.05Z</time></trkpt><trkpt lat="36.5649193" lon="9.4735287"><ele>76.0</ele><time>2026-05-03T10:56:33.044Z</time></trkpt><trkpt lat="36.5648033" lon="9.4733551"><ele>76.0</ele><time>2026-05-03T10:56:34.058Z</time></trkpt><trkpt lat="36.5646927" lon="9.4731787"><ele>76.0</ele><time>2026-05-03T10:56:35.055Z</time></trkpt><trkpt lat="36.5645832" lon="9.4730041"><ele>76.0</ele><time>2026-05-03T10:56:36.061Z</time></trkpt><trkpt lat="36.5644696" lon="9.47283"><ele>76.0</ele><time>2026-05-03T10:56:37.064Z</time></trkpt><trkpt lat="36.5643547" lon="9.4726574"><ele>75.0</ele><time>2026-05-03T10:56:38.055Z</time></trkpt><trkpt lat="36.5642405" lon="9.4724826"><ele>74.0</ele><time>2026-05-03T10:56:39.053Z</time></trkpt><trkpt lat="36.5641226" lon="9.4723031"><ele>73.0</ele><time>2026-05-03T10:56:40.059Z</time></trkpt><trkpt lat="36.5640015" lon="9.472124"><ele>72.33333333333333</ele><time>2026-05-03T10:56:41.053Z</time></trkpt><trkpt lat="36.5638824" lon="9.4719434"><ele>71.66666666666667</ele><time>2026-05-03T10:56:42.047Z</time></trkpt><trkpt lat="36.5637664" lon="9.4717672"><ele>71.0</ele><time>2026-05-03T10:56:43.045Z</time></trkpt><trkpt lat="36.5636507" lon="9.4715986"><ele>70.66666666666667</ele><time>2026-05-03T10:56:44.054Z</time></trkpt><trkpt lat="36.5635406" lon="9.4714297"><ele>70.33333333333333</ele><time>2026-05-03T10:56:45.047Z</time></trkpt><trkpt lat="36.5634296" lon="9.4712545"><ele>70.0</ele><time>2026-05-03T10:56:46.036Z</time></trkpt><trkpt lat="36.5633322" lon="9.4710732"><ele>70.0</ele><time>2026-05-03T10:56:47.051Z</time></trkpt><trkpt lat="36.5632407" lon="9.4708854"><ele>70.0</ele><time>2026-05-03T10:56:48.053Z</time></trkpt><trkpt lat="36.5631637" lon="9.4706931"><ele>70.0</ele><time>2026-05-03T10:56:49.042Z</time></trkpt><trkpt lat="36.5630926" lon="9.4704908"><ele>69.66666666666666</ele><time>2026-05-03T10:56:50.071Z</time></trkpt><trkpt lat="36.5630228" lon="9.4702899"><ele>69.33333333333333</ele><time>2026-05-03T10:56:51.042Z</time></trkpt><trkpt lat="36.5629579" lon="9.4700798"><ele>69.0</ele><time>2026-05-03T10:56:52.055Z</time></trkpt><trkpt lat="36.5628968" lon="9.4698677"><ele>71.33333333333333</ele><time>2026-05-03T10:56:53.047Z</time></trkpt><trkpt lat="36.5628394" lon="9.4696464"><ele>73.66666666666666</ele><time>2026-05-03T10:56:54.044Z</time></trkpt><trkpt lat="36.5627943" lon="9.4694178"><ele>76.0</ele><time>2026-05-03T10:56:55.044Z</time></trkpt><trkpt lat="36.562754" lon="9.469179"><ele>76.0</ele><time>2026-05-03T10:56:56.063Z</time></trkpt><trkpt lat="36.5627147" lon="9.4689395"><ele>76.0</ele><time>2026-05-03T10:56:57.075Z</time></trkpt><trkpt lat="36.5626816" lon="9.4686967"><ele>76.0</ele><time>2026-05-03T10:56:58.061Z</time></trkpt><trkpt lat="36.562646" lon="9.4684587"><ele>75.66666666666666</ele><time>2026-05-03T10:56:59.032Z</time></trkpt><trkpt lat="36.5626114" lon="9.4682173"><ele>75.33333333333333</ele><time>2026-05-03T10:57:00.053Z</time></trkpt><trkpt lat="36.5625765" lon="9.4679793"><ele>75.0</ele><time>2026-05-03T10:57:01.044Z</time></trkpt><trkpt lat="36.5625405" lon="9.4677523"><ele>75.0</ele><time>2026-05-03T10:57:02.061Z</time></trkpt><trkpt lat="36.5624974" lon="9.4675328"><ele>75.0</ele><time>2026-05-03T10:57:03.054Z</time></trkpt><trkpt lat="36.5624448" lon="9.4673049"><ele>75.0</ele><time>2026-05-03T10:57:04.058Z</time></trkpt><trkpt lat="36.5623876" lon="9.4670802"><ele>74.33333333333333</ele><time>2026-05-03T10:57:05.032Z</time></trkpt><trkpt lat="36.5623222" lon="9.466855"><ele>73.66666666666666</ele><time>2026-05-03T10:57:06.036Z</time></trkpt><trkpt lat="36.5622534" lon="9.4666309"><ele>73.0</ele><time>2026-05-03T10:57:07.055Z</time></trkpt><trkpt lat="36.5621792" lon="9.4664046"><ele>72.66666666666666</ele><time>2026-05-03T10:57:08.052Z</time></trkpt><trkpt lat="36.5620998" lon="9.4661824"><ele>72.33333333333333</ele><time>2026-05-03T10:57:09.064Z</time></trkpt><trkpt lat="36.5620232" lon="9.4659647"><ele>72.0</ele><time>2026-05-03T10:57:10.053Z</time></trkpt><trkpt lat="36.5619422" lon="9.4657442"><ele>72.0</ele><time>2026-05-03T10:57:11.026Z</time></trkpt><trkpt lat="36.5618618" lon="9.4655261"><ele>72.0</ele><time>2026-05-03T10:57:12.066Z</time></trkpt><trkpt lat="36.5617838" lon="9.4653063"><ele>72.0</ele><time>2026-05-03T10:57:13.054Z</time></trkpt><trkpt lat="36.5617077" lon="9.4650872"><ele>72.0</ele><time>2026-05-03T10:57:14.052Z</time></trkpt><trkpt lat="36.5616309" lon="9.4648709"><ele>72.0</ele><time>2026-05-03T10:57:15.074Z</time></trkpt><trkpt lat="36.5615539" lon="9.4646551"><ele>72.0</ele><time>2026-05-03T10:57:16.066Z</time></trkpt><trkpt lat="36.5614754" lon="9.4644442"><ele>72.0</ele><time>2026-05-03T10:57:17.073Z</time></trkpt><trkpt lat="36.5613983" lon="9.4642288"><ele>72.0</ele><time>2026-05-03T10:57:18.064Z</time></trkpt><trkpt lat="36.5613223" lon="9.4640147"><ele>72.0</ele><time>2026-05-03T10:57:19.049Z</time></trkpt><trkpt lat="36.5612441" lon="9.4638056"><ele>74.0</ele><time>2026-05-03T10:57:20.054Z</time></trkpt><trkpt lat="36.5611636" lon="9.4635903"><ele>76.0</ele><time>2026-05-03T10:57:21.051Z</time></trkpt><trkpt lat="36.5610838" lon="9.4633693"><ele>78.0</ele><time>2026-05-03T10:57:22.053Z</time></trkpt><trkpt lat="36.5610041" lon="9.4631462"><ele>76.0</ele><time>2026-05-03T10:57:23.047Z</time></trkpt><trkpt lat="36.5609235" lon="9.4629213"><ele>74.0</ele><time>2026-05-03T10:57:24.052Z</time></trkpt><trkpt lat="36.5608406" lon="9.4626944"><ele>72.0</ele><time>2026-05-03T10:57:25.05Z</time></trkpt><trkpt lat="36.5607569" lon="9.4624628"><ele>72.0</ele><time>2026-05-03T10:57:26.056Z</time></trkpt><trkpt lat="36.5606696" lon="9.4622329"><ele>72.0</ele><time>2026-05-03T10:57:27.06Z</time></trkpt><trkpt lat="36.5605889" lon="9.4620054"><ele>72.0</ele><time>2026-05-03T10:57:28.058Z</time></trkpt><trkpt lat="36.5605067" lon="9.4617773"><ele>71.66666666666667</ele><time>2026-05-03T10:57:29.044Z</time></trkpt><trkpt lat="36.5604247" lon="9.4615557"><ele>71.33333333333334</ele><time>2026-05-03T10:57:30.047Z</time></trkpt><trkpt lat="36.56034" lon="9.4613337"><ele>71.0</ele><time>2026-05-03T10:57:31.051Z</time></trkpt><trkpt lat="36.5602643" lon="9.4611237"><ele>72.66666666666667</ele><time>2026-05-03T10:57:32.033Z</time></trkpt><trkpt lat="36.5601905" lon="9.4609095"><ele>74.33333333333333</ele><time>2026-05-03T10:57:33.025Z</time></trkpt><trkpt lat="36.5601246" lon="9.4606958"><ele>76.0</ele><time>2026-05-03T10:57:34.038Z</time></trkpt><trkpt lat="36.560067" lon="9.460484"><ele>75.33333333333333</ele><time>2026-05-03T10:57:35.055Z</time></trkpt><trkpt lat="36.5600155" lon="9.4602765"><ele>74.66666666666667</ele><time>2026-05-03T10:57:36.05Z</time></trkpt><trkpt lat="36.5599712" lon="9.460067"><ele>74.0</ele><time>2026-05-03T10:57:37.036Z</time></trkpt><trkpt lat="36.5599242" lon="9.4598547"><ele>74.0</ele><time>2026-05-03T10:57:38.033Z</time></trkpt><trkpt lat="36.5598802" lon="9.459646"><ele>74.0</ele><time>2026-05-03T10:57:39.054Z</time></trkpt><trkpt lat="36.5598383" lon="9.4594373"><ele>74.0</ele><time>2026-05-03T10:57:40.042Z</time></trkpt><trkpt lat="36.5597991" lon="9.459233"><ele>72.66666666666667</ele><time>2026-05-03T10:57:41.062Z</time></trkpt><trkpt lat="36.5597598" lon="9.4590245"><ele>71.33333333333333</ele><time>2026-05-03T10:57:42.058Z</time></trkpt><trkpt lat="36.5597215" lon="9.458815"><ele>70.0</ele><time>2026-05-03T10:57:43.056Z</time></trkpt><trkpt lat="36.5596859" lon="9.458605"><ele>70.0</ele><time>2026-05-03T10:57:44.049Z</time></trkpt><trkpt lat="36.5596488" lon="9.4583931"><ele>70.0</ele><time>2026-05-03T10:57:45.049Z</time></trkpt><trkpt lat="36.5596113" lon="9.4581778"><ele>70.0</ele><time>2026-05-03T10:57:46.069Z</time></trkpt><trkpt lat="36.5595754" lon="9.4579634"><ele>70.0</ele><time>2026-05-03T10:57:47.032Z</time></trkpt><trkpt lat="36.5595341" lon="9.4577543"><ele>70.0</ele><time>2026-05-03T10:57:48.05Z</time></trkpt><trkpt lat="36.559495" lon="9.4575502"><ele>70.0</ele><time>2026-05-03T10:57:49.054Z</time></trkpt><trkpt lat="36.5594515" lon="9.4573389"><ele>71.33333333333333</ele><time>2026-05-03T10:57:50.042Z</time></trkpt><trkpt lat="36.5594101" lon="9.4571302"><ele>72.66666666666667</ele><time>2026-05-03T10:57:51.06Z</time></trkpt><trkpt lat="36.5593708" lon="9.4569196"><ele>74.0</ele><time>2026-05-03T10:57:52.055Z</time></trkpt><trkpt lat="36.5593292" lon="9.4567099"><ele>74.0</ele><time>2026-05-03T10:57:53.052Z</time></trkpt><trkpt lat="36.5592852" lon="9.4565061"><ele>74.0</ele><time>2026-05-03T10:57:54.066Z</time></trkpt><trkpt lat="36.5592389" lon="9.456302"><ele>74.0</ele><time>2026-05-03T10:57:55.065Z</time></trkpt><trkpt lat="36.5591889" lon="9.4560902"><ele>73.33333333333334</ele><time>2026-05-03T10:57:56.04Z</time></trkpt><trkpt lat="36.5591355" lon="9.455883"><ele>72.66666666666667</ele><time>2026-05-03T10:57:57.07Z</time></trkpt><trkpt lat="36.5590821" lon="9.4556795"><ele>72.0</ele><time>2026-05-03T10:57:58.051Z</time></trkpt><trkpt lat="36.5590195" lon="9.4554759"><ele>71.66666666666667</ele><time>2026-05-03T10:57:59.049Z</time></trkpt><trkpt lat="36.5589615" lon="9.4552741"><ele>71.33333333333334</ele><time>2026-05-03T10:58:00.059Z</time></trkpt><trkpt lat="36.5589031" lon="9.455071"><ele>71.0</ele><time>2026-05-03T10:58:01.047Z</time></trkpt><trkpt lat="36.5588457" lon="9.4548699"><ele>71.0</ele><time>2026-05-03T10:58:02.05Z</time></trkpt><trkpt lat="36.5587831" lon="9.4546741"><ele>71.0</ele><time>2026-05-03T10:58:03.042Z</time></trkpt><trkpt lat="36.5587141" lon="9.4544854"><ele>71.0</ele><time>2026-05-03T10:58:04.058Z</time></trkpt><trkpt lat="36.5586369" lon="9.4542984"><ele>70.66666666666667</ele><time>2026-05-03T10:58:05.069Z</time></trkpt><trkpt lat="36.5585597" lon="9.4541166"><ele>70.33333333333333</ele><time>2026-05-03T10:58:06.062Z</time></trkpt><trkpt lat="36.5584804" lon="9.4539361"><ele>70.0</ele><time>2026-05-03T10:58:07.048Z</time></trkpt><trkpt lat="36.558397" lon="9.4537614"><ele>70.0</ele><time>2026-05-03T10:58:08.064Z</time></trkpt><trkpt lat="36.5583117" lon="9.4535876"><ele>70.0</ele><time>2026-05-03T10:58:09.058Z</time></trkpt><trkpt lat="36.5582272" lon="9.4534187"><ele>70.0</ele><time>2026-05-03T10:58:10.055Z</time></trkpt><trkpt lat="36.5581381" lon="9.4532455"><ele>70.0</ele><time>2026-05-03T10:58:11.043Z</time></trkpt><trkpt lat="36.5580443" lon="9.4530718"><ele>70.0</ele><time>2026-05-03T10:58:12.056Z</time></trkpt><trkpt lat="36.5579453" lon="9.4529001"><ele>70.0</ele><time>2026-05-03T10:58:13.03Z</time></trkpt><trkpt lat="36.5578429" lon="9.4527324"><ele>71.0</ele><time>2026-05-03T10:58:14.052Z</time></trkpt><trkpt lat="36.5577303" lon="9.4525681"><ele>72.0</ele><time>2026-05-03T10:58:15.062Z</time></trkpt><trkpt lat="36.557613" lon="9.4524117"><ele>73.0</ele><time>2026-05-03T10:58:16.062Z</time></trkpt><trkpt lat="36.5575001" lon="9.4522627"><ele>73.0</ele><time>2026-05-03T10:58:17.061Z</time></trkpt><trkpt lat="36.557389" lon="9.4521251"><ele>73.0</ele><time>2026-05-03T10:58:18.039Z</time></trkpt><trkpt lat="36.5572829" lon="9.4519876"><ele>73.0</ele><time>2026-05-03T10:58:19.049Z</time></trkpt><trkpt lat="36.5571727" lon="9.4518577"><ele>73.0</ele><time>2026-05-03T10:58:20.069Z</time></trkpt><trkpt lat="36.5570669" lon="9.4517377"><ele>73.0</ele><time>2026-05-03T10:58:21.048Z</time></trkpt><trkpt lat="36.5569658" lon="9.4516243"><ele>73.0</ele><time>2026-05-03T10:58:22.062Z</time></trkpt><trkpt lat="36.5568716" lon="9.4515167"><ele>73.0</ele><time>2026-05-03T10:58:23.059Z</time></trkpt><trkpt lat="36.556784" lon="9.4514183"><ele>73.0</ele><time>2026-05-03T10:58:24.05Z</time></trkpt><trkpt lat="36.5566982" lon="9.451326"><ele>73.0</ele><time>2026-05-03T10:58:25.043Z</time></trkpt><trkpt lat="36.5566128" lon="9.4512354"><ele>73.0</ele><time>2026-05-03T10:58:26.051Z</time></trkpt><trkpt lat="36.5565307" lon="9.451146"><ele>73.0</ele><time>2026-05-03T10:58:27.059Z</time></trkpt><trkpt lat="36.5564467" lon="9.4510562"><ele>73.0</ele><time>2026-05-03T10:58:28.056Z</time></trkpt><trkpt lat="36.556358" lon="9.4509646"><ele>72.6</ele><time>2026-05-03T10:58:29.058Z</time></trkpt><trkpt lat="36.5562731" lon="9.4508734"><ele>72.19999999999999</ele><time>2026-05-03T10:58:30.048Z</time></trkpt><trkpt lat="36.5561909" lon="9.4507806"><ele>71.8</ele><time>2026-05-03T10:58:31.047Z</time></trkpt><trkpt lat="36.5561143" lon="9.4506881"><ele>71.39999999999999</ele><time>2026-05-03T10:58:32.058Z</time></trkpt><trkpt lat="36.5560352" lon="9.4505989"><ele>71.0</ele><time>2026-05-03T10:58:33.063Z</time></trkpt><trkpt lat="36.5559585" lon="9.4505142"><ele>71.66666666666667</ele><time>2026-05-03T10:58:34.066Z</time></trkpt><trkpt lat="36.5558818" lon="9.450431"><ele>72.33333333333334</ele><time>2026-05-03T10:58:35.059Z</time></trkpt><trkpt lat="36.5558119" lon="9.4503514"><ele>73.0</ele><time>2026-05-03T10:58:36.071Z</time></trkpt><trkpt lat="36.5557476" lon="9.4502802"><ele>73.66666666666667</ele><time>2026-05-03T10:58:37.071Z</time></trkpt><trkpt lat="36.5556902" lon="9.4502201"><ele>74.33333333333333</ele><time>2026-05-03T10:58:38.064Z</time></trkpt><trkpt lat="36.5556327" lon="9.4501666"><ele>75.0</ele><time>2026-05-03T10:58:39.07Z</time></trkpt><trkpt lat="36.5555462" lon="9.4500541"><ele>75.0</ele><time>2026-05-03T10:58:41.077Z</time></trkpt><trkpt lat="36.5554986" lon="9.4499876"><ele>75.0</ele><time>2026-05-03T10:58:42.059Z</time></trkpt><trkpt lat="36.5554438" lon="9.449922"><ele>75.0</ele><time>2026-05-03T10:58:43.048Z</time></trkpt><trkpt lat="36.5553863" lon="9.4498575"><ele>75.0</ele><time>2026-05-03T10:58:44.049Z</time></trkpt><trkpt lat="36.555325" lon="9.4497869"><ele>75.0</ele><time>2026-05-03T10:58:45.054Z</time></trkpt><trkpt lat="36.5552633" lon="9.4497178"><ele>75.0</ele><time>2026-05-03T10:58:46.05Z</time></trkpt><trkpt lat="36.5551996" lon="9.4496399"><ele>76.0</ele><time>2026-05-03T10:58:47.058Z</time></trkpt><trkpt lat="36.555136" lon="9.4495718"><ele>77.0</ele><time>2026-05-03T10:58:48.041Z</time></trkpt><trkpt lat="36.555063" lon="9.4494933"><ele>78.0</ele><time>2026-05-03T10:58:49.037Z</time></trkpt><trkpt lat="36.5549889" lon="9.4494083"><ele>79.0</ele><time>2026-05-03T10:58:50.049Z</time></trkpt><trkpt lat="36.5549134" lon="9.449323"><ele>80.0</ele><time>2026-05-03T10:58:51.055Z</time></trkpt><trkpt lat="36.5548358" lon="9.4492266"><ele>80.0</ele><time>2026-05-03T10:58:52.042Z</time></trkpt><trkpt lat="36.5547541" lon="9.4491343"><ele>80.0</ele><time>2026-05-03T10:58:53.041Z</time></trkpt><trkpt lat="36.5546654" lon="9.4490464"><ele>80.0</ele><time>2026-05-03T10:58:54.023Z</time></trkpt><trkpt lat="36.5545768" lon="9.4489706"><ele>80.0</ele><time>2026-05-03T10:58:55.026Z</time></trkpt><trkpt lat="36.5544889" lon="9.4488982"><ele>80.0</ele><time>2026-05-03T10:58:56.041Z</time></trkpt><trkpt lat="36.5543922" lon="9.4488295"><ele>80.8</ele><time>2026-05-03T10:58:57.068Z</time></trkpt><trkpt lat="36.5542936" lon="9.4487624"><ele>81.6</ele><time>2026-05-03T10:58:58.051Z</time></trkpt><trkpt lat="36.5541948" lon="9.4487094"><ele>82.4</ele><time>2026-05-03T10:58:59.049Z</time></trkpt><trkpt lat="36.5540948" lon="9.4486668"><ele>83.2</ele><time>2026-05-03T10:59:00.041Z</time></trkpt><trkpt lat="36.5539805" lon="9.448634"><ele>84.0</ele><time>2026-05-03T10:59:01.049Z</time></trkpt><trkpt lat="36.5538666" lon="9.4486226"><ele>84.0</ele><time>2026-05-03T10:59:02.056Z</time></trkpt><trkpt lat="36.55375" lon="9.4486173"><ele>84.0</ele><time>2026-05-03T10:59:03.061Z</time></trkpt><trkpt lat="36.5536322" lon="9.4486076"><ele>84.0</ele><time>2026-05-03T10:59:04.038Z</time></trkpt><trkpt lat="36.5535115" lon="9.4486026"><ele>84.0</ele><time>2026-05-03T10:59:05.057Z</time></trkpt><trkpt lat="36.5533921" lon="9.448605"><ele>83.0</ele><time>2026-05-03T10:59:06.063Z</time></trkpt><trkpt lat="36.5532706" lon="9.4486075"><ele>82.0</ele><time>2026-05-03T10:59:07.044Z</time></trkpt><trkpt lat="36.5531496" lon="9.4486084"><ele>81.0</ele><time>2026-05-03T10:59:08.066Z</time></trkpt><trkpt lat="36.553028" lon="9.4486059"><ele>80.0</ele><time>2026-05-03T10:59:09.054Z</time></trkpt><trkpt lat="36.5529112" lon="9.4486096"><ele>80.25</ele><time>2026-05-03T10:59:10.056Z</time></trkpt><trkpt lat="36.5527948" lon="9.4486047"><ele>80.5</ele><time>2026-05-03T10:59:11.049Z</time></trkpt><trkpt lat="36.552683" lon="9.4486054"><ele>80.75</ele><time>2026-05-03T10:59:12.069Z</time></trkpt><trkpt lat="36.5525689" lon="9.4486"><ele>81.0</ele><time>2026-05-03T10:59:13.046Z</time></trkpt><trkpt lat="36.5524534" lon="9.4485892"><ele>81.0</ele><time>2026-05-03T10:59:14.044Z</time></trkpt><trkpt lat="36.5523378" lon="9.4485821"><ele>81.0</ele><time>2026-05-03T10:59:15.043Z</time></trkpt><trkpt lat="36.5522245" lon="9.4485685"><ele>81.0</ele><time>2026-05-03T10:59:16.047Z</time></trkpt><trkpt lat="36.5521176" lon="9.448548"><ele>81.0</ele><time>2026-05-03T10:59:17.04Z</time></trkpt><trkpt lat="36.552008" lon="9.4485223"><ele>81.0</ele><time>2026-05-03T10:59:18.04Z</time></trkpt><trkpt lat="36.5518999" lon="9.4484791"><ele>83.0</ele><time>2026-05-03T10:59:19.049Z</time></trkpt><trkpt lat="36.5517877" lon="9.4484272"><ele>85.0</ele><time>2026-05-03T10:59:20.042Z</time></trkpt><trkpt lat="36.5516847" lon="9.4483634"><ele>87.0</ele><time>2026-05-03T10:59:21.05Z</time></trkpt><trkpt lat="36.5515858" lon="9.448287"><ele>89.0</ele><time>2026-05-03T10:59:22.026Z</time></trkpt><trkpt lat="36.5514917" lon="9.4482101"><ele>89.0</ele><time>2026-05-03T10:59:23.022Z</time></trkpt><trkpt lat="36.5514028" lon="9.448132"><ele>89.0</ele><time>2026-05-03T10:59:24.061Z</time></trkpt><trkpt lat="36.5513156" lon="9.4480445"><ele>89.0</ele><time>2026-05-03T10:59:25.047Z</time></trkpt><trkpt lat="36.5512344" lon="9.4479419"><ele>89.0</ele><time>2026-05-03T10:59:26.044Z</time></trkpt><trkpt lat="36.5511584" lon="9.4478375"><ele>90.5</ele><time>2026-05-03T10:59:27.064Z</time></trkpt><trkpt lat="36.5510938" lon="9.4477247"><ele>92.0</ele><time>2026-05-03T10:59:28.027Z</time></trkpt><trkpt lat="36.5510318" lon="9.4476037"><ele>93.5</ele><time>2026-05-03T10:59:29.024Z</time></trkpt><trkpt lat="36.5509851" lon="9.4474786"><ele>95.0</ele><time>2026-05-03T10:59:30.023Z</time></trkpt><trkpt lat="36.5509385" lon="9.4473496"><ele>95.0</ele><time>2026-05-03T10:59:31.032Z</time></trkpt><trkpt lat="36.5508994" lon="9.4472243"><ele>95.0</ele><time>2026-05-03T10:59:32.047Z</time></trkpt><trkpt lat="36.5508715" lon="9.4471039"><ele>95.0</ele><time>2026-05-03T10:59:33.05Z</time></trkpt><trkpt lat="36.5508419" lon="9.4469763"><ele>95.0</ele><time>2026-05-03T10:59:34.044Z</time></trkpt><trkpt lat="36.5508234" lon="9.4468535"><ele>95.0</ele><time>2026-05-03T10:59:35.053Z</time></trkpt><trkpt lat="36.5508091" lon="9.4467446"><ele>96.16666666666667</ele><time>2026-05-03T10:59:36.023Z</time></trkpt><trkpt lat="36.5508035" lon="9.4466529"><ele>97.33333333333334</ele><time>2026-05-03T10:59:37.05Z</time></trkpt><trkpt lat="36.5508018" lon="9.4465727"><ele>98.5</ele><time>2026-05-03T10:59:38.038Z</time></trkpt><trkpt lat="36.5508067" lon="9.4464519"><ele>99.66666666666667</ele><time>2026-05-03T10:59:40.053Z</time></trkpt><trkpt lat="36.5508115" lon="9.4463618"><ele>100.83333333333333</ele><time>2026-05-03T10:59:42.038Z</time></trkpt><trkpt lat="36.5508224" lon="9.4462658"><ele>102.0</ele><time>2026-05-03T10:59:45.042Z</time></trkpt><trkpt lat="36.5508331" lon="9.4461789"><ele>102.0</ele><time>2026-05-03T10:59:47.039Z</time></trkpt><trkpt lat="36.5508399" lon="9.4460759"><ele>102.0</ele><time>2026-05-03T10:59:49.043Z</time></trkpt><trkpt lat="36.5508439" lon="9.4459695"><ele>102.0</ele><time>2026-05-03T10:59:51.048Z</time></trkpt><trkpt lat="36.5508695" lon="9.4458535"><ele>102.0</ele><time>2026-05-03T10:59:53.038Z</time></trkpt><trkpt lat="36.5508895" lon="9.4457684"><ele>102.0</ele><time>2026-05-03T10:59:55.047Z</time></trkpt><trkpt lat="36.5509356" lon="9.4456865"><ele>102.0</ele><time>2026-05-03T10:59:58.056Z</time></trkpt><trkpt lat="36.5508805" lon="9.4456392"><ele>102.0</ele><time>2026-05-03T11:00:31.05Z</time></trkpt><trkpt lat="36.55084" lon="9.4457015"><ele>102.0</ele><time>2026-05-03T11:00:33.056Z</time></trkpt><trkpt lat="36.5508118" lon="9.4458344"><ele>102.0</ele><time>2026-05-03T11:00:35.056Z</time></trkpt><trkpt lat="36.5507774" lon="9.4459835"><ele>102.0</ele><time>2026-05-03T11:00:37.05Z</time></trkpt><trkpt lat="36.5507589" lon="9.4461331"><ele>102.0</ele><time>2026-05-03T11:00:39.065Z</time></trkpt><trkpt lat="36.5507551" lon="9.446275"><ele>102.19999999999999</ele><time>2026-05-03T11:00:41.069Z</time></trkpt><trkpt lat="36.5507505" lon="9.4463539"><ele>102.4</ele><time>2026-05-03T11:00:42.061Z</time></trkpt><trkpt lat="36.5507439" lon="9.446505"><ele>102.6</ele><time>2026-05-03T11:00:44.05Z</time></trkpt><trkpt lat="36.5507533" lon="9.446655"><ele>102.80000000000001</ele><time>2026-05-03T11:00:46.051Z</time></trkpt><trkpt lat="36.5507665" lon="9.4468022"><ele>103.0</ele><time>2026-05-03T11:00:48.036Z</time></trkpt><trkpt lat="36.5507853" lon="9.4469385"><ele>103.00000000000001</ele><time>2026-05-03T11:00:50.061Z</time></trkpt><trkpt lat="36.5508191" lon="9.4470647"><ele>103.0</ele><time>2026-05-03T11:00:52.057Z</time></trkpt><trkpt lat="36.5508463" lon="9.4471889"><ele>103.0</ele><time>2026-05-03T11:00:54.039Z</time></trkpt><trkpt lat="36.550874" lon="9.4473024"><ele>103.0</ele><time>2026-05-03T11:00:56.049Z</time></trkpt><trkpt lat="36.5508872" lon="9.4473865"><ele>103.00000000000001</ele><time>2026-05-03T11:00:58.056Z</time></trkpt><trkpt lat="36.5508767" lon="9.4474759"><ele>103.0</ele><time>2026-05-03T11:01:01.067Z</time></trkpt><trkpt lat="36.5509002" lon="9.4474"><ele>103.00000000000001</ele><time>2026-05-03T11:08:12.048Z</time></trkpt><trkpt lat="36.5508885" lon="9.4472838"><ele>103.0</ele><time>2026-05-03T11:08:14.023Z</time></trkpt><trkpt lat="36.5508699" lon="9.4472043"><ele>103.0</ele><time>2026-05-03T11:08:15.034Z</time></trkpt><trkpt lat="36.5508358" lon="9.4470425"><ele>103.0</ele><time>2026-05-03T11:08:17.038Z</time></trkpt><trkpt lat="36.550823" lon="9.4469518"><ele>103.00000000000001</ele><time>2026-05-03T11:08:18.03Z</time></trkpt><trkpt lat="36.5508104" lon="9.4468603"><ele>103.0</ele><time>2026-05-03T11:08:19.029Z</time></trkpt><trkpt lat="36.5507971" lon="9.4467644"><ele>103.0</ele><time>2026-05-03T11:08:20.039Z</time></trkpt><trkpt lat="36.5507883" lon="9.446658"><ele>103.0</ele><time>2026-05-03T11:08:21.056Z</time></trkpt><trkpt lat="36.5507781" lon="9.4465347"><ele>103.0</ele><time>2026-05-03T11:08:22.062Z</time></trkpt><trkpt lat="36.5507769" lon="9.4464117"><ele>103.0</ele><time>2026-05-03T11:08:23.05Z</time></trkpt><trkpt lat="36.5507807" lon="9.4462869"><ele>103.0</ele><time>2026-05-03T11:08:24.047Z</time></trkpt><trkpt lat="36.5507877" lon="9.4461683"><ele>102.85714285714285</ele><time>2026-05-03T11:08:25.048Z</time></trkpt><trkpt lat="36.550806" lon="9.4460662"><ele>102.71428571428571</ele><time>2026-05-03T11:08:26.056Z</time></trkpt><trkpt lat="36.5508222" lon="9.4459695"><ele>102.57142857142857</ele><time>2026-05-03T11:08:27.061Z</time></trkpt><trkpt lat="36.5508381" lon="9.4458801"><ele>102.42857142857142</ele><time>2026-05-03T11:08:28.061Z</time></trkpt><trkpt lat="36.5508557" lon="9.4457948"><ele>102.28571428571429</ele><time>2026-05-03T11:08:29.027Z</time></trkpt><trkpt lat="36.5508735" lon="9.4457194"><ele>102.14285714285714</ele><time>2026-05-03T11:08:30.035Z</time></trkpt><trkpt lat="36.5508907" lon="9.4456406"><ele>102.0</ele><time>2026-05-03T11:08:31.048Z</time></trkpt><trkpt lat="36.5509081" lon="9.44556"><ele>102.0</ele><time>2026-05-03T11:08:32.043Z</time></trkpt><trkpt lat="36.5509298" lon="9.4454768"><ele>102.0</ele><time>2026-05-03T11:08:33.054Z</time></trkpt><trkpt lat="36.5509497" lon="9.4453935"><ele>102.0</ele><time>2026-05-03T11:08:34.048Z</time></trkpt><trkpt lat="36.5509885" lon="9.4452502"><ele>102.0</ele><time>2026-05-03T11:08:36.054Z</time></trkpt><trkpt lat="36.5510288" lon="9.4451254"><ele>102.0</ele><time>2026-05-03T11:08:38.061Z</time></trkpt><trkpt lat="36.5510697" lon="9.4449911"><ele>102.0</ele><time>2026-05-03T11:08:40.042Z</time></trkpt><trkpt lat="36.5511216" lon="9.4448326"><ele>102.0</ele><time>2026-05-03T11:08:42.06Z</time></trkpt><trkpt lat="36.5511468" lon="9.4447457"><ele>102.0</ele><time>2026-05-03T11:08:43.063Z</time></trkpt><trkpt lat="36.5511709" lon="9.4446681"><ele>102.0</ele><time>2026-05-03T11:08:44.029Z</time></trkpt><trkpt lat="36.5511965" lon="9.4445842"><ele>102.0</ele><time>2026-05-03T11:08:45.024Z</time></trkpt><trkpt lat="36.5512185" lon="9.4445047"><ele>102.0</ele><time>2026-05-03T11:08:46.053Z</time></trkpt><trkpt lat="36.5512411" lon="9.4444315"><ele>101.0</ele><time>2026-05-03T11:08:47.038Z</time></trkpt><trkpt lat="36.5512677" lon="9.4443532"><ele>100.0</ele><time>2026-05-03T11:08:48.058Z</time></trkpt><trkpt lat="36.5513127" lon="9.4442137"><ele>99.0</ele><time>2026-05-03T11:08:50.061Z</time></trkpt><trkpt lat="36.5513601" lon="9.4440685"><ele>98.0</ele><time>2026-05-03T11:08:52.069Z</time></trkpt><trkpt lat="36.5513991" lon="9.443932"><ele>97.0</ele><time>2026-05-03T11:08:54.054Z</time></trkpt><trkpt lat="36.551439" lon="9.4437895"><ele>96.0</ele><time>2026-05-03T11:08:56.062Z</time></trkpt><trkpt lat="36.551483" lon="9.4436452"><ele>95.0</ele><time>2026-05-03T11:08:58.058Z</time></trkpt><trkpt lat="36.5515297" lon="9.4435047"><ele>94.0</ele><time>2026-05-03T11:09:00.035Z</time></trkpt><trkpt lat="36.5515651" lon="9.4433631"><ele>93.0</ele><time>2026-05-03T11:09:02.038Z</time></trkpt><trkpt lat="36.5516075" lon="9.4432233"><ele>93.0</ele><time>2026-05-03T11:09:04.055Z</time></trkpt><trkpt lat="36.5516489" lon="9.4430758"><ele>93.0</ele><time>2026-05-03T11:09:06.052Z</time></trkpt><trkpt lat="36.5516697" lon="9.4430001"><ele>93.0</ele><time>2026-05-03T11:09:07.075Z</time></trkpt><trkpt lat="36.5516952" lon="9.4429265"><ele>93.0</ele><time>2026-05-03T11:09:08.056Z</time></trkpt><trkpt lat="36.5517363" lon="9.4427836"><ele>93.0</ele><time>2026-05-03T11:09:10.047Z</time></trkpt><trkpt lat="36.551778" lon="9.4426337"><ele>92.5</ele><time>2026-05-03T11:09:12.05Z</time></trkpt><trkpt lat="36.5518015" lon="9.4425581"><ele>92.0</ele><time>2026-05-03T11:09:13.045Z</time></trkpt><trkpt lat="36.551821" lon="9.4424758"><ele>91.5</ele><time>2026-05-03T11:09:14.044Z</time></trkpt><trkpt lat="36.5518419" lon="9.4423834"><ele>91.0</ele><time>2026-05-03T11:09:15.068Z</time></trkpt><trkpt lat="36.5518632" lon="9.4422884"><ele>90.5</ele><time>2026-05-03T11:09:16.048Z</time></trkpt><trkpt lat="36.5518855" lon="9.4421858"><ele>90.0</ele><time>2026-05-03T11:09:17.056Z</time></trkpt><trkpt lat="36.5519131" lon="9.4420876"><ele>89.57142857142857</ele><time>2026-05-03T11:09:18.058Z</time></trkpt><trkpt lat="36.5519351" lon="9.4419895"><ele>89.14285714285715</ele><time>2026-05-03T11:09:19.07Z</time></trkpt><trkpt lat="36.5519562" lon="9.4418988"><ele>88.71428571428572</ele><time>2026-05-03T11:09:20.076Z</time></trkpt><trkpt lat="36.5519794" lon="9.4418105"><ele>88.28571428571428</ele><time>2026-05-03T11:09:21.047Z</time></trkpt><trkpt lat="36.5519958" lon="9.4417262"><ele>87.85714285714286</ele><time>2026-05-03T11:09:22.072Z</time></trkpt><trkpt lat="36.5520061" lon="9.4416437"><ele>87.42857142857143</ele><time>2026-05-03T11:09:23.053Z</time></trkpt><trkpt lat="36.5520106" lon="9.4415626"><ele>87.0</ele><time>2026-05-03T11:09:24.057Z</time></trkpt><trkpt lat="36.5520282" lon="9.4414145"><ele>87.16666666666667</ele><time>2026-05-03T11:09:26.047Z</time></trkpt><trkpt lat="36.5520234" lon="9.4412643"><ele>87.33333333333333</ele><time>2026-05-03T11:09:28.06Z</time></trkpt><trkpt lat="36.5520207" lon="9.4411826"><ele>87.5</ele><time>2026-05-03T11:09:29.039Z</time></trkpt><trkpt lat="36.5520175" lon="9.4410887"><ele>87.66666666666666</ele><time>2026-05-03T11:09:30.041Z</time></trkpt><trkpt lat="36.5520092" lon="9.4409854"><ele>87.83333333333333</ele><time>2026-05-03T11:09:31.057Z</time></trkpt><trkpt lat="36.5519998" lon="9.4408654"><ele>88.0</ele><time>2026-05-03T11:09:32.053Z</time></trkpt><trkpt lat="36.5519862" lon="9.4407334"><ele>88.0</ele><time>2026-05-03T11:09:33.051Z</time></trkpt><trkpt lat="36.5519724" lon="9.4406008"><ele>88.0</ele><time>2026-05-03T11:09:34.077Z</time></trkpt><trkpt lat="36.5519585" lon="9.4404816"><ele>88.0</ele><time>2026-05-03T11:09:35.056Z</time></trkpt><trkpt lat="36.5519533" lon="9.4403684"><ele>88.0</ele><time>2026-05-03T11:09:36.055Z</time></trkpt><trkpt lat="36.5519417" lon="9.4402673"><ele>88.0</ele><time>2026-05-03T11:09:37.069Z</time></trkpt><trkpt lat="36.5519358" lon="9.4401692"><ele>88.0</ele><time>2026-05-03T11:09:38.056Z</time></trkpt><trkpt lat="36.5519249" lon="9.4400678"><ele>88.0</ele><time>2026-05-03T11:09:39.046Z</time></trkpt><trkpt lat="36.5519149" lon="9.439969"><ele>88.0</ele><time>2026-05-03T11:09:40.062Z</time></trkpt><trkpt lat="36.5519017" lon="9.4398698"><ele>88.0</ele><time>2026-05-03T11:09:41.051Z</time></trkpt><trkpt lat="36.5518905" lon="9.4397755"><ele>88.0</ele><time>2026-05-03T11:09:42.046Z</time></trkpt><trkpt lat="36.5518823" lon="9.4396806"><ele>88.0</ele><time>2026-05-03T11:09:43.062Z</time></trkpt><trkpt lat="36.5518752" lon="9.4395864"><ele>88.0</ele><time>2026-05-03T11:09:44.034Z</time></trkpt><trkpt lat="36.5518662" lon="9.4394868"><ele>88.0</ele><time>2026-05-03T11:09:45.057Z</time></trkpt><trkpt lat="36.5518568" lon="9.439392"><ele>88.0</ele><time>2026-05-03T11:09:46.07Z</time></trkpt><trkpt lat="36.5518443" lon="9.4392947"><ele>88.0</ele><time>2026-05-03T11:09:47.05Z</time></trkpt><trkpt lat="36.5518304" lon="9.4391999"><ele>88.0</ele><time>2026-05-03T11:09:48.05Z</time></trkpt><trkpt lat="36.5518198" lon="9.4391038"><ele>88.0</ele><time>2026-05-03T11:09:49.062Z</time></trkpt><trkpt lat="36.5518103" lon="9.4390106"><ele>88.0</ele><time>2026-05-03T11:09:50.064Z</time></trkpt><trkpt lat="36.5517977" lon="9.4389236"><ele>88.0</ele><time>2026-05-03T11:09:51.037Z</time></trkpt><trkpt lat="36.5517872" lon="9.4388374"><ele>88.0</ele><time>2026-05-03T11:09:52.055Z</time></trkpt><trkpt lat="36.5517773" lon="9.4386969"><ele>88.0</ele><time>2026-05-03T11:09:54.051Z</time></trkpt><trkpt lat="36.5517656" lon="9.4386194"><ele>88.0</ele><time>2026-05-03T11:10:05.064Z</time></trkpt><trkpt lat="36.5517398" lon="9.4385157"><ele>88.0</ele><time>2026-05-03T11:10:07.063Z</time></trkpt><trkpt lat="36.5517013" lon="9.4383784"><ele>87.66666666666666</ele><time>2026-05-03T11:10:09.037Z</time></trkpt><trkpt lat="36.5516767" lon="9.4382428"><ele>87.33333333333333</ele><time>2026-05-03T11:10:11.047Z</time></trkpt><trkpt lat="36.5516702" lon="9.4381633"><ele>87.0</ele><time>2026-05-03T11:10:12.045Z</time></trkpt><trkpt lat="36.5516576" lon="9.4380791"><ele>86.66666666666667</ele><time>2026-05-03T11:10:13.062Z</time></trkpt><trkpt lat="36.5516454" lon="9.4380018"><ele>86.33333333333334</ele><time>2026-05-03T11:10:14.052Z</time></trkpt><trkpt lat="36.5516278" lon="9.437906"><ele>86.0</ele><time>2026-05-03T11:10:15.055Z</time></trkpt><trkpt lat="36.551606" lon="9.4378069"><ele>85.83333333333334</ele><time>2026-05-03T11:10:16.058Z</time></trkpt><trkpt lat="36.551591" lon="9.4376999"><ele>85.66666666666667</ele><time>2026-05-03T11:10:17.031Z</time></trkpt><trkpt lat="36.551576" lon="9.4375949"><ele>85.5</ele><time>2026-05-03T11:10:18.05Z</time></trkpt><trkpt lat="36.5515625" lon="9.4374922"><ele>85.33333333333333</ele><time>2026-05-03T11:10:19.034Z</time></trkpt><trkpt lat="36.5515467" lon="9.4373965"><ele>85.16666666666666</ele><time>2026-05-03T11:10:20.025Z</time></trkpt><trkpt lat="36.5515362" lon="9.4373121"><ele>85.0</ele><time>2026-05-03T11:10:21.042Z</time></trkpt><trkpt lat="36.5515246" lon="9.437226"><ele>84.83333333333333</ele><time>2026-05-03T11:10:22.035Z</time></trkpt><trkpt lat="36.551504" lon="9.4370781"><ele>84.66666666666666</ele><time>2026-05-03T11:10:24.046Z</time></trkpt><trkpt lat="36.5514817" lon="9.436931"><ele>84.5</ele><time>2026-05-03T11:10:26.035Z</time></trkpt><trkpt lat="36.5514679" lon="9.4368545"><ele>84.33333333333333</ele><time>2026-05-03T11:10:27.028Z</time></trkpt><trkpt lat="36.5514583" lon="9.4367728"><ele>84.16666666666667</ele><time>2026-05-03T11:10:28.044Z</time></trkpt><trkpt lat="36.5514517" lon="9.4366898"><ele>84.0</ele><time>2026-05-03T11:10:29.042Z</time></trkpt><trkpt lat="36.5514428" lon="9.4366084"><ele>84.0</ele><time>2026-05-03T11:10:30.05Z</time></trkpt><trkpt lat="36.5514315" lon="9.4365223"><ele>84.0</ele><time>2026-05-03T11:10:31.023Z</time></trkpt><trkpt lat="36.5514187" lon="9.4364348"><ele>84.0</ele><time>2026-05-03T11:10:32.056Z</time></trkpt><trkpt lat="36.5514051" lon="9.4363471"><ele>84.0</ele><time>2026-05-03T11:10:33.051Z</time></trkpt><trkpt lat="36.5513896" lon="9.4362624"><ele>84.0</ele><time>2026-05-03T11:10:34.043Z</time></trkpt><trkpt lat="36.551375" lon="9.4361804"><ele>84.0</ele><time>2026-05-03T11:10:35.046Z</time></trkpt><trkpt lat="36.5513589" lon="9.4360981"><ele>84.0</ele><time>2026-05-03T11:10:36.032Z</time></trkpt><trkpt lat="36.551353" lon="9.4360167"><ele>83.66666666666667</ele><time>2026-05-03T11:10:37.047Z</time></trkpt><trkpt lat="36.5513401" lon="9.4359341"><ele>83.33333333333333</ele><time>2026-05-03T11:10:38.044Z</time></trkpt><trkpt lat="36.5513285" lon="9.4358546"><ele>83.0</ele><time>2026-05-03T11:10:39.044Z</time></trkpt><trkpt lat="36.5513116" lon="9.4357768"><ele>82.66666666666666</ele><time>2026-05-03T11:10:40.018Z</time></trkpt><trkpt lat="36.5512921" lon="9.4356821"><ele>82.33333333333333</ele><time>2026-05-03T11:10:41.055Z</time></trkpt><trkpt lat="36.551273" lon="9.435574"><ele>82.0</ele><time>2026-05-03T11:10:42.048Z</time></trkpt><trkpt lat="36.5512567" lon="9.435469"><ele>82.0</ele><time>2026-05-03T11:10:43.044Z</time></trkpt><trkpt lat="36.5512412" lon="9.4353589"><ele>82.0</ele><time>2026-05-03T11:10:44.033Z</time></trkpt><trkpt lat="36.5512268" lon="9.4352453"><ele>82.0</ele><time>2026-05-03T11:10:45.055Z</time></trkpt><trkpt lat="36.5512099" lon="9.4351206"><ele>82.0</ele><time>2026-05-03T11:10:46.045Z</time></trkpt><trkpt lat="36.5511897" lon="9.4349863"><ele>82.0</ele><time>2026-05-03T11:10:47.031Z</time></trkpt><trkpt lat="36.5511734" lon="9.4348348"><ele>82.0</ele><time>2026-05-03T11:10:48.052Z</time></trkpt><trkpt lat="36.5511574" lon="9.4346762"><ele>82.0</ele><time>2026-05-03T11:10:49.05Z</time></trkpt><trkpt lat="36.5511389" lon="9.434521"><ele>82.0</ele><time>2026-05-03T11:10:50.05Z</time></trkpt><trkpt lat="36.5511155" lon="9.4343759"><ele>82.0</ele><time>2026-05-03T11:10:51.05Z</time></trkpt><trkpt lat="36.5510939" lon="9.4342303"><ele>82.75</ele><time>2026-05-03T11:10:52.032Z</time></trkpt><trkpt lat="36.5510764" lon="9.4340885"><ele>83.5</ele><time>2026-05-03T11:10:53.035Z</time></trkpt><trkpt lat="36.5510547" lon="9.4339453"><ele>84.25</ele><time>2026-05-03T11:10:54.052Z</time></trkpt><trkpt lat="36.551036" lon="9.4338049"><ele>85.0</ele><time>2026-05-03T11:10:55.044Z</time></trkpt><trkpt lat="36.5510181" lon="9.4336626"><ele>85.0</ele><time>2026-05-03T11:10:56.044Z</time></trkpt><trkpt lat="36.5509986" lon="9.4335263"><ele>85.0</ele><time>2026-05-03T11:10:57.047Z</time></trkpt><trkpt lat="36.5509776" lon="9.433389"><ele>85.0</ele><time>2026-05-03T11:10:58.038Z</time></trkpt><trkpt lat="36.550957" lon="9.4332557"><ele>85.0</ele><time>2026-05-03T11:10:59.031Z</time></trkpt><trkpt lat="36.5509371" lon="9.4331254"><ele>85.0</ele><time>2026-05-03T11:11:00.046Z</time></trkpt><trkpt lat="36.550915" lon="9.4329918"><ele>84.4</ele><time>2026-05-03T11:11:01.038Z</time></trkpt><trkpt lat="36.5508974" lon="9.4328569"><ele>83.8</ele><time>2026-05-03T11:11:02.061Z</time></trkpt><trkpt lat="36.5508787" lon="9.4327288"><ele>83.19999999999999</ele><time>2026-05-03T11:11:03.035Z</time></trkpt><trkpt lat="36.5508568" lon="9.4325984"><ele>82.6</ele><time>2026-05-03T11:11:04.052Z</time></trkpt><trkpt lat="36.5508356" lon="9.4324656"><ele>82.0</ele><time>2026-05-03T11:11:05.038Z</time></trkpt><trkpt lat="36.550815" lon="9.4323232"><ele>82.0</ele><time>2026-05-03T11:11:06.051Z</time></trkpt><trkpt lat="36.5507954" lon="9.4321802"><ele>82.0</ele><time>2026-05-03T11:11:07.048Z</time></trkpt><trkpt lat="36.5507749" lon="9.4320416"><ele>82.0</ele><time>2026-05-03T11:11:08.042Z</time></trkpt><trkpt lat="36.550756" lon="9.431903"><ele>82.0</ele><time>2026-05-03T11:11:09.041Z</time></trkpt><trkpt lat="36.5507362" lon="9.4317669"><ele>82.0</ele><time>2026-05-03T11:11:10.021Z</time></trkpt><trkpt lat="36.5507168" lon="9.431636"><ele>82.0</ele><time>2026-05-03T11:11:11.029Z</time></trkpt><trkpt lat="36.5506986" lon="9.4315029"><ele>82.0</ele><time>2026-05-03T11:11:12.042Z</time></trkpt><trkpt lat="36.5506812" lon="9.4313713"><ele>82.0</ele><time>2026-05-03T11:11:13.045Z</time></trkpt><trkpt lat="36.5506595" lon="9.4312361"><ele>82.0</ele><time>2026-05-03T11:11:14.03Z</time></trkpt><trkpt lat="36.5506389" lon="9.4310999"><ele>81.75</ele><time>2026-05-03T11:11:15.055Z</time></trkpt><trkpt lat="36.5506177" lon="9.4309565"><ele>81.5</ele><time>2026-05-03T11:11:16.049Z</time></trkpt><trkpt lat="36.5505975" lon="9.4308146"><ele>81.25</ele><time>2026-05-03T11:11:17.059Z</time></trkpt><trkpt lat="36.5505757" lon="9.4306657"><ele>81.0</ele><time>2026-05-03T11:11:18.054Z</time></trkpt><trkpt lat="36.5505529" lon="9.4305164"><ele>81.25</ele><time>2026-05-03T11:11:19.05Z</time></trkpt><trkpt lat="36.5505296" lon="9.4303664"><ele>81.5</ele><time>2026-05-03T11:11:20.036Z</time></trkpt><trkpt lat="36.5505065" lon="9.4302201"><ele>81.75</ele><time>2026-05-03T11:11:21.047Z</time></trkpt><trkpt lat="36.5504873" lon="9.430075"><ele>82.0</ele><time>2026-05-03T11:11:22.045Z</time></trkpt><trkpt lat="36.5504685" lon="9.4299336"><ele>82.0</ele><time>2026-05-03T11:11:23.045Z</time></trkpt><trkpt lat="36.5504532" lon="9.4298058"><ele>82.0</ele><time>2026-05-03T11:11:24.039Z</time></trkpt><trkpt lat="36.5504327" lon="9.4296758"><ele>82.0</ele><time>2026-05-03T11:11:25.044Z</time></trkpt><trkpt lat="36.550413" lon="9.4295513"><ele>82.0</ele><time>2026-05-03T11:11:26.044Z</time></trkpt><trkpt lat="36.5503933" lon="9.4294259"><ele>82.0</ele><time>2026-05-03T11:11:27.028Z</time></trkpt><trkpt lat="36.5503667" lon="9.429291"><ele>82.0</ele><time>2026-05-03T11:11:28.047Z</time></trkpt><trkpt lat="36.5503399" lon="9.4291511"><ele>82.0</ele><time>2026-05-03T11:11:29.053Z</time></trkpt><trkpt lat="36.5503102" lon="9.4290024"><ele>82.0</ele><time>2026-05-03T11:11:30.046Z</time></trkpt><trkpt lat="36.5502833" lon="9.4288455"><ele>82.0</ele><time>2026-05-03T11:11:31.048Z</time></trkpt><trkpt lat="36.5502628" lon="9.4286901"><ele>81.75</ele><time>2026-05-03T11:11:32.032Z</time></trkpt><trkpt lat="36.55024" lon="9.4285364"><ele>81.5</ele><time>2026-05-03T11:11:33.064Z</time></trkpt><trkpt lat="36.5502175" lon="9.4283845"><ele>81.25</ele><time>2026-05-03T11:11:34.043Z</time></trkpt><trkpt lat="36.5501943" lon="9.4282359"><ele>81.0</ele><time>2026-05-03T11:11:35.058Z</time></trkpt><trkpt lat="36.5501682" lon="9.4280873"><ele>80.6</ele><time>2026-05-03T11:11:36.044Z</time></trkpt><trkpt lat="36.5501418" lon="9.4279371"><ele>80.19999999999999</ele><time>2026-05-03T11:11:37.062Z</time></trkpt><trkpt lat="36.5501191" lon="9.4277928"><ele>79.80000000000001</ele><time>2026-05-03T11:11:38.06Z</time></trkpt><trkpt lat="36.5500995" lon="9.4276595"><ele>79.4</ele><time>2026-05-03T11:11:39.058Z</time></trkpt><trkpt lat="36.550081" lon="9.4275581"><ele>79.0</ele><time>2026-05-03T11:11:40.053Z</time></trkpt><trkpt lat="36.5500608" lon="9.427464"><ele>79.0</ele><time>2026-05-03T11:11:41.042Z</time></trkpt><trkpt lat="36.5500331" lon="9.4273626"><ele>79.0</ele><time>2026-05-03T11:11:42.052Z</time></trkpt><trkpt lat="36.5500061" lon="9.4272573"><ele>79.0</ele><time>2026-05-03T11:11:43.042Z</time></trkpt><trkpt lat="36.5499765" lon="9.4271451"><ele>79.0</ele><time>2026-05-03T11:11:44.031Z</time></trkpt><trkpt lat="36.5499465" lon="9.4270292"><ele>79.0</ele><time>2026-05-03T11:11:45.052Z</time></trkpt><trkpt lat="36.5499154" lon="9.4269136"><ele>79.2</ele><time>2026-05-03T11:11:46.037Z</time></trkpt><trkpt lat="36.5498914" lon="9.4267975"><ele>79.4</ele><time>2026-05-03T11:11:47.044Z</time></trkpt><trkpt lat="36.5498601" lon="9.4266893"><ele>79.6</ele><time>2026-05-03T11:11:48.044Z</time></trkpt><trkpt lat="36.5498345" lon="9.4265887"><ele>79.8</ele><time>2026-05-03T11:11:49.058Z</time></trkpt><trkpt lat="36.5498125" lon="9.4264881"><ele>80.0</ele><time>2026-05-03T11:11:50.04Z</time></trkpt><trkpt lat="36.549786" lon="9.4263771"><ele>79.8</ele><time>2026-05-03T11:11:51.044Z</time></trkpt><trkpt lat="36.5497555" lon="9.4262642"><ele>79.6</ele><time>2026-05-03T11:11:52.043Z</time></trkpt><trkpt lat="36.5497256" lon="9.4261425"><ele>79.4</ele><time>2026-05-03T11:11:53.05Z</time></trkpt><trkpt lat="36.5496937" lon="9.4260087"><ele>79.2</ele><time>2026-05-03T11:11:54.052Z</time></trkpt><trkpt lat="36.5496601" lon="9.4258752"><ele>79.0</ele><time>2026-05-03T11:11:55.044Z</time></trkpt><trkpt lat="36.5496311" lon="9.4257462"><ele>79.0</ele><time>2026-05-03T11:11:56.039Z</time></trkpt><trkpt lat="36.5496032" lon="9.4256174"><ele>79.0</ele><time>2026-05-03T11:11:57.052Z</time></trkpt><trkpt lat="36.5495817" lon="9.425496"><ele>79.0</ele><time>2026-05-03T11:11:58.047Z</time></trkpt><trkpt lat="36.549564" lon="9.4253775"><ele>79.0</ele><time>2026-05-03T11:11:59.057Z</time></trkpt><trkpt lat="36.5495505" lon="9.4252636"><ele>79.0</ele><time>2026-05-03T11:12:00.065Z</time></trkpt><trkpt lat="36.5495372" lon="9.4251516"><ele>78.83333333333333</ele><time>2026-05-03T11:12:01.047Z</time></trkpt><trkpt lat="36.5495231" lon="9.4250591"><ele>78.66666666666666</ele><time>2026-05-03T11:12:02.048Z</time></trkpt><trkpt lat="36.5495104" lon="9.4249808"><ele>78.5</ele><time>2026-05-03T11:12:03.036Z</time></trkpt><trkpt lat="36.5494896" lon="9.4248227"><ele>78.33333333333333</ele><time>2026-05-03T11:12:05.049Z</time></trkpt><trkpt lat="36.549472" lon="9.4247276"><ele>78.16666666666667</ele><time>2026-05-03T11:12:06.05Z</time></trkpt><trkpt lat="36.5494531" lon="9.4246232"><ele>78.0</ele><time>2026-05-03T11:12:07.035Z</time></trkpt><trkpt lat="36.5494392" lon="9.4245103"><ele>78.0</ele><time>2026-05-03T11:12:08.047Z</time></trkpt><trkpt lat="36.549421" lon="9.4244006"><ele>78.0</ele><time>2026-05-03T11:12:09.058Z</time></trkpt><trkpt lat="36.5494024" lon="9.424285"><ele>78.0</ele><time>2026-05-03T11:12:10.06Z</time></trkpt><trkpt lat="36.5493787" lon="9.4241654"><ele>78.0</ele><time>2026-05-03T11:12:11.05Z</time></trkpt><trkpt lat="36.5493647" lon="9.4240413"><ele>78.0</ele><time>2026-05-03T11:12:12.032Z</time></trkpt><trkpt lat="36.5493468" lon="9.4239194"><ele>78.25</ele><time>2026-05-03T11:12:13.041Z</time></trkpt><trkpt lat="36.5493256" lon="9.4237872"><ele>78.5</ele><time>2026-05-03T11:12:14.047Z</time></trkpt><trkpt lat="36.5493037" lon="9.4236424"><ele>78.75</ele><time>2026-05-03T11:12:15.036Z</time></trkpt><trkpt lat="36.5492783" lon="9.4234885"><ele>79.0</ele><time>2026-05-03T11:12:16.046Z</time></trkpt><trkpt lat="36.5492516" lon="9.4233312"><ele>79.0</ele><time>2026-05-03T11:12:17.056Z</time></trkpt><trkpt lat="36.5492265" lon="9.4231692"><ele>79.0</ele><time>2026-05-03T11:12:18.044Z</time></trkpt><trkpt lat="36.5492024" lon="9.4230117"><ele>79.0</ele><time>2026-05-03T11:12:19.034Z</time></trkpt><trkpt lat="36.5491782" lon="9.4228563"><ele>79.0</ele><time>2026-05-03T11:12:20.06Z</time></trkpt><trkpt lat="36.5491568" lon="9.4227009"><ele>78.0</ele><time>2026-05-03T11:12:21.043Z</time></trkpt><trkpt lat="36.5491307" lon="9.4225502"><ele>77.0</ele><time>2026-05-03T11:12:22.05Z</time></trkpt><trkpt lat="36.5491041" lon="9.4224035"><ele>76.0</ele><time>2026-05-03T11:12:23.049Z</time></trkpt><trkpt lat="36.5490789" lon="9.4222506"><ele>75.0</ele><time>2026-05-03T11:12:24.039Z</time></trkpt><trkpt lat="36.5490533" lon="9.422099"><ele>74.75</ele><time>2026-05-03T11:12:25.047Z</time></trkpt><trkpt lat="36.5490283" lon="9.4219468"><ele>74.5</ele><time>2026-05-03T11:12:26.041Z</time></trkpt><trkpt lat="36.5489999" lon="9.42179"><ele>74.25</ele><time>2026-05-03T11:12:27.038Z</time></trkpt><trkpt lat="36.5489686" lon="9.4216376"><ele>74.0</ele><time>2026-05-03T11:12:28.044Z</time></trkpt><trkpt lat="36.548937" lon="9.4214846"><ele>74.0</ele><time>2026-05-03T11:12:29.047Z</time></trkpt><trkpt lat="36.5488973" lon="9.4213307"><ele>74.0</ele><time>2026-05-03T11:12:30.036Z</time></trkpt><trkpt lat="36.5488438" lon="9.4211716"><ele>74.0</ele><time>2026-05-03T11:12:31.041Z</time></trkpt><trkpt lat="36.5487897" lon="9.4210141"><ele>74.0</ele><time>2026-05-03T11:12:32.052Z</time></trkpt><trkpt lat="36.5487351" lon="9.4208561"><ele>74.25</ele><time>2026-05-03T11:12:33.044Z</time></trkpt><trkpt lat="36.5486748" lon="9.4206952"><ele>74.5</ele><time>2026-05-03T11:12:34.04Z</time></trkpt><trkpt lat="36.5486152" lon="9.4205456"><ele>74.75</ele><time>2026-05-03T11:12:35.046Z</time></trkpt><trkpt lat="36.5485548" lon="9.4203948"><ele>75.0</ele><time>2026-05-03T11:12:36.052Z</time></trkpt><trkpt lat="36.5484941" lon="9.4202531"><ele>74.5</ele><time>2026-05-03T11:12:37.046Z</time></trkpt><trkpt lat="36.5484354" lon="9.420113"><ele>74.0</ele><time>2026-05-03T11:12:38.047Z</time></trkpt><trkpt lat="36.5483789" lon="9.4199668"><ele>73.5</ele><time>2026-05-03T11:12:39.044Z</time></trkpt><trkpt lat="36.5483242" lon="9.4198244"><ele>73.0</ele><time>2026-05-03T11:12:40.051Z</time></trkpt><trkpt lat="36.5482716" lon="9.4196853"><ele>72.5</ele><time>2026-05-03T11:12:41.063Z</time></trkpt><trkpt lat="36.5482172" lon="9.4195394"><ele>72.0</ele><time>2026-05-03T11:12:42.047Z</time></trkpt><trkpt lat="36.5481609" lon="9.4193948"><ele>71.5</ele><time>2026-05-03T11:12:43.065Z</time></trkpt><trkpt lat="36.5481009" lon="9.4192524"><ele>71.0</ele><time>2026-05-03T11:12:44.041Z</time></trkpt><trkpt lat="36.5480415" lon="9.4191066"><ele>71.0</ele><time>2026-05-03T11:12:45.036Z</time></trkpt><trkpt lat="36.5479853" lon="9.4189613"><ele>71.0</ele><time>2026-05-03T11:12:46.051Z</time></trkpt><trkpt lat="36.5479261" lon="9.4188194"><ele>71.0</ele><time>2026-05-03T11:12:47.049Z</time></trkpt><trkpt lat="36.5478667" lon="9.4186756"><ele>71.0</ele><time>2026-05-03T11:12:48.037Z</time></trkpt><trkpt lat="36.5478095" lon="9.4185323"><ele>71.25</ele><time>2026-05-03T11:12:49.062Z</time></trkpt><trkpt lat="36.5477514" lon="9.4183815"><ele>71.5</ele><time>2026-05-03T11:12:50.047Z</time></trkpt><trkpt lat="36.5476905" lon="9.4182323"><ele>71.75</ele><time>2026-05-03T11:12:51.056Z</time></trkpt><trkpt lat="36.54763" lon="9.4180799"><ele>72.0</ele><time>2026-05-03T11:12:52.05Z</time></trkpt><trkpt lat="36.5475663" lon="9.4179267"><ele>72.0</ele><time>2026-05-03T11:12:53.046Z</time></trkpt><trkpt lat="36.5475076" lon="9.4177753"><ele>72.0</ele><time>2026-05-03T11:12:54.044Z</time></trkpt><trkpt lat="36.5474477" lon="9.4176245"><ele>72.0</ele><time>2026-05-03T11:12:55.068Z</time></trkpt><trkpt lat="36.5473847" lon="9.4174701"><ele>72.0</ele><time>2026-05-03T11:12:56.049Z</time></trkpt><trkpt lat="36.547328" lon="9.4173065"><ele>71.66666666666667</ele><time>2026-05-03T11:12:57.054Z</time></trkpt><trkpt lat="36.5472706" lon="9.4171347"><ele>71.33333333333334</ele><time>2026-05-03T11:12:58.042Z</time></trkpt><trkpt lat="36.5472084" lon="9.4169436"><ele>71.0</ele><time>2026-05-03T11:12:59.047Z</time></trkpt><trkpt lat="36.5471425" lon="9.4167622"><ele>71.0</ele><time>2026-05-03T11:13:00.032Z</time></trkpt><trkpt lat="36.5470695" lon="9.4165818"><ele>71.0</ele><time>2026-05-03T11:13:01.05Z</time></trkpt><trkpt lat="36.546997" lon="9.4164052"><ele>71.0</ele><time>2026-05-03T11:13:02.054Z</time></trkpt><trkpt lat="36.5469303" lon="9.4162285"><ele>71.5</ele><time>2026-05-03T11:13:03.042Z</time></trkpt><trkpt lat="36.5468621" lon="9.4160652"><ele>72.0</ele><time>2026-05-03T11:13:04.044Z</time></trkpt><trkpt lat="36.5467978" lon="9.4159155"><ele>72.5</ele><time>2026-05-03T11:13:05.047Z</time></trkpt><trkpt lat="36.5467437" lon="9.415776"><ele>73.0</ele><time>2026-05-03T11:13:06.062Z</time></trkpt><trkpt lat="36.5466927" lon="9.415633"><ele>73.0</ele><time>2026-05-03T11:13:07.047Z</time></trkpt><trkpt lat="36.5466429" lon="9.4155024"><ele>73.0</ele><time>2026-05-03T11:13:08.055Z</time></trkpt><trkpt lat="36.5465896" lon="9.4153687"><ele>73.0</ele><time>2026-05-03T11:13:09.061Z</time></trkpt><trkpt lat="36.546531" lon="9.4152302"><ele>73.0</ele><time>2026-05-03T11:13:10.041Z</time></trkpt><trkpt lat="36.5464775" lon="9.415089"><ele>73.0</ele><time>2026-05-03T11:13:11.044Z</time></trkpt><trkpt lat="36.5464159" lon="9.4149365"><ele>73.0</ele><time>2026-05-03T11:13:12.059Z</time></trkpt><trkpt lat="36.5463492" lon="9.414781"><ele>73.0</ele><time>2026-05-03T11:13:13.051Z</time></trkpt><trkpt lat="36.5462744" lon="9.414619"><ele>73.0</ele><time>2026-05-03T11:13:14.05Z</time></trkpt><trkpt lat="36.5462" lon="9.4144516"><ele>74.33333333333333</ele><time>2026-05-03T11:13:15.059Z</time></trkpt><trkpt lat="36.5461301" lon="9.4142845"><ele>75.66666666666667</ele><time>2026-05-03T11:13:16.07Z</time></trkpt><trkpt lat="36.5460548" lon="9.4141168"><ele>77.0</ele><time>2026-05-03T11:13:17.047Z</time></trkpt><trkpt lat="36.5459843" lon="9.4139546"><ele>76.75</ele><time>2026-05-03T11:13:18.05Z</time></trkpt><trkpt lat="36.5459136" lon="9.4137934"><ele>76.5</ele><time>2026-05-03T11:13:19.058Z</time></trkpt><trkpt lat="36.5458464" lon="9.4136376"><ele>76.25</ele><time>2026-05-03T11:13:20.038Z</time></trkpt><trkpt lat="36.5457849" lon="9.4134839"><ele>76.0</ele><time>2026-05-03T11:13:21.06Z</time></trkpt><trkpt lat="36.5457252" lon="9.4133361"><ele>76.0</ele><time>2026-05-03T11:13:22.064Z</time></trkpt><trkpt lat="36.5456598" lon="9.4131895"><ele>76.0</ele><time>2026-05-03T11:13:23.055Z</time></trkpt><trkpt lat="36.5455961" lon="9.4130442"><ele>76.0</ele><time>2026-05-03T11:13:24.053Z</time></trkpt><trkpt lat="36.545537" lon="9.4128969"><ele>76.0</ele><time>2026-05-03T11:13:25.045Z</time></trkpt><trkpt lat="36.5454731" lon="9.4127545"><ele>76.25</ele><time>2026-05-03T11:13:26.059Z</time></trkpt><trkpt lat="36.5454127" lon="9.4126097"><ele>76.5</ele><time>2026-05-03T11:13:27.048Z</time></trkpt><trkpt lat="36.5453495" lon="9.4124642"><ele>76.75</ele><time>2026-05-03T11:13:28.048Z</time></trkpt><trkpt lat="36.5452858" lon="9.4123207"><ele>77.0</ele><time>2026-05-03T11:13:29.038Z</time></trkpt><trkpt lat="36.5452241" lon="9.4121717"><ele>77.25</ele><time>2026-05-03T11:13:30.031Z</time></trkpt><trkpt lat="36.5451643" lon="9.4120256"><ele>77.5</ele><time>2026-05-03T11:13:31.05Z</time></trkpt><trkpt lat="36.545102" lon="9.411882"><ele>77.75</ele><time>2026-05-03T11:13:32.052Z</time></trkpt><trkpt lat="36.5450402" lon="9.4117335"><ele>78.0</ele><time>2026-05-03T11:13:33.05Z</time></trkpt><trkpt lat="36.5449769" lon="9.4115819"><ele>78.0</ele><time>2026-05-03T11:13:34.051Z</time></trkpt><trkpt lat="36.5449127" lon="9.4114331"><ele>78.0</ele><time>2026-05-03T11:13:35.057Z</time></trkpt><trkpt lat="36.5448478" lon="9.4112914"><ele>78.0</ele><time>2026-05-03T11:13:36.058Z</time></trkpt><trkpt lat="36.5447808" lon="9.4111479"><ele>78.0</ele><time>2026-05-03T11:13:37.064Z</time></trkpt><trkpt lat="36.5447122" lon="9.4109998"><ele>78.75</ele><time>2026-05-03T11:13:38.052Z</time></trkpt><trkpt lat="36.5446504" lon="9.4108512"><ele>79.5</ele><time>2026-05-03T11:13:39.051Z</time></trkpt><trkpt lat="36.5445874" lon="9.410698"><ele>80.25</ele><time>2026-05-03T11:13:40.046Z</time></trkpt><trkpt lat="36.5445209" lon="9.4105416"><ele>81.0</ele><time>2026-05-03T11:13:41.051Z</time></trkpt><trkpt lat="36.5444518" lon="9.410386"><ele>81.25</ele><time>2026-05-03T11:13:42.062Z</time></trkpt><trkpt lat="36.5443833" lon="9.4102339"><ele>81.5</ele><time>2026-05-03T11:13:43.069Z</time></trkpt><trkpt lat="36.5443139" lon="9.4100714"><ele>81.75</ele><time>2026-05-03T11:13:44.047Z</time></trkpt><trkpt lat="36.5442443" lon="9.4099052"><ele>82.0</ele><time>2026-05-03T11:13:45.048Z</time></trkpt><trkpt lat="36.5441754" lon="9.4097378"><ele>82.75</ele><time>2026-05-03T11:13:46.048Z</time></trkpt><trkpt lat="36.5441016" lon="9.4095745"><ele>83.5</ele><time>2026-05-03T11:13:47.047Z</time></trkpt><trkpt lat="36.5440311" lon="9.4094124"><ele>84.25</ele><time>2026-05-03T11:13:48.054Z</time></trkpt><trkpt lat="36.5439602" lon="9.4092505"><ele>85.0</ele><time>2026-05-03T11:13:49.04Z</time></trkpt><trkpt lat="36.5438937" lon="9.4090907"><ele>85.0</ele><time>2026-05-03T11:13:50.048Z</time></trkpt><trkpt lat="36.5438238" lon="9.4089338"><ele>85.0</ele><time>2026-05-03T11:13:51.047Z</time></trkpt><trkpt lat="36.543756" lon="9.4087763"><ele>85.0</ele><time>2026-05-03T11:13:52.049Z</time></trkpt><trkpt lat="36.5436935" lon="9.4086224"><ele>85.0</ele><time>2026-05-03T11:13:53.052Z</time></trkpt><trkpt lat="36.5436325" lon="9.4084733"><ele>85.5</ele><time>2026-05-03T11:13:54.039Z</time></trkpt><trkpt lat="36.5435704" lon="9.4083435"><ele>86.0</ele><time>2026-05-03T11:13:55.062Z</time></trkpt><trkpt lat="36.5435122" lon="9.4082214"><ele>86.5</ele><time>2026-05-03T11:13:56.045Z</time></trkpt><trkpt lat="36.5434494" lon="9.4080895"><ele>87.0</ele><time>2026-05-03T11:13:57.058Z</time></trkpt><trkpt lat="36.5433898" lon="9.4079576"><ele>87.5</ele><time>2026-05-03T11:13:58.065Z</time></trkpt><trkpt lat="36.5433313" lon="9.407821"><ele>88.0</ele><time>2026-05-03T11:13:59.059Z</time></trkpt><trkpt lat="36.5432761" lon="9.4076872"><ele>88.5</ele><time>2026-05-03T11:14:00.056Z</time></trkpt><trkpt lat="36.5432224" lon="9.4075409"><ele>89.0</ele><time>2026-05-03T11:14:01.066Z</time></trkpt><trkpt lat="36.5431621" lon="9.4073933"><ele>89.0</ele><time>2026-05-03T11:14:02.046Z</time></trkpt><trkpt lat="36.5430951" lon="9.4072434"><ele>89.0</ele><time>2026-05-03T11:14:03.044Z</time></trkpt><trkpt lat="36.5430329" lon="9.4070994"><ele>89.0</ele><time>2026-05-03T11:14:04.047Z</time></trkpt><trkpt lat="36.5429728" lon="9.4069586"><ele>89.0</ele><time>2026-05-03T11:14:05.049Z</time></trkpt><trkpt lat="36.5429052" lon="9.406824"><ele>90.25</ele><time>2026-05-03T11:14:06.038Z</time></trkpt><trkpt lat="36.5428345" lon="9.4066837"><ele>91.5</ele><time>2026-05-03T11:14:07.046Z</time></trkpt><trkpt lat="36.5427545" lon="9.4065431"><ele>92.75</ele><time>2026-05-03T11:14:08.063Z</time></trkpt><trkpt lat="36.542681" lon="9.4064006"><ele>94.0</ele><time>2026-05-03T11:14:09.06Z</time></trkpt><trkpt lat="36.5426135" lon="9.4062534"><ele>95.0</ele><time>2026-05-03T11:14:10.062Z</time></trkpt><trkpt lat="36.5425502" lon="9.4060977"><ele>96.0</ele><time>2026-05-03T11:14:11.038Z</time></trkpt><trkpt lat="36.5424891" lon="9.4059428"><ele>97.0</ele><time>2026-05-03T11:14:12.062Z</time></trkpt><trkpt lat="36.5424274" lon="9.4057948"><ele>98.0</ele><time>2026-05-03T11:14:13.048Z</time></trkpt><trkpt lat="36.5423644" lon="9.4056461"><ele>98.75</ele><time>2026-05-03T11:14:14.053Z</time></trkpt><trkpt lat="36.5422997" lon="9.4054916"><ele>99.5</ele><time>2026-05-03T11:14:15.056Z</time></trkpt><trkpt lat="36.5422384" lon="9.4053378"><ele>100.25</ele><time>2026-05-03T11:14:16.051Z</time></trkpt><trkpt lat="36.5421776" lon="9.4051851"><ele>101.0</ele><time>2026-05-03T11:14:17.046Z</time></trkpt><trkpt lat="36.5421184" lon="9.4050284"><ele>101.0</ele><time>2026-05-03T11:14:18.041Z</time></trkpt><trkpt lat="36.5420609" lon="9.4048714"><ele>101.0</ele><time>2026-05-03T11:14:19.048Z</time></trkpt><trkpt lat="36.542002" lon="9.4047161"><ele>101.0</ele><time>2026-05-03T11:14:20.05Z</time></trkpt><trkpt lat="36.541933" lon="9.4045623"><ele>101.0</ele><time>2026-05-03T11:14:21.05Z</time></trkpt><trkpt lat="36.5418597" lon="9.4044282"><ele>102.0</ele><time>2026-05-03T11:14:22.042Z</time></trkpt><trkpt lat="36.5417728" lon="9.4043081"><ele>103.0</ele><time>2026-05-03T11:14:23.033Z</time></trkpt><trkpt lat="36.5416806" lon="9.4042003"><ele>104.0</ele><time>2026-05-03T11:14:24.047Z</time></trkpt><trkpt lat="36.5415823" lon="9.4040952"><ele>105.0</ele><time>2026-05-03T11:14:25.049Z</time></trkpt><trkpt lat="36.54147" lon="9.4039895"><ele>105.0</ele><time>2026-05-03T11:14:26.052Z</time></trkpt><trkpt lat="36.5413416" lon="9.4038966"><ele>105.0</ele><time>2026-05-03T11:14:27.048Z</time></trkpt><trkpt lat="36.5412114" lon="9.4038086"><ele>105.0</ele><time>2026-05-03T11:14:28.044Z</time></trkpt><trkpt lat="36.5410856" lon="9.4037199"><ele>105.0</ele><time>2026-05-03T11:14:29.048Z</time></trkpt><trkpt lat="36.54097" lon="9.4036347"><ele>104.5</ele><time>2026-05-03T11:14:30.051Z</time></trkpt><trkpt lat="36.5408534" lon="9.4035463"><ele>104.0</ele><time>2026-05-03T11:14:31.049Z</time></trkpt><trkpt lat="36.5407456" lon="9.403447"><ele>103.5</ele><time>2026-05-03T11:14:32.044Z</time></trkpt><trkpt lat="36.5406465" lon="9.4033368"><ele>103.0</ele><time>2026-05-03T11:14:33.052Z</time></trkpt><trkpt lat="36.5405509" lon="9.403213"><ele>103.0</ele><time>2026-05-03T11:14:34.047Z</time></trkpt><trkpt lat="36.5404669" lon="9.4030683"><ele>103.0</ele><time>2026-05-03T11:14:35.029Z</time></trkpt><trkpt lat="36.5404028" lon="9.4029115"><ele>103.0</ele><time>2026-05-03T11:14:36.045Z</time></trkpt><trkpt lat="36.5403584" lon="9.4027423"><ele>103.0</ele><time>2026-05-03T11:14:37.05Z</time></trkpt><trkpt lat="36.540343" lon="9.4025694"><ele>102.5</ele><time>2026-05-03T11:14:38.049Z</time></trkpt><trkpt lat="36.540345" lon="9.4024052"><ele>102.0</ele><time>2026-05-03T11:14:39.046Z</time></trkpt><trkpt lat="36.5403647" lon="9.4022335"><ele>101.5</ele><time>2026-05-03T11:14:40.035Z</time></trkpt><trkpt lat="36.5404051" lon="9.4020672"><ele>101.0</ele><time>2026-05-03T11:14:41.043Z</time></trkpt><trkpt lat="36.5404575" lon="9.4019091"><ele>100.66666666666666</ele><time>2026-05-03T11:14:42.03Z</time></trkpt><trkpt lat="36.5405099" lon="9.4017435"><ele>100.33333333333334</ele><time>2026-05-03T11:14:43.055Z</time></trkpt><trkpt lat="36.5405773" lon="9.401574"><ele>100.0</ele><time>2026-05-03T11:14:44.037Z</time></trkpt><trkpt lat="36.5406458" lon="9.4013956"><ele>101.0</ele><time>2026-05-03T11:14:45.04Z</time></trkpt><trkpt lat="36.5407064" lon="9.4012258"><ele>102.0</ele><time>2026-05-03T11:14:46.06Z</time></trkpt><trkpt lat="36.5407591" lon="9.4010686"><ele>103.0</ele><time>2026-05-03T11:14:47.044Z</time></trkpt><trkpt lat="36.5408084" lon="9.4009216"><ele>104.0</ele><time>2026-05-03T11:14:48.068Z</time></trkpt><trkpt lat="36.5408536" lon="9.4007844"><ele>103.99999999999999</ele><time>2026-05-03T11:14:49.05Z</time></trkpt><trkpt lat="36.5408894" lon="9.400658"><ele>104.0</ele><time>2026-05-03T11:14:50.046Z</time></trkpt><trkpt lat="36.5409192" lon="9.4005383"><ele>104.0</ele><time>2026-05-03T11:14:51.052Z</time></trkpt><trkpt lat="36.5409389" lon="9.4004411"><ele>104.0</ele><time>2026-05-03T11:14:52.047Z</time></trkpt><trkpt lat="36.5409581" lon="9.4003655"><ele>103.99999999999999</ele><time>2026-05-03T11:14:53.037Z</time></trkpt><trkpt lat="36.5409959" lon="9.4002725"><ele>104.0</ele><time>2026-05-03T11:14:55.043Z</time></trkpt><trkpt lat="36.541055" lon="9.4002098"><ele>104.49999999999999</ele><time>2026-05-03T11:14:58.066Z</time></trkpt><trkpt lat="36.5411052" lon="9.4001405"><ele>105.0</ele><time>2026-05-03T11:15:02.044Z</time></trkpt><trkpt lat="36.541106" lon="9.4000519"><ele>105.5</ele><time>2026-05-03T11:21:33.02Z</time></trkpt><trkpt lat="36.5410679" lon="9.3999623"><ele>106.0</ele><time>2026-05-03T11:21:37.03Z</time></trkpt><trkpt lat="36.5410342" lon="9.399863"><ele>106.49999999999999</ele><time>2026-05-03T11:21:40.076Z</time></trkpt><trkpt lat="36.5410432" lon="9.3997722"><ele>107.0</ele><time>2026-05-03T11:21:42.086Z</time></trkpt><trkpt lat="36.541046" lon="9.3996526"><ele>108.39999999999999</ele><time>2026-05-03T11:21:44.034Z</time></trkpt><trkpt lat="36.5410538" lon="9.3994925"><ele>109.79999999999998</ele><time>2026-05-03T11:21:46.032Z</time></trkpt><trkpt lat="36.5410628" lon="9.3993966"><ele>111.2</ele><time>2026-05-03T11:21:47.044Z</time></trkpt><trkpt lat="36.5410691" lon="9.3992924"><ele>112.6</ele><time>2026-05-03T11:21:48.034Z</time></trkpt><trkpt lat="36.5410757" lon="9.3991741"><ele>114.0</ele><time>2026-05-03T11:21:49.064Z</time></trkpt><trkpt lat="36.5410904" lon="9.3989252"><ele>120.0</ele><time>2026-05-03T11:21:51.023Z</time></trkpt><trkpt lat="36.5411226" lon="9.3983523"><ele>120.0</ele><time>2026-05-03T11:21:55.041Z</time></trkpt><trkpt lat="36.5411398" lon="9.3981755"><ele>120.0</ele><time>2026-05-03T11:21:56.041Z</time></trkpt><trkpt lat="36.5411518" lon="9.3979977"><ele>120.0</ele><time>2026-05-03T11:21:57.06Z</time></trkpt><trkpt lat="36.5411606" lon="9.3978062"><ele>120.0</ele><time>2026-05-03T11:21:58.053Z</time></trkpt><trkpt lat="36.5411709" lon="9.3976079"><ele>121.0</ele><time>2026-05-03T11:21:59.052Z</time></trkpt><trkpt lat="36.5411858" lon="9.3974124"><ele>122.0</ele><time>2026-05-03T11:22:00.035Z</time></trkpt><trkpt lat="36.5412" lon="9.3972145"><ele>123.0</ele><time>2026-05-03T11:22:01.061Z</time></trkpt><trkpt lat="36.5412151" lon="9.3970216"><ele>122.33333333333334</ele><time>2026-05-03T11:22:02.069Z</time></trkpt><trkpt lat="36.5412264" lon="9.3968259"><ele>121.66666666666667</ele><time>2026-05-03T11:22:03.052Z</time></trkpt><trkpt lat="36.5412323" lon="9.3966297"><ele>121.0</ele><time>2026-05-03T11:22:04.047Z</time></trkpt><trkpt lat="36.541229" lon="9.3964305"><ele>122.0</ele><time>2026-05-03T11:22:05.024Z</time></trkpt><trkpt lat="36.5412206" lon="9.3962248"><ele>123.0</ele><time>2026-05-03T11:22:06.041Z</time></trkpt><trkpt lat="36.5412092" lon="9.3960135"><ele>124.0</ele><time>2026-05-03T11:22:07.027Z</time></trkpt><trkpt lat="36.5411924" lon="9.3958057"><ele>124.0</ele><time>2026-05-03T11:22:08.032Z</time></trkpt><trkpt lat="36.5411645" lon="9.395596"><ele>124.0</ele><time>2026-05-03T11:22:09.067Z</time></trkpt><trkpt lat="36.5411269" lon="9.3953845"><ele>124.0</ele><time>2026-05-03T11:22:10.03Z</time></trkpt><trkpt lat="36.5410862" lon="9.3951723"><ele>123.33333333333334</ele><time>2026-05-03T11:22:11.029Z</time></trkpt><trkpt lat="36.541039" lon="9.3949491"><ele>122.66666666666666</ele><time>2026-05-03T11:22:12.058Z</time></trkpt><trkpt lat="36.5409872" lon="9.3947325"><ele>122.0</ele><time>2026-05-03T11:22:13.048Z</time></trkpt><trkpt lat="36.5409226" lon="9.3945207"><ele>121.33333333333333</ele><time>2026-05-03T11:22:14.063Z</time></trkpt><trkpt lat="36.540854" lon="9.3943069"><ele>120.66666666666666</ele><time>2026-05-03T11:22:15.054Z</time></trkpt><trkpt lat="36.5407722" lon="9.3940952"><ele>120.0</ele><time>2026-05-03T11:22:16.034Z</time></trkpt><trkpt lat="36.5406848" lon="9.3938845"><ele>119.33333333333334</ele><time>2026-05-03T11:22:17.052Z</time></trkpt><trkpt lat="36.5405824" lon="9.3936763"><ele>118.66666666666667</ele><time>2026-05-03T11:22:18.042Z</time></trkpt><trkpt lat="36.5404669" lon="9.3934815"><ele>118.0</ele><time>2026-05-03T11:22:19.054Z</time></trkpt><trkpt lat="36.5403564" lon="9.3932805"><ele>120.0</ele><time>2026-05-03T11:22:20.026Z</time></trkpt><trkpt lat="36.54024" lon="9.3930842"><ele>122.0</ele><time>2026-05-03T11:22:21.042Z</time></trkpt><trkpt lat="36.5401161" lon="9.39288"><ele>124.0</ele><time>2026-05-03T11:22:22.062Z</time></trkpt><trkpt lat="36.5399933" lon="9.3926755"><ele>124.0</ele><time>2026-05-03T11:22:23.056Z</time></trkpt><trkpt lat="36.5398691" lon="9.3924723"><ele>124.0</ele><time>2026-05-03T11:22:24.052Z</time></trkpt><trkpt lat="36.5397447" lon="9.3922679"><ele>124.0</ele><time>2026-05-03T11:22:25.041Z</time></trkpt><trkpt lat="36.5396165" lon="9.3920585"><ele>124.0</ele><time>2026-05-03T11:22:26.047Z</time></trkpt><trkpt lat="36.5394898" lon="9.3918518"><ele>124.0</ele><time>2026-05-03T11:22:27.029Z</time></trkpt><trkpt lat="36.5393674" lon="9.391651"><ele>124.0</ele><time>2026-05-03T11:22:28.047Z</time></trkpt><trkpt lat="36.5392465" lon="9.3914458"><ele>123.66666666666667</ele><time>2026-05-03T11:22:29.053Z</time></trkpt><trkpt lat="36.5391204" lon="9.3912421"><ele>123.33333333333334</ele><time>2026-05-03T11:22:30.034Z</time></trkpt><trkpt lat="36.5389994" lon="9.3910299"><ele>123.0</ele><time>2026-05-03T11:22:31.036Z</time></trkpt><trkpt lat="36.5388782" lon="9.3908214"><ele>123.0</ele><time>2026-05-03T11:22:32.057Z</time></trkpt><trkpt lat="36.5387493" lon="9.3906146"><ele>123.0</ele><time>2026-05-03T11:22:33.05Z</time></trkpt><trkpt lat="36.5386219" lon="9.390403"><ele>123.0</ele><time>2026-05-03T11:22:34.062Z</time></trkpt><trkpt lat="36.5384962" lon="9.3901926"><ele>124.0</ele><time>2026-05-03T11:22:35.041Z</time></trkpt><trkpt lat="36.5383702" lon="9.3899804"><ele>125.0</ele><time>2026-05-03T11:22:36.061Z</time></trkpt><trkpt lat="36.538246" lon="9.3897698"><ele>126.0</ele><time>2026-05-03T11:22:37.045Z</time></trkpt><trkpt lat="36.5381245" lon="9.3895585"><ele>126.0</ele><time>2026-05-03T11:22:38.034Z</time></trkpt><trkpt lat="36.5379977" lon="9.3893571"><ele>126.0</ele><time>2026-05-03T11:22:39.057Z</time></trkpt><trkpt lat="36.5378728" lon="9.3891485"><ele>126.0</ele><time>2026-05-03T11:22:40.05Z</time></trkpt><trkpt lat="36.537748" lon="9.3889338"><ele>128.0</ele><time>2026-05-03T11:22:41.058Z</time></trkpt><trkpt lat="36.5376202" lon="9.3887224"><ele>130.0</ele><time>2026-05-03T11:22:42.043Z</time></trkpt><trkpt lat="36.537492" lon="9.3885098"><ele>132.0</ele><time>2026-05-03T11:22:43.038Z</time></trkpt><trkpt lat="36.5373637" lon="9.3882922"><ele>132.0</ele><time>2026-05-03T11:22:44.046Z</time></trkpt><trkpt lat="36.5372302" lon="9.3880787"><ele>132.0</ele><time>2026-05-03T11:22:45.057Z</time></trkpt><trkpt lat="36.5370989" lon="9.3878609"><ele>132.0</ele><time>2026-05-03T11:22:46.031Z</time></trkpt><trkpt lat="36.5369684" lon="9.3876437"><ele>133.0</ele><time>2026-05-03T11:22:47.032Z</time></trkpt><trkpt lat="36.5368356" lon="9.3874285"><ele>134.0</ele><time>2026-05-03T11:22:48.05Z</time></trkpt><trkpt lat="36.5367023" lon="9.3872089"><ele>135.0</ele><time>2026-05-03T11:22:49.063Z</time></trkpt><trkpt lat="36.536571" lon="9.3869915"><ele>132.0</ele><time>2026-05-03T11:22:50.045Z</time></trkpt><trkpt lat="36.5364412" lon="9.3867782"><ele>129.0</ele><time>2026-05-03T11:22:51.051Z</time></trkpt><trkpt lat="36.536312" lon="9.3865619"><ele>126.0</ele><time>2026-05-03T11:22:52.048Z</time></trkpt><trkpt lat="36.5361838" lon="9.3863413"><ele>126.0</ele><time>2026-05-03T11:22:53.044Z</time></trkpt><trkpt lat="36.5360531" lon="9.3861113"><ele>126.0</ele><time>2026-05-03T11:22:54.066Z</time></trkpt><trkpt lat="36.5359328" lon="9.3858747"><ele>126.0</ele><time>2026-05-03T11:22:55.043Z</time></trkpt><trkpt lat="36.5358155" lon="9.385644"><ele>126.0</ele><time>2026-05-03T11:22:56.056Z</time></trkpt><trkpt lat="36.5356975" lon="9.385417"><ele>126.0</ele><time>2026-05-03T11:22:57.056Z</time></trkpt><trkpt lat="36.5355849" lon="9.385195"><ele>126.33333333333334</ele><time>2026-05-03T11:22:58.04Z</time></trkpt><trkpt lat="36.5354733" lon="9.3849716"><ele>126.66666666666667</ele><time>2026-05-03T11:22:59.034Z</time></trkpt><trkpt lat="36.5353618" lon="9.3847453"><ele>127.0</ele><time>2026-05-03T11:23:00.025Z</time></trkpt><trkpt lat="36.5352529" lon="9.3845187"><ele>127.0</ele><time>2026-05-03T11:23:01.043Z</time></trkpt><trkpt lat="36.5351403" lon="9.3842886"><ele>127.0</ele><time>2026-05-03T11:23:02.063Z</time></trkpt><trkpt lat="36.5350288" lon="9.384062"><ele>127.0</ele><time>2026-05-03T11:23:03.069Z</time></trkpt><trkpt lat="36.5349182" lon="9.383842"><ele>124.66666666666667</ele><time>2026-05-03T11:23:04.024Z</time></trkpt><trkpt lat="36.534809" lon="9.3836233"><ele>122.33333333333334</ele><time>2026-05-03T11:23:05.064Z</time></trkpt><trkpt lat="36.5347031" lon="9.3834112"><ele>120.0</ele><time>2026-05-03T11:23:06.056Z</time></trkpt><trkpt lat="36.5345965" lon="9.3831964"><ele>121.66666666666666</ele><time>2026-05-03T11:23:07.052Z</time></trkpt><trkpt lat="36.5344871" lon="9.3829817"><ele>123.33333333333333</ele><time>2026-05-03T11:23:08.04Z</time></trkpt><trkpt lat="36.5343775" lon="9.3827648"><ele>125.0</ele><time>2026-05-03T11:23:09.049Z</time></trkpt><trkpt lat="36.5342677" lon="9.3825434"><ele>125.0</ele><time>2026-05-03T11:23:10.045Z</time></trkpt><trkpt lat="36.5341602" lon="9.3823249"><ele>125.0</ele><time>2026-05-03T11:23:11.023Z</time></trkpt><trkpt lat="36.5340545" lon="9.382106"><ele>125.0</ele><time>2026-05-03T11:23:12.023Z</time></trkpt><trkpt lat="36.5339451" lon="9.381892"><ele>125.33333333333333</ele><time>2026-05-03T11:23:13.035Z</time></trkpt><trkpt lat="36.5338306" lon="9.3816803"><ele>125.66666666666666</ele><time>2026-05-03T11:23:14.021Z</time></trkpt><trkpt lat="36.5337247" lon="9.3814658"><ele>126.0</ele><time>2026-05-03T11:23:15.051Z</time></trkpt><trkpt lat="36.5336196" lon="9.3812471"><ele>126.0</ele><time>2026-05-03T11:23:16.053Z</time></trkpt><trkpt lat="36.5335142" lon="9.3810244"><ele>126.0</ele><time>2026-05-03T11:23:17.043Z</time></trkpt><trkpt lat="36.5334059" lon="9.3808055"><ele>126.0</ele><time>2026-05-03T11:23:18.055Z</time></trkpt><trkpt lat="36.533299" lon="9.3805858"><ele>126.66666666666666</ele><time>2026-05-03T11:23:19.044Z</time></trkpt><trkpt lat="36.5331931" lon="9.3803567"><ele>127.33333333333333</ele><time>2026-05-03T11:23:20.05Z</time></trkpt><trkpt lat="36.533091" lon="9.3801201"><ele>128.0</ele><time>2026-05-03T11:23:21.045Z</time></trkpt><trkpt lat="36.5329921" lon="9.379871"><ele>128.66666666666666</ele><time>2026-05-03T11:23:22.052Z</time></trkpt><trkpt lat="36.5328991" lon="9.3796204"><ele>129.33333333333334</ele><time>2026-05-03T11:23:23.043Z</time></trkpt><trkpt lat="36.53281" lon="9.3793607"><ele>130.0</ele><time>2026-05-03T11:23:24.033Z</time></trkpt><trkpt lat="36.5327229" lon="9.3791027"><ele>131.5</ele><time>2026-05-03T11:23:25.039Z</time></trkpt><trkpt lat="36.5326465" lon="9.3788339"><ele>133.0</ele><time>2026-05-03T11:23:26.036Z</time></trkpt><trkpt lat="36.5325695" lon="9.3785576"><ele>133.0</ele><time>2026-05-03T11:23:27.053Z</time></trkpt><trkpt lat="36.5325007" lon="9.3782755"><ele>133.0</ele><time>2026-05-03T11:23:28.058Z</time></trkpt><trkpt lat="36.5324405" lon="9.3779823"><ele>136.5</ele><time>2026-05-03T11:23:29.041Z</time></trkpt><trkpt lat="36.5323946" lon="9.3776872"><ele>140.0</ele><time>2026-05-03T11:23:30.036Z</time></trkpt><trkpt lat="36.5323525" lon="9.3773972"><ele>143.5</ele><time>2026-05-03T11:23:31.046Z</time></trkpt><trkpt lat="36.5323134" lon="9.3771107"><ele>147.0</ele><time>2026-05-03T11:23:32.038Z</time></trkpt><trkpt lat="36.5322829" lon="9.3768258"><ele>147.0</ele><time>2026-05-03T11:23:33.045Z</time></trkpt><trkpt lat="36.532262" lon="9.3765388"><ele>147.0</ele><time>2026-05-03T11:23:34.037Z</time></trkpt><trkpt lat="36.532246" lon="9.376254"><ele>150.0</ele><time>2026-05-03T11:23:35.056Z</time></trkpt><trkpt lat="36.5322347" lon="9.3759655"><ele>153.0</ele><time>2026-05-03T11:23:36.058Z</time></trkpt><trkpt lat="36.5322249" lon="9.3756765"><ele>156.0</ele><time>2026-05-03T11:23:37.045Z</time></trkpt><trkpt lat="36.5322246" lon="9.3753853"><ele>159.0</ele><time>2026-05-03T11:23:38.065Z</time></trkpt><trkpt lat="36.5322291" lon="9.3750905"><ele>159.0</ele><time>2026-05-03T11:23:39.045Z</time></trkpt><trkpt lat="36.5322314" lon="9.3747996"><ele>159.0</ele><time>2026-05-03T11:23:40.077Z</time></trkpt><trkpt lat="36.5322386" lon="9.3745058"><ele>162.0</ele><time>2026-05-03T11:23:41.074Z</time></trkpt><trkpt lat="36.5322463" lon="9.3742098"><ele>165.0</ele><time>2026-05-03T11:23:42.052Z</time></trkpt><trkpt lat="36.5322517" lon="9.3739152"><ele>166.0</ele><time>2026-05-03T11:23:43.041Z</time></trkpt><trkpt lat="36.5322559" lon="9.3736205"><ele>167.0</ele><time>2026-05-03T11:23:44.055Z</time></trkpt><trkpt lat="36.5322637" lon="9.3733289"><ele>167.0</ele><time>2026-05-03T11:23:45.047Z</time></trkpt><trkpt lat="36.5322726" lon="9.3730331"><ele>167.0</ele><time>2026-05-03T11:23:46.061Z</time></trkpt><trkpt lat="36.5322764" lon="9.3727357"><ele>167.5</ele><time>2026-05-03T11:23:47.065Z</time></trkpt><trkpt lat="36.5322807" lon="9.3724352"><ele>168.0</ele><time>2026-05-03T11:23:48.074Z</time></trkpt><trkpt lat="36.5322843" lon="9.3721348"><ele>170.0</ele><time>2026-05-03T11:23:49.065Z</time></trkpt><trkpt lat="36.5322828" lon="9.3718366"><ele>172.0</ele><time>2026-05-03T11:23:50.05Z</time></trkpt><trkpt lat="36.5322793" lon="9.3715348"><ele>174.0</ele><time>2026-05-03T11:23:51.054Z</time></trkpt><trkpt lat="36.5322693" lon="9.371235"><ele>176.0</ele><time>2026-05-03T11:23:52.057Z</time></trkpt><trkpt lat="36.5322591" lon="9.3709316"><ele>176.0</ele><time>2026-05-03T11:23:53.053Z</time></trkpt><trkpt lat="36.5322472" lon="9.3706255"><ele>176.0</ele><time>2026-05-03T11:23:54.037Z</time></trkpt><trkpt lat="36.5322344" lon="9.3703232"><ele>179.5</ele><time>2026-05-03T11:23:55.039Z</time></trkpt><trkpt lat="36.5322172" lon="9.3700261"><ele>183.0</ele><time>2026-05-03T11:23:56.056Z</time></trkpt><trkpt lat="36.5321963" lon="9.3697278"><ele>186.0</ele><time>2026-05-03T11:23:57.044Z</time></trkpt><trkpt lat="36.5321746" lon="9.3694318"><ele>189.0</ele><time>2026-05-03T11:23:58.042Z</time></trkpt><trkpt lat="36.5321493" lon="9.3691396"><ele>190.0</ele><time>2026-05-03T11:23:59.047Z</time></trkpt><trkpt lat="36.5321233" lon="9.3688408"><ele>191.0</ele><time>2026-05-03T11:24:00.069Z</time></trkpt><trkpt lat="36.5320914" lon="9.3685411"><ele>191.5</ele><time>2026-05-03T11:24:01.031Z</time></trkpt><trkpt lat="36.5320532" lon="9.3682481"><ele>192.0</ele><time>2026-05-03T11:24:02.058Z</time></trkpt><trkpt lat="36.5320126" lon="9.3679525"><ele>194.0</ele><time>2026-05-03T11:24:03.059Z</time></trkpt><trkpt lat="36.5319755" lon="9.3676635"><ele>196.0</ele><time>2026-05-03T11:24:04.027Z</time></trkpt><trkpt lat="36.5319343" lon="9.3673743"><ele>197.5</ele><time>2026-05-03T11:24:05.051Z</time></trkpt><trkpt lat="36.5318879" lon="9.3670889"><ele>199.0</ele><time>2026-05-03T11:24:06.036Z</time></trkpt><trkpt lat="36.5318356" lon="9.3667995"><ele>199.0</ele><time>2026-05-03T11:24:07.056Z</time></trkpt><trkpt lat="36.5317851" lon="9.3665087"><ele>199.0</ele><time>2026-05-03T11:24:08.039Z</time></trkpt><trkpt lat="36.5317356" lon="9.3662203"><ele>198.5</ele><time>2026-05-03T11:24:09.049Z</time></trkpt><trkpt lat="36.5316838" lon="9.3659288"><ele>198.0</ele><time>2026-05-03T11:24:10.057Z</time></trkpt><trkpt lat="36.5316282" lon="9.3656371"><ele>199.5</ele><time>2026-05-03T11:24:11.037Z</time></trkpt><trkpt lat="36.5315726" lon="9.3653494"><ele>201.0</ele><time>2026-05-03T11:24:12.058Z</time></trkpt><trkpt lat="36.5315139" lon="9.3650632"><ele>201.0</ele><time>2026-05-03T11:24:13.041Z</time></trkpt><trkpt lat="36.5314575" lon="9.3647719"><ele>201.0</ele><time>2026-05-03T11:24:14.047Z</time></trkpt><trkpt lat="36.5314018" lon="9.3644926"><ele>201.5</ele><time>2026-05-03T11:24:15.058Z</time></trkpt><trkpt lat="36.5313424" lon="9.3642148"><ele>202.0</ele><time>2026-05-03T11:24:16.073Z</time></trkpt><trkpt lat="36.5312866" lon="9.3639404"><ele>203.5</ele><time>2026-05-03T11:24:17.061Z</time></trkpt><trkpt lat="36.5312317" lon="9.363666"><ele>205.0</ele><time>2026-05-03T11:24:18.072Z</time></trkpt><trkpt lat="36.5311754" lon="9.3633921"><ele>206.0</ele><time>2026-05-03T11:24:19.048Z</time></trkpt><trkpt lat="36.531111" lon="9.3631195"><ele>207.0</ele><time>2026-05-03T11:24:20.069Z</time></trkpt><trkpt lat="36.5310388" lon="9.3628518"><ele>207.0</ele><time>2026-05-03T11:24:21.04Z</time></trkpt><trkpt lat="36.5309491" lon="9.3625991"><ele>207.0</ele><time>2026-05-03T11:24:22.046Z</time></trkpt><trkpt lat="36.5308444" lon="9.3623521"><ele>207.0</ele><time>2026-05-03T11:24:23.045Z</time></trkpt><trkpt lat="36.5307265" lon="9.362113"><ele>206.0</ele><time>2026-05-03T11:24:24.043Z</time></trkpt><trkpt lat="36.5305941" lon="9.3618786"><ele>205.0</ele><time>2026-05-03T11:24:25.027Z</time></trkpt><trkpt lat="36.5304476" lon="9.3616584"><ele>205.0</ele><time>2026-05-03T11:24:26.057Z</time></trkpt><trkpt lat="36.530285" lon="9.361456"><ele>205.0</ele><time>2026-05-03T11:24:27.047Z</time></trkpt><trkpt lat="36.5301088" lon="9.3612716"><ele>205.0</ele><time>2026-05-03T11:24:28.058Z</time></trkpt><trkpt lat="36.5299249" lon="9.3611045"><ele>205.0</ele><time>2026-05-03T11:24:29.044Z</time></trkpt><trkpt lat="36.5297334" lon="9.3609575"><ele>208.0</ele><time>2026-05-03T11:24:30.062Z</time></trkpt><trkpt lat="36.5295349" lon="9.3608182"><ele>211.0</ele><time>2026-05-03T11:24:31.042Z</time></trkpt><trkpt lat="36.5293272" lon="9.3606982"><ele>211.0</ele><time>2026-05-03T11:24:32.075Z</time></trkpt><trkpt lat="36.5291165" lon="9.3605977"><ele>211.0</ele><time>2026-05-03T11:24:33.05Z</time></trkpt><trkpt lat="36.5288908" lon="9.3605145"><ele>209.0</ele><time>2026-05-03T11:24:34.046Z</time></trkpt><trkpt lat="36.528667" lon="9.3604387"><ele>207.0</ele><time>2026-05-03T11:24:35.055Z</time></trkpt><trkpt lat="36.528432" lon="9.3603725"><ele>207.0</ele><time>2026-05-03T11:24:36.056Z</time></trkpt><trkpt lat="36.5282087" lon="9.3603096"><ele>207.0</ele><time>2026-05-03T11:24:37.053Z</time></trkpt><trkpt lat="36.5279846" lon="9.3602463"><ele>209.0</ele><time>2026-05-03T11:24:38.051Z</time></trkpt><trkpt lat="36.5277599" lon="9.3601821"><ele>211.0</ele><time>2026-05-03T11:24:39.078Z</time></trkpt><trkpt lat="36.5275385" lon="9.3601215"><ele>211.0</ele><time>2026-05-03T11:24:40.056Z</time></trkpt><trkpt lat="36.5273209" lon="9.3600601"><ele>211.0</ele><time>2026-05-03T11:24:41.054Z</time></trkpt><trkpt lat="36.527111" lon="9.3599976"><ele>211.0</ele><time>2026-05-03T11:24:42.053Z</time></trkpt><trkpt lat="36.5269078" lon="9.3599236"><ele>212.33333333333331</ele><time>2026-05-03T11:24:43.081Z</time></trkpt><trkpt lat="36.526714" lon="9.3598282"><ele>213.66666666666669</ele><time>2026-05-03T11:24:44.042Z</time></trkpt><trkpt lat="36.5265355" lon="9.3597347"><ele>215.0</ele><time>2026-05-03T11:24:45.052Z</time></trkpt><trkpt lat="36.526378" lon="9.3596351"><ele>215.0</ele><time>2026-05-03T11:24:46.071Z</time></trkpt><trkpt lat="36.5262449" lon="9.359546"><ele>215.0</ele><time>2026-05-03T11:24:47.056Z</time></trkpt><trkpt lat="36.5261206" lon="9.3594597"><ele>215.0</ele><time>2026-05-03T11:24:48.048Z</time></trkpt><trkpt lat="36.5260127" lon="9.3593985"><ele>215.0</ele><time>2026-05-03T11:24:49.062Z</time></trkpt><trkpt lat="36.525945" lon="9.3593618"><ele>216.0</ele><time>2026-05-03T11:24:50.06Z</time></trkpt><trkpt lat="36.5258232" lon="9.3592779"><ele>217.0</ele><time>2026-05-03T11:24:52.057Z</time></trkpt><trkpt lat="36.5257413" lon="9.3592192"><ele>218.0</ele><time>2026-05-03T11:24:53.076Z</time></trkpt><trkpt lat="36.5256465" lon="9.3591573"><ele>219.0</ele><time>2026-05-03T11:24:54.066Z</time></trkpt><trkpt lat="36.5255479" lon="9.359089"><ele>219.0</ele><time>2026-05-03T11:24:55.068Z</time></trkpt><trkpt lat="36.5254413" lon="9.3590197"><ele>219.0</ele><time>2026-05-03T11:24:56.064Z</time></trkpt><trkpt lat="36.5253291" lon="9.3589514"><ele>219.0</ele><time>2026-05-03T11:24:57.063Z</time></trkpt><trkpt lat="36.5252137" lon="9.3588843"><ele>219.0</ele><time>2026-05-03T11:24:58.075Z</time></trkpt><trkpt lat="36.5251053" lon="9.3588139"><ele>218.75</ele><time>2026-05-03T11:24:59.057Z</time></trkpt><trkpt lat="36.5249915" lon="9.3587442"><ele>218.5</ele><time>2026-05-03T11:25:00.058Z</time></trkpt><trkpt lat="36.5248813" lon="9.3586817"><ele>218.25</ele><time>2026-05-03T11:25:01.074Z</time></trkpt><trkpt lat="36.5247579" lon="9.3586292"><ele>218.0</ele><time>2026-05-03T11:25:02.048Z</time></trkpt><trkpt lat="36.5246409" lon="9.3585873"><ele>218.5</ele><time>2026-05-03T11:25:03.041Z</time></trkpt><trkpt lat="36.5245207" lon="9.3585479"><ele>219.0</ele><time>2026-05-03T11:25:04.059Z</time></trkpt><trkpt lat="36.5243973" lon="9.3585089"><ele>219.5</ele><time>2026-05-03T11:25:05.057Z</time></trkpt><trkpt lat="36.5242665" lon="9.3584676"><ele>220.0</ele><time>2026-05-03T11:25:06.052Z</time></trkpt><trkpt lat="36.5241427" lon="9.3584223"><ele>220.0</ele><time>2026-05-03T11:25:07.051Z</time></trkpt><trkpt lat="36.5240221" lon="9.3583572"><ele>220.0</ele><time>2026-05-03T11:25:08.05Z</time></trkpt><trkpt lat="36.5239117" lon="9.3582706"><ele>220.0</ele><time>2026-05-03T11:25:09.045Z</time></trkpt><trkpt lat="36.5238093" lon="9.3581587"><ele>220.0</ele><time>2026-05-03T11:25:10.047Z</time></trkpt><trkpt lat="36.523723" lon="9.3580209"><ele>220.0</ele><time>2026-05-03T11:25:11.028Z</time></trkpt><trkpt lat="36.5236446" lon="9.3578696"><ele>220.0</ele><time>2026-05-03T11:25:12.047Z</time></trkpt><trkpt lat="36.5235799" lon="9.3577036"><ele>220.0</ele><time>2026-05-03T11:25:13.035Z</time></trkpt><trkpt lat="36.5235279" lon="9.3575344"><ele>220.0</ele><time>2026-05-03T11:25:14.041Z</time></trkpt><trkpt lat="36.5234853" lon="9.3573654"><ele>220.0</ele><time>2026-05-03T11:25:15.056Z</time></trkpt><trkpt lat="36.5234314" lon="9.3571974"><ele>220.0</ele><time>2026-05-03T11:25:16.044Z</time></trkpt><trkpt lat="36.5233848" lon="9.3570551"><ele>220.0</ele><time>2026-05-03T11:25:17.049Z</time></trkpt><trkpt lat="36.5233401" lon="9.3569387"><ele>220.0</ele><time>2026-05-03T11:25:18.065Z</time></trkpt><trkpt lat="36.5233065" lon="9.3568397"><ele>219.99999999999997</ele><time>2026-05-03T11:25:19.058Z</time></trkpt><trkpt lat="36.5232789" lon="9.3567587"><ele>220.0</ele><time>2026-05-03T11:25:20.059Z</time></trkpt><trkpt lat="36.5232478" lon="9.3566777"><ele>220.0</ele><time>2026-05-03T11:25:21.054Z</time></trkpt><trkpt lat="36.5232135" lon="9.3565887"><ele>220.0</ele><time>2026-05-03T11:25:22.049Z</time></trkpt><trkpt lat="36.5231736" lon="9.3564936"><ele>219.99999999999997</ele><time>2026-05-03T11:25:23.048Z</time></trkpt><trkpt lat="36.5231342" lon="9.3564028"><ele>220.0</ele><time>2026-05-03T11:25:24.028Z</time></trkpt><trkpt lat="36.5230898" lon="9.3563066"><ele>220.16666666666666</ele><time>2026-05-03T11:25:25.047Z</time></trkpt><trkpt lat="36.5230492" lon="9.3562095"><ele>220.33333333333331</ele><time>2026-05-03T11:25:26.065Z</time></trkpt><trkpt lat="36.5230074" lon="9.3561209"><ele>220.5</ele><time>2026-05-03T11:25:27.047Z</time></trkpt><trkpt lat="36.5229655" lon="9.356034"><ele>220.66666666666669</ele><time>2026-05-03T11:25:28.047Z</time></trkpt><trkpt lat="36.5229223" lon="9.3559543"><ele>220.83333333333334</ele><time>2026-05-03T11:25:29.063Z</time></trkpt><trkpt lat="36.5228749" lon="9.3558702"><ele>221.0</ele><time>2026-05-03T11:25:30.053Z</time></trkpt><trkpt lat="36.5228048" lon="9.3557651"><ele>221.0</ele><time>2026-05-03T11:25:31.059Z</time></trkpt><trkpt lat="36.5227129" lon="9.3556212"><ele>221.0</ele><time>2026-05-03T11:25:32.06Z</time></trkpt><trkpt lat="36.5225852" lon="9.3554495"><ele>221.0</ele><time>2026-05-03T11:25:33.066Z</time></trkpt><trkpt lat="36.5224406" lon="9.355244"><ele>220.0</ele><time>2026-05-03T11:25:34.037Z</time></trkpt><trkpt lat="36.5222875" lon="9.3550161"><ele>219.0</ele><time>2026-05-03T11:25:35.051Z</time></trkpt><trkpt lat="36.5221231" lon="9.3547751"><ele>221.0</ele><time>2026-05-03T11:25:36.039Z</time></trkpt><trkpt lat="36.5219524" lon="9.3545266"><ele>223.0</ele><time>2026-05-03T11:25:37.06Z</time></trkpt><trkpt lat="36.5217711" lon="9.354274"><ele>223.0</ele><time>2026-05-03T11:25:38.052Z</time></trkpt><trkpt lat="36.521585" lon="9.3540095"><ele>223.0</ele><time>2026-05-03T11:25:39.052Z</time></trkpt><trkpt lat="36.5214063" lon="9.353734"><ele>224.0</ele><time>2026-05-03T11:25:40.054Z</time></trkpt><trkpt lat="36.5212377" lon="9.353446"><ele>225.0</ele><time>2026-05-03T11:25:41.046Z</time></trkpt><trkpt lat="36.5210745" lon="9.3531553"><ele>226.5</ele><time>2026-05-03T11:25:42.062Z</time></trkpt><trkpt lat="36.5209126" lon="9.3528604"><ele>228.0</ele><time>2026-05-03T11:25:43.052Z</time></trkpt><trkpt lat="36.5207533" lon="9.352566"><ele>228.0</ele><time>2026-05-03T11:25:44.056Z</time></trkpt><trkpt lat="36.5205897" lon="9.3522761"><ele>228.0</ele><time>2026-05-03T11:25:45.048Z</time></trkpt><trkpt lat="36.5204208" lon="9.3519958"><ele>229.0</ele><time>2026-05-03T11:25:46.058Z</time></trkpt><trkpt lat="36.5202378" lon="9.3517119"><ele>230.0</ele><time>2026-05-03T11:25:47.057Z</time></trkpt><trkpt lat="36.5200462" lon="9.3514358"><ele>231.5</ele><time>2026-05-03T11:25:48.057Z</time></trkpt><trkpt lat="36.5198449" lon="9.3511751"><ele>233.0</ele><time>2026-05-03T11:25:49.05Z</time></trkpt><trkpt lat="36.5196367" lon="9.3509309"><ele>233.5</ele><time>2026-05-03T11:25:50.062Z</time></trkpt><trkpt lat="36.5194325" lon="9.3506945"><ele>234.0</ele><time>2026-05-03T11:25:51.058Z</time></trkpt><trkpt lat="36.5192292" lon="9.3504633"><ele>235.5</ele><time>2026-05-03T11:25:52.046Z</time></trkpt><trkpt lat="36.5190299" lon="9.350239"><ele>237.0</ele><time>2026-05-03T11:25:53.061Z</time></trkpt><trkpt lat="36.5188322" lon="9.3500126"><ele>237.5</ele><time>2026-05-03T11:25:54.054Z</time></trkpt><trkpt lat="36.5186391" lon="9.3497963"><ele>238.0</ele><time>2026-05-03T11:25:55.062Z</time></trkpt><trkpt lat="36.5184568" lon="9.3495781"><ele>240.0</ele><time>2026-05-03T11:25:56.058Z</time></trkpt><trkpt lat="36.5182869" lon="9.3493435"><ele>242.0</ele><time>2026-05-03T11:25:57.026Z</time></trkpt><trkpt lat="36.5181381" lon="9.349102"><ele>243.5</ele><time>2026-05-03T11:25:58.074Z</time></trkpt><trkpt lat="36.5179965" lon="9.3488598"><ele>245.0</ele><time>2026-05-03T11:25:59.044Z</time></trkpt><trkpt lat="36.5178624" lon="9.3486079"><ele>245.0</ele><time>2026-05-03T11:26:00.07Z</time></trkpt><trkpt lat="36.5177411" lon="9.3483586"><ele>245.0</ele><time>2026-05-03T11:26:01.068Z</time></trkpt><trkpt lat="36.5176249" lon="9.3481129"><ele>245.66666666666669</ele><time>2026-05-03T11:26:02.074Z</time></trkpt><trkpt lat="36.5175254" lon="9.3478622"><ele>246.33333333333331</ele><time>2026-05-03T11:26:03.072Z</time></trkpt><trkpt lat="36.5174361" lon="9.3476137"><ele>247.0</ele><time>2026-05-03T11:26:04.094Z</time></trkpt><trkpt lat="36.5173474" lon="9.3473677"><ele>246.33333333333331</ele><time>2026-05-03T11:26:05.076Z</time></trkpt><trkpt lat="36.5172629" lon="9.3471232"><ele>245.66666666666669</ele><time>2026-05-03T11:26:06.07Z</time></trkpt><trkpt lat="36.5171923" lon="9.346884"><ele>245.0</ele><time>2026-05-03T11:26:07.067Z</time></trkpt><trkpt lat="36.5171312" lon="9.3466316"><ele>245.0</ele><time>2026-05-03T11:26:08.076Z</time></trkpt><trkpt lat="36.5170788" lon="9.3463716"><ele>245.0</ele><time>2026-05-03T11:26:09.059Z</time></trkpt><trkpt lat="36.5170269" lon="9.3460964"><ele>245.0</ele><time>2026-05-03T11:26:10.063Z</time></trkpt><trkpt lat="36.5169805" lon="9.3458111"><ele>248.0</ele><time>2026-05-03T11:26:11.045Z</time></trkpt><trkpt lat="36.5169338" lon="9.3455253"><ele>251.0</ele><time>2026-05-03T11:26:12.048Z</time></trkpt><trkpt lat="36.5168916" lon="9.3452376"><ele>251.0</ele><time>2026-05-03T11:26:13.041Z</time></trkpt><trkpt lat="36.5168486" lon="9.344953"><ele>251.0</ele><time>2026-05-03T11:26:14.082Z</time></trkpt><trkpt lat="36.5168058" lon="9.3446707"><ele>251.5</ele><time>2026-05-03T11:26:15.078Z</time></trkpt><trkpt lat="36.5167545" lon="9.3443932"><ele>252.0</ele><time>2026-05-03T11:26:16.065Z</time></trkpt><trkpt lat="36.5166974" lon="9.3441174"><ele>252.5</ele><time>2026-05-03T11:26:17.03Z</time></trkpt><trkpt lat="36.5166338" lon="9.3438458"><ele>253.0</ele><time>2026-05-03T11:26:18.032Z</time></trkpt><trkpt lat="36.5165662" lon="9.3435691"><ele>253.0</ele><time>2026-05-03T11:26:19.075Z</time></trkpt><trkpt lat="36.5164931" lon="9.3432905"><ele>253.0</ele><time>2026-05-03T11:26:20.077Z</time></trkpt><trkpt lat="36.5164064" lon="9.3430053"><ele>252.0</ele><time>2026-05-03T11:26:21.092Z</time></trkpt><trkpt lat="36.5163099" lon="9.3427268"><ele>251.0</ele><time>2026-05-03T11:26:22.079Z</time></trkpt><trkpt lat="36.5162079" lon="9.3424391"><ele>253.5</ele><time>2026-05-03T11:26:23.067Z</time></trkpt><trkpt lat="36.5160992" lon="9.3421445"><ele>256.0</ele><time>2026-05-03T11:26:24.081Z</time></trkpt><trkpt lat="36.5159823" lon="9.3418541"><ele>256.0</ele><time>2026-05-03T11:26:25.084Z</time></trkpt><trkpt lat="36.5158589" lon="9.3415699"><ele>256.0</ele><time>2026-05-03T11:26:26.07Z</time></trkpt><trkpt lat="36.5157378" lon="9.3412997"><ele>256.0</ele><time>2026-05-03T11:26:27.076Z</time></trkpt><trkpt lat="36.5156215" lon="9.3410516"><ele>256.0</ele><time>2026-05-03T11:26:28.078Z</time></trkpt><trkpt lat="36.5155065" lon="9.3408244"><ele>256.0</ele><time>2026-05-03T11:26:29.066Z</time></trkpt><trkpt lat="36.5153927" lon="9.3406066"><ele>256.66666666666663</ele><time>2026-05-03T11:26:30.061Z</time></trkpt><trkpt lat="36.5152786" lon="9.3403939"><ele>257.3333333333333</ele><time>2026-05-03T11:26:31.07Z</time></trkpt><trkpt lat="36.5151636" lon="9.3401789"><ele>258.0</ele><time>2026-05-03T11:26:32.073Z</time></trkpt><trkpt lat="36.5150564" lon="9.3399676"><ele>258.0</ele><time>2026-05-03T11:26:33.08Z</time></trkpt><trkpt lat="36.5149482" lon="9.3397543"><ele>258.0</ele><time>2026-05-03T11:26:34.064Z</time></trkpt><trkpt lat="36.5148395" lon="9.3395409"><ele>258.0</ele><time>2026-05-03T11:26:35.083Z</time></trkpt><trkpt lat="36.514728" lon="9.3393238"><ele>257.3333333333333</ele><time>2026-05-03T11:26:36.046Z</time></trkpt><trkpt lat="36.5146072" lon="9.3391094"><ele>256.66666666666663</ele><time>2026-05-03T11:26:37.081Z</time></trkpt><trkpt lat="36.5144888" lon="9.3388825"><ele>256.0</ele><time>2026-05-03T11:26:38.07Z</time></trkpt><trkpt lat="36.5143674" lon="9.338657"><ele>256.0</ele><time>2026-05-03T11:26:39.072Z</time></trkpt><trkpt lat="36.5142461" lon="9.3384288"><ele>256.0</ele><time>2026-05-03T11:26:40.067Z</time></trkpt><trkpt lat="36.5141203" lon="9.3381891"><ele>254.0</ele><time>2026-05-03T11:26:41.078Z</time></trkpt><trkpt lat="36.5139895" lon="9.3379323"><ele>252.0</ele><time>2026-05-03T11:26:42.067Z</time></trkpt><trkpt lat="36.5138565" lon="9.3376505"><ele>252.5</ele><time>2026-05-03T11:26:43.085Z</time></trkpt><trkpt lat="36.5137258" lon="9.3373539"><ele>253.0</ele><time>2026-05-03T11:26:44.074Z</time></trkpt><trkpt lat="36.513609" lon="9.3370431"><ele>253.5</ele><time>2026-05-03T11:26:45.088Z</time></trkpt><trkpt lat="36.5134968" lon="9.3367327"><ele>254.0</ele><time>2026-05-03T11:26:46.064Z</time></trkpt><trkpt lat="36.5133989" lon="9.336417"><ele>255.5</ele><time>2026-05-03T11:26:47.091Z</time></trkpt><trkpt lat="36.513309" lon="9.3361019"><ele>257.0</ele><time>2026-05-03T11:26:48.039Z</time></trkpt><trkpt lat="36.5132271" lon="9.3357908"><ele>259.5</ele><time>2026-05-03T11:26:49.061Z</time></trkpt><trkpt lat="36.5131494" lon="9.3354779"><ele>262.0</ele><time>2026-05-03T11:26:50.09Z</time></trkpt><trkpt lat="36.5130801" lon="9.335162"><ele>262.0</ele><time>2026-05-03T11:26:51.056Z</time></trkpt><trkpt lat="36.5130139" lon="9.3348428"><ele>262.0</ele><time>2026-05-03T11:26:52.038Z</time></trkpt><trkpt lat="36.5129562" lon="9.3345261"><ele>263.5</ele><time>2026-05-03T11:26:53.045Z</time></trkpt><trkpt lat="36.5129077" lon="9.334204"><ele>265.0</ele><time>2026-05-03T11:26:54.052Z</time></trkpt><trkpt lat="36.512866" lon="9.3338813"><ele>268.5</ele><time>2026-05-03T11:26:55.068Z</time></trkpt><trkpt lat="36.51283" lon="9.3335584"><ele>272.0</ele><time>2026-05-03T11:26:56.068Z</time></trkpt><trkpt lat="36.5127919" lon="9.3332381"><ele>274.5</ele><time>2026-05-03T11:26:57.064Z</time></trkpt><trkpt lat="36.5127534" lon="9.3329248"><ele>277.0</ele><time>2026-05-03T11:26:58.052Z</time></trkpt><trkpt lat="36.5127156" lon="9.3326075"><ele>277.0</ele><time>2026-05-03T11:26:59.055Z</time></trkpt><trkpt lat="36.5126816" lon="9.3322974"><ele>277.0</ele><time>2026-05-03T11:27:00.056Z</time></trkpt><trkpt lat="36.5126492" lon="9.331989"><ele>276.5</ele><time>2026-05-03T11:27:01.059Z</time></trkpt><trkpt lat="36.5126151" lon="9.3316864"><ele>276.0</ele><time>2026-05-03T11:27:02.063Z</time></trkpt><trkpt lat="36.5125785" lon="9.3313837"><ele>276.0</ele><time>2026-05-03T11:27:03.071Z</time></trkpt><trkpt lat="36.512545" lon="9.331079"><ele>276.0</ele><time>2026-05-03T11:27:04.075Z</time></trkpt><trkpt lat="36.5125118" lon="9.3307776"><ele>273.5</ele><time>2026-05-03T11:27:05.071Z</time></trkpt><trkpt lat="36.5124763" lon="9.3304764"><ele>271.0</ele><time>2026-05-03T11:27:06.07Z</time></trkpt><trkpt lat="36.5124359" lon="9.3301741"><ele>271.0</ele><time>2026-05-03T11:27:07.076Z</time></trkpt><trkpt lat="36.512388" lon="9.3298671"><ele>271.0</ele><time>2026-05-03T11:27:08.058Z</time></trkpt><trkpt lat="36.5123357" lon="9.3295596"><ele>267.0</ele><time>2026-05-03T11:27:09.071Z</time></trkpt><trkpt lat="36.5122728" lon="9.3292555"><ele>263.0</ele><time>2026-05-03T11:27:10.072Z</time></trkpt><trkpt lat="36.5122017" lon="9.3289542"><ele>261.5</ele><time>2026-05-03T11:27:11.04Z</time></trkpt><trkpt lat="36.5121267" lon="9.3286577"><ele>260.0</ele><time>2026-05-03T11:27:12.085Z</time></trkpt><trkpt lat="36.5120396" lon="9.3283671"><ele>261.5</ele><time>2026-05-03T11:27:13.037Z</time></trkpt><trkpt lat="36.5119489" lon="9.3280771"><ele>263.0</ele><time>2026-05-03T11:27:14.07Z</time></trkpt><trkpt lat="36.5118505" lon="9.3277931"><ele>263.0</ele><time>2026-05-03T11:27:15.072Z</time></trkpt><trkpt lat="36.5117578" lon="9.3275077"><ele>263.0</ele><time>2026-05-03T11:27:16.054Z</time></trkpt><trkpt lat="36.511664" lon="9.3272185"><ele>259.0</ele><time>2026-05-03T11:27:17.078Z</time></trkpt><trkpt lat="36.5115712" lon="9.3269376"><ele>255.0</ele><time>2026-05-03T11:27:18.069Z</time></trkpt><trkpt lat="36.5114802" lon="9.3266528"><ele>250.5</ele><time>2026-05-03T11:27:19.071Z</time></trkpt><trkpt lat="36.5113882" lon="9.3263707"><ele>246.0</ele><time>2026-05-03T11:27:20.055Z</time></trkpt><trkpt lat="36.5112932" lon="9.3260933"><ele>255.0</ele><time>2026-05-03T11:27:21.08Z</time></trkpt><trkpt lat="36.5112035" lon="9.3258176"><ele>264.0</ele><time>2026-05-03T11:27:22.07Z</time></trkpt><trkpt lat="36.5111133" lon="9.3255448"><ele>264.0</ele><time>2026-05-03T11:27:23.078Z</time></trkpt><trkpt lat="36.5110196" lon="9.3252771"><ele>264.0</ele><time>2026-05-03T11:27:24.059Z</time></trkpt><trkpt lat="36.5109283" lon="9.3250109"><ele>264.0</ele><time>2026-05-03T11:27:25.06Z</time></trkpt><trkpt lat="36.5108373" lon="9.3247465"><ele>264.0</ele><time>2026-05-03T11:27:26.047Z</time></trkpt><trkpt lat="36.510749" lon="9.3244893"><ele>262.3333333333333</ele><time>2026-05-03T11:27:27.075Z</time></trkpt><trkpt lat="36.5106652" lon="9.3242349"><ele>260.66666666666663</ele><time>2026-05-03T11:27:28.076Z</time></trkpt><trkpt lat="36.5105765" lon="9.3239832"><ele>259.0</ele><time>2026-05-03T11:27:29.064Z</time></trkpt><trkpt lat="36.5104731" lon="9.3237388"><ele>262.0</ele><time>2026-05-03T11:27:30.052Z</time></trkpt><trkpt lat="36.5103607" lon="9.3235014"><ele>265.0</ele><time>2026-05-03T11:27:31.063Z</time></trkpt><trkpt lat="36.5102362" lon="9.3232906"><ele>268.0</ele><time>2026-05-03T11:27:32.063Z</time></trkpt><trkpt lat="36.5101047" lon="9.3230813"><ele>264.0</ele><time>2026-05-03T11:27:33.072Z</time></trkpt><trkpt lat="36.5099639" lon="9.3228757"><ele>260.0</ele><time>2026-05-03T11:27:34.055Z</time></trkpt><trkpt lat="36.509816" lon="9.322685"><ele>256.0</ele><time>2026-05-03T11:27:35.074Z</time></trkpt><trkpt lat="36.5096626" lon="9.3225105"><ele>256.3333333333333</ele><time>2026-05-03T11:27:36.041Z</time></trkpt><trkpt lat="36.5095016" lon="9.3223494"><ele>256.6666666666667</ele><time>2026-05-03T11:27:37.079Z</time></trkpt><trkpt lat="36.5093356" lon="9.3221981"><ele>257.0</ele><time>2026-05-03T11:27:38.071Z</time></trkpt><trkpt lat="36.5091653" lon="9.3220538"><ele>257.0</ele><time>2026-05-03T11:27:39.071Z</time></trkpt><trkpt lat="36.5089906" lon="9.3219283"><ele>257.0</ele><time>2026-05-03T11:27:40.074Z</time></trkpt><trkpt lat="36.5088089" lon="9.3218159"><ele>257.0</ele><time>2026-05-03T11:27:41.069Z</time></trkpt><trkpt lat="36.5086268" lon="9.3217159"><ele>261.0</ele><time>2026-05-03T11:27:42.068Z</time></trkpt><trkpt lat="36.5084379" lon="9.3216304"><ele>265.0</ele><time>2026-05-03T11:27:43.077Z</time></trkpt><trkpt lat="36.5082452" lon="9.3215512"><ele>269.0</ele><time>2026-05-03T11:27:44.048Z</time></trkpt><trkpt lat="36.5080416" lon="9.3214895"><ele>270.0</ele><time>2026-05-03T11:27:45.043Z</time></trkpt><trkpt lat="36.5078369" lon="9.3214346"><ele>271.0</ele><time>2026-05-03T11:27:46.058Z</time></trkpt><trkpt lat="36.5076237" lon="9.3213942"><ele>272.0</ele><time>2026-05-03T11:27:47.076Z</time></trkpt><trkpt lat="36.507411" lon="9.3213724"><ele>268.0</ele><time>2026-05-03T11:27:48.069Z</time></trkpt><trkpt lat="36.507198" lon="9.3213673"><ele>264.0</ele><time>2026-05-03T11:27:49.077Z</time></trkpt><trkpt lat="36.506977" lon="9.3213772"><ele>260.0</ele><time>2026-05-03T11:27:50.073Z</time></trkpt><trkpt lat="36.506751" lon="9.3213776"><ele>259.0</ele><time>2026-05-03T11:27:51.07Z</time></trkpt><trkpt lat="36.5065257" lon="9.321373"><ele>258.0</ele><time>2026-05-03T11:27:52.078Z</time></trkpt><trkpt lat="36.506301" lon="9.321362"><ele>258.3333333333333</ele><time>2026-05-03T11:27:53.083Z</time></trkpt><trkpt lat="36.5060778" lon="9.321346"><ele>258.66666666666663</ele><time>2026-05-03T11:27:54.076Z</time></trkpt><trkpt lat="36.5058597" lon="9.3213189"><ele>259.0</ele><time>2026-05-03T11:27:55.072Z</time></trkpt><trkpt lat="36.5056513" lon="9.32129"><ele>259.0</ele><time>2026-05-03T11:27:56.056Z</time></trkpt><trkpt lat="36.5054558" lon="9.3212512"><ele>259.0</ele><time>2026-05-03T11:27:57.068Z</time></trkpt><trkpt lat="36.5052741" lon="9.3212095"><ele>259.0</ele><time>2026-05-03T11:27:58.064Z</time></trkpt><trkpt lat="36.5051059" lon="9.3211716"><ele>263.0</ele><time>2026-05-03T11:27:59.069Z</time></trkpt><trkpt lat="36.504936" lon="9.3211192"><ele>267.0</ele><time>2026-05-03T11:28:00.066Z</time></trkpt><trkpt lat="36.5047747" lon="9.3210661"><ele>271.0</ele><time>2026-05-03T11:28:01.063Z</time></trkpt><trkpt lat="36.5046225" lon="9.321006"><ele>273.75</ele><time>2026-05-03T11:28:02.063Z</time></trkpt><trkpt lat="36.504479" lon="9.3209382"><ele>276.5</ele><time>2026-05-03T11:28:03.062Z</time></trkpt><trkpt lat="36.504342" lon="9.3208758"><ele>279.25</ele><time>2026-05-03T11:28:04.058Z</time></trkpt><trkpt lat="36.5042029" lon="9.3208134"><ele>282.0</ele><time>2026-05-03T11:28:05.06Z</time></trkpt><trkpt lat="36.5040687" lon="9.3207452"><ele>282.0</ele><time>2026-05-03T11:28:06.067Z</time></trkpt><trkpt lat="36.5039374" lon="9.3206743"><ele>282.0</ele><time>2026-05-03T11:28:07.026Z</time></trkpt><trkpt lat="36.5038074" lon="9.3205975"><ele>282.0</ele><time>2026-05-03T11:28:08.051Z</time></trkpt><trkpt lat="36.5036745" lon="9.320515"><ele>282.0</ele><time>2026-05-03T11:28:09.073Z</time></trkpt><trkpt lat="36.5035352" lon="9.3204257"><ele>279.0</ele><time>2026-05-03T11:28:10.066Z</time></trkpt><trkpt lat="36.5033839" lon="9.3203215"><ele>276.0</ele><time>2026-05-03T11:28:11.067Z</time></trkpt><trkpt lat="36.5032351" lon="9.3202112"><ele>273.0</ele><time>2026-05-03T11:28:12.064Z</time></trkpt><trkpt lat="36.5030889" lon="9.3200836"><ele>273.0</ele><time>2026-05-03T11:28:13.048Z</time></trkpt><trkpt lat="36.5029434" lon="9.319955"><ele>273.0</ele><time>2026-05-03T11:28:14.057Z</time></trkpt><trkpt lat="36.5027968" lon="9.3198184"><ele>273.0</ele><time>2026-05-03T11:28:15.06Z</time></trkpt><trkpt lat="36.5026494" lon="9.3196771"><ele>266.3333333333333</ele><time>2026-05-03T11:28:16.054Z</time></trkpt><trkpt lat="36.5025049" lon="9.3195337"><ele>259.66666666666663</ele><time>2026-05-03T11:28:17.054Z</time></trkpt><trkpt lat="36.5023609" lon="9.3193885"><ele>253.0</ele><time>2026-05-03T11:28:18.085Z</time></trkpt><trkpt lat="36.5022161" lon="9.3192536"><ele>250.33333333333331</ele><time>2026-05-03T11:28:19.069Z</time></trkpt><trkpt lat="36.5020715" lon="9.3191191"><ele>247.66666666666669</ele><time>2026-05-03T11:28:20.065Z</time></trkpt><trkpt lat="36.5019244" lon="9.3189868"><ele>245.0</ele><time>2026-05-03T11:28:21.066Z</time></trkpt><trkpt lat="36.5017795" lon="9.3188503"><ele>243.0</ele><time>2026-05-03T11:28:22.07Z</time></trkpt><trkpt lat="36.5016354" lon="9.3187123"><ele>241.0</ele><time>2026-05-03T11:28:23.069Z</time></trkpt><trkpt lat="36.5014919" lon="9.3185724"><ele>239.0</ele><time>2026-05-03T11:28:24.075Z</time></trkpt><trkpt lat="36.5013465" lon="9.3184306"><ele>239.0</ele><time>2026-05-03T11:28:25.059Z</time></trkpt><trkpt lat="36.5011992" lon="9.3182858"><ele>239.0</ele><time>2026-05-03T11:28:26.068Z</time></trkpt><trkpt lat="36.501051" lon="9.3181434"><ele>239.0</ele><time>2026-05-03T11:28:27.072Z</time></trkpt><trkpt lat="36.5009061" lon="9.3180059"><ele>239.0</ele><time>2026-05-03T11:28:28.062Z</time></trkpt><trkpt lat="36.5007612" lon="9.3178657"><ele>239.0</ele><time>2026-05-03T11:28:29.067Z</time></trkpt><trkpt lat="36.5006182" lon="9.3177275"><ele>239.0</ele><time>2026-05-03T11:28:30.074Z</time></trkpt><trkpt lat="36.5004692" lon="9.3175878"><ele>240.66666666666669</ele><time>2026-05-03T11:28:31.078Z</time></trkpt><trkpt lat="36.5003225" lon="9.3174424"><ele>242.33333333333331</ele><time>2026-05-03T11:28:32.06Z</time></trkpt><trkpt lat="36.5001738" lon="9.317301"><ele>244.0</ele><time>2026-05-03T11:28:33.063Z</time></trkpt><trkpt lat="36.5000109" lon="9.3171535"><ele>244.0</ele><time>2026-05-03T11:28:34.069Z</time></trkpt><trkpt lat="36.4998467" lon="9.3170053"><ele>244.0</ele><time>2026-05-03T11:28:35.073Z</time></trkpt><trkpt lat="36.4996768" lon="9.3168666"><ele>244.0</ele><time>2026-05-03T11:28:36.039Z</time></trkpt><trkpt lat="36.4995018" lon="9.3167377"><ele>242.66666666666666</ele><time>2026-05-03T11:28:37.071Z</time></trkpt><trkpt lat="36.4993234" lon="9.3166095"><ele>241.33333333333331</ele><time>2026-05-03T11:28:38.065Z</time></trkpt><trkpt lat="36.499145" lon="9.3164841"><ele>240.0</ele><time>2026-05-03T11:28:39.047Z</time></trkpt><trkpt lat="36.4989658" lon="9.316369"><ele>236.0</ele><time>2026-05-03T11:28:40.063Z</time></trkpt><trkpt lat="36.4987843" lon="9.3162612"><ele>232.0</ele><time>2026-05-03T11:28:41.058Z</time></trkpt><trkpt lat="36.4986151" lon="9.3161654"><ele>228.0</ele><time>2026-05-03T11:28:42.056Z</time></trkpt><trkpt lat="36.4984429" lon="9.3160683"><ele>228.0</ele><time>2026-05-03T11:28:43.078Z</time></trkpt><trkpt lat="36.4982669" lon="9.315982"><ele>228.0</ele><time>2026-05-03T11:28:44.052Z</time></trkpt><trkpt lat="36.4980706" lon="9.3158914"><ele>228.0</ele><time>2026-05-03T11:28:45.053Z</time></trkpt><trkpt lat="36.497856" lon="9.3158098"><ele>229.5</ele><time>2026-05-03T11:28:46.054Z</time></trkpt><trkpt lat="36.4976281" lon="9.3157337"><ele>231.0</ele><time>2026-05-03T11:28:47.068Z</time></trkpt><trkpt lat="36.4974022" lon="9.3156551"><ele>231.0</ele><time>2026-05-03T11:28:48.063Z</time></trkpt><trkpt lat="36.4971923" lon="9.3155768"><ele>231.0</ele><time>2026-05-03T11:28:49.062Z</time></trkpt><trkpt lat="36.4969867" lon="9.3155037"><ele>231.0</ele><time>2026-05-03T11:28:50.062Z</time></trkpt><trkpt lat="36.4967951" lon="9.3154362"><ele>227.66666666666669</ele><time>2026-05-03T11:28:51.063Z</time></trkpt><trkpt lat="36.496617" lon="9.3153794"><ele>224.33333333333334</ele><time>2026-05-03T11:28:52.058Z</time></trkpt><trkpt lat="36.4964553" lon="9.3153288"><ele>221.0</ele><time>2026-05-03T11:28:53.07Z</time></trkpt><trkpt lat="36.4963086" lon="9.3152826"><ele>221.4</ele><time>2026-05-03T11:28:54.076Z</time></trkpt><trkpt lat="36.4961807" lon="9.3152444"><ele>221.8</ele><time>2026-05-03T11:28:55.06Z</time></trkpt><trkpt lat="36.4960728" lon="9.3152128"><ele>222.20000000000002</ele><time>2026-05-03T11:28:56.051Z</time></trkpt><trkpt lat="36.4959838" lon="9.3151798"><ele>222.60000000000002</ele><time>2026-05-03T11:28:57.043Z</time></trkpt><trkpt lat="36.4959048" lon="9.3151476"><ele>223.0</ele><time>2026-05-03T11:28:58.058Z</time></trkpt><trkpt lat="36.4958276" lon="9.3151171"><ele>223.0</ele><time>2026-05-03T11:28:59.062Z</time></trkpt><trkpt lat="36.4957332" lon="9.315072"><ele>223.0</ele><time>2026-05-03T11:29:00.07Z</time></trkpt><trkpt lat="36.4956205" lon="9.3150229"><ele>223.0</ele><time>2026-05-03T11:29:01.075Z</time></trkpt><trkpt lat="36.4955042" lon="9.3149619"><ele>223.0</ele><time>2026-05-03T11:29:02.069Z</time></trkpt><trkpt lat="36.4953865" lon="9.3149021"><ele>223.5</ele><time>2026-05-03T11:29:03.067Z</time></trkpt><trkpt lat="36.4952635" lon="9.3148325"><ele>224.0</ele><time>2026-05-03T11:29:04.069Z</time></trkpt><trkpt lat="36.4951381" lon="9.3147579"><ele>224.5</ele><time>2026-05-03T11:29:05.025Z</time></trkpt><trkpt lat="36.4950166" lon="9.3146746"><ele>225.0</ele><time>2026-05-03T11:29:06.055Z</time></trkpt><trkpt lat="36.4949036" lon="9.3145912"><ele>224.0</ele><time>2026-05-03T11:29:07.07Z</time></trkpt><trkpt lat="36.4947961" lon="9.3145125"><ele>223.0</ele><time>2026-05-03T11:29:08.055Z</time></trkpt><trkpt lat="36.4946986" lon="9.314443"><ele>222.0</ele><time>2026-05-03T11:29:09.065Z</time></trkpt><trkpt lat="36.4946206" lon="9.3143836"><ele>221.0</ele><time>2026-05-03T11:29:10.073Z</time></trkpt><trkpt lat="36.4945576" lon="9.3143342"><ele>220.0</ele><time>2026-05-03T11:29:11.07Z</time></trkpt><trkpt lat="36.4944937" lon="9.3142824"><ele>220.0</ele><time>2026-05-03T11:29:12.062Z</time></trkpt><trkpt lat="36.49442" lon="9.3142238"><ele>220.0</ele><time>2026-05-03T11:29:13.054Z</time></trkpt><trkpt lat="36.4943268" lon="9.3141524"><ele>220.0</ele><time>2026-05-03T11:29:14.076Z</time></trkpt><trkpt lat="36.4942123" lon="9.3140621"><ele>220.0</ele><time>2026-05-03T11:29:15.051Z</time></trkpt><trkpt lat="36.4940754" lon="9.313956"><ele>219.33333333333331</ele><time>2026-05-03T11:29:16.072Z</time></trkpt><trkpt lat="36.493901" lon="9.3138144"><ele>218.66666666666669</ele><time>2026-05-03T11:29:17.052Z</time></trkpt><trkpt lat="36.4936973" lon="9.3136595"><ele>218.0</ele><time>2026-05-03T11:29:18.085Z</time></trkpt><trkpt lat="36.4934761" lon="9.3134929"><ele>218.0</ele><time>2026-05-03T11:29:19.065Z</time></trkpt><trkpt lat="36.493222" lon="9.313292"><ele>218.0</ele><time>2026-05-03T11:29:20.081Z</time></trkpt><trkpt lat="36.4929385" lon="9.3130678"><ele>219.0</ele><time>2026-05-03T11:29:21.063Z</time></trkpt><trkpt lat="36.4926568" lon="9.3128418"><ele>220.0</ele><time>2026-05-03T11:29:22.063Z</time></trkpt><trkpt lat="36.4923766" lon="9.3126175"><ele>220.0</ele><time>2026-05-03T11:29:23.067Z</time></trkpt><trkpt lat="36.4920958" lon="9.3123964"><ele>220.0</ele><time>2026-05-03T11:29:24.07Z</time></trkpt><trkpt lat="36.4918379" lon="9.3121943"><ele>222.0</ele><time>2026-05-03T11:29:25.065Z</time></trkpt><trkpt lat="36.491595" lon="9.3120076"><ele>224.0</ele><time>2026-05-03T11:29:26.059Z</time></trkpt><trkpt lat="36.4913679" lon="9.3118268"><ele>226.0</ele><time>2026-05-03T11:29:27.039Z</time></trkpt><trkpt lat="36.4911467" lon="9.3116593"><ele>228.0</ele><time>2026-05-03T11:29:28.075Z</time></trkpt><trkpt lat="36.4909386" lon="9.3114916"><ele>227.0</ele><time>2026-05-03T11:29:29.045Z</time></trkpt><trkpt lat="36.4907292" lon="9.3113252"><ele>226.0</ele><time>2026-05-03T11:29:30.049Z</time></trkpt><trkpt lat="36.4905178" lon="9.3111673"><ele>225.0</ele><time>2026-05-03T11:29:31.069Z</time></trkpt><trkpt lat="36.4903112" lon="9.3110041"><ele>224.0</ele><time>2026-05-03T11:29:32.058Z</time></trkpt><trkpt lat="36.4901046" lon="9.3108456"><ele>224.0</ele><time>2026-05-03T11:29:33.067Z</time></trkpt><trkpt lat="36.4898928" lon="9.3106802"><ele>224.0</ele><time>2026-05-03T11:29:34.075Z</time></trkpt><trkpt lat="36.489676" lon="9.3105215"><ele>223.0</ele><time>2026-05-03T11:29:35.058Z</time></trkpt><trkpt lat="36.4894609" lon="9.3103563"><ele>222.0</ele><time>2026-05-03T11:29:36.065Z</time></trkpt><trkpt lat="36.4892546" lon="9.3101886"><ele>222.0</ele><time>2026-05-03T11:29:37.063Z</time></trkpt><trkpt lat="36.4890443" lon="9.3100248"><ele>222.0</ele><time>2026-05-03T11:29:38.068Z</time></trkpt><trkpt lat="36.4888378" lon="9.3098597"><ele>223.0</ele><time>2026-05-03T11:29:39.064Z</time></trkpt><trkpt lat="36.4886314" lon="9.3096951"><ele>224.0</ele><time>2026-05-03T11:29:40.067Z</time></trkpt><trkpt lat="36.4884238" lon="9.3095325"><ele>224.0</ele><time>2026-05-03T11:29:41.063Z</time></trkpt><trkpt lat="36.4882175" lon="9.3093719"><ele>224.0</ele><time>2026-05-03T11:29:42.072Z</time></trkpt><trkpt lat="36.4880126" lon="9.3092121"><ele>224.5</ele><time>2026-05-03T11:29:43.064Z</time></trkpt><trkpt lat="36.4878072" lon="9.3090519"><ele>225.0</ele><time>2026-05-03T11:29:44.016Z</time></trkpt><trkpt lat="36.4876074" lon="9.3088887"><ele>225.5</ele><time>2026-05-03T11:29:45.044Z</time></trkpt><trkpt lat="36.4874126" lon="9.308711"><ele>226.0</ele><time>2026-05-03T11:29:46.063Z</time></trkpt><trkpt lat="36.4872181" lon="9.3085338"><ele>227.0</ele><time>2026-05-03T11:29:47.032Z</time></trkpt><trkpt lat="36.4870415" lon="9.3083371"><ele>228.0</ele><time>2026-05-03T11:29:48.03Z</time></trkpt><trkpt lat="36.486871" lon="9.3081233"><ele>227.5</ele><time>2026-05-03T11:29:49.036Z</time></trkpt><trkpt lat="36.4867204" lon="9.3079088"><ele>227.0</ele><time>2026-05-03T11:29:50.027Z</time></trkpt><trkpt lat="36.4865823" lon="9.3076844"><ele>227.0</ele><time>2026-05-03T11:29:51.015Z</time></trkpt><trkpt lat="36.4864524" lon="9.3074533"><ele>227.0</ele><time>2026-05-03T11:29:52.021Z</time></trkpt><trkpt lat="36.4863361" lon="9.3072126"><ele>228.0</ele><time>2026-05-03T11:29:53.051Z</time></trkpt><trkpt lat="36.4862351" lon="9.3069696"><ele>229.0</ele><time>2026-05-03T11:29:54.038Z</time></trkpt><trkpt lat="36.4861455" lon="9.30672"><ele>230.0</ele><time>2026-05-03T11:29:55.043Z</time></trkpt><trkpt lat="36.4860678" lon="9.3064782"><ele>230.33333333333334</ele><time>2026-05-03T11:29:56.047Z</time></trkpt><trkpt lat="36.4859997" lon="9.3062284"><ele>230.66666666666669</ele><time>2026-05-03T11:29:57.042Z</time></trkpt><trkpt lat="36.4859398" lon="9.3059687"><ele>231.0</ele><time>2026-05-03T11:29:58.046Z</time></trkpt><trkpt lat="36.4858941" lon="9.3057049"><ele>230.0</ele><time>2026-05-03T11:29:59.064Z</time></trkpt><trkpt lat="36.4858674" lon="9.3054399"><ele>229.0</ele><time>2026-05-03T11:30:00.056Z</time></trkpt><trkpt lat="36.4858479" lon="9.3051686"><ele>228.0</ele><time>2026-05-03T11:30:01.055Z</time></trkpt><trkpt lat="36.4858417" lon="9.3049004"><ele>229.0</ele><time>2026-05-03T11:30:02.082Z</time></trkpt><trkpt lat="36.4858484" lon="9.3046412"><ele>230.0</ele><time>2026-05-03T11:30:03.041Z</time></trkpt><trkpt lat="36.485866" lon="9.3043811"><ele>231.0</ele><time>2026-05-03T11:30:04.08Z</time></trkpt><trkpt lat="36.4858982" lon="9.3041251"><ele>231.66666666666669</ele><time>2026-05-03T11:30:05.067Z</time></trkpt><trkpt lat="36.4859411" lon="9.3038654"><ele>232.33333333333334</ele><time>2026-05-03T11:30:06.074Z</time></trkpt><trkpt lat="36.4859877" lon="9.3036107"><ele>233.0</ele><time>2026-05-03T11:30:07.046Z</time></trkpt><trkpt lat="36.4860368" lon="9.3033537"><ele>233.0</ele><time>2026-05-03T11:30:08.048Z</time></trkpt><trkpt lat="36.4860943" lon="9.3030916"><ele>233.0</ele><time>2026-05-03T11:30:09.064Z</time></trkpt><trkpt lat="36.4861464" lon="9.3028277"><ele>233.0</ele><time>2026-05-03T11:30:10.079Z</time></trkpt><trkpt lat="36.4861958" lon="9.3025697"><ele>232.0</ele><time>2026-05-03T11:30:11.064Z</time></trkpt><trkpt lat="36.4862472" lon="9.3023143"><ele>231.0</ele><time>2026-05-03T11:30:12.054Z</time></trkpt><trkpt lat="36.4862985" lon="9.3020567"><ele>230.0</ele><time>2026-05-03T11:30:13.078Z</time></trkpt><trkpt lat="36.4863468" lon="9.3018004"><ele>230.0</ele><time>2026-05-03T11:30:14.048Z</time></trkpt><trkpt lat="36.486391" lon="9.3015444"><ele>230.0</ele><time>2026-05-03T11:30:15.047Z</time></trkpt><trkpt lat="36.4864286" lon="9.3012886"><ele>230.0</ele><time>2026-05-03T11:30:16.064Z</time></trkpt><trkpt lat="36.4864507" lon="9.3010296"><ele>230.66666666666669</ele><time>2026-05-03T11:30:17.05Z</time></trkpt><trkpt lat="36.4864668" lon="9.300768"><ele>231.33333333333331</ele><time>2026-05-03T11:30:18.066Z</time></trkpt><trkpt lat="36.4864766" lon="9.3005132"><ele>232.0</ele><time>2026-05-03T11:30:19.064Z</time></trkpt><trkpt lat="36.4864838" lon="9.3002566"><ele>233.33333333333331</ele><time>2026-05-03T11:30:20.076Z</time></trkpt><trkpt lat="36.4864832" lon="9.300004"><ele>234.66666666666669</ele><time>2026-05-03T11:30:21.048Z</time></trkpt><trkpt lat="36.486468" lon="9.2997507"><ele>236.0</ele><time>2026-05-03T11:30:22.062Z</time></trkpt><trkpt lat="36.4864539" lon="9.299501"><ele>236.33333333333334</ele><time>2026-05-03T11:30:23.076Z</time></trkpt><trkpt lat="36.4864293" lon="9.2992498"><ele>236.66666666666669</ele><time>2026-05-03T11:30:24.061Z</time></trkpt><trkpt lat="36.4864025" lon="9.2989919"><ele>237.0</ele><time>2026-05-03T11:30:25.025Z</time></trkpt><trkpt lat="36.4863626" lon="9.2987321"><ele>238.33333333333331</ele><time>2026-05-03T11:30:26.032Z</time></trkpt><trkpt lat="36.4863179" lon="9.2984689"><ele>239.66666666666666</ele><time>2026-05-03T11:30:27.06Z</time></trkpt><trkpt lat="36.4862619" lon="9.2982069"><ele>241.0</ele><time>2026-05-03T11:30:28.071Z</time></trkpt><trkpt lat="36.4861968" lon="9.2979527"><ele>242.0</ele><time>2026-05-03T11:30:29.032Z</time></trkpt><trkpt lat="36.4861282" lon="9.2976964"><ele>243.0</ele><time>2026-05-03T11:30:30.07Z</time></trkpt><trkpt lat="36.4860498" lon="9.2974375"><ele>244.0</ele><time>2026-05-03T11:30:31.068Z</time></trkpt><trkpt lat="36.4859607" lon="9.2971855"><ele>245.0</ele><time>2026-05-03T11:30:32.069Z</time></trkpt><trkpt lat="36.4858565" lon="9.2969337"><ele>246.0</ele><time>2026-05-03T11:30:33.081Z</time></trkpt><trkpt lat="36.4857498" lon="9.2966852"><ele>246.0</ele><time>2026-05-03T11:30:34.048Z</time></trkpt><trkpt lat="36.4856401" lon="9.2964395"><ele>246.0</ele><time>2026-05-03T11:30:35.06Z</time></trkpt><trkpt lat="36.485527" lon="9.2962072"><ele>246.0</ele><time>2026-05-03T11:30:36.08Z</time></trkpt><trkpt lat="36.4854115" lon="9.295973"><ele>248.0</ele><time>2026-05-03T11:30:37.078Z</time></trkpt><trkpt lat="36.4853024" lon="9.2957468"><ele>250.0</ele><time>2026-05-03T11:30:38.073Z</time></trkpt><trkpt lat="36.4851901" lon="9.2955209"><ele>252.0</ele><time>2026-05-03T11:30:39.066Z</time></trkpt><trkpt lat="36.4850799" lon="9.2953"><ele>252.33333333333331</ele><time>2026-05-03T11:30:40.055Z</time></trkpt><trkpt lat="36.4849634" lon="9.2950799"><ele>252.66666666666666</ele><time>2026-05-03T11:30:41.078Z</time></trkpt><trkpt lat="36.484839" lon="9.2948689"><ele>253.0</ele><time>2026-05-03T11:30:42.078Z</time></trkpt><trkpt lat="36.4847143" lon="9.2946581"><ele>251.0</ele><time>2026-05-03T11:30:43.073Z</time></trkpt><trkpt lat="36.4845861" lon="9.2944529"><ele>249.0</ele><time>2026-05-03T11:30:44.037Z</time></trkpt><trkpt lat="36.484455" lon="9.2942475"><ele>247.0</ele><time>2026-05-03T11:30:45.045Z</time></trkpt><trkpt lat="36.4843208" lon="9.2940537"><ele>247.66666666666666</ele><time>2026-05-03T11:30:46.066Z</time></trkpt><trkpt lat="36.4841796" lon="9.293865"><ele>248.33333333333331</ele><time>2026-05-03T11:30:47.039Z</time></trkpt><trkpt lat="36.4840388" lon="9.2936814"><ele>249.0</ele><time>2026-05-03T11:30:48.054Z</time></trkpt><trkpt lat="36.483892" lon="9.2935034"><ele>249.33333333333331</ele><time>2026-05-03T11:30:49.066Z</time></trkpt><trkpt lat="36.4837405" lon="9.2933325"><ele>249.66666666666666</ele><time>2026-05-03T11:30:50.062Z</time></trkpt><trkpt lat="36.4835813" lon="9.2931681"><ele>250.0</ele><time>2026-05-03T11:30:51.049Z</time></trkpt><trkpt lat="36.4834266" lon="9.2930005"><ele>250.0</ele><time>2026-05-03T11:30:52.035Z</time></trkpt><trkpt lat="36.4832605" lon="9.2928347"><ele>250.0</ele><time>2026-05-03T11:30:53.063Z</time></trkpt><trkpt lat="36.4830893" lon="9.2926742"><ele>250.0</ele><time>2026-05-03T11:30:54.067Z</time></trkpt><trkpt lat="36.4829198" lon="9.2925153"><ele>249.33333333333331</ele><time>2026-05-03T11:30:55.061Z</time></trkpt><trkpt lat="36.4827465" lon="9.2923635"><ele>248.66666666666669</ele><time>2026-05-03T11:30:56.071Z</time></trkpt><trkpt lat="36.4825681" lon="9.2922202"><ele>248.0</ele><time>2026-05-03T11:30:57.034Z</time></trkpt><trkpt lat="36.4823876" lon="9.2920845"><ele>248.33333333333334</ele><time>2026-05-03T11:30:58.075Z</time></trkpt><trkpt lat="36.4822086" lon="9.2919533"><ele>248.66666666666669</ele><time>2026-05-03T11:30:59.064Z</time></trkpt><trkpt lat="36.4820311" lon="9.2918277"><ele>249.0</ele><time>2026-05-03T11:31:00.065Z</time></trkpt><trkpt lat="36.4818491" lon="9.2917049"><ele>249.0</ele><time>2026-05-03T11:31:01.063Z</time></trkpt><trkpt lat="36.4816586" lon="9.29159"><ele>249.0</ele><time>2026-05-03T11:31:02.057Z</time></trkpt><trkpt lat="36.4814651" lon="9.2914812"><ele>249.0</ele><time>2026-05-03T11:31:03.068Z</time></trkpt><trkpt lat="36.4812645" lon="9.2913769"><ele>249.66666666666669</ele><time>2026-05-03T11:31:04.072Z</time></trkpt><trkpt lat="36.481065" lon="9.2912787"><ele>250.33333333333334</ele><time>2026-05-03T11:31:05.051Z</time></trkpt><trkpt lat="36.4808609" lon="9.2911884"><ele>251.0</ele><time>2026-05-03T11:31:06.064Z</time></trkpt><trkpt lat="36.4806575" lon="9.2910966"><ele>251.0</ele><time>2026-05-03T11:31:07.041Z</time></trkpt><trkpt lat="36.4804533" lon="9.2910051"><ele>251.0</ele><time>2026-05-03T11:31:08.063Z</time></trkpt><trkpt lat="36.4802507" lon="9.2909165"><ele>251.0</ele><time>2026-05-03T11:31:09.082Z</time></trkpt><trkpt lat="36.4800504" lon="9.2908317"><ele>250.0</ele><time>2026-05-03T11:31:10.066Z</time></trkpt><trkpt lat="36.4798512" lon="9.2907479"><ele>249.0</ele><time>2026-05-03T11:31:11.059Z</time></trkpt><trkpt lat="36.4796466" lon="9.2906632"><ele>248.0</ele><time>2026-05-03T11:31:12.064Z</time></trkpt><trkpt lat="36.4794463" lon="9.2905761"><ele>251.0</ele><time>2026-05-03T11:31:13.063Z</time></trkpt><trkpt lat="36.4792439" lon="9.2904919"><ele>254.0</ele><time>2026-05-03T11:31:14.071Z</time></trkpt><trkpt lat="36.479039" lon="9.2904049"><ele>257.0</ele><time>2026-05-03T11:31:15.069Z</time></trkpt><trkpt lat="36.4788355" lon="9.2903161"><ele>257.33333333333337</ele><time>2026-05-03T11:31:16.058Z</time></trkpt><trkpt lat="36.4786285" lon="9.2902308"><ele>257.6666666666667</ele><time>2026-05-03T11:31:17.056Z</time></trkpt><trkpt lat="36.4784267" lon="9.2901457"><ele>258.0</ele><time>2026-05-03T11:31:18.063Z</time></trkpt><trkpt lat="36.4782221" lon="9.2900647"><ele>258.0</ele><time>2026-05-03T11:31:19.06Z</time></trkpt><trkpt lat="36.4780197" lon="9.2899767"><ele>258.0</ele><time>2026-05-03T11:31:20.053Z</time></trkpt><trkpt lat="36.4778157" lon="9.28989"><ele>258.0</ele><time>2026-05-03T11:31:21.062Z</time></trkpt><trkpt lat="36.4776114" lon="9.2898027"><ele>258.3333333333333</ele><time>2026-05-03T11:31:22.022Z</time></trkpt><trkpt lat="36.4774065" lon="9.2897164"><ele>258.66666666666663</ele><time>2026-05-03T11:31:23.063Z</time></trkpt><trkpt lat="36.4771962" lon="9.2896372"><ele>259.0</ele><time>2026-05-03T11:31:24.057Z</time></trkpt><trkpt lat="36.476987" lon="9.2895639"><ele>259.66666666666663</ele><time>2026-05-03T11:31:25.052Z</time></trkpt><trkpt lat="36.4767782" lon="9.2894852"><ele>260.3333333333333</ele><time>2026-05-03T11:31:26.067Z</time></trkpt><trkpt lat="36.4765666" lon="9.289417"><ele>261.0</ele><time>2026-05-03T11:31:27.067Z</time></trkpt><trkpt lat="36.4763611" lon="9.2893571"><ele>260.6666666666667</ele><time>2026-05-03T11:31:28.072Z</time></trkpt><trkpt lat="36.4761493" lon="9.2892984"><ele>260.33333333333337</ele><time>2026-05-03T11:31:29.06Z</time></trkpt><trkpt lat="36.475946" lon="9.2892466"><ele>260.0</ele><time>2026-05-03T11:31:30.047Z</time></trkpt><trkpt lat="36.4757441" lon="9.2892012"><ele>260.0</ele><time>2026-05-03T11:31:31.066Z</time></trkpt><trkpt lat="36.4755448" lon="9.2891602"><ele>260.0</ele><time>2026-05-03T11:31:32.068Z</time></trkpt><trkpt lat="36.4753585" lon="9.2891206"><ele>260.0</ele><time>2026-05-03T11:31:33.066Z</time></trkpt><trkpt lat="36.4751774" lon="9.2890826"><ele>258.6666666666667</ele><time>2026-05-03T11:31:34.071Z</time></trkpt><trkpt lat="36.4750031" lon="9.2890562"><ele>257.3333333333333</ele><time>2026-05-03T11:31:35.065Z</time></trkpt><trkpt lat="36.4748344" lon="9.2890177"><ele>256.0</ele><time>2026-05-03T11:31:36.071Z</time></trkpt><trkpt lat="36.4746632" lon="9.2889904"><ele>255.66666666666666</ele><time>2026-05-03T11:31:37.071Z</time></trkpt><trkpt lat="36.4744931" lon="9.2889582"><ele>255.33333333333331</ele><time>2026-05-03T11:31:38.061Z</time></trkpt><trkpt lat="36.4743194" lon="9.2889219"><ele>255.0</ele><time>2026-05-03T11:31:39.046Z</time></trkpt><trkpt lat="36.4741455" lon="9.2888823"><ele>256.0</ele><time>2026-05-03T11:31:40.083Z</time></trkpt><trkpt lat="36.4739668" lon="9.2888429"><ele>257.0</ele><time>2026-05-03T11:31:41.073Z</time></trkpt><trkpt lat="36.4737858" lon="9.2888065"><ele>258.0</ele><time>2026-05-03T11:31:42.061Z</time></trkpt><trkpt lat="36.4736072" lon="9.288765"><ele>258.0</ele><time>2026-05-03T11:31:43.078Z</time></trkpt><trkpt lat="36.4734274" lon="9.2887214"><ele>258.0</ele><time>2026-05-03T11:31:44.063Z</time></trkpt><trkpt lat="36.4732506" lon="9.2886619"><ele>258.0</ele><time>2026-05-03T11:31:45.036Z</time></trkpt><trkpt lat="36.4730654" lon="9.2886015"><ele>258.0</ele><time>2026-05-03T11:31:46.062Z</time></trkpt><trkpt lat="36.4728773" lon="9.288534"><ele>258.0</ele><time>2026-05-03T11:31:47.063Z</time></trkpt><trkpt lat="36.4726918" lon="9.2884609"><ele>258.0</ele><time>2026-05-03T11:31:48.053Z</time></trkpt><trkpt lat="36.4725089" lon="9.2883799"><ele>258.0</ele><time>2026-05-03T11:31:49.06Z</time></trkpt><trkpt lat="36.472323" lon="9.2882918"><ele>258.0</ele><time>2026-05-03T11:31:50.056Z</time></trkpt><trkpt lat="36.472141" lon="9.2881983"><ele>258.0</ele><time>2026-05-03T11:31:51.061Z</time></trkpt><trkpt lat="36.4719579" lon="9.2880988"><ele>259.0</ele><time>2026-05-03T11:31:52.068Z</time></trkpt><trkpt lat="36.4717813" lon="9.2879938"><ele>260.0</ele><time>2026-05-03T11:31:53.064Z</time></trkpt><trkpt lat="36.4716115" lon="9.287882"><ele>261.0</ele><time>2026-05-03T11:31:54.075Z</time></trkpt><trkpt lat="36.4714363" lon="9.2877633"><ele>260.0</ele><time>2026-05-03T11:31:55.063Z</time></trkpt><trkpt lat="36.4712619" lon="9.2876407"><ele>259.0</ele><time>2026-05-03T11:31:56.066Z</time></trkpt><trkpt lat="36.4710869" lon="9.287515"><ele>258.0</ele><time>2026-05-03T11:31:57.071Z</time></trkpt><trkpt lat="36.4709119" lon="9.2873771"><ele>258.3333333333333</ele><time>2026-05-03T11:31:58.067Z</time></trkpt><trkpt lat="36.4707381" lon="9.2872392"><ele>258.66666666666663</ele><time>2026-05-03T11:31:59.073Z</time></trkpt><trkpt lat="36.4705683" lon="9.2870936"><ele>259.0</ele><time>2026-05-03T11:32:00.051Z</time></trkpt><trkpt lat="36.4703972" lon="9.2869403"><ele>259.0</ele><time>2026-05-03T11:32:01.055Z</time></trkpt><trkpt lat="36.4702321" lon="9.2867813"><ele>259.0</ele><time>2026-05-03T11:32:02.061Z</time></trkpt><trkpt lat="36.4700723" lon="9.2866134"><ele>259.0</ele><time>2026-05-03T11:32:03.071Z</time></trkpt><trkpt lat="36.4699212" lon="9.2864441"><ele>260.0</ele><time>2026-05-03T11:32:04.071Z</time></trkpt><trkpt lat="36.4697698" lon="9.2862707"><ele>261.0</ele><time>2026-05-03T11:32:05.046Z</time></trkpt><trkpt lat="36.4696264" lon="9.2860898"><ele>262.0</ele><time>2026-05-03T11:32:06.077Z</time></trkpt><trkpt lat="36.4694798" lon="9.2859017"><ele>262.0</ele><time>2026-05-03T11:32:07.077Z</time></trkpt><trkpt lat="36.4693412" lon="9.28571"><ele>262.0</ele><time>2026-05-03T11:32:08.034Z</time></trkpt><trkpt lat="36.4692025" lon="9.2855163"><ele>262.0</ele><time>2026-05-03T11:32:09.03Z</time></trkpt><trkpt lat="36.469067" lon="9.2853173"><ele>263.3333333333333</ele><time>2026-05-03T11:32:10.072Z</time></trkpt><trkpt lat="36.4689317" lon="9.2851169"><ele>264.6666666666667</ele><time>2026-05-03T11:32:11.079Z</time></trkpt><trkpt lat="36.4688016" lon="9.2849094"><ele>266.0</ele><time>2026-05-03T11:32:12.04Z</time></trkpt><trkpt lat="36.4686811" lon="9.2846988"><ele>263.33333333333337</ele><time>2026-05-03T11:32:13.062Z</time></trkpt><trkpt lat="36.4685616" lon="9.2844812"><ele>260.6666666666667</ele><time>2026-05-03T11:32:14.063Z</time></trkpt><trkpt lat="36.4684452" lon="9.2842541"><ele>258.0</ele><time>2026-05-03T11:32:15.042Z</time></trkpt><trkpt lat="36.4683322" lon="9.2840193"><ele>259.6666666666667</ele><time>2026-05-03T11:32:16.077Z</time></trkpt><trkpt lat="36.4682231" lon="9.2837851"><ele>261.33333333333337</ele><time>2026-05-03T11:32:17.064Z</time></trkpt><trkpt lat="36.4681189" lon="9.2835414"><ele>263.0</ele><time>2026-05-03T11:32:18.07Z</time></trkpt><trkpt lat="36.468024" lon="9.2832929"><ele>265.33333333333337</ele><time>2026-05-03T11:32:19.057Z</time></trkpt><trkpt lat="36.4679338" lon="9.2830434"><ele>267.6666666666667</ele><time>2026-05-03T11:32:20.054Z</time></trkpt><trkpt lat="36.4678435" lon="9.2827952"><ele>270.0</ele><time>2026-05-03T11:32:21.066Z</time></trkpt><trkpt lat="36.4677617" lon="9.2825484"><ele>270.0</ele><time>2026-05-03T11:32:22.039Z</time></trkpt><trkpt lat="36.4676889" lon="9.2822969"><ele>270.0</ele><time>2026-05-03T11:32:23.072Z</time></trkpt><trkpt lat="36.4676214" lon="9.2820428"><ele>270.0</ele><time>2026-05-03T11:32:24.066Z</time></trkpt><trkpt lat="36.4675601" lon="9.2817867"><ele>271.6666666666667</ele><time>2026-05-03T11:32:25.06Z</time></trkpt><trkpt lat="36.4675017" lon="9.2815245"><ele>273.33333333333337</ele><time>2026-05-03T11:32:26.064Z</time></trkpt><trkpt lat="36.4674462" lon="9.281266"><ele>275.0</ele><time>2026-05-03T11:32:27.069Z</time></trkpt><trkpt lat="36.4673984" lon="9.2810138"><ele>275.33333333333337</ele><time>2026-05-03T11:32:28.073Z</time></trkpt><trkpt lat="36.4673595" lon="9.280754"><ele>275.6666666666667</ele><time>2026-05-03T11:32:29.071Z</time></trkpt><trkpt lat="36.4673281" lon="9.2804961"><ele>276.0</ele><time>2026-05-03T11:32:30.061Z</time></trkpt><trkpt lat="36.4672931" lon="9.2802336"><ele>277.0</ele><time>2026-05-03T11:32:31.076Z</time></trkpt><trkpt lat="36.4672668" lon="9.2799699"><ele>278.0</ele><time>2026-05-03T11:32:32.071Z</time></trkpt><trkpt lat="36.4672424" lon="9.2797094"><ele>279.0</ele><time>2026-05-03T11:32:33.067Z</time></trkpt><trkpt lat="36.4672156" lon="9.2794434"><ele>280.0</ele><time>2026-05-03T11:32:34.077Z</time></trkpt><trkpt lat="36.4671915" lon="9.2791815"><ele>281.0</ele><time>2026-05-03T11:32:35.071Z</time></trkpt><trkpt lat="36.4671632" lon="9.2789181"><ele>282.0</ele><time>2026-05-03T11:32:36.059Z</time></trkpt><trkpt lat="36.4671358" lon="9.2786498"><ele>286.6666666666667</ele><time>2026-05-03T11:32:37.071Z</time></trkpt><trkpt lat="36.4671054" lon="9.2783765"><ele>291.33333333333337</ele><time>2026-05-03T11:32:38.051Z</time></trkpt><trkpt lat="36.4670779" lon="9.2780965"><ele>296.0</ele><time>2026-05-03T11:32:39.074Z</time></trkpt><trkpt lat="36.4670481" lon="9.2778198"><ele>299.0</ele><time>2026-05-03T11:32:40.031Z</time></trkpt><trkpt lat="36.4670213" lon="9.2775455"><ele>302.0</ele><time>2026-05-03T11:32:41.065Z</time></trkpt><trkpt lat="36.4669965" lon="9.2772776"><ele>305.0</ele><time>2026-05-03T11:32:42.059Z</time></trkpt><trkpt lat="36.4669737" lon="9.2770101"><ele>306.33333333333337</ele><time>2026-05-03T11:32:43.043Z</time></trkpt><trkpt lat="36.4669454" lon="9.2767403"><ele>307.6666666666667</ele><time>2026-05-03T11:32:44.053Z</time></trkpt><trkpt lat="36.4669178" lon="9.2764717"><ele>309.0</ele><time>2026-05-03T11:32:45.047Z</time></trkpt><trkpt lat="36.466893" lon="9.2762077"><ele>310.6666666666667</ele><time>2026-05-03T11:32:46.061Z</time></trkpt><trkpt lat="36.4668689" lon="9.2759449"><ele>312.33333333333337</ele><time>2026-05-03T11:32:47.055Z</time></trkpt><trkpt lat="36.4668424" lon="9.2756813"><ele>314.0</ele><time>2026-05-03T11:32:48.059Z</time></trkpt><trkpt lat="36.4668217" lon="9.2754225"><ele>315.6666666666667</ele><time>2026-05-03T11:32:49.052Z</time></trkpt><trkpt lat="36.4667967" lon="9.2751683"><ele>317.3333333333333</ele><time>2026-05-03T11:32:50.058Z</time></trkpt><trkpt lat="36.4667725" lon="9.2749178"><ele>319.0</ele><time>2026-05-03T11:32:51.062Z</time></trkpt><trkpt lat="36.4667459" lon="9.2746682"><ele>320.0</ele><time>2026-05-03T11:32:52.057Z</time></trkpt><trkpt lat="36.4667177" lon="9.2744246"><ele>321.0</ele><time>2026-05-03T11:32:53.064Z</time></trkpt><trkpt lat="36.4666898" lon="9.2741765"><ele>322.0</ele><time>2026-05-03T11:32:54.049Z</time></trkpt><trkpt lat="36.4666632" lon="9.2739243"><ele>322.3333333333333</ele><time>2026-05-03T11:32:55.068Z</time></trkpt><trkpt lat="36.4666341" lon="9.273676"><ele>322.6666666666667</ele><time>2026-05-03T11:32:56.048Z</time></trkpt><trkpt lat="36.4666039" lon="9.2734275"><ele>323.0</ele><time>2026-05-03T11:32:57.074Z</time></trkpt><trkpt lat="36.4665719" lon="9.2731773"><ele>322.33333333333337</ele><time>2026-05-03T11:32:58.078Z</time></trkpt><trkpt lat="36.4665296" lon="9.27293"><ele>321.6666666666667</ele><time>2026-05-03T11:32:59.043Z</time></trkpt><trkpt lat="36.4664812" lon="9.2726785"><ele>321.0</ele><time>2026-05-03T11:33:00.084Z</time></trkpt><trkpt lat="36.4664294" lon="9.2724238"><ele>320.6666666666667</ele><time>2026-05-03T11:33:01.067Z</time></trkpt><trkpt lat="36.4663715" lon="9.2721776"><ele>320.33333333333337</ele><time>2026-05-03T11:33:02.065Z</time></trkpt><trkpt lat="36.4663064" lon="9.2719306"><ele>320.0</ele><time>2026-05-03T11:33:03.065Z</time></trkpt><trkpt lat="36.4662369" lon="9.2716819"><ele>320.6666666666667</ele><time>2026-05-03T11:33:04.066Z</time></trkpt><trkpt lat="36.4661602" lon="9.2714339"><ele>321.3333333333333</ele><time>2026-05-03T11:33:05.067Z</time></trkpt><trkpt lat="36.4660813" lon="9.2711974"><ele>322.0</ele><time>2026-05-03T11:33:06.067Z</time></trkpt><trkpt lat="36.4659988" lon="9.2709566"><ele>322.0</ele><time>2026-05-03T11:33:07.055Z</time></trkpt><trkpt lat="36.4659128" lon="9.2707183"><ele>322.0</ele><time>2026-05-03T11:33:08.081Z</time></trkpt><trkpt lat="36.4658213" lon="9.2704797"><ele>322.0</ele><time>2026-05-03T11:33:09.062Z</time></trkpt><trkpt lat="36.4657238" lon="9.2702423"><ele>322.3333333333333</ele><time>2026-05-03T11:33:10.063Z</time></trkpt><trkpt lat="36.4656216" lon="9.2700024"><ele>322.6666666666667</ele><time>2026-05-03T11:33:11.061Z</time></trkpt><trkpt lat="36.4655201" lon="9.2697668"><ele>323.0</ele><time>2026-05-03T11:33:12.078Z</time></trkpt><trkpt lat="36.465416" lon="9.2695312"><ele>324.0</ele><time>2026-05-03T11:33:13.052Z</time></trkpt><trkpt lat="36.4653136" lon="9.2692953"><ele>325.0</ele><time>2026-05-03T11:33:14.027Z</time></trkpt><trkpt lat="36.4652139" lon="9.2690571"><ele>326.0</ele><time>2026-05-03T11:33:15.066Z</time></trkpt><trkpt lat="36.4651152" lon="9.2688168"><ele>326.6666666666667</ele><time>2026-05-03T11:33:16.059Z</time></trkpt><trkpt lat="36.4650185" lon="9.2685809"><ele>327.3333333333333</ele><time>2026-05-03T11:33:17.056Z</time></trkpt><trkpt lat="36.4649175" lon="9.2683484"><ele>328.0</ele><time>2026-05-03T11:33:18.057Z</time></trkpt><trkpt lat="36.4648164" lon="9.2681081"><ele>328.66666666666663</ele><time>2026-05-03T11:33:19.048Z</time></trkpt><trkpt lat="36.4647177" lon="9.2678733"><ele>329.3333333333333</ele><time>2026-05-03T11:33:20.078Z</time></trkpt><trkpt lat="36.4646196" lon="9.2676357"><ele>330.0</ele><time>2026-05-03T11:33:21.059Z</time></trkpt><trkpt lat="36.4645174" lon="9.2674012"><ele>331.0</ele><time>2026-05-03T11:33:22.074Z</time></trkpt><trkpt lat="36.46442" lon="9.2671665"><ele>332.0</ele><time>2026-05-03T11:33:23.056Z</time></trkpt><trkpt lat="36.4643214" lon="9.2669324"><ele>333.0</ele><time>2026-05-03T11:33:24.047Z</time></trkpt><trkpt lat="36.4642228" lon="9.2666939"><ele>333.0</ele><time>2026-05-03T11:33:25.076Z</time></trkpt><trkpt lat="36.4641253" lon="9.2664514"><ele>333.0</ele><time>2026-05-03T11:33:26.062Z</time></trkpt><trkpt lat="36.4640421" lon="9.2662063"><ele>333.0</ele><time>2026-05-03T11:33:27.076Z</time></trkpt><trkpt lat="36.4639671" lon="9.2659533"><ele>334.0</ele><time>2026-05-03T11:33:28.09Z</time></trkpt><trkpt lat="36.4638931" lon="9.2657016"><ele>335.0</ele><time>2026-05-03T11:33:29.051Z</time></trkpt><trkpt lat="36.4638245" lon="9.265451"><ele>336.0</ele><time>2026-05-03T11:33:30.058Z</time></trkpt><trkpt lat="36.4637621" lon="9.2651968"><ele>336.0</ele><time>2026-05-03T11:33:31.058Z</time></trkpt><trkpt lat="36.4637068" lon="9.2649371"><ele>336.0</ele><time>2026-05-03T11:33:32.056Z</time></trkpt><trkpt lat="36.4636561" lon="9.264669"><ele>336.0</ele><time>2026-05-03T11:33:33.065Z</time></trkpt><trkpt lat="36.4636047" lon="9.2644082"><ele>336.3333333333333</ele><time>2026-05-03T11:33:34.047Z</time></trkpt><trkpt lat="36.4635492" lon="9.2641463"><ele>336.66666666666663</ele><time>2026-05-03T11:33:35.079Z</time></trkpt><trkpt lat="36.463501" lon="9.2639014"><ele>337.0</ele><time>2026-05-03T11:33:36.067Z</time></trkpt><trkpt lat="36.4634526" lon="9.2636705"><ele>338.3333333333333</ele><time>2026-05-03T11:33:37.036Z</time></trkpt><trkpt lat="36.4634082" lon="9.2634579"><ele>339.6666666666667</ele><time>2026-05-03T11:33:38.042Z</time></trkpt><trkpt lat="36.463363" lon="9.2632527"><ele>341.0</ele><time>2026-05-03T11:33:39.061Z</time></trkpt><trkpt lat="36.4633095" lon="9.2630554"><ele>341.33333333333337</ele><time>2026-05-03T11:33:40.069Z</time></trkpt><trkpt lat="36.4632477" lon="9.2628678"><ele>341.6666666666667</ele><time>2026-05-03T11:33:41.065Z</time></trkpt><trkpt lat="36.4631781" lon="9.2626824"><ele>342.0</ele><time>2026-05-03T11:33:42.066Z</time></trkpt><trkpt lat="36.4630983" lon="9.2625016"><ele>342.0</ele><time>2026-05-03T11:33:43.077Z</time></trkpt><trkpt lat="36.4630016" lon="9.2623271"><ele>342.0</ele><time>2026-05-03T11:33:44.062Z</time></trkpt><trkpt lat="36.4628968" lon="9.2621613"><ele>342.0</ele><time>2026-05-03T11:33:45.057Z</time></trkpt><trkpt lat="36.4627692" lon="9.2620049"><ele>343.3333333333333</ele><time>2026-05-03T11:33:46.071Z</time></trkpt><trkpt lat="36.4626328" lon="9.2618648"><ele>344.66666666666663</ele><time>2026-05-03T11:33:47.063Z</time></trkpt><trkpt lat="36.4624964" lon="9.2617271"><ele>346.0</ele><time>2026-05-03T11:33:48.071Z</time></trkpt><trkpt lat="36.4623552" lon="9.2615975"><ele>346.0</ele><time>2026-05-03T11:33:49.068Z</time></trkpt><trkpt lat="36.4622138" lon="9.2614641"><ele>346.0</ele><time>2026-05-03T11:33:50.071Z</time></trkpt><trkpt lat="36.4620712" lon="9.2613313"><ele>346.0</ele><time>2026-05-03T11:33:51.063Z</time></trkpt><trkpt lat="36.4619274" lon="9.2612017"><ele>346.66666666666663</ele><time>2026-05-03T11:33:52.069Z</time></trkpt><trkpt lat="36.4617785" lon="9.2610671"><ele>347.3333333333333</ele><time>2026-05-03T11:33:53.071Z</time></trkpt><trkpt lat="36.4616331" lon="9.2609274"><ele>348.0</ele><time>2026-05-03T11:33:54.071Z</time></trkpt><trkpt lat="36.4614903" lon="9.260782"><ele>348.0</ele><time>2026-05-03T11:33:55.075Z</time></trkpt><trkpt lat="36.4613491" lon="9.2606404"><ele>348.0</ele><time>2026-05-03T11:33:56.051Z</time></trkpt><trkpt lat="36.4612079" lon="9.2604902"><ele>348.0</ele><time>2026-05-03T11:33:57.045Z</time></trkpt><trkpt lat="36.4610685" lon="9.2603309"><ele>348.3333333333333</ele><time>2026-05-03T11:33:58.08Z</time></trkpt><trkpt lat="36.4609349" lon="9.2601729"><ele>348.66666666666663</ele><time>2026-05-03T11:33:59.072Z</time></trkpt><trkpt lat="36.4608083" lon="9.2600086"><ele>349.0</ele><time>2026-05-03T11:34:00.064Z</time></trkpt><trkpt lat="36.4606893" lon="9.2598485"><ele>348.0</ele><time>2026-05-03T11:34:01.066Z</time></trkpt><trkpt lat="36.4605769" lon="9.2596966"><ele>347.0</ele><time>2026-05-03T11:34:02.081Z</time></trkpt><trkpt lat="36.4604755" lon="9.2595444"><ele>346.0</ele><time>2026-05-03T11:34:03.061Z</time></trkpt><trkpt lat="36.4603831" lon="9.2594049"><ele>346.0</ele><time>2026-05-03T11:34:04.067Z</time></trkpt><trkpt lat="36.4603022" lon="9.2592858"><ele>346.0</ele><time>2026-05-03T11:34:05.079Z</time></trkpt><trkpt lat="36.4602376" lon="9.2591822"><ele>346.0</ele><time>2026-05-03T11:34:06.063Z</time></trkpt><trkpt lat="36.460193" lon="9.2591035"><ele>346.0</ele><time>2026-05-03T11:34:07.066Z</time></trkpt><trkpt lat="36.4601513" lon="9.2590224"><ele>346.0</ele><time>2026-05-03T11:34:09.065Z</time></trkpt><trkpt lat="36.4601146" lon="9.2589355"><ele>347.20000000000005</ele><time>2026-05-03T11:34:12.068Z</time></trkpt><trkpt lat="36.4600648" lon="9.2588448"><ele>348.40000000000003</ele><time>2026-05-03T11:34:14.052Z</time></trkpt><trkpt lat="36.4599699" lon="9.2587554"><ele>349.6</ele><time>2026-05-03T11:34:16.038Z</time></trkpt><trkpt lat="36.4599096" lon="9.2587118"><ele>350.8</ele><time>2026-05-03T11:34:17.071Z</time></trkpt><trkpt lat="36.4598364" lon="9.2586586"><ele>352.0</ele><time>2026-05-03T11:34:18.07Z</time></trkpt><trkpt lat="36.4597682" lon="9.2585851"><ele>352.0</ele><time>2026-05-03T11:34:19.071Z</time></trkpt><trkpt lat="36.4596928" lon="9.2585014"><ele>352.0</ele><time>2026-05-03T11:34:20.058Z</time></trkpt><trkpt lat="36.459624" lon="9.2584015"><ele>352.0</ele><time>2026-05-03T11:34:21.064Z</time></trkpt><trkpt lat="36.4595578" lon="9.2582927"><ele>352.0</ele><time>2026-05-03T11:34:22.06Z</time></trkpt><trkpt lat="36.4594776" lon="9.2581667"><ele>352.0</ele><time>2026-05-03T11:34:23.066Z</time></trkpt><trkpt lat="36.4593949" lon="9.2580445"><ele>350.75</ele><time>2026-05-03T11:34:24.069Z</time></trkpt><trkpt lat="36.459306" lon="9.2579281"><ele>349.5</ele><time>2026-05-03T11:34:25.056Z</time></trkpt><trkpt lat="36.4592028" lon="9.2578031"><ele>348.25</ele><time>2026-05-03T11:34:26.063Z</time></trkpt><trkpt lat="36.4590868" lon="9.2576816"><ele>347.0</ele><time>2026-05-03T11:34:27.04Z</time></trkpt><trkpt lat="36.4589622" lon="9.2575673"><ele>347.0</ele><time>2026-05-03T11:34:28.062Z</time></trkpt><trkpt lat="36.4588321" lon="9.2574606"><ele>347.0</ele><time>2026-05-03T11:34:29.059Z</time></trkpt><trkpt lat="36.4586934" lon="9.2573568"><ele>347.0</ele><time>2026-05-03T11:34:30.068Z</time></trkpt><trkpt lat="36.4585513" lon="9.257277"><ele>346.0</ele><time>2026-05-03T11:34:31.061Z</time></trkpt><trkpt lat="36.4583995" lon="9.2572141"><ele>345.0</ele><time>2026-05-03T11:34:32.071Z</time></trkpt><trkpt lat="36.4582488" lon="9.257149"><ele>344.0</ele><time>2026-05-03T11:34:33.065Z</time></trkpt><trkpt lat="36.4580908" lon="9.2570929"><ele>345.6666666666667</ele><time>2026-05-03T11:34:34.068Z</time></trkpt><trkpt lat="36.457935" lon="9.2570452"><ele>347.3333333333333</ele><time>2026-05-03T11:34:35.069Z</time></trkpt><trkpt lat="36.4577861" lon="9.2570055"><ele>349.0</ele><time>2026-05-03T11:34:36.084Z</time></trkpt><trkpt lat="36.4576425" lon="9.256961"><ele>349.0</ele><time>2026-05-03T11:34:37.025Z</time></trkpt><trkpt lat="36.4575033" lon="9.2569184"><ele>349.0</ele><time>2026-05-03T11:34:38.046Z</time></trkpt><trkpt lat="36.4573644" lon="9.2568742"><ele>349.0</ele><time>2026-05-03T11:34:39.045Z</time></trkpt><trkpt lat="36.4572294" lon="9.2568178"><ele>349.0</ele><time>2026-05-03T11:34:40.066Z</time></trkpt><trkpt lat="36.4570974" lon="9.256754"><ele>348.5</ele><time>2026-05-03T11:34:41.08Z</time></trkpt><trkpt lat="36.4569646" lon="9.2566743"><ele>348.0</ele><time>2026-05-03T11:34:42.053Z</time></trkpt><trkpt lat="36.4568384" lon="9.2565745"><ele>347.5</ele><time>2026-05-03T11:34:43.069Z</time></trkpt><trkpt lat="36.4567198" lon="9.2564678"><ele>347.0</ele><time>2026-05-03T11:34:44.04Z</time></trkpt><trkpt lat="36.4566044" lon="9.2563493"><ele>347.5</ele><time>2026-05-03T11:34:45.053Z</time></trkpt><trkpt lat="36.4564907" lon="9.256224"><ele>348.0</ele><time>2026-05-03T11:34:46.034Z</time></trkpt><trkpt lat="36.4563847" lon="9.2560885"><ele>348.5</ele><time>2026-05-03T11:34:47.026Z</time></trkpt><trkpt lat="36.4562835" lon="9.2559586"><ele>349.0</ele><time>2026-05-03T11:34:48.046Z</time></trkpt><trkpt lat="36.4561815" lon="9.2558302"><ele>349.0</ele><time>2026-05-03T11:34:49.068Z</time></trkpt><trkpt lat="36.4560782" lon="9.2556984"><ele>349.0</ele><time>2026-05-03T11:34:50.075Z</time></trkpt><trkpt lat="36.4559736" lon="9.255567"><ele>349.0</ele><time>2026-05-03T11:34:51.059Z</time></trkpt><trkpt lat="36.4558668" lon="9.2554379"><ele>349.0</ele><time>2026-05-03T11:34:52.064Z</time></trkpt><trkpt lat="36.4557588" lon="9.2553056"><ele>349.75</ele><time>2026-05-03T11:34:53.091Z</time></trkpt><trkpt lat="36.4556541" lon="9.2551701"><ele>350.5</ele><time>2026-05-03T11:34:54.081Z</time></trkpt><trkpt lat="36.4555518" lon="9.2550386"><ele>351.25</ele><time>2026-05-03T11:34:55.065Z</time></trkpt><trkpt lat="36.4554474" lon="9.254919"><ele>352.0</ele><time>2026-05-03T11:34:56.06Z</time></trkpt><trkpt lat="36.455335" lon="9.2547951"><ele>352.5</ele><time>2026-05-03T11:34:57.051Z</time></trkpt><trkpt lat="36.4552139" lon="9.2546973"><ele>353.0</ele><time>2026-05-03T11:34:58.062Z</time></trkpt><trkpt lat="36.4550929" lon="9.2546155"><ele>353.5</ele><time>2026-05-03T11:34:59.069Z</time></trkpt><trkpt lat="36.4549736" lon="9.2545414"><ele>354.0</ele><time>2026-05-03T11:35:00.076Z</time></trkpt><trkpt lat="36.4548403" lon="9.2544724"><ele>354.0</ele><time>2026-05-03T11:35:01.062Z</time></trkpt><trkpt lat="36.4547078" lon="9.254413"><ele>354.0</ele><time>2026-05-03T11:35:02.068Z</time></trkpt><trkpt lat="36.454577" lon="9.2543683"><ele>354.0</ele><time>2026-05-03T11:35:03.082Z</time></trkpt><trkpt lat="36.4544376" lon="9.2543278"><ele>354.0</ele><time>2026-05-03T11:35:04.042Z</time></trkpt><trkpt lat="36.4542931" lon="9.2542939"><ele>354.0</ele><time>2026-05-03T11:35:05.063Z</time></trkpt><trkpt lat="36.4541409" lon="9.2542753"><ele>354.0</ele><time>2026-05-03T11:35:06.069Z</time></trkpt><trkpt lat="36.4539926" lon="9.2542617"><ele>354.0</ele><time>2026-05-03T11:35:07.057Z</time></trkpt><trkpt lat="36.4538466" lon="9.2542452"><ele>354.0</ele><time>2026-05-03T11:35:08.044Z</time></trkpt><trkpt lat="36.4537014" lon="9.2542275"><ele>354.0</ele><time>2026-05-03T11:35:09.061Z</time></trkpt><trkpt lat="36.453558" lon="9.2542109"><ele>354.0</ele><time>2026-05-03T11:35:10.056Z</time></trkpt><trkpt lat="36.4534092" lon="9.2541902"><ele>354.0</ele><time>2026-05-03T11:35:11.065Z</time></trkpt><trkpt lat="36.4532598" lon="9.2541579"><ele>354.0</ele><time>2026-05-03T11:35:12.038Z</time></trkpt><trkpt lat="36.4531135" lon="9.2541172"><ele>354.0</ele><time>2026-05-03T11:35:13.082Z</time></trkpt><trkpt lat="36.4529651" lon="9.2540647"><ele>354.0</ele><time>2026-05-03T11:35:14.083Z</time></trkpt><trkpt lat="36.4528111" lon="9.2540058"><ele>354.0</ele><time>2026-05-03T11:35:15.076Z</time></trkpt><trkpt lat="36.4526582" lon="9.2539575"><ele>355.0</ele><time>2026-05-03T11:35:16.073Z</time></trkpt><trkpt lat="36.4524998" lon="9.2539026"><ele>356.0</ele><time>2026-05-03T11:35:17.064Z</time></trkpt><trkpt lat="36.4523433" lon="9.2538503"><ele>357.0</ele><time>2026-05-03T11:35:18.046Z</time></trkpt><trkpt lat="36.4521855" lon="9.2537941"><ele>357.0</ele><time>2026-05-03T11:35:19.061Z</time></trkpt><trkpt lat="36.4520289" lon="9.2537372"><ele>357.0</ele><time>2026-05-03T11:35:20.066Z</time></trkpt><trkpt lat="36.4518706" lon="9.2536822"><ele>357.0</ele><time>2026-05-03T11:35:21.067Z</time></trkpt><trkpt lat="36.4517155" lon="9.2536291"><ele>357.0</ele><time>2026-05-03T11:35:22.065Z</time></trkpt><trkpt lat="36.4515601" lon="9.2535765"><ele>357.0</ele><time>2026-05-03T11:35:23.063Z</time></trkpt><trkpt lat="36.4514022" lon="9.2535266"><ele>357.0</ele><time>2026-05-03T11:35:24.08Z</time></trkpt><trkpt lat="36.4512462" lon="9.2534757"><ele>356.6666666666667</ele><time>2026-05-03T11:35:25.065Z</time></trkpt><trkpt lat="36.451093" lon="9.2534302"><ele>356.33333333333337</ele><time>2026-05-03T11:35:26.058Z</time></trkpt><trkpt lat="36.4509378" lon="9.2533916"><ele>356.0</ele><time>2026-05-03T11:35:27.069Z</time></trkpt><trkpt lat="36.4507791" lon="9.2533639"><ele>356.0</ele><time>2026-05-03T11:35:28.076Z</time></trkpt><trkpt lat="36.4506189" lon="9.2533453"><ele>356.0</ele><time>2026-05-03T11:35:29.047Z</time></trkpt><trkpt lat="36.4504626" lon="9.2533376"><ele>356.0</ele><time>2026-05-03T11:35:30.074Z</time></trkpt><trkpt lat="36.4503052" lon="9.2533332"><ele>355.6666666666667</ele><time>2026-05-03T11:35:31.069Z</time></trkpt><trkpt lat="36.4501498" lon="9.2533411"><ele>355.3333333333333</ele><time>2026-05-03T11:35:32.068Z</time></trkpt><trkpt lat="36.4499919" lon="9.2533577"><ele>355.0</ele><time>2026-05-03T11:35:33.059Z</time></trkpt><trkpt lat="36.4498399" lon="9.2533797"><ele>355.0</ele><time>2026-05-03T11:35:34.073Z</time></trkpt><trkpt lat="36.4496894" lon="9.2534092"><ele>355.0</ele><time>2026-05-03T11:35:35.063Z</time></trkpt><trkpt lat="36.4495399" lon="9.2534492"><ele>355.0</ele><time>2026-05-03T11:35:36.042Z</time></trkpt><trkpt lat="36.4493886" lon="9.2534841"><ele>357.3333333333333</ele><time>2026-05-03T11:35:37.072Z</time></trkpt><trkpt lat="36.449235" lon="9.2535268"><ele>359.6666666666667</ele><time>2026-05-03T11:35:38.063Z</time></trkpt><trkpt lat="36.4490797" lon="9.253568"><ele>362.0</ele><time>2026-05-03T11:35:39.057Z</time></trkpt><trkpt lat="36.4489283" lon="9.253615"><ele>362.33333333333337</ele><time>2026-05-03T11:35:40.047Z</time></trkpt><trkpt lat="36.4487768" lon="9.253657"><ele>362.6666666666667</ele><time>2026-05-03T11:35:41.062Z</time></trkpt><trkpt lat="36.4486272" lon="9.2536977"><ele>363.0</ele><time>2026-05-03T11:35:42.069Z</time></trkpt><trkpt lat="36.4484805" lon="9.2537381"><ele>363.0</ele><time>2026-05-03T11:35:43.07Z</time></trkpt><trkpt lat="36.448327" lon="9.25378"><ele>363.0</ele><time>2026-05-03T11:35:44.061Z</time></trkpt><trkpt lat="36.4481787" lon="9.2538208"><ele>363.0</ele><time>2026-05-03T11:35:45.044Z</time></trkpt><trkpt lat="36.448026" lon="9.2538594"><ele>363.3333333333333</ele><time>2026-05-03T11:35:46.064Z</time></trkpt><trkpt lat="36.447874" lon="9.2538952"><ele>363.66666666666663</ele><time>2026-05-03T11:35:47.056Z</time></trkpt><trkpt lat="36.4477279" lon="9.2539342"><ele>364.0</ele><time>2026-05-03T11:35:48.073Z</time></trkpt><trkpt lat="36.4475777" lon="9.2539765"><ele>362.3333333333333</ele><time>2026-05-03T11:35:49.08Z</time></trkpt><trkpt lat="36.4474301" lon="9.2540211"><ele>360.6666666666667</ele><time>2026-05-03T11:35:50.069Z</time></trkpt><trkpt lat="36.4472852" lon="9.2540681"><ele>359.0</ele><time>2026-05-03T11:35:51.058Z</time></trkpt><trkpt lat="36.447141" lon="9.2541143"><ele>360.0</ele><time>2026-05-03T11:35:52.058Z</time></trkpt><trkpt lat="36.446996" lon="9.254156"><ele>361.0</ele><time>2026-05-03T11:35:53.049Z</time></trkpt><trkpt lat="36.4468508" lon="9.2541927"><ele>362.0</ele><time>2026-05-03T11:35:54.067Z</time></trkpt><trkpt lat="36.446713" lon="9.2542344"><ele>363.0</ele><time>2026-05-03T11:35:55.069Z</time></trkpt><trkpt lat="36.4465729" lon="9.2542714"><ele>363.0</ele><time>2026-05-03T11:35:56.073Z</time></trkpt><trkpt lat="36.4464343" lon="9.2543103"><ele>363.0</ele><time>2026-05-03T11:35:57.073Z</time></trkpt><trkpt lat="36.4462939" lon="9.2543436"><ele>363.0</ele><time>2026-05-03T11:35:58.061Z</time></trkpt><trkpt lat="36.4461476" lon="9.2543657"><ele>363.0</ele><time>2026-05-03T11:35:59.081Z</time></trkpt><trkpt lat="36.446003" lon="9.2543757"><ele>362.0</ele><time>2026-05-03T11:36:00.071Z</time></trkpt><trkpt lat="36.4458619" lon="9.2543798"><ele>361.0</ele><time>2026-05-03T11:36:01.063Z</time></trkpt><trkpt lat="36.4457364" lon="9.2543827"><ele>360.0</ele><time>2026-05-03T11:36:02.041Z</time></trkpt><trkpt lat="36.4456149" lon="9.2543702"><ele>359.0</ele><time>2026-05-03T11:36:03.065Z</time></trkpt><trkpt lat="36.4455181" lon="9.2543497"><ele>359.0</ele><time>2026-05-03T11:36:04.028Z</time></trkpt><trkpt lat="36.4454358" lon="9.25431"><ele>359.0</ele><time>2026-05-03T11:36:05.061Z</time></trkpt><trkpt lat="36.4453682" lon="9.2542118"><ele>359.0</ele><time>2026-05-03T11:36:07.051Z</time></trkpt><trkpt lat="36.4453571" lon="9.2540902"><ele>359.0</ele><time>2026-05-03T11:36:09.082Z</time></trkpt><trkpt lat="36.4454238" lon="9.2539315"><ele>359.0</ele><time>2026-05-03T11:36:11.065Z</time></trkpt><trkpt lat="36.4454855" lon="9.2538257"><ele>360.0</ele><time>2026-05-03T11:36:12.054Z</time></trkpt><trkpt lat="36.4455365" lon="9.2537245"><ele>361.0</ele><time>2026-05-03T11:36:13.069Z</time></trkpt><trkpt lat="36.4455986" lon="9.253609"><ele>362.0</ele><time>2026-05-03T11:36:14.06Z</time></trkpt><trkpt lat="36.4456644" lon="9.2534902"><ele>363.0</ele><time>2026-05-03T11:36:15.083Z</time></trkpt><trkpt lat="36.4457347" lon="9.253378"><ele>364.0</ele><time>2026-05-03T11:36:16.068Z</time></trkpt><trkpt lat="36.445804" lon="9.2532591"><ele>364.0</ele><time>2026-05-03T11:36:17.069Z</time></trkpt><trkpt lat="36.4458678" lon="9.2531435"><ele>364.0</ele><time>2026-05-03T11:36:18.068Z</time></trkpt><trkpt lat="36.4459293" lon="9.2530323"><ele>364.0</ele><time>2026-05-03T11:36:19.079Z</time></trkpt><trkpt lat="36.4459902" lon="9.252917"><ele>364.0</ele><time>2026-05-03T11:36:20.061Z</time></trkpt><trkpt lat="36.4460516" lon="9.2528032"><ele>364.0</ele><time>2026-05-03T11:36:21.06Z</time></trkpt><trkpt lat="36.4461244" lon="9.2526935"><ele>364.25</ele><time>2026-05-03T11:36:22.067Z</time></trkpt><trkpt lat="36.4461989" lon="9.2525787"><ele>364.5</ele><time>2026-05-03T11:36:23.078Z</time></trkpt><trkpt lat="36.4462716" lon="9.2524611"><ele>364.75</ele><time>2026-05-03T11:36:24.066Z</time></trkpt><trkpt lat="36.4463415" lon="9.2523339"><ele>365.0</ele><time>2026-05-03T11:36:25.074Z</time></trkpt><trkpt lat="36.4464123" lon="9.2522063"><ele>366.75</ele><time>2026-05-03T11:36:26.056Z</time></trkpt><trkpt lat="36.4464872" lon="9.2520672"><ele>368.5</ele><time>2026-05-03T11:36:27.069Z</time></trkpt><trkpt lat="36.4465622" lon="9.2519366"><ele>370.25</ele><time>2026-05-03T11:36:28.073Z</time></trkpt><trkpt lat="36.4466336" lon="9.2518085"><ele>372.0</ele><time>2026-05-03T11:36:29.061Z</time></trkpt><trkpt lat="36.4467076" lon="9.2516826"><ele>372.0</ele><time>2026-05-03T11:36:30.043Z</time></trkpt><trkpt lat="36.4467768" lon="9.2515652"><ele>372.0</ele><time>2026-05-03T11:36:31.051Z</time></trkpt><trkpt lat="36.4468444" lon="9.2514518"><ele>372.0</ele><time>2026-05-03T11:36:32.063Z</time></trkpt><trkpt lat="36.4469084" lon="9.251335"><ele>372.0</ele><time>2026-05-03T11:36:33.049Z</time></trkpt><trkpt lat="36.446972" lon="9.2512235"><ele>373.0</ele><time>2026-05-03T11:36:34.062Z</time></trkpt><trkpt lat="36.4470273" lon="9.2511106"><ele>374.0</ele><time>2026-05-03T11:36:35.073Z</time></trkpt><trkpt lat="36.4470821" lon="9.2510111"><ele>375.0</ele><time>2026-05-03T11:36:36.065Z</time></trkpt><trkpt lat="36.4471348" lon="9.2509267"><ele>376.0</ele><time>2026-05-03T11:36:37.063Z</time></trkpt><trkpt lat="36.4471851" lon="9.2508413"><ele>377.0</ele><time>2026-05-03T11:36:38.051Z</time></trkpt><trkpt lat="36.4472373" lon="9.25075"><ele>377.5</ele><time>2026-05-03T11:36:39.05Z</time></trkpt><trkpt lat="36.4472931" lon="9.2506629"><ele>378.0</ele><time>2026-05-03T11:36:40.043Z</time></trkpt><trkpt lat="36.447348" lon="9.250581"><ele>378.5</ele><time>2026-05-03T11:36:41.068Z</time></trkpt><trkpt lat="36.447407" lon="9.2504993"><ele>379.0</ele><time>2026-05-03T11:36:42.063Z</time></trkpt><trkpt lat="36.4474657" lon="9.2504263"><ele>379.5</ele><time>2026-05-03T11:36:43.056Z</time></trkpt><trkpt lat="36.447522" lon="9.2503631"><ele>380.0</ele><time>2026-05-03T11:36:44.067Z</time></trkpt><trkpt lat="36.4475707" lon="9.2503038"><ele>380.8</ele><time>2026-05-03T11:36:45.037Z</time></trkpt><trkpt lat="36.4476625" lon="9.2502157"><ele>381.6</ele><time>2026-05-03T11:36:47.057Z</time></trkpt><trkpt lat="36.4477329" lon="9.2501177"><ele>382.4</ele><time>2026-05-03T11:36:49.073Z</time></trkpt><trkpt lat="36.4477685" lon="9.2499829"><ele>383.2</ele><time>2026-05-03T11:36:51.057Z</time></trkpt><trkpt lat="36.447786" lon="9.2498672"><ele>384.0</ele><time>2026-05-03T11:36:53.074Z</time></trkpt><trkpt lat="36.4477957" lon="9.2497877"><ele>385.2</ele><time>2026-05-03T11:36:54.066Z</time></trkpt><trkpt lat="36.4478146" lon="9.2496957"><ele>386.4</ele><time>2026-05-03T11:36:55.065Z</time></trkpt><trkpt lat="36.4478356" lon="9.2495918"><ele>387.6</ele><time>2026-05-03T11:36:56.038Z</time></trkpt><trkpt lat="36.4478586" lon="9.2494706"><ele>388.8</ele><time>2026-05-03T11:36:57.063Z</time></trkpt><trkpt lat="36.4478921" lon="9.2493433"><ele>390.0</ele><time>2026-05-03T11:36:58.072Z</time></trkpt><trkpt lat="36.4479276" lon="9.2491992"><ele>389.5</ele><time>2026-05-03T11:36:59.06Z</time></trkpt><trkpt lat="36.4479693" lon="9.2490527"><ele>389.0</ele><time>2026-05-03T11:37:00.072Z</time></trkpt><trkpt lat="36.4480072" lon="9.2489042"><ele>388.5</ele><time>2026-05-03T11:37:01.055Z</time></trkpt><trkpt lat="36.4480386" lon="9.248756"><ele>388.0</ele><time>2026-05-03T11:37:02.048Z</time></trkpt><trkpt lat="36.448073" lon="9.248631"><ele>389.1666666666667</ele><time>2026-05-03T11:37:03.049Z</time></trkpt><trkpt lat="36.4481032" lon="9.2485224"><ele>390.33333333333337</ele><time>2026-05-03T11:37:04.051Z</time></trkpt><trkpt lat="36.4481366" lon="9.2484288"><ele>391.5</ele><time>2026-05-03T11:37:05.055Z</time></trkpt><trkpt lat="36.4481584" lon="9.2483497"><ele>392.66666666666663</ele><time>2026-05-03T11:37:06.065Z</time></trkpt><trkpt lat="36.4481765" lon="9.2482713"><ele>393.8333333333333</ele><time>2026-05-03T11:37:07.053Z</time></trkpt><trkpt lat="36.4482042" lon="9.2481332"><ele>395.0</ele><time>2026-05-03T11:37:09.057Z</time></trkpt><trkpt lat="36.4482535" lon="9.2480046"><ele>396.2</ele><time>2026-05-03T11:37:11.057Z</time></trkpt><trkpt lat="36.4482974" lon="9.2478577"><ele>397.4</ele><time>2026-05-03T11:37:13.062Z</time></trkpt><trkpt lat="36.4483174" lon="9.2477703"><ele>398.6</ele><time>2026-05-03T11:37:14.058Z</time></trkpt><trkpt lat="36.4483338" lon="9.2476679"><ele>399.8</ele><time>2026-05-03T11:37:15.066Z</time></trkpt><trkpt lat="36.4483511" lon="9.2475496"><ele>401.0</ele><time>2026-05-03T11:37:16.056Z</time></trkpt><trkpt lat="36.448371" lon="9.2474135"><ele>402.6</ele><time>2026-05-03T11:37:17.061Z</time></trkpt><trkpt lat="36.4483954" lon="9.2472796"><ele>404.20000000000005</ele><time>2026-05-03T11:37:18.063Z</time></trkpt><trkpt lat="36.4484159" lon="9.2471467"><ele>405.79999999999995</ele><time>2026-05-03T11:37:19.028Z</time></trkpt><trkpt lat="36.4484408" lon="9.24702"><ele>407.4</ele><time>2026-05-03T11:37:20.038Z</time></trkpt><trkpt lat="36.4484679" lon="9.2469037"><ele>409.0</ele><time>2026-05-03T11:37:21.039Z</time></trkpt><trkpt lat="36.4484917" lon="9.2468098"><ele>409.0</ele><time>2026-05-03T11:37:22.068Z</time></trkpt><trkpt lat="36.4485247" lon="9.2466857"><ele>409.0</ele><time>2026-05-03T11:37:24.067Z</time></trkpt><trkpt lat="36.4485054" lon="9.246592"><ele>409.0</ele><time>2026-05-03T11:37:27.056Z</time></trkpt><trkpt lat="36.4483891" lon="9.246528"><ele>409.0</ele><time>2026-05-03T11:37:29.048Z</time></trkpt><trkpt lat="36.4483177" lon="9.2465166"><ele>409.0</ele><time>2026-05-03T11:37:30.044Z</time></trkpt><trkpt lat="36.4482399" lon="9.2465206"><ele>409.0</ele><time>2026-05-03T11:37:31.056Z</time></trkpt><trkpt lat="36.4481589" lon="9.2465365"><ele>409.0</ele><time>2026-05-03T11:37:32.064Z</time></trkpt><trkpt lat="36.448077" lon="9.2465665"><ele>409.0</ele><time>2026-05-03T11:37:33.062Z</time></trkpt><trkpt lat="36.4479952" lon="9.2466128"><ele>409.0</ele><time>2026-05-03T11:37:34.067Z</time></trkpt><trkpt lat="36.4479082" lon="9.2466701"><ele>409.0</ele><time>2026-05-03T11:37:35.059Z</time></trkpt><trkpt lat="36.4478157" lon="9.2467355"><ele>409.79999999999995</ele><time>2026-05-03T11:37:36.061Z</time></trkpt><trkpt lat="36.4477302" lon="9.2467919"><ele>410.59999999999997</ele><time>2026-05-03T11:37:37.071Z</time></trkpt><trkpt lat="36.4476445" lon="9.246847"><ele>411.4</ele><time>2026-05-03T11:37:38.058Z</time></trkpt><trkpt lat="36.4475549" lon="9.2469025"><ele>412.2</ele><time>2026-05-03T11:37:39.032Z</time></trkpt><trkpt lat="36.4474644" lon="9.2469577"><ele>413.0</ele><time>2026-05-03T11:37:40.045Z</time></trkpt><trkpt lat="36.4473698" lon="9.24698"><ele>413.0</ele><time>2026-05-03T11:37:41.063Z</time></trkpt><trkpt lat="36.4472601" lon="9.2469803"><ele>413.0</ele><time>2026-05-03T11:37:42.061Z</time></trkpt><trkpt lat="36.4471429" lon="9.2469561"><ele>413.0</ele><time>2026-05-03T11:37:43.058Z</time></trkpt><trkpt lat="36.4470231" lon="9.2469226"><ele>413.0</ele><time>2026-05-03T11:37:44.068Z</time></trkpt><trkpt lat="36.4468994" lon="9.2468821"><ele>413.75</ele><time>2026-05-03T11:37:45.062Z</time></trkpt><trkpt lat="36.446774" lon="9.2468327"><ele>414.5</ele><time>2026-05-03T11:37:46.062Z</time></trkpt><trkpt lat="36.4466525" lon="9.2467773"><ele>415.25</ele><time>2026-05-03T11:37:47.062Z</time></trkpt><trkpt lat="36.4465299" lon="9.2466943"><ele>416.0</ele><time>2026-05-03T11:37:48.05Z</time></trkpt><trkpt lat="36.4464129" lon="9.2466096"><ele>416.0</ele><time>2026-05-03T11:37:49.053Z</time></trkpt><trkpt lat="36.4462995" lon="9.2465139"><ele>416.0</ele><time>2026-05-03T11:37:50.051Z</time></trkpt><trkpt lat="36.4461915" lon="9.2464192"><ele>416.0</ele><time>2026-05-03T11:37:51.055Z</time></trkpt><trkpt lat="36.4460862" lon="9.2463062"><ele>416.0</ele><time>2026-05-03T11:37:52.056Z</time></trkpt><trkpt lat="36.4459851" lon="9.2461754"><ele>417.5</ele><time>2026-05-03T11:37:53.059Z</time></trkpt><trkpt lat="36.4458866" lon="9.246048"><ele>419.0</ele><time>2026-05-03T11:37:54.075Z</time></trkpt><trkpt lat="36.445791" lon="9.24593"><ele>420.5</ele><time>2026-05-03T11:37:55.064Z</time></trkpt><trkpt lat="36.4456797" lon="9.2458259"><ele>422.0</ele><time>2026-05-03T11:37:56.077Z</time></trkpt><trkpt lat="36.4455576" lon="9.2457349"><ele>421.25</ele><time>2026-05-03T11:37:57.072Z</time></trkpt><trkpt lat="36.445422" lon="9.2456609"><ele>420.5</ele><time>2026-05-03T11:37:58.076Z</time></trkpt><trkpt lat="36.4452774" lon="9.2456122"><ele>419.75</ele><time>2026-05-03T11:37:59.056Z</time></trkpt><trkpt lat="36.4451358" lon="9.2455543"><ele>419.0</ele><time>2026-05-03T11:38:00.068Z</time></trkpt><trkpt lat="36.4449884" lon="9.2454984"><ele>420.25</ele><time>2026-05-03T11:38:01.074Z</time></trkpt><trkpt lat="36.4448473" lon="9.2454419"><ele>421.5</ele><time>2026-05-03T11:38:02.069Z</time></trkpt><trkpt lat="36.4447117" lon="9.2453812"><ele>422.75</ele><time>2026-05-03T11:38:03.068Z</time></trkpt><trkpt lat="36.444581" lon="9.2452975"><ele>424.0</ele><time>2026-05-03T11:38:04.056Z</time></trkpt><trkpt lat="36.4444651" lon="9.2451954"><ele>424.0</ele><time>2026-05-03T11:38:05.061Z</time></trkpt><trkpt lat="36.4443572" lon="9.2450654"><ele>424.0</ele><time>2026-05-03T11:38:06.08Z</time></trkpt><trkpt lat="36.4442639" lon="9.2449227"><ele>424.0</ele><time>2026-05-03T11:38:07.056Z</time></trkpt><trkpt lat="36.4441787" lon="9.2447598"><ele>427.0</ele><time>2026-05-03T11:38:08.072Z</time></trkpt><trkpt lat="36.4441103" lon="9.2445853"><ele>430.0</ele><time>2026-05-03T11:38:09.076Z</time></trkpt><trkpt lat="36.444058" lon="9.2444038"><ele>433.0</ele><time>2026-05-03T11:38:10.068Z</time></trkpt><trkpt lat="36.4440095" lon="9.2442158"><ele>433.0</ele><time>2026-05-03T11:38:11.062Z</time></trkpt><trkpt lat="36.4439804" lon="9.2440214"><ele>433.0</ele><time>2026-05-03T11:38:12.07Z</time></trkpt><trkpt lat="36.4439734" lon="9.2438181"><ele>433.0</ele><time>2026-05-03T11:38:13.075Z</time></trkpt><trkpt lat="36.4439679" lon="9.2436229"><ele>434.0</ele><time>2026-05-03T11:38:14.059Z</time></trkpt><trkpt lat="36.4439659" lon="9.2434257"><ele>435.0</ele><time>2026-05-03T11:38:15.064Z</time></trkpt><trkpt lat="36.4439625" lon="9.2432268"><ele>436.0</ele><time>2026-05-03T11:38:16.055Z</time></trkpt><trkpt lat="36.4439604" lon="9.243042"><ele>436.75</ele><time>2026-05-03T11:38:17.071Z</time></trkpt><trkpt lat="36.4439428" lon="9.2428744"><ele>437.5</ele><time>2026-05-03T11:38:18.06Z</time></trkpt><trkpt lat="36.4438927" lon="9.2427243"><ele>438.25</ele><time>2026-05-03T11:38:19.051Z</time></trkpt><trkpt lat="36.4438022" lon="9.2426079"><ele>439.0</ele><time>2026-05-03T11:38:20.071Z</time></trkpt><trkpt lat="36.4436856" lon="9.2425264"><ele>439.0</ele><time>2026-05-03T11:38:21.057Z</time></trkpt><trkpt lat="36.4435596" lon="9.2424655"><ele>439.0</ele><time>2026-05-03T11:38:22.071Z</time></trkpt><trkpt lat="36.4434089" lon="9.2424287"><ele>439.0</ele><time>2026-05-03T11:38:23.055Z</time></trkpt><trkpt lat="36.4432609" lon="9.2424121"><ele>439.0</ele><time>2026-05-03T11:38:24.067Z</time></trkpt><trkpt lat="36.4431117" lon="9.2423969"><ele>439.0</ele><time>2026-05-03T11:38:25.07Z</time></trkpt><trkpt lat="36.4429644" lon="9.2423741"><ele>439.0</ele><time>2026-05-03T11:38:26.07Z</time></trkpt><trkpt lat="36.4428286" lon="9.2423463"><ele>439.0</ele><time>2026-05-03T11:38:27.075Z</time></trkpt><trkpt lat="36.4427052" lon="9.2423003"><ele>439.0</ele><time>2026-05-03T11:38:28.074Z</time></trkpt><trkpt lat="36.4425842" lon="9.2422306"><ele>440.25</ele><time>2026-05-03T11:38:29.042Z</time></trkpt><trkpt lat="36.4424721" lon="9.2421241"><ele>441.5</ele><time>2026-05-03T11:38:30.018Z</time></trkpt><trkpt lat="36.4423798" lon="9.2420002"><ele>442.75</ele><time>2026-05-03T11:38:31.019Z</time></trkpt><trkpt lat="36.4423164" lon="9.2418475"><ele>444.0</ele><time>2026-05-03T11:38:32.052Z</time></trkpt><trkpt lat="36.4422505" lon="9.2416885"><ele>444.0</ele><time>2026-05-03T11:38:33.084Z</time></trkpt><trkpt lat="36.4421825" lon="9.2415349"><ele>444.0</ele><time>2026-05-03T11:38:34.053Z</time></trkpt><trkpt lat="36.4421185" lon="9.2413832"><ele>444.0</ele><time>2026-05-03T11:38:35.066Z</time></trkpt><trkpt lat="36.4420515" lon="9.2412397"><ele>444.0</ele><time>2026-05-03T11:38:36.034Z</time></trkpt><trkpt lat="36.4419865" lon="9.2410949"><ele>443.75</ele><time>2026-05-03T11:38:37.059Z</time></trkpt><trkpt lat="36.4419267" lon="9.240949"><ele>443.5</ele><time>2026-05-03T11:38:38.062Z</time></trkpt><trkpt lat="36.4418658" lon="9.2408063"><ele>443.25</ele><time>2026-05-03T11:38:39.074Z</time></trkpt><trkpt lat="36.4418062" lon="9.240659"><ele>443.0</ele><time>2026-05-03T11:38:40.049Z</time></trkpt><trkpt lat="36.4417379" lon="9.2405139"><ele>445.75</ele><time>2026-05-03T11:38:41.064Z</time></trkpt><trkpt lat="36.4416678" lon="9.2403707"><ele>448.5</ele><time>2026-05-03T11:38:42.066Z</time></trkpt><trkpt lat="36.4416065" lon="9.2402178"><ele>451.25</ele><time>2026-05-03T11:38:43.065Z</time></trkpt><trkpt lat="36.4415628" lon="9.2400486"><ele>454.0</ele><time>2026-05-03T11:38:44.066Z</time></trkpt><trkpt lat="36.4415123" lon="9.2398832"><ele>456.25</ele><time>2026-05-03T11:38:45.043Z</time></trkpt><trkpt lat="36.441453" lon="9.2397238"><ele>458.5</ele><time>2026-05-03T11:38:46.066Z</time></trkpt><trkpt lat="36.4413926" lon="9.2395695"><ele>460.75</ele><time>2026-05-03T11:38:47.061Z</time></trkpt><trkpt lat="36.4413333" lon="9.2394129"><ele>463.0</ele><time>2026-05-03T11:38:48.069Z</time></trkpt><trkpt lat="36.4412831" lon="9.2392549"><ele>459.5</ele><time>2026-05-03T11:38:49.061Z</time></trkpt><trkpt lat="36.4412426" lon="9.239099"><ele>456.0</ele><time>2026-05-03T11:38:50.059Z</time></trkpt><trkpt lat="36.44123" lon="9.2389363"><ele>452.5</ele><time>2026-05-03T11:38:51.057Z</time></trkpt><trkpt lat="36.4412436" lon="9.2387799"><ele>449.0</ele><time>2026-05-03T11:38:52.069Z</time></trkpt><trkpt lat="36.4412782" lon="9.2386099"><ele>453.25</ele><time>2026-05-03T11:38:53.068Z</time></trkpt><trkpt lat="36.4413151" lon="9.2384448"><ele>457.5</ele><time>2026-05-03T11:38:54.064Z</time></trkpt><trkpt lat="36.4413653" lon="9.2382718"><ele>461.75</ele><time>2026-05-03T11:38:55.039Z</time></trkpt><trkpt lat="36.4414212" lon="9.2381002"><ele>466.0</ele><time>2026-05-03T11:38:56.049Z</time></trkpt><trkpt lat="36.4414806" lon="9.2379275"><ele>466.0</ele><time>2026-05-03T11:38:57.039Z</time></trkpt><trkpt lat="36.4415304" lon="9.2377592"><ele>466.0</ele><time>2026-05-03T11:38:58.044Z</time></trkpt><trkpt lat="36.4415597" lon="9.2375915"><ele>466.0</ele><time>2026-05-03T11:38:59.045Z</time></trkpt><trkpt lat="36.4415625" lon="9.2374374"><ele>466.0</ele><time>2026-05-03T11:39:00.05Z</time></trkpt><trkpt lat="36.4415237" lon="9.2372801"><ele>467.0</ele><time>2026-05-03T11:39:01.077Z</time></trkpt><trkpt lat="36.4414743" lon="9.2371478"><ele>468.0</ele><time>2026-05-03T11:39:02.058Z</time></trkpt><trkpt lat="36.4413884" lon="9.2370324"><ele>469.0</ele><time>2026-05-03T11:39:03.064Z</time></trkpt><trkpt lat="36.441295" lon="9.2369451"><ele>470.0</ele><time>2026-05-03T11:39:04.068Z</time></trkpt><trkpt lat="36.4411808" lon="9.2368783"><ele>470.0</ele><time>2026-05-03T11:39:05.052Z</time></trkpt><trkpt lat="36.4410557" lon="9.2368437"><ele>470.0</ele><time>2026-05-03T11:39:06.04Z</time></trkpt><trkpt lat="36.440925" lon="9.2368427"><ele>470.0</ele><time>2026-05-03T11:39:07.055Z</time></trkpt><trkpt lat="36.4407863" lon="9.2368234"><ele>470.0</ele><time>2026-05-03T11:39:08.064Z</time></trkpt><trkpt lat="36.4406564" lon="9.2367846"><ele>470.0</ele><time>2026-05-03T11:39:09.077Z</time></trkpt><trkpt lat="36.440532" lon="9.2366992"><ele>470.0</ele><time>2026-05-03T11:39:10.045Z</time></trkpt><trkpt lat="36.4404307" lon="9.2365869"><ele>470.0</ele><time>2026-05-03T11:39:11.062Z</time></trkpt><trkpt lat="36.4403414" lon="9.236455"><ele>470.0</ele><time>2026-05-03T11:39:12.071Z</time></trkpt><trkpt lat="36.4402587" lon="9.2363193"><ele>470.75</ele><time>2026-05-03T11:39:13.056Z</time></trkpt><trkpt lat="36.4401852" lon="9.2361642"><ele>471.5</ele><time>2026-05-03T11:39:14.083Z</time></trkpt><trkpt lat="36.4401135" lon="9.236005"><ele>472.25</ele><time>2026-05-03T11:39:15.051Z</time></trkpt><trkpt lat="36.4400424" lon="9.2358428"><ele>473.0</ele><time>2026-05-03T11:39:16.074Z</time></trkpt><trkpt lat="36.4399777" lon="9.2356861"><ele>474.5</ele><time>2026-05-03T11:39:17.05Z</time></trkpt><trkpt lat="36.439923" lon="9.2355362"><ele>476.0</ele><time>2026-05-03T11:39:18.083Z</time></trkpt><trkpt lat="36.4398835" lon="9.2353745"><ele>477.5</ele><time>2026-05-03T11:39:19.067Z</time></trkpt><trkpt lat="36.4398679" lon="9.2352041"><ele>479.0</ele><time>2026-05-03T11:39:20.051Z</time></trkpt><trkpt lat="36.4398632" lon="9.2350313"><ele>479.0</ele><time>2026-05-03T11:39:21.055Z</time></trkpt><trkpt lat="36.4398724" lon="9.2348461"><ele>479.0</ele><time>2026-05-03T11:39:22.073Z</time></trkpt><trkpt lat="36.4398892" lon="9.2346632"><ele>479.0</ele><time>2026-05-03T11:39:23.059Z</time></trkpt><trkpt lat="36.4399258" lon="9.2344783"><ele>479.66666666666663</ele><time>2026-05-03T11:39:24.076Z</time></trkpt><trkpt lat="36.4399652" lon="9.2343007"><ele>480.33333333333337</ele><time>2026-05-03T11:39:25.066Z</time></trkpt><trkpt lat="36.4400047" lon="9.2341172"><ele>481.0</ele><time>2026-05-03T11:39:26.05Z</time></trkpt><trkpt lat="36.4400466" lon="9.233928"><ele>481.0</ele><time>2026-05-03T11:39:27.075Z</time></trkpt><trkpt lat="36.4400887" lon="9.2337402"><ele>481.0</ele><time>2026-05-03T11:39:28.066Z</time></trkpt><trkpt lat="36.4401281" lon="9.2335555"><ele>481.0</ele><time>2026-05-03T11:39:29.06Z</time></trkpt><trkpt lat="36.4401725" lon="9.2333782"><ele>481.0</ele><time>2026-05-03T11:39:30.047Z</time></trkpt><trkpt lat="36.4402111" lon="9.2332041"><ele>481.0</ele><time>2026-05-03T11:39:31.046Z</time></trkpt><trkpt lat="36.4402494" lon="9.2330259"><ele>481.0</ele><time>2026-05-03T11:39:32.071Z</time></trkpt><trkpt lat="36.4402862" lon="9.2328512"><ele>481.0</ele><time>2026-05-03T11:39:33.062Z</time></trkpt><trkpt lat="36.440325" lon="9.2326783"><ele>480.75</ele><time>2026-05-03T11:39:34.069Z</time></trkpt><trkpt lat="36.440358" lon="9.2325042"><ele>480.5</ele><time>2026-05-03T11:39:35.064Z</time></trkpt><trkpt lat="36.4403825" lon="9.232329"><ele>480.25</ele><time>2026-05-03T11:39:36.054Z</time></trkpt><trkpt lat="36.4403971" lon="9.2321551"><ele>480.0</ele><time>2026-05-03T11:39:37.057Z</time></trkpt><trkpt lat="36.4403882" lon="9.2319796"><ele>482.5</ele><time>2026-05-03T11:39:38.048Z</time></trkpt><trkpt lat="36.4403456" lon="9.2318228"><ele>485.0</ele><time>2026-05-03T11:39:39.061Z</time></trkpt><trkpt lat="36.4402787" lon="9.2316813"><ele>487.5</ele><time>2026-05-03T11:39:40.063Z</time></trkpt><trkpt lat="36.4401887" lon="9.2315675"><ele>490.0</ele><time>2026-05-03T11:39:41.057Z</time></trkpt><trkpt lat="36.4400989" lon="9.23145"><ele>493.0</ele><time>2026-05-03T11:39:42.051Z</time></trkpt><trkpt lat="36.4400161" lon="9.2313299"><ele>496.0</ele><time>2026-05-03T11:39:43.064Z</time></trkpt><trkpt lat="36.4399468" lon="9.2311988"><ele>499.0</ele><time>2026-05-03T11:39:44.063Z</time></trkpt><trkpt lat="36.4398972" lon="9.2310524"><ele>502.0</ele><time>2026-05-03T11:39:45.046Z</time></trkpt><trkpt lat="36.4398659" lon="9.2308918"><ele>502.0</ele><time>2026-05-03T11:39:46.063Z</time></trkpt><trkpt lat="36.4398276" lon="9.2307236"><ele>502.0</ele><time>2026-05-03T11:39:47.048Z</time></trkpt><trkpt lat="36.4397821" lon="9.2305525"><ele>502.0</ele><time>2026-05-03T11:39:48.024Z</time></trkpt><trkpt lat="36.4397445" lon="9.2303834"><ele>502.0</ele><time>2026-05-03T11:39:49.042Z</time></trkpt><trkpt lat="36.4396995" lon="9.2302156"><ele>503.25</ele><time>2026-05-03T11:39:50.071Z</time></trkpt><trkpt lat="36.4396329" lon="9.230054"><ele>504.5</ele><time>2026-05-03T11:39:51.053Z</time></trkpt><trkpt lat="36.4395497" lon="9.2298934"><ele>505.75</ele><time>2026-05-03T11:39:52.041Z</time></trkpt><trkpt lat="36.4394568" lon="9.2297519"><ele>507.0</ele><time>2026-05-03T11:39:53.048Z</time></trkpt><trkpt lat="36.4393553" lon="9.2296181"><ele>507.0</ele><time>2026-05-03T11:39:54.062Z</time></trkpt><trkpt lat="36.4392579" lon="9.2294821"><ele>507.0</ele><time>2026-05-03T11:39:55.052Z</time></trkpt><trkpt lat="36.4391541" lon="9.2293428"><ele>507.0</ele><time>2026-05-03T11:39:56.052Z</time></trkpt><trkpt lat="36.4390541" lon="9.229213"><ele>507.0</ele><time>2026-05-03T11:39:57.063Z</time></trkpt><trkpt lat="36.4389616" lon="9.2290801"><ele>506.25</ele><time>2026-05-03T11:39:58.062Z</time></trkpt><trkpt lat="36.4388811" lon="9.2289322"><ele>505.5</ele><time>2026-05-03T11:39:59.067Z</time></trkpt><trkpt lat="36.438809" lon="9.2287813"><ele>504.75</ele><time>2026-05-03T11:40:00.055Z</time></trkpt><trkpt lat="36.4387589" lon="9.2286088"><ele>504.0</ele><time>2026-05-03T11:40:01.061Z</time></trkpt><trkpt lat="36.4387309" lon="9.2284251"><ele>504.0</ele><time>2026-05-03T11:40:02.073Z</time></trkpt><trkpt lat="36.4387" lon="9.2282481"><ele>504.0</ele><time>2026-05-03T11:40:03.068Z</time></trkpt><trkpt lat="36.4386693" lon="9.2280689"><ele>504.0</ele><time>2026-05-03T11:40:04.07Z</time></trkpt><trkpt lat="36.4386383" lon="9.2278892"><ele>504.0</ele><time>2026-05-03T11:40:05.057Z</time></trkpt><trkpt lat="36.4386304" lon="9.2277214"><ele>504.0</ele><time>2026-05-03T11:40:06.069Z</time></trkpt><trkpt lat="36.4386545" lon="9.2275602"><ele>504.0</ele><time>2026-05-03T11:40:07.031Z</time></trkpt><trkpt lat="36.4387001" lon="9.2274094"><ele>504.0</ele><time>2026-05-03T11:40:08.056Z</time></trkpt><trkpt lat="36.4387695" lon="9.2272577"><ele>504.0</ele><time>2026-05-03T11:40:09.026Z</time></trkpt><trkpt lat="36.4388536" lon="9.2271218"><ele>507.75</ele><time>2026-05-03T11:40:10.07Z</time></trkpt><trkpt lat="36.4389467" lon="9.2269983"><ele>511.5</ele><time>2026-05-03T11:40:11.063Z</time></trkpt><trkpt lat="36.439046" lon="9.226856"><ele>515.25</ele><time>2026-05-03T11:40:12.077Z</time></trkpt><trkpt lat="36.43914" lon="9.2267076"><ele>519.0</ele><time>2026-05-03T11:40:13.059Z</time></trkpt><trkpt lat="36.4392324" lon="9.2265631"><ele>518.5</ele><time>2026-05-03T11:40:14.051Z</time></trkpt><trkpt lat="36.4393164" lon="9.2264214"><ele>518.0</ele><time>2026-05-03T11:40:15.069Z</time></trkpt><trkpt lat="36.4393988" lon="9.226277"><ele>517.5</ele><time>2026-05-03T11:40:16.05Z</time></trkpt><trkpt lat="36.43947" lon="9.2261294"><ele>517.0</ele><time>2026-05-03T11:40:17.047Z</time></trkpt><trkpt lat="36.4395294" lon="9.2259728"><ele>517.0</ele><time>2026-05-03T11:40:18.061Z</time></trkpt><trkpt lat="36.4395775" lon="9.2258147"><ele>517.0</ele><time>2026-05-03T11:40:19.051Z</time></trkpt><trkpt lat="36.4396135" lon="9.2256552"><ele>517.0</ele><time>2026-05-03T11:40:20.081Z</time></trkpt><trkpt lat="36.4396521" lon="9.225487"><ele>517.0</ele><time>2026-05-03T11:40:21.071Z</time></trkpt><trkpt lat="36.4396895" lon="9.2253173"><ele>520.75</ele><time>2026-05-03T11:40:22.046Z</time></trkpt><trkpt lat="36.4397218" lon="9.2251508"><ele>524.5</ele><time>2026-05-03T11:40:23.051Z</time></trkpt><trkpt lat="36.4397548" lon="9.2249749"><ele>528.25</ele><time>2026-05-03T11:40:24.039Z</time></trkpt><trkpt lat="36.4397914" lon="9.2247986"><ele>532.0</ele><time>2026-05-03T11:40:25.06Z</time></trkpt><trkpt lat="36.4398284" lon="9.2246159"><ele>532.0</ele><time>2026-05-03T11:40:26.036Z</time></trkpt><trkpt lat="36.4398649" lon="9.2244419"><ele>532.0</ele><time>2026-05-03T11:40:27.024Z</time></trkpt><trkpt lat="36.4398918" lon="9.2242611"><ele>532.0</ele><time>2026-05-03T11:40:28.019Z</time></trkpt><trkpt lat="36.4399096" lon="9.2240851"><ele>532.0</ele><time>2026-05-03T11:40:29.053Z</time></trkpt><trkpt lat="36.439901" lon="9.2239141"><ele>530.5</ele><time>2026-05-03T11:40:30.047Z</time></trkpt><trkpt lat="36.4397094" lon="9.2234595"><ele>529.0</ele><time>2026-05-03T11:40:33.06Z</time></trkpt><trkpt lat="36.4396148" lon="9.2233015"><ele>531.3333333333334</ele><time>2026-05-03T11:40:34.07Z</time></trkpt><trkpt lat="36.4395192" lon="9.2231456"><ele>533.6666666666666</ele><time>2026-05-03T11:40:35.031Z</time></trkpt><trkpt lat="36.4394298" lon="9.2229883"><ele>536.0</ele><time>2026-05-03T11:40:36.035Z</time></trkpt><trkpt lat="36.4393579" lon="9.2228314"><ele>536.0</ele><time>2026-05-03T11:40:37.016Z</time></trkpt><trkpt lat="36.4392998" lon="9.2226669"><ele>536.0</ele><time>2026-05-03T11:40:38.056Z</time></trkpt><trkpt lat="36.4392408" lon="9.2224988"><ele>536.0</ele><time>2026-05-03T11:40:39.019Z</time></trkpt><trkpt lat="36.4391908" lon="9.2223378"><ele>536.0</ele><time>2026-05-03T11:40:40.015Z</time></trkpt><trkpt lat="36.4391351" lon="9.2221729"><ele>538.75</ele><time>2026-05-03T11:40:41.016Z</time></trkpt><trkpt lat="36.4390771" lon="9.2220088"><ele>541.5</ele><time>2026-05-03T11:40:42.02Z</time></trkpt><trkpt lat="36.4390088" lon="9.2218519"><ele>544.25</ele><time>2026-05-03T11:40:43.036Z</time></trkpt><trkpt lat="36.438934" lon="9.2216961"><ele>547.0</ele><time>2026-05-03T11:40:44.021Z</time></trkpt><trkpt lat="36.4388485" lon="9.2215441"><ele>547.5</ele><time>2026-05-03T11:40:45.037Z</time></trkpt><trkpt lat="36.4387663" lon="9.2214066"><ele>548.0</ele><time>2026-05-03T11:40:46.053Z</time></trkpt><trkpt lat="36.4386806" lon="9.2212625"><ele>548.5</ele><time>2026-05-03T11:40:47.041Z</time></trkpt><trkpt lat="36.4385923" lon="9.2211191"><ele>549.0</ele><time>2026-05-03T11:40:48.077Z</time></trkpt><trkpt lat="36.4384999" lon="9.2209875"><ele>549.0</ele><time>2026-05-03T11:40:49.06Z</time></trkpt><trkpt lat="36.4383952" lon="9.2208586"><ele>549.0</ele><time>2026-05-03T11:40:50.082Z</time></trkpt><trkpt lat="36.438292" lon="9.2207448"><ele>549.0</ele><time>2026-05-03T11:40:51.035Z</time></trkpt><trkpt lat="36.4381866" lon="9.2206384"><ele>549.0</ele><time>2026-05-03T11:40:52.083Z</time></trkpt><trkpt lat="36.4380854" lon="9.2205379"><ele>550.0</ele><time>2026-05-03T11:40:53.061Z</time></trkpt><trkpt lat="36.4379856" lon="9.2204431"><ele>551.0</ele><time>2026-05-03T11:40:54.066Z</time></trkpt><trkpt lat="36.4378853" lon="9.2203591"><ele>552.0</ele><time>2026-05-03T11:40:55.067Z</time></trkpt><trkpt lat="36.4377866" lon="9.2202746"><ele>553.0</ele><time>2026-05-03T11:40:56.071Z</time></trkpt><trkpt lat="36.4376904" lon="9.2201899"><ele>553.0</ele><time>2026-05-03T11:40:57.056Z</time></trkpt><trkpt lat="36.4376026" lon="9.2200904"><ele>553.0</ele><time>2026-05-03T11:40:58.063Z</time></trkpt><trkpt lat="36.4375181" lon="9.2199757"><ele>553.0</ele><time>2026-05-03T11:40:59.056Z</time></trkpt><trkpt lat="36.4374489" lon="9.2198519"><ele>553.0</ele><time>2026-05-03T11:41:00.066Z</time></trkpt><trkpt lat="36.437389" lon="9.2197207"><ele>554.8</ele><time>2026-05-03T11:41:01.061Z</time></trkpt><trkpt lat="36.4373409" lon="9.2195906"><ele>556.5999999999999</ele><time>2026-05-03T11:41:02.063Z</time></trkpt><trkpt lat="36.4373188" lon="9.2194613"><ele>558.4000000000001</ele><time>2026-05-03T11:41:03.044Z</time></trkpt><trkpt lat="36.437304" lon="9.2193422"><ele>560.2</ele><time>2026-05-03T11:41:04.078Z</time></trkpt><trkpt lat="36.4372838" lon="9.2192478"><ele>562.0</ele><time>2026-05-03T11:41:05.067Z</time></trkpt><trkpt lat="36.4372079" lon="9.2191296"><ele>562.0</ele><time>2026-05-03T11:41:07.044Z</time></trkpt><trkpt lat="36.4371369" lon="9.2190965"><ele>562.0</ele><time>2026-05-03T11:41:08.062Z</time></trkpt><trkpt lat="36.4370538" lon="9.2190561"><ele>562.0</ele><time>2026-05-03T11:41:09.064Z</time></trkpt><trkpt lat="36.436971" lon="9.2189952"><ele>562.0</ele><time>2026-05-03T11:41:10.085Z</time></trkpt><trkpt lat="36.4368883" lon="9.2189069"><ele>562.0</ele><time>2026-05-03T11:41:11.026Z</time></trkpt><trkpt lat="36.4368081" lon="9.2188091"><ele>561.0</ele><time>2026-05-03T11:41:12.046Z</time></trkpt><trkpt lat="36.4367271" lon="9.2186909"><ele>560.0</ele><time>2026-05-03T11:41:13.066Z</time></trkpt><trkpt lat="36.4366475" lon="9.2185526"><ele>559.0</ele><time>2026-05-03T11:41:14.052Z</time></trkpt><trkpt lat="36.4365558" lon="9.2183844"><ele>558.0</ele><time>2026-05-03T11:41:15.04Z</time></trkpt><trkpt lat="36.4364488" lon="9.2182044"><ele>560.0</ele><time>2026-05-03T11:41:16.041Z</time></trkpt><trkpt lat="36.4363547" lon="9.2180251"><ele>562.0</ele><time>2026-05-03T11:41:17.041Z</time></trkpt><trkpt lat="36.4362646" lon="9.2178615"><ele>564.0</ele><time>2026-05-03T11:41:18.077Z</time></trkpt><trkpt lat="36.4361813" lon="9.2177068"><ele>562.6666666666666</ele><time>2026-05-03T11:41:19.074Z</time></trkpt><trkpt lat="36.4360998" lon="9.2175566"><ele>561.3333333333333</ele><time>2026-05-03T11:41:20.079Z</time></trkpt><trkpt lat="36.43601" lon="9.2174042"><ele>560.0</ele><time>2026-05-03T11:41:21.049Z</time></trkpt><trkpt lat="36.4359179" lon="9.2172493"><ele>560.0</ele><time>2026-05-03T11:41:22.059Z</time></trkpt><trkpt lat="36.4358197" lon="9.2171011"><ele>560.0</ele><time>2026-05-03T11:41:23.065Z</time></trkpt><trkpt lat="36.4357152" lon="9.216957"><ele>560.0</ele><time>2026-05-03T11:41:24.073Z</time></trkpt><trkpt lat="36.4355989" lon="9.2168366"><ele>559.0</ele><time>2026-05-03T11:41:25.063Z</time></trkpt><trkpt lat="36.4354599" lon="9.2167363"><ele>558.0</ele><time>2026-05-03T11:41:26.073Z</time></trkpt><trkpt lat="36.4353153" lon="9.2166522"><ele>557.0</ele><time>2026-05-03T11:41:27.069Z</time></trkpt><trkpt lat="36.4351495" lon="9.2166064"><ele>557.0</ele><time>2026-05-03T11:41:28.047Z</time></trkpt><trkpt lat="36.434981" lon="9.2165758"><ele>557.0</ele><time>2026-05-03T11:41:29.06Z</time></trkpt><trkpt lat="36.4348323" lon="9.2165482"><ele>557.0</ele><time>2026-05-03T11:41:30.057Z</time></trkpt><trkpt lat="36.4346896" lon="9.2165213"><ele>558.3333333333333</ele><time>2026-05-03T11:41:31.068Z</time></trkpt><trkpt lat="36.4345399" lon="9.2164982"><ele>559.6666666666666</ele><time>2026-05-03T11:41:32.068Z</time></trkpt><trkpt lat="36.4343891" lon="9.2164684"><ele>561.0</ele><time>2026-05-03T11:41:33.064Z</time></trkpt><trkpt lat="36.4342346" lon="9.2164293"><ele>561.0</ele><time>2026-05-03T11:41:34.055Z</time></trkpt><trkpt lat="36.4340957" lon="9.2163825"><ele>561.0</ele><time>2026-05-03T11:41:35.062Z</time></trkpt><trkpt lat="36.4339599" lon="9.2163168"><ele>561.0</ele><time>2026-05-03T11:41:36.068Z</time></trkpt><trkpt lat="36.4338217" lon="9.2162107"><ele>558.0</ele><time>2026-05-03T11:41:37.062Z</time></trkpt><trkpt lat="36.4336951" lon="9.2160739"><ele>555.0</ele><time>2026-05-03T11:41:38.062Z</time></trkpt><trkpt lat="36.4335674" lon="9.2159415"><ele>552.0</ele><time>2026-05-03T11:41:39.067Z</time></trkpt><trkpt lat="36.4334437" lon="9.2158155"><ele>552.0</ele><time>2026-05-03T11:41:40.039Z</time></trkpt><trkpt lat="36.4333195" lon="9.2157"><ele>552.0</ele><time>2026-05-03T11:41:41.044Z</time></trkpt><trkpt lat="36.4332023" lon="9.2155863"><ele>552.0</ele><time>2026-05-03T11:41:42.077Z</time></trkpt><trkpt lat="36.4330863" lon="9.2154665"><ele>553.0</ele><time>2026-05-03T11:41:43.05Z</time></trkpt><trkpt lat="36.4329678" lon="9.2153523"><ele>554.0</ele><time>2026-05-03T11:41:44.041Z</time></trkpt><trkpt lat="36.4328545" lon="9.2152315"><ele>555.0</ele><time>2026-05-03T11:41:45.055Z</time></trkpt><trkpt lat="36.432741" lon="9.2151125"><ele>556.0</ele><time>2026-05-03T11:41:46.071Z</time></trkpt><trkpt lat="36.43263" lon="9.2149996"><ele>556.0</ele><time>2026-05-03T11:41:47.061Z</time></trkpt><trkpt lat="36.4325144" lon="9.2148939"><ele>556.0</ele><time>2026-05-03T11:41:48.07Z</time></trkpt><trkpt lat="36.4323968" lon="9.2147844"><ele>556.0</ele><time>2026-05-03T11:41:49.039Z</time></trkpt><trkpt lat="36.4322733" lon="9.214673"><ele>556.0</ele><time>2026-05-03T11:41:50.089Z</time></trkpt><trkpt lat="36.4321506" lon="9.214559"><ele>556.0</ele><time>2026-05-03T11:41:51.068Z</time></trkpt><trkpt lat="36.4320265" lon="9.2144378"><ele>556.0</ele><time>2026-05-03T11:41:52.062Z</time></trkpt><trkpt lat="36.4319058" lon="9.214311"><ele>556.0</ele><time>2026-05-03T11:41:53.074Z</time></trkpt><trkpt lat="36.4317817" lon="9.2141864"><ele>556.0</ele><time>2026-05-03T11:41:54.082Z</time></trkpt><trkpt lat="36.4316575" lon="9.2140626"><ele>556.0</ele><time>2026-05-03T11:41:55.087Z</time></trkpt><trkpt lat="36.4315418" lon="9.2139404"><ele>556.0</ele><time>2026-05-03T11:41:56.078Z</time></trkpt><trkpt lat="36.431427" lon="9.2138317"><ele>556.75</ele><time>2026-05-03T11:41:57.077Z</time></trkpt><trkpt lat="36.4313216" lon="9.2137336"><ele>557.5</ele><time>2026-05-03T11:41:58.066Z</time></trkpt><trkpt lat="36.4312141" lon="9.2136405"><ele>558.25</ele><time>2026-05-03T11:41:59.072Z</time></trkpt><trkpt lat="36.431101" lon="9.2135605"><ele>559.0</ele><time>2026-05-03T11:42:00.062Z</time></trkpt><trkpt lat="36.4309807" lon="9.2135072"><ele>557.25</ele><time>2026-05-03T11:42:01.029Z</time></trkpt><trkpt lat="36.4308525" lon="9.213477"><ele>555.5</ele><time>2026-05-03T11:42:02.062Z</time></trkpt><trkpt lat="36.4307256" lon="9.2134665"><ele>553.75</ele><time>2026-05-03T11:42:03.05Z</time></trkpt><trkpt lat="36.4305969" lon="9.213478"><ele>552.0</ele><time>2026-05-03T11:42:04.06Z</time></trkpt><trkpt lat="36.430469" lon="9.2135098"><ele>551.75</ele><time>2026-05-03T11:42:05.039Z</time></trkpt><trkpt lat="36.4303463" lon="9.2135628"><ele>551.5</ele><time>2026-05-03T11:42:06.063Z</time></trkpt><trkpt lat="36.4302251" lon="9.2136344"><ele>551.25</ele><time>2026-05-03T11:42:07.079Z</time></trkpt><trkpt lat="36.4301148" lon="9.2137243"><ele>551.0</ele><time>2026-05-03T11:42:08.026Z</time></trkpt><trkpt lat="36.4300228" lon="9.2138499"><ele>551.3333333333333</ele><time>2026-05-03T11:42:09.035Z</time></trkpt><trkpt lat="36.4299464" lon="9.2140027"><ele>551.6666666666666</ele><time>2026-05-03T11:42:10.049Z</time></trkpt><trkpt lat="36.4298728" lon="9.2141777"><ele>552.0</ele><time>2026-05-03T11:42:11.052Z</time></trkpt><trkpt lat="36.4298037" lon="9.2143751"><ele>552.0</ele><time>2026-05-03T11:42:12.066Z</time></trkpt><trkpt lat="36.4297296" lon="9.2145776"><ele>552.0</ele><time>2026-05-03T11:42:13.078Z</time></trkpt><trkpt lat="36.4296481" lon="9.2147863"><ele>552.0</ele><time>2026-05-03T11:42:14.037Z</time></trkpt><trkpt lat="36.4295725" lon="9.2149978"><ele>553.3333333333334</ele><time>2026-05-03T11:42:15.04Z</time></trkpt><trkpt lat="36.4294955" lon="9.2152075"><ele>554.6666666666667</ele><time>2026-05-03T11:42:16.076Z</time></trkpt><trkpt lat="36.4294169" lon="9.2154156"><ele>556.0</ele><time>2026-05-03T11:42:17.076Z</time></trkpt><trkpt lat="36.429335" lon="9.2156186"><ele>555.3333333333334</ele><time>2026-05-03T11:42:18.044Z</time></trkpt><trkpt lat="36.429256" lon="9.2158248"><ele>554.6666666666666</ele><time>2026-05-03T11:42:19.063Z</time></trkpt><trkpt lat="36.4291767" lon="9.2160285"><ele>554.0</ele><time>2026-05-03T11:42:20.048Z</time></trkpt><trkpt lat="36.4291" lon="9.2162301"><ele>554.0</ele><time>2026-05-03T11:42:21.074Z</time></trkpt><trkpt lat="36.4290251" lon="9.2164282"><ele>554.0</ele><time>2026-05-03T11:42:22.072Z</time></trkpt><trkpt lat="36.4289568" lon="9.2166164"><ele>554.0</ele><time>2026-05-03T11:42:23.074Z</time></trkpt><trkpt lat="36.4288883" lon="9.2168048"><ele>553.75</ele><time>2026-05-03T11:42:24.077Z</time></trkpt><trkpt lat="36.428822" lon="9.2169711"><ele>553.5</ele><time>2026-05-03T11:42:25.078Z</time></trkpt><trkpt lat="36.4287475" lon="9.2171169"><ele>553.25</ele><time>2026-05-03T11:42:26.074Z</time></trkpt><trkpt lat="36.4286616" lon="9.217245"><ele>553.0</ele><time>2026-05-03T11:42:27.054Z</time></trkpt><trkpt lat="36.4285503" lon="9.2173648"><ele>553.75</ele><time>2026-05-03T11:42:28.032Z</time></trkpt><trkpt lat="36.4284326" lon="9.2174722"><ele>554.5</ele><time>2026-05-03T11:42:29.026Z</time></trkpt><trkpt lat="36.4283135" lon="9.2175862"><ele>555.25</ele><time>2026-05-03T11:42:30.079Z</time></trkpt><trkpt lat="36.4281997" lon="9.2177109"><ele>556.0</ele><time>2026-05-03T11:42:31.073Z</time></trkpt><trkpt lat="36.4280824" lon="9.2178326"><ele>558.6666666666667</ele><time>2026-05-03T11:42:32.05Z</time></trkpt><trkpt lat="36.4279614" lon="9.2179573"><ele>561.3333333333334</ele><time>2026-05-03T11:42:33.036Z</time></trkpt><trkpt lat="36.4278407" lon="9.2180833"><ele>564.0</ele><time>2026-05-03T11:42:34.065Z</time></trkpt><trkpt lat="36.4277231" lon="9.2182016"><ele>564.0</ele><time>2026-05-03T11:42:35.068Z</time></trkpt><trkpt lat="36.4276045" lon="9.218323"><ele>564.0</ele><time>2026-05-03T11:42:36.067Z</time></trkpt><trkpt lat="36.4274786" lon="9.2184557"><ele>564.0</ele><time>2026-05-03T11:42:37.025Z</time></trkpt><trkpt lat="36.4273681" lon="9.2186115"><ele>564.0</ele><time>2026-05-03T11:42:38.055Z</time></trkpt><trkpt lat="36.4272774" lon="9.2188055"><ele>564.0</ele><time>2026-05-03T11:42:39.035Z</time></trkpt><trkpt lat="36.4272018" lon="9.2190191"><ele>564.0</ele><time>2026-05-03T11:42:40.066Z</time></trkpt><trkpt lat="36.4271416" lon="9.2192571"><ele>564.3333333333334</ele><time>2026-05-03T11:42:41.036Z</time></trkpt><trkpt lat="36.4270891" lon="9.2194785"><ele>564.6666666666667</ele><time>2026-05-03T11:42:42.059Z</time></trkpt><trkpt lat="36.4270527" lon="9.219678"><ele>565.0</ele><time>2026-05-03T11:42:43.023Z</time></trkpt><trkpt lat="36.4270166" lon="9.2198583"><ele>565.0</ele><time>2026-05-03T11:42:44.063Z</time></trkpt><trkpt lat="36.4269771" lon="9.2200056"><ele>565.0</ele><time>2026-05-03T11:42:45.057Z</time></trkpt><trkpt lat="36.4269244" lon="9.2201293"><ele>565.0</ele><time>2026-05-03T11:42:46.065Z</time></trkpt><trkpt lat="36.42687" lon="9.2202284"><ele>565.0</ele><time>2026-05-03T11:42:47.06Z</time></trkpt><trkpt lat="36.4268228" lon="9.2202951"><ele>565.0</ele><time>2026-05-03T11:42:48.08Z</time></trkpt><trkpt lat="36.4267358" lon="9.2203944"><ele>565.0</ele><time>2026-05-03T11:42:50.015Z</time></trkpt><trkpt lat="36.426663" lon="9.2204857"><ele>565.0</ele><time>2026-05-03T11:42:52.043Z</time></trkpt><trkpt lat="36.4265884" lon="9.2206072"><ele>565.0</ele><time>2026-05-03T11:42:54.022Z</time></trkpt><trkpt lat="36.4265336" lon="9.2206646"><ele>565.0</ele><time>2026-05-03T11:42:55.026Z</time></trkpt><trkpt lat="36.4264855" lon="9.220724"><ele>565.0</ele><time>2026-05-03T11:42:56.024Z</time></trkpt><trkpt lat="36.4264335" lon="9.2207889"><ele>565.0</ele><time>2026-05-03T11:42:57.076Z</time></trkpt><trkpt lat="36.4263846" lon="9.2208489"><ele>564.4285714285713</ele><time>2026-05-03T11:42:58.074Z</time></trkpt><trkpt lat="36.4263306" lon="9.2209045"><ele>563.8571428571429</ele><time>2026-05-03T11:42:59.064Z</time></trkpt><trkpt lat="36.4262857" lon="9.2209649"><ele>563.2857142857142</ele><time>2026-05-03T11:43:00.079Z</time></trkpt><trkpt lat="36.4262407" lon="9.2210284"><ele>562.7142857142857</ele><time>2026-05-03T11:43:01.057Z</time></trkpt><trkpt lat="36.4261927" lon="9.2210852"><ele>562.1428571428571</ele><time>2026-05-03T11:43:02.071Z</time></trkpt><trkpt lat="36.4261394" lon="9.2211457"><ele>561.5714285714286</ele><time>2026-05-03T11:43:03.077Z</time></trkpt><trkpt lat="36.4260922" lon="9.2212059"><ele>561.0</ele><time>2026-05-03T11:43:04.074Z</time></trkpt><trkpt lat="36.4260392" lon="9.2212624"><ele>561.3333333333334</ele><time>2026-05-03T11:43:05.067Z</time></trkpt><trkpt lat="36.4259822" lon="9.2213162"><ele>561.6666666666666</ele><time>2026-05-03T11:43:06.077Z</time></trkpt><trkpt lat="36.425918" lon="9.2213746"><ele>562.0</ele><time>2026-05-03T11:43:07.059Z</time></trkpt><trkpt lat="36.4258494" lon="9.2214286"><ele>562.3333333333333</ele><time>2026-05-03T11:43:08.045Z</time></trkpt><trkpt lat="36.4257827" lon="9.2214731"><ele>562.6666666666666</ele><time>2026-05-03T11:43:09.063Z</time></trkpt><trkpt lat="36.4257118" lon="9.2215023"><ele>563.0</ele><time>2026-05-03T11:43:10.081Z</time></trkpt><trkpt lat="36.4256415" lon="9.221527"><ele>563.0</ele><time>2026-05-03T11:43:11.072Z</time></trkpt><trkpt lat="36.4255702" lon="9.2215462"><ele>563.0</ele><time>2026-05-03T11:43:12.079Z</time></trkpt><trkpt lat="36.4254992" lon="9.2215548"><ele>563.0</ele><time>2026-05-03T11:43:13.07Z</time></trkpt><trkpt lat="36.4254339" lon="9.2215606"><ele>563.0</ele><time>2026-05-03T11:43:14.061Z</time></trkpt><trkpt lat="36.425368" lon="9.2215498"><ele>563.0</ele><time>2026-05-03T11:43:15.065Z</time></trkpt><trkpt lat="36.4253023" lon="9.2215404"><ele>563.0</ele><time>2026-05-03T11:43:16.068Z</time></trkpt><trkpt lat="36.4252403" lon="9.221525"><ele>563.0</ele><time>2026-05-03T11:43:17.065Z</time></trkpt><trkpt lat="36.4251366" lon="9.2214952"><ele>565.2857142857142</ele><time>2026-05-03T11:43:19.059Z</time></trkpt><trkpt lat="36.4250513" lon="9.2214498"><ele>567.5714285714286</ele><time>2026-05-03T11:43:21.07Z</time></trkpt><trkpt lat="36.4249771" lon="9.2214007"><ele>569.8571428571429</ele><time>2026-05-03T11:43:23.073Z</time></trkpt><trkpt lat="36.4249209" lon="9.2213613"><ele>572.1428571428571</ele><time>2026-05-03T11:43:26.043Z</time></trkpt><trkpt lat="36.4248642" lon="9.2213204"><ele>574.4285714285714</ele><time>2026-05-03T11:44:59.04Z</time></trkpt><trkpt lat="36.4248023" lon="9.2212872"><ele>576.7142857142857</ele><time>2026-05-03T11:45:03.056Z</time></trkpt><trkpt lat="36.4248525" lon="9.2213393"><ele>579.0</ele><time>2026-05-03T11:45:07.046Z</time></trkpt><trkpt lat="36.4249145" lon="9.2213707"><ele>579.0</ele><time>2026-05-03T11:45:09.061Z</time></trkpt><trkpt lat="36.4249871" lon="9.2214261"><ele>579.0</ele><time>2026-05-03T11:45:12.055Z</time></trkpt><trkpt lat="36.4250631" lon="9.2214715"><ele>579.0</ele><time>2026-05-03T11:45:15.067Z</time></trkpt><trkpt lat="36.4251409" lon="9.2215042"><ele>579.0</ele><time>2026-05-03T11:45:29.066Z</time></trkpt><trkpt lat="36.4252484" lon="9.2215324"><ele>579.0</ele><time>2026-05-03T11:45:31.043Z</time></trkpt><trkpt lat="36.4253334" lon="9.2215434"><ele>579.0</ele><time>2026-05-03T11:45:32.074Z</time></trkpt><trkpt lat="36.4254247" lon="9.2215582"><ele>578.1666666666666</ele><time>2026-05-03T11:45:33.051Z</time></trkpt><trkpt lat="36.4255193" lon="9.2215565"><ele>577.3333333333334</ele><time>2026-05-03T11:45:34.056Z</time></trkpt><trkpt lat="36.4256068" lon="9.2215417"><ele>576.5</ele><time>2026-05-03T11:45:35.062Z</time></trkpt><trkpt lat="36.4256902" lon="9.2215203"><ele>575.6666666666667</ele><time>2026-05-03T11:45:36.067Z</time></trkpt><trkpt lat="36.4257762" lon="9.221483"><ele>574.8333333333334</ele><time>2026-05-03T11:45:37.058Z</time></trkpt><trkpt lat="36.4258552" lon="9.2214359"><ele>574.0</ele><time>2026-05-03T11:45:38.067Z</time></trkpt><trkpt lat="36.4259242" lon="9.2213794"><ele>574.0</ele><time>2026-05-03T11:45:39.072Z</time></trkpt><trkpt lat="36.4259859" lon="9.2213357"><ele>574.0</ele><time>2026-05-03T11:45:40.041Z</time></trkpt><trkpt lat="36.4260613" lon="9.2212542"><ele>574.0</ele><time>2026-05-03T11:45:42.042Z</time></trkpt><trkpt lat="36.426087" lon="9.2211749"><ele>574.0</ele><time>2026-05-03T11:45:57.04Z</time></trkpt><trkpt lat="36.4260638" lon="9.2212558"><ele>574.0</ele><time>2026-05-03T11:46:10.051Z</time></trkpt><trkpt lat="36.425947" lon="9.2213475"><ele>574.0</ele><time>2026-05-03T11:46:12.082Z</time></trkpt><trkpt lat="36.4258819" lon="9.2214076"><ele>574.0</ele><time>2026-05-03T11:46:13.062Z</time></trkpt><trkpt lat="36.4258137" lon="9.2214573"><ele>574.0</ele><time>2026-05-03T11:46:14.063Z</time></trkpt><trkpt lat="36.4257305" lon="9.2215023"><ele>574.0</ele><time>2026-05-03T11:46:15.068Z</time></trkpt><trkpt lat="36.4256466" lon="9.2215314"><ele>574.0</ele><time>2026-05-03T11:46:16.069Z</time></trkpt><trkpt lat="36.4255617" lon="9.2215537"><ele>574.0</ele><time>2026-05-03T11:46:17.058Z</time></trkpt><trkpt lat="36.425477" lon="9.2215582"><ele>574.0</ele><time>2026-05-03T11:46:18.078Z</time></trkpt><trkpt lat="36.4253875" lon="9.2215558"><ele>574.7142857142857</ele><time>2026-05-03T11:46:19.064Z</time></trkpt><trkpt lat="36.4253051" lon="9.2215435"><ele>575.4285714285714</ele><time>2026-05-03T11:46:20.057Z</time></trkpt><trkpt lat="36.4252326" lon="9.221526"><ele>576.1428571428571</ele><time>2026-05-03T11:46:21.055Z</time></trkpt><trkpt lat="36.4251661" lon="9.2215068"><ele>576.8571428571429</ele><time>2026-05-03T11:46:22.044Z</time></trkpt><trkpt lat="36.4250886" lon="9.2214797"><ele>577.5714285714286</ele><time>2026-05-03T11:46:24.082Z</time></trkpt><trkpt lat="36.4250276" lon="9.2214577"><ele>578.2857142857142</ele><time>2026-05-03T11:46:28.069Z</time></trkpt><trkpt lat="36.4249551" lon="9.2214784"><ele>579.0</ele><time>2026-05-03T11:51:02.083Z</time></trkpt><trkpt lat="36.4250181" lon="9.2214524"><ele>578.9999999999999</ele><time>2026-05-03T11:51:53.027Z</time></trkpt><trkpt lat="36.4249802" lon="9.2213898"><ele>579.0</ele><time>2026-05-03T11:53:26.048Z</time></trkpt><trkpt lat="36.4249336" lon="9.2213311"><ele>579.0</ele><time>2026-05-03T11:53:32.073Z</time></trkpt><trkpt lat="36.42488" lon="9.2212772"><ele>579.0</ele><time>2026-05-03T11:53:39.073Z</time></trkpt><trkpt lat="36.424815" lon="9.2212285"><ele>579.0</ele><time>2026-05-03T11:53:45.067Z</time></trkpt><trkpt lat="36.4247477" lon="9.2211861"><ele>578.9999999999999</ele><time>2026-05-03T11:53:50.053Z</time></trkpt><trkpt lat="36.4246761" lon="9.221178"><ele>579.0</ele><time>2026-05-03T11:53:57.074Z</time></trkpt><trkpt lat="36.4246108" lon="9.221152"><ele>578.2857142857142</ele><time>2026-05-03T11:54:03.041Z</time></trkpt><trkpt lat="36.4245392" lon="9.2211297"><ele>577.5714285714286</ele><time>2026-05-03T11:54:07.024Z</time></trkpt><trkpt lat="36.4244735" lon="9.2211208"><ele>576.8571428571429</ele><time>2026-05-03T11:54:10.051Z</time></trkpt><trkpt lat="36.424419" lon="9.2210806"><ele>576.1428571428571</ele><time>2026-05-03T11:54:15.08Z</time></trkpt><trkpt lat="36.4244718" lon="9.221028"><ele>575.4285714285714</ele><time>2026-05-03T11:54:35.072Z</time></trkpt><trkpt lat="36.4244062" lon="9.2210199"><ele>574.7142857142857</ele><time>2026-05-03T11:55:22.081Z</time></trkpt><trkpt lat="36.4243343" lon="9.2209898"><ele>574.0</ele><time>2026-05-03T11:55:29.059Z</time></trkpt><trkpt lat="36.424272" lon="9.2209549"><ele>574.0</ele><time>2026-05-03T11:55:34.091Z</time></trkpt><trkpt lat="36.4242128" lon="9.2209156"><ele>574.0</ele><time>2026-05-03T11:55:40.066Z</time></trkpt><trkpt lat="36.4241546" lon="9.2208844"><ele>574.0</ele><time>2026-05-03T11:55:46.077Z</time></trkpt><trkpt lat="36.4240857" lon="9.2208499"><ele>574.0</ele><time>2026-05-03T11:55:52.076Z</time></trkpt><trkpt lat="36.4240226" lon="9.2208286"><ele>574.0</ele><time>2026-05-03T11:55:58.047Z</time></trkpt><trkpt lat="36.4239613" lon="9.2207924"><ele>574.0</ele><time>2026-05-03T11:56:03.067Z</time></trkpt><trkpt lat="36.4239051" lon="9.2207562"><ele>574.0</ele><time>2026-05-03T11:56:08.03Z</time></trkpt><trkpt lat="36.423834" lon="9.2207269"><ele>573.5714285714286</ele><time>2026-05-03T11:56:14.063Z</time></trkpt><trkpt lat="36.4237407" lon="9.22077"><ele>573.1428571428571</ele><time>2026-05-03T11:56:50.097Z</time></trkpt><trkpt lat="36.4236856" lon="9.2207201"><ele>572.7142857142858</ele><time>2026-05-03T11:56:57.077Z</time></trkpt><trkpt lat="36.4236293" lon="9.2206847"><ele>572.2857142857142</ele><time>2026-05-03T11:57:03.081Z</time></trkpt><trkpt lat="36.4235691" lon="9.2206599"><ele>571.8571428571429</ele><time>2026-05-03T11:57:08.072Z</time></trkpt><trkpt lat="36.4235173" lon="9.220604"><ele>571.4285714285714</ele><time>2026-05-03T11:57:16.09Z</time></trkpt><trkpt lat="36.4234739" lon="9.2205431"><ele>571.0</ele><time>2026-05-03T11:57:26.07Z</time></trkpt><trkpt lat="36.4234385" lon="9.2204724"><ele>571.0</ele><time>2026-05-03T11:57:32.072Z</time></trkpt><trkpt lat="36.4234037" lon="9.220393"><ele>571.0</ele><time>2026-05-03T11:57:38.013Z</time></trkpt><trkpt lat="36.4233931" lon="9.2203118"><ele>571.0</ele><time>2026-05-03T11:57:44.038Z</time></trkpt><trkpt lat="36.4233715" lon="9.2202357"><ele>571.0</ele><time>2026-05-03T11:57:51.075Z</time></trkpt><trkpt lat="36.4233829" lon="9.2201575"><ele>571.0</ele><time>2026-05-03T11:58:18.074Z</time></trkpt><trkpt lat="36.4233716" lon="9.2200803"><ele>571.0</ele><time>2026-05-03T11:58:24.094Z</time></trkpt><trkpt lat="36.4233274" lon="9.2200186"><ele>571.0</ele><time>2026-05-03T11:58:37.073Z</time></trkpt><trkpt lat="36.423309" lon="9.2199344"><ele>571.0</ele><time>2026-05-03T11:58:59.076Z</time></trkpt><trkpt lat="36.4233035" lon="9.2198458"><ele>571.0</ele><time>2026-05-03T11:59:04.998Z</time></trkpt><trkpt lat="36.42328" lon="9.2197614"><ele>571.0</ele><time>2026-05-03T11:59:13.075Z</time></trkpt><trkpt lat="36.4232851" lon="9.219679"><ele>571.0</ele><time>2026-05-03T11:59:20.027Z</time></trkpt><trkpt lat="36.4233448" lon="9.2197155"><ele>571.0</ele><time>2026-05-03T11:59:38.079Z</time></trkpt><trkpt lat="36.4234059" lon="9.2197643"><ele>571.0</ele><time>2026-05-03T11:59:44.055Z</time></trkpt><trkpt lat="36.4234761" lon="9.2197915"><ele>571.0</ele><time>2026-05-03T11:59:50.073Z</time></trkpt><trkpt lat="36.4235475" lon="9.2197956"><ele>571.5714285714286</ele><time>2026-05-03T11:59:56.03Z</time></trkpt><trkpt lat="36.4236208" lon="9.2197852"><ele>572.1428571428571</ele><time>2026-05-03T12:00:03.056Z</time></trkpt><trkpt lat="36.4236886" lon="9.2197763"><ele>572.7142857142857</ele><time>2026-05-03T12:00:09.068Z</time></trkpt><trkpt lat="36.423757" lon="9.2197794"><ele>573.2857142857142</ele><time>2026-05-03T12:00:17.031Z</time></trkpt><trkpt lat="36.4238231" lon="9.2197781"><ele>573.8571428571428</ele><time>2026-05-03T12:00:24.071Z</time></trkpt><trkpt lat="36.4238859" lon="9.2198078"><ele>574.4285714285714</ele><time>2026-05-03T12:00:34.07Z</time></trkpt><trkpt lat="36.4238923" lon="9.2198955"><ele>575.0</ele><time>2026-05-03T12:00:42.065Z</time></trkpt><trkpt lat="36.4238203" lon="9.21997"><ele>575.0</ele><time>2026-05-03T12:03:13.083Z</time></trkpt><trkpt lat="36.4238733" lon="9.2199246"><ele>575.0</ele><time>2026-05-03T12:03:24.083Z</time></trkpt><trkpt lat="36.4238781" lon="9.2198431"><ele>575.0</ele><time>2026-05-03T12:03:31.973Z</time></trkpt><trkpt lat="36.4238138" lon="9.2198398"><ele>575.0</ele><time>2026-05-03T12:03:41.083Z</time></trkpt><trkpt lat="36.42376" lon="9.2197936"><ele>575.0</ele><time>2026-05-03T12:03:48.04Z</time></trkpt><trkpt lat="36.4237013" lon="9.2197632"><ele>575.0</ele><time>2026-05-03T12:03:55.068Z</time></trkpt><trkpt lat="36.4236369" lon="9.2197676"><ele>575.0</ele><time>2026-05-03T12:04:44.052Z</time></trkpt><trkpt lat="36.4235624" lon="9.2197772"><ele>575.0</ele><time>2026-05-03T12:04:50.063Z</time></trkpt><trkpt lat="36.4234935" lon="9.2197726"><ele>575.0</ele><time>2026-05-03T12:04:56.094Z</time></trkpt><trkpt lat="36.4234299" lon="9.2197651"><ele>575.0</ele><time>2026-05-03T12:05:02.074Z</time></trkpt><trkpt lat="36.4233729" lon="9.2197312"><ele>575.0</ele><time>2026-05-03T12:05:10.07Z</time></trkpt><trkpt lat="36.4233201" lon="9.2196843"><ele>575.0</ele><time>2026-05-03T12:05:18.058Z</time></trkpt><trkpt lat="36.4232598" lon="9.2196356"><ele>575.0</ele><time>2026-05-03T12:05:36.027Z</time></trkpt><trkpt lat="36.4232901" lon="9.2195536"><ele>575.0</ele><time>2026-05-03T12:05:41.993Z</time></trkpt><trkpt lat="36.4233134" lon="9.2194697"><ele>575.0</ele><time>2026-05-03T12:05:49.018Z</time></trkpt><trkpt lat="36.4233509" lon="9.2194003"><ele>575.0</ele><time>2026-05-03T12:05:55.036Z</time></trkpt><trkpt lat="36.4234138" lon="9.2194312"><ele>575.0</ele><time>2026-05-03T12:06:08.069Z</time></trkpt><trkpt lat="36.4234883" lon="9.2194301"><ele>575.0</ele><time>2026-05-03T12:06:13.015Z</time></trkpt><trkpt lat="36.423561" lon="9.2194103"><ele>575.0</ele><time>2026-05-03T12:06:18.069Z</time></trkpt><trkpt lat="36.4236289" lon="9.2194032"><ele>575.0</ele><time>2026-05-03T12:06:23.999Z</time></trkpt><trkpt lat="36.4236996" lon="9.2194156"><ele>575.0</ele><time>2026-05-03T12:06:30.033Z</time></trkpt><trkpt lat="36.423761" lon="9.2194332"><ele>575.0</ele><time>2026-05-03T12:06:35.019Z</time></trkpt><trkpt lat="36.4236941" lon="9.2194169"><ele>575.0</ele><time>2026-05-03T12:06:50.03Z</time></trkpt><trkpt lat="36.4236185" lon="9.2194132"><ele>575.0</ele><time>2026-05-03T12:06:56.026Z</time></trkpt><trkpt lat="36.4235517" lon="9.2194252"><ele>575.0</ele><time>2026-05-03T12:07:01.013Z</time></trkpt><trkpt lat="36.4234832" lon="9.2194185"><ele>575.0</ele><time>2026-05-03T12:07:06.064Z</time></trkpt><trkpt lat="36.4234165" lon="9.2194281"><ele>575.0</ele><time>2026-05-03T12:07:11.756Z</time></trkpt><trkpt lat="36.4233457" lon="9.2194273"><ele>575.0</ele><time>2026-05-03T12:07:18.119Z</time></trkpt><trkpt lat="36.4233503" lon="9.219344"><ele>575.0</ele><time>2026-05-03T12:07:26.04Z</time></trkpt><trkpt lat="36.4233828" lon="9.2192702"><ele>575.0</ele><time>2026-05-03T12:07:32.027Z</time></trkpt><trkpt lat="36.4234182" lon="9.2192003"><ele>575.0</ele><time>2026-05-03T12:07:38.018Z</time></trkpt><trkpt lat="36.4234841" lon="9.2191556"><ele>575.0</ele><time>2026-05-03T12:07:44.045Z</time></trkpt><trkpt lat="36.4235502" lon="9.2191526"><ele>575.0</ele><time>2026-05-03T12:07:48.036Z</time></trkpt><trkpt lat="36.4236213" lon="9.2191587"><ele>575.0</ele><time>2026-05-03T12:07:53.142Z</time></trkpt><trkpt lat="36.4236917" lon="9.2191911"><ele>575.0</ele><time>2026-05-03T12:07:59.093Z</time></trkpt><trkpt lat="36.4237624" lon="9.2192022"><ele>575.2857142857142</ele><time>2026-05-03T12:08:05.046Z</time></trkpt><trkpt lat="36.4238303" lon="9.2191942"><ele>575.5714285714286</ele><time>2026-05-03T12:08:11.024Z</time></trkpt><trkpt lat="36.4238912" lon="9.219156"><ele>575.8571428571429</ele><time>2026-05-03T12:08:18.001Z</time></trkpt><trkpt lat="36.423945" lon="9.219097"><ele>576.1428571428571</ele><time>2026-05-03T12:08:41.021Z</time></trkpt><trkpt lat="36.4239952" lon="9.2190353"><ele>576.4285714285714</ele><time>2026-05-03T12:08:47.016Z</time></trkpt><trkpt lat="36.4240428" lon="9.2189694"><ele>576.7142857142857</ele><time>2026-05-03T12:08:53.13Z</time></trkpt><trkpt lat="36.4240915" lon="9.2189123"><ele>577.0</ele><time>2026-05-03T12:08:59.02Z</time></trkpt><trkpt lat="36.4241408" lon="9.2188534"><ele>577.0</ele><time>2026-05-03T12:09:05.032Z</time></trkpt><trkpt lat="36.4241962" lon="9.2188113"><ele>577.0</ele><time>2026-05-03T12:09:11.032Z</time></trkpt><trkpt lat="36.4242521" lon="9.2187748"><ele>577.0</ele><time>2026-05-03T12:09:16.014Z</time></trkpt><trkpt lat="36.424312" lon="9.2187478"><ele>577.0</ele><time>2026-05-03T12:09:21.01Z</time></trkpt><trkpt lat="36.4243732" lon="9.2187278"><ele>577.0</ele><time>2026-05-03T12:09:26.119Z</time></trkpt><trkpt lat="36.4244439" lon="9.2186966"><ele>577.0</ele><time>2026-05-03T12:09:32.042Z</time></trkpt><trkpt lat="36.4244873" lon="9.2186356"><ele>577.0</ele><time>2026-05-03T12:09:38.005Z</time></trkpt><trkpt lat="36.4245181" lon="9.2185564"><ele>577.0</ele><time>2026-05-03T12:09:43.933Z</time></trkpt><trkpt lat="36.4245463" lon="9.2184851"><ele>577.0</ele><time>2026-05-03T12:09:50.031Z</time></trkpt><trkpt lat="36.4245635" lon="9.2184023"><ele>577.0</ele><time>2026-05-03T12:09:57.012Z</time></trkpt><trkpt lat="36.4245173" lon="9.2183444"><ele>577.0</ele><time>2026-05-03T12:10:26.015Z</time></trkpt><trkpt lat="36.4245224" lon="9.2182599"><ele>577.0</ele><time>2026-05-03T12:10:31.938Z</time></trkpt><trkpt lat="36.4245381" lon="9.2181765"><ele>577.0</ele><time>2026-05-03T12:10:38.028Z</time></trkpt><trkpt lat="36.4245735" lon="9.2181007"><ele>577.0</ele><time>2026-05-03T12:10:44.002Z</time></trkpt><trkpt lat="36.4245978" lon="9.2180278"><ele>576.8571428571429</ele><time>2026-05-03T12:10:49.992Z</time></trkpt><trkpt lat="36.424637" lon="9.2179528"><ele>576.7142857142858</ele><time>2026-05-03T12:10:56.008Z</time></trkpt><trkpt lat="36.4246609" lon="9.2178671"><ele>576.5714285714287</ele><time>2026-05-03T12:11:03.059Z</time></trkpt><trkpt lat="36.4246862" lon="9.2177936"><ele>576.4285714285714</ele><time>2026-05-03T12:11:09.041Z</time></trkpt><trkpt lat="36.4247071" lon="9.2177125"><ele>576.2857142857143</ele><time>2026-05-03T12:11:14.992Z</time></trkpt><trkpt lat="36.4247255" lon="9.2176366"><ele>576.1428571428572</ele><time>2026-05-03T12:11:20.052Z</time></trkpt><trkpt lat="36.4247607" lon="9.2175567"><ele>576.0</ele><time>2026-05-03T12:11:27.06Z</time></trkpt><trkpt lat="36.424783" lon="9.2174835"><ele>577.2857142857143</ele><time>2026-05-03T12:11:33.018Z</time></trkpt><trkpt lat="36.4248021" lon="9.2174024"><ele>578.5714285714286</ele><time>2026-05-03T12:11:40.026Z</time></trkpt><trkpt lat="36.4248317" lon="9.2173295"><ele>579.8571428571429</ele><time>2026-05-03T12:11:46.01Z</time></trkpt><trkpt lat="36.4247759" lon="9.2172836"><ele>581.1428571428571</ele><time>2026-05-03T12:12:00.019Z</time></trkpt><trkpt lat="36.4248312" lon="9.2172271"><ele>582.4285714285714</ele><time>2026-05-03T12:13:04.07Z</time></trkpt><trkpt lat="36.4248497" lon="9.2171438"><ele>583.7142857142858</ele><time>2026-05-03T12:13:10.085Z</time></trkpt><trkpt lat="36.4248829" lon="9.2170637"><ele>585.0</ele><time>2026-05-03T12:13:17.057Z</time></trkpt><trkpt lat="36.4249038" lon="9.2169796"><ele>585.1428571428571</ele><time>2026-05-03T12:13:38.055Z</time></trkpt><trkpt lat="36.4249627" lon="9.2169495"><ele>585.2857142857142</ele><time>2026-05-03T12:13:47.076Z</time></trkpt><trkpt lat="36.4250299" lon="9.2169338"><ele>585.4285714285713</ele><time>2026-05-03T12:13:58.074Z</time></trkpt><trkpt lat="36.4251012" lon="9.2169692"><ele>585.5714285714286</ele><time>2026-05-03T12:14:08.068Z</time></trkpt><trkpt lat="36.4251636" lon="9.2169841"><ele>585.7142857142857</ele><time>2026-05-03T12:14:13.035Z</time></trkpt><trkpt lat="36.4252327" lon="9.216949"><ele>585.8571428571428</ele><time>2026-05-03T12:14:19.034Z</time></trkpt><trkpt lat="36.4252902" lon="9.216912"><ele>586.0</ele><time>2026-05-03T12:14:24.088Z</time></trkpt><trkpt lat="36.4253531" lon="9.2168634"><ele>586.0</ele><time>2026-05-03T12:14:33.036Z</time></trkpt><trkpt lat="36.4254128" lon="9.2168159"><ele>586.0</ele><time>2026-05-03T12:14:40.019Z</time></trkpt><trkpt lat="36.4254659" lon="9.2167577"><ele>586.0</ele><time>2026-05-03T12:14:46.997Z</time></trkpt><trkpt lat="36.425529" lon="9.2167357"><ele>596.0</ele><time>2026-05-03T12:15:09.071Z</time></trkpt><trkpt lat="36.4255775" lon="9.2168046"><ele>596.0</ele><time>2026-05-03T12:15:15.064Z</time></trkpt><trkpt lat="36.425615" lon="9.2168743"><ele>596.0</ele><time>2026-05-03T12:15:21.059Z</time></trkpt></trkseg><trkseg><trkpt lat="36.425008" lon="9.2214402"><ele>579.0</ele><time>2026-05-03T13:35:41.953Z</time></trkpt><trkpt lat="36.4250871" lon="9.2214634"><ele>579.0</ele><time>2026-05-03T13:35:59.96Z</time></trkpt><trkpt lat="36.4251499" lon="9.2214479"><ele>579.0</ele><time>2026-05-03T13:36:03.966Z</time></trkpt><trkpt lat="36.4252042" lon="9.2215091"><ele>579.0</ele><time>2026-05-03T13:36:54.977Z</time></trkpt><trkpt lat="36.4252971" lon="9.2215507"><ele>579.0</ele><time>2026-05-03T13:36:56.975Z</time></trkpt><trkpt lat="36.425416" lon="9.2215551"><ele>579.0</ele><time>2026-05-03T13:36:58.971Z</time></trkpt><trkpt lat="36.4255315" lon="9.2215537"><ele>577.75</ele><time>2026-05-03T13:37:00.957Z</time></trkpt><trkpt lat="36.4256491" lon="9.2215225"><ele>576.5</ele><time>2026-05-03T13:37:02.951Z</time></trkpt><trkpt lat="36.4257667" lon="9.2214699"><ele>575.25</ele><time>2026-05-03T13:37:04.962Z</time></trkpt><trkpt lat="36.4258729" lon="9.2213965"><ele>574.0</ele><time>2026-05-03T13:37:06.967Z</time></trkpt><trkpt lat="36.4259662" lon="9.2213101"><ele>574.0</ele><time>2026-05-03T13:37:08.957Z</time></trkpt><trkpt lat="36.4260414" lon="9.2212276"><ele>574.0</ele><time>2026-05-03T13:37:10.978Z</time></trkpt><trkpt lat="36.4260785" lon="9.2211585"><ele>574.0</ele><time>2026-05-03T13:37:12.98Z</time></trkpt><trkpt lat="36.4261842" lon="9.2210909"><ele>574.0</ele><time>2026-05-03T13:38:26.958Z</time></trkpt><trkpt lat="36.4262304" lon="9.2210365"><ele>574.0</ele><time>2026-05-03T13:38:27.951Z</time></trkpt><trkpt lat="36.4262777" lon="9.2209722"><ele>574.0</ele><time>2026-05-03T13:38:28.986Z</time></trkpt><trkpt lat="36.4263221" lon="9.2208998"><ele>572.5</ele><time>2026-05-03T13:38:29.968Z</time></trkpt><trkpt lat="36.4263747" lon="9.2208239"><ele>571.0</ele><time>2026-05-03T13:38:30.954Z</time></trkpt><trkpt lat="36.4264348" lon="9.2207495"><ele>569.5</ele><time>2026-05-03T13:38:31.978Z</time></trkpt><trkpt lat="36.4264938" lon="9.220684"><ele>568.0</ele><time>2026-05-03T13:38:32.986Z</time></trkpt><trkpt lat="36.4265553" lon="9.2206178"><ele>566.5</ele><time>2026-05-03T13:38:33.98Z</time></trkpt><trkpt lat="36.4266134" lon="9.2205496"><ele>565.0</ele><time>2026-05-03T13:38:34.973Z</time></trkpt><trkpt lat="36.4266652" lon="9.2204862"><ele>565.0</ele><time>2026-05-03T13:38:35.967Z</time></trkpt><trkpt lat="36.4267164" lon="9.22042"><ele>565.0</ele><time>2026-05-03T13:38:36.956Z</time></trkpt><trkpt lat="36.4267738" lon="9.2203477"><ele>565.0</ele><time>2026-05-03T13:38:37.968Z</time></trkpt><trkpt lat="36.4268358" lon="9.220275"><ele>565.0</ele><time>2026-05-03T13:38:38.967Z</time></trkpt><trkpt lat="36.4268922" lon="9.2201938"><ele>565.0</ele><time>2026-05-03T13:38:39.979Z</time></trkpt><trkpt lat="36.4269487" lon="9.2200978"><ele>565.0</ele><time>2026-05-03T13:38:40.977Z</time></trkpt><trkpt lat="36.426993" lon="9.2199885"><ele>565.0</ele><time>2026-05-03T13:38:41.955Z</time></trkpt><trkpt lat="36.4270309" lon="9.2198664"><ele>565.0</ele><time>2026-05-03T13:38:42.956Z</time></trkpt><trkpt lat="36.4270624" lon="9.2197262"><ele>565.0</ele><time>2026-05-03T13:38:43.961Z</time></trkpt><trkpt lat="36.4270916" lon="9.2195813"><ele>565.0</ele><time>2026-05-03T13:38:44.966Z</time></trkpt><trkpt lat="36.4271152" lon="9.2194237"><ele>564.75</ele><time>2026-05-03T13:38:45.958Z</time></trkpt><trkpt lat="36.4271478" lon="9.2192553"><ele>564.5</ele><time>2026-05-03T13:38:46.956Z</time></trkpt><trkpt lat="36.4271876" lon="9.2190818"><ele>564.25</ele><time>2026-05-03T13:38:47.966Z</time></trkpt><trkpt lat="36.4272394" lon="9.2189081"><ele>564.0</ele><time>2026-05-03T13:38:48.946Z</time></trkpt><trkpt lat="36.4273082" lon="9.2187358"><ele>564.0</ele><time>2026-05-03T13:38:49.97Z</time></trkpt><trkpt lat="36.4273909" lon="9.2185762"><ele>564.0</ele><time>2026-05-03T13:38:50.963Z</time></trkpt><trkpt lat="36.4275045" lon="9.2184275"><ele>564.0</ele><time>2026-05-03T13:38:51.969Z</time></trkpt><trkpt lat="36.427648" lon="9.218286"><ele>566.6666666666666</ele><time>2026-05-03T13:38:52.976Z</time></trkpt><trkpt lat="36.4277923" lon="9.2181425"><ele>569.3333333333333</ele><time>2026-05-03T13:38:53.967Z</time></trkpt><trkpt lat="36.4279388" lon="9.2179988"><ele>572.0</ele><time>2026-05-03T13:38:54.962Z</time></trkpt><trkpt lat="36.4280747" lon="9.2178638"><ele>566.6666666666666</ele><time>2026-05-03T13:38:55.961Z</time></trkpt><trkpt lat="36.4281989" lon="9.2177276"><ele>561.3333333333334</ele><time>2026-05-03T13:38:56.976Z</time></trkpt><trkpt lat="36.4283202" lon="9.2175984"><ele>556.0</ele><time>2026-05-03T13:38:57.961Z</time></trkpt><trkpt lat="36.4284423" lon="9.2174767"><ele>556.0</ele><time>2026-05-03T13:38:58.964Z</time></trkpt><trkpt lat="36.4285543" lon="9.2173586"><ele>556.0</ele><time>2026-05-03T13:38:59.963Z</time></trkpt><trkpt lat="36.4286529" lon="9.2172488"><ele>556.0</ele><time>2026-05-03T13:39:00.951Z</time></trkpt><trkpt lat="36.4287417" lon="9.2171216"><ele>556.0</ele><time>2026-05-03T13:39:01.981Z</time></trkpt><trkpt lat="36.4288118" lon="9.2169843"><ele>555.3333333333334</ele><time>2026-05-03T13:39:02.972Z</time></trkpt><trkpt lat="36.428871" lon="9.216829"><ele>554.6666666666666</ele><time>2026-05-03T13:39:03.966Z</time></trkpt><trkpt lat="36.4289317" lon="9.2166519"><ele>554.0</ele><time>2026-05-03T13:39:04.965Z</time></trkpt><trkpt lat="36.4290069" lon="9.2164609"><ele>554.0</ele><time>2026-05-03T13:39:05.97Z</time></trkpt><trkpt lat="36.4290897" lon="9.2162675"><ele>554.0</ele><time>2026-05-03T13:39:06.969Z</time></trkpt><trkpt lat="36.4291707" lon="9.2160627"><ele>554.0</ele><time>2026-05-03T13:39:07.956Z</time></trkpt><trkpt lat="36.4292498" lon="9.2158531"><ele>554.6666666666666</ele><time>2026-05-03T13:39:08.978Z</time></trkpt><trkpt lat="36.4293286" lon="9.2156488"><ele>555.3333333333334</ele><time>2026-05-03T13:39:09.971Z</time></trkpt><trkpt lat="36.4294012" lon="9.2154641"><ele>556.0</ele><time>2026-05-03T13:39:10.962Z</time></trkpt><trkpt lat="36.4294728" lon="9.2152862"><ele>556.0</ele><time>2026-05-03T13:39:11.97Z</time></trkpt><trkpt lat="36.4295459" lon="9.2151027"><ele>556.0</ele><time>2026-05-03T13:39:12.971Z</time></trkpt><trkpt lat="36.429619" lon="9.2149083"><ele>556.0</ele><time>2026-05-03T13:39:13.984Z</time></trkpt><trkpt lat="36.4296937" lon="9.2147108"><ele>554.6666666666667</ele><time>2026-05-03T13:39:14.976Z</time></trkpt><trkpt lat="36.4297655" lon="9.2145139"><ele>553.3333333333334</ele><time>2026-05-03T13:39:15.975Z</time></trkpt><trkpt lat="36.429827" lon="9.2143288"><ele>552.0</ele><time>2026-05-03T13:39:16.966Z</time></trkpt><trkpt lat="36.4298905" lon="9.2141588"><ele>552.0</ele><time>2026-05-03T13:39:17.974Z</time></trkpt><trkpt lat="36.4299542" lon="9.2140084"><ele>552.0</ele><time>2026-05-03T13:39:18.964Z</time></trkpt><trkpt lat="36.4300309" lon="9.2138694"><ele>552.0</ele><time>2026-05-03T13:39:19.96Z</time></trkpt><trkpt lat="36.4301208" lon="9.213746"><ele>552.0</ele><time>2026-05-03T13:39:20.97Z</time></trkpt><trkpt lat="36.4302388" lon="9.2136449"><ele>552.0</ele><time>2026-05-03T13:39:21.973Z</time></trkpt><trkpt lat="36.4303746" lon="9.2135643"><ele>552.0</ele><time>2026-05-03T13:39:22.957Z</time></trkpt><trkpt lat="36.4305088" lon="9.2135053"><ele>552.0</ele><time>2026-05-03T13:39:23.965Z</time></trkpt><trkpt lat="36.4306517" lon="9.2134688"><ele>552.0</ele><time>2026-05-03T13:39:24.957Z</time></trkpt><trkpt lat="36.4307936" lon="9.2134738"><ele>552.0</ele><time>2026-05-03T13:39:25.959Z</time></trkpt><trkpt lat="36.4309362" lon="9.2135039"><ele>552.0</ele><time>2026-05-03T13:39:26.986Z</time></trkpt><trkpt lat="36.431071" lon="9.2135724"><ele>552.0</ele><time>2026-05-03T13:39:27.947Z</time></trkpt><trkpt lat="36.4312014" lon="9.2136714"><ele>552.0</ele><time>2026-05-03T13:39:28.965Z</time></trkpt><trkpt lat="36.4313394" lon="9.2137904"><ele>553.3333333333334</ele><time>2026-05-03T13:39:29.985Z</time></trkpt><trkpt lat="36.4314796" lon="9.2139296"><ele>554.6666666666667</ele><time>2026-05-03T13:39:30.973Z</time></trkpt><trkpt lat="36.4316334" lon="9.214077"><ele>556.0</ele><time>2026-05-03T13:39:31.94Z</time></trkpt><trkpt lat="36.4317972" lon="9.2142357"><ele>556.0</ele><time>2026-05-03T13:39:32.977Z</time></trkpt><trkpt lat="36.43197" lon="9.2144036"><ele>556.0</ele><time>2026-05-03T13:39:33.976Z</time></trkpt><trkpt lat="36.4321554" lon="9.2145815"><ele>556.0</ele><time>2026-05-03T13:39:34.96Z</time></trkpt><trkpt lat="36.4323428" lon="9.2147666"><ele>556.0</ele><time>2026-05-03T13:39:35.952Z</time></trkpt><trkpt lat="36.4325256" lon="9.2149451"><ele>556.0</ele><time>2026-05-03T13:39:36.975Z</time></trkpt><trkpt lat="36.4326948" lon="9.2151167"><ele>556.0</ele><time>2026-05-03T13:39:37.965Z</time></trkpt><trkpt lat="36.4328611" lon="9.215272"><ele>556.0</ele><time>2026-05-03T13:39:38.956Z</time></trkpt><trkpt lat="36.4330235" lon="9.2154327"><ele>557.3333333333334</ele><time>2026-05-03T13:39:39.984Z</time></trkpt><trkpt lat="36.4331884" lon="9.2155962"><ele>558.6666666666666</ele><time>2026-05-03T13:39:40.967Z</time></trkpt><trkpt lat="36.4333559" lon="9.2157543"><ele>560.0</ele><time>2026-05-03T13:39:41.958Z</time></trkpt><trkpt lat="36.4335252" lon="9.2159176"><ele>560.3333333333333</ele><time>2026-05-03T13:39:42.969Z</time></trkpt><trkpt lat="36.4336929" lon="9.216083"><ele>560.6666666666666</ele><time>2026-05-03T13:39:43.952Z</time></trkpt><trkpt lat="36.4338507" lon="9.2162268"><ele>561.0</ele><time>2026-05-03T13:39:44.952Z</time></trkpt><trkpt lat="36.4340005" lon="9.2163406"><ele>561.0</ele><time>2026-05-03T13:39:45.969Z</time></trkpt><trkpt lat="36.4341489" lon="9.2164138"><ele>561.0</ele><time>2026-05-03T13:39:46.955Z</time></trkpt><trkpt lat="36.4343134" lon="9.2164635"><ele>561.0</ele><time>2026-05-03T13:39:47.968Z</time></trkpt><trkpt lat="36.4345047" lon="9.2164959"><ele>559.6666666666666</ele><time>2026-05-03T13:39:48.955Z</time></trkpt><trkpt lat="36.4347044" lon="9.2165298"><ele>558.3333333333333</ele><time>2026-05-03T13:39:49.959Z</time></trkpt><trkpt lat="36.434909" lon="9.2165676"><ele>557.0</ele><time>2026-05-03T13:39:50.984Z</time></trkpt><trkpt lat="36.4351112" lon="9.2166135"><ele>557.0</ele><time>2026-05-03T13:39:51.967Z</time></trkpt><trkpt lat="36.4352961" lon="9.2166908"><ele>557.0</ele><time>2026-05-03T13:39:52.947Z</time></trkpt><trkpt lat="36.4354551" lon="9.216784"><ele>557.0</ele><time>2026-05-03T13:39:53.939Z</time></trkpt><trkpt lat="36.4356044" lon="9.2168992"><ele>558.0</ele><time>2026-05-03T13:39:54.956Z</time></trkpt><trkpt lat="36.4357406" lon="9.2170436"><ele>559.0</ele><time>2026-05-03T13:39:55.988Z</time></trkpt><trkpt lat="36.4358574" lon="9.2172105"><ele>560.0</ele><time>2026-05-03T13:39:56.935Z</time></trkpt><trkpt lat="36.4359729" lon="9.217392"><ele>557.3333333333333</ele><time>2026-05-03T13:39:57.944Z</time></trkpt><trkpt lat="36.4360836" lon="9.2175755"><ele>554.6666666666666</ele><time>2026-05-03T13:39:58.966Z</time></trkpt><trkpt lat="36.4361893" lon="9.2177746"><ele>552.0</ele><time>2026-05-03T13:39:59.968Z</time></trkpt><trkpt lat="36.4362941" lon="9.2179746"><ele>554.0</ele><time>2026-05-03T13:40:00.958Z</time></trkpt><trkpt lat="36.4364014" lon="9.2181677"><ele>556.0</ele><time>2026-05-03T13:40:01.95Z</time></trkpt><trkpt lat="36.4365054" lon="9.218351"><ele>558.0</ele><time>2026-05-03T13:40:02.968Z</time></trkpt><trkpt lat="36.4366016" lon="9.2185179"><ele>558.0</ele><time>2026-05-03T13:40:03.951Z</time></trkpt><trkpt lat="36.436693" lon="9.2186708"><ele>558.0</ele><time>2026-05-03T13:40:04.977Z</time></trkpt><trkpt lat="36.4367833" lon="9.2188137"><ele>558.0</ele><time>2026-05-03T13:40:05.944Z</time></trkpt><trkpt lat="36.4368732" lon="9.2189468"><ele>558.0</ele><time>2026-05-03T13:40:06.951Z</time></trkpt><trkpt lat="36.4369626" lon="9.2190725"><ele>559.0</ele><time>2026-05-03T13:40:07.951Z</time></trkpt><trkpt lat="36.4370409" lon="9.2191985"><ele>560.0</ele><time>2026-05-03T13:40:08.964Z</time></trkpt><trkpt lat="36.4371189" lon="9.2193307"><ele>561.0</ele><time>2026-05-03T13:40:09.961Z</time></trkpt><trkpt lat="36.4371967" lon="9.2194783"><ele>562.0</ele><time>2026-05-03T13:40:10.95Z</time></trkpt><trkpt lat="36.437279" lon="9.219645"><ele>559.0</ele><time>2026-05-03T13:40:11.963Z</time></trkpt><trkpt lat="36.4373692" lon="9.2198176"><ele>556.0</ele><time>2026-05-03T13:40:12.959Z</time></trkpt><trkpt lat="36.437467" lon="9.2199792"><ele>553.0</ele><time>2026-05-03T13:40:13.961Z</time></trkpt><trkpt lat="36.4375848" lon="9.2201269"><ele>553.0</ele><time>2026-05-03T13:40:14.94Z</time></trkpt><trkpt lat="36.4377247" lon="9.2202626"><ele>553.0</ele><time>2026-05-03T13:40:15.972Z</time></trkpt><trkpt lat="36.4378854" lon="9.2203941"><ele>553.0</ele><time>2026-05-03T13:40:16.957Z</time></trkpt><trkpt lat="36.4380466" lon="9.2205412"><ele>551.6666666666667</ele><time>2026-05-03T13:40:17.971Z</time></trkpt><trkpt lat="36.4382004" lon="9.2207048"><ele>550.3333333333334</ele><time>2026-05-03T13:40:18.963Z</time></trkpt><trkpt lat="36.4383462" lon="9.22087"><ele>549.0</ele><time>2026-05-03T13:40:19.954Z</time></trkpt><trkpt lat="36.4384791" lon="9.2210361"><ele>549.0</ele><time>2026-05-03T13:40:20.965Z</time></trkpt><trkpt lat="36.4386023" lon="9.2212079"><ele>549.0</ele><time>2026-05-03T13:40:21.941Z</time></trkpt><trkpt lat="36.4387281" lon="9.2213896"><ele>549.0</ele><time>2026-05-03T13:40:22.951Z</time></trkpt><trkpt lat="36.4388409" lon="9.2215944"><ele>548.3333333333334</ele><time>2026-05-03T13:40:23.945Z</time></trkpt><trkpt lat="36.4389473" lon="9.2218141"><ele>547.6666666666667</ele><time>2026-05-03T13:40:24.974Z</time></trkpt><trkpt lat="36.4390468" lon="9.2220459"><ele>547.0</ele><time>2026-05-03T13:40:25.983Z</time></trkpt><trkpt lat="36.4391318" lon="9.2222769"><ele>543.3333333333334</ele><time>2026-05-03T13:40:26.969Z</time></trkpt><trkpt lat="36.4392074" lon="9.2225056"><ele>539.6666666666666</ele><time>2026-05-03T13:40:27.95Z</time></trkpt><trkpt lat="36.4392818" lon="9.2227289"><ele>536.0</ele><time>2026-05-03T13:40:28.965Z</time></trkpt><trkpt lat="36.4393659" lon="9.2229329"><ele>536.0</ele><time>2026-05-03T13:40:29.964Z</time></trkpt><trkpt lat="36.4394664" lon="9.2231224"><ele>536.0</ele><time>2026-05-03T13:40:30.954Z</time></trkpt><trkpt lat="36.4395804" lon="9.2232995"><ele>536.0</ele><time>2026-05-03T13:40:31.952Z</time></trkpt><trkpt lat="36.4396918" lon="9.2234643"><ele>537.3333333333333</ele><time>2026-05-03T13:40:32.966Z</time></trkpt><trkpt lat="36.439791" lon="9.223627"><ele>538.6666666666666</ele><time>2026-05-03T13:40:33.961Z</time></trkpt><trkpt lat="36.4398496" lon="9.2237944"><ele>540.0</ele><time>2026-05-03T13:40:34.954Z</time></trkpt><trkpt lat="36.4398769" lon="9.2239654"><ele>537.3333333333334</ele><time>2026-05-03T13:40:35.943Z</time></trkpt><trkpt lat="36.4398698" lon="9.2241597"><ele>534.6666666666667</ele><time>2026-05-03T13:40:36.97Z</time></trkpt><trkpt lat="36.4398321" lon="9.2243856"><ele>532.0</ele><time>2026-05-03T13:40:37.95Z</time></trkpt><trkpt lat="36.4397816" lon="9.2246489"><ele>534.0</ele><time>2026-05-03T13:40:38.974Z</time></trkpt><trkpt lat="36.4397236" lon="9.2249284"><ele>536.0</ele><time>2026-05-03T13:40:39.944Z</time></trkpt><trkpt lat="36.439678" lon="9.2251961"><ele>529.6666666666666</ele><time>2026-05-03T13:40:40.975Z</time></trkpt><trkpt lat="36.439631" lon="9.2254401"><ele>523.3333333333334</ele><time>2026-05-03T13:40:41.961Z</time></trkpt><trkpt lat="36.4395866" lon="9.2256659"><ele>517.0</ele><time>2026-05-03T13:40:42.967Z</time></trkpt><trkpt lat="36.439535" lon="9.2258674"><ele>517.0</ele><time>2026-05-03T13:40:43.954Z</time></trkpt><trkpt lat="36.4394826" lon="9.226043"><ele>517.0</ele><time>2026-05-03T13:40:44.965Z</time></trkpt><trkpt lat="36.4394223" lon="9.2262054"><ele>517.0</ele><time>2026-05-03T13:40:45.957Z</time></trkpt><trkpt lat="36.4393559" lon="9.2263671"><ele>517.0</ele><time>2026-05-03T13:40:46.955Z</time></trkpt><trkpt lat="36.4392672" lon="9.22653"><ele>517.6666666666667</ele><time>2026-05-03T13:40:47.969Z</time></trkpt><trkpt lat="36.4391575" lon="9.2266916"><ele>518.3333333333334</ele><time>2026-05-03T13:40:48.962Z</time></trkpt><trkpt lat="36.4390498" lon="9.2268478"><ele>519.0</ele><time>2026-05-03T13:40:49.968Z</time></trkpt><trkpt lat="36.4389479" lon="9.226991"><ele>519.0</ele><time>2026-05-03T13:40:50.963Z</time></trkpt><trkpt lat="36.4388546" lon="9.2271224"><ele>519.0</ele><time>2026-05-03T13:40:51.974Z</time></trkpt><trkpt lat="36.4387667" lon="9.2272506"><ele>519.0</ele><time>2026-05-03T13:40:52.966Z</time></trkpt><trkpt lat="36.4386873" lon="9.2273847"><ele>519.0</ele><time>2026-05-03T13:40:53.955Z</time></trkpt><trkpt lat="36.4386345" lon="9.2275482"><ele>514.6666666666666</ele><time>2026-05-03T13:40:54.958Z</time></trkpt><trkpt lat="36.4386214" lon="9.2277282"><ele>510.3333333333333</ele><time>2026-05-03T13:40:55.963Z</time></trkpt><trkpt lat="36.4386339" lon="9.2279255"><ele>506.0</ele><time>2026-05-03T13:40:56.973Z</time></trkpt><trkpt lat="36.438672" lon="9.2281543"><ele>505.3333333333333</ele><time>2026-05-03T13:40:57.969Z</time></trkpt><trkpt lat="36.4387239" lon="9.2283865"><ele>504.66666666666663</ele><time>2026-05-03T13:40:58.956Z</time></trkpt><trkpt lat="36.4387567" lon="9.2286107"><ele>504.0</ele><time>2026-05-03T13:40:59.962Z</time></trkpt><trkpt lat="36.4388002" lon="9.228809"><ele>505.0</ele><time>2026-05-03T13:41:00.952Z</time></trkpt><trkpt lat="36.4388688" lon="9.2289815"><ele>506.0</ele><time>2026-05-03T13:41:01.951Z</time></trkpt><trkpt lat="36.4389724" lon="9.2291451"><ele>507.0</ele><time>2026-05-03T13:41:02.956Z</time></trkpt><trkpt lat="36.4391104" lon="9.2293334"><ele>507.0</ele><time>2026-05-03T13:41:03.956Z</time></trkpt><trkpt lat="36.4392665" lon="9.2295251"><ele>507.0</ele><time>2026-05-03T13:41:04.95Z</time></trkpt><trkpt lat="36.4394066" lon="9.2297183"><ele>507.0</ele><time>2026-05-03T13:41:05.966Z</time></trkpt><trkpt lat="36.4395288" lon="9.2299112"><ele>507.33333333333337</ele><time>2026-05-03T13:41:06.951Z</time></trkpt><trkpt lat="36.4396241" lon="9.2300854"><ele>507.6666666666667</ele><time>2026-05-03T13:41:07.967Z</time></trkpt><trkpt lat="36.4397091" lon="9.2302845"><ele>508.0</ele><time>2026-05-03T13:41:08.985Z</time></trkpt><trkpt lat="36.4397735" lon="9.2305019"><ele>506.0</ele><time>2026-05-03T13:41:09.965Z</time></trkpt><trkpt lat="36.439823" lon="9.2307415"><ele>504.0</ele><time>2026-05-03T13:41:10.976Z</time></trkpt><trkpt lat="36.4398749" lon="9.2309801"><ele>502.0</ele><time>2026-05-03T13:41:11.977Z</time></trkpt><trkpt lat="36.439933" lon="9.2311879"><ele>502.0</ele><time>2026-05-03T13:41:12.976Z</time></trkpt><trkpt lat="36.440007" lon="9.2313722"><ele>502.0</ele><time>2026-05-03T13:41:13.975Z</time></trkpt><trkpt lat="36.4401018" lon="9.2315174"><ele>502.0</ele><time>2026-05-03T13:41:14.981Z</time></trkpt><trkpt lat="36.4402103" lon="9.2316463"><ele>499.0</ele><time>2026-05-03T13:41:15.973Z</time></trkpt><trkpt lat="36.4403044" lon="9.2317662"><ele>496.0</ele><time>2026-05-03T13:41:16.987Z</time></trkpt><trkpt lat="36.4403701" lon="9.2319182"><ele>493.0</ele><time>2026-05-03T13:41:17.983Z</time></trkpt><trkpt lat="36.4403992" lon="9.2321031"><ele>490.0</ele><time>2026-05-03T13:41:18.97Z</time></trkpt><trkpt lat="36.4403852" lon="9.2322892"><ele>486.6666666666667</ele><time>2026-05-03T13:41:19.966Z</time></trkpt><trkpt lat="36.4403511" lon="9.2325207"><ele>483.33333333333337</ele><time>2026-05-03T13:41:20.982Z</time></trkpt><trkpt lat="36.4402895" lon="9.2327625"><ele>480.0</ele><time>2026-05-03T13:41:21.97Z</time></trkpt><trkpt lat="36.4402232" lon="9.2329997"><ele>480.33333333333337</ele><time>2026-05-03T13:41:22.962Z</time></trkpt><trkpt lat="36.440174" lon="9.233238"><ele>480.6666666666667</ele><time>2026-05-03T13:41:23.988Z</time></trkpt><trkpt lat="36.4401158" lon="9.2334719"><ele>481.0</ele><time>2026-05-03T13:41:24.985Z</time></trkpt><trkpt lat="36.4400662" lon="9.2337038"><ele>481.0</ele><time>2026-05-03T13:41:25.987Z</time></trkpt><trkpt lat="36.4400199" lon="9.2339235"><ele>481.0</ele><time>2026-05-03T13:41:26.982Z</time></trkpt><trkpt lat="36.4399762" lon="9.2341301"><ele>481.0</ele><time>2026-05-03T13:41:27.942Z</time></trkpt><trkpt lat="36.4399338" lon="9.2343248"><ele>481.0</ele><time>2026-05-03T13:41:28.959Z</time></trkpt><trkpt lat="36.439894" lon="9.2345192"><ele>481.0</ele><time>2026-05-03T13:41:29.964Z</time></trkpt><trkpt lat="36.4398555" lon="9.2347161"><ele>481.0</ele><time>2026-05-03T13:41:30.988Z</time></trkpt><trkpt lat="36.4398301" lon="9.2349072"><ele>480.33333333333337</ele><time>2026-05-03T13:41:31.971Z</time></trkpt><trkpt lat="36.4398228" lon="9.235086"><ele>479.66666666666663</ele><time>2026-05-03T13:41:32.961Z</time></trkpt><trkpt lat="36.4398318" lon="9.2352709"><ele>479.0</ele><time>2026-05-03T13:41:33.969Z</time></trkpt><trkpt lat="36.4398665" lon="9.2354726"><ele>477.0</ele><time>2026-05-03T13:41:34.988Z</time></trkpt><trkpt lat="36.4399169" lon="9.2356806"><ele>475.0</ele><time>2026-05-03T13:41:35.969Z</time></trkpt><trkpt lat="36.439996" lon="9.2358938"><ele>473.0</ele><time>2026-05-03T13:41:36.995Z</time></trkpt><trkpt lat="36.4400947" lon="9.2361003"><ele>473.0</ele><time>2026-05-03T13:41:37.995Z</time></trkpt><trkpt lat="36.440193" lon="9.2362929"><ele>473.0</ele><time>2026-05-03T13:41:38.984Z</time></trkpt><trkpt lat="36.4402922" lon="9.2364794"><ele>473.0</ele><time>2026-05-03T13:41:39.982Z</time></trkpt><trkpt lat="36.4403938" lon="9.2366409"><ele>472.0</ele><time>2026-05-03T13:41:40.985Z</time></trkpt><trkpt lat="36.4405" lon="9.2367613"><ele>471.0</ele><time>2026-05-03T13:41:41.943Z</time></trkpt><trkpt lat="36.4406371" lon="9.2368509"><ele>470.0</ele><time>2026-05-03T13:41:42.986Z</time></trkpt><trkpt lat="36.4407951" lon="9.2369062"><ele>470.0</ele><time>2026-05-03T13:41:43.987Z</time></trkpt><trkpt lat="36.4409568" lon="9.2369404"><ele>470.0</ele><time>2026-05-03T13:41:44.989Z</time></trkpt><trkpt lat="36.4411156" lon="9.2369578"><ele>470.0</ele><time>2026-05-03T13:41:45.988Z</time></trkpt><trkpt lat="36.4412506" lon="9.2369958"><ele>470.0</ele><time>2026-05-03T13:41:46.988Z</time></trkpt><trkpt lat="36.4413704" lon="9.2370766"><ele>470.0</ele><time>2026-05-03T13:41:47.989Z</time></trkpt><trkpt lat="36.4414497" lon="9.2371909"><ele>470.0</ele><time>2026-05-03T13:41:48.988Z</time></trkpt><trkpt lat="36.4415095" lon="9.2373309"><ele>470.0</ele><time>2026-05-03T13:41:49.996Z</time></trkpt><trkpt lat="36.4415518" lon="9.2374823"><ele>469.0</ele><time>2026-05-03T13:41:50.961Z</time></trkpt><trkpt lat="36.441562" lon="9.2376467"><ele>468.0</ele><time>2026-05-03T13:41:51.962Z</time></trkpt><trkpt lat="36.441536" lon="9.2378319"><ele>467.0</ele><time>2026-05-03T13:41:52.993Z</time></trkpt><trkpt lat="36.4414907" lon="9.2380112"><ele>466.0</ele><time>2026-05-03T13:41:53.983Z</time></trkpt><trkpt lat="36.4414249" lon="9.2381869"><ele>466.0</ele><time>2026-05-03T13:41:54.985Z</time></trkpt><trkpt lat="36.4413671" lon="9.2383737"><ele>466.0</ele><time>2026-05-03T13:41:55.987Z</time></trkpt><trkpt lat="36.4413066" lon="9.2385533"><ele>466.0</ele><time>2026-05-03T13:41:56.986Z</time></trkpt><trkpt lat="36.4412688" lon="9.2387336"><ele>460.33333333333337</ele><time>2026-05-03T13:41:57.977Z</time></trkpt><trkpt lat="36.4412473" lon="9.2389135"><ele>454.66666666666663</ele><time>2026-05-03T13:41:59.001Z</time></trkpt><trkpt lat="36.4412495" lon="9.2390994"><ele>449.0</ele><time>2026-05-03T13:41:59.981Z</time></trkpt><trkpt lat="36.4412809" lon="9.2392984"><ele>450.66666666666663</ele><time>2026-05-03T13:42:00.974Z</time></trkpt><trkpt lat="36.4413415" lon="9.2395151"><ele>452.33333333333337</ele><time>2026-05-03T13:42:01.998Z</time></trkpt><trkpt lat="36.4414479" lon="9.2397444"><ele>454.0</ele><time>2026-05-03T13:42:02.992Z</time></trkpt><trkpt lat="36.441541" lon="9.2400116"><ele>454.0</ele><time>2026-05-03T13:42:03.997Z</time></trkpt><trkpt lat="36.4416515" lon="9.2403172"><ele>454.0</ele><time>2026-05-03T13:42:04.983Z</time></trkpt><trkpt lat="36.441771" lon="9.2406386"><ele>448.5</ele><time>2026-05-03T13:42:05.987Z</time></trkpt><trkpt lat="36.4418976" lon="9.2409417"><ele>443.0</ele><time>2026-05-03T13:42:06.986Z</time></trkpt><trkpt lat="36.4420197" lon="9.2412304"><ele>443.5</ele><time>2026-05-03T13:42:07.97Z</time></trkpt><trkpt lat="36.4421358" lon="9.241503"><ele>444.0</ele><time>2026-05-03T13:42:08.962Z</time></trkpt><trkpt lat="36.4422391" lon="9.2417413"><ele>444.0</ele><time>2026-05-03T13:42:09.984Z</time></trkpt><trkpt lat="36.442338" lon="9.2419507"><ele>444.0</ele><time>2026-05-03T13:42:10.98Z</time></trkpt><trkpt lat="36.442436" lon="9.2421353"><ele>444.0</ele><time>2026-05-03T13:42:11.991Z</time></trkpt><trkpt lat="36.4425385" lon="9.242259"><ele>442.33333333333337</ele><time>2026-05-03T13:42:12.996Z</time></trkpt><trkpt lat="36.4426768" lon="9.242331"><ele>440.6666666666667</ele><time>2026-05-03T13:42:13.954Z</time></trkpt><trkpt lat="36.4428438" lon="9.2423857"><ele>439.0</ele><time>2026-05-03T13:42:14.954Z</time></trkpt><trkpt lat="36.4430266" lon="9.2424204"><ele>439.0</ele><time>2026-05-03T13:42:15.987Z</time></trkpt><trkpt lat="36.4432266" lon="9.2424514"><ele>439.0</ele><time>2026-05-03T13:42:16.981Z</time></trkpt><trkpt lat="36.4434209" lon="9.2424807"><ele>439.0</ele><time>2026-05-03T13:42:17.991Z</time></trkpt><trkpt lat="36.4435853" lon="9.2425272"><ele>439.0</ele><time>2026-05-03T13:42:19.012Z</time></trkpt><trkpt lat="36.4437244" lon="9.2426245"><ele>439.0</ele><time>2026-05-03T13:42:19.975Z</time></trkpt><trkpt lat="36.4438246" lon="9.2427463"><ele>439.0</ele><time>2026-05-03T13:42:20.961Z</time></trkpt><trkpt lat="36.4439" lon="9.2428851"><ele>439.0</ele><time>2026-05-03T13:42:21.988Z</time></trkpt><trkpt lat="36.4439443" lon="9.2430312"><ele>438.25</ele><time>2026-05-03T13:42:22.988Z</time></trkpt><trkpt lat="36.4439582" lon="9.2431915"><ele>437.5</ele><time>2026-05-03T13:42:23.987Z</time></trkpt><trkpt lat="36.4439588" lon="9.2433653"><ele>436.75</ele><time>2026-05-03T13:42:24.95Z</time></trkpt><trkpt lat="36.4439637" lon="9.2435825"><ele>436.0</ele><time>2026-05-03T13:42:25.988Z</time></trkpt><trkpt lat="36.4439745" lon="9.2438038"><ele>435.0</ele><time>2026-05-03T13:42:26.99Z</time></trkpt><trkpt lat="36.4439895" lon="9.2440154"><ele>434.0</ele><time>2026-05-03T13:42:27.984Z</time></trkpt><trkpt lat="36.444009" lon="9.2442074"><ele>433.0</ele><time>2026-05-03T13:42:28.981Z</time></trkpt><trkpt lat="36.4440407" lon="9.2443747"><ele>433.0</ele><time>2026-05-03T13:42:29.994Z</time></trkpt><trkpt lat="36.4440881" lon="9.2445345"><ele>433.0</ele><time>2026-05-03T13:42:30.956Z</time></trkpt><trkpt lat="36.4441452" lon="9.2446935"><ele>433.0</ele><time>2026-05-03T13:42:31.969Z</time></trkpt><trkpt lat="36.4442088" lon="9.2448502"><ele>433.0</ele><time>2026-05-03T13:42:32.99Z</time></trkpt><trkpt lat="36.4442836" lon="9.2449894"><ele>432.5</ele><time>2026-05-03T13:42:33.987Z</time></trkpt><trkpt lat="36.4443804" lon="9.2451174"><ele>432.0</ele><time>2026-05-03T13:42:34.984Z</time></trkpt><trkpt lat="36.4444967" lon="9.2452377"><ele>431.5</ele><time>2026-05-03T13:42:35.989Z</time></trkpt><trkpt lat="36.4446217" lon="9.2453399"><ele>431.0</ele><time>2026-05-03T13:42:36.993Z</time></trkpt><trkpt lat="36.4447611" lon="9.2454266"><ele>431.0</ele><time>2026-05-03T13:42:37.98Z</time></trkpt><trkpt lat="36.4449078" lon="9.2454907"><ele>431.0</ele><time>2026-05-03T13:42:38.977Z</time></trkpt><trkpt lat="36.4450629" lon="9.2455491"><ele>431.0</ele><time>2026-05-03T13:42:39.984Z</time></trkpt><trkpt lat="36.445228" lon="9.2455989"><ele>428.0</ele><time>2026-05-03T13:42:41.001Z</time></trkpt><trkpt lat="36.4453885" lon="9.2456751"><ele>425.0</ele><time>2026-05-03T13:42:41.995Z</time></trkpt><trkpt lat="36.4455473" lon="9.2457679"><ele>422.0</ele><time>2026-05-03T13:42:42.968Z</time></trkpt><trkpt lat="36.4456935" lon="9.2458867"><ele>422.0</ele><time>2026-05-03T13:42:43.98Z</time></trkpt><trkpt lat="36.4458239" lon="9.246016"><ele>422.0</ele><time>2026-05-03T13:42:44.98Z</time></trkpt><trkpt lat="36.4459452" lon="9.2461724"><ele>422.0</ele><time>2026-05-03T13:42:45.995Z</time></trkpt><trkpt lat="36.4460509" lon="9.2463214"><ele>422.0</ele><time>2026-05-03T13:42:46.984Z</time></trkpt><trkpt lat="36.4461629" lon="9.2464431"><ele>422.0</ele><time>2026-05-03T13:42:47.983Z</time></trkpt><trkpt lat="36.4462853" lon="9.2465526"><ele>422.0</ele><time>2026-05-03T13:42:48.986Z</time></trkpt><trkpt lat="36.446407" lon="9.2466625"><ele>420.5</ele><time>2026-05-03T13:42:49.977Z</time></trkpt><trkpt lat="36.4465336" lon="9.2467551"><ele>419.0</ele><time>2026-05-03T13:42:50.952Z</time></trkpt><trkpt lat="36.4466591" lon="9.2468334"><ele>417.5</ele><time>2026-05-03T13:42:51.986Z</time></trkpt><trkpt lat="36.446781" lon="9.2468995"><ele>416.0</ele><time>2026-05-03T13:42:53.002Z</time></trkpt><trkpt lat="36.4469001" lon="9.2469468"><ele>416.0</ele><time>2026-05-03T13:42:53.986Z</time></trkpt><trkpt lat="36.4470153" lon="9.2469738"><ele>416.0</ele><time>2026-05-03T13:42:54.965Z</time></trkpt><trkpt lat="36.4471229" lon="9.2469919"><ele>416.0</ele><time>2026-05-03T13:42:55.973Z</time></trkpt><trkpt lat="36.4472258" lon="9.247003"><ele>416.0</ele><time>2026-05-03T13:42:56.981Z</time></trkpt><trkpt lat="36.4473309" lon="9.2470028"><ele>416.0</ele><time>2026-05-03T13:42:57.984Z</time></trkpt><trkpt lat="36.4474357" lon="9.2469844"><ele>415.4</ele><time>2026-05-03T13:42:58.994Z</time></trkpt><trkpt lat="36.4475379" lon="9.2469445"><ele>414.8</ele><time>2026-05-03T13:42:59.944Z</time></trkpt><trkpt lat="36.4476476" lon="9.246881"><ele>414.2</ele><time>2026-05-03T13:43:00.947Z</time></trkpt><trkpt lat="36.4477434" lon="9.2468215"><ele>413.59999999999997</ele><time>2026-05-03T13:43:01.97Z</time></trkpt><trkpt lat="36.4478408" lon="9.2467482"><ele>413.0</ele><time>2026-05-03T13:43:02.981Z</time></trkpt><trkpt lat="36.4479335" lon="9.2466775"><ele>412.2</ele><time>2026-05-03T13:43:03.977Z</time></trkpt><trkpt lat="36.4480245" lon="9.2466207"><ele>411.4</ele><time>2026-05-03T13:43:04.981Z</time></trkpt><trkpt lat="36.4481175" lon="9.2465765"><ele>410.59999999999997</ele><time>2026-05-03T13:43:05.977Z</time></trkpt><trkpt lat="36.4482162" lon="9.246562"><ele>409.79999999999995</ele><time>2026-05-03T13:43:06.991Z</time></trkpt><trkpt lat="36.4483162" lon="9.2465811"><ele>409.0</ele><time>2026-05-03T13:43:07.981Z</time></trkpt><trkpt lat="36.4484208" lon="9.2466189"><ele>409.0</ele><time>2026-05-03T13:43:08.978Z</time></trkpt><trkpt lat="36.4485244" lon="9.2466706"><ele>409.0</ele><time>2026-05-03T13:43:09.963Z</time></trkpt><trkpt lat="36.448616" lon="9.2467507"><ele>409.0</ele><time>2026-05-03T13:43:10.976Z</time></trkpt><trkpt lat="36.448699" lon="9.2468503"><ele>409.0</ele><time>2026-05-03T13:43:11.977Z</time></trkpt><trkpt lat="36.4487678" lon="9.2469497"><ele>409.0</ele><time>2026-05-03T13:43:12.978Z</time></trkpt><trkpt lat="36.4488516" lon="9.2470433"><ele>407.75</ele><time>2026-05-03T13:43:13.99Z</time></trkpt><trkpt lat="36.4489369" lon="9.2471286"><ele>406.5</ele><time>2026-05-03T13:43:14.963Z</time></trkpt><trkpt lat="36.44903" lon="9.247203"><ele>405.25</ele><time>2026-05-03T13:43:15.986Z</time></trkpt><trkpt lat="36.4491431" lon="9.2472657"><ele>404.0</ele><time>2026-05-03T13:43:16.962Z</time></trkpt><trkpt lat="36.4492571" lon="9.2473068"><ele>404.0</ele><time>2026-05-03T13:43:18.001Z</time></trkpt><trkpt lat="36.4493616" lon="9.2473347"><ele>404.0</ele><time>2026-05-03T13:43:18.984Z</time></trkpt><trkpt lat="36.4494671" lon="9.2473581"><ele>404.0</ele><time>2026-05-03T13:43:19.976Z</time></trkpt><trkpt lat="36.4495637" lon="9.2473704"><ele>404.0</ele><time>2026-05-03T13:43:20.975Z</time></trkpt><trkpt lat="36.4496611" lon="9.2473902"><ele>404.0</ele><time>2026-05-03T13:43:21.979Z</time></trkpt><trkpt lat="36.4497593" lon="9.2474061"><ele>404.79999999999995</ele><time>2026-05-03T13:43:22.977Z</time></trkpt><trkpt lat="36.44986" lon="9.2474175"><ele>405.59999999999997</ele><time>2026-05-03T13:43:23.984Z</time></trkpt><trkpt lat="36.4499567" lon="9.2474361"><ele>406.4</ele><time>2026-05-03T13:43:24.98Z</time></trkpt><trkpt lat="36.450052" lon="9.2474608"><ele>407.2</ele><time>2026-05-03T13:43:25.979Z</time></trkpt><trkpt lat="36.4501427" lon="9.2474931"><ele>408.0</ele><time>2026-05-03T13:43:26.98Z</time></trkpt><trkpt lat="36.4502321" lon="9.2475295"><ele>408.0</ele><time>2026-05-03T13:43:27.943Z</time></trkpt><trkpt lat="36.4503291" lon="9.2475701"><ele>408.0</ele><time>2026-05-03T13:43:28.973Z</time></trkpt><trkpt lat="36.450423" lon="9.2476111"><ele>408.0</ele><time>2026-05-03T13:43:29.991Z</time></trkpt><trkpt lat="36.45052" lon="9.2476551"><ele>408.0</ele><time>2026-05-03T13:43:30.972Z</time></trkpt><trkpt lat="36.4506158" lon="9.2477083"><ele>408.0</ele><time>2026-05-03T13:43:31.969Z</time></trkpt><trkpt lat="36.4507137" lon="9.2477691"><ele>409.5</ele><time>2026-05-03T13:43:32.975Z</time></trkpt><trkpt lat="36.4508154" lon="9.2478323"><ele>411.0</ele><time>2026-05-03T13:43:33.987Z</time></trkpt><trkpt lat="36.4509193" lon="9.247902"><ele>412.5</ele><time>2026-05-03T13:43:34.962Z</time></trkpt><trkpt lat="36.4510271" lon="9.2479708"><ele>414.0</ele><time>2026-05-03T13:43:35.971Z</time></trkpt><trkpt lat="36.4511347" lon="9.2480349"><ele>414.0</ele><time>2026-05-03T13:43:36.975Z</time></trkpt><trkpt lat="36.4512376" lon="9.248103"><ele>414.0</ele><time>2026-05-03T13:43:37.98Z</time></trkpt><trkpt lat="36.4513421" lon="9.2481751"><ele>414.0</ele><time>2026-05-03T13:43:38.979Z</time></trkpt><trkpt lat="36.4514441" lon="9.2482496"><ele>414.0</ele><time>2026-05-03T13:43:39.985Z</time></trkpt><trkpt lat="36.4515456" lon="9.2483334"><ele>413.0</ele><time>2026-05-03T13:43:40.934Z</time></trkpt><trkpt lat="36.4516468" lon="9.2484143"><ele>412.0</ele><time>2026-05-03T13:43:41.958Z</time></trkpt><trkpt lat="36.4517425" lon="9.2484932"><ele>411.0</ele><time>2026-05-03T13:43:42.975Z</time></trkpt><trkpt lat="36.4518317" lon="9.2485652"><ele>410.0</ele><time>2026-05-03T13:43:43.993Z</time></trkpt><trkpt lat="36.4519181" lon="9.248634"><ele>409.0</ele><time>2026-05-03T13:43:44.976Z</time></trkpt><trkpt lat="36.4520038" lon="9.248704"><ele>409.0</ele><time>2026-05-03T13:43:45.984Z</time></trkpt><trkpt lat="36.4520892" lon="9.2487734"><ele>409.0</ele><time>2026-05-03T13:43:46.977Z</time></trkpt><trkpt lat="36.4521766" lon="9.2488427"><ele>409.0</ele><time>2026-05-03T13:43:47.968Z</time></trkpt><trkpt lat="36.4522697" lon="9.2489194"><ele>409.0</ele><time>2026-05-03T13:43:48.988Z</time></trkpt><trkpt lat="36.4523664" lon="9.2490018"><ele>409.0</ele><time>2026-05-03T13:43:49.997Z</time></trkpt><trkpt lat="36.4524685" lon="9.2490834"><ele>408.5</ele><time>2026-05-03T13:43:50.953Z</time></trkpt><trkpt lat="36.4525724" lon="9.2491679"><ele>408.0</ele><time>2026-05-03T13:43:51.975Z</time></trkpt><trkpt lat="36.4526775" lon="9.2492505"><ele>407.5</ele><time>2026-05-03T13:43:52.989Z</time></trkpt><trkpt lat="36.452786" lon="9.2493297"><ele>407.0</ele><time>2026-05-03T13:43:53.961Z</time></trkpt><trkpt lat="36.4528894" lon="9.2494012"><ele>408.49999999999994</ele><time>2026-05-03T13:43:54.961Z</time></trkpt><trkpt lat="36.4529874" lon="9.249464"><ele>410.0</ele><time>2026-05-03T13:43:55.984Z</time></trkpt><trkpt lat="36.4530717" lon="9.2495146"><ele>411.5</ele><time>2026-05-03T13:43:56.978Z</time></trkpt><trkpt lat="36.4531354" lon="9.2495571"><ele>413.0</ele><time>2026-05-03T13:43:57.979Z</time></trkpt><trkpt lat="36.4532018" lon="9.2496046"><ele>414.49999999999994</ele><time>2026-05-03T13:43:59.981Z</time></trkpt><trkpt lat="36.4532535" lon="9.2496588"><ele>416.0</ele><time>2026-05-03T13:44:02.981Z</time></trkpt><trkpt lat="36.4533082" lon="9.2497259"><ele>413.20000000000005</ele><time>2026-05-03T13:44:05.974Z</time></trkpt><trkpt lat="36.4534316" lon="9.2498133"><ele>410.40000000000003</ele><time>2026-05-03T13:44:07.937Z</time></trkpt><trkpt lat="36.4535179" lon="9.2498463"><ele>407.6</ele><time>2026-05-03T13:44:08.965Z</time></trkpt><trkpt lat="36.4536076" lon="9.249886"><ele>404.8</ele><time>2026-05-03T13:44:09.971Z</time></trkpt><trkpt lat="36.4536989" lon="9.2499295"><ele>402.0</ele><time>2026-05-03T13:44:10.97Z</time></trkpt><trkpt lat="36.4538027" lon="9.2499662"><ele>402.0</ele><time>2026-05-03T13:44:11.987Z</time></trkpt><trkpt lat="36.4539127" lon="9.2499986"><ele>402.0</ele><time>2026-05-03T13:44:12.96Z</time></trkpt><trkpt lat="36.4540282" lon="9.2500152"><ele>402.0</ele><time>2026-05-03T13:44:13.984Z</time></trkpt><trkpt lat="36.4541287" lon="9.2500231"><ele>402.0</ele><time>2026-05-03T13:44:14.982Z</time></trkpt><trkpt lat="36.4542104" lon="9.2500243"><ele>402.0</ele><time>2026-05-03T13:44:15.983Z</time></trkpt><trkpt lat="36.4542868" lon="9.2500236"><ele>402.0</ele><time>2026-05-03T13:44:16.988Z</time></trkpt><trkpt lat="36.4543654" lon="9.2500156"><ele>402.0</ele><time>2026-05-03T13:44:17.986Z</time></trkpt><trkpt lat="36.4544462" lon="9.2500098"><ele>402.0</ele><time>2026-05-03T13:44:18.972Z</time></trkpt><trkpt lat="36.4545238" lon="9.2500072"><ele>402.0</ele><time>2026-05-03T13:44:19.998Z</time></trkpt><trkpt lat="36.4546024" lon="9.2499983"><ele>402.0</ele><time>2026-05-03T13:44:20.969Z</time></trkpt><trkpt lat="36.4546694" lon="9.2499873"><ele>402.0</ele><time>2026-05-03T13:44:21.964Z</time></trkpt><trkpt lat="36.4547757" lon="9.2499868"><ele>402.40000000000003</ele><time>2026-05-03T13:44:23.981Z</time></trkpt><trkpt lat="36.4548766" lon="9.2499758"><ele>402.8</ele><time>2026-05-03T13:44:25.975Z</time></trkpt><trkpt lat="36.4549639" lon="9.2499155"><ele>403.2</ele><time>2026-05-03T13:44:27.981Z</time></trkpt><trkpt lat="36.4550277" lon="9.2498188"><ele>403.6</ele><time>2026-05-03T13:44:30.001Z</time></trkpt><trkpt lat="36.4550854" lon="9.2497259"><ele>404.0</ele><time>2026-05-03T13:44:31.972Z</time></trkpt><trkpt lat="36.4551459" lon="9.2496619"><ele>403.99999999999994</ele><time>2026-05-03T13:44:33.975Z</time></trkpt><trkpt lat="36.4552163" lon="9.2496096"><ele>404.0</ele><time>2026-05-03T13:44:35.948Z</time></trkpt><trkpt lat="36.455295" lon="9.2496067"><ele>404.0</ele><time>2026-05-03T13:44:37.974Z</time></trkpt><trkpt lat="36.4553784" lon="9.2496602"><ele>404.0</ele><time>2026-05-03T13:44:39.972Z</time></trkpt><trkpt lat="36.4554466" lon="9.2497624"><ele>403.99999999999994</ele><time>2026-05-03T13:44:41.98Z</time></trkpt><trkpt lat="36.4554886" lon="9.2498412"><ele>404.0</ele><time>2026-05-03T13:44:43.987Z</time></trkpt><trkpt lat="36.4555299" lon="9.249926"><ele>403.99999999999994</ele><time>2026-05-03T13:44:53.952Z</time></trkpt><trkpt lat="36.4555857" lon="9.2500119"><ele>404.0</ele><time>2026-05-03T13:44:57.981Z</time></trkpt><trkpt lat="36.4556778" lon="9.2500305"><ele>404.0</ele><time>2026-05-03T13:44:59.988Z</time></trkpt><trkpt lat="36.4557438" lon="9.2500217"><ele>404.0</ele><time>2026-05-03T13:45:00.948Z</time></trkpt><trkpt lat="36.4558191" lon="9.2500225"><ele>403.99999999999994</ele><time>2026-05-03T13:45:01.973Z</time></trkpt><trkpt lat="36.4559084" lon="9.2500247"><ele>404.0</ele><time>2026-05-03T13:45:02.97Z</time></trkpt><trkpt lat="36.4560037" lon="9.2500304"><ele>404.0</ele><time>2026-05-03T13:45:03.969Z</time></trkpt><trkpt lat="36.4560912" lon="9.2500352"><ele>404.0</ele><time>2026-05-03T13:45:04.974Z</time></trkpt><trkpt lat="36.456184" lon="9.250045"><ele>404.0</ele><time>2026-05-03T13:45:05.955Z</time></trkpt><trkpt lat="36.45628" lon="9.2500426"><ele>404.0</ele><time>2026-05-03T13:45:06.978Z</time></trkpt><trkpt lat="36.4563833" lon="9.250052"><ele>404.0</ele><time>2026-05-03T13:45:07.964Z</time></trkpt><trkpt lat="36.456488" lon="9.2500516"><ele>403.79999999999995</ele><time>2026-05-03T13:45:08.977Z</time></trkpt><trkpt lat="36.4565914" lon="9.2500516"><ele>403.59999999999997</ele><time>2026-05-03T13:45:09.987Z</time></trkpt><trkpt lat="36.4566926" lon="9.2500532"><ele>403.4</ele><time>2026-05-03T13:45:10.978Z</time></trkpt><trkpt lat="36.4567955" lon="9.2500587"><ele>403.2</ele><time>2026-05-03T13:45:11.975Z</time></trkpt><trkpt lat="36.4569018" lon="9.2500636"><ele>403.0</ele><time>2026-05-03T13:45:12.978Z</time></trkpt><trkpt lat="36.4570019" lon="9.250069"><ele>403.00000000000006</ele><time>2026-05-03T13:45:13.998Z</time></trkpt><trkpt lat="36.4571017" lon="9.2500652"><ele>403.0</ele><time>2026-05-03T13:45:14.993Z</time></trkpt><trkpt lat="36.4571939" lon="9.250059"><ele>403.0</ele><time>2026-05-03T13:45:15.962Z</time></trkpt><trkpt lat="36.4572603" lon="9.2500462"><ele>403.0</ele><time>2026-05-03T13:45:16.987Z</time></trkpt><trkpt lat="36.4573507" lon="9.2500015"><ele>403.00000000000006</ele><time>2026-05-03T13:45:18.985Z</time></trkpt><trkpt lat="36.4574116" lon="9.2499342"><ele>403.0</ele><time>2026-05-03T13:45:21.978Z</time></trkpt><trkpt lat="36.457436" lon="9.2498526"><ele>404.0</ele><time>2026-05-03T13:45:23.967Z</time></trkpt><trkpt lat="36.4574465" lon="9.2497202"><ele>405.0</ele><time>2026-05-03T13:45:25.934Z</time></trkpt><trkpt lat="36.4574295" lon="9.2495651"><ele>406.0</ele><time>2026-05-03T13:45:27.96Z</time></trkpt><trkpt lat="36.4574131" lon="9.2494733"><ele>407.0</ele><time>2026-05-03T13:45:28.994Z</time></trkpt><trkpt lat="36.4573926" lon="9.2493842"><ele>408.0</ele><time>2026-05-03T13:45:29.981Z</time></trkpt><trkpt lat="36.4573736" lon="9.2493025"><ele>408.0</ele><time>2026-05-03T13:45:30.97Z</time></trkpt><trkpt lat="36.4573424" lon="9.2491589"><ele>408.0</ele><time>2026-05-03T13:45:32.987Z</time></trkpt><trkpt lat="36.4573144" lon="9.2490245"><ele>408.0</ele><time>2026-05-03T13:45:34.967Z</time></trkpt><trkpt lat="36.4572963" lon="9.2488893"><ele>408.0</ele><time>2026-05-03T13:45:36.975Z</time></trkpt><trkpt lat="36.45729" lon="9.2487615"><ele>408.0</ele><time>2026-05-03T13:45:38.981Z</time></trkpt><trkpt lat="36.4572725" lon="9.2486503"><ele>413.0</ele><time>2026-05-03T13:45:40.968Z</time></trkpt><trkpt lat="36.4572443" lon="9.2485675"><ele>413.0</ele><time>2026-05-03T13:45:43.975Z</time></trkpt><trkpt lat="36.4572428" lon="9.2484797"><ele>413.0</ele><time>2026-05-03T13:45:58.931Z</time></trkpt></trkseg><trkseg><trkpt lat="36.4570733" lon="9.2484114"><ele>413.8333333333333</ele><time>2026-05-03T15:21:46.953Z</time></trkpt><trkpt lat="36.4571433" lon="9.2484586"><ele>413.66666666666663</ele><time>2026-05-03T15:21:51.937Z</time></trkpt><trkpt lat="36.4572362" lon="9.2484896"><ele>413.5</ele><time>2026-05-03T15:22:28.943Z</time></trkpt><trkpt lat="36.4572361" lon="9.2485829"><ele>413.3333333333333</ele><time>2026-05-03T15:24:03.935Z</time></trkpt><trkpt lat="36.4572603" lon="9.2486668"><ele>413.16666666666663</ele><time>2026-05-03T15:24:43.961Z</time></trkpt><trkpt lat="36.4572549" lon="9.2487719"><ele>413.0</ele><time>2026-05-03T15:25:03.973Z</time></trkpt><trkpt lat="36.4572762" lon="9.248867"><ele>412.16666666666663</ele><time>2026-05-03T15:25:05.959Z</time></trkpt><trkpt lat="36.4572974" lon="9.2489826"><ele>411.3333333333333</ele><time>2026-05-03T15:25:07.932Z</time></trkpt><trkpt lat="36.4573158" lon="9.2490724"><ele>410.5</ele><time>2026-05-03T15:25:09.936Z</time></trkpt><trkpt lat="36.4573426" lon="9.249196"><ele>409.66666666666663</ele><time>2026-05-03T15:25:11.953Z</time></trkpt><trkpt lat="36.457365" lon="9.2493057"><ele>408.8333333333333</ele><time>2026-05-03T15:25:13.947Z</time></trkpt><trkpt lat="36.4573751" lon="9.2494064"><ele>408.0</ele><time>2026-05-03T15:25:15.959Z</time></trkpt><trkpt lat="36.4573884" lon="9.2495182"><ele>408.0</ele><time>2026-05-03T15:25:17.947Z</time></trkpt><trkpt lat="36.4574105" lon="9.2496379"><ele>408.0</ele><time>2026-05-03T15:25:19.951Z</time></trkpt><trkpt lat="36.4574098" lon="9.2497464"><ele>408.0</ele><time>2026-05-03T15:25:21.959Z</time></trkpt><trkpt lat="36.4573909" lon="9.2498437"><ele>408.0</ele><time>2026-05-03T15:25:24.975Z</time></trkpt><trkpt lat="36.457396" lon="9.2499311"><ele>408.0</ele><time>2026-05-03T15:25:31.955Z</time></trkpt><trkpt lat="36.457488" lon="9.249966"><ele>408.0</ele><time>2026-05-03T15:25:34.935Z</time></trkpt><trkpt lat="36.457614" lon="9.2499193"><ele>408.0</ele><time>2026-05-03T15:25:36.966Z</time></trkpt><trkpt lat="36.4576813" lon="9.2498843"><ele>408.0</ele><time>2026-05-03T15:25:37.958Z</time></trkpt><trkpt lat="36.4577428" lon="9.2498534"><ele>408.0</ele><time>2026-05-03T15:25:38.966Z</time></trkpt><trkpt lat="36.4578372" lon="9.2497605"><ele>408.0</ele><time>2026-05-03T15:25:40.964Z</time></trkpt><trkpt lat="36.4578881" lon="9.2497061"><ele>408.0</ele><time>2026-05-03T15:25:41.955Z</time></trkpt><trkpt lat="36.457943" lon="9.2496544"><ele>408.0</ele><time>2026-05-03T15:25:42.965Z</time></trkpt><trkpt lat="36.4579921" lon="9.2496028"><ele>407.8333333333333</ele><time>2026-05-03T15:25:43.953Z</time></trkpt><trkpt lat="36.4580418" lon="9.2495443"><ele>407.66666666666663</ele><time>2026-05-03T15:25:44.947Z</time></trkpt><trkpt lat="36.4580935" lon="9.24949"><ele>407.5</ele><time>2026-05-03T15:25:45.949Z</time></trkpt><trkpt lat="36.4581443" lon="9.2494382"><ele>407.3333333333333</ele><time>2026-05-03T15:25:46.956Z</time></trkpt><trkpt lat="36.4582393" lon="9.2493517"><ele>407.16666666666663</ele><time>2026-05-03T15:25:48.954Z</time></trkpt><trkpt lat="36.4583209" lon="9.2492669"><ele>407.0</ele><time>2026-05-03T15:25:50.961Z</time></trkpt><trkpt lat="36.4584157" lon="9.249185"><ele>406.99999999999994</ele><time>2026-05-03T15:25:52.959Z</time></trkpt><trkpt lat="36.4584752" lon="9.2491321"><ele>407.0</ele><time>2026-05-03T15:25:53.96Z</time></trkpt><trkpt lat="36.4585424" lon="9.2490737"><ele>407.0</ele><time>2026-05-03T15:25:54.941Z</time></trkpt><trkpt lat="36.4586116" lon="9.2490142"><ele>407.0</ele><time>2026-05-03T15:25:55.967Z</time></trkpt><trkpt lat="36.4586838" lon="9.2489507"><ele>406.99999999999994</ele><time>2026-05-03T15:25:56.944Z</time></trkpt><trkpt lat="36.4587583" lon="9.248881"><ele>407.0</ele><time>2026-05-03T15:25:57.947Z</time></trkpt><trkpt lat="36.4588311" lon="9.2488109"><ele>405.99999999999994</ele><time>2026-05-03T15:25:58.959Z</time></trkpt><trkpt lat="36.4588971" lon="9.2487394"><ele>405.0</ele><time>2026-05-03T15:25:59.951Z</time></trkpt><trkpt lat="36.4589516" lon="9.2486566"><ele>404.0</ele><time>2026-05-03T15:26:00.946Z</time></trkpt><trkpt lat="36.4589723" lon="9.2485518"><ele>403.0</ele><time>2026-05-03T15:26:01.95Z</time></trkpt><trkpt lat="36.4589843" lon="9.2484437"><ele>401.99999999999994</ele><time>2026-05-03T15:26:02.938Z</time></trkpt><trkpt lat="36.458984" lon="9.2483387"><ele>401.0</ele><time>2026-05-03T15:26:03.987Z</time></trkpt><trkpt lat="36.4589911" lon="9.2482372"><ele>400.99999999999994</ele><time>2026-05-03T15:26:04.972Z</time></trkpt><trkpt lat="36.4590095" lon="9.2481312"><ele>401.0</ele><time>2026-05-03T15:26:05.975Z</time></trkpt><trkpt lat="36.4590254" lon="9.2480315"><ele>401.0</ele><time>2026-05-03T15:26:06.959Z</time></trkpt><trkpt lat="36.4590402" lon="9.2479356"><ele>401.0</ele><time>2026-05-03T15:26:07.943Z</time></trkpt><trkpt lat="36.4590603" lon="9.2478365"><ele>400.99999999999994</ele><time>2026-05-03T15:26:08.948Z</time></trkpt><trkpt lat="36.4590899" lon="9.2477398"><ele>401.0</ele><time>2026-05-03T15:26:09.958Z</time></trkpt><trkpt lat="36.4591184" lon="9.2476483"><ele>402.49999999999994</ele><time>2026-05-03T15:26:10.947Z</time></trkpt><trkpt lat="36.459143" lon="9.2475576"><ele>404.0</ele><time>2026-05-03T15:26:11.952Z</time></trkpt><trkpt lat="36.4591675" lon="9.2474636"><ele>405.5</ele><time>2026-05-03T15:26:12.974Z</time></trkpt><trkpt lat="36.4591888" lon="9.2473779"><ele>407.0</ele><time>2026-05-03T15:26:13.951Z</time></trkpt><trkpt lat="36.4592113" lon="9.2472882"><ele>408.49999999999994</ele><time>2026-05-03T15:26:14.935Z</time></trkpt><trkpt lat="36.4592329" lon="9.2472012"><ele>410.0</ele><time>2026-05-03T15:26:15.94Z</time></trkpt><trkpt lat="36.459257" lon="9.2471136"><ele>410.66666666666663</ele><time>2026-05-03T15:26:16.924Z</time></trkpt><trkpt lat="36.4592832" lon="9.2470195"><ele>411.3333333333333</ele><time>2026-05-03T15:26:17.937Z</time></trkpt><trkpt lat="36.459317" lon="9.2469255"><ele>412.0</ele><time>2026-05-03T15:26:18.929Z</time></trkpt><trkpt lat="36.4593515" lon="9.2468432"><ele>412.66666666666663</ele><time>2026-05-03T15:26:19.934Z</time></trkpt><trkpt lat="36.4593815" lon="9.2467526"><ele>413.3333333333333</ele><time>2026-05-03T15:26:20.946Z</time></trkpt><trkpt lat="36.4594257" lon="9.2466664"><ele>414.0</ele><time>2026-05-03T15:26:21.926Z</time></trkpt><trkpt lat="36.4594669" lon="9.2465815"><ele>414.00000000000006</ele><time>2026-05-03T15:26:22.931Z</time></trkpt><trkpt lat="36.4595075" lon="9.246499"><ele>414.0</ele><time>2026-05-03T15:26:23.96Z</time></trkpt><trkpt lat="36.4595434" lon="9.2464168"><ele>414.0</ele><time>2026-05-03T15:26:24.97Z</time></trkpt><trkpt lat="36.4595824" lon="9.2463458"><ele>414.0</ele><time>2026-05-03T15:26:25.95Z</time></trkpt><trkpt lat="36.4596221" lon="9.246271"><ele>414.0</ele><time>2026-05-03T15:26:26.973Z</time></trkpt><trkpt lat="36.4596702" lon="9.2462094"><ele>414.00000000000006</ele><time>2026-05-03T15:26:27.962Z</time></trkpt><trkpt lat="36.4597294" lon="9.2461394"><ele>414.0</ele><time>2026-05-03T15:26:28.954Z</time></trkpt><trkpt lat="36.4597939" lon="9.2460739"><ele>412.79999999999995</ele><time>2026-05-03T15:26:29.956Z</time></trkpt><trkpt lat="36.4598659" lon="9.2460128"><ele>411.59999999999997</ele><time>2026-05-03T15:26:30.93Z</time></trkpt><trkpt lat="36.4599417" lon="9.2459607"><ele>410.4</ele><time>2026-05-03T15:26:31.963Z</time></trkpt><trkpt lat="36.4600201" lon="9.2459094"><ele>409.2</ele><time>2026-05-03T15:26:32.962Z</time></trkpt><trkpt lat="36.4601" lon="9.2458476"><ele>408.0</ele><time>2026-05-03T15:26:33.963Z</time></trkpt><trkpt lat="36.4601752" lon="9.2457711"><ele>408.0</ele><time>2026-05-03T15:26:34.966Z</time></trkpt><trkpt lat="36.4602445" lon="9.2456677"><ele>408.0</ele><time>2026-05-03T15:26:35.949Z</time></trkpt><trkpt lat="36.4603088" lon="9.2455494"><ele>408.0</ele><time>2026-05-03T15:26:36.945Z</time></trkpt><trkpt lat="36.4603692" lon="9.2454239"><ele>408.0</ele><time>2026-05-03T15:26:37.957Z</time></trkpt><trkpt lat="36.4604287" lon="9.245293"><ele>407.25</ele><time>2026-05-03T15:26:38.952Z</time></trkpt><trkpt lat="36.4604866" lon="9.2451637"><ele>406.5</ele><time>2026-05-03T15:26:39.952Z</time></trkpt><trkpt lat="36.4605522" lon="9.2450377"><ele>405.75</ele><time>2026-05-03T15:26:40.949Z</time></trkpt><trkpt lat="36.4606221" lon="9.2449182"><ele>405.0</ele><time>2026-05-03T15:26:41.952Z</time></trkpt><trkpt lat="36.460695" lon="9.244795"><ele>405.0</ele><time>2026-05-03T15:26:42.959Z</time></trkpt><trkpt lat="36.4607728" lon="9.244681"><ele>405.0</ele><time>2026-05-03T15:26:43.978Z</time></trkpt><trkpt lat="36.460854" lon="9.2445726"><ele>405.0</ele><time>2026-05-03T15:26:44.96Z</time></trkpt><trkpt lat="36.4609369" lon="9.2444733"><ele>405.0</ele><time>2026-05-03T15:26:45.965Z</time></trkpt><trkpt lat="36.4610139" lon="9.2443671"><ele>405.0</ele><time>2026-05-03T15:26:46.956Z</time></trkpt><trkpt lat="36.4610834" lon="9.2442481"><ele>405.0</ele><time>2026-05-03T15:26:47.962Z</time></trkpt><trkpt lat="36.4611384" lon="9.2441148"><ele>405.0</ele><time>2026-05-03T15:26:48.955Z</time></trkpt><trkpt lat="36.4611775" lon="9.2439639"><ele>405.0</ele><time>2026-05-03T15:26:49.97Z</time></trkpt><trkpt lat="36.4611804" lon="9.2438066"><ele>404.5</ele><time>2026-05-03T15:26:50.964Z</time></trkpt><trkpt lat="36.4611623" lon="9.2436461"><ele>404.0</ele><time>2026-05-03T15:26:51.963Z</time></trkpt><trkpt lat="36.4611454" lon="9.2434777"><ele>403.5</ele><time>2026-05-03T15:26:52.946Z</time></trkpt><trkpt lat="36.4611389" lon="9.2433171"><ele>403.0</ele><time>2026-05-03T15:26:53.962Z</time></trkpt><trkpt lat="36.4611431" lon="9.243164"><ele>402.0</ele><time>2026-05-03T15:26:54.951Z</time></trkpt><trkpt lat="36.4611749" lon="9.2430392"><ele>401.0</ele><time>2026-05-03T15:26:55.946Z</time></trkpt><trkpt lat="36.4612254" lon="9.2429226"><ele>400.0</ele><time>2026-05-03T15:26:56.955Z</time></trkpt><trkpt lat="36.4612707" lon="9.2428375"><ele>399.0</ele><time>2026-05-03T15:26:57.955Z</time></trkpt><trkpt lat="36.4613545" lon="9.2427539"><ele>398.0</ele><time>2026-05-03T15:26:59.945Z</time></trkpt><trkpt lat="36.4614427" lon="9.2427109"><ele>397.16666666666663</ele><time>2026-05-03T15:27:01.962Z</time></trkpt><trkpt lat="36.4615455" lon="9.2427224"><ele>396.3333333333333</ele><time>2026-05-03T15:27:03.95Z</time></trkpt><trkpt lat="36.461607" lon="9.2427459"><ele>395.5</ele><time>2026-05-03T15:27:04.956Z</time></trkpt><trkpt lat="36.461668" lon="9.2427872"><ele>394.66666666666663</ele><time>2026-05-03T15:27:05.958Z</time></trkpt><trkpt lat="36.4617282" lon="9.2428275"><ele>393.8333333333333</ele><time>2026-05-03T15:27:06.959Z</time></trkpt><trkpt lat="36.4617897" lon="9.2429105"><ele>393.0</ele><time>2026-05-03T15:27:07.966Z</time></trkpt><trkpt lat="36.4618436" lon="9.2430151"><ele>393.0</ele><time>2026-05-03T15:27:08.965Z</time></trkpt><trkpt lat="36.4618895" lon="9.2431254"><ele>393.0</ele><time>2026-05-03T15:27:09.97Z</time></trkpt><trkpt lat="36.4619355" lon="9.2432435"><ele>393.0</ele><time>2026-05-03T15:27:10.973Z</time></trkpt><trkpt lat="36.4619891" lon="9.2433557"><ele>393.0</ele><time>2026-05-03T15:27:11.951Z</time></trkpt><trkpt lat="36.4620354" lon="9.2434535"><ele>393.0</ele><time>2026-05-03T15:27:12.957Z</time></trkpt><trkpt lat="36.4620819" lon="9.2435408"><ele>392.8333333333333</ele><time>2026-05-03T15:27:13.965Z</time></trkpt><trkpt lat="36.4621238" lon="9.2436285"><ele>392.66666666666663</ele><time>2026-05-03T15:27:14.951Z</time></trkpt><trkpt lat="36.4621632" lon="9.243706"><ele>392.5</ele><time>2026-05-03T15:27:15.959Z</time></trkpt><trkpt lat="36.4621988" lon="9.2437832"><ele>392.3333333333333</ele><time>2026-05-03T15:27:16.967Z</time></trkpt><trkpt lat="36.4622422" lon="9.2438685"><ele>392.16666666666663</ele><time>2026-05-03T15:27:17.952Z</time></trkpt><trkpt lat="36.4622836" lon="9.2439502"><ele>392.0</ele><time>2026-05-03T15:27:18.965Z</time></trkpt><trkpt lat="36.4623265" lon="9.2440403"><ele>391.66666666666663</ele><time>2026-05-03T15:27:19.958Z</time></trkpt><trkpt lat="36.4623622" lon="9.2441359"><ele>391.3333333333333</ele><time>2026-05-03T15:27:20.948Z</time></trkpt><trkpt lat="36.4623923" lon="9.2442371"><ele>391.0</ele><time>2026-05-03T15:27:21.945Z</time></trkpt><trkpt lat="36.4624143" lon="9.2443409"><ele>390.66666666666663</ele><time>2026-05-03T15:27:22.946Z</time></trkpt><trkpt lat="36.4624193" lon="9.2444471"><ele>390.3333333333333</ele><time>2026-05-03T15:27:23.949Z</time></trkpt><trkpt lat="36.4624055" lon="9.2445559"><ele>390.0</ele><time>2026-05-03T15:27:24.943Z</time></trkpt><trkpt lat="36.4623879" lon="9.2446705"><ele>390.0</ele><time>2026-05-03T15:27:25.958Z</time></trkpt><trkpt lat="36.4623504" lon="9.2447811"><ele>390.0</ele><time>2026-05-03T15:27:26.95Z</time></trkpt><trkpt lat="36.4623132" lon="9.2449037"><ele>390.0</ele><time>2026-05-03T15:27:27.942Z</time></trkpt><trkpt lat="36.4622698" lon="9.2450354"><ele>390.0</ele><time>2026-05-03T15:27:28.952Z</time></trkpt><trkpt lat="36.4622289" lon="9.2451683"><ele>390.0</ele><time>2026-05-03T15:27:29.969Z</time></trkpt><trkpt lat="36.4621899" lon="9.2453035"><ele>389.75</ele><time>2026-05-03T15:27:30.958Z</time></trkpt><trkpt lat="36.462148" lon="9.2454401"><ele>389.5</ele><time>2026-05-03T15:27:31.945Z</time></trkpt><trkpt lat="36.4621037" lon="9.2455907"><ele>389.25</ele><time>2026-05-03T15:27:32.95Z</time></trkpt><trkpt lat="36.4620542" lon="9.2457386"><ele>389.0</ele><time>2026-05-03T15:27:33.951Z</time></trkpt><trkpt lat="36.4620073" lon="9.2458779"><ele>388.6</ele><time>2026-05-03T15:27:34.978Z</time></trkpt><trkpt lat="36.4619692" lon="9.2459995"><ele>388.2</ele><time>2026-05-03T15:27:35.975Z</time></trkpt><trkpt lat="36.4619314" lon="9.2461041"><ele>387.8</ele><time>2026-05-03T15:27:36.939Z</time></trkpt><trkpt lat="36.4618968" lon="9.2461996"><ele>387.40000000000003</ele><time>2026-05-03T15:27:37.974Z</time></trkpt><trkpt lat="36.4618654" lon="9.246299"><ele>387.0</ele><time>2026-05-03T15:27:38.953Z</time></trkpt><trkpt lat="36.4618325" lon="9.2463948"><ele>386.20000000000005</ele><time>2026-05-03T15:27:39.986Z</time></trkpt><trkpt lat="36.4617986" lon="9.2465039"><ele>385.4</ele><time>2026-05-03T15:27:40.942Z</time></trkpt><trkpt lat="36.4617646" lon="9.246617"><ele>384.6</ele><time>2026-05-03T15:27:41.968Z</time></trkpt><trkpt lat="36.4617321" lon="9.2467274"><ele>383.79999999999995</ele><time>2026-05-03T15:27:42.96Z</time></trkpt><trkpt lat="36.4616948" lon="9.2468361"><ele>383.0</ele><time>2026-05-03T15:27:43.975Z</time></trkpt><trkpt lat="36.4616625" lon="9.2469364"><ele>383.0</ele><time>2026-05-03T15:27:44.947Z</time></trkpt><trkpt lat="36.4616337" lon="9.247022"><ele>383.0</ele><time>2026-05-03T15:27:45.974Z</time></trkpt><trkpt lat="36.4616154" lon="9.247104"><ele>383.0</ele><time>2026-05-03T15:27:46.95Z</time></trkpt><trkpt lat="36.4615927" lon="9.2472589"><ele>383.0</ele><time>2026-05-03T15:27:48.972Z</time></trkpt><trkpt lat="36.4615828" lon="9.2474156"><ele>383.0</ele><time>2026-05-03T15:27:50.973Z</time></trkpt><trkpt lat="36.4615885" lon="9.2474981"><ele>382.79999999999995</ele><time>2026-05-03T15:27:51.963Z</time></trkpt><trkpt lat="36.4615986" lon="9.2475917"><ele>382.6</ele><time>2026-05-03T15:27:52.957Z</time></trkpt><trkpt lat="36.4616093" lon="9.2476945"><ele>382.4</ele><time>2026-05-03T15:27:53.963Z</time></trkpt><trkpt lat="36.4616236" lon="9.247812"><ele>382.20000000000005</ele><time>2026-05-03T15:27:54.952Z</time></trkpt><trkpt lat="36.4616411" lon="9.2479392"><ele>382.0</ele><time>2026-05-03T15:27:55.96Z</time></trkpt><trkpt lat="36.4616574" lon="9.2480637"><ele>381.8</ele><time>2026-05-03T15:27:56.943Z</time></trkpt><trkpt lat="36.46168" lon="9.2481962"><ele>381.6</ele><time>2026-05-03T15:27:57.967Z</time></trkpt><trkpt lat="36.4616991" lon="9.2483274"><ele>381.40000000000003</ele><time>2026-05-03T15:27:58.977Z</time></trkpt><trkpt lat="36.4617135" lon="9.2484611"><ele>381.20000000000005</ele><time>2026-05-03T15:27:59.961Z</time></trkpt><trkpt lat="36.4617162" lon="9.2485987"><ele>381.0</ele><time>2026-05-03T15:28:00.941Z</time></trkpt><trkpt lat="36.4616998" lon="9.2487355"><ele>381.0</ele><time>2026-05-03T15:28:01.957Z</time></trkpt><trkpt lat="36.4616672" lon="9.2488754"><ele>381.0</ele><time>2026-05-03T15:28:02.948Z</time></trkpt><trkpt lat="36.4616233" lon="9.2490208"><ele>381.0</ele><time>2026-05-03T15:28:03.961Z</time></trkpt><trkpt lat="36.4615684" lon="9.2491641"><ele>381.0</ele><time>2026-05-03T15:28:04.95Z</time></trkpt><trkpt lat="36.4615168" lon="9.2493128"><ele>381.0</ele><time>2026-05-03T15:28:05.946Z</time></trkpt><trkpt lat="36.4614629" lon="9.2494696"><ele>381.0</ele><time>2026-05-03T15:28:06.954Z</time></trkpt><trkpt lat="36.4614109" lon="9.2496256"><ele>381.0</ele><time>2026-05-03T15:28:07.946Z</time></trkpt><trkpt lat="36.4613526" lon="9.2497839"><ele>381.0</ele><time>2026-05-03T15:28:08.948Z</time></trkpt><trkpt lat="36.4612958" lon="9.2499415"><ele>379.5</ele><time>2026-05-03T15:28:09.958Z</time></trkpt><trkpt lat="36.4612413" lon="9.2500926"><ele>378.0</ele><time>2026-05-03T15:28:10.944Z</time></trkpt><trkpt lat="36.4611868" lon="9.2502387"><ele>376.5</ele><time>2026-05-03T15:28:11.959Z</time></trkpt><trkpt lat="36.4611347" lon="9.2503805"><ele>375.0</ele><time>2026-05-03T15:28:12.957Z</time></trkpt><trkpt lat="36.4610795" lon="9.2505221"><ele>374.75</ele><time>2026-05-03T15:28:13.949Z</time></trkpt><trkpt lat="36.4610318" lon="9.2506728"><ele>374.5</ele><time>2026-05-03T15:28:14.939Z</time></trkpt><trkpt lat="36.4609941" lon="9.2508322"><ele>374.25</ele><time>2026-05-03T15:28:15.958Z</time></trkpt><trkpt lat="36.4609661" lon="9.2509911"><ele>374.0</ele><time>2026-05-03T15:28:16.958Z</time></trkpt><trkpt lat="36.4609417" lon="9.2511571"><ele>374.0</ele><time>2026-05-03T15:28:17.958Z</time></trkpt><trkpt lat="36.4609379" lon="9.2513189"><ele>374.0</ele><time>2026-05-03T15:28:18.944Z</time></trkpt><trkpt lat="36.4609475" lon="9.2514846"><ele>374.0</ele><time>2026-05-03T15:28:19.945Z</time></trkpt><trkpt lat="36.4609517" lon="9.2516467"><ele>374.0</ele><time>2026-05-03T15:28:20.951Z</time></trkpt><trkpt lat="36.4609362" lon="9.2518007"><ele>375.0</ele><time>2026-05-03T15:28:21.961Z</time></trkpt><trkpt lat="36.4608999" lon="9.2519359"><ele>376.0</ele><time>2026-05-03T15:28:22.95Z</time></trkpt><trkpt lat="36.4608468" lon="9.2520748"><ele>377.0</ele><time>2026-05-03T15:28:23.956Z</time></trkpt><trkpt lat="36.4607605" lon="9.2522156"><ele>378.0</ele><time>2026-05-03T15:28:24.946Z</time></trkpt><trkpt lat="36.4606535" lon="9.2523514"><ele>379.6666666666667</ele><time>2026-05-03T15:28:25.982Z</time></trkpt><trkpt lat="36.4605517" lon="9.252489"><ele>381.33333333333337</ele><time>2026-05-03T15:28:26.967Z</time></trkpt><trkpt lat="36.4604468" lon="9.2526248"><ele>383.0</ele><time>2026-05-03T15:28:27.95Z</time></trkpt><trkpt lat="36.4603409" lon="9.2527605"><ele>379.75</ele><time>2026-05-03T15:28:28.939Z</time></trkpt><trkpt lat="36.4602375" lon="9.252899"><ele>376.5</ele><time>2026-05-03T15:28:29.937Z</time></trkpt><trkpt lat="36.4601376" lon="9.2530357"><ele>373.25</ele><time>2026-05-03T15:28:30.968Z</time></trkpt><trkpt lat="36.4600386" lon="9.2531721"><ele>370.0</ele><time>2026-05-03T15:28:31.961Z</time></trkpt><trkpt lat="36.4599417" lon="9.253309"><ele>370.0</ele><time>2026-05-03T15:28:32.975Z</time></trkpt><trkpt lat="36.4598546" lon="9.2534515"><ele>370.0</ele><time>2026-05-03T15:28:33.955Z</time></trkpt><trkpt lat="36.4597767" lon="9.2536012"><ele>370.0</ele><time>2026-05-03T15:28:34.945Z</time></trkpt><trkpt lat="36.4597149" lon="9.2537627"><ele>370.0</ele><time>2026-05-03T15:28:35.953Z</time></trkpt><trkpt lat="36.4596699" lon="9.2539275"><ele>370.75</ele><time>2026-05-03T15:28:36.967Z</time></trkpt><trkpt lat="36.4596288" lon="9.2541032"><ele>371.5</ele><time>2026-05-03T15:28:37.945Z</time></trkpt><trkpt lat="36.4595999" lon="9.2542829"><ele>372.25</ele><time>2026-05-03T15:28:38.939Z</time></trkpt><trkpt lat="36.4595841" lon="9.2544706"><ele>373.0</ele><time>2026-05-03T15:28:39.958Z</time></trkpt><trkpt lat="36.4595799" lon="9.2546563"><ele>368.75</ele><time>2026-05-03T15:28:40.97Z</time></trkpt><trkpt lat="36.4595773" lon="9.2548381"><ele>364.5</ele><time>2026-05-03T15:28:41.957Z</time></trkpt><trkpt lat="36.4595756" lon="9.2550174"><ele>360.25</ele><time>2026-05-03T15:28:42.969Z</time></trkpt><trkpt lat="36.4595782" lon="9.2551907"><ele>356.0</ele><time>2026-05-03T15:28:43.937Z</time></trkpt><trkpt lat="36.4595841" lon="9.2553642"><ele>356.0</ele><time>2026-05-03T15:28:44.956Z</time></trkpt><trkpt lat="36.4596025" lon="9.2555369"><ele>356.0</ele><time>2026-05-03T15:28:45.954Z</time></trkpt><trkpt lat="36.4596354" lon="9.2557122"><ele>356.0</ele><time>2026-05-03T15:28:46.962Z</time></trkpt><trkpt lat="36.4596721" lon="9.255887"><ele>356.0</ele><time>2026-05-03T15:28:47.96Z</time></trkpt><trkpt lat="36.4597077" lon="9.2560639"><ele>357.5</ele><time>2026-05-03T15:28:48.956Z</time></trkpt><trkpt lat="36.4597387" lon="9.2562487"><ele>359.0</ele><time>2026-05-03T15:28:49.948Z</time></trkpt><trkpt lat="36.4597666" lon="9.2564313"><ele>360.5</ele><time>2026-05-03T15:28:50.933Z</time></trkpt><trkpt lat="36.4597782" lon="9.2566118"><ele>362.0</ele><time>2026-05-03T15:28:51.945Z</time></trkpt><trkpt lat="36.4597785" lon="9.2567926"><ele>362.0</ele><time>2026-05-03T15:28:52.924Z</time></trkpt><trkpt lat="36.4597728" lon="9.2569759"><ele>362.0</ele><time>2026-05-03T15:28:53.926Z</time></trkpt><trkpt lat="36.4597652" lon="9.2571575"><ele>362.0</ele><time>2026-05-03T15:28:54.938Z</time></trkpt><trkpt lat="36.4597689" lon="9.2573301"><ele>362.0</ele><time>2026-05-03T15:28:55.956Z</time></trkpt><trkpt lat="36.4597962" lon="9.2574945"><ele>360.5</ele><time>2026-05-03T15:28:56.949Z</time></trkpt><trkpt lat="36.4598346" lon="9.2576621"><ele>359.0</ele><time>2026-05-03T15:28:57.956Z</time></trkpt><trkpt lat="36.459875" lon="9.2578298"><ele>357.5</ele><time>2026-05-03T15:28:58.956Z</time></trkpt><trkpt lat="36.4599123" lon="9.2579908"><ele>356.0</ele><time>2026-05-03T15:28:59.957Z</time></trkpt><trkpt lat="36.4599456" lon="9.258141"><ele>355.33333333333337</ele><time>2026-05-03T15:29:00.936Z</time></trkpt><trkpt lat="36.4599708" lon="9.2582758"><ele>354.6666666666667</ele><time>2026-05-03T15:29:01.958Z</time></trkpt><trkpt lat="36.4599869" lon="9.2583946"><ele>354.0</ele><time>2026-05-03T15:29:02.954Z</time></trkpt><trkpt lat="36.4599957" lon="9.2585032"><ele>353.3333333333333</ele><time>2026-05-03T15:29:03.946Z</time></trkpt><trkpt lat="36.4599915" lon="9.2586011"><ele>352.66666666666663</ele><time>2026-05-03T15:29:04.959Z</time></trkpt><trkpt lat="36.459983" lon="9.2586787"><ele>352.0</ele><time>2026-05-03T15:29:05.956Z</time></trkpt><trkpt lat="36.4599379" lon="9.2588092"><ele>352.0</ele><time>2026-05-03T15:29:07.95Z</time></trkpt><trkpt lat="36.4599298" lon="9.258947"><ele>352.0</ele><time>2026-05-03T15:29:09.948Z</time></trkpt><trkpt lat="36.4599558" lon="9.2590316"><ele>352.0</ele><time>2026-05-03T15:29:10.96Z</time></trkpt><trkpt lat="36.4600047" lon="9.2591027"><ele>352.0</ele><time>2026-05-03T15:29:11.942Z</time></trkpt><trkpt lat="36.4600786" lon="9.2591789"><ele>352.0</ele><time>2026-05-03T15:29:12.953Z</time></trkpt><trkpt lat="36.4601664" lon="9.2592686"><ele>350.0</ele><time>2026-05-03T15:29:13.96Z</time></trkpt><trkpt lat="36.4602509" lon="9.2593898"><ele>348.0</ele><time>2026-05-03T15:29:14.959Z</time></trkpt><trkpt lat="36.4603485" lon="9.2595335"><ele>346.0</ele><time>2026-05-03T15:29:15.941Z</time></trkpt><trkpt lat="36.4604699" lon="9.2596982"><ele>347.0</ele><time>2026-05-03T15:29:16.945Z</time></trkpt><trkpt lat="36.4606075" lon="9.2598832"><ele>348.0</ele><time>2026-05-03T15:29:17.951Z</time></trkpt><trkpt lat="36.4607534" lon="9.2600722"><ele>349.0</ele><time>2026-05-03T15:29:18.944Z</time></trkpt><trkpt lat="36.4609053" lon="9.2602579"><ele>349.0</ele><time>2026-05-03T15:29:19.935Z</time></trkpt><trkpt lat="36.461057" lon="9.260445"><ele>349.0</ele><time>2026-05-03T15:29:20.927Z</time></trkpt><trkpt lat="36.4612072" lon="9.2606191"><ele>349.0</ele><time>2026-05-03T15:29:21.959Z</time></trkpt><trkpt lat="36.461356" lon="9.2607817"><ele>348.66666666666663</ele><time>2026-05-03T15:29:22.94Z</time></trkpt><trkpt lat="36.4615108" lon="9.2609403"><ele>348.3333333333333</ele><time>2026-05-03T15:29:23.937Z</time></trkpt><trkpt lat="36.4616629" lon="9.261089"><ele>348.0</ele><time>2026-05-03T15:29:24.962Z</time></trkpt><trkpt lat="36.461811" lon="9.2612351"><ele>348.0</ele><time>2026-05-03T15:29:25.948Z</time></trkpt><trkpt lat="36.4619569" lon="9.2613719"><ele>348.0</ele><time>2026-05-03T15:29:26.949Z</time></trkpt><trkpt lat="36.4620961" lon="9.2614972"><ele>348.0</ele><time>2026-05-03T15:29:27.964Z</time></trkpt><trkpt lat="36.4622309" lon="9.2616208"><ele>347.3333333333333</ele><time>2026-05-03T15:29:28.963Z</time></trkpt><trkpt lat="36.4623597" lon="9.2617391"><ele>346.66666666666663</ele><time>2026-05-03T15:29:29.961Z</time></trkpt><trkpt lat="36.4624864" lon="9.2618611"><ele>346.0</ele><time>2026-05-03T15:29:30.964Z</time></trkpt><trkpt lat="36.4626051" lon="9.26198"><ele>346.0</ele><time>2026-05-03T15:29:31.952Z</time></trkpt><trkpt lat="36.46271" lon="9.2621035"><ele>346.0</ele><time>2026-05-03T15:29:32.953Z</time></trkpt><trkpt lat="36.4628023" lon="9.262226"><ele>346.0</ele><time>2026-05-03T15:29:33.958Z</time></trkpt><trkpt lat="36.4628898" lon="9.2623501"><ele>346.0</ele><time>2026-05-03T15:29:34.944Z</time></trkpt><trkpt lat="36.4629691" lon="9.2624712"><ele>345.20000000000005</ele><time>2026-05-03T15:29:35.929Z</time></trkpt><trkpt lat="36.4630387" lon="9.2625876"><ele>344.40000000000003</ele><time>2026-05-03T15:29:36.973Z</time></trkpt><trkpt lat="36.4630928" lon="9.2626985"><ele>343.6</ele><time>2026-05-03T15:29:37.952Z</time></trkpt><trkpt lat="36.4631376" lon="9.2628018"><ele>342.8</ele><time>2026-05-03T15:29:38.951Z</time></trkpt><trkpt lat="36.4631726" lon="9.2628855"><ele>342.0</ele><time>2026-05-03T15:29:39.962Z</time></trkpt><trkpt lat="36.4631986" lon="9.2629569"><ele>341.99999999999994</ele><time>2026-05-03T15:29:40.94Z</time></trkpt><trkpt lat="36.4632268" lon="9.2630367"><ele>342.0</ele><time>2026-05-03T15:29:42.971Z</time></trkpt><trkpt lat="36.4632554" lon="9.2631224"><ele>342.0</ele><time>2026-05-03T15:29:46.975Z</time></trkpt><trkpt lat="36.4633101" lon="9.263164"><ele>342.0</ele><time>2026-05-03T15:30:01.955Z</time></trkpt><trkpt lat="36.4633935" lon="9.2631588"><ele>342.0</ele><time>2026-05-03T15:30:04.971Z</time></trkpt><trkpt lat="36.4634666" lon="9.2631428"><ele>341.99999999999994</ele><time>2026-05-03T15:30:11.982Z</time></trkpt><trkpt lat="36.4635317" lon="9.2631264"><ele>342.0</ele><time>2026-05-03T15:33:47.964Z</time></trkpt><trkpt lat="36.4635609" lon="9.2632003"><ele>341.85714285714283</ele><time>2026-05-03T15:33:51.982Z</time></trkpt><trkpt lat="36.4636023" lon="9.2632652"><ele>341.7142857142857</ele><time>2026-05-03T15:34:42.942Z</time></trkpt><trkpt lat="36.4636009" lon="9.2633452"><ele>341.57142857142856</ele><time>2026-05-03T15:34:45.955Z</time></trkpt><trkpt lat="36.4635536" lon="9.2633981"><ele>341.42857142857144</ele><time>2026-05-03T15:34:47.947Z</time></trkpt><trkpt lat="36.4635056" lon="9.2634491"><ele>341.2857142857143</ele><time>2026-05-03T15:34:49.944Z</time></trkpt><trkpt lat="36.4634389" lon="9.2635182"><ele>341.1428571428571</ele><time>2026-05-03T15:34:52.943Z</time></trkpt><trkpt lat="36.4634067" lon="9.263597"><ele>341.0</ele><time>2026-05-03T15:34:54.937Z</time></trkpt><trkpt lat="36.4633828" lon="9.2637496"><ele>341.0</ele><time>2026-05-03T15:34:56.927Z</time></trkpt><trkpt lat="36.4634065" lon="9.2638604"><ele>341.0</ele><time>2026-05-03T15:34:57.944Z</time></trkpt><trkpt lat="36.4634426" lon="9.2640352"><ele>341.0</ele><time>2026-05-03T15:34:58.956Z</time></trkpt><trkpt lat="36.463482" lon="9.2642292"><ele>341.0</ele><time>2026-05-03T15:34:59.951Z</time></trkpt><trkpt lat="36.4635309" lon="9.2644416"><ele>339.6666666666667</ele><time>2026-05-03T15:35:00.933Z</time></trkpt><trkpt lat="36.4635665" lon="9.2646455"><ele>338.3333333333333</ele><time>2026-05-03T15:35:01.96Z</time></trkpt><trkpt lat="36.4636087" lon="9.2648316"><ele>337.0</ele><time>2026-05-03T15:35:02.959Z</time></trkpt><trkpt lat="36.4636486" lon="9.2650179"><ele>336.66666666666663</ele><time>2026-05-03T15:35:03.963Z</time></trkpt><trkpt lat="36.4636917" lon="9.2652163"><ele>336.3333333333333</ele><time>2026-05-03T15:35:04.949Z</time></trkpt><trkpt lat="36.4637393" lon="9.2654214"><ele>336.0</ele><time>2026-05-03T15:35:05.96Z</time></trkpt><trkpt lat="36.4637934" lon="9.2656319"><ele>336.0</ele><time>2026-05-03T15:35:06.94Z</time></trkpt><trkpt lat="36.4638558" lon="9.2658437"><ele>336.0</ele><time>2026-05-03T15:35:07.943Z</time></trkpt><trkpt lat="36.4639241" lon="9.2660645"><ele>336.0</ele><time>2026-05-03T15:35:08.962Z</time></trkpt><trkpt lat="36.4639913" lon="9.2662934"><ele>335.0</ele><time>2026-05-03T15:35:09.961Z</time></trkpt><trkpt lat="36.4640681" lon="9.266522"><ele>334.0</ele><time>2026-05-03T15:35:10.965Z</time></trkpt><trkpt lat="36.4641513" lon="9.2667503"><ele>333.0</ele><time>2026-05-03T15:35:11.958Z</time></trkpt><trkpt lat="36.4642393" lon="9.2669806"><ele>333.0</ele><time>2026-05-03T15:35:12.946Z</time></trkpt><trkpt lat="36.4643343" lon="9.2672156"><ele>333.0</ele><time>2026-05-03T15:35:13.952Z</time></trkpt><trkpt lat="36.4644355" lon="9.2674499"><ele>333.0</ele><time>2026-05-03T15:35:14.975Z</time></trkpt><trkpt lat="36.4645363" lon="9.2676834"><ele>332.0</ele><time>2026-05-03T15:35:15.954Z</time></trkpt><trkpt lat="36.4646403" lon="9.2679265"><ele>331.0</ele><time>2026-05-03T15:35:16.944Z</time></trkpt><trkpt lat="36.4647413" lon="9.2681705"><ele>330.0</ele><time>2026-05-03T15:35:17.924Z</time></trkpt><trkpt lat="36.4648542" lon="9.2684271"><ele>329.0</ele><time>2026-05-03T15:35:18.938Z</time></trkpt><trkpt lat="36.4649644" lon="9.2686912"><ele>328.0</ele><time>2026-05-03T15:35:19.956Z</time></trkpt><trkpt lat="36.465074" lon="9.2689463"><ele>327.0</ele><time>2026-05-03T15:35:20.952Z</time></trkpt><trkpt lat="36.465182" lon="9.2692045"><ele>326.0</ele><time>2026-05-03T15:35:21.96Z</time></trkpt><trkpt lat="36.4652927" lon="9.2694663"><ele>326.0</ele><time>2026-05-03T15:35:22.948Z</time></trkpt><trkpt lat="36.4654019" lon="9.2697253"><ele>326.0</ele><time>2026-05-03T15:35:23.954Z</time></trkpt><trkpt lat="36.4655094" lon="9.2699887"><ele>324.5</ele><time>2026-05-03T15:35:24.947Z</time></trkpt><trkpt lat="36.4656128" lon="9.2702495"><ele>323.0</ele><time>2026-05-03T15:35:25.939Z</time></trkpt><trkpt lat="36.4657153" lon="9.2705183"><ele>322.5</ele><time>2026-05-03T15:35:26.955Z</time></trkpt><trkpt lat="36.4658194" lon="9.2707869"><ele>322.0</ele><time>2026-05-03T15:35:27.965Z</time></trkpt><trkpt lat="36.4659243" lon="9.2710594"><ele>322.0</ele><time>2026-05-03T15:35:28.944Z</time></trkpt><trkpt lat="36.4660206" lon="9.2713317"><ele>322.0</ele><time>2026-05-03T15:35:29.954Z</time></trkpt><trkpt lat="36.4661087" lon="9.2716031"><ele>322.5</ele><time>2026-05-03T15:35:30.954Z</time></trkpt><trkpt lat="36.4661854" lon="9.2718786"><ele>323.0</ele><time>2026-05-03T15:35:31.957Z</time></trkpt><trkpt lat="36.466258" lon="9.2721554"><ele>322.0</ele><time>2026-05-03T15:35:32.961Z</time></trkpt><trkpt lat="36.4663269" lon="9.272439"><ele>321.0</ele><time>2026-05-03T15:35:33.959Z</time></trkpt><trkpt lat="36.4663882" lon="9.272724"><ele>321.0</ele><time>2026-05-03T15:35:34.927Z</time></trkpt><trkpt lat="36.4664467" lon="9.273005"><ele>321.0</ele><time>2026-05-03T15:35:35.963Z</time></trkpt><trkpt lat="36.4664925" lon="9.2732988"><ele>322.0</ele><time>2026-05-03T15:35:36.937Z</time></trkpt><trkpt lat="36.4665292" lon="9.273589"><ele>323.0</ele><time>2026-05-03T15:35:37.96Z</time></trkpt><trkpt lat="36.4665625" lon="9.273882"><ele>322.5</ele><time>2026-05-03T15:35:38.952Z</time></trkpt><trkpt lat="36.4665921" lon="9.2741752"><ele>322.0</ele><time>2026-05-03T15:35:39.955Z</time></trkpt><trkpt lat="36.4666188" lon="9.2744701"><ele>322.0</ele><time>2026-05-03T15:35:40.923Z</time></trkpt><trkpt lat="36.466643" lon="9.2747657"><ele>322.0</ele><time>2026-05-03T15:35:41.952Z</time></trkpt><trkpt lat="36.4666692" lon="9.2750625"><ele>320.5</ele><time>2026-05-03T15:35:42.955Z</time></trkpt><trkpt lat="36.4666968" lon="9.275354"><ele>319.0</ele><time>2026-05-03T15:35:43.923Z</time></trkpt><trkpt lat="36.4667282" lon="9.2756467"><ele>316.5</ele><time>2026-05-03T15:35:44.925Z</time></trkpt><trkpt lat="36.4667573" lon="9.2759399"><ele>314.0</ele><time>2026-05-03T15:35:45.931Z</time></trkpt><trkpt lat="36.4667897" lon="9.276229"><ele>311.5</ele><time>2026-05-03T15:35:46.931Z</time></trkpt><trkpt lat="36.4668181" lon="9.2765215"><ele>309.0</ele><time>2026-05-03T15:35:47.944Z</time></trkpt><trkpt lat="36.4668464" lon="9.2768138"><ele>309.0</ele><time>2026-05-03T15:35:48.953Z</time></trkpt><trkpt lat="36.4668751" lon="9.277105"><ele>309.0</ele><time>2026-05-03T15:35:49.956Z</time></trkpt><trkpt lat="36.4669049" lon="9.2773986"><ele>307.0</ele><time>2026-05-03T15:35:50.941Z</time></trkpt><trkpt lat="36.4669333" lon="9.2776931"><ele>305.0</ele><time>2026-05-03T15:35:51.946Z</time></trkpt><trkpt lat="36.4669629" lon="9.2779859"><ele>300.5</ele><time>2026-05-03T15:35:52.96Z</time></trkpt><trkpt lat="36.4669907" lon="9.2782802"><ele>296.0</ele><time>2026-05-03T15:35:53.928Z</time></trkpt><trkpt lat="36.4670202" lon="9.2785766"><ele>296.0</ele><time>2026-05-03T15:35:54.969Z</time></trkpt><trkpt lat="36.4670508" lon="9.2788691"><ele>296.0</ele><time>2026-05-03T15:35:55.963Z</time></trkpt><trkpt lat="36.4670799" lon="9.2791637"><ele>292.0</ele><time>2026-05-03T15:35:56.937Z</time></trkpt><trkpt lat="36.4671101" lon="9.2794584"><ele>288.0</ele><time>2026-05-03T15:35:57.959Z</time></trkpt><trkpt lat="36.4671428" lon="9.279749"><ele>283.5</ele><time>2026-05-03T15:35:58.94Z</time></trkpt><trkpt lat="36.4671735" lon="9.280035"><ele>279.0</ele><time>2026-05-03T15:35:59.947Z</time></trkpt><trkpt lat="36.4672074" lon="9.2803264"><ele>277.5</ele><time>2026-05-03T15:36:00.925Z</time></trkpt><trkpt lat="36.4672412" lon="9.2806203"><ele>276.0</ele><time>2026-05-03T15:36:01.933Z</time></trkpt><trkpt lat="36.4672833" lon="9.280914"><ele>276.0</ele><time>2026-05-03T15:36:02.925Z</time></trkpt><trkpt lat="36.4673337" lon="9.2812028"><ele>276.0</ele><time>2026-05-03T15:36:03.94Z</time></trkpt><trkpt lat="36.4673909" lon="9.281487"><ele>275.5</ele><time>2026-05-03T15:36:04.949Z</time></trkpt><trkpt lat="36.4674593" lon="9.2817675"><ele>275.0</ele><time>2026-05-03T15:36:05.943Z</time></trkpt><trkpt lat="36.4675304" lon="9.2820502"><ele>272.5</ele><time>2026-05-03T15:36:06.947Z</time></trkpt><trkpt lat="36.4676089" lon="9.2823334"><ele>270.0</ele><time>2026-05-03T15:36:07.95Z</time></trkpt><trkpt lat="36.46769" lon="9.2826101"><ele>270.0</ele><time>2026-05-03T15:36:08.947Z</time></trkpt><trkpt lat="36.4677778" lon="9.2828832"><ele>270.0</ele><time>2026-05-03T15:36:09.953Z</time></trkpt><trkpt lat="36.4678707" lon="9.2831681"><ele>266.5</ele><time>2026-05-03T15:36:10.943Z</time></trkpt><trkpt lat="36.4679791" lon="9.2834587"><ele>263.0</ele><time>2026-05-03T15:36:11.955Z</time></trkpt><trkpt lat="36.4681029" lon="9.2837399"><ele>260.5</ele><time>2026-05-03T15:36:12.942Z</time></trkpt><trkpt lat="36.4682394" lon="9.2840164"><ele>258.0</ele><time>2026-05-03T15:36:13.944Z</time></trkpt><trkpt lat="36.4683816" lon="9.2842881"><ele>258.0</ele><time>2026-05-03T15:36:14.955Z</time></trkpt><trkpt lat="36.4685271" lon="9.2845583"><ele>258.0</ele><time>2026-05-03T15:36:15.948Z</time></trkpt><trkpt lat="36.4686783" lon="9.284818"><ele>262.0</ele><time>2026-05-03T15:36:16.959Z</time></trkpt><trkpt lat="36.4688306" lon="9.2850732"><ele>266.0</ele><time>2026-05-03T15:36:17.95Z</time></trkpt><trkpt lat="36.4689903" lon="9.2853215"><ele>266.0</ele><time>2026-05-03T15:36:18.938Z</time></trkpt><trkpt lat="36.4691529" lon="9.2855645"><ele>266.0</ele><time>2026-05-03T15:36:19.942Z</time></trkpt><trkpt lat="36.4693218" lon="9.2857961"><ele>267.0</ele><time>2026-05-03T15:36:20.946Z</time></trkpt><trkpt lat="36.4694887" lon="9.2860219"><ele>268.0</ele><time>2026-05-03T15:36:21.941Z</time></trkpt><trkpt lat="36.4696633" lon="9.2862366"><ele>263.5</ele><time>2026-05-03T15:36:22.952Z</time></trkpt><trkpt lat="36.4698428" lon="9.2864477"><ele>259.0</ele><time>2026-05-03T15:36:23.947Z</time></trkpt><trkpt lat="36.4700285" lon="9.2866477"><ele>259.0</ele><time>2026-05-03T15:36:24.955Z</time></trkpt><trkpt lat="36.4702204" lon="9.2868351"><ele>259.0</ele><time>2026-05-03T15:36:25.941Z</time></trkpt><trkpt lat="36.4704178" lon="9.2870171"><ele>258.5</ele><time>2026-05-03T15:36:26.949Z</time></trkpt><trkpt lat="36.4706195" lon="9.2871915"><ele>258.0</ele><time>2026-05-03T15:36:27.958Z</time></trkpt><trkpt lat="36.4708265" lon="9.2873613"><ele>258.0</ele><time>2026-05-03T15:36:28.97Z</time></trkpt><trkpt lat="36.4710342" lon="9.2875239"><ele>258.0</ele><time>2026-05-03T15:36:29.973Z</time></trkpt><trkpt lat="36.4712475" lon="9.2876774"><ele>259.5</ele><time>2026-05-03T15:36:30.955Z</time></trkpt><trkpt lat="36.47146" lon="9.2878238"><ele>261.0</ele><time>2026-05-03T15:36:31.967Z</time></trkpt><trkpt lat="36.4716753" lon="9.287968"><ele>259.5</ele><time>2026-05-03T15:36:32.938Z</time></trkpt><trkpt lat="36.4718884" lon="9.2881"><ele>258.0</ele><time>2026-05-03T15:36:33.931Z</time></trkpt><trkpt lat="36.4721088" lon="9.2882209"><ele>258.0</ele><time>2026-05-03T15:36:34.958Z</time></trkpt><trkpt lat="36.4723238" lon="9.2883313"><ele>258.0</ele><time>2026-05-03T15:36:35.933Z</time></trkpt><trkpt lat="36.4725426" lon="9.2884256"><ele>258.0</ele><time>2026-05-03T15:36:36.947Z</time></trkpt><trkpt lat="36.4727626" lon="9.2885207"><ele>258.0</ele><time>2026-05-03T15:36:37.945Z</time></trkpt><trkpt lat="36.4729928" lon="9.2886085"><ele>258.0</ele><time>2026-05-03T15:36:38.974Z</time></trkpt><trkpt lat="36.4732303" lon="9.2886838"><ele>258.0</ele><time>2026-05-03T15:36:39.964Z</time></trkpt><trkpt lat="36.4734817" lon="9.2887476"><ele>258.0</ele><time>2026-05-03T15:36:40.952Z</time></trkpt><trkpt lat="36.4737533" lon="9.2888031"><ele>258.0</ele><time>2026-05-03T15:36:41.933Z</time></trkpt><trkpt lat="36.474032" lon="9.2888592"><ele>258.0</ele><time>2026-05-03T15:36:42.963Z</time></trkpt><trkpt lat="36.4743083" lon="9.2889209"><ele>258.0</ele><time>2026-05-03T15:36:43.968Z</time></trkpt><trkpt lat="36.474572" lon="9.2889809"><ele>257.0</ele><time>2026-05-03T15:36:44.947Z</time></trkpt><trkpt lat="36.4748221" lon="9.2890348"><ele>256.0</ele><time>2026-05-03T15:36:45.958Z</time></trkpt><trkpt lat="36.4750654" lon="9.2890869"><ele>256.0</ele><time>2026-05-03T15:36:46.961Z</time></trkpt><trkpt lat="36.4753019" lon="9.2891384"><ele>256.0</ele><time>2026-05-03T15:36:47.966Z</time></trkpt><trkpt lat="36.475529" lon="9.2891815"><ele>257.3333333333333</ele><time>2026-05-03T15:36:48.942Z</time></trkpt><trkpt lat="36.475745" lon="9.2892309"><ele>258.6666666666667</ele><time>2026-05-03T15:36:49.965Z</time></trkpt><trkpt lat="36.4759594" lon="9.2892839"><ele>260.0</ele><time>2026-05-03T15:36:50.95Z</time></trkpt><trkpt lat="36.4761682" lon="9.2893387"><ele>260.33333333333337</ele><time>2026-05-03T15:36:51.939Z</time></trkpt><trkpt lat="36.476371" lon="9.2893977"><ele>260.6666666666667</ele><time>2026-05-03T15:36:52.956Z</time></trkpt><trkpt lat="36.4765773" lon="9.289464"><ele>261.0</ele><time>2026-05-03T15:36:53.951Z</time></trkpt><trkpt lat="36.4767768" lon="9.2895262"><ele>261.0</ele><time>2026-05-03T15:36:54.965Z</time></trkpt><trkpt lat="36.4769723" lon="9.2895935"><ele>261.0</ele><time>2026-05-03T15:36:55.952Z</time></trkpt><trkpt lat="36.4771713" lon="9.2896662"><ele>261.0</ele><time>2026-05-03T15:36:56.959Z</time></trkpt><trkpt lat="36.4773695" lon="9.2897474"><ele>260.0</ele><time>2026-05-03T15:36:57.961Z</time></trkpt><trkpt lat="36.4775658" lon="9.2898256"><ele>259.0</ele><time>2026-05-03T15:36:58.946Z</time></trkpt><trkpt lat="36.4777619" lon="9.2899089"><ele>258.0</ele><time>2026-05-03T15:36:59.953Z</time></trkpt><trkpt lat="36.4779596" lon="9.2899963"><ele>258.0</ele><time>2026-05-03T15:37:00.941Z</time></trkpt><trkpt lat="36.4781605" lon="9.2900813"><ele>258.0</ele><time>2026-05-03T15:37:01.949Z</time></trkpt><trkpt lat="36.4783656" lon="9.2901646"><ele>258.0</ele><time>2026-05-03T15:37:02.946Z</time></trkpt><trkpt lat="36.4785712" lon="9.2902471"><ele>257.6666666666667</ele><time>2026-05-03T15:37:03.927Z</time></trkpt><trkpt lat="36.4787809" lon="9.290337"><ele>257.33333333333337</ele><time>2026-05-03T15:37:04.954Z</time></trkpt><trkpt lat="36.4789877" lon="9.2904204"><ele>257.0</ele><time>2026-05-03T15:37:05.956Z</time></trkpt><trkpt lat="36.4791986" lon="9.2905047"><ele>257.0</ele><time>2026-05-03T15:37:06.923Z</time></trkpt><trkpt lat="36.4794081" lon="9.2905911"><ele>257.0</ele><time>2026-05-03T15:37:07.942Z</time></trkpt><trkpt lat="36.4796169" lon="9.2906782"><ele>257.0</ele><time>2026-05-03T15:37:08.952Z</time></trkpt><trkpt lat="36.4798263" lon="9.2907644"><ele>255.0</ele><time>2026-05-03T15:37:09.96Z</time></trkpt><trkpt lat="36.4800374" lon="9.2908532"><ele>253.0</ele><time>2026-05-03T15:37:10.97Z</time></trkpt><trkpt lat="36.4802462" lon="9.2909423"><ele>251.0</ele><time>2026-05-03T15:37:11.961Z</time></trkpt><trkpt lat="36.4804567" lon="9.291028"><ele>251.0</ele><time>2026-05-03T15:37:12.924Z</time></trkpt><trkpt lat="36.4806663" lon="9.2911131"><ele>251.0</ele><time>2026-05-03T15:37:13.946Z</time></trkpt><trkpt lat="36.4808753" lon="9.2912039"><ele>251.0</ele><time>2026-05-03T15:37:14.949Z</time></trkpt><trkpt lat="36.4810831" lon="9.2912989"><ele>250.33333333333334</ele><time>2026-05-03T15:37:15.941Z</time></trkpt><trkpt lat="36.4812899" lon="9.2914054"><ele>249.66666666666669</ele><time>2026-05-03T15:37:16.931Z</time></trkpt><trkpt lat="36.4814931" lon="9.2915145"><ele>249.0</ele><time>2026-05-03T15:37:17.944Z</time></trkpt><trkpt lat="36.4816908" lon="9.2916257"><ele>249.0</ele><time>2026-05-03T15:37:18.946Z</time></trkpt><trkpt lat="36.4818777" lon="9.2917433"><ele>249.0</ele><time>2026-05-03T15:37:19.966Z</time></trkpt><trkpt lat="36.482053" lon="9.2918616"><ele>249.0</ele><time>2026-05-03T15:37:20.941Z</time></trkpt><trkpt lat="36.4822141" lon="9.2919725"><ele>248.66666666666669</ele><time>2026-05-03T15:37:21.938Z</time></trkpt><trkpt lat="36.4823725" lon="9.2920883"><ele>248.33333333333334</ele><time>2026-05-03T15:37:22.952Z</time></trkpt><trkpt lat="36.4825319" lon="9.2922129"><ele>248.0</ele><time>2026-05-03T15:37:23.947Z</time></trkpt><trkpt lat="36.4826904" lon="9.2923431"><ele>248.0</ele><time>2026-05-03T15:37:24.956Z</time></trkpt><trkpt lat="36.4828528" lon="9.2924861"><ele>248.0</ele><time>2026-05-03T15:37:25.931Z</time></trkpt><trkpt lat="36.4830216" lon="9.2926413"><ele>248.0</ele><time>2026-05-03T15:37:26.939Z</time></trkpt><trkpt lat="36.4831893" lon="9.2927941"><ele>248.66666666666669</ele><time>2026-05-03T15:37:27.963Z</time></trkpt><trkpt lat="36.4833582" lon="9.2929617"><ele>249.33333333333331</ele><time>2026-05-03T15:37:28.969Z</time></trkpt><trkpt lat="36.4835335" lon="9.2931419"><ele>250.0</ele><time>2026-05-03T15:37:29.939Z</time></trkpt><trkpt lat="36.4837134" lon="9.2933317"><ele>249.5</ele><time>2026-05-03T15:37:30.957Z</time></trkpt><trkpt lat="36.4838958" lon="9.2935321"><ele>249.0</ele><time>2026-05-03T15:37:31.945Z</time></trkpt><trkpt lat="36.4840704" lon="9.2937427"><ele>248.0</ele><time>2026-05-03T15:37:32.957Z</time></trkpt><trkpt lat="36.4842287" lon="9.2939642"><ele>247.0</ele><time>2026-05-03T15:37:33.952Z</time></trkpt><trkpt lat="36.4843791" lon="9.2941972"><ele>247.0</ele><time>2026-05-03T15:37:34.965Z</time></trkpt><trkpt lat="36.4845224" lon="9.294433"><ele>247.0</ele><time>2026-05-03T15:37:35.943Z</time></trkpt><trkpt lat="36.484666" lon="9.2946674"><ele>250.0</ele><time>2026-05-03T15:37:36.953Z</time></trkpt><trkpt lat="36.4848059" lon="9.2949068"><ele>253.0</ele><time>2026-05-03T15:37:37.947Z</time></trkpt><trkpt lat="36.4849416" lon="9.2951471"><ele>253.0</ele><time>2026-05-03T15:37:38.955Z</time></trkpt><trkpt lat="36.4850726" lon="9.2953954"><ele>253.0</ele><time>2026-05-03T15:37:39.936Z</time></trkpt><trkpt lat="36.4852013" lon="9.2956441"><ele>252.5</ele><time>2026-05-03T15:37:40.962Z</time></trkpt><trkpt lat="36.4853245" lon="9.295891"><ele>252.0</ele><time>2026-05-03T15:37:41.962Z</time></trkpt><trkpt lat="36.48545" lon="9.2961412"><ele>252.0</ele><time>2026-05-03T15:37:42.968Z</time></trkpt><trkpt lat="36.4855723" lon="9.2963942"><ele>252.0</ele><time>2026-05-03T15:37:43.953Z</time></trkpt><trkpt lat="36.4856925" lon="9.2966457"><ele>249.0</ele><time>2026-05-03T15:37:44.946Z</time></trkpt><trkpt lat="36.485808" lon="9.2969048"><ele>246.0</ele><time>2026-05-03T15:37:45.966Z</time></trkpt><trkpt lat="36.4859157" lon="9.2971705"><ele>245.0</ele><time>2026-05-03T15:37:46.955Z</time></trkpt><trkpt lat="36.4860104" lon="9.2974391"><ele>244.0</ele><time>2026-05-03T15:37:47.958Z</time></trkpt><trkpt lat="36.4860994" lon="9.2977074"><ele>244.0</ele><time>2026-05-03T15:37:48.947Z</time></trkpt><trkpt lat="36.4861795" lon="9.2979787"><ele>244.0</ele><time>2026-05-03T15:37:49.963Z</time></trkpt><trkpt lat="36.4862486" lon="9.2982569"><ele>242.5</ele><time>2026-05-03T15:37:50.95Z</time></trkpt><trkpt lat="36.4863112" lon="9.2985457"><ele>241.0</ele><time>2026-05-03T15:37:51.955Z</time></trkpt><trkpt lat="36.4863606" lon="9.2988366"><ele>239.0</ele><time>2026-05-03T15:37:52.956Z</time></trkpt><trkpt lat="36.4864015" lon="9.2991276"><ele>237.0</ele><time>2026-05-03T15:37:53.964Z</time></trkpt><trkpt lat="36.4864314" lon="9.2994213"><ele>237.0</ele><time>2026-05-03T15:37:54.935Z</time></trkpt><trkpt lat="36.4864521" lon="9.2997198"><ele>237.0</ele><time>2026-05-03T15:37:55.961Z</time></trkpt><trkpt lat="36.4864699" lon="9.3000136"><ele>236.5</ele><time>2026-05-03T15:37:56.951Z</time></trkpt><trkpt lat="36.4864758" lon="9.3003081"><ele>236.0</ele><time>2026-05-03T15:37:57.954Z</time></trkpt><trkpt lat="36.4864756" lon="9.300603"><ele>234.66666666666669</ele><time>2026-05-03T15:37:58.953Z</time></trkpt><trkpt lat="36.4864538" lon="9.3008874"><ele>233.33333333333331</ele><time>2026-05-03T15:37:59.934Z</time></trkpt><trkpt lat="36.4864234" lon="9.3011545"><ele>232.0</ele><time>2026-05-03T15:38:00.927Z</time></trkpt><trkpt lat="36.4863837" lon="9.3014098"><ele>231.33333333333331</ele><time>2026-05-03T15:38:01.944Z</time></trkpt><trkpt lat="36.486343" lon="9.3016593"><ele>230.66666666666669</ele><time>2026-05-03T15:38:02.938Z</time></trkpt><trkpt lat="36.4862971" lon="9.3018988"><ele>230.0</ele><time>2026-05-03T15:38:03.922Z</time></trkpt><trkpt lat="36.4862526" lon="9.3021351"><ele>229.33333333333334</ele><time>2026-05-03T15:38:04.937Z</time></trkpt><trkpt lat="36.4862059" lon="9.3023682"><ele>228.66666666666669</ele><time>2026-05-03T15:38:05.969Z</time></trkpt><trkpt lat="36.4861588" lon="9.3026015"><ele>228.0</ele><time>2026-05-03T15:38:06.962Z</time></trkpt><trkpt lat="36.4861151" lon="9.3028311"><ele>228.0</ele><time>2026-05-03T15:38:07.943Z</time></trkpt><trkpt lat="36.4860703" lon="9.3030584"><ele>228.0</ele><time>2026-05-03T15:38:08.963Z</time></trkpt><trkpt lat="36.4860299" lon="9.3032756"><ele>228.0</ele><time>2026-05-03T15:38:09.948Z</time></trkpt><trkpt lat="36.4859859" lon="9.3034857"><ele>229.0</ele><time>2026-05-03T15:38:10.958Z</time></trkpt><trkpt lat="36.485946" lon="9.303695"><ele>230.0</ele><time>2026-05-03T15:38:11.968Z</time></trkpt><trkpt lat="36.4859079" lon="9.3038978"><ele>231.0</ele><time>2026-05-03T15:38:12.945Z</time></trkpt><trkpt lat="36.4858723" lon="9.304099"><ele>231.0</ele><time>2026-05-03T15:38:13.956Z</time></trkpt><trkpt lat="36.485842" lon="9.3043021"><ele>231.0</ele><time>2026-05-03T15:38:14.957Z</time></trkpt><trkpt lat="36.4858229" lon="9.304507"><ele>231.0</ele><time>2026-05-03T15:38:15.943Z</time></trkpt><trkpt lat="36.4858127" lon="9.3047136"><ele>230.0</ele><time>2026-05-03T15:38:16.942Z</time></trkpt><trkpt lat="36.4858122" lon="9.3049203"><ele>229.0</ele><time>2026-05-03T15:38:17.936Z</time></trkpt><trkpt lat="36.48582" lon="9.3051178"><ele>228.0</ele><time>2026-05-03T15:38:18.948Z</time></trkpt><trkpt lat="36.485831" lon="9.3053176"><ele>228.0</ele><time>2026-05-03T15:38:19.947Z</time></trkpt><trkpt lat="36.4858505" lon="9.305516"><ele>228.0</ele><time>2026-05-03T15:38:20.923Z</time></trkpt><trkpt lat="36.4858782" lon="9.3057117"><ele>228.0</ele><time>2026-05-03T15:38:21.938Z</time></trkpt><trkpt lat="36.4859062" lon="9.305902"><ele>228.66666666666669</ele><time>2026-05-03T15:38:22.977Z</time></trkpt><trkpt lat="36.4859412" lon="9.306093"><ele>229.33333333333334</ele><time>2026-05-03T15:38:23.959Z</time></trkpt><trkpt lat="36.485981" lon="9.3062831"><ele>230.0</ele><time>2026-05-03T15:38:24.958Z</time></trkpt><trkpt lat="36.4860249" lon="9.3064719"><ele>230.0</ele><time>2026-05-03T15:38:25.94Z</time></trkpt><trkpt lat="36.4860788" lon="9.306661"><ele>230.0</ele><time>2026-05-03T15:38:26.948Z</time></trkpt><trkpt lat="36.4861396" lon="9.3068457"><ele>230.0</ele><time>2026-05-03T15:38:27.952Z</time></trkpt><trkpt lat="36.4862093" lon="9.3070271"><ele>229.0</ele><time>2026-05-03T15:38:28.95Z</time></trkpt><trkpt lat="36.4862871" lon="9.3072059"><ele>228.0</ele><time>2026-05-03T15:38:29.941Z</time></trkpt><trkpt lat="36.486371" lon="9.3073869"><ele>227.0</ele><time>2026-05-03T15:38:30.937Z</time></trkpt><trkpt lat="36.4864606" lon="9.3075633"><ele>227.0</ele><time>2026-05-03T15:38:31.938Z</time></trkpt><trkpt lat="36.4865559" lon="9.307733"><ele>227.0</ele><time>2026-05-03T15:38:32.944Z</time></trkpt><trkpt lat="36.4866619" lon="9.3079009"><ele>227.0</ele><time>2026-05-03T15:38:33.942Z</time></trkpt><trkpt lat="36.4867748" lon="9.3080644"><ele>227.33333333333334</ele><time>2026-05-03T15:38:34.965Z</time></trkpt><trkpt lat="36.4868908" lon="9.3082187"><ele>227.66666666666669</ele><time>2026-05-03T15:38:35.951Z</time></trkpt><trkpt lat="36.4870127" lon="9.3083612"><ele>228.0</ele><time>2026-05-03T15:38:36.938Z</time></trkpt><trkpt lat="36.4871433" lon="9.3085066"><ele>227.33333333333331</ele><time>2026-05-03T15:38:37.935Z</time></trkpt><trkpt lat="36.4872771" lon="9.3086464"><ele>226.66666666666666</ele><time>2026-05-03T15:38:38.954Z</time></trkpt><trkpt lat="36.4874158" lon="9.308778"><ele>226.0</ele><time>2026-05-03T15:38:39.95Z</time></trkpt><trkpt lat="36.4875611" lon="9.3089024"><ele>225.66666666666666</ele><time>2026-05-03T15:38:40.965Z</time></trkpt><trkpt lat="36.4877073" lon="9.3090191"><ele>225.33333333333331</ele><time>2026-05-03T15:38:41.955Z</time></trkpt><trkpt lat="36.4878611" lon="9.3091395"><ele>225.0</ele><time>2026-05-03T15:38:42.931Z</time></trkpt><trkpt lat="36.4880177" lon="9.3092587"><ele>224.66666666666669</ele><time>2026-05-03T15:38:43.966Z</time></trkpt><trkpt lat="36.4881755" lon="9.3093753"><ele>224.33333333333334</ele><time>2026-05-03T15:38:44.952Z</time></trkpt><trkpt lat="36.4883328" lon="9.3094938"><ele>224.0</ele><time>2026-05-03T15:38:45.941Z</time></trkpt><trkpt lat="36.4884857" lon="9.3096188"><ele>224.0</ele><time>2026-05-03T15:38:46.951Z</time></trkpt><trkpt lat="36.4886425" lon="9.3097394"><ele>224.0</ele><time>2026-05-03T15:38:47.95Z</time></trkpt><trkpt lat="36.4888004" lon="9.3098652"><ele>224.0</ele><time>2026-05-03T15:38:48.957Z</time></trkpt><trkpt lat="36.4889591" lon="9.309989"><ele>223.33333333333334</ele><time>2026-05-03T15:38:49.951Z</time></trkpt><trkpt lat="36.4891151" lon="9.3101115"><ele>222.66666666666669</ele><time>2026-05-03T15:38:50.951Z</time></trkpt><trkpt lat="36.4892687" lon="9.310231"><ele>222.0</ele><time>2026-05-03T15:38:51.961Z</time></trkpt><trkpt lat="36.4894205" lon="9.3103501"><ele>222.0</ele><time>2026-05-03T15:38:52.96Z</time></trkpt><trkpt lat="36.4895697" lon="9.3104669"><ele>222.0</ele><time>2026-05-03T15:38:53.959Z</time></trkpt><trkpt lat="36.4897148" lon="9.3105775"><ele>222.0</ele><time>2026-05-03T15:38:54.935Z</time></trkpt><trkpt lat="36.4898568" lon="9.310688"><ele>222.66666666666669</ele><time>2026-05-03T15:38:55.951Z</time></trkpt><trkpt lat="36.4900008" lon="9.3108034"><ele>223.33333333333334</ele><time>2026-05-03T15:38:56.958Z</time></trkpt><trkpt lat="36.4901457" lon="9.3109163"><ele>224.0</ele><time>2026-05-03T15:38:57.943Z</time></trkpt><trkpt lat="36.4902921" lon="9.3110243"><ele>224.66666666666669</ele><time>2026-05-03T15:38:58.951Z</time></trkpt><trkpt lat="36.4904386" lon="9.311135"><ele>225.33333333333331</ele><time>2026-05-03T15:38:59.947Z</time></trkpt><trkpt lat="36.4905851" lon="9.3112535"><ele>226.0</ele><time>2026-05-03T15:39:00.932Z</time></trkpt><trkpt lat="36.4907315" lon="9.3113691"><ele>226.66666666666666</ele><time>2026-05-03T15:39:01.938Z</time></trkpt><trkpt lat="36.4908718" lon="9.311486"><ele>227.33333333333331</ele><time>2026-05-03T15:39:02.939Z</time></trkpt><trkpt lat="36.4910168" lon="9.3115948"><ele>228.0</ele><time>2026-05-03T15:39:03.965Z</time></trkpt><trkpt lat="36.4911597" lon="9.3117053"><ele>226.66666666666669</ele><time>2026-05-03T15:39:04.944Z</time></trkpt><trkpt lat="36.4913003" lon="9.3118135"><ele>225.33333333333334</ele><time>2026-05-03T15:39:05.936Z</time></trkpt><trkpt lat="36.4914396" lon="9.3119242"><ele>224.0</ele><time>2026-05-03T15:39:06.948Z</time></trkpt><trkpt lat="36.4915761" lon="9.3120302"><ele>224.0</ele><time>2026-05-03T15:39:07.937Z</time></trkpt><trkpt lat="36.4917049" lon="9.3121334"><ele>224.0</ele><time>2026-05-03T15:39:08.914Z</time></trkpt><trkpt lat="36.4918307" lon="9.3122368"><ele>224.0</ele><time>2026-05-03T15:39:09.96Z</time></trkpt><trkpt lat="36.4919536" lon="9.312335"><ele>224.0</ele><time>2026-05-03T15:39:10.917Z</time></trkpt><trkpt lat="36.4920768" lon="9.3124292"><ele>224.0</ele><time>2026-05-03T15:39:11.927Z</time></trkpt><trkpt lat="36.4922022" lon="9.3125247"><ele>224.0</ele><time>2026-05-03T15:39:12.935Z</time></trkpt><trkpt lat="36.4923325" lon="9.3126292"><ele>224.0</ele><time>2026-05-03T15:39:13.943Z</time></trkpt><trkpt lat="36.4924678" lon="9.3127363"><ele>222.66666666666669</ele><time>2026-05-03T15:39:14.954Z</time></trkpt><trkpt lat="36.4926069" lon="9.3128439"><ele>221.33333333333331</ele><time>2026-05-03T15:39:15.949Z</time></trkpt><trkpt lat="36.4927524" lon="9.3129593"><ele>220.0</ele><time>2026-05-03T15:39:16.944Z</time></trkpt><trkpt lat="36.4928944" lon="9.3130723"><ele>219.33333333333331</ele><time>2026-05-03T15:39:17.959Z</time></trkpt><trkpt lat="36.4930347" lon="9.3131802"><ele>218.66666666666669</ele><time>2026-05-03T15:39:18.952Z</time></trkpt><trkpt lat="36.4931711" lon="9.3132813"><ele>218.0</ele><time>2026-05-03T15:39:19.934Z</time></trkpt><trkpt lat="36.4932998" lon="9.3133786"><ele>218.0</ele><time>2026-05-03T15:39:20.954Z</time></trkpt><trkpt lat="36.493418" lon="9.3134699"><ele>218.0</ele><time>2026-05-03T15:39:21.948Z</time></trkpt><trkpt lat="36.4935309" lon="9.3135613"><ele>218.0</ele><time>2026-05-03T15:39:22.956Z</time></trkpt><trkpt lat="36.4936419" lon="9.313651"><ele>218.0</ele><time>2026-05-03T15:39:23.967Z</time></trkpt><trkpt lat="36.4937517" lon="9.313735"><ele>218.5</ele><time>2026-05-03T15:39:24.935Z</time></trkpt><trkpt lat="36.4938577" lon="9.3138124"><ele>219.0</ele><time>2026-05-03T15:39:25.952Z</time></trkpt><trkpt lat="36.4939635" lon="9.3138959"><ele>219.5</ele><time>2026-05-03T15:39:26.952Z</time></trkpt><trkpt lat="36.4940639" lon="9.3139799"><ele>220.0</ele><time>2026-05-03T15:39:27.965Z</time></trkpt><trkpt lat="36.4941589" lon="9.3140573"><ele>219.99999999999997</ele><time>2026-05-03T15:39:28.96Z</time></trkpt><trkpt lat="36.4942452" lon="9.3141294"><ele>220.0</ele><time>2026-05-03T15:39:29.945Z</time></trkpt><trkpt lat="36.4943262" lon="9.3141868"><ele>220.0</ele><time>2026-05-03T15:39:30.965Z</time></trkpt><trkpt lat="36.4943991" lon="9.3142425"><ele>220.0</ele><time>2026-05-03T15:39:31.926Z</time></trkpt><trkpt lat="36.4944672" lon="9.3142936"><ele>219.99999999999997</ele><time>2026-05-03T15:39:32.932Z</time></trkpt><trkpt lat="36.4945301" lon="9.3143311"><ele>220.0</ele><time>2026-05-03T15:39:33.958Z</time></trkpt><trkpt lat="36.4945898" lon="9.3143597"><ele>220.0</ele><time>2026-05-03T15:39:34.948Z</time></trkpt><trkpt lat="36.4946536" lon="9.3143907"><ele>220.0</ele><time>2026-05-03T15:39:35.969Z</time></trkpt><trkpt lat="36.4947207" lon="9.314434"><ele>220.0</ele><time>2026-05-03T15:39:36.956Z</time></trkpt><trkpt lat="36.4948031" lon="9.314503"><ele>220.0</ele><time>2026-05-03T15:39:37.939Z</time></trkpt><trkpt lat="36.4949069" lon="9.3145871"><ele>220.0</ele><time>2026-05-03T15:39:38.961Z</time></trkpt><trkpt lat="36.4950176" lon="9.3146727"><ele>221.25</ele><time>2026-05-03T15:39:39.955Z</time></trkpt><trkpt lat="36.4951211" lon="9.3147581"><ele>222.5</ele><time>2026-05-03T15:39:40.961Z</time></trkpt><trkpt lat="36.4952203" lon="9.3148301"><ele>223.75</ele><time>2026-05-03T15:39:41.95Z</time></trkpt><trkpt lat="36.4953168" lon="9.3148927"><ele>225.0</ele><time>2026-05-03T15:39:42.931Z</time></trkpt><trkpt lat="36.4954096" lon="9.3149454"><ele>224.6</ele><time>2026-05-03T15:39:43.968Z</time></trkpt><trkpt lat="36.4955068" lon="9.3149955"><ele>224.2</ele><time>2026-05-03T15:39:44.947Z</time></trkpt><trkpt lat="36.4955915" lon="9.3150407"><ele>223.8</ele><time>2026-05-03T15:39:45.951Z</time></trkpt><trkpt lat="36.4956742" lon="9.3150885"><ele>223.4</ele><time>2026-05-03T15:39:46.959Z</time></trkpt><trkpt lat="36.4957507" lon="9.3151326"><ele>223.0</ele><time>2026-05-03T15:39:47.945Z</time></trkpt><trkpt lat="36.4958254" lon="9.3151731"><ele>223.0</ele><time>2026-05-03T15:39:48.969Z</time></trkpt><trkpt lat="36.495894" lon="9.3151991"><ele>223.0</ele><time>2026-05-03T15:39:49.952Z</time></trkpt><trkpt lat="36.4959559" lon="9.315228"><ele>223.0</ele><time>2026-05-03T15:39:50.936Z</time></trkpt><trkpt lat="36.4960575" lon="9.315258"><ele>223.0</ele><time>2026-05-03T15:39:52.957Z</time></trkpt><trkpt lat="36.4961746" lon="9.3152932"><ele>223.0</ele><time>2026-05-03T15:39:54.963Z</time></trkpt><trkpt lat="36.4962617" lon="9.315314"><ele>222.5</ele><time>2026-05-03T15:39:55.969Z</time></trkpt><trkpt lat="36.4963695" lon="9.3153428"><ele>222.0</ele><time>2026-05-03T15:39:56.963Z</time></trkpt><trkpt lat="36.496496" lon="9.3153625"><ele>221.5</ele><time>2026-05-03T15:39:57.958Z</time></trkpt><trkpt lat="36.4966448" lon="9.3153963"><ele>221.0</ele><time>2026-05-03T15:39:58.944Z</time></trkpt><trkpt lat="36.4967967" lon="9.3154339"><ele>221.0</ele><time>2026-05-03T15:39:59.946Z</time></trkpt><trkpt lat="36.4969511" lon="9.315485"><ele>221.0</ele><time>2026-05-03T15:40:00.938Z</time></trkpt><trkpt lat="36.4971056" lon="9.3155422"><ele>221.0</ele><time>2026-05-03T15:40:01.957Z</time></trkpt><trkpt lat="36.4972664" lon="9.3156074"><ele>224.33333333333334</ele><time>2026-05-03T15:40:02.952Z</time></trkpt><trkpt lat="36.4974309" lon="9.3156718"><ele>227.66666666666669</ele><time>2026-05-03T15:40:03.963Z</time></trkpt><trkpt lat="36.4975996" lon="9.3157401"><ele>231.0</ele><time>2026-05-03T15:40:04.966Z</time></trkpt><trkpt lat="36.4977663" lon="9.3158095"><ele>230.0</ele><time>2026-05-03T15:40:05.95Z</time></trkpt><trkpt lat="36.4979286" lon="9.3158741"><ele>229.0</ele><time>2026-05-03T15:40:06.949Z</time></trkpt><trkpt lat="36.4980935" lon="9.315944"><ele>228.0</ele><time>2026-05-03T15:40:07.957Z</time></trkpt><trkpt lat="36.4982602" lon="9.3160131"><ele>228.0</ele><time>2026-05-03T15:40:08.927Z</time></trkpt><trkpt lat="36.4984167" lon="9.3160885"><ele>228.0</ele><time>2026-05-03T15:40:09.957Z</time></trkpt><trkpt lat="36.4985682" lon="9.316173"><ele>228.0</ele><time>2026-05-03T15:40:10.942Z</time></trkpt><trkpt lat="36.4987179" lon="9.3162595"><ele>227.66666666666669</ele><time>2026-05-03T15:40:11.943Z</time></trkpt><trkpt lat="36.4988636" lon="9.3163527"><ele>227.33333333333334</ele><time>2026-05-03T15:40:12.964Z</time></trkpt><trkpt lat="36.4990042" lon="9.3164461"><ele>227.0</ele><time>2026-05-03T15:40:13.976Z</time></trkpt><trkpt lat="36.4991425" lon="9.3165389"><ele>231.33333333333334</ele><time>2026-05-03T15:40:14.932Z</time></trkpt><trkpt lat="36.49928" lon="9.3166394"><ele>235.66666666666669</ele><time>2026-05-03T15:40:15.936Z</time></trkpt><trkpt lat="36.4994206" lon="9.3167428"><ele>240.0</ele><time>2026-05-03T15:40:16.951Z</time></trkpt><trkpt lat="36.4995644" lon="9.3168478"><ele>241.33333333333331</ele><time>2026-05-03T15:40:17.918Z</time></trkpt><trkpt lat="36.4997092" lon="9.3169607"><ele>242.66666666666666</ele><time>2026-05-03T15:40:18.943Z</time></trkpt><trkpt lat="36.4998684" lon="9.3170866"><ele>244.0</ele><time>2026-05-03T15:40:19.944Z</time></trkpt><trkpt lat="36.5000275" lon="9.3172209"><ele>242.33333333333331</ele><time>2026-05-03T15:40:20.96Z</time></trkpt><trkpt lat="36.5001887" lon="9.3173654"><ele>240.66666666666669</ele><time>2026-05-03T15:40:21.951Z</time></trkpt><trkpt lat="36.5003552" lon="9.3175196"><ele>239.0</ele><time>2026-05-03T15:40:22.936Z</time></trkpt><trkpt lat="36.5005327" lon="9.3176824"><ele>239.0</ele><time>2026-05-03T15:40:23.937Z</time></trkpt><trkpt lat="36.5007156" lon="9.3178553"><ele>239.0</ele><time>2026-05-03T15:40:24.952Z</time></trkpt><trkpt lat="36.5008999" lon="9.318029"><ele>239.0</ele><time>2026-05-03T15:40:25.956Z</time></trkpt><trkpt lat="36.5010806" lon="9.3181944"><ele>239.0</ele><time>2026-05-03T15:40:26.941Z</time></trkpt><trkpt lat="36.501241" lon="9.3183488"><ele>239.0</ele><time>2026-05-03T15:40:27.952Z</time></trkpt><trkpt lat="36.5013922" lon="9.3184969"><ele>239.0</ele><time>2026-05-03T15:40:28.95Z</time></trkpt><trkpt lat="36.5015345" lon="9.318637"><ele>239.0</ele><time>2026-05-03T15:40:29.926Z</time></trkpt><trkpt lat="36.5016768" lon="9.3187731"><ele>239.0</ele><time>2026-05-03T15:40:30.959Z</time></trkpt><trkpt lat="36.5018183" lon="9.3189103"><ele>241.0</ele><time>2026-05-03T15:40:31.957Z</time></trkpt><trkpt lat="36.5019532" lon="9.3190345"><ele>243.0</ele><time>2026-05-03T15:40:32.949Z</time></trkpt><trkpt lat="36.5020861" lon="9.3191639"><ele>245.0</ele><time>2026-05-03T15:40:33.945Z</time></trkpt><trkpt lat="36.5022119" lon="9.3192874"><ele>247.0</ele><time>2026-05-03T15:40:34.962Z</time></trkpt><trkpt lat="36.5023314" lon="9.3194002"><ele>249.0</ele><time>2026-05-03T15:40:35.944Z</time></trkpt><trkpt lat="36.5024414" lon="9.3194995"><ele>251.0</ele><time>2026-05-03T15:40:36.943Z</time></trkpt><trkpt lat="36.502544" lon="9.3196003"><ele>253.0</ele><time>2026-05-03T15:40:37.958Z</time></trkpt><trkpt lat="36.5026477" lon="9.3196994"><ele>256.75</ele><time>2026-05-03T15:40:38.934Z</time></trkpt><trkpt lat="36.5027588" lon="9.3198042"><ele>260.5</ele><time>2026-05-03T15:40:39.935Z</time></trkpt><trkpt lat="36.5028689" lon="9.3199042"><ele>264.25</ele><time>2026-05-03T15:40:40.945Z</time></trkpt><trkpt lat="36.5029804" lon="9.3200038"><ele>268.0</ele><time>2026-05-03T15:40:41.943Z</time></trkpt><trkpt lat="36.5030938" lon="9.3201006"><ele>269.25</ele><time>2026-05-03T15:40:42.956Z</time></trkpt><trkpt lat="36.5032033" lon="9.3201914"><ele>270.5</ele><time>2026-05-03T15:40:43.95Z</time></trkpt><trkpt lat="36.5033157" lon="9.3202776"><ele>271.75</ele><time>2026-05-03T15:40:44.97Z</time></trkpt><trkpt lat="36.5034421" lon="9.3203668"><ele>273.0</ele><time>2026-05-03T15:40:45.951Z</time></trkpt><trkpt lat="36.5035945" lon="9.3204582"><ele>276.0</ele><time>2026-05-03T15:40:46.946Z</time></trkpt><trkpt lat="36.5037746" lon="9.3205685"><ele>279.0</ele><time>2026-05-03T15:40:47.945Z</time></trkpt><trkpt lat="36.503985" lon="9.3206959"><ele>282.0</ele><time>2026-05-03T15:40:48.919Z</time></trkpt><trkpt lat="36.5042119" lon="9.3208275"><ele>282.0</ele><time>2026-05-03T15:40:49.924Z</time></trkpt><trkpt lat="36.5044491" lon="9.3209482"><ele>282.0</ele><time>2026-05-03T15:40:50.946Z</time></trkpt><trkpt lat="36.5046699" lon="9.3210457"><ele>278.3333333333333</ele><time>2026-05-03T15:40:51.96Z</time></trkpt><trkpt lat="36.5048838" lon="9.3211214"><ele>274.66666666666663</ele><time>2026-05-03T15:40:52.959Z</time></trkpt><trkpt lat="36.505093" lon="9.3211885"><ele>271.0</ele><time>2026-05-03T15:40:53.96Z</time></trkpt><trkpt lat="36.5053003" lon="9.3212351"><ele>267.0</ele><time>2026-05-03T15:40:54.942Z</time></trkpt><trkpt lat="36.5055083" lon="9.3212808"><ele>263.0</ele><time>2026-05-03T15:40:55.932Z</time></trkpt><trkpt lat="36.5057168" lon="9.3213191"><ele>259.0</ele><time>2026-05-03T15:40:56.962Z</time></trkpt><trkpt lat="36.5059286" lon="9.3213398"><ele>259.0</ele><time>2026-05-03T15:40:57.939Z</time></trkpt><trkpt lat="36.5061371" lon="9.3213616"><ele>259.0</ele><time>2026-05-03T15:40:58.941Z</time></trkpt><trkpt lat="36.5063451" lon="9.3213791"><ele>259.0</ele><time>2026-05-03T15:40:59.958Z</time></trkpt><trkpt lat="36.50655" lon="9.3213874"><ele>258.66666666666663</ele><time>2026-05-03T15:41:00.945Z</time></trkpt><trkpt lat="36.506755" lon="9.3213865"><ele>258.3333333333333</ele><time>2026-05-03T15:41:01.954Z</time></trkpt><trkpt lat="36.5069548" lon="9.3213862"><ele>258.0</ele><time>2026-05-03T15:41:02.944Z</time></trkpt><trkpt lat="36.5071518" lon="9.3213902"><ele>262.6666666666667</ele><time>2026-05-03T15:41:03.951Z</time></trkpt><trkpt lat="36.5073474" lon="9.3214019"><ele>267.33333333333337</ele><time>2026-05-03T15:41:04.92Z</time></trkpt><trkpt lat="36.50754" lon="9.3214296"><ele>272.0</ele><time>2026-05-03T15:41:05.94Z</time></trkpt><trkpt lat="36.5077344" lon="9.3214581"><ele>271.0</ele><time>2026-05-03T15:41:06.955Z</time></trkpt><trkpt lat="36.5079333" lon="9.3215043"><ele>270.0</ele><time>2026-05-03T15:41:07.932Z</time></trkpt><trkpt lat="36.5081301" lon="9.3215596"><ele>269.0</ele><time>2026-05-03T15:41:08.954Z</time></trkpt><trkpt lat="36.5083247" lon="9.3216302"><ele>269.0</ele><time>2026-05-03T15:41:09.947Z</time></trkpt><trkpt lat="36.5085205" lon="9.3217201"><ele>269.0</ele><time>2026-05-03T15:41:10.944Z</time></trkpt><trkpt lat="36.5087175" lon="9.3218164"><ele>269.0</ele><time>2026-05-03T15:41:11.935Z</time></trkpt><trkpt lat="36.5089066" lon="9.3219333"><ele>269.33333333333337</ele><time>2026-05-03T15:41:12.939Z</time></trkpt><trkpt lat="36.5090864" lon="9.3220628"><ele>269.6666666666667</ele><time>2026-05-03T15:41:13.939Z</time></trkpt><trkpt lat="36.5092567" lon="9.3222031"><ele>270.0</ele><time>2026-05-03T15:41:14.939Z</time></trkpt><trkpt lat="36.509421" lon="9.3223498"><ele>265.3333333333333</ele><time>2026-05-03T15:41:15.93Z</time></trkpt><trkpt lat="36.5095859" lon="9.3225104"><ele>260.66666666666663</ele><time>2026-05-03T15:41:16.956Z</time></trkpt><trkpt lat="36.5097376" lon="9.3226793"><ele>256.0</ele><time>2026-05-03T15:41:17.934Z</time></trkpt><trkpt lat="36.5098795" lon="9.3228509"><ele>256.0</ele><time>2026-05-03T15:41:18.968Z</time></trkpt><trkpt lat="36.5100172" lon="9.3230313"><ele>256.0</ele><time>2026-05-03T15:41:19.946Z</time></trkpt><trkpt lat="36.5101462" lon="9.3232247"><ele>256.0</ele><time>2026-05-03T15:41:20.948Z</time></trkpt><trkpt lat="36.5102646" lon="9.3234308"><ele>257.0</ele><time>2026-05-03T15:41:21.94Z</time></trkpt><trkpt lat="36.5103757" lon="9.3236442"><ele>258.0</ele><time>2026-05-03T15:41:22.924Z</time></trkpt><trkpt lat="36.5104802" lon="9.3238672"><ele>259.0</ele><time>2026-05-03T15:41:23.955Z</time></trkpt><trkpt lat="36.5105776" lon="9.3240987"><ele>259.0</ele><time>2026-05-03T15:41:24.95Z</time></trkpt><trkpt lat="36.5106634" lon="9.3243399"><ele>259.0</ele><time>2026-05-03T15:41:25.954Z</time></trkpt><trkpt lat="36.5107431" lon="9.3245812"><ele>259.0</ele><time>2026-05-03T15:41:26.944Z</time></trkpt><trkpt lat="36.510821" lon="9.3248229"><ele>260.66666666666663</ele><time>2026-05-03T15:41:27.947Z</time></trkpt><trkpt lat="36.5109007" lon="9.32507"><ele>262.3333333333333</ele><time>2026-05-03T15:41:28.952Z</time></trkpt><trkpt lat="36.5109814" lon="9.3253119"><ele>264.0</ele><time>2026-05-03T15:41:29.97Z</time></trkpt><trkpt lat="36.5110626" lon="9.3255562"><ele>266.0</ele><time>2026-05-03T15:41:30.949Z</time></trkpt><trkpt lat="36.511145" lon="9.3258003"><ele>268.0</ele><time>2026-05-03T15:41:31.967Z</time></trkpt><trkpt lat="36.5112283" lon="9.3260442"><ele>270.0</ele><time>2026-05-03T15:41:32.954Z</time></trkpt><trkpt lat="36.5113076" lon="9.3262848"><ele>265.0</ele><time>2026-05-03T15:41:33.954Z</time></trkpt><trkpt lat="36.5113925" lon="9.326527"><ele>260.0</ele><time>2026-05-03T15:41:34.953Z</time></trkpt><trkpt lat="36.5114743" lon="9.3267737"><ele>255.0</ele><time>2026-05-03T15:41:35.941Z</time></trkpt><trkpt lat="36.5115517" lon="9.3270157"><ele>257.6666666666667</ele><time>2026-05-03T15:41:36.934Z</time></trkpt><trkpt lat="36.51163" lon="9.3272601"><ele>260.33333333333337</ele><time>2026-05-03T15:41:37.951Z</time></trkpt><trkpt lat="36.5117115" lon="9.3275005"><ele>263.0</ele><time>2026-05-03T15:41:38.955Z</time></trkpt><trkpt lat="36.5117949" lon="9.327743"><ele>263.0</ele><time>2026-05-03T15:41:39.934Z</time></trkpt><trkpt lat="36.511873" lon="9.3279879"><ele>263.0</ele><time>2026-05-03T15:41:40.946Z</time></trkpt><trkpt lat="36.5119545" lon="9.3282324"><ele>263.0</ele><time>2026-05-03T15:41:41.972Z</time></trkpt><trkpt lat="36.5120306" lon="9.3284785"><ele>263.0</ele><time>2026-05-03T15:41:42.954Z</time></trkpt><trkpt lat="36.5121025" lon="9.3287223"><ele>263.0</ele><time>2026-05-03T15:41:43.96Z</time></trkpt><trkpt lat="36.5121663" lon="9.3289733"><ele>263.0</ele><time>2026-05-03T15:41:44.946Z</time></trkpt><trkpt lat="36.5122243" lon="9.329226"><ele>263.0</ele><time>2026-05-03T15:41:45.954Z</time></trkpt><trkpt lat="36.5122758" lon="9.3294732"><ele>263.0</ele><time>2026-05-03T15:41:46.95Z</time></trkpt><trkpt lat="36.5123273" lon="9.3297231"><ele>263.0</ele><time>2026-05-03T15:41:47.972Z</time></trkpt><trkpt lat="36.5123709" lon="9.3299702"><ele>265.6666666666667</ele><time>2026-05-03T15:41:48.923Z</time></trkpt><trkpt lat="36.5124113" lon="9.3302188"><ele>268.3333333333333</ele><time>2026-05-03T15:41:49.956Z</time></trkpt><trkpt lat="36.5124437" lon="9.330471"><ele>271.0</ele><time>2026-05-03T15:41:50.942Z</time></trkpt><trkpt lat="36.512476" lon="9.3307229"><ele>272.66666666666663</ele><time>2026-05-03T15:41:51.954Z</time></trkpt><trkpt lat="36.512504" lon="9.3309717"><ele>274.3333333333333</ele><time>2026-05-03T15:41:52.939Z</time></trkpt><trkpt lat="36.5125322" lon="9.3312234"><ele>276.0</ele><time>2026-05-03T15:41:53.947Z</time></trkpt><trkpt lat="36.5125603" lon="9.3314731"><ele>277.3333333333333</ele><time>2026-05-03T15:41:54.951Z</time></trkpt><trkpt lat="36.5125884" lon="9.3317219"><ele>278.66666666666663</ele><time>2026-05-03T15:41:55.928Z</time></trkpt><trkpt lat="36.5126185" lon="9.3319726"><ele>280.0</ele><time>2026-05-03T15:41:56.941Z</time></trkpt><trkpt lat="36.5126478" lon="9.332222"><ele>279.0</ele><time>2026-05-03T15:41:57.949Z</time></trkpt><trkpt lat="36.5126783" lon="9.3324739"><ele>278.0</ele><time>2026-05-03T15:41:58.957Z</time></trkpt><trkpt lat="36.5127059" lon="9.3327294"><ele>277.0</ele><time>2026-05-03T15:41:59.948Z</time></trkpt><trkpt lat="36.5127381" lon="9.3329919"><ele>275.3333333333333</ele><time>2026-05-03T15:42:00.95Z</time></trkpt><trkpt lat="36.5127719" lon="9.3332571"><ele>273.6666666666667</ele><time>2026-05-03T15:42:01.944Z</time></trkpt><trkpt lat="36.5128039" lon="9.3335239"><ele>272.0</ele><time>2026-05-03T15:42:02.961Z</time></trkpt><trkpt lat="36.5128353" lon="9.333794"><ele>270.6666666666667</ele><time>2026-05-03T15:42:03.953Z</time></trkpt><trkpt lat="36.5128689" lon="9.3340554"><ele>269.3333333333333</ele><time>2026-05-03T15:42:04.94Z</time></trkpt><trkpt lat="36.5129048" lon="9.3343109"><ele>268.0</ele><time>2026-05-03T15:42:05.962Z</time></trkpt><trkpt lat="36.5129409" lon="9.3345626"><ele>266.0</ele><time>2026-05-03T15:42:06.948Z</time></trkpt><trkpt lat="36.5129844" lon="9.3348117"><ele>264.0</ele><time>2026-05-03T15:42:07.953Z</time></trkpt><trkpt lat="36.5130316" lon="9.3350598"><ele>262.0</ele><time>2026-05-03T15:42:08.955Z</time></trkpt><trkpt lat="36.5130857" lon="9.3353013"><ele>262.0</ele><time>2026-05-03T15:42:09.954Z</time></trkpt><trkpt lat="36.5131383" lon="9.3355447"><ele>262.0</ele><time>2026-05-03T15:42:10.955Z</time></trkpt><trkpt lat="36.5131958" lon="9.3357862"><ele>262.0</ele><time>2026-05-03T15:42:11.956Z</time></trkpt><trkpt lat="36.5132639" lon="9.3360209"><ele>260.3333333333333</ele><time>2026-05-03T15:42:12.957Z</time></trkpt><trkpt lat="36.5133292" lon="9.3362521"><ele>258.6666666666667</ele><time>2026-05-03T15:42:13.946Z</time></trkpt><trkpt lat="36.5133967" lon="9.3364733"><ele>257.0</ele><time>2026-05-03T15:42:14.958Z</time></trkpt><trkpt lat="36.5134663" lon="9.3366833"><ele>256.0</ele><time>2026-05-03T15:42:15.967Z</time></trkpt><trkpt lat="36.5135283" lon="9.3368719"><ele>255.0</ele><time>2026-05-03T15:42:16.948Z</time></trkpt><trkpt lat="36.513587" lon="9.3370426"><ele>254.0</ele><time>2026-05-03T15:42:17.966Z</time></trkpt><trkpt lat="36.5136491" lon="9.3372035"><ele>253.75</ele><time>2026-05-03T15:42:18.949Z</time></trkpt><trkpt lat="36.5137121" lon="9.3373572"><ele>253.5</ele><time>2026-05-03T15:42:19.941Z</time></trkpt><trkpt lat="36.5137744" lon="9.3375004"><ele>253.25</ele><time>2026-05-03T15:42:20.947Z</time></trkpt><trkpt lat="36.5138348" lon="9.3376446"><ele>253.0</ele><time>2026-05-03T15:42:21.957Z</time></trkpt><trkpt lat="36.5138993" lon="9.3377875"><ele>252.75</ele><time>2026-05-03T15:42:22.945Z</time></trkpt><trkpt lat="36.5139619" lon="9.3379301"><ele>252.5</ele><time>2026-05-03T15:42:23.952Z</time></trkpt><trkpt lat="36.5140288" lon="9.3380742"><ele>252.25</ele><time>2026-05-03T15:42:24.959Z</time></trkpt><trkpt lat="36.5140964" lon="9.3382181"><ele>252.0</ele><time>2026-05-03T15:42:25.952Z</time></trkpt><trkpt lat="36.5141701" lon="9.3383646"><ele>253.33333333333331</ele><time>2026-05-03T15:42:26.958Z</time></trkpt><trkpt lat="36.5142511" lon="9.338517"><ele>254.66666666666666</ele><time>2026-05-03T15:42:27.954Z</time></trkpt><trkpt lat="36.5143389" lon="9.3386702"><ele>256.0</ele><time>2026-05-03T15:42:28.966Z</time></trkpt><trkpt lat="36.5144286" lon="9.3388307"><ele>256.0</ele><time>2026-05-03T15:42:29.947Z</time></trkpt><trkpt lat="36.514518" lon="9.3390022"><ele>256.0</ele><time>2026-05-03T15:42:30.962Z</time></trkpt><trkpt lat="36.5146084" lon="9.3391743"><ele>256.0</ele><time>2026-05-03T15:42:31.941Z</time></trkpt><trkpt lat="36.5146957" lon="9.3393352"><ele>256.0</ele><time>2026-05-03T15:42:32.944Z</time></trkpt><trkpt lat="36.514778" lon="9.3394893"><ele>256.0</ele><time>2026-05-03T15:42:33.959Z</time></trkpt><trkpt lat="36.5148571" lon="9.3396397"><ele>256.0</ele><time>2026-05-03T15:42:34.975Z</time></trkpt><trkpt lat="36.5149337" lon="9.339786"><ele>256.0</ele><time>2026-05-03T15:42:35.935Z</time></trkpt><trkpt lat="36.5150101" lon="9.3399357"><ele>256.5</ele><time>2026-05-03T15:42:36.926Z</time></trkpt><trkpt lat="36.5150858" lon="9.3400824"><ele>257.0</ele><time>2026-05-03T15:42:37.922Z</time></trkpt><trkpt lat="36.5151662" lon="9.3402332"><ele>257.5</ele><time>2026-05-03T15:42:38.943Z</time></trkpt><trkpt lat="36.5152472" lon="9.3403883"><ele>258.0</ele><time>2026-05-03T15:42:39.942Z</time></trkpt><trkpt lat="36.515331" lon="9.3405445"><ele>257.5</ele><time>2026-05-03T15:42:40.958Z</time></trkpt><trkpt lat="36.5154096" lon="9.3406982"><ele>257.0</ele><time>2026-05-03T15:42:41.959Z</time></trkpt><trkpt lat="36.5154896" lon="9.3408486"><ele>256.5</ele><time>2026-05-03T15:42:42.949Z</time></trkpt><trkpt lat="36.5155681" lon="9.3409975"><ele>256.0</ele><time>2026-05-03T15:42:43.944Z</time></trkpt><trkpt lat="36.51564" lon="9.3411431"><ele>256.0</ele><time>2026-05-03T15:42:44.954Z</time></trkpt><trkpt lat="36.5157142" lon="9.3412829"><ele>256.0</ele><time>2026-05-03T15:42:45.952Z</time></trkpt><trkpt lat="36.5157858" lon="9.3414303"><ele>256.0</ele><time>2026-05-03T15:42:46.953Z</time></trkpt><trkpt lat="36.515855" lon="9.3415774"><ele>256.0</ele><time>2026-05-03T15:42:47.932Z</time></trkpt><trkpt lat="36.5159255" lon="9.3417337"><ele>256.0</ele><time>2026-05-03T15:42:48.953Z</time></trkpt><trkpt lat="36.5159933" lon="9.3418989"><ele>256.0</ele><time>2026-05-03T15:42:49.931Z</time></trkpt><trkpt lat="36.5160547" lon="9.3420695"><ele>256.0</ele><time>2026-05-03T15:42:50.948Z</time></trkpt><trkpt lat="36.5161231" lon="9.342241"><ele>256.0</ele><time>2026-05-03T15:42:51.951Z</time></trkpt><trkpt lat="36.5161882" lon="9.3424212"><ele>256.0</ele><time>2026-05-03T15:42:52.969Z</time></trkpt><trkpt lat="36.5162499" lon="9.3426062"><ele>256.0</ele><time>2026-05-03T15:42:53.942Z</time></trkpt><trkpt lat="36.5163162" lon="9.3427912"><ele>255.0</ele><time>2026-05-03T15:42:54.966Z</time></trkpt><trkpt lat="36.5163794" lon="9.3429707"><ele>254.0</ele><time>2026-05-03T15:42:55.96Z</time></trkpt><trkpt lat="36.5164404" lon="9.3431521"><ele>253.0</ele><time>2026-05-03T15:42:56.94Z</time></trkpt><trkpt lat="36.5164989" lon="9.3433331"><ele>253.0</ele><time>2026-05-03T15:42:57.939Z</time></trkpt><trkpt lat="36.5165486" lon="9.3435146"><ele>253.0</ele><time>2026-05-03T15:42:58.962Z</time></trkpt><trkpt lat="36.516594" lon="9.3437025"><ele>253.0</ele><time>2026-05-03T15:42:59.925Z</time></trkpt><trkpt lat="36.5166414" lon="9.3438994"><ele>252.66666666666666</ele><time>2026-05-03T15:43:00.932Z</time></trkpt><trkpt lat="36.5166859" lon="9.3441067"><ele>252.33333333333331</ele><time>2026-05-03T15:43:01.941Z</time></trkpt><trkpt lat="36.516732" lon="9.3443266"><ele>252.0</ele><time>2026-05-03T15:43:02.935Z</time></trkpt><trkpt lat="36.5167825" lon="9.3445707"><ele>251.66666666666669</ele><time>2026-05-03T15:43:03.951Z</time></trkpt><trkpt lat="36.5168338" lon="9.3448258"><ele>251.33333333333334</ele><time>2026-05-03T15:43:04.948Z</time></trkpt><trkpt lat="36.5168785" lon="9.3450856"><ele>251.0</ele><time>2026-05-03T15:43:05.953Z</time></trkpt><trkpt lat="36.5169162" lon="9.3453419"><ele>250.33333333333334</ele><time>2026-05-03T15:43:06.948Z</time></trkpt><trkpt lat="36.5169499" lon="9.3455871"><ele>249.66666666666669</ele><time>2026-05-03T15:43:07.934Z</time></trkpt><trkpt lat="36.5169858" lon="9.3458152"><ele>249.0</ele><time>2026-05-03T15:43:08.946Z</time></trkpt><trkpt lat="36.5170155" lon="9.3460378"><ele>249.0</ele><time>2026-05-03T15:43:09.944Z</time></trkpt><trkpt lat="36.5170542" lon="9.3462589"><ele>249.0</ele><time>2026-05-03T15:43:10.936Z</time></trkpt><trkpt lat="36.5170973" lon="9.3464754"><ele>249.0</ele><time>2026-05-03T15:43:11.969Z</time></trkpt><trkpt lat="36.5171513" lon="9.3466995"><ele>248.33333333333331</ele><time>2026-05-03T15:43:12.946Z</time></trkpt><trkpt lat="36.5172093" lon="9.346929"><ele>247.66666666666666</ele><time>2026-05-03T15:43:13.944Z</time></trkpt><trkpt lat="36.5172754" lon="9.3471621"><ele>247.0</ele><time>2026-05-03T15:43:14.949Z</time></trkpt><trkpt lat="36.517345" lon="9.3473915"><ele>247.0</ele><time>2026-05-03T15:43:15.97Z</time></trkpt><trkpt lat="36.5174207" lon="9.3476142"><ele>247.0</ele><time>2026-05-03T15:43:16.961Z</time></trkpt><trkpt lat="36.517503" lon="9.3478398"><ele>247.0</ele><time>2026-05-03T15:43:17.955Z</time></trkpt><trkpt lat="36.5175891" lon="9.3480658"><ele>246.33333333333331</ele><time>2026-05-03T15:43:18.964Z</time></trkpt><trkpt lat="36.5176797" lon="9.3482788"><ele>245.66666666666669</ele><time>2026-05-03T15:43:19.97Z</time></trkpt><trkpt lat="36.5177745" lon="9.348482"><ele>245.0</ele><time>2026-05-03T15:43:20.94Z</time></trkpt><trkpt lat="36.5178713" lon="9.3486664"><ele>245.33333333333334</ele><time>2026-05-03T15:43:21.962Z</time></trkpt><trkpt lat="36.5179747" lon="9.3488505"><ele>245.66666666666669</ele><time>2026-05-03T15:43:22.964Z</time></trkpt><trkpt lat="36.5180764" lon="9.3490267"><ele>246.0</ele><time>2026-05-03T15:43:23.951Z</time></trkpt><trkpt lat="36.5181827" lon="9.3491968"><ele>244.66666666666669</ele><time>2026-05-03T15:43:24.959Z</time></trkpt><trkpt lat="36.5182932" lon="9.3493543"><ele>243.33333333333334</ele><time>2026-05-03T15:43:25.963Z</time></trkpt><trkpt lat="36.5184095" lon="9.3495197"><ele>242.0</ele><time>2026-05-03T15:43:26.94Z</time></trkpt><trkpt lat="36.5185329" lon="9.3496871"><ele>240.66666666666669</ele><time>2026-05-03T15:43:27.954Z</time></trkpt><trkpt lat="36.5186585" lon="9.3498494"><ele>239.33333333333331</ele><time>2026-05-03T15:43:28.966Z</time></trkpt><trkpt lat="36.5187858" lon="9.3500087"><ele>238.0</ele><time>2026-05-03T15:43:29.936Z</time></trkpt><trkpt lat="36.518914" lon="9.3501551"><ele>237.66666666666666</ele><time>2026-05-03T15:43:30.953Z</time></trkpt><trkpt lat="36.5190414" lon="9.3503036"><ele>237.33333333333331</ele><time>2026-05-03T15:43:31.95Z</time></trkpt><trkpt lat="36.5191734" lon="9.3504517"><ele>237.0</ele><time>2026-05-03T15:43:32.938Z</time></trkpt><trkpt lat="36.5193032" lon="9.3505978"><ele>236.0</ele><time>2026-05-03T15:43:33.969Z</time></trkpt><trkpt lat="36.5194371" lon="9.3507441"><ele>235.0</ele><time>2026-05-03T15:43:34.94Z</time></trkpt><trkpt lat="36.5195732" lon="9.3509022"><ele>234.0</ele><time>2026-05-03T15:43:35.957Z</time></trkpt><trkpt lat="36.5197069" lon="9.3510594"><ele>233.66666666666669</ele><time>2026-05-03T15:43:36.946Z</time></trkpt><trkpt lat="36.5198389" lon="9.3512222"><ele>233.33333333333334</ele><time>2026-05-03T15:43:37.956Z</time></trkpt><trkpt lat="36.5199713" lon="9.3513865"><ele>233.0</ele><time>2026-05-03T15:43:38.945Z</time></trkpt><trkpt lat="36.5201008" lon="9.3515608"><ele>232.0</ele><time>2026-05-03T15:43:39.967Z</time></trkpt><trkpt lat="36.5202226" lon="9.3517421"><ele>231.0</ele><time>2026-05-03T15:43:40.936Z</time></trkpt><trkpt lat="36.520347" lon="9.351934"><ele>230.0</ele><time>2026-05-03T15:43:41.941Z</time></trkpt><trkpt lat="36.5204717" lon="9.3521324"><ele>229.33333333333334</ele><time>2026-05-03T15:43:42.946Z</time></trkpt><trkpt lat="36.5205927" lon="9.3523333"><ele>228.66666666666669</ele><time>2026-05-03T15:43:43.938Z</time></trkpt><trkpt lat="36.5207083" lon="9.3525361"><ele>228.0</ele><time>2026-05-03T15:43:44.948Z</time></trkpt><trkpt lat="36.5208223" lon="9.3527342"><ele>228.0</ele><time>2026-05-03T15:43:45.954Z</time></trkpt><trkpt lat="36.5209346" lon="9.3529363"><ele>228.0</ele><time>2026-05-03T15:43:46.94Z</time></trkpt><trkpt lat="36.5210446" lon="9.3531321"><ele>228.0</ele><time>2026-05-03T15:43:47.941Z</time></trkpt><trkpt lat="36.5211569" lon="9.3533309"><ele>227.0</ele><time>2026-05-03T15:43:48.935Z</time></trkpt><trkpt lat="36.521267" lon="9.3535273"><ele>226.0</ele><time>2026-05-03T15:43:49.948Z</time></trkpt><trkpt lat="36.5213799" lon="9.35372"><ele>225.0</ele><time>2026-05-03T15:43:50.946Z</time></trkpt><trkpt lat="36.5214898" lon="9.3539078"><ele>224.33333333333331</ele><time>2026-05-03T15:43:51.946Z</time></trkpt><trkpt lat="36.5216012" lon="9.354092"><ele>223.66666666666666</ele><time>2026-05-03T15:43:52.945Z</time></trkpt><trkpt lat="36.5217158" lon="9.3542655"><ele>223.0</ele><time>2026-05-03T15:43:53.934Z</time></trkpt><trkpt lat="36.521835" lon="9.3544303"><ele>223.0</ele><time>2026-05-03T15:43:54.956Z</time></trkpt><trkpt lat="36.5219592" lon="9.3545916"><ele>223.0</ele><time>2026-05-03T15:43:55.947Z</time></trkpt><trkpt lat="36.5220814" lon="9.3547548"><ele>223.0</ele><time>2026-05-03T15:43:56.942Z</time></trkpt><trkpt lat="36.5222028" lon="9.3549127"><ele>221.66666666666666</ele><time>2026-05-03T15:43:57.956Z</time></trkpt><trkpt lat="36.5223224" lon="9.3550664"><ele>220.33333333333331</ele><time>2026-05-03T15:43:58.962Z</time></trkpt><trkpt lat="36.5224383" lon="9.3552244"><ele>219.0</ele><time>2026-05-03T15:43:59.938Z</time></trkpt><trkpt lat="36.5225503" lon="9.3553792"><ele>219.66666666666669</ele><time>2026-05-03T15:44:00.938Z</time></trkpt><trkpt lat="36.5226568" lon="9.3555429"><ele>220.33333333333334</ele><time>2026-05-03T15:44:01.922Z</time></trkpt><trkpt lat="36.5227539" lon="9.3556997"><ele>221.0</ele><time>2026-05-03T15:44:02.951Z</time></trkpt><trkpt lat="36.5228426" lon="9.3558575"><ele>220.75</ele><time>2026-05-03T15:44:03.916Z</time></trkpt><trkpt lat="36.5229183" lon="9.3560086"><ele>220.5</ele><time>2026-05-03T15:44:04.947Z</time></trkpt><trkpt lat="36.5229935" lon="9.3561583"><ele>220.25</ele><time>2026-05-03T15:44:05.95Z</time></trkpt><trkpt lat="36.5230634" lon="9.3563051"><ele>220.0</ele><time>2026-05-03T15:44:06.932Z</time></trkpt><trkpt lat="36.5231307" lon="9.3564457"><ele>220.0</ele><time>2026-05-03T15:44:07.945Z</time></trkpt><trkpt lat="36.5231887" lon="9.3565714"><ele>220.0</ele><time>2026-05-03T15:44:08.928Z</time></trkpt><trkpt lat="36.5232415" lon="9.3566862"><ele>220.0</ele><time>2026-05-03T15:44:09.944Z</time></trkpt><trkpt lat="36.523275" lon="9.3567683"><ele>220.0</ele><time>2026-05-03T15:44:10.944Z</time></trkpt><trkpt lat="36.5233174" lon="9.3568675"><ele>220.0</ele><time>2026-05-03T15:44:12.947Z</time></trkpt><trkpt lat="36.5233385" lon="9.3569581"><ele>219.99999999999997</ele><time>2026-05-03T15:44:14.947Z</time></trkpt><trkpt lat="36.5233654" lon="9.3570521"><ele>220.0</ele><time>2026-05-03T15:44:16.93Z</time></trkpt><trkpt lat="36.5234053" lon="9.3571711"><ele>220.0</ele><time>2026-05-03T15:44:18.933Z</time></trkpt><trkpt lat="36.5234301" lon="9.3572473"><ele>220.0</ele><time>2026-05-03T15:44:19.957Z</time></trkpt><trkpt lat="36.5234544" lon="9.3573223"><ele>220.0</ele><time>2026-05-03T15:44:20.956Z</time></trkpt><trkpt lat="36.5234765" lon="9.3573971"><ele>219.99999999999997</ele><time>2026-05-03T15:44:21.952Z</time></trkpt><trkpt lat="36.5235022" lon="9.3574733"><ele>220.0</ele><time>2026-05-03T15:44:22.963Z</time></trkpt><trkpt lat="36.5235252" lon="9.3575537"><ele>219.99999999999997</ele><time>2026-05-03T15:44:23.936Z</time></trkpt><trkpt lat="36.5235525" lon="9.3576316"><ele>220.0</ele><time>2026-05-03T15:44:24.948Z</time></trkpt><trkpt lat="36.5235789" lon="9.3577246"><ele>220.0</ele><time>2026-05-03T15:44:25.958Z</time></trkpt><trkpt lat="36.5236132" lon="9.3578218"><ele>220.0</ele><time>2026-05-03T15:44:26.951Z</time></trkpt><trkpt lat="36.5236539" lon="9.3579172"><ele>219.99999999999997</ele><time>2026-05-03T15:44:27.941Z</time></trkpt><trkpt lat="36.5237028" lon="9.3580207"><ele>220.0</ele><time>2026-05-03T15:44:28.933Z</time></trkpt><trkpt lat="36.5237589" lon="9.3581185"><ele>220.0</ele><time>2026-05-03T15:44:29.942Z</time></trkpt><trkpt lat="36.523823" lon="9.3582139"><ele>220.0</ele><time>2026-05-03T15:44:30.939Z</time></trkpt><trkpt lat="36.5238855" lon="9.3582895"><ele>220.0</ele><time>2026-05-03T15:44:31.936Z</time></trkpt><trkpt lat="36.523945" lon="9.3583487"><ele>220.0</ele><time>2026-05-03T15:44:32.955Z</time></trkpt><trkpt lat="36.5240089" lon="9.358399"><ele>220.0</ele><time>2026-05-03T15:44:33.919Z</time></trkpt><trkpt lat="36.5241265" lon="9.3584677"><ele>219.99999999999997</ele><time>2026-05-03T15:44:35.923Z</time></trkpt><trkpt lat="36.5242501" lon="9.358517"><ele>220.0</ele><time>2026-05-03T15:44:37.933Z</time></trkpt><trkpt lat="36.5243164" lon="9.3585348"><ele>220.0</ele><time>2026-05-03T15:44:38.931Z</time></trkpt><trkpt lat="36.5243867" lon="9.3585599"><ele>220.0</ele><time>2026-05-03T15:44:39.928Z</time></trkpt><trkpt lat="36.5244594" lon="9.3585837"><ele>219.99999999999997</ele><time>2026-05-03T15:44:40.946Z</time></trkpt><trkpt lat="36.5245373" lon="9.3586042"><ele>220.0</ele><time>2026-05-03T15:44:41.945Z</time></trkpt><trkpt lat="36.5246179" lon="9.3586226"><ele>219.66666666666666</ele><time>2026-05-03T15:44:42.941Z</time></trkpt><trkpt lat="36.5247027" lon="9.3586493"><ele>219.33333333333331</ele><time>2026-05-03T15:44:43.929Z</time></trkpt><trkpt lat="36.524783" lon="9.3586793"><ele>219.0</ele><time>2026-05-03T15:44:44.959Z</time></trkpt><trkpt lat="36.5248581" lon="9.3587067"><ele>218.66666666666669</ele><time>2026-05-03T15:44:45.955Z</time></trkpt><trkpt lat="36.5249308" lon="9.3587352"><ele>218.33333333333334</ele><time>2026-05-03T15:44:46.947Z</time></trkpt><trkpt lat="36.5250095" lon="9.3587702"><ele>218.0</ele><time>2026-05-03T15:44:47.969Z</time></trkpt><trkpt lat="36.5250909" lon="9.3588142"><ele>218.00000000000003</ele><time>2026-05-03T15:44:48.962Z</time></trkpt><trkpt lat="36.525172" lon="9.3588613"><ele>218.0</ele><time>2026-05-03T15:44:49.981Z</time></trkpt><trkpt lat="36.5252483" lon="9.3589077"><ele>218.0</ele><time>2026-05-03T15:44:50.94Z</time></trkpt><trkpt lat="36.5253207" lon="9.3589525"><ele>218.0</ele><time>2026-05-03T15:44:51.962Z</time></trkpt><trkpt lat="36.525396" lon="9.3590011"><ele>218.00000000000003</ele><time>2026-05-03T15:44:52.951Z</time></trkpt><trkpt lat="36.5254654" lon="9.3590493"><ele>218.0</ele><time>2026-05-03T15:44:53.953Z</time></trkpt><trkpt lat="36.5255295" lon="9.3590905"><ele>218.16666666666669</ele><time>2026-05-03T15:44:54.948Z</time></trkpt><trkpt lat="36.5255995" lon="9.3591395"><ele>218.33333333333334</ele><time>2026-05-03T15:44:55.959Z</time></trkpt><trkpt lat="36.5256779" lon="9.3591918"><ele>218.5</ele><time>2026-05-03T15:44:56.956Z</time></trkpt><trkpt lat="36.525755" lon="9.3592375"><ele>218.66666666666669</ele><time>2026-05-03T15:44:57.939Z</time></trkpt><trkpt lat="36.5258283" lon="9.3592827"><ele>218.83333333333334</ele><time>2026-05-03T15:44:58.947Z</time></trkpt><trkpt lat="36.5258961" lon="9.359325"><ele>219.0</ele><time>2026-05-03T15:44:59.943Z</time></trkpt><trkpt lat="36.5259573" lon="9.3593632"><ele>219.0</ele><time>2026-05-03T15:45:00.935Z</time></trkpt><trkpt lat="36.5260633" lon="9.3594364"><ele>219.0</ele><time>2026-05-03T15:45:02.959Z</time></trkpt><trkpt lat="36.5261195" lon="9.3594749"><ele>219.0</ele><time>2026-05-03T15:45:03.952Z</time></trkpt><trkpt lat="36.5261815" lon="9.3595212"><ele>219.0</ele><time>2026-05-03T15:45:04.924Z</time></trkpt><trkpt lat="36.5262568" lon="9.3595801"><ele>219.0</ele><time>2026-05-03T15:45:05.958Z</time></trkpt><trkpt lat="36.5263421" lon="9.359636"><ele>219.0</ele><time>2026-05-03T15:45:06.949Z</time></trkpt><trkpt lat="36.5264304" lon="9.3596932"><ele>218.79999999999998</ele><time>2026-05-03T15:45:07.958Z</time></trkpt><trkpt lat="36.5265198" lon="9.3597513"><ele>218.59999999999997</ele><time>2026-05-03T15:45:08.952Z</time></trkpt><trkpt lat="36.5266079" lon="9.3598063"><ele>218.4</ele><time>2026-05-03T15:45:09.939Z</time></trkpt><trkpt lat="36.5266941" lon="9.3598507"><ele>218.2</ele><time>2026-05-03T15:45:10.948Z</time></trkpt><trkpt lat="36.5267757" lon="9.3598968"><ele>218.0</ele><time>2026-05-03T15:45:11.952Z</time></trkpt><trkpt lat="36.5268632" lon="9.3599362"><ele>218.0</ele><time>2026-05-03T15:45:12.95Z</time></trkpt><trkpt lat="36.5269556" lon="9.359978"><ele>218.0</ele><time>2026-05-03T15:45:13.945Z</time></trkpt><trkpt lat="36.5270552" lon="9.3600236"><ele>218.0</ele><time>2026-05-03T15:45:14.934Z</time></trkpt><trkpt lat="36.5271577" lon="9.360057"><ele>218.0</ele><time>2026-05-03T15:45:15.972Z</time></trkpt><trkpt lat="36.5272593" lon="9.3600933"><ele>218.0</ele><time>2026-05-03T15:45:16.954Z</time></trkpt><trkpt lat="36.5273646" lon="9.3601269"><ele>216.25</ele><time>2026-05-03T15:45:17.949Z</time></trkpt><trkpt lat="36.5274711" lon="9.3601605"><ele>214.5</ele><time>2026-05-03T15:45:18.939Z</time></trkpt><trkpt lat="36.527583" lon="9.3601891"><ele>212.75</ele><time>2026-05-03T15:45:19.952Z</time></trkpt><trkpt lat="36.5277014" lon="9.3602164"><ele>211.0</ele><time>2026-05-03T15:45:20.947Z</time></trkpt><trkpt lat="36.5278275" lon="9.3602498"><ele>210.0</ele><time>2026-05-03T15:45:21.963Z</time></trkpt><trkpt lat="36.5279602" lon="9.3602866"><ele>209.0</ele><time>2026-05-03T15:45:22.949Z</time></trkpt><trkpt lat="36.5280977" lon="9.3603244"><ele>208.0</ele><time>2026-05-03T15:45:23.957Z</time></trkpt><trkpt lat="36.5282429" lon="9.3603646"><ele>207.0</ele><time>2026-05-03T15:45:24.945Z</time></trkpt><trkpt lat="36.5283895" lon="9.3604019"><ele>207.0</ele><time>2026-05-03T15:45:25.955Z</time></trkpt><trkpt lat="36.5285349" lon="9.3604454"><ele>207.0</ele><time>2026-05-03T15:45:26.963Z</time></trkpt><trkpt lat="36.5286795" lon="9.3604894"><ele>207.0</ele><time>2026-05-03T15:45:27.93Z</time></trkpt><trkpt lat="36.5288285" lon="9.3605389"><ele>208.33333333333331</ele><time>2026-05-03T15:45:28.947Z</time></trkpt><trkpt lat="36.5289816" lon="9.3605922"><ele>209.66666666666666</ele><time>2026-05-03T15:45:29.927Z</time></trkpt><trkpt lat="36.5291329" lon="9.3606516"><ele>211.0</ele><time>2026-05-03T15:45:30.958Z</time></trkpt><trkpt lat="36.5292857" lon="9.3607186"><ele>211.0</ele><time>2026-05-03T15:45:31.924Z</time></trkpt><trkpt lat="36.5294365" lon="9.3608007"><ele>211.0</ele><time>2026-05-03T15:45:32.932Z</time></trkpt><trkpt lat="36.5295829" lon="9.3608966"><ele>211.0</ele><time>2026-05-03T15:45:33.953Z</time></trkpt><trkpt lat="36.5297256" lon="9.3610052"><ele>210.66666666666666</ele><time>2026-05-03T15:45:34.946Z</time></trkpt><trkpt lat="36.5298598" lon="9.3611209"><ele>210.33333333333331</ele><time>2026-05-03T15:45:35.946Z</time></trkpt><trkpt lat="36.5299926" lon="9.3612479"><ele>210.0</ele><time>2026-05-03T15:45:36.939Z</time></trkpt><trkpt lat="36.5301198" lon="9.3613883"><ele>210.0</ele><time>2026-05-03T15:45:37.96Z</time></trkpt><trkpt lat="36.5302473" lon="9.3615372"><ele>210.0</ele><time>2026-05-03T15:45:38.951Z</time></trkpt><trkpt lat="36.530368" lon="9.361689"><ele>210.0</ele><time>2026-05-03T15:45:39.964Z</time></trkpt><trkpt lat="36.5304875" lon="9.3618549"><ele>209.0</ele><time>2026-05-03T15:45:40.951Z</time></trkpt><trkpt lat="36.5306069" lon="9.3620278"><ele>208.0</ele><time>2026-05-03T15:45:41.952Z</time></trkpt><trkpt lat="36.5307143" lon="9.3622221"><ele>207.0</ele><time>2026-05-03T15:45:42.956Z</time></trkpt><trkpt lat="36.5308162" lon="9.3624294"><ele>207.0</ele><time>2026-05-03T15:45:43.941Z</time></trkpt><trkpt lat="36.5309037" lon="9.3626381"><ele>207.0</ele><time>2026-05-03T15:45:44.954Z</time></trkpt><trkpt lat="36.5309823" lon="9.3628475"><ele>207.0</ele><time>2026-05-03T15:45:45.954Z</time></trkpt><trkpt lat="36.531051" lon="9.3630796"><ele>207.33333333333331</ele><time>2026-05-03T15:45:46.947Z</time></trkpt><trkpt lat="36.5311054" lon="9.3633047"><ele>207.66666666666666</ele><time>2026-05-03T15:45:47.958Z</time></trkpt><trkpt lat="36.5311555" lon="9.3635338"><ele>208.0</ele><time>2026-05-03T15:45:48.945Z</time></trkpt><trkpt lat="36.5312075" lon="9.3637645"><ele>206.0</ele><time>2026-05-03T15:45:49.944Z</time></trkpt><trkpt lat="36.5312549" lon="9.3639957"><ele>204.0</ele><time>2026-05-03T15:45:50.936Z</time></trkpt><trkpt lat="36.5313018" lon="9.3642293"><ele>202.0</ele><time>2026-05-03T15:45:51.956Z</time></trkpt><trkpt lat="36.5313484" lon="9.364462"><ele>202.0</ele><time>2026-05-03T15:45:52.954Z</time></trkpt><trkpt lat="36.5313956" lon="9.3646925"><ele>202.0</ele><time>2026-05-03T15:45:53.931Z</time></trkpt><trkpt lat="36.5314427" lon="9.3649267"><ele>202.0</ele><time>2026-05-03T15:45:54.954Z</time></trkpt><trkpt lat="36.5314888" lon="9.3651598"><ele>201.66666666666666</ele><time>2026-05-03T15:45:55.922Z</time></trkpt><trkpt lat="36.5315343" lon="9.3653896"><ele>201.33333333333331</ele><time>2026-05-03T15:45:56.942Z</time></trkpt><trkpt lat="36.5315764" lon="9.3656218"><ele>201.0</ele><time>2026-05-03T15:45:57.96Z</time></trkpt><trkpt lat="36.5316261" lon="9.3658517"><ele>200.33333333333331</ele><time>2026-05-03T15:45:58.957Z</time></trkpt><trkpt lat="36.5316719" lon="9.3660829"><ele>199.66666666666666</ele><time>2026-05-03T15:45:59.923Z</time></trkpt><trkpt lat="36.5317193" lon="9.3663091"><ele>199.0</ele><time>2026-05-03T15:46:00.941Z</time></trkpt><trkpt lat="36.5317613" lon="9.3665404"><ele>199.0</ele><time>2026-05-03T15:46:01.952Z</time></trkpt><trkpt lat="36.5318022" lon="9.3667737"><ele>199.0</ele><time>2026-05-03T15:46:02.936Z</time></trkpt><trkpt lat="36.5318403" lon="9.3670156"><ele>199.0</ele><time>2026-05-03T15:46:03.955Z</time></trkpt><trkpt lat="36.5318743" lon="9.36725"><ele>198.0</ele><time>2026-05-03T15:46:04.959Z</time></trkpt><trkpt lat="36.531905" lon="9.3674865"><ele>197.0</ele><time>2026-05-03T15:46:05.955Z</time></trkpt><trkpt lat="36.5319377" lon="9.367726"><ele>196.0</ele><time>2026-05-03T15:46:06.966Z</time></trkpt><trkpt lat="36.5319706" lon="9.3679718"><ele>194.66666666666666</ele><time>2026-05-03T15:46:07.937Z</time></trkpt><trkpt lat="36.5320019" lon="9.3682199"><ele>193.33333333333331</ele><time>2026-05-03T15:46:08.947Z</time></trkpt><trkpt lat="36.5320317" lon="9.3684715"><ele>192.0</ele><time>2026-05-03T15:46:09.948Z</time></trkpt><trkpt lat="36.5320572" lon="9.3687213"><ele>191.0</ele><time>2026-05-03T15:46:10.961Z</time></trkpt><trkpt lat="36.5320814" lon="9.3689709"><ele>190.0</ele><time>2026-05-03T15:46:11.958Z</time></trkpt><trkpt lat="36.5321027" lon="9.369221"><ele>189.0</ele><time>2026-05-03T15:46:12.94Z</time></trkpt><trkpt lat="36.5321198" lon="9.3694765"><ele>187.0</ele><time>2026-05-03T15:46:13.956Z</time></trkpt><trkpt lat="36.5321392" lon="9.3697328"><ele>185.0</ele><time>2026-05-03T15:46:14.947Z</time></trkpt><trkpt lat="36.5321606" lon="9.3699867"><ele>183.0</ele><time>2026-05-03T15:46:15.948Z</time></trkpt><trkpt lat="36.5321814" lon="9.3702382"><ele>183.0</ele><time>2026-05-03T15:46:16.959Z</time></trkpt><trkpt lat="36.5321968" lon="9.3704838"><ele>183.0</ele><time>2026-05-03T15:46:17.956Z</time></trkpt><trkpt lat="36.5322088" lon="9.3707289"><ele>183.0</ele><time>2026-05-03T15:46:18.934Z</time></trkpt><trkpt lat="36.5322175" lon="9.3709696"><ele>180.66666666666666</ele><time>2026-05-03T15:46:19.954Z</time></trkpt><trkpt lat="36.5322197" lon="9.3712067"><ele>178.33333333333331</ele><time>2026-05-03T15:46:20.944Z</time></trkpt><trkpt lat="36.5322228" lon="9.3714365"><ele>176.0</ele><time>2026-05-03T15:46:21.949Z</time></trkpt><trkpt lat="36.5322278" lon="9.3716513"><ele>174.66666666666666</ele><time>2026-05-03T15:46:22.958Z</time></trkpt><trkpt lat="36.5322327" lon="9.3718521"><ele>173.33333333333334</ele><time>2026-05-03T15:46:23.944Z</time></trkpt><trkpt lat="36.5322386" lon="9.3720457"><ele>172.0</ele><time>2026-05-03T15:46:24.938Z</time></trkpt><trkpt lat="36.5322376" lon="9.3722222"><ele>171.0</ele><time>2026-05-03T15:46:25.942Z</time></trkpt><trkpt lat="36.5322374" lon="9.3723811"><ele>170.0</ele><time>2026-05-03T15:46:26.951Z</time></trkpt><trkpt lat="36.5322319" lon="9.3725303"><ele>169.0</ele><time>2026-05-03T15:46:27.933Z</time></trkpt><trkpt lat="36.532231" lon="9.3726649"><ele>168.0</ele><time>2026-05-03T15:46:28.941Z</time></trkpt><trkpt lat="36.5322323" lon="9.3727986"><ele>168.0</ele><time>2026-05-03T15:46:29.945Z</time></trkpt><trkpt lat="36.5322306" lon="9.3729261"><ele>168.0</ele><time>2026-05-03T15:46:30.972Z</time></trkpt><trkpt lat="36.5322288" lon="9.3730522"><ele>168.0</ele><time>2026-05-03T15:46:31.942Z</time></trkpt><trkpt lat="36.5322298" lon="9.3731736"><ele>168.0</ele><time>2026-05-03T15:46:32.947Z</time></trkpt><trkpt lat="36.5322299" lon="9.3733065"><ele>168.0</ele><time>2026-05-03T15:46:33.93Z</time></trkpt><trkpt lat="36.5322297" lon="9.3734494"><ele>167.75</ele><time>2026-05-03T15:46:34.964Z</time></trkpt><trkpt lat="36.5322268" lon="9.3736041"><ele>167.5</ele><time>2026-05-03T15:46:35.948Z</time></trkpt><trkpt lat="36.5322229" lon="9.3737571"><ele>167.25</ele><time>2026-05-03T15:46:36.941Z</time></trkpt><trkpt lat="36.5322164" lon="9.373895"><ele>167.0</ele><time>2026-05-03T15:46:37.934Z</time></trkpt><trkpt lat="36.5322061" lon="9.3740335"><ele>166.5</ele><time>2026-05-03T15:46:38.972Z</time></trkpt><trkpt lat="36.5322043" lon="9.3741813"><ele>166.0</ele><time>2026-05-03T15:46:39.951Z</time></trkpt><trkpt lat="36.5321991" lon="9.374338"><ele>165.5</ele><time>2026-05-03T15:46:40.948Z</time></trkpt><trkpt lat="36.5321982" lon="9.3744961"><ele>165.0</ele><time>2026-05-03T15:46:41.959Z</time></trkpt><trkpt lat="36.5321954" lon="9.3746597"><ele>163.5</ele><time>2026-05-03T15:46:42.942Z</time></trkpt><trkpt lat="36.53219" lon="9.3748268"><ele>162.0</ele><time>2026-05-03T15:46:43.925Z</time></trkpt><trkpt lat="36.5321864" lon="9.3749906"><ele>160.5</ele><time>2026-05-03T15:46:44.942Z</time></trkpt><trkpt lat="36.5321801" lon="9.3751614"><ele>159.0</ele><time>2026-05-03T15:46:45.946Z</time></trkpt><trkpt lat="36.5321792" lon="9.3753344"><ele>159.0</ele><time>2026-05-03T15:46:46.944Z</time></trkpt><trkpt lat="36.532177" lon="9.3755079"><ele>159.0</ele><time>2026-05-03T15:46:47.95Z</time></trkpt><trkpt lat="36.5321814" lon="9.3756901"><ele>159.0</ele><time>2026-05-03T15:46:48.952Z</time></trkpt><trkpt lat="36.5321869" lon="9.3758841"><ele>159.0</ele><time>2026-05-03T15:46:49.923Z</time></trkpt><trkpt lat="36.5321912" lon="9.376089"><ele>157.0</ele><time>2026-05-03T15:46:50.945Z</time></trkpt><trkpt lat="36.5322003" lon="9.3763062"><ele>155.0</ele><time>2026-05-03T15:46:51.956Z</time></trkpt><trkpt lat="36.5322152" lon="9.3765317"><ele>153.0</ele><time>2026-05-03T15:46:52.956Z</time></trkpt><trkpt lat="36.5322345" lon="9.3767617"><ele>151.0</ele><time>2026-05-03T15:46:53.947Z</time></trkpt><trkpt lat="36.5322579" lon="9.3769922"><ele>149.0</ele><time>2026-05-03T15:46:54.943Z</time></trkpt><trkpt lat="36.5322825" lon="9.3772197"><ele>147.0</ele><time>2026-05-03T15:46:55.948Z</time></trkpt><trkpt lat="36.5323108" lon="9.3774336"><ele>144.66666666666666</ele><time>2026-05-03T15:46:56.953Z</time></trkpt><trkpt lat="36.5323421" lon="9.3776461"><ele>142.33333333333331</ele><time>2026-05-03T15:46:57.933Z</time></trkpt><trkpt lat="36.5323801" lon="9.377862"><ele>140.0</ele><time>2026-05-03T15:46:58.974Z</time></trkpt><trkpt lat="36.5324226" lon="9.3780738"><ele>137.66666666666666</ele><time>2026-05-03T15:46:59.956Z</time></trkpt><trkpt lat="36.5324675" lon="9.3782875"><ele>135.33333333333334</ele><time>2026-05-03T15:47:00.949Z</time></trkpt><trkpt lat="36.532515" lon="9.3784952"><ele>133.0</ele><time>2026-05-03T15:47:01.965Z</time></trkpt><trkpt lat="36.5325663" lon="9.3787044"><ele>132.0</ele><time>2026-05-03T15:47:02.949Z</time></trkpt><trkpt lat="36.5326244" lon="9.3789089"><ele>131.0</ele><time>2026-05-03T15:47:03.948Z</time></trkpt><trkpt lat="36.5326893" lon="9.3791214"><ele>130.0</ele><time>2026-05-03T15:47:04.953Z</time></trkpt><trkpt lat="36.5327553" lon="9.3793362"><ele>130.0</ele><time>2026-05-03T15:47:05.959Z</time></trkpt><trkpt lat="36.5328285" lon="9.3795497"><ele>130.0</ele><time>2026-05-03T15:47:06.955Z</time></trkpt><trkpt lat="36.5329095" lon="9.3797672"><ele>130.0</ele><time>2026-05-03T15:47:07.952Z</time></trkpt><trkpt lat="36.5329902" lon="9.379988"><ele>129.33333333333334</ele><time>2026-05-03T15:47:08.952Z</time></trkpt><trkpt lat="36.533076" lon="9.3801997"><ele>128.66666666666666</ele><time>2026-05-03T15:47:09.952Z</time></trkpt><trkpt lat="36.5331675" lon="9.3804097"><ele>128.0</ele><time>2026-05-03T15:47:10.939Z</time></trkpt><trkpt lat="36.5332545" lon="9.3806141"><ele>127.33333333333333</ele><time>2026-05-03T15:47:11.957Z</time></trkpt><trkpt lat="36.5333477" lon="9.3808006"><ele>126.66666666666666</ele><time>2026-05-03T15:47:12.953Z</time></trkpt><trkpt lat="36.5334427" lon="9.3809914"><ele>126.0</ele><time>2026-05-03T15:47:13.941Z</time></trkpt><trkpt lat="36.5335411" lon="9.3811829"><ele>125.66666666666666</ele><time>2026-05-03T15:47:14.957Z</time></trkpt><trkpt lat="36.5336395" lon="9.3813777"><ele>125.33333333333333</ele><time>2026-05-03T15:47:15.957Z</time></trkpt><trkpt lat="36.5337389" lon="9.3815685"><ele>125.0</ele><time>2026-05-03T15:47:16.958Z</time></trkpt><trkpt lat="36.533833" lon="9.3817665"><ele>125.0</ele><time>2026-05-03T15:47:17.931Z</time></trkpt><trkpt lat="36.5339281" lon="9.3819697"><ele>125.0</ele><time>2026-05-03T15:47:18.972Z</time></trkpt><trkpt lat="36.5340254" lon="9.3821636"><ele>125.0</ele><time>2026-05-03T15:47:19.951Z</time></trkpt><trkpt lat="36.5341258" lon="9.3823598"><ele>125.0</ele><time>2026-05-03T15:47:20.935Z</time></trkpt><trkpt lat="36.5342265" lon="9.3825565"><ele>125.0</ele><time>2026-05-03T15:47:21.968Z</time></trkpt><trkpt lat="36.5343309" lon="9.3827566"><ele>125.0</ele><time>2026-05-03T15:47:22.953Z</time></trkpt><trkpt lat="36.5344341" lon="9.3829512"><ele>123.33333333333333</ele><time>2026-05-03T15:47:23.949Z</time></trkpt><trkpt lat="36.5345357" lon="9.3831565"><ele>121.66666666666666</ele><time>2026-05-03T15:47:24.977Z</time></trkpt><trkpt lat="36.5346431" lon="9.3833668"><ele>120.0</ele><time>2026-05-03T15:47:25.946Z</time></trkpt><trkpt lat="36.5347507" lon="9.3835754"><ele>120.0</ele><time>2026-05-03T15:47:26.961Z</time></trkpt><trkpt lat="36.5348599" lon="9.383791"><ele>120.0</ele><time>2026-05-03T15:47:27.944Z</time></trkpt><trkpt lat="36.534967" lon="9.3840081"><ele>120.0</ele><time>2026-05-03T15:47:28.962Z</time></trkpt><trkpt lat="36.5350768" lon="9.3842226"><ele>119.66666666666666</ele><time>2026-05-03T15:47:29.962Z</time></trkpt><trkpt lat="36.5351899" lon="9.3844452"><ele>119.33333333333333</ele><time>2026-05-03T15:47:30.938Z</time></trkpt><trkpt lat="36.5353051" lon="9.3846757"><ele>119.0</ele><time>2026-05-03T15:47:31.951Z</time></trkpt><trkpt lat="36.535426" lon="9.3849263"><ele>119.0</ele><time>2026-05-03T15:47:32.934Z</time></trkpt><trkpt lat="36.5355483" lon="9.3851781"><ele>119.0</ele><time>2026-05-03T15:47:33.966Z</time></trkpt><trkpt lat="36.5356749" lon="9.3854324"><ele>122.5</ele><time>2026-05-03T15:47:34.95Z</time></trkpt><trkpt lat="36.5358035" lon="9.3856837"><ele>126.0</ele><time>2026-05-03T15:47:35.949Z</time></trkpt><trkpt lat="36.5359287" lon="9.3859274"><ele>126.0</ele><time>2026-05-03T15:47:36.96Z</time></trkpt><trkpt lat="36.5360538" lon="9.3861733"><ele>126.0</ele><time>2026-05-03T15:47:37.951Z</time></trkpt><trkpt lat="36.5361807" lon="9.3864051"><ele>125.5</ele><time>2026-05-03T15:47:38.952Z</time></trkpt><trkpt lat="36.5363135" lon="9.3866342"><ele>125.0</ele><time>2026-05-03T15:47:39.939Z</time></trkpt><trkpt lat="36.5364463" lon="9.3868655"><ele>125.0</ele><time>2026-05-03T15:47:40.948Z</time></trkpt><trkpt lat="36.5365867" lon="9.3870997"><ele>125.0</ele><time>2026-05-03T15:47:41.943Z</time></trkpt><trkpt lat="36.5367269" lon="9.3873304"><ele>130.0</ele><time>2026-05-03T15:47:42.952Z</time></trkpt><trkpt lat="36.5368682" lon="9.3875648"><ele>135.0</ele><time>2026-05-03T15:47:43.959Z</time></trkpt><trkpt lat="36.5370065" lon="9.3877944"><ele>133.5</ele><time>2026-05-03T15:47:44.932Z</time></trkpt><trkpt lat="36.5371457" lon="9.3880201"><ele>132.0</ele><time>2026-05-03T15:47:45.938Z</time></trkpt><trkpt lat="36.5372858" lon="9.3882491"><ele>132.0</ele><time>2026-05-03T15:47:46.943Z</time></trkpt><trkpt lat="36.5374287" lon="9.3884792"><ele>132.0</ele><time>2026-05-03T15:47:47.944Z</time></trkpt><trkpt lat="36.537569" lon="9.3887099"><ele>132.0</ele><time>2026-05-03T15:47:48.956Z</time></trkpt><trkpt lat="36.5377067" lon="9.3889435"><ele>132.0</ele><time>2026-05-03T15:47:49.951Z</time></trkpt><trkpt lat="36.5378461" lon="9.3891706"><ele>129.0</ele><time>2026-05-03T15:47:50.949Z</time></trkpt><trkpt lat="36.5379823" lon="9.3894025"><ele>126.0</ele><time>2026-05-03T15:47:51.957Z</time></trkpt><trkpt lat="36.5381188" lon="9.3896296"><ele>126.66666666666666</ele><time>2026-05-03T15:47:52.954Z</time></trkpt><trkpt lat="36.5382538" lon="9.389857"><ele>127.33333333333333</ele><time>2026-05-03T15:47:53.954Z</time></trkpt><trkpt lat="36.5383858" lon="9.3900745"><ele>128.0</ele><time>2026-05-03T15:47:54.948Z</time></trkpt><trkpt lat="36.5385153" lon="9.3902883"><ele>128.0</ele><time>2026-05-03T15:47:55.953Z</time></trkpt><trkpt lat="36.5386404" lon="9.3904998"><ele>128.0</ele><time>2026-05-03T15:47:56.953Z</time></trkpt><trkpt lat="36.5387704" lon="9.3907095"><ele>128.0</ele><time>2026-05-03T15:47:57.957Z</time></trkpt><trkpt lat="36.5388943" lon="9.3909145"><ele>126.66666666666666</ele><time>2026-05-03T15:47:58.948Z</time></trkpt><trkpt lat="36.5390148" lon="9.3911178"><ele>125.33333333333334</ele><time>2026-05-03T15:47:59.931Z</time></trkpt><trkpt lat="36.5391403" lon="9.3913268"><ele>124.0</ele><time>2026-05-03T15:48:00.946Z</time></trkpt><trkpt lat="36.5392638" lon="9.3915301"><ele>124.0</ele><time>2026-05-03T15:48:01.958Z</time></trkpt><trkpt lat="36.5393851" lon="9.3917334"><ele>124.0</ele><time>2026-05-03T15:48:02.943Z</time></trkpt><trkpt lat="36.5395058" lon="9.3919397"><ele>124.0</ele><time>2026-05-03T15:48:03.956Z</time></trkpt><trkpt lat="36.5396285" lon="9.3921451"><ele>124.0</ele><time>2026-05-03T15:48:04.951Z</time></trkpt><trkpt lat="36.5397513" lon="9.3923468"><ele>124.0</ele><time>2026-05-03T15:48:05.961Z</time></trkpt><trkpt lat="36.5398737" lon="9.3925491"><ele>124.0</ele><time>2026-05-03T15:48:06.933Z</time></trkpt><trkpt lat="36.539995" lon="9.3927512"><ele>124.0</ele><time>2026-05-03T15:48:07.941Z</time></trkpt><trkpt lat="36.5401153" lon="9.3929504"><ele>124.0</ele><time>2026-05-03T15:48:08.937Z</time></trkpt><trkpt lat="36.5402371" lon="9.3931543"><ele>124.0</ele><time>2026-05-03T15:48:09.957Z</time></trkpt><trkpt lat="36.540354" lon="9.3933535"><ele>122.66666666666667</ele><time>2026-05-03T15:48:10.95Z</time></trkpt><trkpt lat="36.5404696" lon="9.3935635"><ele>121.33333333333334</ele><time>2026-05-03T15:48:11.94Z</time></trkpt><trkpt lat="36.5405795" lon="9.3937859"><ele>120.0</ele><time>2026-05-03T15:48:12.957Z</time></trkpt><trkpt lat="36.5406811" lon="9.3940094"><ele>120.0</ele><time>2026-05-03T15:48:13.955Z</time></trkpt><trkpt lat="36.5407761" lon="9.3942451"><ele>120.0</ele><time>2026-05-03T15:48:14.958Z</time></trkpt><trkpt lat="36.5408606" lon="9.394489"><ele>120.0</ele><time>2026-05-03T15:48:15.956Z</time></trkpt><trkpt lat="36.5409342" lon="9.3947382"><ele>120.66666666666666</ele><time>2026-05-03T15:48:16.941Z</time></trkpt><trkpt lat="36.5410002" lon="9.3949866"><ele>121.33333333333333</ele><time>2026-05-03T15:48:17.94Z</time></trkpt><trkpt lat="36.5410586" lon="9.3952417"><ele>122.0</ele><time>2026-05-03T15:48:18.958Z</time></trkpt><trkpt lat="36.5411086" lon="9.3955007"><ele>122.66666666666666</ele><time>2026-05-03T15:48:19.954Z</time></trkpt><trkpt lat="36.5411504" lon="9.3957594"><ele>123.33333333333334</ele><time>2026-05-03T15:48:20.96Z</time></trkpt><trkpt lat="36.5411792" lon="9.3960185"><ele>124.0</ele><time>2026-05-03T15:48:21.943Z</time></trkpt><trkpt lat="36.5411937" lon="9.3962815"><ele>123.66666666666667</ele><time>2026-05-03T15:48:22.937Z</time></trkpt><trkpt lat="36.5411973" lon="9.3965475"><ele>123.33333333333334</ele><time>2026-05-03T15:48:23.933Z</time></trkpt><trkpt lat="36.541195" lon="9.3968156"><ele>123.0</ele><time>2026-05-03T15:48:24.941Z</time></trkpt><trkpt lat="36.5411849" lon="9.3970915"><ele>123.0</ele><time>2026-05-03T15:48:25.955Z</time></trkpt><trkpt lat="36.5411675" lon="9.3973641"><ele>123.0</ele><time>2026-05-03T15:48:26.947Z</time></trkpt><trkpt lat="36.5411571" lon="9.3976338"><ele>123.0</ele><time>2026-05-03T15:48:27.939Z</time></trkpt><trkpt lat="36.5411412" lon="9.3978897"><ele>122.0</ele><time>2026-05-03T15:48:28.954Z</time></trkpt><trkpt lat="36.5411261" lon="9.3981353"><ele>121.0</ele><time>2026-05-03T15:48:29.944Z</time></trkpt><trkpt lat="36.541109" lon="9.3983751"><ele>120.0</ele><time>2026-05-03T15:48:30.949Z</time></trkpt><trkpt lat="36.5410921" lon="9.3986032"><ele>120.0</ele><time>2026-05-03T15:48:31.963Z</time></trkpt><trkpt lat="36.5410708" lon="9.3988256"><ele>120.0</ele><time>2026-05-03T15:48:32.943Z</time></trkpt><trkpt lat="36.5410537" lon="9.3990318"><ele>120.0</ele><time>2026-05-03T15:48:33.941Z</time></trkpt><trkpt lat="36.5410418" lon="9.3992171"><ele>118.8</ele><time>2026-05-03T15:48:34.957Z</time></trkpt><trkpt lat="36.5410314" lon="9.399382"><ele>117.6</ele><time>2026-05-03T15:48:35.954Z</time></trkpt><trkpt lat="36.5410242" lon="9.3995244"><ele>116.4</ele><time>2026-05-03T15:48:36.944Z</time></trkpt><trkpt lat="36.5410302" lon="9.3996366"><ele>115.2</ele><time>2026-05-03T15:48:37.94Z</time></trkpt><trkpt lat="36.5410373" lon="9.3997345"><ele>114.0</ele><time>2026-05-03T15:48:38.918Z</time></trkpt><trkpt lat="36.5410559" lon="9.3998553"><ele>113.0</ele><time>2026-05-03T15:48:40.955Z</time></trkpt><trkpt lat="36.5410725" lon="9.3999358"><ele>111.99999999999999</ele><time>2026-05-03T15:48:42.947Z</time></trkpt><trkpt lat="36.541089" lon="9.4000384"><ele>111.0</ele><time>2026-05-03T15:48:45.962Z</time></trkpt><trkpt lat="36.5411035" lon="9.4001156"><ele>110.0</ele><time>2026-05-03T15:48:48.959Z</time></trkpt><trkpt lat="36.5411006" lon="9.4002083"><ele>109.0</ele><time>2026-05-03T15:50:45.921Z</time></trkpt><trkpt lat="36.5410323" lon="9.4002448"><ele>108.0</ele><time>2026-05-03T15:51:07.943Z</time></trkpt><trkpt lat="36.5409588" lon="9.4002683"><ele>107.0</ele><time>2026-05-03T15:51:14.951Z</time></trkpt><trkpt lat="36.5409168" lon="9.4003667"><ele>107.0</ele><time>2026-05-03T15:51:16.925Z</time></trkpt><trkpt lat="36.5409031" lon="9.4004767"><ele>107.0</ele><time>2026-05-03T15:51:17.974Z</time></trkpt><trkpt lat="36.5408728" lon="9.4006101"><ele>107.0</ele><time>2026-05-03T15:51:18.96Z</time></trkpt><trkpt lat="36.5408298" lon="9.4007836"><ele>107.0</ele><time>2026-05-03T15:51:19.958Z</time></trkpt><trkpt lat="36.5407797" lon="9.400965"><ele>106.0</ele><time>2026-05-03T15:51:20.954Z</time></trkpt><trkpt lat="36.5407181" lon="9.4011417"><ele>105.0</ele><time>2026-05-03T15:51:21.946Z</time></trkpt><trkpt lat="36.5406601" lon="9.4013117"><ele>104.0</ele><time>2026-05-03T15:51:22.938Z</time></trkpt><trkpt lat="36.5406" lon="9.4014811"><ele>102.66666666666666</ele><time>2026-05-03T15:51:23.955Z</time></trkpt><trkpt lat="36.5405369" lon="9.4016663"><ele>101.33333333333334</ele><time>2026-05-03T15:51:24.946Z</time></trkpt><trkpt lat="36.5404647" lon="9.4018608"><ele>100.0</ele><time>2026-05-03T15:51:25.966Z</time></trkpt><trkpt lat="36.5404045" lon="9.4020469"><ele>100.25</ele><time>2026-05-03T15:51:26.958Z</time></trkpt><trkpt lat="36.5403603" lon="9.4022318"><ele>100.5</ele><time>2026-05-03T15:51:27.945Z</time></trkpt><trkpt lat="36.5403401" lon="9.4023965"><ele>100.75</ele><time>2026-05-03T15:51:28.944Z</time></trkpt><trkpt lat="36.5403362" lon="9.4025705"><ele>101.0</ele><time>2026-05-03T15:51:29.937Z</time></trkpt><trkpt lat="36.5403498" lon="9.4027409"><ele>100.75</ele><time>2026-05-03T15:51:30.943Z</time></trkpt><trkpt lat="36.5403881" lon="9.4029131"><ele>100.5</ele><time>2026-05-03T15:51:31.939Z</time></trkpt><trkpt lat="36.5404535" lon="9.4030783"><ele>100.25</ele><time>2026-05-03T15:51:32.944Z</time></trkpt><trkpt lat="36.5405322" lon="9.4032348"><ele>100.0</ele><time>2026-05-03T15:51:33.947Z</time></trkpt><trkpt lat="36.5406241" lon="9.4033735"><ele>101.0</ele><time>2026-05-03T15:51:34.95Z</time></trkpt><trkpt lat="36.5407317" lon="9.4034956"><ele>102.0</ele><time>2026-05-03T15:51:35.944Z</time></trkpt><trkpt lat="36.5408568" lon="9.4036137"><ele>103.0</ele><time>2026-05-03T15:51:36.917Z</time></trkpt><trkpt lat="36.5409938" lon="9.4037163"><ele>103.0</ele><time>2026-05-03T15:51:37.926Z</time></trkpt><trkpt lat="36.5411292" lon="9.4038103"><ele>103.0</ele><time>2026-05-03T15:51:38.954Z</time></trkpt><trkpt lat="36.5412553" lon="9.4039018"><ele>103.0</ele><time>2026-05-03T15:51:39.962Z</time></trkpt><trkpt lat="36.5413789" lon="9.4039976"><ele>103.0</ele><time>2026-05-03T15:51:40.952Z</time></trkpt><trkpt lat="36.5414947" lon="9.4041013"><ele>103.5</ele><time>2026-05-03T15:51:41.947Z</time></trkpt><trkpt lat="36.5416099" lon="9.404217"><ele>104.0</ele><time>2026-05-03T15:51:42.937Z</time></trkpt><trkpt lat="36.5417173" lon="9.4043373"><ele>104.5</ele><time>2026-05-03T15:51:43.952Z</time></trkpt><trkpt lat="36.5418124" lon="9.4044698"><ele>105.0</ele><time>2026-05-03T15:51:44.931Z</time></trkpt><trkpt lat="36.5418998" lon="9.4046166"><ele>104.0</ele><time>2026-05-03T15:51:45.927Z</time></trkpt><trkpt lat="36.5419771" lon="9.4047782"><ele>103.0</ele><time>2026-05-03T15:51:46.928Z</time></trkpt><trkpt lat="36.5420587" lon="9.404954"><ele>102.0</ele><time>2026-05-03T15:51:47.955Z</time></trkpt><trkpt lat="36.5421415" lon="9.4051403"><ele>101.66666666666666</ele><time>2026-05-03T15:51:48.948Z</time></trkpt><trkpt lat="36.5422181" lon="9.4053315"><ele>101.33333333333333</ele><time>2026-05-03T15:51:49.937Z</time></trkpt><trkpt lat="36.5422899" lon="9.4055297"><ele>101.0</ele><time>2026-05-03T15:51:50.961Z</time></trkpt><trkpt lat="36.5423661" lon="9.4057238"><ele>100.0</ele><time>2026-05-03T15:51:51.923Z</time></trkpt><trkpt lat="36.5424511" lon="9.405922"><ele>99.0</ele><time>2026-05-03T15:51:52.951Z</time></trkpt><trkpt lat="36.5425405" lon="9.406123"><ele>98.0</ele><time>2026-05-03T15:51:53.943Z</time></trkpt><trkpt lat="36.5426284" lon="9.4063268"><ele>96.66666666666666</ele><time>2026-05-03T15:51:54.953Z</time></trkpt><trkpt lat="36.5427266" lon="9.4065363"><ele>95.33333333333333</ele><time>2026-05-03T15:51:55.93Z</time></trkpt><trkpt lat="36.5428209" lon="9.406739"><ele>94.0</ele><time>2026-05-03T15:51:56.939Z</time></trkpt><trkpt lat="36.542916" lon="9.4069464"><ele>93.0</ele><time>2026-05-03T15:51:57.928Z</time></trkpt><trkpt lat="36.5430096" lon="9.4071549"><ele>92.0</ele><time>2026-05-03T15:51:58.949Z</time></trkpt><trkpt lat="36.5431013" lon="9.4073652"><ele>91.0</ele><time>2026-05-03T15:51:59.949Z</time></trkpt><trkpt lat="36.5431935" lon="9.4075763"><ele>90.33333333333333</ele><time>2026-05-03T15:52:00.942Z</time></trkpt><trkpt lat="36.5432835" lon="9.4077889"><ele>89.66666666666667</ele><time>2026-05-03T15:52:01.944Z</time></trkpt><trkpt lat="36.5433759" lon="9.4080088"><ele>89.0</ele><time>2026-05-03T15:52:02.968Z</time></trkpt><trkpt lat="36.5434673" lon="9.4082292"><ele>88.33333333333334</ele><time>2026-05-03T15:52:03.957Z</time></trkpt><trkpt lat="36.5435634" lon="9.4084471"><ele>87.66666666666667</ele><time>2026-05-03T15:52:04.926Z</time></trkpt><trkpt lat="36.5436575" lon="9.4086648"><ele>87.0</ele><time>2026-05-03T15:52:05.931Z</time></trkpt><trkpt lat="36.5437533" lon="9.4088891"><ele>86.33333333333333</ele><time>2026-05-03T15:52:06.946Z</time></trkpt><trkpt lat="36.5438456" lon="9.4091137"><ele>85.66666666666666</ele><time>2026-05-03T15:52:07.952Z</time></trkpt><trkpt lat="36.5439434" lon="9.409335"><ele>85.0</ele><time>2026-05-03T15:52:08.937Z</time></trkpt><trkpt lat="36.5440406" lon="9.4095607"><ele>84.0</ele><time>2026-05-03T15:52:09.948Z</time></trkpt><trkpt lat="36.5441378" lon="9.4097839"><ele>83.0</ele><time>2026-05-03T15:52:10.946Z</time></trkpt><trkpt lat="36.5442376" lon="9.4100101"><ele>82.0</ele><time>2026-05-03T15:52:11.94Z</time></trkpt><trkpt lat="36.5443393" lon="9.4102399"><ele>82.0</ele><time>2026-05-03T15:52:12.958Z</time></trkpt><trkpt lat="36.5444386" lon="9.4104712"><ele>82.0</ele><time>2026-05-03T15:52:13.945Z</time></trkpt><trkpt lat="36.5445372" lon="9.4106981"><ele>82.0</ele><time>2026-05-03T15:52:14.955Z</time></trkpt><trkpt lat="36.5446341" lon="9.4109255"><ele>81.66666666666666</ele><time>2026-05-03T15:52:15.948Z</time></trkpt><trkpt lat="36.5447289" lon="9.4111477"><ele>81.33333333333333</ele><time>2026-05-03T15:52:16.945Z</time></trkpt><trkpt lat="36.5448222" lon="9.4113658"><ele>81.0</ele><time>2026-05-03T15:52:17.977Z</time></trkpt><trkpt lat="36.5449146" lon="9.4115822"><ele>80.33333333333333</ele><time>2026-05-03T15:52:18.945Z</time></trkpt><trkpt lat="36.5450057" lon="9.4117982"><ele>79.66666666666666</ele><time>2026-05-03T15:52:19.94Z</time></trkpt><trkpt lat="36.5450995" lon="9.4120071"><ele>79.0</ele><time>2026-05-03T15:52:20.937Z</time></trkpt><trkpt lat="36.5451881" lon="9.412216"><ele>79.0</ele><time>2026-05-03T15:52:21.967Z</time></trkpt><trkpt lat="36.5452743" lon="9.4124289"><ele>79.0</ele><time>2026-05-03T15:52:22.954Z</time></trkpt><trkpt lat="36.5453652" lon="9.4126393"><ele>79.0</ele><time>2026-05-03T15:52:23.942Z</time></trkpt><trkpt lat="36.5454608" lon="9.4128438"><ele>78.0</ele><time>2026-05-03T15:52:24.951Z</time></trkpt><trkpt lat="36.5455519" lon="9.4130571"><ele>77.0</ele><time>2026-05-03T15:52:25.943Z</time></trkpt><trkpt lat="36.5456421" lon="9.4132693"><ele>76.0</ele><time>2026-05-03T15:52:26.94Z</time></trkpt><trkpt lat="36.5457356" lon="9.4134809"><ele>76.0</ele><time>2026-05-03T15:52:27.935Z</time></trkpt><trkpt lat="36.5458271" lon="9.4136945"><ele>76.0</ele><time>2026-05-03T15:52:28.946Z</time></trkpt><trkpt lat="36.545921" lon="9.4139126"><ele>76.0</ele><time>2026-05-03T15:52:29.963Z</time></trkpt><trkpt lat="36.5460138" lon="9.4141371"><ele>76.33333333333333</ele><time>2026-05-03T15:52:30.942Z</time></trkpt><trkpt lat="36.5461123" lon="9.4143615"><ele>76.66666666666667</ele><time>2026-05-03T15:52:31.947Z</time></trkpt><trkpt lat="36.5462073" lon="9.4145831"><ele>77.0</ele><time>2026-05-03T15:52:32.944Z</time></trkpt><trkpt lat="36.5463013" lon="9.4148062"><ele>75.33333333333334</ele><time>2026-05-03T15:52:33.954Z</time></trkpt><trkpt lat="36.5464004" lon="9.4150374"><ele>73.66666666666667</ele><time>2026-05-03T15:52:34.942Z</time></trkpt><trkpt lat="36.5464971" lon="9.4152581"><ele>72.0</ele><time>2026-05-03T15:52:35.924Z</time></trkpt><trkpt lat="36.5465921" lon="9.4154822"><ele>72.33333333333333</ele><time>2026-05-03T15:52:36.944Z</time></trkpt><trkpt lat="36.5466846" lon="9.4157088"><ele>72.66666666666666</ele><time>2026-05-03T15:52:37.946Z</time></trkpt><trkpt lat="36.5467752" lon="9.4159247"><ele>73.0</ele><time>2026-05-03T15:52:38.948Z</time></trkpt><trkpt lat="36.5468603" lon="9.4161413"><ele>73.0</ele><time>2026-05-03T15:52:39.95Z</time></trkpt><trkpt lat="36.5469434" lon="9.4163562"><ele>73.0</ele><time>2026-05-03T15:52:40.952Z</time></trkpt><trkpt lat="36.5470202" lon="9.4165735"><ele>73.0</ele><time>2026-05-03T15:52:41.944Z</time></trkpt><trkpt lat="36.5471019" lon="9.4167837"><ele>72.66666666666666</ele><time>2026-05-03T15:52:42.955Z</time></trkpt><trkpt lat="36.5471869" lon="9.4169904"><ele>72.33333333333333</ele><time>2026-05-03T15:52:43.961Z</time></trkpt><trkpt lat="36.5472623" lon="9.4171929"><ele>72.0</ele><time>2026-05-03T15:52:44.958Z</time></trkpt><trkpt lat="36.5473378" lon="9.4173847"><ele>72.0</ele><time>2026-05-03T15:52:45.941Z</time></trkpt><trkpt lat="36.5474071" lon="9.4175627"><ele>72.0</ele><time>2026-05-03T15:52:46.946Z</time></trkpt><trkpt lat="36.5474743" lon="9.4177332"><ele>72.0</ele><time>2026-05-03T15:52:47.948Z</time></trkpt><trkpt lat="36.5475358" lon="9.4178899"><ele>71.0</ele><time>2026-05-03T15:52:48.945Z</time></trkpt><trkpt lat="36.547593" lon="9.4180406"><ele>70.0</ele><time>2026-05-03T15:52:49.952Z</time></trkpt><trkpt lat="36.5476499" lon="9.4181836"><ele>69.0</ele><time>2026-05-03T15:52:50.953Z</time></trkpt><trkpt lat="36.5477066" lon="9.4183261"><ele>68.0</ele><time>2026-05-03T15:52:51.924Z</time></trkpt><trkpt lat="36.5477596" lon="9.4184672"><ele>68.0</ele><time>2026-05-03T15:52:52.935Z</time></trkpt><trkpt lat="36.5478153" lon="9.4186088"><ele>68.0</ele><time>2026-05-03T15:52:53.939Z</time></trkpt><trkpt lat="36.5478673" lon="9.4187483"><ele>68.0</ele><time>2026-05-03T15:52:54.949Z</time></trkpt><trkpt lat="36.5479222" lon="9.4188954"><ele>68.0</ele><time>2026-05-03T15:52:55.937Z</time></trkpt><trkpt lat="36.547978" lon="9.4190389"><ele>68.75</ele><time>2026-05-03T15:52:56.944Z</time></trkpt><trkpt lat="36.5480348" lon="9.419194"><ele>69.5</ele><time>2026-05-03T15:52:57.949Z</time></trkpt><trkpt lat="36.5480923" lon="9.4193496"><ele>70.25</ele><time>2026-05-03T15:52:58.949Z</time></trkpt><trkpt lat="36.5481485" lon="9.4195072"><ele>71.0</ele><time>2026-05-03T15:52:59.941Z</time></trkpt><trkpt lat="36.548209" lon="9.4196678"><ele>71.5</ele><time>2026-05-03T15:53:00.939Z</time></trkpt><trkpt lat="36.5482658" lon="9.4198214"><ele>72.0</ele><time>2026-05-03T15:53:01.952Z</time></trkpt><trkpt lat="36.5483233" lon="9.4199818"><ele>72.5</ele><time>2026-05-03T15:53:02.943Z</time></trkpt><trkpt lat="36.5483811" lon="9.4201347"><ele>73.0</ele><time>2026-05-03T15:53:03.933Z</time></trkpt><trkpt lat="36.5484384" lon="9.4202851"><ele>73.0</ele><time>2026-05-03T15:53:04.928Z</time></trkpt><trkpt lat="36.5484935" lon="9.4204398"><ele>73.0</ele><time>2026-05-03T15:53:05.929Z</time></trkpt><trkpt lat="36.5485485" lon="9.4205991"><ele>73.0</ele><time>2026-05-03T15:53:06.942Z</time></trkpt><trkpt lat="36.5486015" lon="9.4207519"><ele>73.0</ele><time>2026-05-03T15:53:07.96Z</time></trkpt><trkpt lat="36.5486604" lon="9.4209106"><ele>72.75</ele><time>2026-05-03T15:53:08.954Z</time></trkpt><trkpt lat="36.5487214" lon="9.4210757"><ele>72.5</ele><time>2026-05-03T15:53:09.942Z</time></trkpt><trkpt lat="36.548782" lon="9.4212411"><ele>72.25</ele><time>2026-05-03T15:53:10.939Z</time></trkpt><trkpt lat="36.5488379" lon="9.4214154"><ele>72.0</ele><time>2026-05-03T15:53:11.944Z</time></trkpt><trkpt lat="36.5488895" lon="9.4215925"><ele>72.66666666666667</ele><time>2026-05-03T15:53:12.933Z</time></trkpt><trkpt lat="36.5489385" lon="9.4217724"><ele>73.33333333333334</ele><time>2026-05-03T15:53:13.947Z</time></trkpt><trkpt lat="36.5489825" lon="9.421957"><ele>74.0</ele><time>2026-05-03T15:53:14.957Z</time></trkpt><trkpt lat="36.5490201" lon="9.422144"><ele>74.33333333333334</ele><time>2026-05-03T15:53:15.924Z</time></trkpt><trkpt lat="36.5490483" lon="9.4223332"><ele>74.66666666666667</ele><time>2026-05-03T15:53:16.939Z</time></trkpt><trkpt lat="36.5490768" lon="9.4225241"><ele>75.0</ele><time>2026-05-03T15:53:17.921Z</time></trkpt><trkpt lat="36.5490996" lon="9.4227064"><ele>75.0</ele><time>2026-05-03T15:53:18.943Z</time></trkpt><trkpt lat="36.5491244" lon="9.4228874"><ele>75.0</ele><time>2026-05-03T15:53:19.944Z</time></trkpt><trkpt lat="36.5491496" lon="9.4230598"><ele>75.0</ele><time>2026-05-03T15:53:20.959Z</time></trkpt><trkpt lat="36.54918" lon="9.4232365"><ele>75.0</ele><time>2026-05-03T15:53:21.939Z</time></trkpt><trkpt lat="36.549207" lon="9.4234002"><ele>75.75</ele><time>2026-05-03T15:53:22.954Z</time></trkpt><trkpt lat="36.5492317" lon="9.4235543"><ele>76.5</ele><time>2026-05-03T15:53:23.938Z</time></trkpt><trkpt lat="36.549258" lon="9.4236995"><ele>77.25</ele><time>2026-05-03T15:53:24.926Z</time></trkpt><trkpt lat="36.5492799" lon="9.423841"><ele>78.0</ele><time>2026-05-03T15:53:25.941Z</time></trkpt><trkpt lat="36.5493027" lon="9.4239744"><ele>78.0</ele><time>2026-05-03T15:53:26.942Z</time></trkpt><trkpt lat="36.5493238" lon="9.4241003"><ele>78.0</ele><time>2026-05-03T15:53:27.965Z</time></trkpt><trkpt lat="36.5493451" lon="9.4242151"><ele>78.0</ele><time>2026-05-03T15:53:28.934Z</time></trkpt><trkpt lat="36.5493622" lon="9.4243227"><ele>78.0</ele><time>2026-05-03T15:53:29.955Z</time></trkpt><trkpt lat="36.5493755" lon="9.424417"><ele>78.0</ele><time>2026-05-03T15:53:30.947Z</time></trkpt><trkpt lat="36.5493896" lon="9.4245035"><ele>78.0</ele><time>2026-05-03T15:53:31.946Z</time></trkpt><trkpt lat="36.5494016" lon="9.4245845"><ele>77.6</ele><time>2026-05-03T15:53:32.95Z</time></trkpt><trkpt lat="36.5494352" lon="9.4247372"><ele>77.19999999999999</ele><time>2026-05-03T15:53:34.942Z</time></trkpt><trkpt lat="36.5494676" lon="9.4248781"><ele>76.8</ele><time>2026-05-03T15:53:36.956Z</time></trkpt><trkpt lat="36.5494803" lon="9.4249578"><ele>76.39999999999999</ele><time>2026-05-03T15:53:37.955Z</time></trkpt><trkpt lat="36.5494992" lon="9.4251019"><ele>76.0</ele><time>2026-05-03T15:53:39.962Z</time></trkpt><trkpt lat="36.5495172" lon="9.4252368"><ele>76.0</ele><time>2026-05-03T15:53:41.931Z</time></trkpt><trkpt lat="36.5495409" lon="9.4253987"><ele>76.0</ele><time>2026-05-03T15:53:43.944Z</time></trkpt><trkpt lat="36.5495583" lon="9.4254929"><ele>76.0</ele><time>2026-05-03T15:53:44.937Z</time></trkpt><trkpt lat="36.5495757" lon="9.4255948"><ele>76.0</ele><time>2026-05-03T15:53:45.93Z</time></trkpt><trkpt lat="36.5495951" lon="9.4256957"><ele>76.0</ele><time>2026-05-03T15:53:46.944Z</time></trkpt><trkpt lat="36.5496149" lon="9.4257913"><ele>76.5</ele><time>2026-05-03T15:53:47.962Z</time></trkpt><trkpt lat="36.5496373" lon="9.4258814"><ele>77.0</ele><time>2026-05-03T15:53:48.969Z</time></trkpt><trkpt lat="36.5496615" lon="9.4259701"><ele>77.5</ele><time>2026-05-03T15:53:49.962Z</time></trkpt><trkpt lat="36.5496875" lon="9.4260669"><ele>78.0</ele><time>2026-05-03T15:53:50.927Z</time></trkpt><trkpt lat="36.5497132" lon="9.4261793"><ele>78.5</ele><time>2026-05-03T15:53:51.92Z</time></trkpt><trkpt lat="36.5497398" lon="9.4262938"><ele>79.0</ele><time>2026-05-03T15:53:52.92Z</time></trkpt><trkpt lat="36.5497645" lon="9.4264187"><ele>79.2</ele><time>2026-05-03T15:53:53.928Z</time></trkpt><trkpt lat="36.5497914" lon="9.4265483"><ele>79.4</ele><time>2026-05-03T15:53:54.934Z</time></trkpt><trkpt lat="36.5498134" lon="9.4266776"><ele>79.6</ele><time>2026-05-03T15:53:55.955Z</time></trkpt><trkpt lat="36.5498433" lon="9.4268066"><ele>79.8</ele><time>2026-05-03T15:53:56.959Z</time></trkpt><trkpt lat="36.5498732" lon="9.4269274"><ele>80.0</ele><time>2026-05-03T15:53:57.944Z</time></trkpt><trkpt lat="36.5499059" lon="9.4270554"><ele>79.8</ele><time>2026-05-03T15:53:58.951Z</time></trkpt><trkpt lat="36.5499375" lon="9.4271798"><ele>79.6</ele><time>2026-05-03T15:53:59.961Z</time></trkpt><trkpt lat="36.5499701" lon="9.4273003"><ele>79.4</ele><time>2026-05-03T15:54:00.949Z</time></trkpt><trkpt lat="36.5499985" lon="9.4274136"><ele>79.2</ele><time>2026-05-03T15:54:01.944Z</time></trkpt><trkpt lat="36.550023" lon="9.4275067"><ele>79.0</ele><time>2026-05-03T15:54:02.933Z</time></trkpt><trkpt lat="36.5500409" lon="9.4275926"><ele>79.0</ele><time>2026-05-03T15:54:03.969Z</time></trkpt><trkpt lat="36.5500603" lon="9.4276696"><ele>79.0</ele><time>2026-05-03T15:54:04.941Z</time></trkpt><trkpt lat="36.5500795" lon="9.427752"><ele>79.0</ele><time>2026-05-03T15:54:05.952Z</time></trkpt><trkpt lat="36.5500981" lon="9.427852"><ele>79.0</ele><time>2026-05-03T15:54:06.955Z</time></trkpt><trkpt lat="36.5501218" lon="9.4279642"><ele>79.0</ele><time>2026-05-03T15:54:07.965Z</time></trkpt><trkpt lat="36.550151" lon="9.4280866"><ele>79.0</ele><time>2026-05-03T15:54:08.93Z</time></trkpt><trkpt lat="36.5501775" lon="9.4282213"><ele>79.5</ele><time>2026-05-03T15:54:09.94Z</time></trkpt><trkpt lat="36.5501989" lon="9.428365"><ele>80.0</ele><time>2026-05-03T15:54:10.948Z</time></trkpt><trkpt lat="36.5502224" lon="9.4285136"><ele>80.5</ele><time>2026-05-03T15:54:11.937Z</time></trkpt><trkpt lat="36.5502432" lon="9.4286497"><ele>81.0</ele><time>2026-05-03T15:54:12.939Z</time></trkpt><trkpt lat="36.5502636" lon="9.428789"><ele>81.25</ele><time>2026-05-03T15:54:13.951Z</time></trkpt><trkpt lat="36.5502864" lon="9.4289305"><ele>81.5</ele><time>2026-05-03T15:54:14.939Z</time></trkpt><trkpt lat="36.5503074" lon="9.4290864"><ele>81.75</ele><time>2026-05-03T15:54:15.93Z</time></trkpt><trkpt lat="36.5503291" lon="9.429233"><ele>82.0</ele><time>2026-05-03T15:54:16.935Z</time></trkpt><trkpt lat="36.5503529" lon="9.429394"><ele>82.0</ele><time>2026-05-03T15:54:17.964Z</time></trkpt><trkpt lat="36.5503793" lon="9.4295622"><ele>82.0</ele><time>2026-05-03T15:54:18.949Z</time></trkpt><trkpt lat="36.5504046" lon="9.4297367"><ele>82.0</ele><time>2026-05-03T15:54:19.946Z</time></trkpt><trkpt lat="36.5504297" lon="9.4299128"><ele>82.0</ele><time>2026-05-03T15:54:20.926Z</time></trkpt><trkpt lat="36.5504565" lon="9.430085"><ele>82.0</ele><time>2026-05-03T15:54:21.967Z</time></trkpt><trkpt lat="36.5504778" lon="9.430256"><ele>82.0</ele><time>2026-05-03T15:54:22.952Z</time></trkpt><trkpt lat="36.5505006" lon="9.43043"><ele>82.0</ele><time>2026-05-03T15:54:23.953Z</time></trkpt><trkpt lat="36.550527" lon="9.4306038"><ele>82.0</ele><time>2026-05-03T15:54:24.946Z</time></trkpt><trkpt lat="36.5505527" lon="9.4307799"><ele>82.0</ele><time>2026-05-03T15:54:25.94Z</time></trkpt><trkpt lat="36.5505752" lon="9.4309582"><ele>82.0</ele><time>2026-05-03T15:54:26.949Z</time></trkpt><trkpt lat="36.5505997" lon="9.4311346"><ele>82.0</ele><time>2026-05-03T15:54:27.945Z</time></trkpt><trkpt lat="36.5506257" lon="9.4313052"><ele>82.0</ele><time>2026-05-03T15:54:28.951Z</time></trkpt><trkpt lat="36.5506505" lon="9.4314765"><ele>82.0</ele><time>2026-05-03T15:54:29.953Z</time></trkpt><trkpt lat="36.5506783" lon="9.4316422"><ele>82.0</ele><time>2026-05-03T15:54:30.937Z</time></trkpt><trkpt lat="36.5507033" lon="9.4318042"><ele>82.0</ele><time>2026-05-03T15:54:31.955Z</time></trkpt><trkpt lat="36.5507267" lon="9.4319642"><ele>82.0</ele><time>2026-05-03T15:54:32.965Z</time></trkpt><trkpt lat="36.55075" lon="9.4321253"><ele>82.0</ele><time>2026-05-03T15:54:33.935Z</time></trkpt><trkpt lat="36.5507736" lon="9.4322816"><ele>82.0</ele><time>2026-05-03T15:54:34.953Z</time></trkpt><trkpt lat="36.5507943" lon="9.4324286"><ele>82.0</ele><time>2026-05-03T15:54:35.953Z</time></trkpt><trkpt lat="36.5508145" lon="9.4325678"><ele>82.0</ele><time>2026-05-03T15:54:36.943Z</time></trkpt><trkpt lat="36.5508368" lon="9.4327045"><ele>82.0</ele><time>2026-05-03T15:54:37.946Z</time></trkpt><trkpt lat="36.5508551" lon="9.4328347"><ele>82.0</ele><time>2026-05-03T15:54:38.964Z</time></trkpt><trkpt lat="36.5508726" lon="9.4329552"><ele>82.0</ele><time>2026-05-03T15:54:39.94Z</time></trkpt><trkpt lat="36.5508873" lon="9.4330623"><ele>82.0</ele><time>2026-05-03T15:54:40.948Z</time></trkpt><trkpt lat="36.5509036" lon="9.4331559"><ele>82.0</ele><time>2026-05-03T15:54:41.95Z</time></trkpt><trkpt lat="36.5509142" lon="9.4332445"><ele>82.0</ele><time>2026-05-03T15:54:42.963Z</time></trkpt><trkpt lat="36.5509371" lon="9.4333913"><ele>82.5</ele><time>2026-05-03T15:54:44.944Z</time></trkpt><trkpt lat="36.5509611" lon="9.4335438"><ele>83.0</ele><time>2026-05-03T15:54:46.948Z</time></trkpt><trkpt lat="36.550973" lon="9.4336226"><ele>83.5</ele><time>2026-05-03T15:54:47.963Z</time></trkpt><trkpt lat="36.5509853" lon="9.433703"><ele>84.0</ele><time>2026-05-03T15:54:48.964Z</time></trkpt><trkpt lat="36.5509966" lon="9.4337857"><ele>84.5</ele><time>2026-05-03T15:54:49.955Z</time></trkpt><trkpt lat="36.5510082" lon="9.4338792"><ele>85.0</ele><time>2026-05-03T15:54:50.941Z</time></trkpt><trkpt lat="36.5510227" lon="9.4339752"><ele>85.0</ele><time>2026-05-03T15:54:51.936Z</time></trkpt><trkpt lat="36.5510357" lon="9.4340767"><ele>85.0</ele><time>2026-05-03T15:54:52.95Z</time></trkpt><trkpt lat="36.5510475" lon="9.4341721"><ele>85.0</ele><time>2026-05-03T15:54:53.949Z</time></trkpt><trkpt lat="36.5510627" lon="9.4342695"><ele>85.0</ele><time>2026-05-03T15:54:54.958Z</time></trkpt><trkpt lat="36.5510781" lon="9.4343612"><ele>85.0</ele><time>2026-05-03T15:54:55.945Z</time></trkpt><trkpt lat="36.5510932" lon="9.4344514"><ele>85.0</ele><time>2026-05-03T15:54:56.924Z</time></trkpt><trkpt lat="36.5511049" lon="9.4345477"><ele>85.0</ele><time>2026-05-03T15:54:57.939Z</time></trkpt><trkpt lat="36.5511152" lon="9.4346353"><ele>85.0</ele><time>2026-05-03T15:54:58.95Z</time></trkpt><trkpt lat="36.5511275" lon="9.4347256"><ele>85.0</ele><time>2026-05-03T15:54:59.955Z</time></trkpt><trkpt lat="36.5511462" lon="9.4348195"><ele>85.0</ele><time>2026-05-03T15:55:00.937Z</time></trkpt><trkpt lat="36.5511627" lon="9.4349144"><ele>85.0</ele><time>2026-05-03T15:55:01.953Z</time></trkpt><trkpt lat="36.5511739" lon="9.4350022"><ele>85.0</ele><time>2026-05-03T15:55:02.961Z</time></trkpt><trkpt lat="36.5511881" lon="9.4350956"><ele>85.0</ele><time>2026-05-03T15:55:03.948Z</time></trkpt><trkpt lat="36.5511973" lon="9.4351855"><ele>84.5</ele><time>2026-05-03T15:55:04.946Z</time></trkpt><trkpt lat="36.5512121" lon="9.4352766"><ele>84.0</ele><time>2026-05-03T15:55:05.957Z</time></trkpt><trkpt lat="36.5512295" lon="9.4353684"><ele>83.5</ele><time>2026-05-03T15:55:06.957Z</time></trkpt><trkpt lat="36.5512458" lon="9.4354692"><ele>83.0</ele><time>2026-05-03T15:55:07.954Z</time></trkpt><trkpt lat="36.551262" lon="9.4355703"><ele>82.5</ele><time>2026-05-03T15:55:08.957Z</time></trkpt><trkpt lat="36.5512754" lon="9.4356726"><ele>82.0</ele><time>2026-05-03T15:55:09.952Z</time></trkpt><trkpt lat="36.5512866" lon="9.4357739"><ele>82.0</ele><time>2026-05-03T15:55:10.927Z</time></trkpt><trkpt lat="36.5512963" lon="9.4358681"><ele>82.0</ele><time>2026-05-03T15:55:11.926Z</time></trkpt><trkpt lat="36.551307" lon="9.4359562"><ele>82.0</ele><time>2026-05-03T15:55:12.939Z</time></trkpt><trkpt lat="36.5513159" lon="9.4360431"><ele>82.0</ele><time>2026-05-03T15:55:13.927Z</time></trkpt><trkpt lat="36.5513358" lon="9.4361947"><ele>82.0</ele><time>2026-05-03T15:55:15.93Z</time></trkpt><trkpt lat="36.5513543" lon="9.4363244"><ele>82.0</ele><time>2026-05-03T15:55:17.954Z</time></trkpt><trkpt lat="36.551375" lon="9.4364514"><ele>82.5</ele><time>2026-05-03T15:55:19.946Z</time></trkpt><trkpt lat="36.5513977" lon="9.4365797"><ele>83.0</ele><time>2026-05-03T15:55:21.946Z</time></trkpt><trkpt lat="36.5514244" lon="9.436715"><ele>83.5</ele><time>2026-05-03T15:55:23.951Z</time></trkpt><trkpt lat="36.5514402" lon="9.4368474"><ele>84.0</ele><time>2026-05-03T15:55:25.962Z</time></trkpt><trkpt lat="36.5514705" lon="9.4370012"><ele>84.0</ele><time>2026-05-03T15:55:27.947Z</time></trkpt><trkpt lat="36.5514888" lon="9.4370836"><ele>84.0</ele><time>2026-05-03T15:55:28.947Z</time></trkpt><trkpt lat="36.5515037" lon="9.4371689"><ele>84.0</ele><time>2026-05-03T15:55:29.947Z</time></trkpt><trkpt lat="36.5515177" lon="9.4372585"><ele>84.0</ele><time>2026-05-03T15:55:30.951Z</time></trkpt><trkpt lat="36.5515311" lon="9.4373484"><ele>84.0</ele><time>2026-05-03T15:55:31.947Z</time></trkpt><trkpt lat="36.5515435" lon="9.4374438"><ele>84.0</ele><time>2026-05-03T15:55:32.951Z</time></trkpt><trkpt lat="36.5515519" lon="9.4375429"><ele>84.0</ele><time>2026-05-03T15:55:33.961Z</time></trkpt><trkpt lat="36.5515622" lon="9.4376289"><ele>84.16666666666667</ele><time>2026-05-03T15:55:34.936Z</time></trkpt><trkpt lat="36.5515842" lon="9.4377818"><ele>84.33333333333333</ele><time>2026-05-03T15:55:36.95Z</time></trkpt><trkpt lat="36.5515981" lon="9.4378603"><ele>84.5</ele><time>2026-05-03T15:55:37.953Z</time></trkpt><trkpt lat="36.5516111" lon="9.4379442"><ele>84.66666666666666</ele><time>2026-05-03T15:55:38.963Z</time></trkpt><trkpt lat="36.5516299" lon="9.4380223"><ele>84.83333333333333</ele><time>2026-05-03T15:55:39.949Z</time></trkpt><trkpt lat="36.5516492" lon="9.4381039"><ele>85.0</ele><time>2026-05-03T15:55:40.957Z</time></trkpt><trkpt lat="36.5516616" lon="9.4381901"><ele>85.2</ele><time>2026-05-03T15:55:41.944Z</time></trkpt><trkpt lat="36.5516701" lon="9.4382742"><ele>85.4</ele><time>2026-05-03T15:55:42.96Z</time></trkpt><trkpt lat="36.5516859" lon="9.4384291"><ele>85.6</ele><time>2026-05-03T15:55:44.949Z</time></trkpt><trkpt lat="36.551693" lon="9.4385134"><ele>85.8</ele><time>2026-05-03T15:55:45.961Z</time></trkpt><trkpt lat="36.551713" lon="9.4386556"><ele>86.0</ele><time>2026-05-03T15:55:47.951Z</time></trkpt><trkpt lat="36.5517325" lon="9.4388089"><ele>86.28571428571429</ele><time>2026-05-03T15:55:49.979Z</time></trkpt><trkpt lat="36.5517492" lon="9.4388861"><ele>86.57142857142857</ele><time>2026-05-03T15:55:50.948Z</time></trkpt><trkpt lat="36.5517613" lon="9.4389641"><ele>86.85714285714286</ele><time>2026-05-03T15:55:51.958Z</time></trkpt><trkpt lat="36.5517719" lon="9.4390542"><ele>87.14285714285714</ele><time>2026-05-03T15:55:52.947Z</time></trkpt><trkpt lat="36.5517811" lon="9.4391487"><ele>87.42857142857143</ele><time>2026-05-03T15:55:53.958Z</time></trkpt><trkpt lat="36.5517916" lon="9.4392351"><ele>87.71428571428572</ele><time>2026-05-03T15:55:54.954Z</time></trkpt><trkpt lat="36.5518034" lon="9.4393241"><ele>88.0</ele><time>2026-05-03T15:55:55.939Z</time></trkpt><trkpt lat="36.5518158" lon="9.4394117"><ele>88.0</ele><time>2026-05-03T15:55:56.956Z</time></trkpt><trkpt lat="36.5518243" lon="9.4395064"><ele>88.0</ele><time>2026-05-03T15:55:57.954Z</time></trkpt><trkpt lat="36.5518343" lon="9.439601"><ele>88.0</ele><time>2026-05-03T15:55:58.948Z</time></trkpt><trkpt lat="36.5518432" lon="9.4397022"><ele>88.0</ele><time>2026-05-03T15:55:59.952Z</time></trkpt><trkpt lat="36.5518515" lon="9.4398009"><ele>88.0</ele><time>2026-05-03T15:56:00.967Z</time></trkpt><trkpt lat="36.5518611" lon="9.4398973"><ele>88.0</ele><time>2026-05-03T15:56:01.951Z</time></trkpt><trkpt lat="36.5518667" lon="9.4399987"><ele>88.0</ele><time>2026-05-03T15:56:02.934Z</time></trkpt><trkpt lat="36.5518806" lon="9.4401019"><ele>88.0</ele><time>2026-05-03T15:56:03.947Z</time></trkpt><trkpt lat="36.5518901" lon="9.4402004"><ele>88.0</ele><time>2026-05-03T15:56:04.945Z</time></trkpt><trkpt lat="36.5519007" lon="9.4403083"><ele>88.0</ele><time>2026-05-03T15:56:05.951Z</time></trkpt><trkpt lat="36.5519145" lon="9.4404178"><ele>88.0</ele><time>2026-05-03T15:56:06.956Z</time></trkpt><trkpt lat="36.551928" lon="9.4405269"><ele>88.0</ele><time>2026-05-03T15:56:07.956Z</time></trkpt><trkpt lat="36.5519408" lon="9.4406358"><ele>88.0</ele><time>2026-05-03T15:56:08.941Z</time></trkpt><trkpt lat="36.5519567" lon="9.4407433"><ele>88.0</ele><time>2026-05-03T15:56:09.94Z</time></trkpt><trkpt lat="36.551967" lon="9.4408576"><ele>88.0</ele><time>2026-05-03T15:56:10.953Z</time></trkpt><trkpt lat="36.5519719" lon="9.4409757"><ele>88.0</ele><time>2026-05-03T15:56:11.957Z</time></trkpt><trkpt lat="36.5519796" lon="9.4410896"><ele>88.0</ele><time>2026-05-03T15:56:12.961Z</time></trkpt><trkpt lat="36.5519844" lon="9.4412021"><ele>87.83333333333333</ele><time>2026-05-03T15:56:13.953Z</time></trkpt><trkpt lat="36.5519872" lon="9.4413174"><ele>87.66666666666666</ele><time>2026-05-03T15:56:14.975Z</time></trkpt><trkpt lat="36.5519925" lon="9.4414223"><ele>87.5</ele><time>2026-05-03T15:56:15.937Z</time></trkpt><trkpt lat="36.5519964" lon="9.4415274"><ele>87.33333333333333</ele><time>2026-05-03T15:56:16.966Z</time></trkpt><trkpt lat="36.5519915" lon="9.441634"><ele>87.16666666666667</ele><time>2026-05-03T15:56:17.932Z</time></trkpt><trkpt lat="36.5519748" lon="9.4417397"><ele>87.0</ele><time>2026-05-03T15:56:18.944Z</time></trkpt><trkpt lat="36.5519536" lon="9.4418407"><ele>87.0</ele><time>2026-05-03T15:56:19.928Z</time></trkpt><trkpt lat="36.5519314" lon="9.4419447"><ele>87.0</ele><time>2026-05-03T15:56:20.94Z</time></trkpt><trkpt lat="36.5519052" lon="9.4420465"><ele>87.0</ele><time>2026-05-03T15:56:21.95Z</time></trkpt><trkpt lat="36.5518812" lon="9.4421437"><ele>87.0</ele><time>2026-05-03T15:56:22.961Z</time></trkpt><trkpt lat="36.5518532" lon="9.4422477"><ele>87.0</ele><time>2026-05-03T15:56:23.956Z</time></trkpt><trkpt lat="36.5518241" lon="9.4423397"><ele>87.0</ele><time>2026-05-03T15:56:24.956Z</time></trkpt><trkpt lat="36.5517984" lon="9.4424297"><ele>87.42857142857143</ele><time>2026-05-03T15:56:25.957Z</time></trkpt><trkpt lat="36.551772" lon="9.4425199"><ele>87.85714285714286</ele><time>2026-05-03T15:56:26.962Z</time></trkpt><trkpt lat="36.5517495" lon="9.4426089"><ele>88.28571428571428</ele><time>2026-05-03T15:56:27.954Z</time></trkpt><trkpt lat="36.5517268" lon="9.4426954"><ele>88.71428571428572</ele><time>2026-05-03T15:56:28.961Z</time></trkpt><trkpt lat="36.5517012" lon="9.4427826"><ele>89.14285714285715</ele><time>2026-05-03T15:56:29.95Z</time></trkpt><trkpt lat="36.5516727" lon="9.4428707"><ele>89.57142857142857</ele><time>2026-05-03T15:56:30.953Z</time></trkpt><trkpt lat="36.5516487" lon="9.4429537"><ele>90.0</ele><time>2026-05-03T15:56:31.938Z</time></trkpt><trkpt lat="36.5516244" lon="9.443043"><ele>90.5</ele><time>2026-05-03T15:56:32.944Z</time></trkpt><trkpt lat="36.5515988" lon="9.4431291"><ele>91.0</ele><time>2026-05-03T15:56:33.939Z</time></trkpt><trkpt lat="36.551569" lon="9.4432064"><ele>91.5</ele><time>2026-05-03T15:56:34.94Z</time></trkpt><trkpt lat="36.5515357" lon="9.4433395"><ele>92.0</ele><time>2026-05-03T15:56:36.931Z</time></trkpt><trkpt lat="36.5515125" lon="9.4434389"><ele>92.5</ele><time>2026-05-03T15:56:38.959Z</time></trkpt><trkpt lat="36.551488" lon="9.4435134"><ele>93.0</ele><time>2026-05-03T15:56:40.941Z</time></trkpt><trkpt lat="36.5514609" lon="9.443622"><ele>93.0</ele><time>2026-05-03T15:56:43.96Z</time></trkpt><trkpt lat="36.5514317" lon="9.4437264"><ele>93.0</ele><time>2026-05-03T15:56:45.951Z</time></trkpt><trkpt lat="36.551385" lon="9.4438471"><ele>93.0</ele><time>2026-05-03T15:56:47.961Z</time></trkpt><trkpt lat="36.5513483" lon="9.4439883"><ele>93.0</ele><time>2026-05-03T15:56:49.948Z</time></trkpt><trkpt lat="36.5513223" lon="9.4440674"><ele>93.0</ele><time>2026-05-03T15:56:50.951Z</time></trkpt><trkpt lat="36.5512769" lon="9.4442098"><ele>93.66666666666667</ele><time>2026-05-03T15:56:52.945Z</time></trkpt><trkpt lat="36.5512535" lon="9.4442862"><ele>94.33333333333334</ele><time>2026-05-03T15:56:53.971Z</time></trkpt><trkpt lat="36.5512287" lon="9.444362"><ele>95.0</ele><time>2026-05-03T15:56:54.952Z</time></trkpt><trkpt lat="36.5512067" lon="9.4444532"><ele>95.66666666666667</ele><time>2026-05-03T15:56:55.953Z</time></trkpt><trkpt lat="36.5511831" lon="9.4445367"><ele>96.33333333333334</ele><time>2026-05-03T15:56:56.96Z</time></trkpt><trkpt lat="36.551161" lon="9.4446112"><ele>97.0</ele><time>2026-05-03T15:56:57.935Z</time></trkpt><trkpt lat="36.5511213" lon="9.4447474"><ele>98.0</ele><time>2026-05-03T15:56:59.946Z</time></trkpt><trkpt lat="36.5510899" lon="9.4448794"><ele>99.0</ele><time>2026-05-03T15:57:01.953Z</time></trkpt><trkpt lat="36.5510514" lon="9.4450206"><ele>100.0</ele><time>2026-05-03T15:57:03.945Z</time></trkpt><trkpt lat="36.5510232" lon="9.4450941"><ele>101.0</ele><time>2026-05-03T15:57:04.949Z</time></trkpt><trkpt lat="36.5509859" lon="9.4452118"><ele>102.0</ele><time>2026-05-03T15:57:06.949Z</time></trkpt><trkpt lat="36.5509546" lon="9.4453082"><ele>102.0</ele><time>2026-05-03T15:57:08.934Z</time></trkpt><trkpt lat="36.5509262" lon="9.4454079"><ele>102.0</ele><time>2026-05-03T15:57:10.941Z</time></trkpt><trkpt lat="36.5509022" lon="9.4455125"><ele>102.0</ele><time>2026-05-03T15:57:12.936Z</time></trkpt><trkpt lat="36.5508687" lon="9.4456194"><ele>102.0</ele><time>2026-05-03T15:57:14.964Z</time></trkpt><trkpt lat="36.5508373" lon="9.4457309"><ele>102.0</ele><time>2026-05-03T15:57:16.944Z</time></trkpt><trkpt lat="36.5508134" lon="9.4458495"><ele>102.0</ele><time>2026-05-03T15:57:18.938Z</time></trkpt><trkpt lat="36.5507946" lon="9.4459839"><ele>102.0</ele><time>2026-05-03T15:57:20.941Z</time></trkpt><trkpt lat="36.5507816" lon="9.4461273"><ele>102.0</ele><time>2026-05-03T15:57:22.947Z</time></trkpt><trkpt lat="36.5507706" lon="9.4462046"><ele>102.0</ele><time>2026-05-03T15:57:23.934Z</time></trkpt><trkpt lat="36.5507543" lon="9.4463429"><ele>102.0</ele><time>2026-05-03T15:57:25.943Z</time></trkpt><trkpt lat="36.5507477" lon="9.4464868"><ele>102.19999999999999</ele><time>2026-05-03T15:57:27.935Z</time></trkpt><trkpt lat="36.5507549" lon="9.4466187"><ele>102.4</ele><time>2026-05-03T15:57:29.951Z</time></trkpt><trkpt lat="36.5507725" lon="9.4467504"><ele>102.6</ele><time>2026-05-03T15:57:31.919Z</time></trkpt><trkpt lat="36.5507995" lon="9.4468822"><ele>102.80000000000001</ele><time>2026-05-03T15:57:33.929Z</time></trkpt><trkpt lat="36.5508256" lon="9.4470142"><ele>103.0</ele><time>2026-05-03T15:57:35.959Z</time></trkpt><trkpt lat="36.5508602" lon="9.4471536"><ele>101.4</ele><time>2026-05-03T15:57:37.949Z</time></trkpt><trkpt lat="36.5508789" lon="9.4472297"><ele>99.80000000000001</ele><time>2026-05-03T15:57:38.944Z</time></trkpt><trkpt lat="36.550916" lon="9.4473773"><ele>98.2</ele><time>2026-05-03T15:57:40.957Z</time></trkpt><trkpt lat="36.5509686" lon="9.4475183"><ele>96.6</ele><time>2026-05-03T15:57:42.957Z</time></trkpt><trkpt lat="36.5510052" lon="9.4476009"><ele>95.0</ele><time>2026-05-03T15:57:43.935Z</time></trkpt><trkpt lat="36.5510495" lon="9.4476875"><ele>95.0</ele><time>2026-05-03T15:57:44.95Z</time></trkpt><trkpt lat="36.5510992" lon="9.4477742"><ele>95.0</ele><time>2026-05-03T15:57:45.932Z</time></trkpt><trkpt lat="36.5511455" lon="9.4478601"><ele>95.0</ele><time>2026-05-03T15:57:46.943Z</time></trkpt><trkpt lat="36.551204" lon="9.4479418"><ele>95.0</ele><time>2026-05-03T15:57:47.963Z</time></trkpt><trkpt lat="36.5512673" lon="9.4480221"><ele>95.0</ele><time>2026-05-03T15:57:48.94Z</time></trkpt><trkpt lat="36.551336" lon="9.4480911"><ele>95.0</ele><time>2026-05-03T15:57:49.949Z</time></trkpt><trkpt lat="36.5514076" lon="9.4481538"><ele>93.8</ele><time>2026-05-03T15:57:50.941Z</time></trkpt><trkpt lat="36.5514819" lon="9.4482227"><ele>92.6</ele><time>2026-05-03T15:57:51.927Z</time></trkpt><trkpt lat="36.5515552" lon="9.4482878"><ele>91.4</ele><time>2026-05-03T15:57:52.952Z</time></trkpt><trkpt lat="36.5516312" lon="9.448348"><ele>90.2</ele><time>2026-05-03T15:57:53.922Z</time></trkpt><trkpt lat="36.5517131" lon="9.4484124"><ele>89.0</ele><time>2026-05-03T15:57:54.923Z</time></trkpt><trkpt lat="36.5517916" lon="9.448471"><ele>89.0</ele><time>2026-05-03T15:57:55.919Z</time></trkpt><trkpt lat="36.5518773" lon="9.4485205"><ele>89.0</ele><time>2026-05-03T15:57:56.946Z</time></trkpt><trkpt lat="36.551972" lon="9.4485608"><ele>89.0</ele><time>2026-05-03T15:57:57.948Z</time></trkpt><trkpt lat="36.5520752" lon="9.4485875"><ele>89.0</ele><time>2026-05-03T15:57:58.943Z</time></trkpt><trkpt lat="36.552188" lon="9.4486154"><ele>89.0</ele><time>2026-05-03T15:57:59.945Z</time></trkpt><trkpt lat="36.5522957" lon="9.4486367"><ele>87.4</ele><time>2026-05-03T15:58:00.919Z</time></trkpt><trkpt lat="36.5523999" lon="9.4486374"><ele>85.80000000000001</ele><time>2026-05-03T15:58:01.928Z</time></trkpt><trkpt lat="36.5525018" lon="9.4486433"><ele>84.19999999999999</ele><time>2026-05-03T15:58:02.952Z</time></trkpt><trkpt lat="36.5526044" lon="9.4486451"><ele>82.6</ele><time>2026-05-03T15:58:03.938Z</time></trkpt><trkpt lat="36.5527057" lon="9.4486433"><ele>81.0</ele><time>2026-05-03T15:58:04.966Z</time></trkpt><trkpt lat="36.5528041" lon="9.4486434"><ele>80.8</ele><time>2026-05-03T15:58:05.945Z</time></trkpt><trkpt lat="36.5529039" lon="9.4486441"><ele>80.6</ele><time>2026-05-03T15:58:06.945Z</time></trkpt><trkpt lat="36.5530041" lon="9.4486436"><ele>80.4</ele><time>2026-05-03T15:58:07.957Z</time></trkpt><trkpt lat="36.5530953" lon="9.4486423"><ele>80.2</ele><time>2026-05-03T15:58:08.959Z</time></trkpt><trkpt lat="36.5531875" lon="9.4486444"><ele>80.0</ele><time>2026-05-03T15:58:09.948Z</time></trkpt><trkpt lat="36.5532724" lon="9.4486464"><ele>80.0</ele><time>2026-05-03T15:58:10.941Z</time></trkpt><trkpt lat="36.5533537" lon="9.4486483"><ele>80.0</ele><time>2026-05-03T15:58:11.967Z</time></trkpt><trkpt lat="36.5534348" lon="9.4486513"><ele>80.0</ele><time>2026-05-03T15:58:12.945Z</time></trkpt><trkpt lat="36.5535102" lon="9.4486511"><ele>80.0</ele><time>2026-05-03T15:58:13.957Z</time></trkpt><trkpt lat="36.553581" lon="9.448642"><ele>80.0</ele><time>2026-05-03T15:58:14.948Z</time></trkpt><trkpt lat="36.5536523" lon="9.448637"><ele>80.0</ele><time>2026-05-03T15:58:15.943Z</time></trkpt><trkpt lat="36.5537222" lon="9.4486354"><ele>80.66666666666667</ele><time>2026-05-03T15:58:16.959Z</time></trkpt><trkpt lat="36.5537992" lon="9.4486465"><ele>81.33333333333334</ele><time>2026-05-03T15:58:17.954Z</time></trkpt><trkpt lat="36.5538849" lon="9.4486615"><ele>82.0</ele><time>2026-05-03T15:58:18.952Z</time></trkpt><trkpt lat="36.5539744" lon="9.4486785"><ele>82.66666666666667</ele><time>2026-05-03T15:58:19.944Z</time></trkpt><trkpt lat="36.5540671" lon="9.4487041"><ele>83.33333333333333</ele><time>2026-05-03T15:58:20.949Z</time></trkpt><trkpt lat="36.5541564" lon="9.4487329"><ele>84.0</ele><time>2026-05-03T15:58:21.943Z</time></trkpt><trkpt lat="36.5542549" lon="9.4487742"><ele>83.2</ele><time>2026-05-03T15:58:22.941Z</time></trkpt><trkpt lat="36.5543444" lon="9.4488187"><ele>82.4</ele><time>2026-05-03T15:58:23.937Z</time></trkpt><trkpt lat="36.554436" lon="9.4488786"><ele>81.6</ele><time>2026-05-03T15:58:24.934Z</time></trkpt><trkpt lat="36.5545245" lon="9.4489439"><ele>80.8</ele><time>2026-05-03T15:58:25.942Z</time></trkpt><trkpt lat="36.5546184" lon="9.4490284"><ele>80.0</ele><time>2026-05-03T15:58:26.941Z</time></trkpt><trkpt lat="36.5547094" lon="9.4491173"><ele>80.0</ele><time>2026-05-03T15:58:27.932Z</time></trkpt><trkpt lat="36.5547987" lon="9.449203"><ele>80.0</ele><time>2026-05-03T15:58:28.949Z</time></trkpt><trkpt lat="36.5548837" lon="9.4492946"><ele>80.0</ele><time>2026-05-03T15:58:29.942Z</time></trkpt><trkpt lat="36.5549609" lon="9.4493848"><ele>80.0</ele><time>2026-05-03T15:58:30.925Z</time></trkpt><trkpt lat="36.5550355" lon="9.4494668"><ele>80.0</ele><time>2026-05-03T15:58:31.934Z</time></trkpt><trkpt lat="36.5551069" lon="9.4495554"><ele>79.4</ele><time>2026-05-03T15:58:32.924Z</time></trkpt><trkpt lat="36.5551763" lon="9.4496392"><ele>78.8</ele><time>2026-05-03T15:58:33.916Z</time></trkpt><trkpt lat="36.5552433" lon="9.4497173"><ele>78.2</ele><time>2026-05-03T15:58:34.944Z</time></trkpt><trkpt lat="36.555308" lon="9.4497935"><ele>77.6</ele><time>2026-05-03T15:58:35.953Z</time></trkpt><trkpt lat="36.5553716" lon="9.4498711"><ele>77.0</ele><time>2026-05-03T15:58:36.946Z</time></trkpt><trkpt lat="36.555431" lon="9.4499435"><ele>76.71428571428571</ele><time>2026-05-03T15:58:37.956Z</time></trkpt><trkpt lat="36.5554855" lon="9.4500154"><ele>76.42857142857143</ele><time>2026-05-03T15:58:38.945Z</time></trkpt><trkpt lat="36.5555386" lon="9.4500724"><ele>76.14285714285714</ele><time>2026-05-03T15:58:39.949Z</time></trkpt><trkpt lat="36.5555915" lon="9.4501342"><ele>75.85714285714286</ele><time>2026-05-03T15:58:40.942Z</time></trkpt><trkpt lat="36.555648" lon="9.4501936"><ele>75.57142857142857</ele><time>2026-05-03T15:58:41.949Z</time></trkpt><trkpt lat="36.5557012" lon="9.4502541"><ele>75.28571428571428</ele><time>2026-05-03T15:58:42.934Z</time></trkpt><trkpt lat="36.5557514" lon="9.4503154"><ele>75.0</ele><time>2026-05-03T15:58:43.946Z</time></trkpt><trkpt lat="36.5558097" lon="9.4503801"><ele>75.0</ele><time>2026-05-03T15:58:44.952Z</time></trkpt><trkpt lat="36.5558744" lon="9.4504503"><ele>75.0</ele><time>2026-05-03T15:58:45.938Z</time></trkpt><trkpt lat="36.5559456" lon="9.4505361"><ele>75.0</ele><time>2026-05-03T15:58:46.939Z</time></trkpt><trkpt lat="36.5560174" lon="9.4506135"><ele>75.0</ele><time>2026-05-03T15:58:47.929Z</time></trkpt><trkpt lat="36.5560844" lon="9.4506952"><ele>75.0</ele><time>2026-05-03T15:58:48.948Z</time></trkpt><trkpt lat="36.5561448" lon="9.4507656"><ele>74.2</ele><time>2026-05-03T15:58:49.946Z</time></trkpt><trkpt lat="36.5562035" lon="9.4508329"><ele>73.4</ele><time>2026-05-03T15:58:50.954Z</time></trkpt><trkpt lat="36.5562751" lon="9.4509143"><ele>72.6</ele><time>2026-05-03T15:58:51.944Z</time></trkpt><trkpt lat="36.5563595" lon="9.4510129"><ele>71.8</ele><time>2026-05-03T15:58:52.937Z</time></trkpt><trkpt lat="36.5564529" lon="9.4511178"><ele>71.0</ele><time>2026-05-03T15:58:53.94Z</time></trkpt><trkpt lat="36.5565472" lon="9.4512154"><ele>71.5</ele><time>2026-05-03T15:58:54.941Z</time></trkpt><trkpt lat="36.5566374" lon="9.4513142"><ele>72.0</ele><time>2026-05-03T15:58:55.941Z</time></trkpt><trkpt lat="36.5567272" lon="9.4514097"><ele>72.5</ele><time>2026-05-03T15:58:56.92Z</time></trkpt><trkpt lat="36.556813" lon="9.4515053"><ele>73.0</ele><time>2026-05-03T15:58:57.947Z</time></trkpt><trkpt lat="36.5568978" lon="9.4516026"><ele>73.0</ele><time>2026-05-03T15:58:58.951Z</time></trkpt><trkpt lat="36.5569814" lon="9.4516967"><ele>73.0</ele><time>2026-05-03T15:58:59.938Z</time></trkpt><trkpt lat="36.5570661" lon="9.4517903"><ele>73.0</ele><time>2026-05-03T15:59:00.954Z</time></trkpt><trkpt lat="36.5571522" lon="9.4518868"><ele>73.0</ele><time>2026-05-03T15:59:01.948Z</time></trkpt><trkpt lat="36.5572374" lon="9.4519849"><ele>73.0</ele><time>2026-05-03T15:59:02.944Z</time></trkpt><trkpt lat="36.5573326" lon="9.4521071"><ele>73.0</ele><time>2026-05-03T15:59:03.923Z</time></trkpt><trkpt lat="36.55743" lon="9.4522408"><ele>73.0</ele><time>2026-05-03T15:59:04.922Z</time></trkpt><trkpt lat="36.5575276" lon="9.4523688"><ele>73.0</ele><time>2026-05-03T15:59:05.955Z</time></trkpt><trkpt lat="36.5576214" lon="9.452503"><ele>73.0</ele><time>2026-05-03T15:59:06.956Z</time></trkpt><trkpt lat="36.5577187" lon="9.4526373"><ele>73.0</ele><time>2026-05-03T15:59:07.955Z</time></trkpt><trkpt lat="36.5578188" lon="9.4527801"><ele>73.0</ele><time>2026-05-03T15:59:08.931Z</time></trkpt><trkpt lat="36.5579176" lon="9.4529321"><ele>72.0</ele><time>2026-05-03T15:59:09.943Z</time></trkpt><trkpt lat="36.5580192" lon="9.4531041"><ele>71.0</ele><time>2026-05-03T15:59:10.946Z</time></trkpt><trkpt lat="36.5581253" lon="9.453295"><ele>70.0</ele><time>2026-05-03T15:59:11.955Z</time></trkpt><trkpt lat="36.5582265" lon="9.4534972"><ele>70.0</ele><time>2026-05-03T15:59:12.934Z</time></trkpt><trkpt lat="36.5583232" lon="9.453699"><ele>70.0</ele><time>2026-05-03T15:59:13.942Z</time></trkpt><trkpt lat="36.5584178" lon="9.4539059"><ele>70.0</ele><time>2026-05-03T15:59:14.94Z</time></trkpt><trkpt lat="36.5585098" lon="9.4541089"><ele>70.33333333333333</ele><time>2026-05-03T15:59:15.96Z</time></trkpt><trkpt lat="36.5585954" lon="9.4543071"><ele>70.66666666666667</ele><time>2026-05-03T15:59:16.951Z</time></trkpt><trkpt lat="36.5586737" lon="9.4545049"><ele>71.0</ele><time>2026-05-03T15:59:17.932Z</time></trkpt><trkpt lat="36.5587447" lon="9.4547071"><ele>71.0</ele><time>2026-05-03T15:59:18.959Z</time></trkpt><trkpt lat="36.5588106" lon="9.4549138"><ele>71.0</ele><time>2026-05-03T15:59:19.952Z</time></trkpt><trkpt lat="36.5588774" lon="9.4551196"><ele>71.0</ele><time>2026-05-03T15:59:20.953Z</time></trkpt><trkpt lat="36.5589424" lon="9.4553313"><ele>71.33333333333334</ele><time>2026-05-03T15:59:21.929Z</time></trkpt><trkpt lat="36.5590071" lon="9.4555445"><ele>71.66666666666667</ele><time>2026-05-03T15:59:22.957Z</time></trkpt><trkpt lat="36.5590667" lon="9.4557533"><ele>72.0</ele><time>2026-05-03T15:59:23.943Z</time></trkpt><trkpt lat="36.5591274" lon="9.4559664"><ele>72.0</ele><time>2026-05-03T15:59:24.958Z</time></trkpt><trkpt lat="36.5591822" lon="9.4561849"><ele>72.0</ele><time>2026-05-03T15:59:25.934Z</time></trkpt><trkpt lat="36.5592293" lon="9.4564078"><ele>72.0</ele><time>2026-05-03T15:59:26.937Z</time></trkpt><trkpt lat="36.559279" lon="9.4566302"><ele>72.66666666666667</ele><time>2026-05-03T15:59:27.932Z</time></trkpt><trkpt lat="36.5593234" lon="9.4568551"><ele>73.33333333333334</ele><time>2026-05-03T15:59:28.947Z</time></trkpt><trkpt lat="36.5593652" lon="9.457074"><ele>74.0</ele><time>2026-05-03T15:59:29.959Z</time></trkpt><trkpt lat="36.5594062" lon="9.4572913"><ele>74.33333333333334</ele><time>2026-05-03T15:59:30.948Z</time></trkpt><trkpt lat="36.5594447" lon="9.4575111"><ele>74.66666666666667</ele><time>2026-05-03T15:59:31.952Z</time></trkpt><trkpt lat="36.5594841" lon="9.4577261"><ele>75.0</ele><time>2026-05-03T15:59:32.947Z</time></trkpt><trkpt lat="36.5595262" lon="9.45794"><ele>73.33333333333333</ele><time>2026-05-03T15:59:33.958Z</time></trkpt><trkpt lat="36.5595675" lon="9.4581602"><ele>71.66666666666666</ele><time>2026-05-03T15:59:34.936Z</time></trkpt><trkpt lat="36.5596093" lon="9.4583814"><ele>70.0</ele><time>2026-05-03T15:59:35.952Z</time></trkpt><trkpt lat="36.5596499" lon="9.458602"><ele>69.66666666666666</ele><time>2026-05-03T15:59:36.942Z</time></trkpt><trkpt lat="36.5596931" lon="9.4588205"><ele>69.33333333333333</ele><time>2026-05-03T15:59:37.94Z</time></trkpt><trkpt lat="36.559733" lon="9.4590456"><ele>69.0</ele><time>2026-05-03T15:59:38.958Z</time></trkpt><trkpt lat="36.5597745" lon="9.459268"><ele>69.0</ele><time>2026-05-03T15:59:39.957Z</time></trkpt><trkpt lat="36.5598203" lon="9.4594911"><ele>69.0</ele><time>2026-05-03T15:59:40.941Z</time></trkpt><trkpt lat="36.559864" lon="9.4597133"><ele>69.0</ele><time>2026-05-03T15:59:41.955Z</time></trkpt><trkpt lat="36.5599079" lon="9.4599423"><ele>70.66666666666667</ele><time>2026-05-03T15:59:42.96Z</time></trkpt><trkpt lat="36.5599576" lon="9.4601758"><ele>72.33333333333334</ele><time>2026-05-03T15:59:43.954Z</time></trkpt><trkpt lat="36.56001" lon="9.4604073"><ele>74.0</ele><time>2026-05-03T15:59:44.956Z</time></trkpt><trkpt lat="36.5600695" lon="9.4606399"><ele>74.66666666666667</ele><time>2026-05-03T15:59:45.953Z</time></trkpt><trkpt lat="36.5601423" lon="9.4608823"><ele>75.33333333333333</ele><time>2026-05-03T15:59:46.935Z</time></trkpt><trkpt lat="36.5602226" lon="9.461126"><ele>76.0</ele><time>2026-05-03T15:59:47.963Z</time></trkpt><trkpt lat="36.5603101" lon="9.461369"><ele>74.33333333333333</ele><time>2026-05-03T15:59:48.95Z</time></trkpt><trkpt lat="36.5603957" lon="9.4616059"><ele>72.66666666666667</ele><time>2026-05-03T15:59:49.95Z</time></trkpt><trkpt lat="36.5604772" lon="9.4618239"><ele>71.0</ele><time>2026-05-03T15:59:50.945Z</time></trkpt><trkpt lat="36.5605575" lon="9.4620276"><ele>71.33333333333334</ele><time>2026-05-03T15:59:51.951Z</time></trkpt><trkpt lat="36.5606308" lon="9.4622264"><ele>71.66666666666667</ele><time>2026-05-03T15:59:52.951Z</time></trkpt><trkpt lat="36.5606994" lon="9.4624125"><ele>72.0</ele><time>2026-05-03T15:59:53.947Z</time></trkpt><trkpt lat="36.5607634" lon="9.4625974"><ele>72.0</ele><time>2026-05-03T15:59:54.943Z</time></trkpt><trkpt lat="36.5608327" lon="9.462783"><ele>72.0</ele><time>2026-05-03T15:59:55.947Z</time></trkpt><trkpt lat="36.5609028" lon="9.4629726"><ele>72.0</ele><time>2026-05-03T15:59:56.96Z</time></trkpt><trkpt lat="36.5609745" lon="9.4631635"><ele>74.0</ele><time>2026-05-03T15:59:57.945Z</time></trkpt><trkpt lat="36.5610472" lon="9.4633615"><ele>76.0</ele><time>2026-05-03T15:59:58.942Z</time></trkpt><trkpt lat="36.561117" lon="9.4635537"><ele>78.0</ele><time>2026-05-03T15:59:59.958Z</time></trkpt><trkpt lat="36.5611899" lon="9.4637493"><ele>76.0</ele><time>2026-05-03T16:00:00.935Z</time></trkpt><trkpt lat="36.5612645" lon="9.4639479"><ele>74.0</ele><time>2026-05-03T16:00:01.924Z</time></trkpt><trkpt lat="36.5613389" lon="9.4641518"><ele>72.0</ele><time>2026-05-03T16:00:02.924Z</time></trkpt><trkpt lat="36.5614151" lon="9.4643582"><ele>72.0</ele><time>2026-05-03T16:00:03.964Z</time></trkpt><trkpt lat="36.5614886" lon="9.464568"><ele>72.0</ele><time>2026-05-03T16:00:04.946Z</time></trkpt><trkpt lat="36.5615644" lon="9.4647769"><ele>72.0</ele><time>2026-05-03T16:00:05.935Z</time></trkpt><trkpt lat="36.5616404" lon="9.4649876"><ele>72.0</ele><time>2026-05-03T16:00:06.947Z</time></trkpt><trkpt lat="36.561713" lon="9.4651914"><ele>72.0</ele><time>2026-05-03T16:00:07.94Z</time></trkpt><trkpt lat="36.5617807" lon="9.4653947"><ele>72.0</ele><time>2026-05-03T16:00:08.947Z</time></trkpt><trkpt lat="36.5618518" lon="9.4655976"><ele>72.0</ele><time>2026-05-03T16:00:09.947Z</time></trkpt><trkpt lat="36.561923" lon="9.4657992"><ele>72.0</ele><time>2026-05-03T16:00:10.936Z</time></trkpt><trkpt lat="36.5619962" lon="9.4659969"><ele>72.0</ele><time>2026-05-03T16:00:11.93Z</time></trkpt><trkpt lat="36.5620716" lon="9.4661989"><ele>72.33333333333333</ele><time>2026-05-03T16:00:12.941Z</time></trkpt><trkpt lat="36.5621431" lon="9.4664068"><ele>72.66666666666666</ele><time>2026-05-03T16:00:13.947Z</time></trkpt><trkpt lat="36.5622112" lon="9.466607"><ele>73.0</ele><time>2026-05-03T16:00:14.953Z</time></trkpt><trkpt lat="36.5622696" lon="9.4667979"><ele>73.0</ele><time>2026-05-03T16:00:15.928Z</time></trkpt><trkpt lat="36.5623216" lon="9.4669815"><ele>73.0</ele><time>2026-05-03T16:00:16.926Z</time></trkpt><trkpt lat="36.5623714" lon="9.4671608"><ele>73.0</ele><time>2026-05-03T16:00:17.945Z</time></trkpt><trkpt lat="36.5624142" lon="9.4673399"><ele>73.25</ele><time>2026-05-03T16:00:18.948Z</time></trkpt><trkpt lat="36.5624453" lon="9.46751"><ele>73.5</ele><time>2026-05-03T16:00:19.955Z</time></trkpt><trkpt lat="36.5624818" lon="9.467682"><ele>73.75</ele><time>2026-05-03T16:00:20.93Z</time></trkpt><trkpt lat="36.5625156" lon="9.4678571"><ele>74.0</ele><time>2026-05-03T16:00:21.939Z</time></trkpt><trkpt lat="36.5625497" lon="9.468034"><ele>74.0</ele><time>2026-05-03T16:00:22.951Z</time></trkpt><trkpt lat="36.5625811" lon="9.4682073"><ele>74.0</ele><time>2026-05-03T16:00:23.939Z</time></trkpt><trkpt lat="36.5626065" lon="9.4683841"><ele>74.0</ele><time>2026-05-03T16:00:24.931Z</time></trkpt><trkpt lat="36.5626298" lon="9.4685604"><ele>74.0</ele><time>2026-05-03T16:00:25.944Z</time></trkpt><trkpt lat="36.5626539" lon="9.4687365"><ele>74.66666666666667</ele><time>2026-05-03T16:00:26.947Z</time></trkpt><trkpt lat="36.5626806" lon="9.4689177"><ele>75.33333333333333</ele><time>2026-05-03T16:00:27.956Z</time></trkpt><trkpt lat="36.5627104" lon="9.4691028"><ele>76.0</ele><time>2026-05-03T16:00:28.942Z</time></trkpt><trkpt lat="36.5627443" lon="9.4692949"><ele>76.0</ele><time>2026-05-03T16:00:29.947Z</time></trkpt><trkpt lat="36.5627799" lon="9.4694926"><ele>76.0</ele><time>2026-05-03T16:00:30.947Z</time></trkpt><trkpt lat="36.5628263" lon="9.4696942"><ele>76.0</ele><time>2026-05-03T16:00:31.933Z</time></trkpt><trkpt lat="36.5628761" lon="9.4698952"><ele>74.0</ele><time>2026-05-03T16:00:32.939Z</time></trkpt><trkpt lat="36.5629319" lon="9.47009"><ele>72.0</ele><time>2026-05-03T16:00:33.945Z</time></trkpt><trkpt lat="36.5629982" lon="9.4702838"><ele>70.0</ele><time>2026-05-03T16:00:34.948Z</time></trkpt><trkpt lat="36.5630646" lon="9.4704732"><ele>70.0</ele><time>2026-05-03T16:00:35.932Z</time></trkpt><trkpt lat="36.5631359" lon="9.4706587"><ele>70.0</ele><time>2026-05-03T16:00:36.928Z</time></trkpt><trkpt lat="36.5632064" lon="9.4708338"><ele>70.0</ele><time>2026-05-03T16:00:37.943Z</time></trkpt><trkpt lat="36.5632863" lon="9.4710131"><ele>70.0</ele><time>2026-05-03T16:00:38.935Z</time></trkpt><trkpt lat="36.5633767" lon="9.4712019"><ele>70.0</ele><time>2026-05-03T16:00:39.942Z</time></trkpt><trkpt lat="36.5634805" lon="9.471394"><ele>70.0</ele><time>2026-05-03T16:00:40.944Z</time></trkpt><trkpt lat="36.5636008" lon="9.4715829"><ele>70.33333333333333</ele><time>2026-05-03T16:00:41.948Z</time></trkpt><trkpt lat="36.5637432" lon="9.4717861"><ele>70.66666666666667</ele><time>2026-05-03T16:00:42.937Z</time></trkpt><trkpt lat="36.5638996" lon="9.4719952"><ele>71.0</ele><time>2026-05-03T16:00:43.958Z</time></trkpt><trkpt lat="36.5640602" lon="9.4722262"><ele>72.0</ele><time>2026-05-03T16:00:44.94Z</time></trkpt><trkpt lat="36.5642154" lon="9.4724607"><ele>73.0</ele><time>2026-05-03T16:00:45.948Z</time></trkpt><trkpt lat="36.5643556" lon="9.4726898"><ele>73.0</ele><time>2026-05-03T16:00:46.948Z</time></trkpt><trkpt lat="36.5644894" lon="9.4729048"><ele>73.0</ele><time>2026-05-03T16:00:47.925Z</time></trkpt><trkpt lat="36.5646168" lon="9.4731124"><ele>73.0</ele><time>2026-05-03T16:00:48.957Z</time></trkpt><trkpt lat="36.5647449" lon="9.4733198"><ele>74.0</ele><time>2026-05-03T16:00:49.963Z</time></trkpt><trkpt lat="36.5648779" lon="9.4735214"><ele>75.0</ele><time>2026-05-03T16:00:50.952Z</time></trkpt><trkpt lat="36.565016" lon="9.4737268"><ele>76.0</ele><time>2026-05-03T16:00:51.949Z</time></trkpt><trkpt lat="36.5651537" lon="9.4739286"><ele>75.0</ele><time>2026-05-03T16:00:52.93Z</time></trkpt><trkpt lat="36.5652907" lon="9.4741378"><ele>74.0</ele><time>2026-05-03T16:00:53.918Z</time></trkpt><trkpt lat="36.5654264" lon="9.4743505"><ele>73.0</ele><time>2026-05-03T16:00:54.956Z</time></trkpt><trkpt lat="36.5655603" lon="9.4745641"><ele>74.0</ele><time>2026-05-03T16:00:55.943Z</time></trkpt><trkpt lat="36.5656928" lon="9.474776"><ele>75.0</ele><time>2026-05-03T16:00:56.954Z</time></trkpt><trkpt lat="36.5658274" lon="9.4749846"><ele>76.0</ele><time>2026-05-03T16:00:57.951Z</time></trkpt><trkpt lat="36.5659628" lon="9.4751898"><ele>76.0</ele><time>2026-05-03T16:00:58.938Z</time></trkpt><trkpt lat="36.5660954" lon="9.4753892"><ele>76.0</ele><time>2026-05-03T16:00:59.957Z</time></trkpt><trkpt lat="36.5662233" lon="9.4755794"><ele>76.0</ele><time>2026-05-03T16:01:00.965Z</time></trkpt><trkpt lat="36.5663353" lon="9.4757567"><ele>75.66666666666666</ele><time>2026-05-03T16:01:01.957Z</time></trkpt><trkpt lat="36.5664381" lon="9.4759171"><ele>75.33333333333333</ele><time>2026-05-03T16:01:02.938Z</time></trkpt><trkpt lat="36.5665319" lon="9.4760783"><ele>75.0</ele><time>2026-05-03T16:01:03.944Z</time></trkpt><trkpt lat="36.5666203" lon="9.4762166"><ele>76.66666666666667</ele><time>2026-05-03T16:01:04.937Z</time></trkpt><trkpt lat="36.5667148" lon="9.4763558"><ele>78.33333333333334</ele><time>2026-05-03T16:01:05.945Z</time></trkpt><trkpt lat="36.5668149" lon="9.4765021"><ele>80.0</ele><time>2026-05-03T16:01:06.938Z</time></trkpt><trkpt lat="36.5669152" lon="9.4766574"><ele>80.0</ele><time>2026-05-03T16:01:07.931Z</time></trkpt><trkpt lat="36.5670075" lon="9.4768271"><ele>80.0</ele><time>2026-05-03T16:01:08.962Z</time></trkpt><trkpt lat="36.5670924" lon="9.4769948"><ele>80.0</ele><time>2026-05-03T16:01:09.947Z</time></trkpt><trkpt lat="36.5671697" lon="9.4771645"><ele>79.25</ele><time>2026-05-03T16:01:10.949Z</time></trkpt><trkpt lat="36.5672337" lon="9.4773319"><ele>78.5</ele><time>2026-05-03T16:01:11.951Z</time></trkpt><trkpt lat="36.5672933" lon="9.4774949"><ele>77.75</ele><time>2026-05-03T16:01:12.948Z</time></trkpt><trkpt lat="36.5673462" lon="9.4776441"><ele>77.0</ele><time>2026-05-03T16:01:13.929Z</time></trkpt><trkpt lat="36.5673874" lon="9.4777887"><ele>77.0</ele><time>2026-05-03T16:01:14.949Z</time></trkpt><trkpt lat="36.5674372" lon="9.4779236"><ele>77.0</ele><time>2026-05-03T16:01:15.945Z</time></trkpt><trkpt lat="36.567485" lon="9.4780569"><ele>77.0</ele><time>2026-05-03T16:01:16.943Z</time></trkpt><trkpt lat="36.5675257" lon="9.4781906"><ele>77.0</ele><time>2026-05-03T16:01:17.934Z</time></trkpt><trkpt lat="36.5675641" lon="9.4783223"><ele>77.25</ele><time>2026-05-03T16:01:18.954Z</time></trkpt><trkpt lat="36.5676034" lon="9.4784504"><ele>77.5</ele><time>2026-05-03T16:01:19.926Z</time></trkpt><trkpt lat="36.567643" lon="9.4785905"><ele>77.75</ele><time>2026-05-03T16:01:20.949Z</time></trkpt><trkpt lat="36.5676848" lon="9.4787381"><ele>78.0</ele><time>2026-05-03T16:01:21.954Z</time></trkpt><trkpt lat="36.5677304" lon="9.4788874"><ele>78.25</ele><time>2026-05-03T16:01:22.948Z</time></trkpt><trkpt lat="36.567778" lon="9.4790344"><ele>78.5</ele><time>2026-05-03T16:01:23.959Z</time></trkpt><trkpt lat="36.5678228" lon="9.4791843"><ele>78.75</ele><time>2026-05-03T16:01:24.964Z</time></trkpt><trkpt lat="36.5678729" lon="9.4793225"><ele>79.0</ele><time>2026-05-03T16:01:25.96Z</time></trkpt><trkpt lat="36.567917" lon="9.4794666"><ele>77.75</ele><time>2026-05-03T16:01:26.943Z</time></trkpt><trkpt lat="36.5679642" lon="9.4796098"><ele>76.5</ele><time>2026-05-03T16:01:27.933Z</time></trkpt><trkpt lat="36.5680122" lon="9.4797593"><ele>75.25</ele><time>2026-05-03T16:01:28.94Z</time></trkpt><trkpt lat="36.5680621" lon="9.479915"><ele>74.0</ele><time>2026-05-03T16:01:29.951Z</time></trkpt><trkpt lat="36.5681168" lon="9.4800716"><ele>74.0</ele><time>2026-05-03T16:01:30.936Z</time></trkpt><trkpt lat="36.5681699" lon="9.4802342"><ele>74.0</ele><time>2026-05-03T16:01:31.937Z</time></trkpt><trkpt lat="36.5682214" lon="9.4804013"><ele>74.0</ele><time>2026-05-03T16:01:32.95Z</time></trkpt><trkpt lat="36.5682761" lon="9.4805735"><ele>74.0</ele><time>2026-05-03T16:01:33.947Z</time></trkpt><trkpt lat="36.5683381" lon="9.4807514"><ele>74.33333333333334</ele><time>2026-05-03T16:01:34.945Z</time></trkpt><trkpt lat="36.5684054" lon="9.4809292"><ele>74.66666666666667</ele><time>2026-05-03T16:01:35.955Z</time></trkpt><trkpt lat="36.5684735" lon="9.4811039"><ele>75.0</ele><time>2026-05-03T16:01:36.954Z</time></trkpt><trkpt lat="36.5685431" lon="9.48128"><ele>75.0</ele><time>2026-05-03T16:01:37.933Z</time></trkpt><trkpt lat="36.5686161" lon="9.4814575"><ele>75.0</ele><time>2026-05-03T16:01:38.95Z</time></trkpt><trkpt lat="36.5686884" lon="9.4816284"><ele>75.0</ele><time>2026-05-03T16:01:39.948Z</time></trkpt><trkpt lat="36.5687664" lon="9.4818028"><ele>74.0</ele><time>2026-05-03T16:01:40.953Z</time></trkpt><trkpt lat="36.5688515" lon="9.4819685"><ele>73.0</ele><time>2026-05-03T16:01:41.954Z</time></trkpt><trkpt lat="36.5689414" lon="9.4821353"><ele>72.0</ele><time>2026-05-03T16:01:42.943Z</time></trkpt><trkpt lat="36.569028" lon="9.4822993"><ele>72.0</ele><time>2026-05-03T16:01:43.939Z</time></trkpt><trkpt lat="36.5691148" lon="9.4824592"><ele>72.0</ele><time>2026-05-03T16:01:44.917Z</time></trkpt><trkpt lat="36.5692073" lon="9.4826155"><ele>72.0</ele><time>2026-05-03T16:01:45.942Z</time></trkpt><trkpt lat="36.5692984" lon="9.4827765"><ele>72.33333333333333</ele><time>2026-05-03T16:01:46.946Z</time></trkpt><trkpt lat="36.5693924" lon="9.4829345"><ele>72.66666666666666</ele><time>2026-05-03T16:01:47.938Z</time></trkpt><trkpt lat="36.569486" lon="9.4830933"><ele>73.0</ele><time>2026-05-03T16:01:48.936Z</time></trkpt><trkpt lat="36.5695714" lon="9.4832559"><ele>71.66666666666666</ele><time>2026-05-03T16:01:49.969Z</time></trkpt><trkpt lat="36.569663" lon="9.4834171"><ele>70.33333333333333</ele><time>2026-05-03T16:01:50.976Z</time></trkpt><trkpt lat="36.5697513" lon="9.4835837"><ele>69.0</ele><time>2026-05-03T16:01:51.958Z</time></trkpt><trkpt lat="36.5698436" lon="9.4837534"><ele>68.66666666666667</ele><time>2026-05-03T16:01:52.948Z</time></trkpt><trkpt lat="36.5699392" lon="9.4839193"><ele>68.33333333333334</ele><time>2026-05-03T16:01:53.961Z</time></trkpt><trkpt lat="36.5700381" lon="9.4840934"><ele>68.0</ele><time>2026-05-03T16:01:54.951Z</time></trkpt><trkpt lat="36.5701358" lon="9.4842628"><ele>68.0</ele><time>2026-05-03T16:01:55.959Z</time></trkpt><trkpt lat="36.570238" lon="9.4844359"><ele>68.0</ele><time>2026-05-03T16:01:56.937Z</time></trkpt><trkpt lat="36.5703414" lon="9.4846067"><ele>68.0</ele><time>2026-05-03T16:01:57.925Z</time></trkpt><trkpt lat="36.5704426" lon="9.4847743"><ele>68.0</ele><time>2026-05-03T16:01:58.962Z</time></trkpt><trkpt lat="36.5705438" lon="9.4849465"><ele>68.0</ele><time>2026-05-03T16:01:59.936Z</time></trkpt><trkpt lat="36.5706403" lon="9.4851286"><ele>68.0</ele><time>2026-05-03T16:02:00.924Z</time></trkpt><trkpt lat="36.5707376" lon="9.4853046"><ele>68.33333333333334</ele><time>2026-05-03T16:02:01.94Z</time></trkpt><trkpt lat="36.5708357" lon="9.4854749"><ele>68.66666666666667</ele><time>2026-05-03T16:02:02.928Z</time></trkpt><trkpt lat="36.5709351" lon="9.4856546"><ele>69.0</ele><time>2026-05-03T16:02:03.948Z</time></trkpt><trkpt lat="36.5710302" lon="9.4858318"><ele>69.0</ele><time>2026-05-03T16:02:04.951Z</time></trkpt><trkpt lat="36.5711297" lon="9.4860121"><ele>69.0</ele><time>2026-05-03T16:02:05.933Z</time></trkpt><trkpt lat="36.57123" lon="9.4861871"><ele>69.0</ele><time>2026-05-03T16:02:06.951Z</time></trkpt><trkpt lat="36.5713316" lon="9.4863669"><ele>70.0</ele><time>2026-05-03T16:02:07.959Z</time></trkpt><trkpt lat="36.571433" lon="9.4865484"><ele>71.0</ele><time>2026-05-03T16:02:08.959Z</time></trkpt><trkpt lat="36.5715398" lon="9.4867356"><ele>72.0</ele><time>2026-05-03T16:02:09.954Z</time></trkpt><trkpt lat="36.5716459" lon="9.4869268"><ele>70.66666666666667</ele><time>2026-05-03T16:02:10.929Z</time></trkpt><trkpt lat="36.5717542" lon="9.4871083"><ele>69.33333333333334</ele><time>2026-05-03T16:02:11.958Z</time></trkpt><trkpt lat="36.5718625" lon="9.4872958"><ele>68.0</ele><time>2026-05-03T16:02:12.941Z</time></trkpt><trkpt lat="36.5719705" lon="9.4874774"><ele>68.0</ele><time>2026-05-03T16:02:13.924Z</time></trkpt><trkpt lat="36.5720765" lon="9.4876609"><ele>68.0</ele><time>2026-05-03T16:02:14.956Z</time></trkpt><trkpt lat="36.5721815" lon="9.4878494"><ele>68.0</ele><time>2026-05-03T16:02:15.953Z</time></trkpt><trkpt lat="36.5722904" lon="9.488037"><ele>69.0</ele><time>2026-05-03T16:02:16.941Z</time></trkpt><trkpt lat="36.572391" lon="9.4882207"><ele>70.0</ele><time>2026-05-03T16:02:17.948Z</time></trkpt><trkpt lat="36.5724939" lon="9.4884032"><ele>71.0</ele><time>2026-05-03T16:02:18.927Z</time></trkpt><trkpt lat="36.5725989" lon="9.4885941"><ele>71.33333333333334</ele><time>2026-05-03T16:02:19.937Z</time></trkpt><trkpt lat="36.5727019" lon="9.4887823"><ele>71.66666666666667</ele><time>2026-05-03T16:02:20.941Z</time></trkpt><trkpt lat="36.5728095" lon="9.4889654"><ele>72.0</ele><time>2026-05-03T16:02:21.947Z</time></trkpt><trkpt lat="36.5729153" lon="9.4891574"><ele>72.66666666666667</ele><time>2026-05-03T16:02:22.94Z</time></trkpt><trkpt lat="36.5730244" lon="9.4893465"><ele>73.33333333333334</ele><time>2026-05-03T16:02:23.919Z</time></trkpt><trkpt lat="36.5731386" lon="9.4895454"><ele>74.0</ele><time>2026-05-03T16:02:24.937Z</time></trkpt><trkpt lat="36.573251" lon="9.4897412"><ele>74.0</ele><time>2026-05-03T16:02:25.944Z</time></trkpt><trkpt lat="36.5733678" lon="9.4899406"><ele>74.0</ele><time>2026-05-03T16:02:26.927Z</time></trkpt><trkpt lat="36.5734803" lon="9.490137"><ele>74.0</ele><time>2026-05-03T16:02:27.931Z</time></trkpt><trkpt lat="36.5735916" lon="9.4903308"><ele>73.0</ele><time>2026-05-03T16:02:28.951Z</time></trkpt><trkpt lat="36.5737009" lon="9.4905281"><ele>72.0</ele><time>2026-05-03T16:02:29.937Z</time></trkpt><trkpt lat="36.5738075" lon="9.4907147"><ele>71.0</ele><time>2026-05-03T16:02:30.944Z</time></trkpt><trkpt lat="36.5739019" lon="9.4908819"><ele>71.0</ele><time>2026-05-03T16:02:31.949Z</time></trkpt><trkpt lat="36.57399" lon="9.4910394"><ele>71.0</ele><time>2026-05-03T16:02:32.934Z</time></trkpt><trkpt lat="36.5740788" lon="9.4911964"><ele>71.0</ele><time>2026-05-03T16:02:33.949Z</time></trkpt><trkpt lat="36.5741668" lon="9.491352"><ele>73.0</ele><time>2026-05-03T16:02:34.941Z</time></trkpt><trkpt lat="36.5742619" lon="9.4915119"><ele>75.0</ele><time>2026-05-03T16:02:35.927Z</time></trkpt><trkpt lat="36.5743578" lon="9.4916823"><ele>77.0</ele><time>2026-05-03T16:02:36.953Z</time></trkpt><trkpt lat="36.5744597" lon="9.4918723"><ele>77.66666666666667</ele><time>2026-05-03T16:02:37.941Z</time></trkpt><trkpt lat="36.5745617" lon="9.492055"><ele>78.33333333333333</ele><time>2026-05-03T16:02:38.949Z</time></trkpt><trkpt lat="36.5746687" lon="9.4922441"><ele>79.0</ele><time>2026-05-03T16:02:39.926Z</time></trkpt><trkpt lat="36.5747706" lon="9.4924331"><ele>79.0</ele><time>2026-05-03T16:02:40.954Z</time></trkpt><trkpt lat="36.5748703" lon="9.4926273"><ele>79.0</ele><time>2026-05-03T16:02:41.931Z</time></trkpt><trkpt lat="36.5749646" lon="9.4928253"><ele>79.0</ele><time>2026-05-03T16:02:42.932Z</time></trkpt><trkpt lat="36.5750587" lon="9.493026"><ele>79.66666666666666</ele><time>2026-05-03T16:02:43.945Z</time></trkpt><trkpt lat="36.5751537" lon="9.4932313"><ele>80.33333333333333</ele><time>2026-05-03T16:02:44.939Z</time></trkpt><trkpt lat="36.5752474" lon="9.4934369"><ele>81.0</ele><time>2026-05-03T16:02:45.947Z</time></trkpt><trkpt lat="36.5753473" lon="9.493646"><ele>80.0</ele><time>2026-05-03T16:02:46.947Z</time></trkpt><trkpt lat="36.5754472" lon="9.4938582"><ele>79.0</ele><time>2026-05-03T16:02:47.942Z</time></trkpt><trkpt lat="36.5755466" lon="9.4940766"><ele>78.0</ele><time>2026-05-03T16:02:48.947Z</time></trkpt><trkpt lat="36.5756462" lon="9.4942878"><ele>78.0</ele><time>2026-05-03T16:02:49.931Z</time></trkpt><trkpt lat="36.57574" lon="9.4944986"><ele>78.0</ele><time>2026-05-03T16:02:50.931Z</time></trkpt><trkpt lat="36.5758302" lon="9.4947075"><ele>78.0</ele><time>2026-05-03T16:02:51.957Z</time></trkpt><trkpt lat="36.5759067" lon="9.4949077"><ele>77.33333333333333</ele><time>2026-05-03T16:02:52.94Z</time></trkpt><trkpt lat="36.5759727" lon="9.495105"><ele>76.66666666666666</ele><time>2026-05-03T16:02:53.958Z</time></trkpt><trkpt lat="36.5760404" lon="9.4953067"><ele>76.0</ele><time>2026-05-03T16:02:54.926Z</time></trkpt><trkpt lat="36.5761032" lon="9.4955109"><ele>75.66666666666666</ele><time>2026-05-03T16:02:55.96Z</time></trkpt><trkpt lat="36.5761638" lon="9.4957159"><ele>75.33333333333333</ele><time>2026-05-03T16:02:56.952Z</time></trkpt><trkpt lat="36.5762148" lon="9.4959257"><ele>75.0</ele><time>2026-05-03T16:02:57.947Z</time></trkpt><trkpt lat="36.5762609" lon="9.4961341"><ele>74.33333333333333</ele><time>2026-05-03T16:02:58.933Z</time></trkpt><trkpt lat="36.5762993" lon="9.4963413"><ele>73.66666666666666</ele><time>2026-05-03T16:02:59.932Z</time></trkpt><trkpt lat="36.5763372" lon="9.4965383"><ele>73.0</ele><time>2026-05-03T16:03:00.952Z</time></trkpt><trkpt lat="36.5763669" lon="9.4967292"><ele>73.0</ele><time>2026-05-03T16:03:01.953Z</time></trkpt><trkpt lat="36.5763935" lon="9.4969088"><ele>73.0</ele><time>2026-05-03T16:03:02.937Z</time></trkpt><trkpt lat="36.5764163" lon="9.4970878"><ele>73.0</ele><time>2026-05-03T16:03:03.938Z</time></trkpt><trkpt lat="36.5764388" lon="9.497261"><ele>73.0</ele><time>2026-05-03T16:03:04.947Z</time></trkpt><trkpt lat="36.5764591" lon="9.4974316"><ele>73.0</ele><time>2026-05-03T16:03:05.955Z</time></trkpt><trkpt lat="36.576478" lon="9.497595"><ele>73.0</ele><time>2026-05-03T16:03:06.947Z</time></trkpt><trkpt lat="36.5764935" lon="9.4977468"><ele>73.0</ele><time>2026-05-03T16:03:07.93Z</time></trkpt><trkpt lat="36.5765105" lon="9.4978965"><ele>73.0</ele><time>2026-05-03T16:03:08.945Z</time></trkpt><trkpt lat="36.5765286" lon="9.4980398"><ele>72.5</ele><time>2026-05-03T16:03:09.933Z</time></trkpt><trkpt lat="36.5765471" lon="9.4981964"><ele>72.0</ele><time>2026-05-03T16:03:10.946Z</time></trkpt><trkpt lat="36.5765656" lon="9.4983539"><ele>71.5</ele><time>2026-05-03T16:03:11.954Z</time></trkpt><trkpt lat="36.5765902" lon="9.4985142"><ele>71.0</ele><time>2026-05-03T16:03:12.953Z</time></trkpt><trkpt lat="36.5766086" lon="9.4986764"><ele>70.5</ele><time>2026-05-03T16:03:13.965Z</time></trkpt><trkpt lat="36.5766261" lon="9.4988396"><ele>70.0</ele><time>2026-05-03T16:03:14.968Z</time></trkpt><trkpt lat="36.5766484" lon="9.4990058"><ele>69.5</ele><time>2026-05-03T16:03:15.952Z</time></trkpt><trkpt lat="36.5766725" lon="9.4991663"><ele>69.0</ele><time>2026-05-03T16:03:16.953Z</time></trkpt><trkpt lat="36.5766933" lon="9.4993337"><ele>69.0</ele><time>2026-05-03T16:03:17.949Z</time></trkpt><trkpt lat="36.5767162" lon="9.4995055"><ele>69.0</ele><time>2026-05-03T16:03:18.941Z</time></trkpt><trkpt lat="36.576738" lon="9.4996842"><ele>69.0</ele><time>2026-05-03T16:03:19.951Z</time></trkpt><trkpt lat="36.5767616" lon="9.4998719"><ele>69.0</ele><time>2026-05-03T16:03:20.945Z</time></trkpt><trkpt lat="36.5767857" lon="9.5000573"><ele>69.0</ele><time>2026-05-03T16:03:21.946Z</time></trkpt><trkpt lat="36.5768092" lon="9.5002417"><ele>69.0</ele><time>2026-05-03T16:03:22.954Z</time></trkpt><trkpt lat="36.5768303" lon="9.5004188"><ele>69.0</ele><time>2026-05-03T16:03:23.941Z</time></trkpt><trkpt lat="36.5768513" lon="9.5005954"><ele>69.0</ele><time>2026-05-03T16:03:24.936Z</time></trkpt><trkpt lat="36.5768702" lon="9.5007617"><ele>69.0</ele><time>2026-05-03T16:03:25.933Z</time></trkpt><trkpt lat="36.5768885" lon="9.5009152"><ele>69.0</ele><time>2026-05-03T16:03:26.949Z</time></trkpt><trkpt lat="36.5769067" lon="9.501069"><ele>69.0</ele><time>2026-05-03T16:03:27.952Z</time></trkpt><trkpt lat="36.5769193" lon="9.5012125"><ele>69.0</ele><time>2026-05-03T16:03:28.939Z</time></trkpt><trkpt lat="36.576936" lon="9.5013563"><ele>69.0</ele><time>2026-05-03T16:03:29.944Z</time></trkpt><trkpt lat="36.576953" lon="9.5014974"><ele>69.0</ele><time>2026-05-03T16:03:30.936Z</time></trkpt><trkpt lat="36.5769699" lon="9.5016343"><ele>69.0</ele><time>2026-05-03T16:03:31.918Z</time></trkpt><trkpt lat="36.5769865" lon="9.5017571"><ele>69.0</ele><time>2026-05-03T16:03:32.943Z</time></trkpt><trkpt lat="36.5770012" lon="9.5018785"><ele>69.0</ele><time>2026-05-03T16:03:33.94Z</time></trkpt><trkpt lat="36.5770108" lon="9.5019989"><ele>69.0</ele><time>2026-05-03T16:03:34.909Z</time></trkpt><trkpt lat="36.5770195" lon="9.5021202"><ele>69.0</ele><time>2026-05-03T16:03:35.938Z</time></trkpt><trkpt lat="36.5770322" lon="9.5022464"><ele>69.0</ele><time>2026-05-03T16:03:36.913Z</time></trkpt><trkpt lat="36.5770512" lon="9.5023677"><ele>69.0</ele><time>2026-05-03T16:03:37.919Z</time></trkpt><trkpt lat="36.57707" lon="9.5024862"><ele>69.0</ele><time>2026-05-03T16:03:38.921Z</time></trkpt><trkpt lat="36.577084" lon="9.5025988"><ele>69.0</ele><time>2026-05-03T16:03:39.913Z</time></trkpt><trkpt lat="36.5771004" lon="9.5027022"><ele>69.0</ele><time>2026-05-03T16:03:40.926Z</time></trkpt><trkpt lat="36.5771216" lon="9.5027987"><ele>69.0</ele><time>2026-05-03T16:03:41.946Z</time></trkpt><trkpt lat="36.5771386" lon="9.5028933"><ele>69.0</ele><time>2026-05-03T16:03:42.945Z</time></trkpt><trkpt lat="36.5771523" lon="9.50298"><ele>69.0</ele><time>2026-05-03T16:03:43.954Z</time></trkpt><trkpt lat="36.5771598" lon="9.5030647"><ele>69.0</ele><time>2026-05-03T16:03:44.943Z</time></trkpt><trkpt lat="36.5771766" lon="9.503165"><ele>68.8</ele><time>2026-05-03T16:03:45.941Z</time></trkpt><trkpt lat="36.5771941" lon="9.5032699"><ele>68.60000000000001</ele><time>2026-05-03T16:03:46.939Z</time></trkpt><trkpt lat="36.5772124" lon="9.503376"><ele>68.4</ele><time>2026-05-03T16:03:47.954Z</time></trkpt><trkpt lat="36.5772351" lon="9.5034865"><ele>68.2</ele><time>2026-05-03T16:03:48.937Z</time></trkpt><trkpt lat="36.577262" lon="9.5035982"><ele>68.0</ele><time>2026-05-03T16:03:49.926Z</time></trkpt><trkpt lat="36.5772901" lon="9.503714"><ele>68.4</ele><time>2026-05-03T16:03:50.941Z</time></trkpt><trkpt lat="36.5773227" lon="9.5038339"><ele>68.8</ele><time>2026-05-03T16:03:51.951Z</time></trkpt><trkpt lat="36.5773569" lon="9.5039504"><ele>69.2</ele><time>2026-05-03T16:03:52.936Z</time></trkpt><trkpt lat="36.577394" lon="9.5040674"><ele>69.6</ele><time>2026-05-03T16:03:53.938Z</time></trkpt><trkpt lat="36.5774302" lon="9.5041774"><ele>70.0</ele><time>2026-05-03T16:03:54.943Z</time></trkpt><trkpt lat="36.5774713" lon="9.5042895"><ele>70.0</ele><time>2026-05-03T16:03:55.916Z</time></trkpt><trkpt lat="36.5775055" lon="9.5043955"><ele>70.0</ele><time>2026-05-03T16:03:56.941Z</time></trkpt><trkpt lat="36.5775463" lon="9.504497"><ele>70.0</ele><time>2026-05-03T16:03:57.919Z</time></trkpt><trkpt lat="36.5775845" lon="9.504583"><ele>70.0</ele><time>2026-05-03T16:03:58.95Z</time></trkpt><trkpt lat="36.5776191" lon="9.5046563"><ele>70.0</ele><time>2026-05-03T16:03:59.922Z</time></trkpt><trkpt lat="36.5776489" lon="9.5047262"><ele>70.0</ele><time>2026-05-03T16:04:00.941Z</time></trkpt><trkpt lat="36.5776809" lon="9.5047997"><ele>70.0</ele><time>2026-05-03T16:04:01.949Z</time></trkpt><trkpt lat="36.5777186" lon="9.5048825"><ele>70.0</ele><time>2026-05-03T16:04:02.93Z</time></trkpt><trkpt lat="36.5777581" lon="9.5049755"><ele>70.0</ele><time>2026-05-03T16:04:03.954Z</time></trkpt><trkpt lat="36.5778008" lon="9.5050696"><ele>70.0</ele><time>2026-05-03T16:04:04.927Z</time></trkpt><trkpt lat="36.5778443" lon="9.5051666"><ele>70.0</ele><time>2026-05-03T16:04:05.934Z</time></trkpt><trkpt lat="36.5778821" lon="9.5052592"><ele>70.0</ele><time>2026-05-03T16:04:06.95Z</time></trkpt><trkpt lat="36.5779207" lon="9.5053563"><ele>69.2</ele><time>2026-05-03T16:04:07.943Z</time></trkpt><trkpt lat="36.5779598" lon="9.5054566"><ele>68.4</ele><time>2026-05-03T16:04:08.958Z</time></trkpt><trkpt lat="36.5780066" lon="9.5055694"><ele>67.6</ele><time>2026-05-03T16:04:09.927Z</time></trkpt><trkpt lat="36.578054" lon="9.5056835"><ele>66.8</ele><time>2026-05-03T16:04:10.933Z</time></trkpt><trkpt lat="36.5781077" lon="9.5058001"><ele>66.0</ele><time>2026-05-03T16:04:11.946Z</time></trkpt><trkpt lat="36.578161" lon="9.5059126"><ele>66.0</ele><time>2026-05-03T16:04:12.95Z</time></trkpt><trkpt lat="36.5782117" lon="9.5060209"><ele>66.0</ele><time>2026-05-03T16:04:13.936Z</time></trkpt><trkpt lat="36.5782621" lon="9.5061288"><ele>66.0</ele><time>2026-05-03T16:04:14.941Z</time></trkpt><trkpt lat="36.5783113" lon="9.5062403"><ele>66.0</ele><time>2026-05-03T16:04:15.921Z</time></trkpt><trkpt lat="36.5783561" lon="9.5063397"><ele>66.0</ele><time>2026-05-03T16:04:16.941Z</time></trkpt><trkpt lat="36.578399" lon="9.506433"><ele>66.0</ele><time>2026-05-03T16:04:17.944Z</time></trkpt><trkpt lat="36.5784401" lon="9.50652"><ele>66.0</ele><time>2026-05-03T16:04:18.946Z</time></trkpt><trkpt lat="36.578475" lon="9.5066043"><ele>66.0</ele><time>2026-05-03T16:04:19.942Z</time></trkpt><trkpt lat="36.578507" lon="9.5066786"><ele>66.0</ele><time>2026-05-03T16:04:20.937Z</time></trkpt><trkpt lat="36.5785392" lon="9.5067464"><ele>66.0</ele><time>2026-05-03T16:04:21.936Z</time></trkpt><trkpt lat="36.578593" lon="9.506875"><ele>66.0</ele><time>2026-05-03T16:04:23.946Z</time></trkpt><trkpt lat="36.5786435" lon="9.506991"><ele>66.0</ele><time>2026-05-03T16:04:25.928Z</time></trkpt><trkpt lat="36.5786797" lon="9.507092"><ele>66.0</ele><time>2026-05-03T16:04:27.953Z</time></trkpt><trkpt lat="36.5787429" lon="9.5072127"><ele>66.0</ele><time>2026-05-03T16:04:29.941Z</time></trkpt><trkpt lat="36.5787779" lon="9.50728"><ele>66.0</ele><time>2026-05-03T16:04:30.934Z</time></trkpt><trkpt lat="36.57881" lon="9.5073582"><ele>66.0</ele><time>2026-05-03T16:04:31.951Z</time></trkpt><trkpt lat="36.5788682" lon="9.5074861"><ele>66.0</ele><time>2026-05-03T16:04:33.942Z</time></trkpt><trkpt lat="36.5789005" lon="9.5075544"><ele>66.0</ele><time>2026-05-03T16:04:34.94Z</time></trkpt><trkpt lat="36.578928" lon="9.5076275"><ele>66.0</ele><time>2026-05-03T16:04:35.934Z</time></trkpt><trkpt lat="36.5789872" lon="9.5077615"><ele>66.0</ele><time>2026-05-03T16:04:37.93Z</time></trkpt><trkpt lat="36.5790447" lon="9.5078914"><ele>66.0</ele><time>2026-05-03T16:04:39.938Z</time></trkpt><trkpt lat="36.5790743" lon="9.5079638"><ele>66.0</ele><time>2026-05-03T16:04:40.933Z</time></trkpt><trkpt lat="36.5791041" lon="9.5080399"><ele>66.83333333333333</ele><time>2026-05-03T16:04:41.937Z</time></trkpt><trkpt lat="36.5791364" lon="9.508112"><ele>67.66666666666667</ele><time>2026-05-03T16:04:42.953Z</time></trkpt><trkpt lat="36.5791847" lon="9.5082534"><ele>68.5</ele><time>2026-05-03T16:04:44.936Z</time></trkpt><trkpt lat="36.5792133" lon="9.5083273"><ele>69.33333333333334</ele><time>2026-05-03T16:04:45.931Z</time></trkpt><trkpt lat="36.5792419" lon="9.508405"><ele>70.16666666666667</ele><time>2026-05-03T16:04:46.952Z</time></trkpt><trkpt lat="36.5792732" lon="9.50848"><ele>71.0</ele><time>2026-05-03T16:04:47.941Z</time></trkpt><trkpt lat="36.5793013" lon="9.5085558"><ele>71.0</ele><time>2026-05-03T16:04:48.945Z</time></trkpt><trkpt lat="36.5793298" lon="9.508633"><ele>71.0</ele><time>2026-05-03T16:04:49.925Z</time></trkpt><trkpt lat="36.579377" lon="9.5087749"><ele>71.0</ele><time>2026-05-03T16:04:51.952Z</time></trkpt><trkpt lat="36.5794027" lon="9.5088496"><ele>71.0</ele><time>2026-05-03T16:04:52.931Z</time></trkpt><trkpt lat="36.5794332" lon="9.5089398"><ele>71.0</ele><time>2026-05-03T16:04:53.951Z</time></trkpt><trkpt lat="36.5794632" lon="9.5090275"><ele>71.0</ele><time>2026-05-03T16:04:54.932Z</time></trkpt><trkpt lat="36.579496" lon="9.509106"><ele>71.0</ele><time>2026-05-03T16:04:55.939Z</time></trkpt><trkpt lat="36.5795273" lon="9.509187"><ele>71.0</ele><time>2026-05-03T16:04:56.929Z</time></trkpt><trkpt lat="36.5795563" lon="9.5092687"><ele>71.0</ele><time>2026-05-03T16:04:57.939Z</time></trkpt><trkpt lat="36.5795859" lon="9.5093483"><ele>71.0</ele><time>2026-05-03T16:04:58.943Z</time></trkpt><trkpt lat="36.5796124" lon="9.5094255"><ele>71.0</ele><time>2026-05-03T16:04:59.948Z</time></trkpt><trkpt lat="36.5796421" lon="9.5095078"><ele>71.0</ele><time>2026-05-03T16:05:00.957Z</time></trkpt><trkpt lat="36.5796721" lon="9.5095877"><ele>71.0</ele><time>2026-05-03T16:05:01.942Z</time></trkpt><trkpt lat="36.5797034" lon="9.5096711"><ele>71.0</ele><time>2026-05-03T16:05:02.941Z</time></trkpt><trkpt lat="36.5797414" lon="9.509764"><ele>71.0</ele><time>2026-05-03T16:05:03.947Z</time></trkpt><trkpt lat="36.5797861" lon="9.5098645"><ele>71.0</ele><time>2026-05-03T16:05:04.935Z</time></trkpt><trkpt lat="36.5798326" lon="9.5099674"><ele>71.0</ele><time>2026-05-03T16:05:05.953Z</time></trkpt><trkpt lat="36.5798841" lon="9.5100638"><ele>71.0</ele><time>2026-05-03T16:05:06.943Z</time></trkpt><trkpt lat="36.579942" lon="9.5101518"><ele>71.0</ele><time>2026-05-03T16:05:07.935Z</time></trkpt><trkpt lat="36.5799987" lon="9.5102283"><ele>71.0</ele><time>2026-05-03T16:05:08.928Z</time></trkpt><trkpt lat="36.5800561" lon="9.5102955"><ele>71.0</ele><time>2026-05-03T16:05:09.925Z</time></trkpt><trkpt lat="36.5801166" lon="9.5103482"><ele>71.0</ele><time>2026-05-03T16:05:10.951Z</time></trkpt><trkpt lat="36.5801731" lon="9.5104044"><ele>71.0</ele><time>2026-05-03T16:05:11.938Z</time></trkpt><trkpt lat="36.580231" lon="9.5104509"><ele>71.0</ele><time>2026-05-03T16:05:12.943Z</time></trkpt><trkpt lat="36.5802887" lon="9.5104946"><ele>71.0</ele><time>2026-05-03T16:05:13.956Z</time></trkpt><trkpt lat="36.5803423" lon="9.5105367"><ele>70.33333333333334</ele><time>2026-05-03T16:05:14.954Z</time></trkpt><trkpt lat="36.5803957" lon="9.5105847"><ele>69.66666666666667</ele><time>2026-05-03T16:05:15.923Z</time></trkpt><trkpt lat="36.5804581" lon="9.5106343"><ele>69.0</ele><time>2026-05-03T16:05:16.94Z</time></trkpt><trkpt lat="36.5805268" lon="9.510675"><ele>68.33333333333333</ele><time>2026-05-03T16:05:17.95Z</time></trkpt><trkpt lat="36.5805975" lon="9.5107284"><ele>67.66666666666666</ele><time>2026-05-03T16:05:18.922Z</time></trkpt><trkpt lat="36.5806723" lon="9.5107913"><ele>67.0</ele><time>2026-05-03T16:05:19.947Z</time></trkpt><trkpt lat="36.5807464" lon="9.5108617"><ele>67.0</ele><time>2026-05-03T16:05:20.913Z</time></trkpt><trkpt lat="36.5808274" lon="9.5109297"><ele>67.0</ele><time>2026-05-03T16:05:21.92Z</time></trkpt><trkpt lat="36.5809097" lon="9.510995"><ele>67.0</ele><time>2026-05-03T16:05:22.927Z</time></trkpt><trkpt lat="36.5809878" lon="9.5110576"><ele>67.0</ele><time>2026-05-03T16:05:23.949Z</time></trkpt><trkpt lat="36.5810586" lon="9.5111088"><ele>67.0</ele><time>2026-05-03T16:05:24.94Z</time></trkpt><trkpt lat="36.5811206" lon="9.5111577"><ele>67.0</ele><time>2026-05-03T16:05:25.934Z</time></trkpt><trkpt lat="36.5812251" lon="9.51123"><ele>68.4</ele><time>2026-05-03T16:05:27.932Z</time></trkpt><trkpt lat="36.5813166" lon="9.5112894"><ele>69.80000000000001</ele><time>2026-05-03T16:05:29.93Z</time></trkpt><trkpt lat="36.5814223" lon="9.511337"><ele>71.2</ele><time>2026-05-03T16:05:31.953Z</time></trkpt><trkpt lat="36.5815454" lon="9.511392"><ele>72.60000000000001</ele><time>2026-05-03T16:05:33.938Z</time></trkpt><trkpt lat="36.5816246" lon="9.5114175"><ele>74.0</ele><time>2026-05-03T16:05:34.937Z</time></trkpt><trkpt lat="36.581709" lon="9.51145"><ele>74.0</ele><time>2026-05-03T16:05:35.924Z</time></trkpt><trkpt lat="36.5817905" lon="9.5114809"><ele>74.0</ele><time>2026-05-03T16:05:36.934Z</time></trkpt><trkpt lat="36.5818772" lon="9.5115121"><ele>74.0</ele><time>2026-05-03T16:05:37.953Z</time></trkpt><trkpt lat="36.5819677" lon="9.5115411"><ele>74.0</ele><time>2026-05-03T16:05:38.96Z</time></trkpt><trkpt lat="36.5820613" lon="9.511569"><ele>74.0</ele><time>2026-05-03T16:05:39.918Z</time></trkpt><trkpt lat="36.5821491" lon="9.5115907"><ele>72.4</ele><time>2026-05-03T16:05:40.946Z</time></trkpt><trkpt lat="36.5822345" lon="9.5116152"><ele>70.80000000000001</ele><time>2026-05-03T16:05:41.944Z</time></trkpt><trkpt lat="36.5823269" lon="9.5116445"><ele>69.19999999999999</ele><time>2026-05-03T16:05:42.964Z</time></trkpt><trkpt lat="36.5824273" lon="9.5116776"><ele>67.6</ele><time>2026-05-03T16:05:43.925Z</time></trkpt><trkpt lat="36.5825302" lon="9.5117083"><ele>66.0</ele><time>2026-05-03T16:05:44.942Z</time></trkpt><trkpt lat="36.5826335" lon="9.5117409"><ele>66.0</ele><time>2026-05-03T16:05:45.955Z</time></trkpt><trkpt lat="36.5827423" lon="9.5117675"><ele>66.0</ele><time>2026-05-03T16:05:46.942Z</time></trkpt><trkpt lat="36.5828504" lon="9.5117963"><ele>66.0</ele><time>2026-05-03T16:05:47.925Z</time></trkpt><trkpt lat="36.5829565" lon="9.5118271"><ele>66.0</ele><time>2026-05-03T16:05:48.933Z</time></trkpt><trkpt lat="36.5830559" lon="9.511856"><ele>66.0</ele><time>2026-05-03T16:05:49.954Z</time></trkpt><trkpt lat="36.5831517" lon="9.5118879"><ele>66.2</ele><time>2026-05-03T16:05:50.948Z</time></trkpt><trkpt lat="36.583242" lon="9.5119189"><ele>66.39999999999999</ele><time>2026-05-03T16:05:51.95Z</time></trkpt><trkpt lat="36.5833328" lon="9.5119605"><ele>66.6</ele><time>2026-05-03T16:05:52.936Z</time></trkpt><trkpt lat="36.5834262" lon="9.5120035"><ele>66.8</ele><time>2026-05-03T16:05:53.941Z</time></trkpt><trkpt lat="36.5835208" lon="9.5120509"><ele>67.0</ele><time>2026-05-03T16:05:54.944Z</time></trkpt><trkpt lat="36.5836172" lon="9.5120989"><ele>65.25</ele><time>2026-05-03T16:05:55.93Z</time></trkpt><trkpt lat="36.5837138" lon="9.5121483"><ele>63.5</ele><time>2026-05-03T16:05:56.936Z</time></trkpt><trkpt lat="36.5838133" lon="9.5122138"><ele>61.75</ele><time>2026-05-03T16:05:57.93Z</time></trkpt><trkpt lat="36.5839122" lon="9.5122918"><ele>60.0</ele><time>2026-05-03T16:05:58.945Z</time></trkpt><trkpt lat="36.5840074" lon="9.5123865"><ele>60.0</ele><time>2026-05-03T16:05:59.944Z</time></trkpt><trkpt lat="36.5840975" lon="9.5124886"><ele>60.0</ele><time>2026-05-03T16:06:00.932Z</time></trkpt><trkpt lat="36.5841858" lon="9.5126005"><ele>60.0</ele><time>2026-05-03T16:06:01.946Z</time></trkpt><trkpt lat="36.5842676" lon="9.5127248"><ele>60.0</ele><time>2026-05-03T16:06:02.951Z</time></trkpt><trkpt lat="36.5843424" lon="9.512846"><ele>60.25</ele><time>2026-05-03T16:06:03.922Z</time></trkpt><trkpt lat="36.5844091" lon="9.5129805"><ele>60.5</ele><time>2026-05-03T16:06:04.914Z</time></trkpt><trkpt lat="36.5844746" lon="9.5131292"><ele>60.75</ele><time>2026-05-03T16:06:05.914Z</time></trkpt><trkpt lat="36.5845334" lon="9.5132832"><ele>61.0</ele><time>2026-05-03T16:06:06.934Z</time></trkpt><trkpt lat="36.5845966" lon="9.513451"><ele>61.33333333333333</ele><time>2026-05-03T16:06:07.942Z</time></trkpt><trkpt lat="36.5846599" lon="9.5136192"><ele>61.66666666666667</ele><time>2026-05-03T16:06:08.931Z</time></trkpt><trkpt lat="36.5847234" lon="9.5137977"><ele>62.0</ele><time>2026-05-03T16:06:09.94Z</time></trkpt><trkpt lat="36.5847835" lon="9.5139809"><ele>63.0</ele><time>2026-05-03T16:06:10.94Z</time></trkpt><trkpt lat="36.5848437" lon="9.5141576"><ele>64.0</ele><time>2026-05-03T16:06:11.953Z</time></trkpt><trkpt lat="36.5849054" lon="9.5143305"><ele>65.0</ele><time>2026-05-03T16:06:12.952Z</time></trkpt><trkpt lat="36.5849661" lon="9.5144988"><ele>65.75</ele><time>2026-05-03T16:06:13.94Z</time></trkpt><trkpt lat="36.5850251" lon="9.5146628"><ele>66.5</ele><time>2026-05-03T16:06:14.92Z</time></trkpt><trkpt lat="36.5850873" lon="9.51483"><ele>67.25</ele><time>2026-05-03T16:06:15.93Z</time></trkpt><trkpt lat="36.5851468" lon="9.5150003"><ele>68.0</ele><time>2026-05-03T16:06:16.947Z</time></trkpt><trkpt lat="36.5852018" lon="9.5151673"><ele>68.0</ele><time>2026-05-03T16:06:17.946Z</time></trkpt><trkpt lat="36.5852537" lon="9.5153317"><ele>68.0</ele><time>2026-05-03T16:06:18.948Z</time></trkpt><trkpt lat="36.5853039" lon="9.515489"><ele>68.0</ele><time>2026-05-03T16:06:19.946Z</time></trkpt><trkpt lat="36.5853527" lon="9.5156323"><ele>68.0</ele><time>2026-05-03T16:06:20.959Z</time></trkpt><trkpt lat="36.5853943" lon="9.5157595"><ele>68.16666666666667</ele><time>2026-05-03T16:06:21.947Z</time></trkpt><trkpt lat="36.5854355" lon="9.5158668"><ele>68.33333333333334</ele><time>2026-05-03T16:06:22.952Z</time></trkpt><trkpt lat="36.5854723" lon="9.515959"><ele>68.5</ele><time>2026-05-03T16:06:23.945Z</time></trkpt><trkpt lat="36.5855095" lon="9.5160401"><ele>68.66666666666667</ele><time>2026-05-03T16:06:24.949Z</time></trkpt><trkpt lat="36.5855417" lon="9.51613"><ele>68.83333333333333</ele><time>2026-05-03T16:06:25.946Z</time></trkpt><trkpt lat="36.5855765" lon="9.5162326"><ele>69.0</ele><time>2026-05-03T16:06:26.948Z</time></trkpt><trkpt lat="36.5856204" lon="9.5163534"><ele>69.25</ele><time>2026-05-03T16:06:27.941Z</time></trkpt><trkpt lat="36.5856707" lon="9.516487"><ele>69.5</ele><time>2026-05-03T16:06:28.934Z</time></trkpt><trkpt lat="36.5857327" lon="9.5166362"><ele>69.75</ele><time>2026-05-03T16:06:29.933Z</time></trkpt><trkpt lat="36.5857954" lon="9.5168077"><ele>70.0</ele><time>2026-05-03T16:06:30.958Z</time></trkpt><trkpt lat="36.5858513" lon="9.5169808"><ele>70.5</ele><time>2026-05-03T16:06:31.94Z</time></trkpt><trkpt lat="36.585904" lon="9.5171394"><ele>71.0</ele><time>2026-05-03T16:06:32.941Z</time></trkpt><trkpt lat="36.585954" lon="9.517303"><ele>71.5</ele><time>2026-05-03T16:06:33.951Z</time></trkpt><trkpt lat="36.5859987" lon="9.5174452"><ele>72.0</ele><time>2026-05-03T16:06:34.951Z</time></trkpt><trkpt lat="36.5860395" lon="9.5175722"><ele>72.0</ele><time>2026-05-03T16:06:35.953Z</time></trkpt><trkpt lat="36.5860783" lon="9.5177005"><ele>72.0</ele><time>2026-05-03T16:06:36.964Z</time></trkpt><trkpt lat="36.5861118" lon="9.5178169"><ele>72.0</ele><time>2026-05-03T16:06:37.927Z</time></trkpt><trkpt lat="36.5861482" lon="9.5179315"><ele>72.0</ele><time>2026-05-03T16:06:38.919Z</time></trkpt><trkpt lat="36.5861863" lon="9.5180327"><ele>72.0</ele><time>2026-05-03T16:06:39.933Z</time></trkpt><trkpt lat="36.58622" lon="9.5181277"><ele>71.16666666666667</ele><time>2026-05-03T16:06:40.944Z</time></trkpt><trkpt lat="36.5862553" lon="9.5182272"><ele>70.33333333333333</ele><time>2026-05-03T16:06:41.93Z</time></trkpt><trkpt lat="36.5862919" lon="9.5183214"><ele>69.5</ele><time>2026-05-03T16:06:42.942Z</time></trkpt><trkpt lat="36.5863289" lon="9.5184162"><ele>68.66666666666666</ele><time>2026-05-03T16:06:43.935Z</time></trkpt><trkpt lat="36.5863633" lon="9.5185171"><ele>67.83333333333333</ele><time>2026-05-03T16:06:44.964Z</time></trkpt><trkpt lat="36.5864012" lon="9.5186221"><ele>67.0</ele><time>2026-05-03T16:06:45.934Z</time></trkpt><trkpt lat="36.5864474" lon="9.5187302"><ele>67.0</ele><time>2026-05-03T16:06:46.937Z</time></trkpt><trkpt lat="36.5865057" lon="9.5188463"><ele>67.0</ele><time>2026-05-03T16:06:47.941Z</time></trkpt><trkpt lat="36.5865781" lon="9.5189648"><ele>67.0</ele><time>2026-05-03T16:06:48.922Z</time></trkpt><trkpt lat="36.5866635" lon="9.5190839"><ele>67.0</ele><time>2026-05-03T16:06:49.954Z</time></trkpt><trkpt lat="36.5867546" lon="9.5192155"><ele>67.0</ele><time>2026-05-03T16:06:50.937Z</time></trkpt><trkpt lat="36.5868539" lon="9.5193239"><ele>67.0</ele><time>2026-05-03T16:06:51.966Z</time></trkpt><trkpt lat="36.586969" lon="9.5194278"><ele>67.0</ele><time>2026-05-03T16:06:52.937Z</time></trkpt><trkpt lat="36.5870914" lon="9.5195176"><ele>67.0</ele><time>2026-05-03T16:06:53.93Z</time></trkpt><trkpt lat="36.5872271" lon="9.5196052"><ele>66.33333333333333</ele><time>2026-05-03T16:06:54.944Z</time></trkpt><trkpt lat="36.5873687" lon="9.5196774"><ele>65.66666666666667</ele><time>2026-05-03T16:06:55.929Z</time></trkpt><trkpt lat="36.5875184" lon="9.5197357"><ele>65.0</ele><time>2026-05-03T16:06:56.936Z</time></trkpt><trkpt lat="36.5876788" lon="9.5197805"><ele>65.0</ele><time>2026-05-03T16:06:57.952Z</time></trkpt><trkpt lat="36.5878449" lon="9.5198037"><ele>65.0</ele><time>2026-05-03T16:06:58.942Z</time></trkpt><trkpt lat="36.5880161" lon="9.5198117"><ele>65.0</ele><time>2026-05-03T16:06:59.942Z</time></trkpt><trkpt lat="36.5881846" lon="9.5198034"><ele>65.0</ele><time>2026-05-03T16:07:00.94Z</time></trkpt><trkpt lat="36.5883396" lon="9.5197806"><ele>65.0</ele><time>2026-05-03T16:07:01.938Z</time></trkpt><trkpt lat="36.5885035" lon="9.5197469"><ele>65.0</ele><time>2026-05-03T16:07:02.941Z</time></trkpt><trkpt lat="36.5886655" lon="9.5197026"><ele>62.66666666666667</ele><time>2026-05-03T16:07:03.963Z</time></trkpt><trkpt lat="36.5888323" lon="9.5196531"><ele>60.33333333333333</ele><time>2026-05-03T16:07:04.944Z</time></trkpt><trkpt lat="36.5889889" lon="9.5195916"><ele>58.0</ele><time>2026-05-03T16:07:05.948Z</time></trkpt><trkpt lat="36.5891474" lon="9.5195347"><ele>57.33333333333333</ele><time>2026-05-03T16:07:06.947Z</time></trkpt><trkpt lat="36.5893092" lon="9.5194865"><ele>56.66666666666667</ele><time>2026-05-03T16:07:07.951Z</time></trkpt><trkpt lat="36.5894666" lon="9.519433"><ele>56.0</ele><time>2026-05-03T16:07:08.931Z</time></trkpt><trkpt lat="36.5896268" lon="9.5193837"><ele>57.333333333333336</ele><time>2026-05-03T16:07:09.958Z</time></trkpt><trkpt lat="36.5897851" lon="9.5193336"><ele>58.66666666666667</ele><time>2026-05-03T16:07:10.935Z</time></trkpt><trkpt lat="36.5899488" lon="9.5192861"><ele>60.0</ele><time>2026-05-03T16:07:11.949Z</time></trkpt><trkpt lat="36.5901099" lon="9.5192367"><ele>60.0</ele><time>2026-05-03T16:07:12.938Z</time></trkpt><trkpt lat="36.5902688" lon="9.5191875"><ele>60.0</ele><time>2026-05-03T16:07:13.932Z</time></trkpt><trkpt lat="36.5904311" lon="9.5191418"><ele>60.0</ele><time>2026-05-03T16:07:14.929Z</time></trkpt><trkpt lat="36.5905925" lon="9.5190935"><ele>61.33333333333333</ele><time>2026-05-03T16:07:15.942Z</time></trkpt><trkpt lat="36.5907462" lon="9.5190542"><ele>62.666666666666664</ele><time>2026-05-03T16:07:16.942Z</time></trkpt><trkpt lat="36.5909" lon="9.5190204"><ele>64.0</ele><time>2026-05-03T16:07:17.942Z</time></trkpt><trkpt lat="36.5910567" lon="9.5189933"><ele>64.0</ele><time>2026-05-03T16:07:18.935Z</time></trkpt><trkpt lat="36.5912159" lon="9.5189792"><ele>64.0</ele><time>2026-05-03T16:07:19.94Z</time></trkpt><trkpt lat="36.5913723" lon="9.5189736"><ele>64.0</ele><time>2026-05-03T16:07:20.928Z</time></trkpt><trkpt lat="36.5915281" lon="9.5189758"><ele>64.0</ele><time>2026-05-03T16:07:21.942Z</time></trkpt><trkpt lat="36.5916807" lon="9.5189866"><ele>64.0</ele><time>2026-05-03T16:07:22.945Z</time></trkpt><trkpt lat="36.5918308" lon="9.5190072"><ele>64.0</ele><time>2026-05-03T16:07:23.939Z</time></trkpt><trkpt lat="36.5919826" lon="9.5190356"><ele>64.66666666666666</ele><time>2026-05-03T16:07:24.949Z</time></trkpt><trkpt lat="36.5921356" lon="9.5190671"><ele>65.33333333333333</ele><time>2026-05-03T16:07:25.959Z</time></trkpt><trkpt lat="36.5922921" lon="9.5191057"><ele>66.0</ele><time>2026-05-03T16:07:26.948Z</time></trkpt><trkpt lat="36.5924465" lon="9.5191426"><ele>66.0</ele><time>2026-05-03T16:07:27.956Z</time></trkpt><trkpt lat="36.5926083" lon="9.5191836"><ele>66.0</ele><time>2026-05-03T16:07:28.936Z</time></trkpt><trkpt lat="36.5927689" lon="9.5192241"><ele>66.0</ele><time>2026-05-03T16:07:29.937Z</time></trkpt><trkpt lat="36.5929237" lon="9.5192673"><ele>67.33333333333333</ele><time>2026-05-03T16:07:30.941Z</time></trkpt><trkpt lat="36.5930836" lon="9.5193159"><ele>68.66666666666666</ele><time>2026-05-03T16:07:31.935Z</time></trkpt><trkpt lat="36.5932418" lon="9.5193603"><ele>70.0</ele><time>2026-05-03T16:07:32.938Z</time></trkpt><trkpt lat="36.5933952" lon="9.5194059"><ele>70.0</ele><time>2026-05-03T16:07:33.954Z</time></trkpt><trkpt lat="36.5935398" lon="9.5194496"><ele>70.0</ele><time>2026-05-03T16:07:34.949Z</time></trkpt><trkpt lat="36.5936684" lon="9.5194867"><ele>70.0</ele><time>2026-05-03T16:07:35.938Z</time></trkpt><trkpt lat="36.5937899" lon="9.519522"><ele>70.0</ele><time>2026-05-03T16:07:36.934Z</time></trkpt><trkpt lat="36.5939034" lon="9.5195588"><ele>69.75</ele><time>2026-05-03T16:07:37.943Z</time></trkpt><trkpt lat="36.5940198" lon="9.5195888"><ele>69.5</ele><time>2026-05-03T16:07:38.938Z</time></trkpt><trkpt lat="36.5941376" lon="9.5196206"><ele>69.25</ele><time>2026-05-03T16:07:39.947Z</time></trkpt><trkpt lat="36.5942576" lon="9.5196477"><ele>69.0</ele><time>2026-05-03T16:07:40.948Z</time></trkpt><trkpt lat="36.5943796" lon="9.519681"><ele>69.25</ele><time>2026-05-03T16:07:41.943Z</time></trkpt><trkpt lat="36.5945051" lon="9.5197136"><ele>69.5</ele><time>2026-05-03T16:07:42.952Z</time></trkpt><trkpt lat="36.5946407" lon="9.5197496"><ele>69.75</ele><time>2026-05-03T16:07:43.945Z</time></trkpt><trkpt lat="36.5947802" lon="9.5197827"><ele>70.0</ele><time>2026-05-03T16:07:44.946Z</time></trkpt><trkpt lat="36.5949249" lon="9.5198196"><ele>70.0</ele><time>2026-05-03T16:07:45.931Z</time></trkpt><trkpt lat="36.5950743" lon="9.519859"><ele>70.0</ele><time>2026-05-03T16:07:46.943Z</time></trkpt><trkpt lat="36.5952259" lon="9.5199033"><ele>70.0</ele><time>2026-05-03T16:07:47.942Z</time></trkpt><trkpt lat="36.5953813" lon="9.5199502"><ele>70.66666666666666</ele><time>2026-05-03T16:07:48.936Z</time></trkpt><trkpt lat="36.5955395" lon="9.5199946"><ele>71.33333333333333</ele><time>2026-05-03T16:07:49.955Z</time></trkpt><trkpt lat="36.5956945" lon="9.5200473"><ele>72.0</ele><time>2026-05-03T16:07:50.939Z</time></trkpt><trkpt lat="36.5958434" lon="9.5201049"><ele>72.0</ele><time>2026-05-03T16:07:51.936Z</time></trkpt><trkpt lat="36.5959901" lon="9.5201721"><ele>72.0</ele><time>2026-05-03T16:07:52.943Z</time></trkpt><trkpt lat="36.5961331" lon="9.5202427"><ele>72.0</ele><time>2026-05-03T16:07:53.943Z</time></trkpt><trkpt lat="36.5962741" lon="9.5203185"><ele>72.0</ele><time>2026-05-03T16:07:54.921Z</time></trkpt><trkpt lat="36.5964147" lon="9.5203913"><ele>72.0</ele><time>2026-05-03T16:07:55.935Z</time></trkpt><trkpt lat="36.5965464" lon="9.5204647"><ele>72.0</ele><time>2026-05-03T16:07:56.944Z</time></trkpt><trkpt lat="36.5966788" lon="9.5205371"><ele>72.0</ele><time>2026-05-03T16:07:57.933Z</time></trkpt><trkpt lat="36.5968134" lon="9.5206149"><ele>72.0</ele><time>2026-05-03T16:07:58.932Z</time></trkpt><trkpt lat="36.5969466" lon="9.5206897"><ele>72.0</ele><time>2026-05-03T16:07:59.932Z</time></trkpt><trkpt lat="36.5970789" lon="9.5207607"><ele>72.0</ele><time>2026-05-03T16:08:00.933Z</time></trkpt><trkpt lat="36.5972019" lon="9.5208382"><ele>72.0</ele><time>2026-05-03T16:08:01.941Z</time></trkpt><trkpt lat="36.5973361" lon="9.5209068"><ele>71.75</ele><time>2026-05-03T16:08:02.93Z</time></trkpt><trkpt lat="36.597469" lon="9.5209823"><ele>71.5</ele><time>2026-05-03T16:08:03.939Z</time></trkpt><trkpt lat="36.5975971" lon="9.5210513"><ele>71.25</ele><time>2026-05-03T16:08:04.936Z</time></trkpt><trkpt lat="36.5977239" lon="9.5211172"><ele>71.0</ele><time>2026-05-03T16:08:05.937Z</time></trkpt><trkpt lat="36.5978531" lon="9.5211858"><ele>71.5</ele><time>2026-05-03T16:08:06.948Z</time></trkpt><trkpt lat="36.5979824" lon="9.5212561"><ele>72.0</ele><time>2026-05-03T16:08:07.942Z</time></trkpt><trkpt lat="36.598117" lon="9.5213309"><ele>72.5</ele><time>2026-05-03T16:08:08.943Z</time></trkpt><trkpt lat="36.598251" lon="9.5214062"><ele>73.0</ele><time>2026-05-03T16:08:09.946Z</time></trkpt><trkpt lat="36.5983836" lon="9.5214831"><ele>73.0</ele><time>2026-05-03T16:08:10.93Z</time></trkpt><trkpt lat="36.5985193" lon="9.52156"><ele>73.0</ele><time>2026-05-03T16:08:11.959Z</time></trkpt><trkpt lat="36.598658" lon="9.5216336"><ele>73.0</ele><time>2026-05-03T16:08:12.94Z</time></trkpt><trkpt lat="36.5987936" lon="9.5217131"><ele>72.0</ele><time>2026-05-03T16:08:13.946Z</time></trkpt><trkpt lat="36.5989283" lon="9.5217874"><ele>71.0</ele><time>2026-05-03T16:08:14.939Z</time></trkpt><trkpt lat="36.5990657" lon="9.5218642"><ele>70.0</ele><time>2026-05-03T16:08:15.934Z</time></trkpt><trkpt lat="36.5992064" lon="9.521944"><ele>70.0</ele><time>2026-05-03T16:08:16.944Z</time></trkpt><trkpt lat="36.5993471" lon="9.522022"><ele>70.0</ele><time>2026-05-03T16:08:17.954Z</time></trkpt><trkpt lat="36.5994836" lon="9.5220963"><ele>70.0</ele><time>2026-05-03T16:08:18.941Z</time></trkpt><trkpt lat="36.5996186" lon="9.5221721"><ele>70.33333333333333</ele><time>2026-05-03T16:08:19.948Z</time></trkpt><trkpt lat="36.5997597" lon="9.5222485"><ele>70.66666666666667</ele><time>2026-05-03T16:08:20.951Z</time></trkpt><trkpt lat="36.5999015" lon="9.5223214"><ele>71.0</ele><time>2026-05-03T16:08:21.964Z</time></trkpt><trkpt lat="36.6000424" lon="9.5223951"><ele>71.0</ele><time>2026-05-03T16:08:22.941Z</time></trkpt><trkpt lat="36.6001815" lon="9.5224758"><ele>71.0</ele><time>2026-05-03T16:08:23.939Z</time></trkpt><trkpt lat="36.6003204" lon="9.5225576"><ele>71.0</ele><time>2026-05-03T16:08:24.932Z</time></trkpt><trkpt lat="36.6004577" lon="9.5226376"><ele>70.75</ele><time>2026-05-03T16:08:25.933Z</time></trkpt><trkpt lat="36.6005925" lon="9.5227108"><ele>70.5</ele><time>2026-05-03T16:08:26.944Z</time></trkpt><trkpt lat="36.6007133" lon="9.5227726"><ele>70.25</ele><time>2026-05-03T16:08:27.938Z</time></trkpt><trkpt lat="36.6008221" lon="9.5228303"><ele>70.0</ele><time>2026-05-03T16:08:28.955Z</time></trkpt><trkpt lat="36.6009182" lon="9.5228861"><ele>69.83333333333333</ele><time>2026-05-03T16:08:29.919Z</time></trkpt><trkpt lat="36.6010125" lon="9.5229359"><ele>69.66666666666666</ele><time>2026-05-03T16:08:30.951Z</time></trkpt><trkpt lat="36.6010984" lon="9.522985"><ele>69.5</ele><time>2026-05-03T16:08:31.923Z</time></trkpt><trkpt lat="36.6011815" lon="9.5230317"><ele>69.33333333333333</ele><time>2026-05-03T16:08:32.943Z</time></trkpt><trkpt lat="36.6012481" lon="9.5230697"><ele>69.16666666666667</ele><time>2026-05-03T16:08:33.919Z</time></trkpt><trkpt lat="36.6013068" lon="9.5231031"><ele>69.0</ele><time>2026-05-03T16:08:34.935Z</time></trkpt><trkpt lat="36.601365" lon="9.5231342"><ele>68.8</ele><time>2026-05-03T16:08:35.947Z</time></trkpt><trkpt lat="36.6014755" lon="9.5231912"><ele>68.60000000000001</ele><time>2026-05-03T16:08:37.944Z</time></trkpt><trkpt lat="36.6015805" lon="9.52324"><ele>68.4</ele><time>2026-05-03T16:08:39.938Z</time></trkpt><trkpt lat="36.6016796" lon="9.5232958"><ele>68.2</ele><time>2026-05-03T16:08:41.957Z</time></trkpt><trkpt lat="36.6017627" lon="9.5233444"><ele>68.0</ele><time>2026-05-03T16:08:43.935Z</time></trkpt><trkpt lat="36.6018265" lon="9.52338"><ele>68.0</ele><time>2026-05-03T16:08:45.925Z</time></trkpt><trkpt lat="36.6019064" lon="9.5234305"><ele>68.0</ele><time>2026-05-03T16:08:48.934Z</time></trkpt><trkpt lat="36.6019719" lon="9.5234799"><ele>68.0</ele><time>2026-05-03T16:08:50.934Z</time></trkpt><trkpt lat="36.6020389" lon="9.5235178"><ele>68.0</ele><time>2026-05-03T16:08:52.945Z</time></trkpt><trkpt lat="36.6021054" lon="9.5235641"><ele>68.0</ele><time>2026-05-03T16:08:55.933Z</time></trkpt><trkpt lat="36.6021702" lon="9.5236478"><ele>68.0</ele><time>2026-05-03T16:08:58.939Z</time></trkpt><trkpt lat="36.6021862" lon="9.5237471"><ele>67.66666666666667</ele><time>2026-05-03T16:09:00.946Z</time></trkpt><trkpt lat="36.6021715" lon="9.5238527"><ele>67.33333333333334</ele><time>2026-05-03T16:09:02.937Z</time></trkpt><trkpt lat="36.6021034" lon="9.5239593"><ele>67.0</ele><time>2026-05-03T16:09:04.934Z</time></trkpt><trkpt lat="36.6020478" lon="9.5240117"><ele>66.66666666666667</ele><time>2026-05-03T16:09:05.934Z</time></trkpt><trkpt lat="36.6019899" lon="9.5240687"><ele>66.33333333333333</ele><time>2026-05-03T16:09:06.957Z</time></trkpt><trkpt lat="36.6019255" lon="9.5241218"><ele>66.0</ele><time>2026-05-03T16:09:07.928Z</time></trkpt><trkpt lat="36.601849" lon="9.5241749"><ele>66.0</ele><time>2026-05-03T16:09:08.927Z</time></trkpt><trkpt lat="36.6017678" lon="9.5242388"><ele>66.0</ele><time>2026-05-03T16:09:09.925Z</time></trkpt><trkpt lat="36.6016748" lon="9.5243144"><ele>66.0</ele><time>2026-05-03T16:09:10.95Z</time></trkpt><trkpt lat="36.6015674" lon="9.5243865"><ele>66.0</ele><time>2026-05-03T16:09:11.959Z</time></trkpt><trkpt lat="36.6014503" lon="9.5244597"><ele>66.0</ele><time>2026-05-03T16:09:12.944Z</time></trkpt><trkpt lat="36.6013344" lon="9.52453"><ele>66.0</ele><time>2026-05-03T16:09:13.944Z</time></trkpt><trkpt lat="36.601221" lon="9.5245995"><ele>66.0</ele><time>2026-05-03T16:09:14.949Z</time></trkpt><trkpt lat="36.6011057" lon="9.5246665"><ele>66.0</ele><time>2026-05-03T16:09:15.944Z</time></trkpt><trkpt lat="36.6009919" lon="9.524739"><ele>65.75</ele><time>2026-05-03T16:09:16.945Z</time></trkpt><trkpt lat="36.6008766" lon="9.5248182"><ele>65.5</ele><time>2026-05-03T16:09:17.942Z</time></trkpt><trkpt lat="36.6007623" lon="9.5248975"><ele>65.25</ele><time>2026-05-03T16:09:18.946Z</time></trkpt><trkpt lat="36.6006561" lon="9.5249893"><ele>65.0</ele><time>2026-05-03T16:09:19.916Z</time></trkpt><trkpt lat="36.6005615" lon="9.5250968"><ele>65.0</ele><time>2026-05-03T16:09:20.926Z</time></trkpt><trkpt lat="36.6004798" lon="9.5252249"><ele>65.0</ele><time>2026-05-03T16:09:21.932Z</time></trkpt><trkpt lat="36.6004211" lon="9.5253741"><ele>65.0</ele><time>2026-05-03T16:09:22.937Z</time></trkpt><trkpt lat="36.6003813" lon="9.525528"><ele>65.0</ele><time>2026-05-03T16:09:23.928Z</time></trkpt><trkpt lat="36.6003705" lon="9.525687"><ele>64.5</ele><time>2026-05-03T16:09:24.931Z</time></trkpt><trkpt lat="36.6003774" lon="9.5258419"><ele>64.0</ele><time>2026-05-03T16:09:25.945Z</time></trkpt><trkpt lat="36.600408" lon="9.5259988"><ele>63.5</ele><time>2026-05-03T16:09:26.937Z</time></trkpt><trkpt lat="36.6004538" lon="9.526149"><ele>63.0</ele><time>2026-05-03T16:09:27.952Z</time></trkpt><trkpt lat="36.6005185" lon="9.5262815"><ele>62.75</ele><time>2026-05-03T16:09:28.926Z</time></trkpt><trkpt lat="36.600594" lon="9.5264035"><ele>62.5</ele><time>2026-05-03T16:09:29.928Z</time></trkpt><trkpt lat="36.6006649" lon="9.526514"><ele>62.25</ele><time>2026-05-03T16:09:30.926Z</time></trkpt><trkpt lat="36.6007368" lon="9.5266242"><ele>62.0</ele><time>2026-05-03T16:09:31.93Z</time></trkpt><trkpt lat="36.600797" lon="9.5267222"><ele>62.00000000000001</ele><time>2026-05-03T16:09:32.943Z</time></trkpt><trkpt lat="36.6008594" lon="9.5268157"><ele>62.0</ele><time>2026-05-03T16:09:33.954Z</time></trkpt><trkpt lat="36.6009187" lon="9.5269011"><ele>62.0</ele><time>2026-05-03T16:09:34.933Z</time></trkpt><trkpt lat="36.6009715" lon="9.5269841"><ele>62.0</ele><time>2026-05-03T16:09:35.936Z</time></trkpt><trkpt lat="36.6010199" lon="9.527051"><ele>62.00000000000001</ele><time>2026-05-03T16:09:36.94Z</time></trkpt><trkpt lat="36.6010629" lon="9.5271084"><ele>62.0</ele><time>2026-05-03T16:09:37.946Z</time></trkpt><trkpt lat="36.6011371" lon="9.5272102"><ele>61.833333333333336</ele><time>2026-05-03T16:09:39.947Z</time></trkpt><trkpt lat="36.601195" lon="9.5272822"><ele>61.66666666666667</ele><time>2026-05-03T16:09:41.945Z</time></trkpt><trkpt lat="36.6012521" lon="9.5273691"><ele>61.5</ele><time>2026-05-03T16:09:44.942Z</time></trkpt><trkpt lat="36.6013018" lon="9.5274443"><ele>61.33333333333333</ele><time>2026-05-03T16:09:48.944Z</time></trkpt><trkpt lat="36.6013476" lon="9.527514"><ele>61.166666666666664</ele><time>2026-05-03T16:10:03.949Z</time></trkpt><trkpt lat="36.6013974" lon="9.5275671"><ele>61.0</ele><time>2026-05-03T16:10:12.939Z</time></trkpt><trkpt lat="36.6014368" lon="9.5276296"><ele>60.99999999999999</ele><time>2026-05-03T16:10:45.941Z</time></trkpt><trkpt lat="36.6014996" lon="9.527709"><ele>61.0</ele><time>2026-05-03T16:10:56.935Z</time></trkpt><trkpt lat="36.6015642" lon="9.5278149"><ele>61.0</ele><time>2026-05-03T16:10:58.93Z</time></trkpt><trkpt lat="36.6016075" lon="9.5278849"><ele>61.0</ele><time>2026-05-03T16:10:59.938Z</time></trkpt><trkpt lat="36.6016503" lon="9.5279533"><ele>60.99999999999999</ele><time>2026-05-03T16:11:00.945Z</time></trkpt><trkpt lat="36.6016977" lon="9.5280413"><ele>61.0</ele><time>2026-05-03T16:11:01.918Z</time></trkpt><trkpt lat="36.6017698" lon="9.5281749"><ele>60.75</ele><time>2026-05-03T16:11:02.933Z</time></trkpt><trkpt lat="36.6018565" lon="9.5283226"><ele>60.5</ele><time>2026-05-03T16:11:03.937Z</time></trkpt><trkpt lat="36.6019522" lon="9.528478"><ele>60.25</ele><time>2026-05-03T16:11:04.935Z</time></trkpt><trkpt lat="36.6020391" lon="9.5286173"><ele>60.0</ele><time>2026-05-03T16:11:05.928Z</time></trkpt><trkpt lat="36.6021268" lon="9.5287612"><ele>60.75</ele><time>2026-05-03T16:11:06.937Z</time></trkpt><trkpt lat="36.6022075" lon="9.5289056"><ele>61.5</ele><time>2026-05-03T16:11:07.917Z</time></trkpt><trkpt lat="36.6022747" lon="9.5290585"><ele>62.25</ele><time>2026-05-03T16:11:08.934Z</time></trkpt><trkpt lat="36.6023249" lon="9.5292238"><ele>63.0</ele><time>2026-05-03T16:11:09.919Z</time></trkpt><trkpt lat="36.6023671" lon="9.52938"><ele>63.0</ele><time>2026-05-03T16:11:10.939Z</time></trkpt><trkpt lat="36.6023968" lon="9.5295496"><ele>63.0</ele><time>2026-05-03T16:11:11.942Z</time></trkpt><trkpt lat="36.602413" lon="9.5297197"><ele>63.0</ele><time>2026-05-03T16:11:12.939Z</time></trkpt><trkpt lat="36.6024137" lon="9.5299016"><ele>63.0</ele><time>2026-05-03T16:11:13.939Z</time></trkpt><trkpt lat="36.6024022" lon="9.5300778"><ele>63.0</ele><time>2026-05-03T16:11:14.945Z</time></trkpt><trkpt lat="36.6023717" lon="9.5302607"><ele>63.0</ele><time>2026-05-03T16:11:15.913Z</time></trkpt><trkpt lat="36.6023245" lon="9.530438"><ele>63.0</ele><time>2026-05-03T16:11:16.935Z</time></trkpt><trkpt lat="36.6022502" lon="9.5306208"><ele>62.66666666666667</ele><time>2026-05-03T16:11:17.954Z</time></trkpt><trkpt lat="36.6021579" lon="9.5308025"><ele>62.333333333333336</ele><time>2026-05-03T16:11:18.939Z</time></trkpt><trkpt lat="36.6020477" lon="9.5310013"><ele>62.0</ele><time>2026-05-03T16:11:19.941Z</time></trkpt><trkpt lat="36.6019262" lon="9.5312084"><ele>60.5</ele><time>2026-05-03T16:11:20.944Z</time></trkpt><trkpt lat="36.6018067" lon="9.5314484"><ele>59.0</ele><time>2026-05-03T16:11:21.944Z</time></trkpt><trkpt lat="36.601674" lon="9.5317019"><ele>59.0</ele><time>2026-05-03T16:11:22.941Z</time></trkpt><trkpt lat="36.6015337" lon="9.5319575"><ele>59.0</ele><time>2026-05-03T16:11:23.946Z</time></trkpt><trkpt lat="36.6013842" lon="9.5322094"><ele>60.0</ele><time>2026-05-03T16:11:24.935Z</time></trkpt><trkpt lat="36.6012299" lon="9.532471"><ele>61.0</ele><time>2026-05-03T16:11:25.934Z</time></trkpt><trkpt lat="36.601064" lon="9.5327455"><ele>61.0</ele><time>2026-05-03T16:11:26.95Z</time></trkpt><trkpt lat="36.6008848" lon="9.5330451"><ele>61.0</ele><time>2026-05-03T16:11:27.938Z</time></trkpt><trkpt lat="36.6006943" lon="9.533345"><ele>61.0</ele><time>2026-05-03T16:11:28.944Z</time></trkpt><trkpt lat="36.6004787" lon="9.533669"><ele>61.0</ele><time>2026-05-03T16:11:29.94Z</time></trkpt><trkpt lat="36.6002642" lon="9.5339987"><ele>61.0</ele><time>2026-05-03T16:11:30.956Z</time></trkpt><trkpt lat="36.6000526" lon="9.5343203"><ele>61.0</ele><time>2026-05-03T16:11:31.949Z</time></trkpt><trkpt lat="36.599849" lon="9.534633"><ele>60.5</ele><time>2026-05-03T16:11:32.947Z</time></trkpt><trkpt lat="36.5996499" lon="9.5349239"><ele>60.0</ele><time>2026-05-03T16:11:33.954Z</time></trkpt><trkpt lat="36.5994706" lon="9.5351806"><ele>62.0</ele><time>2026-05-03T16:11:34.971Z</time></trkpt><trkpt lat="36.5993012" lon="9.535425"><ele>64.0</ele><time>2026-05-03T16:11:35.941Z</time></trkpt><trkpt lat="36.5991505" lon="9.535668"><ele>64.0</ele><time>2026-05-03T16:11:36.923Z</time></trkpt><trkpt lat="36.5989945" lon="9.5359072"><ele>64.0</ele><time>2026-05-03T16:11:37.948Z</time></trkpt><trkpt lat="36.5988351" lon="9.5361512"><ele>63.5</ele><time>2026-05-03T16:11:38.937Z</time></trkpt><trkpt lat="36.5986781" lon="9.5364016"><ele>63.0</ele><time>2026-05-03T16:11:39.944Z</time></trkpt><trkpt lat="36.5985177" lon="9.5366549"><ele>63.0</ele><time>2026-05-03T16:11:40.918Z</time></trkpt><trkpt lat="36.598355" lon="9.5369079"><ele>63.0</ele><time>2026-05-03T16:11:41.923Z</time></trkpt><trkpt lat="36.5981954" lon="9.5371593"><ele>63.0</ele><time>2026-05-03T16:11:42.928Z</time></trkpt><trkpt lat="36.5980338" lon="9.5374122"><ele>63.0</ele><time>2026-05-03T16:11:43.955Z</time></trkpt><trkpt lat="36.5978756" lon="9.5376657"><ele>63.5</ele><time>2026-05-03T16:11:44.935Z</time></trkpt><trkpt lat="36.5977143" lon="9.5379167"><ele>64.0</ele><time>2026-05-03T16:11:45.947Z</time></trkpt><trkpt lat="36.597548" lon="9.5381684"><ele>64.0</ele><time>2026-05-03T16:11:46.942Z</time></trkpt><trkpt lat="36.5973886" lon="9.5384185"><ele>64.0</ele><time>2026-05-03T16:11:47.967Z</time></trkpt><trkpt lat="36.5972314" lon="9.5386658"><ele>61.5</ele><time>2026-05-03T16:11:48.942Z</time></trkpt><trkpt lat="36.5970778" lon="9.5389079"><ele>59.0</ele><time>2026-05-03T16:11:49.964Z</time></trkpt><trkpt lat="36.5969247" lon="9.5391476"><ele>59.0</ele><time>2026-05-03T16:11:50.957Z</time></trkpt><trkpt lat="36.5967702" lon="9.5393872"><ele>59.0</ele><time>2026-05-03T16:11:51.924Z</time></trkpt><trkpt lat="36.5966157" lon="9.5396297"><ele>59.0</ele><time>2026-05-03T16:11:52.934Z</time></trkpt><trkpt lat="36.5964624" lon="9.5398789"><ele>59.0</ele><time>2026-05-03T16:11:53.943Z</time></trkpt><trkpt lat="36.596311" lon="9.540134"><ele>59.0</ele><time>2026-05-03T16:11:54.958Z</time></trkpt><trkpt lat="36.5961621" lon="9.5403881"><ele>59.0</ele><time>2026-05-03T16:11:55.949Z</time></trkpt><trkpt lat="36.5960109" lon="9.5406468"><ele>59.0</ele><time>2026-05-03T16:11:56.947Z</time></trkpt><trkpt lat="36.5958622" lon="9.5409113"><ele>59.0</ele><time>2026-05-03T16:11:57.952Z</time></trkpt><trkpt lat="36.5957157" lon="9.5411864"><ele>59.0</ele><time>2026-05-03T16:11:58.953Z</time></trkpt><trkpt lat="36.5955674" lon="9.5414816"><ele>59.0</ele><time>2026-05-03T16:11:59.97Z</time></trkpt><trkpt lat="36.5954247" lon="9.5417884"><ele>60.5</ele><time>2026-05-03T16:12:00.921Z</time></trkpt><trkpt lat="36.5952843" lon="9.5421078"><ele>62.0</ele><time>2026-05-03T16:12:01.932Z</time></trkpt><trkpt lat="36.5951434" lon="9.5424334"><ele>62.0</ele><time>2026-05-03T16:12:02.95Z</time></trkpt><trkpt lat="36.5950029" lon="9.5427623"><ele>62.0</ele><time>2026-05-03T16:12:03.94Z</time></trkpt><trkpt lat="36.5948638" lon="9.5430917"><ele>62.0</ele><time>2026-05-03T16:12:04.932Z</time></trkpt><trkpt lat="36.5947236" lon="9.5434283"><ele>62.0</ele><time>2026-05-03T16:12:05.945Z</time></trkpt><trkpt lat="36.5945895" lon="9.5437617"><ele>65.5</ele><time>2026-05-03T16:12:06.94Z</time></trkpt><trkpt lat="36.594456" lon="9.54409"><ele>69.0</ele><time>2026-05-03T16:12:07.94Z</time></trkpt><trkpt lat="36.5943216" lon="9.5444186"><ele>71.0</ele><time>2026-05-03T16:12:08.957Z</time></trkpt><trkpt lat="36.5941899" lon="9.5447535"><ele>73.0</ele><time>2026-05-03T16:12:09.939Z</time></trkpt><trkpt lat="36.5940591" lon="9.5450888"><ele>72.5</ele><time>2026-05-03T16:12:10.94Z</time></trkpt><trkpt lat="36.5939317" lon="9.5454231"><ele>72.0</ele><time>2026-05-03T16:12:11.945Z</time></trkpt><trkpt lat="36.5938006" lon="9.5457608"><ele>81.5</ele><time>2026-05-03T16:12:12.952Z</time></trkpt><trkpt lat="36.5936706" lon="9.5460978"><ele>91.0</ele><time>2026-05-03T16:12:13.94Z</time></trkpt><trkpt lat="36.5935413" lon="9.5464348"><ele>91.5</ele><time>2026-05-03T16:12:14.957Z</time></trkpt><trkpt lat="36.5934055" lon="9.5467705"><ele>92.0</ele><time>2026-05-03T16:12:15.954Z</time></trkpt><trkpt lat="36.5932713" lon="9.5471018"><ele>89.5</ele><time>2026-05-03T16:12:16.942Z</time></trkpt><trkpt lat="36.5931309" lon="9.5474346"><ele>87.0</ele><time>2026-05-03T16:12:17.943Z</time></trkpt><trkpt lat="36.5929958" lon="9.5477676"><ele>87.0</ele><time>2026-05-03T16:12:18.938Z</time></trkpt><trkpt lat="36.5928642" lon="9.5481005"><ele>87.0</ele><time>2026-05-03T16:12:19.953Z</time></trkpt><trkpt lat="36.5927235" lon="9.5484312"><ele>90.5</ele><time>2026-05-03T16:12:20.926Z</time></trkpt><trkpt lat="36.5925872" lon="9.5487638"><ele>94.0</ele><time>2026-05-03T16:12:21.965Z</time></trkpt><trkpt lat="36.5924487" lon="9.549098"><ele>94.0</ele><time>2026-05-03T16:12:22.936Z</time></trkpt><trkpt lat="36.5923086" lon="9.5494346"><ele>94.0</ele><time>2026-05-03T16:12:23.949Z</time></trkpt><trkpt lat="36.5921763" lon="9.5497679"><ele>88.5</ele><time>2026-05-03T16:12:24.942Z</time></trkpt><trkpt lat="36.5920451" lon="9.5501033"><ele>83.0</ele><time>2026-05-03T16:12:25.912Z</time></trkpt><trkpt lat="36.5919226" lon="9.5504414"><ele>80.0</ele><time>2026-05-03T16:12:26.937Z</time></trkpt><trkpt lat="36.5918051" lon="9.5507843"><ele>77.0</ele><time>2026-05-03T16:12:27.959Z</time></trkpt><trkpt lat="36.5916951" lon="9.55113"><ele>74.5</ele><time>2026-05-03T16:12:28.942Z</time></trkpt><trkpt lat="36.5915903" lon="9.5514836"><ele>72.0</ele><time>2026-05-03T16:12:29.948Z</time></trkpt><trkpt lat="36.5914917" lon="9.5518345"><ele>76.0</ele><time>2026-05-03T16:12:30.942Z</time></trkpt><trkpt lat="36.5913909" lon="9.5521878"><ele>80.0</ele><time>2026-05-03T16:12:31.941Z</time></trkpt><trkpt lat="36.5912971" lon="9.5525532"><ele>83.0</ele><time>2026-05-03T16:12:32.941Z</time></trkpt><trkpt lat="36.591203" lon="9.5529348"><ele>86.0</ele><time>2026-05-03T16:12:33.911Z</time></trkpt><trkpt lat="36.591116" lon="9.5533226"><ele>87.0</ele><time>2026-05-03T16:12:34.937Z</time></trkpt><trkpt lat="36.5910311" lon="9.5537126"><ele>88.0</ele><time>2026-05-03T16:12:35.939Z</time></trkpt><trkpt lat="36.5909466" lon="9.5540993"><ele>88.0</ele><time>2026-05-03T16:12:36.945Z</time></trkpt><trkpt lat="36.5908642" lon="9.5544849"><ele>88.0</ele><time>2026-05-03T16:12:37.928Z</time></trkpt><trkpt lat="36.5907855" lon="9.5548682"><ele>88.5</ele><time>2026-05-03T16:12:38.93Z</time></trkpt><trkpt lat="36.5907217" lon="9.5552419"><ele>89.0</ele><time>2026-05-03T16:12:39.94Z</time></trkpt><trkpt lat="36.590661" lon="9.5556067"><ele>89.0</ele><time>2026-05-03T16:12:40.945Z</time></trkpt><trkpt lat="36.5906069" lon="9.555968"><ele>89.0</ele><time>2026-05-03T16:12:41.917Z</time></trkpt><trkpt lat="36.5905535" lon="9.5563309"><ele>89.0</ele><time>2026-05-03T16:12:42.939Z</time></trkpt><trkpt lat="36.590497" lon="9.5566934"><ele>89.0</ele><time>2026-05-03T16:12:43.933Z</time></trkpt><trkpt lat="36.5904349" lon="9.5570602"><ele>88.5</ele><time>2026-05-03T16:12:44.939Z</time></trkpt><trkpt lat="36.5903782" lon="9.5574195"><ele>88.0</ele><time>2026-05-03T16:12:45.945Z</time></trkpt><trkpt lat="36.590325" lon="9.5577575"><ele>89.0</ele><time>2026-05-03T16:12:46.954Z</time></trkpt><trkpt lat="36.5902768" lon="9.5580724"><ele>90.0</ele><time>2026-05-03T16:12:47.96Z</time></trkpt><trkpt lat="36.5902344" lon="9.5583715"><ele>90.0</ele><time>2026-05-03T16:12:48.941Z</time></trkpt><trkpt lat="36.5901892" lon="9.5586427"><ele>90.0</ele><time>2026-05-03T16:12:49.948Z</time></trkpt><trkpt lat="36.5901548" lon="9.5589015"><ele>90.0</ele><time>2026-05-03T16:12:50.947Z</time></trkpt><trkpt lat="36.5901127" lon="9.5591641"><ele>91.66666666666667</ele><time>2026-05-03T16:12:51.939Z</time></trkpt><trkpt lat="36.5900779" lon="9.5594279"><ele>93.33333333333334</ele><time>2026-05-03T16:12:52.933Z</time></trkpt><trkpt lat="36.5900447" lon="9.5596997"><ele>95.0</ele><time>2026-05-03T16:12:53.957Z</time></trkpt><trkpt lat="36.5900141" lon="9.5599771"><ele>96.0</ele><time>2026-05-03T16:12:54.946Z</time></trkpt><trkpt lat="36.5899785" lon="9.5602667"><ele>97.0</ele><time>2026-05-03T16:12:55.938Z</time></trkpt><trkpt lat="36.5899339" lon="9.5605644"><ele>98.0</ele><time>2026-05-03T16:12:56.945Z</time></trkpt><trkpt lat="36.5898857" lon="9.5608695"><ele>99.0</ele><time>2026-05-03T16:12:57.943Z</time></trkpt><trkpt lat="36.5898353" lon="9.5611801"><ele>100.5</ele><time>2026-05-03T16:12:58.973Z</time></trkpt><trkpt lat="36.5897875" lon="9.5614981"><ele>102.0</ele><time>2026-05-03T16:12:59.944Z</time></trkpt><trkpt lat="36.5897347" lon="9.5618143"><ele>104.0</ele><time>2026-05-03T16:13:00.948Z</time></trkpt><trkpt lat="36.5896839" lon="9.5621346"><ele>106.0</ele><time>2026-05-03T16:13:01.952Z</time></trkpt><trkpt lat="36.5896339" lon="9.5624537"><ele>106.0</ele><time>2026-05-03T16:13:02.937Z</time></trkpt><trkpt lat="36.5895806" lon="9.5627751"><ele>106.0</ele><time>2026-05-03T16:13:03.937Z</time></trkpt><trkpt lat="36.5895238" lon="9.5630952"><ele>104.0</ele><time>2026-05-03T16:13:04.94Z</time></trkpt><trkpt lat="36.5894588" lon="9.5634133"><ele>102.0</ele><time>2026-05-03T16:13:05.938Z</time></trkpt><trkpt lat="36.589394" lon="9.5637287"><ele>101.0</ele><time>2026-05-03T16:13:06.929Z</time></trkpt><trkpt lat="36.5893267" lon="9.56404"><ele>100.0</ele><time>2026-05-03T16:13:07.929Z</time></trkpt><trkpt lat="36.5892567" lon="9.5643503"><ele>99.5</ele><time>2026-05-03T16:13:08.922Z</time></trkpt><trkpt lat="36.5891839" lon="9.5646649"><ele>99.0</ele><time>2026-05-03T16:13:09.935Z</time></trkpt><trkpt lat="36.5891089" lon="9.5649746"><ele>99.0</ele><time>2026-05-03T16:13:10.951Z</time></trkpt><trkpt lat="36.5890247" lon="9.5652829"><ele>99.0</ele><time>2026-05-03T16:13:11.943Z</time></trkpt><trkpt lat="36.5889392" lon="9.5655939"><ele>102.0</ele><time>2026-05-03T16:13:12.956Z</time></trkpt><trkpt lat="36.588851" lon="9.5658973"><ele>105.0</ele><time>2026-05-03T16:13:13.911Z</time></trkpt><trkpt lat="36.5887559" lon="9.566199"><ele>104.0</ele><time>2026-05-03T16:13:14.916Z</time></trkpt><trkpt lat="36.5886554" lon="9.5665023"><ele>103.0</ele><time>2026-05-03T16:13:15.928Z</time></trkpt><trkpt lat="36.5885584" lon="9.5668016"><ele>105.5</ele><time>2026-05-03T16:13:16.916Z</time></trkpt><trkpt lat="36.5884611" lon="9.5671029"><ele>108.0</ele><time>2026-05-03T16:13:17.918Z</time></trkpt><trkpt lat="36.5883559" lon="9.567403"><ele>108.0</ele><time>2026-05-03T16:13:18.916Z</time></trkpt><trkpt lat="36.5882534" lon="9.567704"><ele>108.0</ele><time>2026-05-03T16:13:19.917Z</time></trkpt><trkpt lat="36.5881434" lon="9.5680068"><ele>113.5</ele><time>2026-05-03T16:13:20.909Z</time></trkpt><trkpt lat="36.5880396" lon="9.5683055"><ele>119.0</ele><time>2026-05-03T16:13:21.911Z</time></trkpt><trkpt lat="36.5879352" lon="9.5686076"><ele>120.5</ele><time>2026-05-03T16:13:22.951Z</time></trkpt><trkpt lat="36.5878286" lon="9.5689077"><ele>122.0</ele><time>2026-05-03T16:13:23.95Z</time></trkpt><trkpt lat="36.587728" lon="9.5692046"><ele>122.0</ele><time>2026-05-03T16:13:24.918Z</time></trkpt><trkpt lat="36.5876216" lon="9.5695051"><ele>122.0</ele><time>2026-05-03T16:13:25.921Z</time></trkpt><trkpt lat="36.5875143" lon="9.5698019"><ele>122.0</ele><time>2026-05-03T16:13:26.924Z</time></trkpt><trkpt lat="36.587409" lon="9.5700979"><ele>122.0</ele><time>2026-05-03T16:13:27.933Z</time></trkpt><trkpt lat="36.5873046" lon="9.5703961"><ele>122.0</ele><time>2026-05-03T16:13:28.93Z</time></trkpt><trkpt lat="36.5872001" lon="9.5706958"><ele>122.0</ele><time>2026-05-03T16:13:29.935Z</time></trkpt><trkpt lat="36.5870951" lon="9.5709911"><ele>127.0</ele><time>2026-05-03T16:13:30.923Z</time></trkpt><trkpt lat="36.5869894" lon="9.5712884"><ele>132.0</ele><time>2026-05-03T16:13:31.924Z</time></trkpt><trkpt lat="36.5868882" lon="9.5715881"><ele>132.0</ele><time>2026-05-03T16:13:32.947Z</time></trkpt><trkpt lat="36.5867899" lon="9.5718882"><ele>132.0</ele><time>2026-05-03T16:13:33.922Z</time></trkpt><trkpt lat="36.5866969" lon="9.5721917"><ele>137.0</ele><time>2026-05-03T16:13:34.927Z</time></trkpt><trkpt lat="36.5866055" lon="9.5724933"><ele>142.0</ele><time>2026-05-03T16:13:35.91Z</time></trkpt><trkpt lat="36.5865142" lon="9.572795"><ele>146.0</ele><time>2026-05-03T16:13:36.931Z</time></trkpt><trkpt lat="36.5864255" lon="9.573102"><ele>150.0</ele><time>2026-05-03T16:13:37.924Z</time></trkpt><trkpt lat="36.586343" lon="9.5734111"><ele>150.5</ele><time>2026-05-03T16:13:38.936Z</time></trkpt><trkpt lat="36.586264" lon="9.5737239"><ele>151.0</ele><time>2026-05-03T16:13:39.922Z</time></trkpt><trkpt lat="36.5861913" lon="9.5740405"><ele>148.0</ele><time>2026-05-03T16:13:40.928Z</time></trkpt><trkpt lat="36.5861217" lon="9.5743548"><ele>145.0</ele><time>2026-05-03T16:13:41.926Z</time></trkpt><trkpt lat="36.5860577" lon="9.5746715"><ele>144.0</ele><time>2026-05-03T16:13:42.937Z</time></trkpt><trkpt lat="36.5859961" lon="9.5749841"><ele>143.0</ele><time>2026-05-03T16:13:43.925Z</time></trkpt><trkpt lat="36.5859406" lon="9.575303"><ele>145.5</ele><time>2026-05-03T16:13:44.923Z</time></trkpt><trkpt lat="36.5858923" lon="9.5756231"><ele>148.0</ele><time>2026-05-03T16:13:45.919Z</time></trkpt><trkpt lat="36.5858386" lon="9.5759416"><ele>148.5</ele><time>2026-05-03T16:13:46.929Z</time></trkpt><trkpt lat="36.5857935" lon="9.5762648"><ele>149.0</ele><time>2026-05-03T16:13:47.913Z</time></trkpt><trkpt lat="36.5857532" lon="9.5765885"><ele>149.0</ele><time>2026-05-03T16:13:48.937Z</time></trkpt><trkpt lat="36.5857198" lon="9.5769079"><ele>149.0</ele><time>2026-05-03T16:13:49.951Z</time></trkpt><trkpt lat="36.5856957" lon="9.5772304"><ele>147.5</ele><time>2026-05-03T16:13:50.942Z</time></trkpt><trkpt lat="36.5856697" lon="9.5775498"><ele>146.0</ele><time>2026-05-03T16:13:51.944Z</time></trkpt><trkpt lat="36.5856473" lon="9.577875"><ele>144.5</ele><time>2026-05-03T16:13:52.95Z</time></trkpt><trkpt lat="36.585624" lon="9.5782016"><ele>143.0</ele><time>2026-05-03T16:13:53.952Z</time></trkpt><trkpt lat="36.5856089" lon="9.578527"><ele>147.0</ele><time>2026-05-03T16:13:54.936Z</time></trkpt><trkpt lat="36.5855946" lon="9.5788512"><ele>151.0</ele><time>2026-05-03T16:13:55.932Z</time></trkpt><trkpt lat="36.5855878" lon="9.5791764"><ele>151.0</ele><time>2026-05-03T16:13:56.932Z</time></trkpt><trkpt lat="36.585585" lon="9.5795007"><ele>151.0</ele><time>2026-05-03T16:13:57.95Z</time></trkpt><trkpt lat="36.5855941" lon="9.5798236"><ele>151.5</ele><time>2026-05-03T16:13:58.942Z</time></trkpt><trkpt lat="36.5856034" lon="9.5801468"><ele>152.0</ele><time>2026-05-03T16:13:59.923Z</time></trkpt><trkpt lat="36.585617" lon="9.5804726"><ele>152.0</ele><time>2026-05-03T16:14:00.939Z</time></trkpt><trkpt lat="36.5856289" lon="9.5807976"><ele>152.0</ele><time>2026-05-03T16:14:01.952Z</time></trkpt><trkpt lat="36.5856489" lon="9.5811269"><ele>152.0</ele><time>2026-05-03T16:14:02.912Z</time></trkpt><trkpt lat="36.5856677" lon="9.5814579"><ele>152.0</ele><time>2026-05-03T16:14:03.905Z</time></trkpt><trkpt lat="36.5856972" lon="9.5817833"><ele>152.0</ele><time>2026-05-03T16:14:04.947Z</time></trkpt><trkpt lat="36.5857309" lon="9.5821039"><ele>152.0</ele><time>2026-05-03T16:14:05.939Z</time></trkpt><trkpt lat="36.5857669" lon="9.5824276"><ele>152.0</ele><time>2026-05-03T16:14:06.943Z</time></trkpt><trkpt lat="36.5858118" lon="9.5827457"><ele>152.0</ele><time>2026-05-03T16:14:07.912Z</time></trkpt><trkpt lat="36.5858557" lon="9.5830772"><ele>152.0</ele><time>2026-05-03T16:14:08.946Z</time></trkpt><trkpt lat="36.5859027" lon="9.5833977"><ele>152.0</ele><time>2026-05-03T16:14:09.945Z</time></trkpt><trkpt lat="36.5859529" lon="9.583717"><ele>152.0</ele><time>2026-05-03T16:14:10.923Z</time></trkpt><trkpt lat="36.5860096" lon="9.584032"><ele>152.0</ele><time>2026-05-03T16:14:11.938Z</time></trkpt><trkpt lat="36.5860713" lon="9.5843448"><ele>152.0</ele><time>2026-05-03T16:14:12.922Z</time></trkpt><trkpt lat="36.5861355" lon="9.5846592"><ele>152.0</ele><time>2026-05-03T16:14:13.924Z</time></trkpt><trkpt lat="36.5862016" lon="9.584978"><ele>155.5</ele><time>2026-05-03T16:14:14.913Z</time></trkpt><trkpt lat="36.5862684" lon="9.5852982"><ele>159.0</ele><time>2026-05-03T16:14:15.934Z</time></trkpt><trkpt lat="36.5863307" lon="9.5856145"><ele>159.0</ele><time>2026-05-03T16:14:16.926Z</time></trkpt><trkpt lat="36.5863944" lon="9.5859347"><ele>159.0</ele><time>2026-05-03T16:14:17.931Z</time></trkpt><trkpt lat="36.5864564" lon="9.5862566"><ele>159.0</ele><time>2026-05-03T16:14:18.923Z</time></trkpt><trkpt lat="36.586514" lon="9.5865723"><ele>159.0</ele><time>2026-05-03T16:14:19.937Z</time></trkpt><trkpt lat="36.5865785" lon="9.5868874"><ele>159.5</ele><time>2026-05-03T16:14:20.938Z</time></trkpt><trkpt lat="36.5866398" lon="9.5872034"><ele>160.0</ele><time>2026-05-03T16:14:21.941Z</time></trkpt><trkpt lat="36.5867063" lon="9.587523"><ele>160.0</ele><time>2026-05-03T16:14:22.939Z</time></trkpt><trkpt lat="36.5867701" lon="9.5878352"><ele>160.0</ele><time>2026-05-03T16:14:23.952Z</time></trkpt><trkpt lat="36.5868294" lon="9.5881555"><ele>162.0</ele><time>2026-05-03T16:14:24.931Z</time></trkpt><trkpt lat="36.5868927" lon="9.5884765"><ele>164.0</ele><time>2026-05-03T16:14:25.929Z</time></trkpt><trkpt lat="36.5869543" lon="9.5887899"><ele>163.0</ele><time>2026-05-03T16:14:26.957Z</time></trkpt><trkpt lat="36.5870166" lon="9.589107"><ele>162.0</ele><time>2026-05-03T16:14:27.928Z</time></trkpt><trkpt lat="36.5870789" lon="9.5894212"><ele>162.0</ele><time>2026-05-03T16:14:28.906Z</time></trkpt><trkpt lat="36.5871448" lon="9.5897341"><ele>162.0</ele><time>2026-05-03T16:14:29.925Z</time></trkpt><trkpt lat="36.5872103" lon="9.5900466"><ele>163.5</ele><time>2026-05-03T16:14:30.924Z</time></trkpt><trkpt lat="36.5872728" lon="9.5903624"><ele>165.0</ele><time>2026-05-03T16:14:31.928Z</time></trkpt><trkpt lat="36.5873284" lon="9.5906794"><ele>165.0</ele><time>2026-05-03T16:14:32.93Z</time></trkpt><trkpt lat="36.5873876" lon="9.590998"><ele>165.0</ele><time>2026-05-03T16:14:33.916Z</time></trkpt><trkpt lat="36.5874496" lon="9.5913117"><ele>164.0</ele><time>2026-05-03T16:14:34.916Z</time></trkpt><trkpt lat="36.5875094" lon="9.5916317"><ele>163.0</ele><time>2026-05-03T16:14:35.934Z</time></trkpt><trkpt lat="36.5875712" lon="9.5919544"><ele>161.0</ele><time>2026-05-03T16:14:36.933Z</time></trkpt><trkpt lat="36.5876326" lon="9.5922715"><ele>159.0</ele><time>2026-05-03T16:14:37.923Z</time></trkpt><trkpt lat="36.5876925" lon="9.5925902"><ele>156.0</ele><time>2026-05-03T16:14:38.919Z</time></trkpt><trkpt lat="36.5877535" lon="9.5929024"><ele>153.0</ele><time>2026-05-03T16:14:39.939Z</time></trkpt><trkpt lat="36.5878098" lon="9.5932189"><ele>147.0</ele><time>2026-05-03T16:14:40.931Z</time></trkpt><trkpt lat="36.587869" lon="9.5935398"><ele>141.0</ele><time>2026-05-03T16:14:41.952Z</time></trkpt><trkpt lat="36.5879307" lon="9.5938581"><ele>141.0</ele><time>2026-05-03T16:14:42.945Z</time></trkpt><trkpt lat="36.5879944" lon="9.5941725"><ele>141.0</ele><time>2026-05-03T16:14:43.938Z</time></trkpt><trkpt lat="36.5880566" lon="9.59449"><ele>142.5</ele><time>2026-05-03T16:14:44.941Z</time></trkpt><trkpt lat="36.5881189" lon="9.5948096"><ele>144.0</ele><time>2026-05-03T16:14:45.945Z</time></trkpt><trkpt lat="36.5881813" lon="9.5951321"><ele>146.0</ele><time>2026-05-03T16:14:46.943Z</time></trkpt><trkpt lat="36.588241" lon="9.595444"><ele>148.0</ele><time>2026-05-03T16:14:47.935Z</time></trkpt><trkpt lat="36.5883027" lon="9.5957597"><ele>148.0</ele><time>2026-05-03T16:14:48.924Z</time></trkpt><trkpt lat="36.5883604" lon="9.5960731"><ele>148.0</ele><time>2026-05-03T16:14:49.942Z</time></trkpt><trkpt lat="36.5884184" lon="9.5963942"><ele>149.5</ele><time>2026-05-03T16:14:50.95Z</time></trkpt><trkpt lat="36.5884781" lon="9.5967119"><ele>151.0</ele><time>2026-05-03T16:14:51.91Z</time></trkpt><trkpt lat="36.5885406" lon="9.5970269"><ele>153.0</ele><time>2026-05-03T16:14:52.918Z</time></trkpt><trkpt lat="36.5886057" lon="9.597345"><ele>155.0</ele><time>2026-05-03T16:14:53.905Z</time></trkpt><trkpt lat="36.5886677" lon="9.5976615"><ele>156.5</ele><time>2026-05-03T16:14:54.934Z</time></trkpt><trkpt lat="36.5887242" lon="9.5979758"><ele>158.0</ele><time>2026-05-03T16:14:55.945Z</time></trkpt><trkpt lat="36.5887889" lon="9.5982932"><ele>158.0</ele><time>2026-05-03T16:14:56.913Z</time></trkpt><trkpt lat="36.5888529" lon="9.5986077"><ele>158.0</ele><time>2026-05-03T16:14:57.924Z</time></trkpt><trkpt lat="36.5889103" lon="9.5989271"><ele>161.0</ele><time>2026-05-03T16:14:58.939Z</time></trkpt><trkpt lat="36.5889708" lon="9.5992479"><ele>164.0</ele><time>2026-05-03T16:14:59.935Z</time></trkpt><trkpt lat="36.5890298" lon="9.5995648"><ele>166.0</ele><time>2026-05-03T16:15:00.946Z</time></trkpt><trkpt lat="36.58909" lon="9.5998741"><ele>168.0</ele><time>2026-05-03T16:15:01.94Z</time></trkpt><trkpt lat="36.5891483" lon="9.6001767"><ele>168.0</ele><time>2026-05-03T16:15:02.946Z</time></trkpt><trkpt lat="36.5892137" lon="9.6004787"><ele>168.0</ele><time>2026-05-03T16:15:03.914Z</time></trkpt><trkpt lat="36.5892801" lon="9.600787"><ele>168.0</ele><time>2026-05-03T16:15:04.916Z</time></trkpt><trkpt lat="36.5893492" lon="9.6010935"><ele>168.0</ele><time>2026-05-03T16:15:05.921Z</time></trkpt><trkpt lat="36.5894146" lon="9.6013998"><ele>169.5</ele><time>2026-05-03T16:15:06.938Z</time></trkpt><trkpt lat="36.5894844" lon="9.601708"><ele>171.0</ele><time>2026-05-03T16:15:07.956Z</time></trkpt><trkpt lat="36.5895554" lon="9.6020211"><ele>175.0</ele><time>2026-05-03T16:15:08.952Z</time></trkpt><trkpt lat="36.5896313" lon="9.6023276"><ele>179.0</ele><time>2026-05-03T16:15:09.945Z</time></trkpt><trkpt lat="36.5897136" lon="9.6026276"><ele>179.5</ele><time>2026-05-03T16:15:10.941Z</time></trkpt><trkpt lat="36.5897997" lon="9.6029323"><ele>180.0</ele><time>2026-05-03T16:15:11.959Z</time></trkpt><trkpt lat="36.5898882" lon="9.6032325"><ele>180.0</ele><time>2026-05-03T16:15:12.946Z</time></trkpt><trkpt lat="36.5899817" lon="9.6035329"><ele>180.0</ele><time>2026-05-03T16:15:13.933Z</time></trkpt><trkpt lat="36.590078" lon="9.6038291"><ele>182.0</ele><time>2026-05-03T16:15:14.916Z</time></trkpt><trkpt lat="36.5901729" lon="9.6041251"><ele>184.0</ele><time>2026-05-03T16:15:15.964Z</time></trkpt><trkpt lat="36.5902728" lon="9.6044185"><ele>181.5</ele><time>2026-05-03T16:15:16.915Z</time></trkpt><trkpt lat="36.5903743" lon="9.6047151"><ele>179.0</ele><time>2026-05-03T16:15:17.941Z</time></trkpt><trkpt lat="36.5904789" lon="9.6050104"><ele>179.0</ele><time>2026-05-03T16:15:18.943Z</time></trkpt><trkpt lat="36.5905835" lon="9.605302"><ele>179.0</ele><time>2026-05-03T16:15:19.926Z</time></trkpt><trkpt lat="36.5906847" lon="9.6055983"><ele>179.0</ele><time>2026-05-03T16:15:20.944Z</time></trkpt><trkpt lat="36.5907787" lon="9.6058725"><ele>179.0</ele><time>2026-05-03T16:15:21.937Z</time></trkpt><trkpt lat="36.5908719" lon="9.6061254"><ele>178.0</ele><time>2026-05-03T16:15:22.929Z</time></trkpt><trkpt lat="36.5909608" lon="9.6063694"><ele>177.0</ele><time>2026-05-03T16:15:23.938Z</time></trkpt><trkpt lat="36.5910509" lon="9.6066087"><ele>176.0</ele><time>2026-05-03T16:15:24.934Z</time></trkpt><trkpt lat="36.5911422" lon="9.6068575"><ele>173.5</ele><time>2026-05-03T16:15:25.916Z</time></trkpt><trkpt lat="36.5912384" lon="9.6071135"><ele>171.0</ele><time>2026-05-03T16:15:26.906Z</time></trkpt><trkpt lat="36.5913416" lon="9.6073718"><ele>171.0</ele><time>2026-05-03T16:15:27.942Z</time></trkpt><trkpt lat="36.5914406" lon="9.6076355"><ele>171.0</ele><time>2026-05-03T16:15:28.938Z</time></trkpt><trkpt lat="36.591541" lon="9.6079029"><ele>175.5</ele><time>2026-05-03T16:15:29.933Z</time></trkpt><trkpt lat="36.5916435" lon="9.6081681"><ele>180.0</ele><time>2026-05-03T16:15:30.939Z</time></trkpt><trkpt lat="36.5917386" lon="9.6084447"><ele>181.5</ele><time>2026-05-03T16:15:31.964Z</time></trkpt><trkpt lat="36.5918387" lon="9.6087226"><ele>183.0</ele><time>2026-05-03T16:15:32.95Z</time></trkpt><trkpt lat="36.5919389" lon="9.608991"><ele>181.0</ele><time>2026-05-03T16:15:33.935Z</time></trkpt><trkpt lat="36.5920424" lon="9.609258"><ele>179.0</ele><time>2026-05-03T16:15:34.94Z</time></trkpt><trkpt lat="36.592152" lon="9.6095225"><ele>179.0</ele><time>2026-05-03T16:15:35.926Z</time></trkpt><trkpt lat="36.5922584" lon="9.6097943"><ele>179.0</ele><time>2026-05-03T16:15:36.927Z</time></trkpt><trkpt lat="36.5923629" lon="9.6100617"><ele>183.5</ele><time>2026-05-03T16:15:37.907Z</time></trkpt><trkpt lat="36.5924654" lon="9.6103338"><ele>188.0</ele><time>2026-05-03T16:15:38.952Z</time></trkpt><trkpt lat="36.5925695" lon="9.6106029"><ele>188.0</ele><time>2026-05-03T16:15:39.942Z</time></trkpt><trkpt lat="36.5926705" lon="9.6108673"><ele>188.0</ele><time>2026-05-03T16:15:40.94Z</time></trkpt><trkpt lat="36.5927712" lon="9.6111376"><ele>183.5</ele><time>2026-05-03T16:15:41.938Z</time></trkpt><trkpt lat="36.592877" lon="9.611413"><ele>179.0</ele><time>2026-05-03T16:15:42.917Z</time></trkpt><trkpt lat="36.5929823" lon="9.6116898"><ele>179.0</ele><time>2026-05-03T16:15:43.941Z</time></trkpt><trkpt lat="36.593089" lon="9.6119734"><ele>179.0</ele><time>2026-05-03T16:15:44.943Z</time></trkpt><trkpt lat="36.5931957" lon="9.6122624"><ele>178.0</ele><time>2026-05-03T16:15:45.94Z</time></trkpt><trkpt lat="36.5933017" lon="9.6125585"><ele>177.0</ele><time>2026-05-03T16:15:46.945Z</time></trkpt><trkpt lat="36.5934107" lon="9.6128461"><ele>179.0</ele><time>2026-05-03T16:15:47.942Z</time></trkpt><trkpt lat="36.5935187" lon="9.6131412"><ele>181.0</ele><time>2026-05-03T16:15:48.927Z</time></trkpt><trkpt lat="36.5936239" lon="9.6134373"><ele>184.0</ele><time>2026-05-03T16:15:49.939Z</time></trkpt><trkpt lat="36.5937289" lon="9.6137291"><ele>187.0</ele><time>2026-05-03T16:15:50.949Z</time></trkpt><trkpt lat="36.5938403" lon="9.6140147"><ele>187.0</ele><time>2026-05-03T16:15:51.921Z</time></trkpt><trkpt lat="36.5939435" lon="9.6143016"><ele>187.0</ele><time>2026-05-03T16:15:52.937Z</time></trkpt><trkpt lat="36.5940513" lon="9.6145901"><ele>192.0</ele><time>2026-05-03T16:15:53.924Z</time></trkpt><trkpt lat="36.5941585" lon="9.6148752"><ele>197.0</ele><time>2026-05-03T16:15:54.92Z</time></trkpt><trkpt lat="36.5942653" lon="9.6151628"><ele>195.0</ele><time>2026-05-03T16:15:55.927Z</time></trkpt><trkpt lat="36.5943737" lon="9.6154473"><ele>193.0</ele><time>2026-05-03T16:15:56.92Z</time></trkpt><trkpt lat="36.5944775" lon="9.6157356"><ele>188.5</ele><time>2026-05-03T16:15:57.911Z</time></trkpt><trkpt lat="36.5945856" lon="9.6160241"><ele>184.0</ele><time>2026-05-03T16:15:58.912Z</time></trkpt><trkpt lat="36.5946972" lon="9.6163078"><ele>181.0</ele><time>2026-05-03T16:15:59.918Z</time></trkpt><trkpt lat="36.594809" lon="9.6165942"><ele>178.0</ele><time>2026-05-03T16:16:00.908Z</time></trkpt><trkpt lat="36.5949207" lon="9.616884"><ele>177.5</ele><time>2026-05-03T16:16:01.914Z</time></trkpt><trkpt lat="36.5950386" lon="9.6171678"><ele>177.0</ele><time>2026-05-03T16:16:02.911Z</time></trkpt><trkpt lat="36.5951579" lon="9.6174477"><ele>177.0</ele><time>2026-05-03T16:16:03.931Z</time></trkpt><trkpt lat="36.5952753" lon="9.6177296"><ele>177.0</ele><time>2026-05-03T16:16:04.942Z</time></trkpt><trkpt lat="36.5953937" lon="9.6180056"><ele>179.0</ele><time>2026-05-03T16:16:05.916Z</time></trkpt><trkpt lat="36.5955165" lon="9.6182839"><ele>181.0</ele><time>2026-05-03T16:16:06.921Z</time></trkpt><trkpt lat="36.5956399" lon="9.6185612"><ele>186.0</ele><time>2026-05-03T16:16:07.917Z</time></trkpt><trkpt lat="36.5957731" lon="9.6188348"><ele>191.0</ele><time>2026-05-03T16:16:08.901Z</time></trkpt><trkpt lat="36.5959057" lon="9.61911"><ele>191.0</ele><time>2026-05-03T16:16:09.922Z</time></trkpt><trkpt lat="36.5960356" lon="9.6193784"><ele>191.0</ele><time>2026-05-03T16:16:10.92Z</time></trkpt><trkpt lat="36.596174" lon="9.6196507"><ele>190.5</ele><time>2026-05-03T16:16:11.98Z</time></trkpt><trkpt lat="36.5963152" lon="9.6199064"><ele>190.0</ele><time>2026-05-03T16:16:12.908Z</time></trkpt><trkpt lat="36.596463" lon="9.620165"><ele>189.0</ele><time>2026-05-03T16:16:13.918Z</time></trkpt><trkpt lat="36.5966132" lon="9.6204196"><ele>188.0</ele><time>2026-05-03T16:16:14.907Z</time></trkpt><trkpt lat="36.5967652" lon="9.6206748"><ele>188.0</ele><time>2026-05-03T16:16:15.914Z</time></trkpt><trkpt lat="36.5969167" lon="9.6209252"><ele>188.0</ele><time>2026-05-03T16:16:16.931Z</time></trkpt><trkpt lat="36.597072" lon="9.6211755"><ele>187.5</ele><time>2026-05-03T16:16:17.919Z</time></trkpt><trkpt lat="36.5972296" lon="9.6214275"><ele>187.0</ele><time>2026-05-03T16:16:18.927Z</time></trkpt><trkpt lat="36.5973859" lon="9.6216755"><ele>187.0</ele><time>2026-05-03T16:16:19.937Z</time></trkpt><trkpt lat="36.597543" lon="9.6219265"><ele>187.0</ele><time>2026-05-03T16:16:20.938Z</time></trkpt><trkpt lat="36.5977076" lon="9.6221765"><ele>185.5</ele><time>2026-05-03T16:16:21.963Z</time></trkpt><trkpt lat="36.597874" lon="9.6224265"><ele>184.0</ele><time>2026-05-03T16:16:22.93Z</time></trkpt><trkpt lat="36.5980435" lon="9.6226755"><ele>188.0</ele><time>2026-05-03T16:16:23.934Z</time></trkpt><trkpt lat="36.5982073" lon="9.6229126"><ele>192.0</ele><time>2026-05-03T16:16:24.938Z</time></trkpt><trkpt lat="36.5983692" lon="9.6231585"><ele>192.0</ele><time>2026-05-03T16:16:25.956Z</time></trkpt><trkpt lat="36.5985312" lon="9.6234018"><ele>192.0</ele><time>2026-05-03T16:16:26.938Z</time></trkpt><trkpt lat="36.5986926" lon="9.6236393"><ele>190.0</ele><time>2026-05-03T16:16:27.939Z</time></trkpt><trkpt lat="36.5988622" lon="9.6238832"><ele>188.0</ele><time>2026-05-03T16:16:28.929Z</time></trkpt><trkpt lat="36.5990316" lon="9.6241227"><ele>188.0</ele><time>2026-05-03T16:16:29.933Z</time></trkpt><trkpt lat="36.5992002" lon="9.6243625"><ele>188.0</ele><time>2026-05-03T16:16:30.934Z</time></trkpt><trkpt lat="36.5993686" lon="9.6246026"><ele>187.5</ele><time>2026-05-03T16:16:31.908Z</time></trkpt><trkpt lat="36.5995361" lon="9.6248403"><ele>187.0</ele><time>2026-05-03T16:16:32.933Z</time></trkpt><trkpt lat="36.5997042" lon="9.6250762"><ele>183.0</ele><time>2026-05-03T16:16:33.947Z</time></trkpt><trkpt lat="36.5998759" lon="9.625316"><ele>179.0</ele><time>2026-05-03T16:16:34.938Z</time></trkpt><trkpt lat="36.6000459" lon="9.6255577"><ele>179.0</ele><time>2026-05-03T16:16:35.933Z</time></trkpt><trkpt lat="36.6002155" lon="9.6257961"><ele>179.0</ele><time>2026-05-03T16:16:36.946Z</time></trkpt><trkpt lat="36.6003836" lon="9.6260346"><ele>175.0</ele><time>2026-05-03T16:16:37.912Z</time></trkpt><trkpt lat="36.6005522" lon="9.626272"><ele>171.0</ele><time>2026-05-03T16:16:38.939Z</time></trkpt><trkpt lat="36.6007233" lon="9.6265135"><ele>171.0</ele><time>2026-05-03T16:16:39.951Z</time></trkpt><trkpt lat="36.6008908" lon="9.6267467"><ele>171.0</ele><time>2026-05-03T16:16:40.917Z</time></trkpt><trkpt lat="36.6010607" lon="9.6269812"><ele>170.0</ele><time>2026-05-03T16:16:41.922Z</time></trkpt><trkpt lat="36.6012287" lon="9.6272215"><ele>169.0</ele><time>2026-05-03T16:16:42.945Z</time></trkpt><trkpt lat="36.6013992" lon="9.6274617"><ele>169.0</ele><time>2026-05-03T16:16:43.923Z</time></trkpt><trkpt lat="36.6015661" lon="9.6277002"><ele>169.0</ele><time>2026-05-03T16:16:44.938Z</time></trkpt><trkpt lat="36.6017383" lon="9.6279396"><ele>168.5</ele><time>2026-05-03T16:16:45.932Z</time></trkpt><trkpt lat="36.6019049" lon="9.6281796"><ele>168.0</ele><time>2026-05-03T16:16:46.937Z</time></trkpt><trkpt lat="36.6020703" lon="9.6284233"><ele>165.5</ele><time>2026-05-03T16:16:47.923Z</time></trkpt><trkpt lat="36.6022386" lon="9.6286601"><ele>163.0</ele><time>2026-05-03T16:16:48.924Z</time></trkpt><trkpt lat="36.602406" lon="9.6288995"><ele>163.0</ele><time>2026-05-03T16:16:49.937Z</time></trkpt><trkpt lat="36.6025722" lon="9.6291436"><ele>163.0</ele><time>2026-05-03T16:16:50.941Z</time></trkpt><trkpt lat="36.6027429" lon="9.6293852"><ele>161.0</ele><time>2026-05-03T16:16:51.932Z</time></trkpt><trkpt lat="36.6029108" lon="9.6296229"><ele>159.0</ele><time>2026-05-03T16:16:52.936Z</time></trkpt><trkpt lat="36.6030797" lon="9.6298654"><ele>159.0</ele><time>2026-05-03T16:16:53.914Z</time></trkpt><trkpt lat="36.6032527" lon="9.6301025"><ele>159.0</ele><time>2026-05-03T16:16:54.955Z</time></trkpt><trkpt lat="36.6034208" lon="9.63034"><ele>156.5</ele><time>2026-05-03T16:16:55.924Z</time></trkpt><trkpt lat="36.6035882" lon="9.6305809"><ele>154.0</ele><time>2026-05-03T16:16:56.953Z</time></trkpt><trkpt lat="36.6037602" lon="9.6308203"><ele>154.0</ele><time>2026-05-03T16:16:57.943Z</time></trkpt><trkpt lat="36.6039307" lon="9.6310585"><ele>154.0</ele><time>2026-05-03T16:16:58.936Z</time></trkpt><trkpt lat="36.6041048" lon="9.63129"><ele>153.5</ele><time>2026-05-03T16:16:59.945Z</time></trkpt><trkpt lat="36.6042789" lon="9.6315214"><ele>153.0</ele><time>2026-05-03T16:17:00.904Z</time></trkpt><trkpt lat="36.6044528" lon="9.6317562"><ele>152.0</ele><time>2026-05-03T16:17:01.941Z</time></trkpt><trkpt lat="36.6046271" lon="9.6319909"><ele>151.0</ele><time>2026-05-03T16:17:02.944Z</time></trkpt><trkpt lat="36.6047995" lon="9.632231"><ele>151.0</ele><time>2026-05-03T16:17:03.931Z</time></trkpt><trkpt lat="36.6049681" lon="9.6324706"><ele>151.0</ele><time>2026-05-03T16:17:04.95Z</time></trkpt><trkpt lat="36.6051311" lon="9.6327095"><ele>152.5</ele><time>2026-05-03T16:17:05.944Z</time></trkpt><trkpt lat="36.6053031" lon="9.6329488"><ele>154.0</ele><time>2026-05-03T16:17:06.93Z</time></trkpt><trkpt lat="36.6054747" lon="9.6331885"><ele>154.5</ele><time>2026-05-03T16:17:07.933Z</time></trkpt><trkpt lat="36.6056445" lon="9.6334288"><ele>155.0</ele><time>2026-05-03T16:17:08.91Z</time></trkpt><trkpt lat="36.6058115" lon="9.6336652"><ele>155.0</ele><time>2026-05-03T16:17:09.936Z</time></trkpt><trkpt lat="36.6059821" lon="9.6339069"><ele>155.0</ele><time>2026-05-03T16:17:10.932Z</time></trkpt><trkpt lat="36.6061544" lon="9.6341476"><ele>156.0</ele><time>2026-05-03T16:17:11.913Z</time></trkpt><trkpt lat="36.60632" lon="9.6343845"><ele>157.0</ele><time>2026-05-03T16:17:12.937Z</time></trkpt><trkpt lat="36.6064891" lon="9.6346228"><ele>157.0</ele><time>2026-05-03T16:17:13.94Z</time></trkpt><trkpt lat="36.6066566" lon="9.6348617"><ele>157.0</ele><time>2026-05-03T16:17:14.943Z</time></trkpt><trkpt lat="36.6068268" lon="9.6351013"><ele>157.0</ele><time>2026-05-03T16:17:15.933Z</time></trkpt><trkpt lat="36.6070007" lon="9.6353439"><ele>157.0</ele><time>2026-05-03T16:17:16.947Z</time></trkpt><trkpt lat="36.6071704" lon="9.6355823"><ele>157.0</ele><time>2026-05-03T16:17:17.925Z</time></trkpt><trkpt lat="36.6073392" lon="9.6358218"><ele>157.0</ele><time>2026-05-03T16:17:18.934Z</time></trkpt><trkpt lat="36.6075068" lon="9.6360626"><ele>158.0</ele><time>2026-05-03T16:17:19.939Z</time></trkpt><trkpt lat="36.6076751" lon="9.6363007"><ele>159.0</ele><time>2026-05-03T16:17:20.94Z</time></trkpt><trkpt lat="36.6078425" lon="9.6365475"><ele>154.5</ele><time>2026-05-03T16:17:21.956Z</time></trkpt><trkpt lat="36.6080058" lon="9.6367926"><ele>150.0</ele><time>2026-05-03T16:17:22.919Z</time></trkpt><trkpt lat="36.6081667" lon="9.6370347"><ele>146.5</ele><time>2026-05-03T16:17:23.92Z</time></trkpt><trkpt lat="36.6083307" lon="9.6372781"><ele>143.0</ele><time>2026-05-03T16:17:24.949Z</time></trkpt><trkpt lat="36.6084961" lon="9.6375223"><ele>143.0</ele><time>2026-05-03T16:17:25.943Z</time></trkpt><trkpt lat="36.6086586" lon="9.6377706"><ele>143.0</ele><time>2026-05-03T16:17:26.93Z</time></trkpt><trkpt lat="36.608818" lon="9.6380214"><ele>138.5</ele><time>2026-05-03T16:17:27.935Z</time></trkpt><trkpt lat="36.6089789" lon="9.6382718"><ele>134.0</ele><time>2026-05-03T16:17:28.956Z</time></trkpt><trkpt lat="36.6091343" lon="9.6385232"><ele>135.0</ele><time>2026-05-03T16:17:29.947Z</time></trkpt><trkpt lat="36.6092915" lon="9.6387774"><ele>136.0</ele><time>2026-05-03T16:17:30.921Z</time></trkpt><trkpt lat="36.6094486" lon="9.6390294"><ele>134.0</ele><time>2026-05-03T16:17:31.933Z</time></trkpt><trkpt lat="36.609608" lon="9.6392822"><ele>132.0</ele><time>2026-05-03T16:17:32.942Z</time></trkpt><trkpt lat="36.6097674" lon="9.6395379"><ele>130.5</ele><time>2026-05-03T16:17:33.938Z</time></trkpt><trkpt lat="36.6099206" lon="9.6397869"><ele>129.0</ele><time>2026-05-03T16:17:34.927Z</time></trkpt><trkpt lat="36.6100752" lon="9.640041"><ele>129.0</ele><time>2026-05-03T16:17:35.924Z</time></trkpt><trkpt lat="36.6102286" lon="9.6402886"><ele>129.0</ele><time>2026-05-03T16:17:36.923Z</time></trkpt><trkpt lat="36.6103815" lon="9.64054"><ele>126.0</ele><time>2026-05-03T16:17:37.933Z</time></trkpt><trkpt lat="36.6105342" lon="9.6407875"><ele>123.0</ele><time>2026-05-03T16:17:38.935Z</time></trkpt><trkpt lat="36.6106887" lon="9.6410448"><ele>125.0</ele><time>2026-05-03T16:17:39.945Z</time></trkpt><trkpt lat="36.6108402" lon="9.6413039"><ele>127.0</ele><time>2026-05-03T16:17:40.941Z</time></trkpt><trkpt lat="36.6109858" lon="9.6415583"><ele>127.0</ele><time>2026-05-03T16:17:41.911Z</time></trkpt><trkpt lat="36.6111359" lon="9.641818"><ele>127.0</ele><time>2026-05-03T16:17:42.935Z</time></trkpt><trkpt lat="36.6112798" lon="9.6420774"><ele>125.0</ele><time>2026-05-03T16:17:43.922Z</time></trkpt><trkpt lat="36.6114233" lon="9.6423425"><ele>123.0</ele><time>2026-05-03T16:17:44.937Z</time></trkpt><trkpt lat="36.6115693" lon="9.6426116"><ele>125.5</ele><time>2026-05-03T16:17:45.938Z</time></trkpt><trkpt lat="36.6117176" lon="9.6428769"><ele>128.0</ele><time>2026-05-03T16:17:46.939Z</time></trkpt><trkpt lat="36.6118621" lon="9.643139"><ele>124.0</ele><time>2026-05-03T16:17:47.946Z</time></trkpt><trkpt lat="36.612007" lon="9.6434037"><ele>120.0</ele><time>2026-05-03T16:17:48.95Z</time></trkpt><trkpt lat="36.612154" lon="9.6436605"><ele>120.0</ele><time>2026-05-03T16:17:49.953Z</time></trkpt><trkpt lat="36.6123021" lon="9.6439197"><ele>120.0</ele><time>2026-05-03T16:17:50.939Z</time></trkpt><trkpt lat="36.6124506" lon="9.6441798"><ele>120.0</ele><time>2026-05-03T16:17:51.926Z</time></trkpt><trkpt lat="36.612601" lon="9.6444442"><ele>120.0</ele><time>2026-05-03T16:17:52.933Z</time></trkpt><trkpt lat="36.612752" lon="9.6447083"><ele>117.5</ele><time>2026-05-03T16:17:53.916Z</time></trkpt><trkpt lat="36.6129029" lon="9.6449648"><ele>115.0</ele><time>2026-05-03T16:17:54.924Z</time></trkpt><trkpt lat="36.6130532" lon="9.6452186"><ele>113.5</ele><time>2026-05-03T16:17:55.95Z</time></trkpt><trkpt lat="36.6132037" lon="9.645477"><ele>112.0</ele><time>2026-05-03T16:17:56.942Z</time></trkpt><trkpt lat="36.6133576" lon="9.6457295"><ele>112.0</ele><time>2026-05-03T16:17:57.925Z</time></trkpt><trkpt lat="36.6135108" lon="9.6459854"><ele>112.0</ele><time>2026-05-03T16:17:58.914Z</time></trkpt><trkpt lat="36.613662" lon="9.6462431"><ele>110.5</ele><time>2026-05-03T16:17:59.936Z</time></trkpt><trkpt lat="36.6138107" lon="9.6464977"><ele>109.0</ele><time>2026-05-03T16:18:00.934Z</time></trkpt><trkpt lat="36.6139638" lon="9.6467497"><ele>108.5</ele><time>2026-05-03T16:18:01.936Z</time></trkpt><trkpt lat="36.6141174" lon="9.6470025"><ele>108.0</ele><time>2026-05-03T16:18:02.925Z</time></trkpt><trkpt lat="36.614272" lon="9.6472561"><ele>108.0</ele><time>2026-05-03T16:18:03.928Z</time></trkpt><trkpt lat="36.614421" lon="9.6475146"><ele>108.0</ele><time>2026-05-03T16:18:04.938Z</time></trkpt><trkpt lat="36.6145729" lon="9.6477729"><ele>108.5</ele><time>2026-05-03T16:18:05.941Z</time></trkpt><trkpt lat="36.6147295" lon="9.6480337"><ele>109.0</ele><time>2026-05-03T16:18:06.946Z</time></trkpt><trkpt lat="36.6148812" lon="9.6482933"><ele>109.0</ele><time>2026-05-03T16:18:07.951Z</time></trkpt><trkpt lat="36.615029" lon="9.6485576"><ele>109.0</ele><time>2026-05-03T16:18:08.937Z</time></trkpt><trkpt lat="36.6151731" lon="9.6488217"><ele>111.5</ele><time>2026-05-03T16:18:09.947Z</time></trkpt><trkpt lat="36.6153098" lon="9.649086"><ele>114.0</ele><time>2026-05-03T16:18:10.92Z</time></trkpt><trkpt lat="36.6154491" lon="9.6493522"><ele>114.0</ele><time>2026-05-03T16:18:11.934Z</time></trkpt><trkpt lat="36.6155882" lon="9.6496133"><ele>114.0</ele><time>2026-05-03T16:18:12.915Z</time></trkpt><trkpt lat="36.6157363" lon="9.6498775"><ele>114.0</ele><time>2026-05-03T16:18:13.933Z</time></trkpt><trkpt lat="36.6158849" lon="9.6501335"><ele>114.0</ele><time>2026-05-03T16:18:14.951Z</time></trkpt><trkpt lat="36.6160353" lon="9.6503898"><ele>113.5</ele><time>2026-05-03T16:18:15.934Z</time></trkpt><trkpt lat="36.6161864" lon="9.6506449"><ele>113.0</ele><time>2026-05-03T16:18:16.937Z</time></trkpt><trkpt lat="36.6163361" lon="9.6509031"><ele>113.5</ele><time>2026-05-03T16:18:17.924Z</time></trkpt><trkpt lat="36.6164831" lon="9.6511609"><ele>114.0</ele><time>2026-05-03T16:18:18.936Z</time></trkpt><trkpt lat="36.6166397" lon="9.6514137"><ele>114.0</ele><time>2026-05-03T16:18:19.923Z</time></trkpt><trkpt lat="36.6167855" lon="9.651674"><ele>114.0</ele><time>2026-05-03T16:18:20.951Z</time></trkpt><trkpt lat="36.6169338" lon="9.6519316"><ele>111.0</ele><time>2026-05-03T16:18:21.94Z</time></trkpt><trkpt lat="36.6170831" lon="9.6521935"><ele>108.0</ele><time>2026-05-03T16:18:22.934Z</time></trkpt><trkpt lat="36.6172338" lon="9.6524549"><ele>108.0</ele><time>2026-05-03T16:18:23.935Z</time></trkpt><trkpt lat="36.6173837" lon="9.6527092"><ele>108.0</ele><time>2026-05-03T16:18:24.922Z</time></trkpt><trkpt lat="36.6175336" lon="9.652967"><ele>106.0</ele><time>2026-05-03T16:18:25.915Z</time></trkpt><trkpt lat="36.6176862" lon="9.6532215"><ele>104.0</ele><time>2026-05-03T16:18:26.922Z</time></trkpt><trkpt lat="36.6178381" lon="9.6534705"><ele>103.0</ele><time>2026-05-03T16:18:27.943Z</time></trkpt><trkpt lat="36.6179918" lon="9.6537279"><ele>102.0</ele><time>2026-05-03T16:18:28.938Z</time></trkpt><trkpt lat="36.6181436" lon="9.653983"><ele>102.0</ele><time>2026-05-03T16:18:29.923Z</time></trkpt><trkpt lat="36.6182965" lon="9.6542452"><ele>102.0</ele><time>2026-05-03T16:18:30.937Z</time></trkpt><trkpt lat="36.618442" lon="9.6544996"><ele>103.0</ele><time>2026-05-03T16:18:31.949Z</time></trkpt><trkpt lat="36.6185913" lon="9.6547603"><ele>104.0</ele><time>2026-05-03T16:18:32.926Z</time></trkpt><trkpt lat="36.6187384" lon="9.6550193"><ele>104.5</ele><time>2026-05-03T16:18:33.926Z</time></trkpt><trkpt lat="36.6188833" lon="9.6552775"><ele>105.0</ele><time>2026-05-03T16:18:34.95Z</time></trkpt><trkpt lat="36.6190285" lon="9.6555408"><ele>106.5</ele><time>2026-05-03T16:18:35.946Z</time></trkpt><trkpt lat="36.6191762" lon="9.6558017"><ele>108.0</ele><time>2026-05-03T16:18:36.938Z</time></trkpt><trkpt lat="36.6193233" lon="9.6560643"><ele>109.5</ele><time>2026-05-03T16:18:37.935Z</time></trkpt><trkpt lat="36.6194733" lon="9.6563254"><ele>111.0</ele><time>2026-05-03T16:18:38.94Z</time></trkpt><trkpt lat="36.6196199" lon="9.6565809"><ele>108.5</ele><time>2026-05-03T16:18:39.941Z</time></trkpt><trkpt lat="36.6197704" lon="9.6568374"><ele>106.0</ele><time>2026-05-03T16:18:40.935Z</time></trkpt><trkpt lat="36.6199237" lon="9.6570948"><ele>106.0</ele><time>2026-05-03T16:18:41.943Z</time></trkpt><trkpt lat="36.6200766" lon="9.6573546"><ele>106.0</ele><time>2026-05-03T16:18:42.938Z</time></trkpt><trkpt lat="36.6202272" lon="9.6576096"><ele>104.0</ele><time>2026-05-03T16:18:43.945Z</time></trkpt><trkpt lat="36.6203791" lon="9.6578627"><ele>102.0</ele><time>2026-05-03T16:18:44.936Z</time></trkpt><trkpt lat="36.6205374" lon="9.658118"><ele>102.0</ele><time>2026-05-03T16:18:45.938Z</time></trkpt><trkpt lat="36.6206913" lon="9.6583704"><ele>102.0</ele><time>2026-05-03T16:18:46.95Z</time></trkpt><trkpt lat="36.6208411" lon="9.6586299"><ele>103.0</ele><time>2026-05-03T16:18:47.95Z</time></trkpt><trkpt lat="36.6209942" lon="9.6588887"><ele>104.0</ele><time>2026-05-03T16:18:48.935Z</time></trkpt><trkpt lat="36.6211448" lon="9.6591448"><ele>103.0</ele><time>2026-05-03T16:18:49.941Z</time></trkpt><trkpt lat="36.6212908" lon="9.6594015"><ele>102.0</ele><time>2026-05-03T16:18:50.953Z</time></trkpt><trkpt lat="36.6214423" lon="9.6596585"><ele>102.0</ele><time>2026-05-03T16:18:51.919Z</time></trkpt><trkpt lat="36.6215979" lon="9.6599196"><ele>102.0</ele><time>2026-05-03T16:18:52.932Z</time></trkpt><trkpt lat="36.621756" lon="9.6601671"><ele>103.0</ele><time>2026-05-03T16:18:53.942Z</time></trkpt><trkpt lat="36.6219082" lon="9.6604188"><ele>104.0</ele><time>2026-05-03T16:18:54.933Z</time></trkpt><trkpt lat="36.6220596" lon="9.6606716"><ele>102.0</ele><time>2026-05-03T16:18:55.931Z</time></trkpt><trkpt lat="36.6222147" lon="9.6609212"><ele>100.0</ele><time>2026-05-03T16:18:56.94Z</time></trkpt><trkpt lat="36.6223654" lon="9.661173"><ele>99.0</ele><time>2026-05-03T16:18:57.923Z</time></trkpt><trkpt lat="36.6225118" lon="9.6614061"><ele>98.0</ele><time>2026-05-03T16:18:58.933Z</time></trkpt><trkpt lat="36.6226476" lon="9.6616107"><ele>98.0</ele><time>2026-05-03T16:18:59.938Z</time></trkpt><trkpt lat="36.6227746" lon="9.6618083"><ele>98.0</ele><time>2026-05-03T16:19:00.915Z</time></trkpt><trkpt lat="36.6228908" lon="9.6620046"><ele>98.0</ele><time>2026-05-03T16:19:01.938Z</time></trkpt><trkpt lat="36.6229986" lon="9.6621926"><ele>97.66666666666666</ele><time>2026-05-03T16:19:02.935Z</time></trkpt><trkpt lat="36.6231099" lon="9.6623781"><ele>97.33333333333334</ele><time>2026-05-03T16:19:03.937Z</time></trkpt><trkpt lat="36.6232191" lon="9.6625599"><ele>97.0</ele><time>2026-05-03T16:19:04.941Z</time></trkpt><trkpt lat="36.623322" lon="9.662747"><ele>96.66666666666667</ele><time>2026-05-03T16:19:05.94Z</time></trkpt><trkpt lat="36.6234374" lon="9.6629399"><ele>96.33333333333334</ele><time>2026-05-03T16:19:06.952Z</time></trkpt><trkpt lat="36.6235539" lon="9.6631362"><ele>96.0</ele><time>2026-05-03T16:19:07.936Z</time></trkpt><trkpt lat="36.6236732" lon="9.6633491"><ele>95.33333333333333</ele><time>2026-05-03T16:19:08.919Z</time></trkpt><trkpt lat="36.6237996" lon="9.6635693"><ele>94.66666666666666</ele><time>2026-05-03T16:19:09.946Z</time></trkpt><trkpt lat="36.6239268" lon="9.6637884"><ele>94.0</ele><time>2026-05-03T16:19:10.929Z</time></trkpt><trkpt lat="36.6240546" lon="9.6640111"><ele>94.0</ele><time>2026-05-03T16:19:11.947Z</time></trkpt><trkpt lat="36.6241978" lon="9.6642468"><ele>94.0</ele><time>2026-05-03T16:19:12.906Z</time></trkpt><trkpt lat="36.6243493" lon="9.6645095"><ele>96.5</ele><time>2026-05-03T16:19:13.936Z</time></trkpt><trkpt lat="36.6245024" lon="9.6647639"><ele>99.0</ele><time>2026-05-03T16:19:14.921Z</time></trkpt><trkpt lat="36.6246565" lon="9.6650182"><ele>99.0</ele><time>2026-05-03T16:19:15.952Z</time></trkpt><trkpt lat="36.6248141" lon="9.6652765"><ele>99.0</ele><time>2026-05-03T16:19:16.936Z</time></trkpt><trkpt lat="36.6249694" lon="9.6655357"><ele>101.0</ele><time>2026-05-03T16:19:17.95Z</time></trkpt><trkpt lat="36.6251188" lon="9.6657884"><ele>103.0</ele><time>2026-05-03T16:19:18.95Z</time></trkpt><trkpt lat="36.6252673" lon="9.6660376"><ele>101.5</ele><time>2026-05-03T16:19:19.928Z</time></trkpt><trkpt lat="36.6254127" lon="9.6662884"><ele>100.0</ele><time>2026-05-03T16:19:20.941Z</time></trkpt><trkpt lat="36.6255631" lon="9.666543"><ele>100.0</ele><time>2026-05-03T16:19:21.948Z</time></trkpt><trkpt lat="36.6257155" lon="9.6668043"><ele>100.0</ele><time>2026-05-03T16:19:22.938Z</time></trkpt><trkpt lat="36.6258663" lon="9.6670641"><ele>98.0</ele><time>2026-05-03T16:19:23.942Z</time></trkpt><trkpt lat="36.6260209" lon="9.6673234"><ele>96.0</ele><time>2026-05-03T16:19:24.935Z</time></trkpt><trkpt lat="36.626174" lon="9.6675804"><ele>92.5</ele><time>2026-05-03T16:19:25.926Z</time></trkpt><trkpt lat="36.6263267" lon="9.6678327"><ele>89.0</ele><time>2026-05-03T16:19:26.93Z</time></trkpt><trkpt lat="36.6264801" lon="9.6680908"><ele>89.0</ele><time>2026-05-03T16:19:27.926Z</time></trkpt><trkpt lat="36.6266328" lon="9.6683442"><ele>89.0</ele><time>2026-05-03T16:19:28.928Z</time></trkpt><trkpt lat="36.6267831" lon="9.6685988"><ele>88.0</ele><time>2026-05-03T16:19:29.923Z</time></trkpt><trkpt lat="36.6269358" lon="9.6688556"><ele>87.0</ele><time>2026-05-03T16:19:30.93Z</time></trkpt><trkpt lat="36.6270891" lon="9.6691152"><ele>86.5</ele><time>2026-05-03T16:19:31.934Z</time></trkpt><trkpt lat="36.6272431" lon="9.6693689"><ele>86.0</ele><time>2026-05-03T16:19:32.935Z</time></trkpt><trkpt lat="36.6273994" lon="9.6696269"><ele>85.0</ele><time>2026-05-03T16:19:33.949Z</time></trkpt><trkpt lat="36.6275483" lon="9.6698843"><ele>84.0</ele><time>2026-05-03T16:19:34.942Z</time></trkpt><trkpt lat="36.6277021" lon="9.6701432"><ele>82.5</ele><time>2026-05-03T16:19:35.945Z</time></trkpt><trkpt lat="36.6278525" lon="9.6703951"><ele>81.0</ele><time>2026-05-03T16:19:36.923Z</time></trkpt><trkpt lat="36.6280014" lon="9.6706541"><ele>81.0</ele><time>2026-05-03T16:19:37.962Z</time></trkpt><trkpt lat="36.6281528" lon="9.6709078"><ele>81.0</ele><time>2026-05-03T16:19:38.934Z</time></trkpt><trkpt lat="36.6283016" lon="9.671165"><ele>81.0</ele><time>2026-05-03T16:19:39.931Z</time></trkpt><trkpt lat="36.628451" lon="9.6714252"><ele>81.0</ele><time>2026-05-03T16:19:40.942Z</time></trkpt><trkpt lat="36.6286024" lon="9.6716829"><ele>81.0</ele><time>2026-05-03T16:19:41.953Z</time></trkpt><trkpt lat="36.6287553" lon="9.6719316"><ele>81.0</ele><time>2026-05-03T16:19:42.951Z</time></trkpt><trkpt lat="36.6289088" lon="9.6721924"><ele>81.5</ele><time>2026-05-03T16:19:43.941Z</time></trkpt><trkpt lat="36.6290623" lon="9.6724477"><ele>82.0</ele><time>2026-05-03T16:19:44.926Z</time></trkpt><trkpt lat="36.6292153" lon="9.6727023"><ele>81.5</ele><time>2026-05-03T16:19:45.908Z</time></trkpt><trkpt lat="36.6293671" lon="9.6729608"><ele>81.0</ele><time>2026-05-03T16:19:46.934Z</time></trkpt><trkpt lat="36.6295129" lon="9.6732179"><ele>81.5</ele><time>2026-05-03T16:19:47.939Z</time></trkpt><trkpt lat="36.6296608" lon="9.6734795"><ele>82.0</ele><time>2026-05-03T16:19:48.947Z</time></trkpt><trkpt lat="36.629806" lon="9.6737409"><ele>82.0</ele><time>2026-05-03T16:19:49.919Z</time></trkpt><trkpt lat="36.6299452" lon="9.6740074"><ele>82.0</ele><time>2026-05-03T16:19:50.932Z</time></trkpt><trkpt lat="36.6300769" lon="9.6742725"><ele>83.0</ele><time>2026-05-03T16:19:51.913Z</time></trkpt><trkpt lat="36.6302071" lon="9.6745485"><ele>84.0</ele><time>2026-05-03T16:19:52.943Z</time></trkpt><trkpt lat="36.6303299" lon="9.674827"><ele>86.5</ele><time>2026-05-03T16:19:53.932Z</time></trkpt><trkpt lat="36.6304461" lon="9.6751106"><ele>89.0</ele><time>2026-05-03T16:19:54.931Z</time></trkpt><trkpt lat="36.6305591" lon="9.6753933"><ele>91.0</ele><time>2026-05-03T16:19:55.95Z</time></trkpt><trkpt lat="36.6306605" lon="9.6756813"><ele>93.0</ele><time>2026-05-03T16:19:56.937Z</time></trkpt><trkpt lat="36.6307629" lon="9.6759699"><ele>93.5</ele><time>2026-05-03T16:19:57.924Z</time></trkpt><trkpt lat="36.630857" lon="9.6762662"><ele>94.0</ele><time>2026-05-03T16:19:58.929Z</time></trkpt><trkpt lat="36.6309509" lon="9.6765611"><ele>94.0</ele><time>2026-05-03T16:19:59.935Z</time></trkpt><trkpt lat="36.6310398" lon="9.6768576"><ele>94.0</ele><time>2026-05-03T16:20:00.903Z</time></trkpt><trkpt lat="36.6311233" lon="9.6771558"><ele>95.5</ele><time>2026-05-03T16:20:01.925Z</time></trkpt><trkpt lat="36.631205" lon="9.6774577"><ele>97.0</ele><time>2026-05-03T16:20:02.935Z</time></trkpt><trkpt lat="36.6312741" lon="9.6777573"><ele>98.0</ele><time>2026-05-03T16:20:03.941Z</time></trkpt><trkpt lat="36.6313392" lon="9.6780584"><ele>99.0</ele><time>2026-05-03T16:20:04.944Z</time></trkpt><trkpt lat="36.6313977" lon="9.6783668"><ele>100.0</ele><time>2026-05-03T16:20:05.95Z</time></trkpt><trkpt lat="36.6314551" lon="9.6786726"><ele>101.0</ele><time>2026-05-03T16:20:06.932Z</time></trkpt><trkpt lat="36.6315049" lon="9.6789807"><ele>101.0</ele><time>2026-05-03T16:20:07.939Z</time></trkpt><trkpt lat="36.631547" lon="9.6792921"><ele>101.0</ele><time>2026-05-03T16:20:08.95Z</time></trkpt><trkpt lat="36.6315851" lon="9.6796024"><ele>101.5</ele><time>2026-05-03T16:20:09.95Z</time></trkpt><trkpt lat="36.6316161" lon="9.6799187"><ele>102.0</ele><time>2026-05-03T16:20:10.933Z</time></trkpt><trkpt lat="36.6316435" lon="9.6802358"><ele>102.5</ele><time>2026-05-03T16:20:11.949Z</time></trkpt><trkpt lat="36.631664" lon="9.6805525"><ele>103.0</ele><time>2026-05-03T16:20:12.948Z</time></trkpt><trkpt lat="36.6316823" lon="9.6808642"><ele>104.5</ele><time>2026-05-03T16:20:13.923Z</time></trkpt><trkpt lat="36.6316936" lon="9.6811631"><ele>106.0</ele><time>2026-05-03T16:20:14.951Z</time></trkpt><trkpt lat="36.6317014" lon="9.6814367"><ele>106.0</ele><time>2026-05-03T16:20:15.945Z</time></trkpt><trkpt lat="36.6317026" lon="9.6816978"><ele>106.0</ele><time>2026-05-03T16:20:16.925Z</time></trkpt><trkpt lat="36.6316999" lon="9.6819566"><ele>106.0</ele><time>2026-05-03T16:20:17.943Z</time></trkpt><trkpt lat="36.6316898" lon="9.6822157"><ele>107.33333333333334</ele><time>2026-05-03T16:20:18.943Z</time></trkpt><trkpt lat="36.6316745" lon="9.6824824"><ele>108.66666666666666</ele><time>2026-05-03T16:20:19.943Z</time></trkpt><trkpt lat="36.6316591" lon="9.6827471"><ele>110.0</ele><time>2026-05-03T16:20:20.936Z</time></trkpt><trkpt lat="36.6316406" lon="9.6830169"><ele>110.66666666666666</ele><time>2026-05-03T16:20:21.944Z</time></trkpt><trkpt lat="36.6316204" lon="9.683292"><ele>111.33333333333334</ele><time>2026-05-03T16:20:22.921Z</time></trkpt><trkpt lat="36.6315928" lon="9.6835584"><ele>112.0</ele><time>2026-05-03T16:20:23.944Z</time></trkpt><trkpt lat="36.6315665" lon="9.6838206"><ele>113.33333333333334</ele><time>2026-05-03T16:20:24.947Z</time></trkpt><trkpt lat="36.6315306" lon="9.6840889"><ele>114.66666666666666</ele><time>2026-05-03T16:20:25.954Z</time></trkpt><trkpt lat="36.6314932" lon="9.6843696"><ele>116.0</ele><time>2026-05-03T16:20:26.911Z</time></trkpt><trkpt lat="36.6314421" lon="9.6846666"><ele>118.0</ele><time>2026-05-03T16:20:27.939Z</time></trkpt><trkpt lat="36.6313933" lon="9.6849642"><ele>120.0</ele><time>2026-05-03T16:20:28.937Z</time></trkpt><trkpt lat="36.631337" lon="9.6852589"><ele>124.0</ele><time>2026-05-03T16:20:29.904Z</time></trkpt><trkpt lat="36.6312767" lon="9.6855445"><ele>128.0</ele><time>2026-05-03T16:20:30.929Z</time></trkpt><trkpt lat="36.631208" lon="9.6858329"><ele>126.0</ele><time>2026-05-03T16:20:31.939Z</time></trkpt><trkpt lat="36.6311385" lon="9.6861196"><ele>124.0</ele><time>2026-05-03T16:20:32.936Z</time></trkpt><trkpt lat="36.6310651" lon="9.6864159"><ele>124.0</ele><time>2026-05-03T16:20:33.935Z</time></trkpt><trkpt lat="36.6309898" lon="9.6867185"><ele>124.0</ele><time>2026-05-03T16:20:34.945Z</time></trkpt><trkpt lat="36.6309174" lon="9.6870258"><ele>126.5</ele><time>2026-05-03T16:20:35.937Z</time></trkpt><trkpt lat="36.6308419" lon="9.6873272"><ele>129.0</ele><time>2026-05-03T16:20:36.942Z</time></trkpt><trkpt lat="36.6307664" lon="9.6876319"><ele>134.5</ele><time>2026-05-03T16:20:37.929Z</time></trkpt><trkpt lat="36.6306939" lon="9.6879335"><ele>140.0</ele><time>2026-05-03T16:20:38.938Z</time></trkpt><trkpt lat="36.6306151" lon="9.6882385"><ele>140.0</ele><time>2026-05-03T16:20:39.934Z</time></trkpt><trkpt lat="36.630542" lon="9.6885468"><ele>140.0</ele><time>2026-05-03T16:20:40.925Z</time></trkpt><trkpt lat="36.6304702" lon="9.6888539"><ele>146.0</ele><time>2026-05-03T16:20:41.943Z</time></trkpt><trkpt lat="36.6303953" lon="9.689155"><ele>152.0</ele><time>2026-05-03T16:20:42.921Z</time></trkpt><trkpt lat="36.6303203" lon="9.6894553"><ele>148.5</ele><time>2026-05-03T16:20:43.94Z</time></trkpt><trkpt lat="36.6302423" lon="9.6897582"><ele>145.0</ele><time>2026-05-03T16:20:44.941Z</time></trkpt><trkpt lat="36.6301679" lon="9.690065"><ele>149.0</ele><time>2026-05-03T16:20:45.933Z</time></trkpt><trkpt lat="36.630094" lon="9.6903749"><ele>153.0</ele><time>2026-05-03T16:20:46.938Z</time></trkpt><trkpt lat="36.6300206" lon="9.6906783"><ele>153.0</ele><time>2026-05-03T16:20:47.941Z</time></trkpt><trkpt lat="36.6299431" lon="9.6909824"><ele>153.0</ele><time>2026-05-03T16:20:48.937Z</time></trkpt><trkpt lat="36.629871" lon="9.6912888"><ele>156.5</ele><time>2026-05-03T16:20:49.942Z</time></trkpt><trkpt lat="36.6297978" lon="9.6915892"><ele>160.0</ele><time>2026-05-03T16:20:50.961Z</time></trkpt><trkpt lat="36.6297279" lon="9.6918935"><ele>159.0</ele><time>2026-05-03T16:20:51.938Z</time></trkpt><trkpt lat="36.6296552" lon="9.6922008"><ele>158.0</ele><time>2026-05-03T16:20:52.909Z</time></trkpt><trkpt lat="36.6295792" lon="9.692504"><ele>153.0</ele><time>2026-05-03T16:20:53.953Z</time></trkpt><trkpt lat="36.629503" lon="9.6928097"><ele>148.0</ele><time>2026-05-03T16:20:54.953Z</time></trkpt><trkpt lat="36.6294271" lon="9.6931171"><ele>146.5</ele><time>2026-05-03T16:20:55.943Z</time></trkpt><trkpt lat="36.6293534" lon="9.6934207"><ele>145.0</ele><time>2026-05-03T16:20:56.952Z</time></trkpt><trkpt lat="36.6292808" lon="9.6937278"><ele>142.5</ele><time>2026-05-03T16:20:57.954Z</time></trkpt><trkpt lat="36.6292105" lon="9.6940342"><ele>140.0</ele><time>2026-05-03T16:20:58.935Z</time></trkpt><trkpt lat="36.6291371" lon="9.6943424"><ele>137.0</ele><time>2026-05-03T16:20:59.959Z</time></trkpt><trkpt lat="36.6290603" lon="9.6946462"><ele>134.0</ele><time>2026-05-03T16:21:00.931Z</time></trkpt><trkpt lat="36.6289851" lon="9.6949506"><ele>131.0</ele><time>2026-05-03T16:21:01.935Z</time></trkpt><trkpt lat="36.6289104" lon="9.695257"><ele>128.0</ele><time>2026-05-03T16:21:02.94Z</time></trkpt><trkpt lat="36.6288379" lon="9.6955668"><ele>128.0</ele><time>2026-05-03T16:21:03.934Z</time></trkpt><trkpt lat="36.6287627" lon="9.6958724"><ele>128.0</ele><time>2026-05-03T16:21:04.924Z</time></trkpt><trkpt lat="36.6286865" lon="9.6961791"><ele>124.5</ele><time>2026-05-03T16:21:05.936Z</time></trkpt><trkpt lat="36.6286133" lon="9.6964837"><ele>121.0</ele><time>2026-05-03T16:21:06.926Z</time></trkpt><trkpt lat="36.6285398" lon="9.6967851"><ele>119.0</ele><time>2026-05-03T16:21:07.937Z</time></trkpt><trkpt lat="36.6284654" lon="9.6970885"><ele>117.0</ele><time>2026-05-03T16:21:08.941Z</time></trkpt><trkpt lat="36.6283886" lon="9.6973953"><ele>117.0</ele><time>2026-05-03T16:21:09.945Z</time></trkpt><trkpt lat="36.628314" lon="9.697701"><ele>117.0</ele><time>2026-05-03T16:21:10.937Z</time></trkpt><trkpt lat="36.6282391" lon="9.6980095"><ele>115.5</ele><time>2026-05-03T16:21:11.933Z</time></trkpt><trkpt lat="36.6281605" lon="9.6983127"><ele>114.0</ele><time>2026-05-03T16:21:12.931Z</time></trkpt><trkpt lat="36.6280808" lon="9.6986199"><ele>112.5</ele><time>2026-05-03T16:21:13.905Z</time></trkpt><trkpt lat="36.6279995" lon="9.6989215"><ele>111.0</ele><time>2026-05-03T16:21:14.936Z</time></trkpt><trkpt lat="36.6279241" lon="9.6992208"><ele>111.5</ele><time>2026-05-03T16:21:15.935Z</time></trkpt><trkpt lat="36.6278501" lon="9.6995209"><ele>112.0</ele><time>2026-05-03T16:21:16.942Z</time></trkpt><trkpt lat="36.6277813" lon="9.6998237"><ele>112.0</ele><time>2026-05-03T16:21:17.905Z</time></trkpt><trkpt lat="36.6277117" lon="9.7001278"><ele>112.0</ele><time>2026-05-03T16:21:18.933Z</time></trkpt><trkpt lat="36.62764" lon="9.7004324"><ele>109.5</ele><time>2026-05-03T16:21:19.959Z</time></trkpt><trkpt lat="36.6275657" lon="9.7007405"><ele>107.0</ele><time>2026-05-03T16:21:20.911Z</time></trkpt><trkpt lat="36.6274904" lon="9.7010456"><ele>103.5</ele><time>2026-05-03T16:21:21.952Z</time></trkpt><trkpt lat="36.6274179" lon="9.7013573"><ele>100.0</ele><time>2026-05-03T16:21:22.937Z</time></trkpt><trkpt lat="36.6273445" lon="9.7016646"><ele>98.5</ele><time>2026-05-03T16:21:23.945Z</time></trkpt><trkpt lat="36.6272699" lon="9.7019672"><ele>97.0</ele><time>2026-05-03T16:21:24.929Z</time></trkpt><trkpt lat="36.6271948" lon="9.7022706"><ele>97.0</ele><time>2026-05-03T16:21:25.945Z</time></trkpt><trkpt lat="36.6271201" lon="9.7025754"><ele>97.0</ele><time>2026-05-03T16:21:26.942Z</time></trkpt><trkpt lat="36.6270453" lon="9.7028796"><ele>95.0</ele><time>2026-05-03T16:21:27.911Z</time></trkpt><trkpt lat="36.6269686" lon="9.7031875"><ele>93.0</ele><time>2026-05-03T16:21:28.935Z</time></trkpt><trkpt lat="36.6268936" lon="9.7034938"><ele>90.5</ele><time>2026-05-03T16:21:29.911Z</time></trkpt><trkpt lat="36.6268195" lon="9.7038006"><ele>88.0</ele><time>2026-05-03T16:21:30.92Z</time></trkpt><trkpt lat="36.6267494" lon="9.7041055"><ele>88.0</ele><time>2026-05-03T16:21:31.928Z</time></trkpt><trkpt lat="36.6266727" lon="9.7044093"><ele>88.0</ele><time>2026-05-03T16:21:32.924Z</time></trkpt><trkpt lat="36.6266001" lon="9.7047148"><ele>88.0</ele><time>2026-05-03T16:21:33.924Z</time></trkpt><trkpt lat="36.6265289" lon="9.7050207"><ele>88.0</ele><time>2026-05-03T16:21:34.933Z</time></trkpt><trkpt lat="36.6264555" lon="9.7053239"><ele>87.5</ele><time>2026-05-03T16:21:35.95Z</time></trkpt><trkpt lat="36.6263813" lon="9.7056282"><ele>87.0</ele><time>2026-05-03T16:21:36.904Z</time></trkpt><trkpt lat="36.6263097" lon="9.705934"><ele>85.0</ele><time>2026-05-03T16:21:37.942Z</time></trkpt><trkpt lat="36.6262389" lon="9.7062378"><ele>83.0</ele><time>2026-05-03T16:21:38.931Z</time></trkpt><trkpt lat="36.6261706" lon="9.7065409"><ele>85.0</ele><time>2026-05-03T16:21:39.938Z</time></trkpt><trkpt lat="36.6261011" lon="9.7068451"><ele>87.0</ele><time>2026-05-03T16:21:40.938Z</time></trkpt><trkpt lat="36.6260355" lon="9.7071556"><ele>87.0</ele><time>2026-05-03T16:21:41.92Z</time></trkpt><trkpt lat="36.6259753" lon="9.7074706"><ele>87.0</ele><time>2026-05-03T16:21:42.95Z</time></trkpt><trkpt lat="36.6259208" lon="9.707783"><ele>87.0</ele><time>2026-05-03T16:21:43.918Z</time></trkpt><trkpt lat="36.6258698" lon="9.708095"><ele>87.0</ele><time>2026-05-03T16:21:44.933Z</time></trkpt><trkpt lat="36.6258231" lon="9.70841"><ele>86.0</ele><time>2026-05-03T16:21:45.916Z</time></trkpt><trkpt lat="36.6257882" lon="9.7087273"><ele>85.0</ele><time>2026-05-03T16:21:46.938Z</time></trkpt><trkpt lat="36.62576" lon="9.7090416"><ele>85.0</ele><time>2026-05-03T16:21:47.928Z</time></trkpt><trkpt lat="36.6257443" lon="9.709357"><ele>85.0</ele><time>2026-05-03T16:21:48.951Z</time></trkpt><trkpt lat="36.6257283" lon="9.7096691"><ele>85.0</ele><time>2026-05-03T16:21:49.951Z</time></trkpt><trkpt lat="36.6257144" lon="9.7099891"><ele>85.0</ele><time>2026-05-03T16:21:50.935Z</time></trkpt><trkpt lat="36.625703" lon="9.7103084"><ele>84.5</ele><time>2026-05-03T16:21:51.942Z</time></trkpt><trkpt lat="36.6256948" lon="9.7106288"><ele>84.0</ele><time>2026-05-03T16:21:52.906Z</time></trkpt><trkpt lat="36.6256933" lon="9.7109475"><ele>83.0</ele><time>2026-05-03T16:21:53.942Z</time></trkpt><trkpt lat="36.6256969" lon="9.7112685"><ele>82.0</ele><time>2026-05-03T16:21:54.933Z</time></trkpt><trkpt lat="36.6257078" lon="9.7115859"><ele>82.0</ele><time>2026-05-03T16:21:55.916Z</time></trkpt><trkpt lat="36.6257261" lon="9.7119005"><ele>82.0</ele><time>2026-05-03T16:21:56.937Z</time></trkpt><trkpt lat="36.6257472" lon="9.712213"><ele>81.5</ele><time>2026-05-03T16:21:57.935Z</time></trkpt><trkpt lat="36.6257721" lon="9.7125274"><ele>81.0</ele><time>2026-05-03T16:21:58.934Z</time></trkpt><trkpt lat="36.6258056" lon="9.7128385"><ele>81.0</ele><time>2026-05-03T16:21:59.926Z</time></trkpt><trkpt lat="36.6258446" lon="9.7131531"><ele>81.0</ele><time>2026-05-03T16:22:00.916Z</time></trkpt><trkpt lat="36.6258934" lon="9.7134648"><ele>80.0</ele><time>2026-05-03T16:22:01.919Z</time></trkpt><trkpt lat="36.6259443" lon="9.7137824"><ele>79.0</ele><time>2026-05-03T16:22:02.935Z</time></trkpt><trkpt lat="36.6259981" lon="9.7140939"><ele>79.0</ele><time>2026-05-03T16:22:03.929Z</time></trkpt><trkpt lat="36.626063" lon="9.7143964"><ele>79.0</ele><time>2026-05-03T16:22:04.938Z</time></trkpt><trkpt lat="36.6261295" lon="9.7147066"><ele>77.5</ele><time>2026-05-03T16:22:05.928Z</time></trkpt><trkpt lat="36.6261979" lon="9.7150146"><ele>76.0</ele><time>2026-05-03T16:22:06.932Z</time></trkpt><trkpt lat="36.6262759" lon="9.7153139"><ele>76.0</ele><time>2026-05-03T16:22:07.936Z</time></trkpt><trkpt lat="36.6263566" lon="9.7156152"><ele>76.0</ele><time>2026-05-03T16:22:08.926Z</time></trkpt><trkpt lat="36.6264449" lon="9.7159178"><ele>77.0</ele><time>2026-05-03T16:22:09.933Z</time></trkpt><trkpt lat="36.626538" lon="9.7162187"><ele>78.0</ele><time>2026-05-03T16:22:10.932Z</time></trkpt><trkpt lat="36.6266328" lon="9.7165147"><ele>78.0</ele><time>2026-05-03T16:22:11.927Z</time></trkpt><trkpt lat="36.6267358" lon="9.7168088"><ele>78.0</ele><time>2026-05-03T16:22:12.921Z</time></trkpt><trkpt lat="36.6268424" lon="9.7170971"><ele>77.0</ele><time>2026-05-03T16:22:13.918Z</time></trkpt><trkpt lat="36.6269509" lon="9.7173853"><ele>76.0</ele><time>2026-05-03T16:22:14.933Z</time></trkpt><trkpt lat="36.6270653" lon="9.7176708"><ele>76.0</ele><time>2026-05-03T16:22:15.957Z</time></trkpt><trkpt lat="36.6271856" lon="9.7179552"><ele>76.0</ele><time>2026-05-03T16:22:16.95Z</time></trkpt><trkpt lat="36.6273175" lon="9.7182322"><ele>76.0</ele><time>2026-05-03T16:22:17.943Z</time></trkpt><trkpt lat="36.6274476" lon="9.7184979"><ele>76.0</ele><time>2026-05-03T16:22:18.939Z</time></trkpt><trkpt lat="36.6275844" lon="9.7187629"><ele>75.5</ele><time>2026-05-03T16:22:19.935Z</time></trkpt><trkpt lat="36.6277317" lon="9.7190249"><ele>75.0</ele><time>2026-05-03T16:22:20.92Z</time></trkpt><trkpt lat="36.6278807" lon="9.7192795"><ele>72.5</ele><time>2026-05-03T16:22:21.939Z</time></trkpt><trkpt lat="36.6280329" lon="9.7195382"><ele>70.0</ele><time>2026-05-03T16:22:22.934Z</time></trkpt><trkpt lat="36.6281915" lon="9.7197908"><ele>70.0</ele><time>2026-05-03T16:22:23.935Z</time></trkpt><trkpt lat="36.628352" lon="9.720042"><ele>70.0</ele><time>2026-05-03T16:22:24.929Z</time></trkpt><trkpt lat="36.6285216" lon="9.7202883"><ele>69.5</ele><time>2026-05-03T16:22:25.91Z</time></trkpt><trkpt lat="36.6286869" lon="9.7205312"><ele>69.0</ele><time>2026-05-03T16:22:26.935Z</time></trkpt><trkpt lat="36.6288597" lon="9.7207734"><ele>69.0</ele><time>2026-05-03T16:22:27.934Z</time></trkpt><trkpt lat="36.6290338" lon="9.7210089"><ele>69.0</ele><time>2026-05-03T16:22:28.933Z</time></trkpt><trkpt lat="36.6292175" lon="9.7212373"><ele>69.0</ele><time>2026-05-03T16:22:29.947Z</time></trkpt><trkpt lat="36.6294031" lon="9.721454"><ele>69.0</ele><time>2026-05-03T16:22:30.926Z</time></trkpt><trkpt lat="36.6295833" lon="9.7216698"><ele>69.0</ele><time>2026-05-03T16:22:31.94Z</time></trkpt><trkpt lat="36.629768" lon="9.7218857"><ele>69.0</ele><time>2026-05-03T16:22:32.934Z</time></trkpt><trkpt lat="36.6299548" lon="9.7220998"><ele>69.0</ele><time>2026-05-03T16:22:33.912Z</time></trkpt><trkpt lat="36.6301386" lon="9.7223169"><ele>69.0</ele><time>2026-05-03T16:22:34.927Z</time></trkpt><trkpt lat="36.6303289" lon="9.7225331"><ele>69.5</ele><time>2026-05-03T16:22:35.948Z</time></trkpt><trkpt lat="36.6305203" lon="9.7227482"><ele>70.0</ele><time>2026-05-03T16:22:36.933Z</time></trkpt><trkpt lat="36.630709" lon="9.7229674"><ele>70.0</ele><time>2026-05-03T16:22:37.925Z</time></trkpt><trkpt lat="36.6308926" lon="9.7231876"><ele>70.0</ele><time>2026-05-03T16:22:38.94Z</time></trkpt><trkpt lat="36.631078" lon="9.7234037"><ele>70.0</ele><time>2026-05-03T16:22:39.941Z</time></trkpt><trkpt lat="36.6312638" lon="9.7236154"><ele>70.0</ele><time>2026-05-03T16:22:40.907Z</time></trkpt><trkpt lat="36.6314486" lon="9.72383"><ele>70.0</ele><time>2026-05-03T16:22:41.944Z</time></trkpt><trkpt lat="36.6316374" lon="9.7240471"><ele>70.0</ele><time>2026-05-03T16:22:42.934Z</time></trkpt><trkpt lat="36.6318211" lon="9.7242589"><ele>71.0</ele><time>2026-05-03T16:22:43.922Z</time></trkpt><trkpt lat="36.6320066" lon="9.7244707"><ele>72.0</ele><time>2026-05-03T16:22:44.947Z</time></trkpt><trkpt lat="36.6321905" lon="9.7246875"><ele>72.0</ele><time>2026-05-03T16:22:45.941Z</time></trkpt><trkpt lat="36.6323729" lon="9.7249088"><ele>72.0</ele><time>2026-05-03T16:22:46.936Z</time></trkpt><trkpt lat="36.6325524" lon="9.7251306"><ele>73.5</ele><time>2026-05-03T16:22:47.936Z</time></trkpt><trkpt lat="36.6327346" lon="9.7253549"><ele>75.0</ele><time>2026-05-03T16:22:48.94Z</time></trkpt><trkpt lat="36.6329245" lon="9.7255814"><ele>77.0</ele><time>2026-05-03T16:22:49.917Z</time></trkpt><trkpt lat="36.6331071" lon="9.7257983"><ele>79.0</ele><time>2026-05-03T16:22:50.923Z</time></trkpt><trkpt lat="36.6332959" lon="9.7260206"><ele>81.0</ele><time>2026-05-03T16:22:51.939Z</time></trkpt><trkpt lat="36.6334833" lon="9.7262365"><ele>83.0</ele><time>2026-05-03T16:22:52.919Z</time></trkpt><trkpt lat="36.6336708" lon="9.7264524"><ele>85.5</ele><time>2026-05-03T16:22:53.911Z</time></trkpt><trkpt lat="36.6338587" lon="9.7266711"><ele>88.0</ele><time>2026-05-03T16:22:54.941Z</time></trkpt><trkpt lat="36.6340481" lon="9.7268924"><ele>88.5</ele><time>2026-05-03T16:22:55.941Z</time></trkpt><trkpt lat="36.6342367" lon="9.727112"><ele>89.0</ele><time>2026-05-03T16:22:56.938Z</time></trkpt><trkpt lat="36.634424" lon="9.7273328"><ele>88.0</ele><time>2026-05-03T16:22:57.936Z</time></trkpt><trkpt lat="36.6346104" lon="9.72755"><ele>87.0</ele><time>2026-05-03T16:22:58.947Z</time></trkpt><trkpt lat="36.6347991" lon="9.7277712"><ele>87.0</ele><time>2026-05-03T16:22:59.936Z</time></trkpt><trkpt lat="36.6349839" lon="9.7279895"><ele>87.0</ele><time>2026-05-03T16:23:00.94Z</time></trkpt><trkpt lat="36.6351679" lon="9.7282055"><ele>84.5</ele><time>2026-05-03T16:23:01.947Z</time></trkpt><trkpt lat="36.6353558" lon="9.7284186"><ele>82.0</ele><time>2026-05-03T16:23:02.929Z</time></trkpt><trkpt lat="36.6355407" lon="9.7286338"><ele>82.0</ele><time>2026-05-03T16:23:03.905Z</time></trkpt><trkpt lat="36.6357285" lon="9.7288454"><ele>82.0</ele><time>2026-05-03T16:23:04.96Z</time></trkpt><trkpt lat="36.6359168" lon="9.7290588"><ele>82.0</ele><time>2026-05-03T16:23:05.923Z</time></trkpt><trkpt lat="36.6361025" lon="9.729267"><ele>82.0</ele><time>2026-05-03T16:23:06.93Z</time></trkpt><trkpt lat="36.6362956" lon="9.729485"><ele>79.5</ele><time>2026-05-03T16:23:07.936Z</time></trkpt><trkpt lat="36.6364858" lon="9.7297036"><ele>77.0</ele><time>2026-05-03T16:23:08.937Z</time></trkpt><trkpt lat="36.6366723" lon="9.7299203"><ele>77.0</ele><time>2026-05-03T16:23:09.928Z</time></trkpt><trkpt lat="36.6368637" lon="9.7301324"><ele>77.0</ele><time>2026-05-03T16:23:10.921Z</time></trkpt><trkpt lat="36.6370522" lon="9.7303449"><ele>77.0</ele><time>2026-05-03T16:23:11.936Z</time></trkpt><trkpt lat="36.6372433" lon="9.7305578"><ele>77.0</ele><time>2026-05-03T16:23:12.936Z</time></trkpt><trkpt lat="36.637429" lon="9.73077"><ele>77.0</ele><time>2026-05-03T16:23:13.923Z</time></trkpt><trkpt lat="36.6376185" lon="9.730983"><ele>77.0</ele><time>2026-05-03T16:23:14.932Z</time></trkpt><trkpt lat="36.637807" lon="9.7312038"><ele>78.0</ele><time>2026-05-03T16:23:15.932Z</time></trkpt><trkpt lat="36.6379937" lon="9.7314262"><ele>79.0</ele><time>2026-05-03T16:23:16.937Z</time></trkpt><trkpt lat="36.6381817" lon="9.7316431"><ele>79.0</ele><time>2026-05-03T16:23:17.902Z</time></trkpt><trkpt lat="36.6383704" lon="9.7318559"><ele>79.0</ele><time>2026-05-03T16:23:18.925Z</time></trkpt><trkpt lat="36.6385581" lon="9.7320677"><ele>81.5</ele><time>2026-05-03T16:23:19.937Z</time></trkpt><trkpt lat="36.6387476" lon="9.7322869"><ele>84.0</ele><time>2026-05-03T16:23:20.94Z</time></trkpt><trkpt lat="36.6389344" lon="9.7325"><ele>84.0</ele><time>2026-05-03T16:23:21.938Z</time></trkpt><trkpt lat="36.639121" lon="9.7327095"><ele>84.0</ele><time>2026-05-03T16:23:22.947Z</time></trkpt><trkpt lat="36.6393067" lon="9.7329265"><ele>89.0</ele><time>2026-05-03T16:23:23.938Z</time></trkpt><trkpt lat="36.6394941" lon="9.7331474"><ele>94.0</ele><time>2026-05-03T16:23:24.946Z</time></trkpt><trkpt lat="36.6396836" lon="9.7333696"><ele>95.0</ele><time>2026-05-03T16:23:25.906Z</time></trkpt><trkpt lat="36.639876" lon="9.7335841"><ele>96.0</ele><time>2026-05-03T16:23:26.931Z</time></trkpt><trkpt lat="36.6400632" lon="9.7337997"><ele>96.0</ele><time>2026-05-03T16:23:27.94Z</time></trkpt><trkpt lat="36.6402493" lon="9.7340124"><ele>96.0</ele><time>2026-05-03T16:23:28.936Z</time></trkpt><trkpt lat="36.6404351" lon="9.7342253"><ele>92.5</ele><time>2026-05-03T16:23:29.933Z</time></trkpt><trkpt lat="36.6406235" lon="9.7344424"><ele>89.0</ele><time>2026-05-03T16:23:30.913Z</time></trkpt><trkpt lat="36.6408118" lon="9.7346611"><ele>89.0</ele><time>2026-05-03T16:23:31.923Z</time></trkpt><trkpt lat="36.6410026" lon="9.7348808"><ele>89.0</ele><time>2026-05-03T16:23:32.936Z</time></trkpt><trkpt lat="36.6411896" lon="9.7350975"><ele>87.5</ele><time>2026-05-03T16:23:33.936Z</time></trkpt><trkpt lat="36.6413738" lon="9.7353111"><ele>86.0</ele><time>2026-05-03T16:23:34.945Z</time></trkpt><trkpt lat="36.6415602" lon="9.7355249"><ele>86.0</ele><time>2026-05-03T16:23:35.914Z</time></trkpt><trkpt lat="36.6417472" lon="9.7357411"><ele>86.0</ele><time>2026-05-03T16:23:36.938Z</time></trkpt><trkpt lat="36.641939" lon="9.7359565"><ele>86.0</ele><time>2026-05-03T16:23:37.924Z</time></trkpt><trkpt lat="36.642128" lon="9.7361714"><ele>86.0</ele><time>2026-05-03T16:23:38.916Z</time></trkpt><trkpt lat="36.642315" lon="9.7363865"><ele>86.0</ele><time>2026-05-03T16:23:39.933Z</time></trkpt><trkpt lat="36.6425016" lon="9.7366055"><ele>86.0</ele><time>2026-05-03T16:23:40.925Z</time></trkpt><trkpt lat="36.6426921" lon="9.7368208"><ele>87.5</ele><time>2026-05-03T16:23:41.934Z</time></trkpt><trkpt lat="36.6428822" lon="9.737041"><ele>89.0</ele><time>2026-05-03T16:23:42.909Z</time></trkpt><trkpt lat="36.6430684" lon="9.7372573"><ele>89.0</ele><time>2026-05-03T16:23:43.916Z</time></trkpt><trkpt lat="36.6432544" lon="9.7374814"><ele>89.0</ele><time>2026-05-03T16:23:44.941Z</time></trkpt><trkpt lat="36.6434372" lon="9.7377041"><ele>89.0</ele><time>2026-05-03T16:23:45.909Z</time></trkpt><trkpt lat="36.6436167" lon="9.7379288"><ele>89.0</ele><time>2026-05-03T16:23:46.928Z</time></trkpt><trkpt lat="36.6437946" lon="9.7381585"><ele>89.0</ele><time>2026-05-03T16:23:47.942Z</time></trkpt><trkpt lat="36.6439696" lon="9.7383877"><ele>89.0</ele><time>2026-05-03T16:23:48.939Z</time></trkpt><trkpt lat="36.6441441" lon="9.7386249"><ele>89.0</ele><time>2026-05-03T16:23:49.946Z</time></trkpt><trkpt lat="36.6443113" lon="9.7388667"><ele>89.0</ele><time>2026-05-03T16:23:50.92Z</time></trkpt><trkpt lat="36.6444798" lon="9.7391119"><ele>90.0</ele><time>2026-05-03T16:23:51.931Z</time></trkpt><trkpt lat="36.644644" lon="9.7393616"><ele>91.0</ele><time>2026-05-03T16:23:52.923Z</time></trkpt><trkpt lat="36.6447996" lon="9.7396095"><ele>91.0</ele><time>2026-05-03T16:23:53.941Z</time></trkpt><trkpt lat="36.6449505" lon="9.7398592"><ele>91.0</ele><time>2026-05-03T16:23:54.94Z</time></trkpt><trkpt lat="36.6450994" lon="9.7401139"><ele>90.5</ele><time>2026-05-03T16:23:55.904Z</time></trkpt><trkpt lat="36.6452446" lon="9.740373"><ele>90.0</ele><time>2026-05-03T16:23:56.941Z</time></trkpt><trkpt lat="36.6453859" lon="9.740635"><ele>91.5</ele><time>2026-05-03T16:23:57.93Z</time></trkpt><trkpt lat="36.6455173" lon="9.7409031"><ele>93.0</ele><time>2026-05-03T16:23:58.954Z</time></trkpt><trkpt lat="36.6456469" lon="9.741174"><ele>93.0</ele><time>2026-05-03T16:23:59.916Z</time></trkpt><trkpt lat="36.645771" lon="9.7414509"><ele>93.0</ele><time>2026-05-03T16:24:00.924Z</time></trkpt><trkpt lat="36.6458931" lon="9.741724"><ele>93.0</ele><time>2026-05-03T16:24:01.91Z</time></trkpt><trkpt lat="36.6460172" lon="9.741998"><ele>93.0</ele><time>2026-05-03T16:24:02.904Z</time></trkpt><trkpt lat="36.646133" lon="9.7422806"><ele>93.0</ele><time>2026-05-03T16:24:03.918Z</time></trkpt><trkpt lat="36.6462482" lon="9.7425639"><ele>93.0</ele><time>2026-05-03T16:24:04.943Z</time></trkpt><trkpt lat="36.646359" lon="9.7428513"><ele>92.5</ele><time>2026-05-03T16:24:05.916Z</time></trkpt><trkpt lat="36.6464646" lon="9.7431426"><ele>92.0</ele><time>2026-05-03T16:24:06.929Z</time></trkpt><trkpt lat="36.6465669" lon="9.743434"><ele>91.0</ele><time>2026-05-03T16:24:07.928Z</time></trkpt><trkpt lat="36.6466628" lon="9.7437307"><ele>90.0</ele><time>2026-05-03T16:24:08.929Z</time></trkpt><trkpt lat="36.6467583" lon="9.7440222"><ele>90.0</ele><time>2026-05-03T16:24:09.923Z</time></trkpt><trkpt lat="36.6468453" lon="9.7443193"><ele>90.0</ele><time>2026-05-03T16:24:10.947Z</time></trkpt><trkpt lat="36.6469308" lon="9.7446173"><ele>92.0</ele><time>2026-05-03T16:24:11.933Z</time></trkpt><trkpt lat="36.6470174" lon="9.7449203"><ele>94.0</ele><time>2026-05-03T16:24:12.934Z</time></trkpt><trkpt lat="36.6470972" lon="9.7452195"><ele>94.0</ele><time>2026-05-03T16:24:13.917Z</time></trkpt><trkpt lat="36.6471729" lon="9.745519"><ele>94.0</ele><time>2026-05-03T16:24:14.932Z</time></trkpt><trkpt lat="36.6472444" lon="9.7458262"><ele>94.0</ele><time>2026-05-03T16:24:15.925Z</time></trkpt><trkpt lat="36.6473096" lon="9.7461328"><ele>94.0</ele><time>2026-05-03T16:24:16.936Z</time></trkpt><trkpt lat="36.6473687" lon="9.7464432"><ele>94.0</ele><time>2026-05-03T16:24:17.913Z</time></trkpt><trkpt lat="36.6474201" lon="9.7467574"><ele>94.0</ele><time>2026-05-03T16:24:18.918Z</time></trkpt><trkpt lat="36.6474712" lon="9.7470694"><ele>95.0</ele><time>2026-05-03T16:24:19.94Z</time></trkpt><trkpt lat="36.647518" lon="9.7473834"><ele>96.0</ele><time>2026-05-03T16:24:20.938Z</time></trkpt><trkpt lat="36.6475583" lon="9.747696"><ele>95.0</ele><time>2026-05-03T16:24:21.945Z</time></trkpt><trkpt lat="36.6476002" lon="9.7480099"><ele>94.0</ele><time>2026-05-03T16:24:22.951Z</time></trkpt><trkpt lat="36.6476368" lon="9.7483281"><ele>92.5</ele><time>2026-05-03T16:24:23.946Z</time></trkpt><trkpt lat="36.647664" lon="9.7486448"><ele>91.0</ele><time>2026-05-03T16:24:24.943Z</time></trkpt><trkpt lat="36.647684" lon="9.748957"><ele>91.0</ele><time>2026-05-03T16:24:25.948Z</time></trkpt><trkpt lat="36.6477001" lon="9.7492717"><ele>91.0</ele><time>2026-05-03T16:24:26.943Z</time></trkpt><trkpt lat="36.6477164" lon="9.7495871"><ele>89.5</ele><time>2026-05-03T16:24:27.92Z</time></trkpt><trkpt lat="36.6477216" lon="9.7499064"><ele>88.0</ele><time>2026-05-03T16:24:28.921Z</time></trkpt><trkpt lat="36.647722" lon="9.7502298"><ele>87.5</ele><time>2026-05-03T16:24:29.923Z</time></trkpt><trkpt lat="36.6477221" lon="9.7505503"><ele>87.0</ele><time>2026-05-03T16:24:30.927Z</time></trkpt><trkpt lat="36.6477173" lon="9.7508756"><ele>84.5</ele><time>2026-05-03T16:24:31.936Z</time></trkpt><trkpt lat="36.6477104" lon="9.7511935"><ele>82.0</ele><time>2026-05-03T16:24:32.928Z</time></trkpt><trkpt lat="36.6476985" lon="9.7515079"><ele>82.0</ele><time>2026-05-03T16:24:33.941Z</time></trkpt><trkpt lat="36.647681" lon="9.7518243"><ele>82.0</ele><time>2026-05-03T16:24:34.954Z</time></trkpt><trkpt lat="36.6476576" lon="9.752141"><ele>84.0</ele><time>2026-05-03T16:24:35.945Z</time></trkpt><trkpt lat="36.6476291" lon="9.7524585"><ele>86.0</ele><time>2026-05-03T16:24:36.947Z</time></trkpt><trkpt lat="36.6475987" lon="9.752769"><ele>87.5</ele><time>2026-05-03T16:24:37.931Z</time></trkpt><trkpt lat="36.6475641" lon="9.7530806"><ele>89.0</ele><time>2026-05-03T16:24:38.927Z</time></trkpt><trkpt lat="36.6475243" lon="9.7533954"><ele>89.0</ele><time>2026-05-03T16:24:39.917Z</time></trkpt><trkpt lat="36.647479" lon="9.7537096"><ele>89.0</ele><time>2026-05-03T16:24:40.932Z</time></trkpt><trkpt lat="36.6474319" lon="9.7540257"><ele>89.0</ele><time>2026-05-03T16:24:41.936Z</time></trkpt><trkpt lat="36.6473783" lon="9.7543367"><ele>89.0</ele><time>2026-05-03T16:24:42.946Z</time></trkpt><trkpt lat="36.6473237" lon="9.7546453"><ele>89.0</ele><time>2026-05-03T16:24:43.942Z</time></trkpt><trkpt lat="36.6472587" lon="9.7549511"><ele>89.0</ele><time>2026-05-03T16:24:44.92Z</time></trkpt><trkpt lat="36.6471945" lon="9.7552581"><ele>89.0</ele><time>2026-05-03T16:24:45.948Z</time></trkpt><trkpt lat="36.6471244" lon="9.7555618"><ele>89.0</ele><time>2026-05-03T16:24:46.938Z</time></trkpt><trkpt lat="36.6470533" lon="9.7558673"><ele>88.5</ele><time>2026-05-03T16:24:47.939Z</time></trkpt><trkpt lat="36.6469867" lon="9.7561769"><ele>88.0</ele><time>2026-05-03T16:24:48.935Z</time></trkpt><trkpt lat="36.6469209" lon="9.7564873"><ele>89.0</ele><time>2026-05-03T16:24:49.925Z</time></trkpt><trkpt lat="36.6468512" lon="9.7567957"><ele>90.0</ele><time>2026-05-03T16:24:50.934Z</time></trkpt><trkpt lat="36.646782" lon="9.757104"><ele>90.0</ele><time>2026-05-03T16:24:51.922Z</time></trkpt><trkpt lat="36.6467134" lon="9.7574081"><ele>90.0</ele><time>2026-05-03T16:24:52.947Z</time></trkpt><trkpt lat="36.6466442" lon="9.757715"><ele>89.5</ele><time>2026-05-03T16:24:53.939Z</time></trkpt><trkpt lat="36.646575" lon="9.7580159"><ele>89.0</ele><time>2026-05-03T16:24:54.94Z</time></trkpt><trkpt lat="36.6465088" lon="9.758323"><ele>88.5</ele><time>2026-05-03T16:24:55.913Z</time></trkpt><trkpt lat="36.6464411" lon="9.7586277"><ele>88.0</ele><time>2026-05-03T16:24:56.936Z</time></trkpt><trkpt lat="36.6463737" lon="9.7589339"><ele>88.0</ele><time>2026-05-03T16:24:57.933Z</time></trkpt><trkpt lat="36.6463075" lon="9.7592414"><ele>88.0</ele><time>2026-05-03T16:24:58.941Z</time></trkpt><trkpt lat="36.6462418" lon="9.7595462"><ele>88.5</ele><time>2026-05-03T16:24:59.917Z</time></trkpt><trkpt lat="36.6461741" lon="9.7598532"><ele>89.0</ele><time>2026-05-03T16:25:00.905Z</time></trkpt><trkpt lat="36.6461066" lon="9.7601581"><ele>88.0</ele><time>2026-05-03T16:25:01.946Z</time></trkpt><trkpt lat="36.6460367" lon="9.7604624"><ele>87.0</ele><time>2026-05-03T16:25:02.908Z</time></trkpt><trkpt lat="36.6459701" lon="9.7607668"><ele>87.5</ele><time>2026-05-03T16:25:03.926Z</time></trkpt><trkpt lat="36.6459057" lon="9.7610715"><ele>88.0</ele><time>2026-05-03T16:25:04.948Z</time></trkpt><trkpt lat="36.6458411" lon="9.7613838"><ele>88.0</ele><time>2026-05-03T16:25:05.917Z</time></trkpt><trkpt lat="36.6457773" lon="9.7616951"><ele>88.0</ele><time>2026-05-03T16:25:06.921Z</time></trkpt><trkpt lat="36.6457147" lon="9.7620065"><ele>87.5</ele><time>2026-05-03T16:25:07.933Z</time></trkpt><trkpt lat="36.6456563" lon="9.7623175"><ele>87.0</ele><time>2026-05-03T16:25:08.949Z</time></trkpt><trkpt lat="36.6456032" lon="9.7626273"><ele>88.5</ele><time>2026-05-03T16:25:09.954Z</time></trkpt><trkpt lat="36.6455563" lon="9.7629356"><ele>90.0</ele><time>2026-05-03T16:25:10.923Z</time></trkpt><trkpt lat="36.6455116" lon="9.7632479"><ele>91.0</ele><time>2026-05-03T16:25:11.94Z</time></trkpt><trkpt lat="36.64547" lon="9.7635617"><ele>92.0</ele><time>2026-05-03T16:25:12.918Z</time></trkpt><trkpt lat="36.6454285" lon="9.7638775"><ele>92.0</ele><time>2026-05-03T16:25:13.939Z</time></trkpt><trkpt lat="36.6453926" lon="9.7641924"><ele>92.0</ele><time>2026-05-03T16:25:14.928Z</time></trkpt><trkpt lat="36.6453626" lon="9.7645056"><ele>92.5</ele><time>2026-05-03T16:25:15.917Z</time></trkpt><trkpt lat="36.645338" lon="9.7648185"><ele>93.0</ele><time>2026-05-03T16:25:16.954Z</time></trkpt><trkpt lat="36.6453171" lon="9.7651329"><ele>93.5</ele><time>2026-05-03T16:25:17.931Z</time></trkpt><trkpt lat="36.6452999" lon="9.7654453"><ele>94.0</ele><time>2026-05-03T16:25:18.923Z</time></trkpt><trkpt lat="36.6452891" lon="9.7657631"><ele>95.0</ele><time>2026-05-03T16:25:19.929Z</time></trkpt><trkpt lat="36.6452796" lon="9.7660799"><ele>96.0</ele><time>2026-05-03T16:25:20.928Z</time></trkpt><trkpt lat="36.6452724" lon="9.7663963"><ele>96.0</ele><time>2026-05-03T16:25:21.915Z</time></trkpt><trkpt lat="36.6452683" lon="9.7667113"><ele>96.0</ele><time>2026-05-03T16:25:22.922Z</time></trkpt><trkpt lat="36.645268" lon="9.7670302"><ele>96.0</ele><time>2026-05-03T16:25:23.932Z</time></trkpt><trkpt lat="36.6452744" lon="9.7673467"><ele>96.0</ele><time>2026-05-03T16:25:24.932Z</time></trkpt><trkpt lat="36.6452853" lon="9.7676614"><ele>96.5</ele><time>2026-05-03T16:25:25.927Z</time></trkpt><trkpt lat="36.6452984" lon="9.7679789"><ele>97.0</ele><time>2026-05-03T16:25:26.933Z</time></trkpt><trkpt lat="36.6453159" lon="9.7682977"><ele>98.0</ele><time>2026-05-03T16:25:27.929Z</time></trkpt><trkpt lat="36.6453358" lon="9.7686177"><ele>99.0</ele><time>2026-05-03T16:25:28.923Z</time></trkpt><trkpt lat="36.6453622" lon="9.768931"><ele>99.0</ele><time>2026-05-03T16:25:29.948Z</time></trkpt><trkpt lat="36.6453932" lon="9.7692459"><ele>99.0</ele><time>2026-05-03T16:25:30.924Z</time></trkpt><trkpt lat="36.6454254" lon="9.7695616"><ele>99.0</ele><time>2026-05-03T16:25:31.924Z</time></trkpt><trkpt lat="36.6454594" lon="9.7698748"><ele>99.0</ele><time>2026-05-03T16:25:32.928Z</time></trkpt><trkpt lat="36.645501" lon="9.7701918"><ele>100.0</ele><time>2026-05-03T16:25:33.94Z</time></trkpt><trkpt lat="36.6455476" lon="9.7705037"><ele>101.0</ele><time>2026-05-03T16:25:34.934Z</time></trkpt><trkpt lat="36.6456016" lon="9.77082"><ele>102.5</ele><time>2026-05-03T16:25:35.912Z</time></trkpt><trkpt lat="36.6456647" lon="9.7711276"><ele>104.0</ele><time>2026-05-03T16:25:36.934Z</time></trkpt><trkpt lat="36.6457313" lon="9.7714318"><ele>104.0</ele><time>2026-05-03T16:25:37.934Z</time></trkpt><trkpt lat="36.6458044" lon="9.771735"><ele>104.0</ele><time>2026-05-03T16:25:38.906Z</time></trkpt><trkpt lat="36.6458745" lon="9.7720413"><ele>107.0</ele><time>2026-05-03T16:25:39.928Z</time></trkpt><trkpt lat="36.6459424" lon="9.772346"><ele>110.0</ele><time>2026-05-03T16:25:40.949Z</time></trkpt><trkpt lat="36.6460125" lon="9.7726541"><ele>110.5</ele><time>2026-05-03T16:25:41.955Z</time></trkpt><trkpt lat="36.6460858" lon="9.7729603"><ele>111.0</ele><time>2026-05-03T16:25:42.938Z</time></trkpt><trkpt lat="36.6461607" lon="9.7732579"><ele>110.0</ele><time>2026-05-03T16:25:43.934Z</time></trkpt><trkpt lat="36.6462465" lon="9.7735562"><ele>109.0</ele><time>2026-05-03T16:25:44.938Z</time></trkpt><trkpt lat="36.6463351" lon="9.773854"><ele>109.0</ele><time>2026-05-03T16:25:45.936Z</time></trkpt><trkpt lat="36.6464289" lon="9.7741488"><ele>109.0</ele><time>2026-05-03T16:25:46.93Z</time></trkpt><trkpt lat="36.6465254" lon="9.7744397"><ele>109.5</ele><time>2026-05-03T16:25:47.944Z</time></trkpt><trkpt lat="36.6466272" lon="9.7747276"><ele>110.0</ele><time>2026-05-03T16:25:48.938Z</time></trkpt><trkpt lat="36.6467315" lon="9.7750238"><ele>110.5</ele><time>2026-05-03T16:25:49.928Z</time></trkpt><trkpt lat="36.6468344" lon="9.7753133"><ele>111.0</ele><time>2026-05-03T16:25:50.952Z</time></trkpt><trkpt lat="36.6469349" lon="9.7756056"><ele>111.0</ele><time>2026-05-03T16:25:51.942Z</time></trkpt><trkpt lat="36.6470413" lon="9.7758924"><ele>111.0</ele><time>2026-05-03T16:25:52.955Z</time></trkpt><trkpt lat="36.6471507" lon="9.7761814"><ele>110.0</ele><time>2026-05-03T16:25:53.934Z</time></trkpt><trkpt lat="36.6472702" lon="9.7764602"><ele>109.0</ele><time>2026-05-03T16:25:54.932Z</time></trkpt><trkpt lat="36.6473961" lon="9.7767411"><ele>108.5</ele><time>2026-05-03T16:25:55.949Z</time></trkpt><trkpt lat="36.6475219" lon="9.7770176"><ele>108.0</ele><time>2026-05-03T16:25:56.931Z</time></trkpt><trkpt lat="36.6476494" lon="9.777295"><ele>108.0</ele><time>2026-05-03T16:25:57.951Z</time></trkpt><trkpt lat="36.6477771" lon="9.7775767"><ele>108.0</ele><time>2026-05-03T16:25:58.927Z</time></trkpt><trkpt lat="36.6479027" lon="9.7778558"><ele>108.0</ele><time>2026-05-03T16:25:59.943Z</time></trkpt><trkpt lat="36.6480303" lon="9.7781285"><ele>108.0</ele><time>2026-05-03T16:26:00.944Z</time></trkpt><trkpt lat="36.6481535" lon="9.7784029"><ele>107.0</ele><time>2026-05-03T16:26:01.938Z</time></trkpt><trkpt lat="36.6482806" lon="9.7786766"><ele>106.0</ele><time>2026-05-03T16:26:02.943Z</time></trkpt><trkpt lat="36.6484085" lon="9.7789537"><ele>106.0</ele><time>2026-05-03T16:26:03.945Z</time></trkpt><trkpt lat="36.6485341" lon="9.7792312"><ele>106.0</ele><time>2026-05-03T16:26:04.93Z</time></trkpt><trkpt lat="36.6486596" lon="9.7795077"><ele>105.0</ele><time>2026-05-03T16:26:05.946Z</time></trkpt><trkpt lat="36.6487843" lon="9.77979"><ele>104.0</ele><time>2026-05-03T16:26:06.937Z</time></trkpt><trkpt lat="36.6489126" lon="9.7800676"><ele>104.0</ele><time>2026-05-03T16:26:07.939Z</time></trkpt><trkpt lat="36.649042" lon="9.7803461"><ele>104.0</ele><time>2026-05-03T16:26:08.935Z</time></trkpt><trkpt lat="36.6491721" lon="9.7806115"><ele>104.0</ele><time>2026-05-03T16:26:09.937Z</time></trkpt><trkpt lat="36.6493025" lon="9.7808851"><ele>104.0</ele><time>2026-05-03T16:26:10.936Z</time></trkpt><trkpt lat="36.6494316" lon="9.7811618"><ele>103.5</ele><time>2026-05-03T16:26:11.92Z</time></trkpt><trkpt lat="36.6495584" lon="9.7814342"><ele>103.0</ele><time>2026-05-03T16:26:12.931Z</time></trkpt><trkpt lat="36.6496856" lon="9.7817087"><ele>102.0</ele><time>2026-05-03T16:26:13.925Z</time></trkpt><trkpt lat="36.6498099" lon="9.7819848"><ele>101.0</ele><time>2026-05-03T16:26:14.953Z</time></trkpt><trkpt lat="36.649935" lon="9.7822609"><ele>101.0</ele><time>2026-05-03T16:26:15.935Z</time></trkpt><trkpt lat="36.6500588" lon="9.7825389"><ele>101.0</ele><time>2026-05-03T16:26:16.937Z</time></trkpt><trkpt lat="36.6501867" lon="9.7828165"><ele>100.0</ele><time>2026-05-03T16:26:17.943Z</time></trkpt><trkpt lat="36.6503133" lon="9.7830913"><ele>99.0</ele><time>2026-05-03T16:26:18.939Z</time></trkpt><trkpt lat="36.6504416" lon="9.7833644"><ele>99.0</ele><time>2026-05-03T16:26:19.93Z</time></trkpt><trkpt lat="36.6505676" lon="9.7836385"><ele>99.0</ele><time>2026-05-03T16:26:20.941Z</time></trkpt><trkpt lat="36.6506915" lon="9.7839111"><ele>99.0</ele><time>2026-05-03T16:26:21.942Z</time></trkpt><trkpt lat="36.6508213" lon="9.7841876"><ele>99.0</ele><time>2026-05-03T16:26:22.939Z</time></trkpt><trkpt lat="36.6509558" lon="9.7844654"><ele>99.5</ele><time>2026-05-03T16:26:23.942Z</time></trkpt><trkpt lat="36.6510869" lon="9.7847425"><ele>100.0</ele><time>2026-05-03T16:26:24.943Z</time></trkpt><trkpt lat="36.6512109" lon="9.7850213"><ele>97.5</ele><time>2026-05-03T16:26:25.901Z</time></trkpt><trkpt lat="36.651337" lon="9.7852964"><ele>95.0</ele><time>2026-05-03T16:26:26.899Z</time></trkpt><trkpt lat="36.6514642" lon="9.7855749"><ele>95.0</ele><time>2026-05-03T16:26:27.956Z</time></trkpt><trkpt lat="36.6515909" lon="9.785849"><ele>95.0</ele><time>2026-05-03T16:26:28.898Z</time></trkpt><trkpt lat="36.6517203" lon="9.7861242"><ele>95.0</ele><time>2026-05-03T16:26:29.902Z</time></trkpt><trkpt lat="36.6518511" lon="9.7864005"><ele>95.0</ele><time>2026-05-03T16:26:30.906Z</time></trkpt><trkpt lat="36.6519767" lon="9.7866757"><ele>94.5</ele><time>2026-05-03T16:26:31.939Z</time></trkpt><trkpt lat="36.6520994" lon="9.7869536"><ele>94.0</ele><time>2026-05-03T16:26:32.915Z</time></trkpt><trkpt lat="36.652225" lon="9.7872316"><ele>94.0</ele><time>2026-05-03T16:26:33.909Z</time></trkpt><trkpt lat="36.652353" lon="9.7875058"><ele>94.0</ele><time>2026-05-03T16:26:34.936Z</time></trkpt><trkpt lat="36.6524738" lon="9.7877772"><ele>95.0</ele><time>2026-05-03T16:26:35.9Z</time></trkpt><trkpt lat="36.6525974" lon="9.7880602"><ele>96.0</ele><time>2026-05-03T16:26:36.936Z</time></trkpt><trkpt lat="36.6527257" lon="9.7883424"><ele>95.5</ele><time>2026-05-03T16:26:37.91Z</time></trkpt><trkpt lat="36.6528498" lon="9.7886228"><ele>95.0</ele><time>2026-05-03T16:26:38.919Z</time></trkpt><trkpt lat="36.6529685" lon="9.7888967"><ele>95.0</ele><time>2026-05-03T16:26:39.904Z</time></trkpt><trkpt lat="36.6530958" lon="9.789169"><ele>95.0</ele><time>2026-05-03T16:26:40.932Z</time></trkpt><trkpt lat="36.6532206" lon="9.7894444"><ele>96.0</ele><time>2026-05-03T16:26:41.934Z</time></trkpt><trkpt lat="36.6533435" lon="9.7897289"><ele>97.0</ele><time>2026-05-03T16:26:42.94Z</time></trkpt><trkpt lat="36.6534612" lon="9.7900083"><ele>96.5</ele><time>2026-05-03T16:26:43.905Z</time></trkpt><trkpt lat="36.6535851" lon="9.7902851"><ele>96.0</ele><time>2026-05-03T16:26:44.934Z</time></trkpt><trkpt lat="36.6537089" lon="9.7905627"><ele>95.5</ele><time>2026-05-03T16:26:45.921Z</time></trkpt><trkpt lat="36.6538318" lon="9.7908393"><ele>95.0</ele><time>2026-05-03T16:26:46.939Z</time></trkpt><trkpt lat="36.6539505" lon="9.7911184"><ele>95.0</ele><time>2026-05-03T16:26:47.926Z</time></trkpt><trkpt lat="36.6540725" lon="9.7914005"><ele>95.0</ele><time>2026-05-03T16:26:48.918Z</time></trkpt><trkpt lat="36.6541948" lon="9.7916832"><ele>94.5</ele><time>2026-05-03T16:26:49.935Z</time></trkpt><trkpt lat="36.6543225" lon="9.7919612"><ele>94.0</ele><time>2026-05-03T16:26:50.938Z</time></trkpt><trkpt lat="36.6544473" lon="9.7922404"><ele>94.0</ele><time>2026-05-03T16:26:51.94Z</time></trkpt><trkpt lat="36.6545745" lon="9.7925192"><ele>94.0</ele><time>2026-05-03T16:26:52.94Z</time></trkpt><trkpt lat="36.6546953" lon="9.7927976"><ele>94.0</ele><time>2026-05-03T16:26:53.929Z</time></trkpt><trkpt lat="36.654819" lon="9.7930779"><ele>94.0</ele><time>2026-05-03T16:26:54.938Z</time></trkpt><trkpt lat="36.654942" lon="9.7933581"><ele>94.5</ele><time>2026-05-03T16:26:55.952Z</time></trkpt><trkpt lat="36.655064" lon="9.7936378"><ele>95.0</ele><time>2026-05-03T16:26:56.9Z</time></trkpt><trkpt lat="36.6551881" lon="9.7939167"><ele>93.5</ele><time>2026-05-03T16:26:57.929Z</time></trkpt><trkpt lat="36.6553111" lon="9.7941969"><ele>92.0</ele><time>2026-05-03T16:26:58.933Z</time></trkpt><trkpt lat="36.6554349" lon="9.794476"><ele>92.0</ele><time>2026-05-03T16:26:59.925Z</time></trkpt><trkpt lat="36.6555584" lon="9.7947516"><ele>92.0</ele><time>2026-05-03T16:27:00.924Z</time></trkpt><trkpt lat="36.6556818" lon="9.7950242"><ele>93.0</ele><time>2026-05-03T16:27:01.923Z</time></trkpt><trkpt lat="36.655809" lon="9.7953049"><ele>94.0</ele><time>2026-05-03T16:27:02.931Z</time></trkpt><trkpt lat="36.6559323" lon="9.7955893"><ele>94.0</ele><time>2026-05-03T16:27:03.939Z</time></trkpt><trkpt lat="36.6560539" lon="9.7958721"><ele>94.0</ele><time>2026-05-03T16:27:04.94Z</time></trkpt><trkpt lat="36.6561754" lon="9.7961514"><ele>93.5</ele><time>2026-05-03T16:27:05.945Z</time></trkpt><trkpt lat="36.656297" lon="9.7964314"><ele>93.0</ele><time>2026-05-03T16:27:06.908Z</time></trkpt><trkpt lat="36.6564154" lon="9.7967084"><ele>93.0</ele><time>2026-05-03T16:27:07.941Z</time></trkpt><trkpt lat="36.6565418" lon="9.7969869"><ele>93.0</ele><time>2026-05-03T16:27:08.937Z</time></trkpt><trkpt lat="36.6566641" lon="9.797267"><ele>93.0</ele><time>2026-05-03T16:27:09.938Z</time></trkpt><trkpt lat="36.6567918" lon="9.7975487"><ele>93.0</ele><time>2026-05-03T16:27:10.943Z</time></trkpt><trkpt lat="36.6569209" lon="9.7978243"><ele>92.5</ele><time>2026-05-03T16:27:11.936Z</time></trkpt><trkpt lat="36.6570438" lon="9.7981021"><ele>92.0</ele><time>2026-05-03T16:27:12.932Z</time></trkpt><trkpt lat="36.6571616" lon="9.7983831"><ele>92.0</ele><time>2026-05-03T16:27:13.943Z</time></trkpt><trkpt lat="36.657276" lon="9.7986666"><ele>92.0</ele><time>2026-05-03T16:27:14.93Z</time></trkpt><trkpt lat="36.6573909" lon="9.7989527"><ele>92.0</ele><time>2026-05-03T16:27:15.938Z</time></trkpt><trkpt lat="36.6575071" lon="9.7992351"><ele>92.0</ele><time>2026-05-03T16:27:16.943Z</time></trkpt><trkpt lat="36.6576166" lon="9.7995239"><ele>92.0</ele><time>2026-05-03T16:27:17.945Z</time></trkpt><trkpt lat="36.6577229" lon="9.7998087"><ele>92.0</ele><time>2026-05-03T16:27:18.924Z</time></trkpt><trkpt lat="36.6578262" lon="9.8000978"><ele>92.0</ele><time>2026-05-03T16:27:19.938Z</time></trkpt><trkpt lat="36.6579252" lon="9.8003865"><ele>92.0</ele><time>2026-05-03T16:27:20.944Z</time></trkpt><trkpt lat="36.658018" lon="9.8006759"><ele>92.0</ele><time>2026-05-03T16:27:21.939Z</time></trkpt><trkpt lat="36.6581127" lon="9.800968"><ele>92.0</ele><time>2026-05-03T16:27:22.948Z</time></trkpt><trkpt lat="36.6582082" lon="9.8012636"><ele>92.0</ele><time>2026-05-03T16:27:23.938Z</time></trkpt><trkpt lat="36.6582993" lon="9.801561"><ele>92.0</ele><time>2026-05-03T16:27:24.935Z</time></trkpt><trkpt lat="36.6583901" lon="9.8018581"><ele>92.0</ele><time>2026-05-03T16:27:25.942Z</time></trkpt><trkpt lat="36.6584735" lon="9.8021544"><ele>92.0</ele><time>2026-05-03T16:27:26.928Z</time></trkpt><trkpt lat="36.6585584" lon="9.8024574"><ele>91.5</ele><time>2026-05-03T16:27:27.936Z</time></trkpt><trkpt lat="36.6586408" lon="9.8027561"><ele>91.0</ele><time>2026-05-03T16:27:28.918Z</time></trkpt><trkpt lat="36.6587186" lon="9.803058"><ele>91.0</ele><time>2026-05-03T16:27:29.95Z</time></trkpt><trkpt lat="36.6587964" lon="9.8033596"><ele>91.0</ele><time>2026-05-03T16:27:30.93Z</time></trkpt><trkpt lat="36.6588679" lon="9.8036616"><ele>91.0</ele><time>2026-05-03T16:27:31.96Z</time></trkpt><trkpt lat="36.6589372" lon="9.8039652"><ele>91.0</ele><time>2026-05-03T16:27:32.943Z</time></trkpt><trkpt lat="36.6589996" lon="9.804272"><ele>91.0</ele><time>2026-05-03T16:27:33.917Z</time></trkpt><trkpt lat="36.6590607" lon="9.8045778"><ele>91.0</ele><time>2026-05-03T16:27:34.939Z</time></trkpt><trkpt lat="36.6591218" lon="9.8048882"><ele>90.5</ele><time>2026-05-03T16:27:35.949Z</time></trkpt><trkpt lat="36.6591811" lon="9.8051982"><ele>90.0</ele><time>2026-05-03T16:27:36.934Z</time></trkpt><trkpt lat="36.6592395" lon="9.8055087"><ele>90.0</ele><time>2026-05-03T16:27:37.927Z</time></trkpt><trkpt lat="36.6592987" lon="9.8058193"><ele>90.0</ele><time>2026-05-03T16:27:38.941Z</time></trkpt><trkpt lat="36.6593521" lon="9.8061313"><ele>89.0</ele><time>2026-05-03T16:27:39.929Z</time></trkpt><trkpt lat="36.6594024" lon="9.8064453"><ele>88.0</ele><time>2026-05-03T16:27:40.942Z</time></trkpt><trkpt lat="36.659448" lon="9.806763"><ele>90.0</ele><time>2026-05-03T16:27:41.945Z</time></trkpt><trkpt lat="36.6594906" lon="9.8070773"><ele>92.0</ele><time>2026-05-03T16:27:42.933Z</time></trkpt><trkpt lat="36.6595291" lon="9.8073974"><ele>92.5</ele><time>2026-05-03T16:27:43.944Z</time></trkpt><trkpt lat="36.6595674" lon="9.8077124"><ele>93.0</ele><time>2026-05-03T16:27:44.951Z</time></trkpt><trkpt lat="36.6596011" lon="9.8080285"><ele>93.0</ele><time>2026-05-03T16:27:45.943Z</time></trkpt><trkpt lat="36.6596275" lon="9.8083455"><ele>93.0</ele><time>2026-05-03T16:27:46.947Z</time></trkpt><trkpt lat="36.6596623" lon="9.8086663"><ele>92.5</ele><time>2026-05-03T16:27:47.935Z</time></trkpt><trkpt lat="36.6596988" lon="9.8090027"><ele>92.0</ele><time>2026-05-03T16:27:48.939Z</time></trkpt><trkpt lat="36.6597367" lon="9.809365"><ele>92.0</ele><time>2026-05-03T16:27:49.956Z</time></trkpt><trkpt lat="36.6597729" lon="9.8097287"><ele>92.0</ele><time>2026-05-03T16:27:50.95Z</time></trkpt><trkpt lat="36.6598002" lon="9.8100915"><ele>91.5</ele><time>2026-05-03T16:27:51.944Z</time></trkpt><trkpt lat="36.6598167" lon="9.8104443"><ele>91.0</ele><time>2026-05-03T16:27:52.937Z</time></trkpt><trkpt lat="36.6598233" lon="9.8107836"><ele>91.5</ele><time>2026-05-03T16:27:53.946Z</time></trkpt><trkpt lat="36.6598243" lon="9.8111088"><ele>92.0</ele><time>2026-05-03T16:27:54.943Z</time></trkpt><trkpt lat="36.6598277" lon="9.8114249"><ele>92.0</ele><time>2026-05-03T16:27:55.941Z</time></trkpt><trkpt lat="36.6598314" lon="9.8117415"><ele>92.0</ele><time>2026-05-03T16:27:56.945Z</time></trkpt><trkpt lat="36.6598335" lon="9.8120557"><ele>91.5</ele><time>2026-05-03T16:27:57.946Z</time></trkpt><trkpt lat="36.6598364" lon="9.8123692"><ele>91.0</ele><time>2026-05-03T16:27:58.914Z</time></trkpt><trkpt lat="36.6598308" lon="9.8126879"><ele>92.0</ele><time>2026-05-03T16:27:59.94Z</time></trkpt><trkpt lat="36.6598244" lon="9.8130065"><ele>93.0</ele><time>2026-05-03T16:28:00.921Z</time></trkpt><trkpt lat="36.6598148" lon="9.813323"><ele>93.0</ele><time>2026-05-03T16:28:01.946Z</time></trkpt><trkpt lat="36.6598035" lon="9.8136404"><ele>93.0</ele><time>2026-05-03T16:28:02.925Z</time></trkpt><trkpt lat="36.6597904" lon="9.8139527"><ele>93.0</ele><time>2026-05-03T16:28:03.946Z</time></trkpt><trkpt lat="36.6597757" lon="9.8142636"><ele>93.0</ele><time>2026-05-03T16:28:04.941Z</time></trkpt><trkpt lat="36.6597556" lon="9.8145759"><ele>93.0</ele><time>2026-05-03T16:28:05.937Z</time></trkpt><trkpt lat="36.6597357" lon="9.8148896"><ele>93.0</ele><time>2026-05-03T16:28:06.942Z</time></trkpt><trkpt lat="36.6597125" lon="9.8152086"><ele>94.0</ele><time>2026-05-03T16:28:07.951Z</time></trkpt><trkpt lat="36.6596927" lon="9.8155231"><ele>95.0</ele><time>2026-05-03T16:28:08.935Z</time></trkpt><trkpt lat="36.6596743" lon="9.8158459"><ele>96.0</ele><time>2026-05-03T16:28:09.941Z</time></trkpt><trkpt lat="36.6596482" lon="9.816164"><ele>97.0</ele><time>2026-05-03T16:28:10.943Z</time></trkpt><trkpt lat="36.6596295" lon="9.816475"><ele>97.0</ele><time>2026-05-03T16:28:11.92Z</time></trkpt><trkpt lat="36.6596095" lon="9.8167659"><ele>97.0</ele><time>2026-05-03T16:28:12.934Z</time></trkpt><trkpt lat="36.6595854" lon="9.8170366"><ele>97.66666666666667</ele><time>2026-05-03T16:28:13.94Z</time></trkpt><trkpt lat="36.6595698" lon="9.8172905"><ele>98.33333333333334</ele><time>2026-05-03T16:28:14.937Z</time></trkpt><trkpt lat="36.6595567" lon="9.8175358"><ele>99.0</ele><time>2026-05-03T16:28:15.964Z</time></trkpt><trkpt lat="36.6595417" lon="9.8177848"><ele>100.0</ele><time>2026-05-03T16:28:16.929Z</time></trkpt><trkpt lat="36.6595235" lon="9.8180376"><ele>101.0</ele><time>2026-05-03T16:28:17.946Z</time></trkpt><trkpt lat="36.6595019" lon="9.8182965"><ele>102.0</ele><time>2026-05-03T16:28:18.955Z</time></trkpt><trkpt lat="36.6594842" lon="9.8185592"><ele>103.33333333333334</ele><time>2026-05-03T16:28:19.907Z</time></trkpt><trkpt lat="36.6594782" lon="9.8188261"><ele>104.66666666666667</ele><time>2026-05-03T16:28:20.941Z</time></trkpt><trkpt lat="36.6594761" lon="9.819101"><ele>106.0</ele><time>2026-05-03T16:28:21.94Z</time></trkpt><trkpt lat="36.6594734" lon="9.8193767"><ele>106.5</ele><time>2026-05-03T16:28:22.926Z</time></trkpt><trkpt lat="36.659464" lon="9.8196599"><ele>107.0</ele><time>2026-05-03T16:28:23.938Z</time></trkpt><trkpt lat="36.6594491" lon="9.8199572"><ele>106.5</ele><time>2026-05-03T16:28:24.923Z</time></trkpt><trkpt lat="36.6594318" lon="9.8202633"><ele>106.0</ele><time>2026-05-03T16:28:25.957Z</time></trkpt><trkpt lat="36.6594123" lon="9.8205777"><ele>106.0</ele><time>2026-05-03T16:28:26.946Z</time></trkpt><trkpt lat="36.6593889" lon="9.820908"><ele>106.0</ele><time>2026-05-03T16:28:27.951Z</time></trkpt><trkpt lat="36.6593701" lon="9.8212304"><ele>104.5</ele><time>2026-05-03T16:28:28.967Z</time></trkpt><trkpt lat="36.6593501" lon="9.8215504"><ele>103.0</ele><time>2026-05-03T16:28:29.94Z</time></trkpt><trkpt lat="36.6593268" lon="9.821869"><ele>102.5</ele><time>2026-05-03T16:28:30.932Z</time></trkpt><trkpt lat="36.6593019" lon="9.8221839"><ele>102.0</ele><time>2026-05-03T16:28:31.915Z</time></trkpt><trkpt lat="36.6592775" lon="9.8225033"><ele>102.0</ele><time>2026-05-03T16:28:32.933Z</time></trkpt><trkpt lat="36.6592577" lon="9.8228137"><ele>102.0</ele><time>2026-05-03T16:28:33.936Z</time></trkpt><trkpt lat="36.659239" lon="9.8231324"><ele>102.0</ele><time>2026-05-03T16:28:34.913Z</time></trkpt><trkpt lat="36.6592223" lon="9.8234566"><ele>102.0</ele><time>2026-05-03T16:28:35.917Z</time></trkpt><trkpt lat="36.6592011" lon="9.8237761"><ele>102.0</ele><time>2026-05-03T16:28:36.937Z</time></trkpt><trkpt lat="36.6591797" lon="9.824092"><ele>102.0</ele><time>2026-05-03T16:28:37.924Z</time></trkpt><trkpt lat="36.6591609" lon="9.824407"><ele>101.5</ele><time>2026-05-03T16:28:38.933Z</time></trkpt><trkpt lat="36.6591403" lon="9.8247266"><ele>101.0</ele><time>2026-05-03T16:28:39.956Z</time></trkpt><trkpt lat="36.6591171" lon="9.82505"><ele>102.5</ele><time>2026-05-03T16:28:40.942Z</time></trkpt><trkpt lat="36.6590951" lon="9.8253651"><ele>104.0</ele><time>2026-05-03T16:28:41.954Z</time></trkpt><trkpt lat="36.6590685" lon="9.8256864"><ele>104.0</ele><time>2026-05-03T16:28:42.943Z</time></trkpt><trkpt lat="36.659047" lon="9.8259999"><ele>104.0</ele><time>2026-05-03T16:28:43.911Z</time></trkpt><trkpt lat="36.6590252" lon="9.8263158"><ele>104.0</ele><time>2026-05-03T16:28:44.935Z</time></trkpt><trkpt lat="36.6590076" lon="9.8266321"><ele>104.0</ele><time>2026-05-03T16:28:45.918Z</time></trkpt><trkpt lat="36.6589887" lon="9.8269414"><ele>104.5</ele><time>2026-05-03T16:28:46.932Z</time></trkpt><trkpt lat="36.6589695" lon="9.8272593"><ele>105.0</ele><time>2026-05-03T16:28:47.928Z</time></trkpt><trkpt lat="36.6589549" lon="9.8275743"><ele>105.0</ele><time>2026-05-03T16:28:48.939Z</time></trkpt><trkpt lat="36.6589346" lon="9.8278925"><ele>105.0</ele><time>2026-05-03T16:28:49.94Z</time></trkpt><trkpt lat="36.6589122" lon="9.8282115"><ele>105.0</ele><time>2026-05-03T16:28:50.937Z</time></trkpt><trkpt lat="36.6588873" lon="9.8285256"><ele>105.0</ele><time>2026-05-03T16:28:51.939Z</time></trkpt><trkpt lat="36.658858" lon="9.8288427"><ele>105.0</ele><time>2026-05-03T16:28:52.945Z</time></trkpt><trkpt lat="36.6588325" lon="9.8291586"><ele>105.0</ele><time>2026-05-03T16:28:53.941Z</time></trkpt><trkpt lat="36.6588053" lon="9.8294791"><ele>105.5</ele><time>2026-05-03T16:28:54.94Z</time></trkpt><trkpt lat="36.6587869" lon="9.8297958"><ele>106.0</ele><time>2026-05-03T16:28:55.938Z</time></trkpt><trkpt lat="36.6587722" lon="9.8301186"><ele>105.5</ele><time>2026-05-03T16:28:56.929Z</time></trkpt><trkpt lat="36.658757" lon="9.8304338"><ele>105.0</ele><time>2026-05-03T16:28:57.954Z</time></trkpt><trkpt lat="36.6587494" lon="9.8307477"><ele>103.5</ele><time>2026-05-03T16:28:58.915Z</time></trkpt><trkpt lat="36.6587444" lon="9.8310628"><ele>102.0</ele><time>2026-05-03T16:28:59.931Z</time></trkpt><trkpt lat="36.6587418" lon="9.8313763"><ele>102.0</ele><time>2026-05-03T16:29:00.943Z</time></trkpt><trkpt lat="36.6587477" lon="9.8316941"><ele>102.0</ele><time>2026-05-03T16:29:01.946Z</time></trkpt><trkpt lat="36.658752" lon="9.8320142"><ele>101.0</ele><time>2026-05-03T16:29:02.956Z</time></trkpt><trkpt lat="36.6587572" lon="9.8323313"><ele>100.0</ele><time>2026-05-03T16:29:03.915Z</time></trkpt><trkpt lat="36.6587645" lon="9.8326469"><ele>99.0</ele><time>2026-05-03T16:29:04.93Z</time></trkpt><trkpt lat="36.6587746" lon="9.8329675"><ele>98.0</ele><time>2026-05-03T16:29:05.938Z</time></trkpt><trkpt lat="36.6587859" lon="9.833289"><ele>98.5</ele><time>2026-05-03T16:29:06.927Z</time></trkpt><trkpt lat="36.6588036" lon="9.8336055"><ele>99.0</ele><time>2026-05-03T16:29:07.931Z</time></trkpt><trkpt lat="36.6588242" lon="9.8339239"><ele>99.0</ele><time>2026-05-03T16:29:08.937Z</time></trkpt><trkpt lat="36.6588409" lon="9.8342387"><ele>99.0</ele><time>2026-05-03T16:29:09.928Z</time></trkpt><trkpt lat="36.6588562" lon="9.8345587"><ele>98.5</ele><time>2026-05-03T16:29:10.917Z</time></trkpt><trkpt lat="36.6588777" lon="9.8348742"><ele>98.0</ele><time>2026-05-03T16:29:11.932Z</time></trkpt><trkpt lat="36.6589029" lon="9.83519"><ele>99.0</ele><time>2026-05-03T16:29:12.946Z</time></trkpt><trkpt lat="36.6589335" lon="9.8355067"><ele>100.0</ele><time>2026-05-03T16:29:13.941Z</time></trkpt><trkpt lat="36.6589712" lon="9.8358176"><ele>101.0</ele><time>2026-05-03T16:29:14.936Z</time></trkpt><trkpt lat="36.6590002" lon="9.8361288"><ele>102.0</ele><time>2026-05-03T16:29:15.958Z</time></trkpt><trkpt lat="36.6590386" lon="9.8364419"><ele>102.0</ele><time>2026-05-03T16:29:16.929Z</time></trkpt><trkpt lat="36.6590788" lon="9.8367529"><ele>102.0</ele><time>2026-05-03T16:29:17.935Z</time></trkpt><trkpt lat="36.6591193" lon="9.8370657"><ele>102.5</ele><time>2026-05-03T16:29:18.931Z</time></trkpt><trkpt lat="36.6591673" lon="9.8373793"><ele>103.0</ele><time>2026-05-03T16:29:19.944Z</time></trkpt><trkpt lat="36.6592133" lon="9.8376965"><ele>103.0</ele><time>2026-05-03T16:29:20.944Z</time></trkpt><trkpt lat="36.6592599" lon="9.8380076"><ele>103.0</ele><time>2026-05-03T16:29:21.954Z</time></trkpt><trkpt lat="36.6593082" lon="9.8383186"><ele>103.5</ele><time>2026-05-03T16:29:22.931Z</time></trkpt><trkpt lat="36.6593604" lon="9.8386294"><ele>104.0</ele><time>2026-05-03T16:29:23.939Z</time></trkpt><trkpt lat="36.6594166" lon="9.8389403"><ele>102.5</ele><time>2026-05-03T16:29:24.962Z</time></trkpt><trkpt lat="36.6594751" lon="9.8392525"><ele>101.0</ele><time>2026-05-03T16:29:25.923Z</time></trkpt><trkpt lat="36.6595355" lon="9.8395595"><ele>101.0</ele><time>2026-05-03T16:29:26.938Z</time></trkpt><trkpt lat="36.6595983" lon="9.8398671"><ele>101.0</ele><time>2026-05-03T16:29:27.944Z</time></trkpt><trkpt lat="36.6596605" lon="9.8401763"><ele>101.0</ele><time>2026-05-03T16:29:28.936Z</time></trkpt><trkpt lat="36.6597268" lon="9.8404851"><ele>101.0</ele><time>2026-05-03T16:29:29.943Z</time></trkpt><trkpt lat="36.6597924" lon="9.8407885"><ele>101.5</ele><time>2026-05-03T16:29:30.938Z</time></trkpt><trkpt lat="36.6598665" lon="9.8410913"><ele>102.0</ele><time>2026-05-03T16:29:31.937Z</time></trkpt><trkpt lat="36.6599419" lon="9.8413962"><ele>102.0</ele><time>2026-05-03T16:29:32.938Z</time></trkpt><trkpt lat="36.6600159" lon="9.8416997"><ele>102.0</ele><time>2026-05-03T16:29:33.947Z</time></trkpt><trkpt lat="36.6600965" lon="9.8420005"><ele>102.5</ele><time>2026-05-03T16:29:34.953Z</time></trkpt><trkpt lat="36.6601775" lon="9.8423002"><ele>103.0</ele><time>2026-05-03T16:29:35.909Z</time></trkpt><trkpt lat="36.6602611" lon="9.842597"><ele>102.5</ele><time>2026-05-03T16:29:36.926Z</time></trkpt><trkpt lat="36.6603468" lon="9.842897"><ele>102.0</ele><time>2026-05-03T16:29:37.93Z</time></trkpt><trkpt lat="36.6604344" lon="9.8431948"><ele>102.0</ele><time>2026-05-03T16:29:38.931Z</time></trkpt><trkpt lat="36.660523" lon="9.8434939"><ele>102.0</ele><time>2026-05-03T16:29:39.939Z</time></trkpt><trkpt lat="36.660617" lon="9.8437952"><ele>102.0</ele><time>2026-05-03T16:29:40.941Z</time></trkpt><trkpt lat="36.6607095" lon="9.8440895"><ele>102.0</ele><time>2026-05-03T16:29:41.963Z</time></trkpt><trkpt lat="36.6607982" lon="9.8443861"><ele>102.5</ele><time>2026-05-03T16:29:42.965Z</time></trkpt><trkpt lat="36.6608859" lon="9.8446831"><ele>103.0</ele><time>2026-05-03T16:29:43.949Z</time></trkpt><trkpt lat="36.6609758" lon="9.8449793"><ele>103.0</ele><time>2026-05-03T16:29:44.948Z</time></trkpt><trkpt lat="36.6610656" lon="9.8452774"><ele>103.0</ele><time>2026-05-03T16:29:45.942Z</time></trkpt><trkpt lat="36.6611582" lon="9.8455747"><ele>102.5</ele><time>2026-05-03T16:29:46.97Z</time></trkpt><trkpt lat="36.661255" lon="9.8458737"><ele>102.0</ele><time>2026-05-03T16:29:47.946Z</time></trkpt><trkpt lat="36.6613468" lon="9.8461723"><ele>102.0</ele><time>2026-05-03T16:29:48.925Z</time></trkpt><trkpt lat="36.6614376" lon="9.846469"><ele>102.0</ele><time>2026-05-03T16:29:49.922Z</time></trkpt><trkpt lat="36.6615276" lon="9.8467625"><ele>102.5</ele><time>2026-05-03T16:29:50.924Z</time></trkpt><trkpt lat="36.6616155" lon="9.8470652"><ele>103.0</ele><time>2026-05-03T16:29:51.935Z</time></trkpt><trkpt lat="36.6617048" lon="9.8473692"><ele>103.5</ele><time>2026-05-03T16:29:52.948Z</time></trkpt><trkpt lat="36.6617925" lon="9.8476709"><ele>104.0</ele><time>2026-05-03T16:29:53.946Z</time></trkpt><trkpt lat="36.6618787" lon="9.8479675"><ele>103.5</ele><time>2026-05-03T16:29:54.936Z</time></trkpt><trkpt lat="36.6619639" lon="9.8482655"><ele>103.0</ele><time>2026-05-03T16:29:55.938Z</time></trkpt><trkpt lat="36.6620522" lon="9.8485616"><ele>103.0</ele><time>2026-05-03T16:29:56.941Z</time></trkpt><trkpt lat="36.6621433" lon="9.8488542"><ele>103.0</ele><time>2026-05-03T16:29:57.942Z</time></trkpt><trkpt lat="36.6622333" lon="9.8491519"><ele>103.0</ele><time>2026-05-03T16:29:58.939Z</time></trkpt><trkpt lat="36.662321" lon="9.8494493"><ele>103.0</ele><time>2026-05-03T16:29:59.944Z</time></trkpt><trkpt lat="36.6624073" lon="9.8497504"><ele>103.0</ele><time>2026-05-03T16:30:00.936Z</time></trkpt><trkpt lat="36.6624871" lon="9.8500575"><ele>103.0</ele><time>2026-05-03T16:30:01.951Z</time></trkpt><trkpt lat="36.6625654" lon="9.8503652"><ele>102.0</ele><time>2026-05-03T16:30:02.943Z</time></trkpt><trkpt lat="36.6626439" lon="9.8506671"><ele>101.0</ele><time>2026-05-03T16:30:03.941Z</time></trkpt><trkpt lat="36.6627285" lon="9.850965"><ele>101.0</ele><time>2026-05-03T16:30:04.928Z</time></trkpt><trkpt lat="36.6628175" lon="9.8512664"><ele>101.0</ele><time>2026-05-03T16:30:05.938Z</time></trkpt><trkpt lat="36.6629046" lon="9.851571"><ele>99.5</ele><time>2026-05-03T16:30:06.944Z</time></trkpt><trkpt lat="36.6629949" lon="9.8518706"><ele>98.0</ele><time>2026-05-03T16:30:07.943Z</time></trkpt><trkpt lat="36.6630807" lon="9.8521701"><ele>98.0</ele><time>2026-05-03T16:30:08.933Z</time></trkpt><trkpt lat="36.6631641" lon="9.8524646"><ele>98.0</ele><time>2026-05-03T16:30:09.925Z</time></trkpt><trkpt lat="36.6632542" lon="9.8527609"><ele>97.0</ele><time>2026-05-03T16:30:10.922Z</time></trkpt><trkpt lat="36.663344" lon="9.853057"><ele>96.0</ele><time>2026-05-03T16:30:11.95Z</time></trkpt><trkpt lat="36.6634322" lon="9.8533509"><ele>96.0</ele><time>2026-05-03T16:30:12.911Z</time></trkpt><trkpt lat="36.6635207" lon="9.8536483"><ele>96.0</ele><time>2026-05-03T16:30:13.944Z</time></trkpt><trkpt lat="36.6636086" lon="9.853947"><ele>95.5</ele><time>2026-05-03T16:30:14.914Z</time></trkpt><trkpt lat="36.6637005" lon="9.8542499"><ele>95.0</ele><time>2026-05-03T16:30:15.927Z</time></trkpt><trkpt lat="36.6637865" lon="9.854544"><ele>93.5</ele><time>2026-05-03T16:30:16.93Z</time></trkpt><trkpt lat="36.6638706" lon="9.854844"><ele>92.0</ele><time>2026-05-03T16:30:17.928Z</time></trkpt><trkpt lat="36.663957" lon="9.8551458"><ele>92.0</ele><time>2026-05-03T16:30:18.955Z</time></trkpt><trkpt lat="36.6640482" lon="9.8554468"><ele>92.0</ele><time>2026-05-03T16:30:19.932Z</time></trkpt><trkpt lat="36.6641415" lon="9.8557501"><ele>90.5</ele><time>2026-05-03T16:30:20.948Z</time></trkpt><trkpt lat="36.6642321" lon="9.8560461"><ele>89.0</ele><time>2026-05-03T16:30:21.924Z</time></trkpt><trkpt lat="36.6643202" lon="9.8563487"><ele>89.0</ele><time>2026-05-03T16:30:22.923Z</time></trkpt><trkpt lat="36.6644092" lon="9.8566445"><ele>89.0</ele><time>2026-05-03T16:30:23.94Z</time></trkpt><trkpt lat="36.6644947" lon="9.856944"><ele>88.0</ele><time>2026-05-03T16:30:24.938Z</time></trkpt><trkpt lat="36.6645809" lon="9.8572401"><ele>87.0</ele><time>2026-05-03T16:30:25.952Z</time></trkpt><trkpt lat="36.6646666" lon="9.8575386"><ele>87.0</ele><time>2026-05-03T16:30:26.946Z</time></trkpt><trkpt lat="36.6647504" lon="9.8578359"><ele>87.0</ele><time>2026-05-03T16:30:27.946Z</time></trkpt><trkpt lat="36.6648366" lon="9.8581359"><ele>87.0</ele><time>2026-05-03T16:30:28.95Z</time></trkpt><trkpt lat="36.6649207" lon="9.8584338"><ele>87.0</ele><time>2026-05-03T16:30:29.925Z</time></trkpt><trkpt lat="36.6650075" lon="9.8587296"><ele>87.0</ele><time>2026-05-03T16:30:30.952Z</time></trkpt><trkpt lat="36.665086" lon="9.8590244"><ele>87.0</ele><time>2026-05-03T16:30:31.948Z</time></trkpt><trkpt lat="36.6651653" lon="9.8593262"><ele>87.5</ele><time>2026-05-03T16:30:32.941Z</time></trkpt><trkpt lat="36.6652403" lon="9.8596328"><ele>88.0</ele><time>2026-05-03T16:30:33.947Z</time></trkpt><trkpt lat="36.6653106" lon="9.8599402"><ele>87.5</ele><time>2026-05-03T16:30:34.93Z</time></trkpt><trkpt lat="36.6653794" lon="9.860253"><ele>87.0</ele><time>2026-05-03T16:30:35.935Z</time></trkpt><trkpt lat="36.6654465" lon="9.8605561"><ele>87.0</ele><time>2026-05-03T16:30:36.938Z</time></trkpt><trkpt lat="36.6655061" lon="9.8608677"><ele>87.0</ele><time>2026-05-03T16:30:37.922Z</time></trkpt><trkpt lat="36.6655627" lon="9.8611721"><ele>87.0</ele><time>2026-05-03T16:30:38.944Z</time></trkpt><trkpt lat="36.6656136" lon="9.8614833"><ele>87.0</ele><time>2026-05-03T16:30:39.904Z</time></trkpt><trkpt lat="36.6656623" lon="9.8617944"><ele>87.5</ele><time>2026-05-03T16:30:40.937Z</time></trkpt><trkpt lat="36.6657122" lon="9.8621055"><ele>88.0</ele><time>2026-05-03T16:30:41.95Z</time></trkpt><trkpt lat="36.663344" lon="9.853057"><ele>92.0</ele><time>2026-05-03T16:30:11.95Z</time></trkpt><trkpt lat="36.6634322" lon="9.8533509"><ele>96.0</ele><time>2026-05-03T16:30:12.911Z</time></trkpt><trkpt lat="36.6635207" lon="9.8536483"><ele>96.0</ele><time>2026-05-03T16:30:13.944Z</time></trkpt><trkpt lat="36.6636086" lon="9.853947"><ele>96.0</ele><time>2026-05-03T16:30:14.914Z</time></trkpt><trkpt lat="36.6637005" lon="9.8542499"><ele>94.0</ele><time>2026-05-03T16:30:15.927Z</time></trkpt><trkpt lat="36.6637865" lon="9.854544"><ele>92.0</ele><time>2026-05-03T16:30:16.93Z</time></trkpt><trkpt lat="36.6638706" lon="9.854844"><ele>92.0</ele><time>2026-05-03T16:30:17.928Z</time></trkpt><trkpt lat="36.663957" lon="9.8551458"><ele>92.0</ele><time>2026-05-03T16:30:18.955Z</time></trkpt><trkpt lat="36.6640482" lon="9.8554468"><ele>92.0</ele><time>2026-05-03T16:30:19.932Z</time></trkpt><trkpt lat="36.6641415" lon="9.8557501"><ele>92.0</ele><time>2026-05-03T16:30:20.948Z</time></trkpt><trkpt lat="36.6642321" lon="9.8560461"><ele>90.5</ele><time>2026-05-03T16:30:21.924Z</time></trkpt><trkpt lat="36.6643202" lon="9.8563487"><ele>89.0</ele><time>2026-05-03T16:30:22.923Z</time></trkpt><trkpt lat="36.6644092" lon="9.8566445"><ele>88.0</ele><time>2026-05-03T16:30:23.94Z</time></trkpt><trkpt lat="36.6644947" lon="9.856944"><ele>87.0</ele><time>2026-05-03T16:30:24.938Z</time></trkpt><trkpt lat="36.6645809" lon="9.8572401"><ele>87.0</ele><time>2026-05-03T16:30:25.952Z</time></trkpt><trkpt lat="36.6646666" lon="9.8575386"><ele>87.0</ele><time>2026-05-03T16:30:26.946Z</time></trkpt><trkpt lat="36.6647504" lon="9.8578359"><ele>87.0</ele><time>2026-05-03T16:30:27.946Z</time></trkpt><trkpt lat="36.6648366" lon="9.8581359"><ele>87.0</ele><time>2026-05-03T16:30:28.95Z</time></trkpt><trkpt lat="36.6649207" lon="9.8584338"><ele>87.0</ele><time>2026-05-03T16:30:29.925Z</time></trkpt><trkpt lat="36.6650075" lon="9.8587296"><ele>87.0</ele><time>2026-05-03T16:30:30.952Z</time></trkpt><trkpt lat="36.665086" lon="9.8590244"><ele>87.5</ele><time>2026-05-03T16:30:31.948Z</time></trkpt><trkpt lat="36.6651653" lon="9.8593262"><ele>88.0</ele><time>2026-05-03T16:30:32.941Z</time></trkpt><trkpt lat="36.6652403" lon="9.8596328"><ele>88.0</ele><time>2026-05-03T16:30:33.947Z</time></trkpt><trkpt lat="36.6653106" lon="9.8599402"><ele>88.0</ele><time>2026-05-03T16:30:34.93Z</time></trkpt><trkpt lat="36.6653794" lon="9.860253"><ele>87.5</ele><time>2026-05-03T16:30:35.935Z</time></trkpt><trkpt lat="36.6654465" lon="9.8605561"><ele>87.0</ele><time>2026-05-03T16:30:36.938Z</time></trkpt><trkpt lat="36.6655061" lon="9.8608677"><ele>87.0</ele><time>2026-05-03T16:30:37.922Z</time></trkpt><trkpt lat="36.6655627" lon="9.8611721"><ele>87.0</ele><time>2026-05-03T16:30:38.944Z</time></trkpt><trkpt lat="36.6656136" lon="9.8614833"><ele>87.5</ele><time>2026-05-03T16:30:39.904Z</time></trkpt><trkpt lat="36.6656623" lon="9.8617944"><ele>88.0</ele><time>2026-05-03T16:30:40.937Z</time></trkpt><trkpt lat="36.6657122" lon="9.8621055"><ele>88.0</ele><time>2026-05-03T16:30:41.95Z</time></trkpt><trkpt lat="36.665756" lon="9.862418"><ele>88.0</ele><time>2026-05-03T16:30:42.93Z</time></trkpt><trkpt lat="36.6657962" lon="9.8627343"><ele>88.5</ele><time>2026-05-03T16:30:43.939Z</time></trkpt><trkpt lat="36.6658347" lon="9.8630491"><ele>89.0</ele><time>2026-05-03T16:30:44.94Z</time></trkpt><trkpt lat="36.6658655" lon="9.8633616"><ele>89.0</ele><time>2026-05-03T16:30:45.92Z</time></trkpt><trkpt lat="36.6658947" lon="9.8636776"><ele>89.0</ele><time>2026-05-03T16:30:46.942Z</time></trkpt><trkpt lat="36.6659242" lon="9.8639931"><ele>89.0</ele><time>2026-05-03T16:30:47.937Z</time></trkpt><trkpt lat="36.6659484" lon="9.8643126"><ele>89.0</ele><time>2026-05-03T16:30:48.905Z</time></trkpt><trkpt lat="36.66597" lon="9.8646295"><ele>89.0</ele><time>2026-05-03T16:30:49.922Z</time></trkpt><trkpt lat="36.6659857" lon="9.8649482"><ele>89.0</ele><time>2026-05-03T16:30:50.948Z</time></trkpt><trkpt lat="36.6659998" lon="9.8652624"><ele>89.5</ele><time>2026-05-03T16:30:51.916Z</time></trkpt><trkpt lat="36.6660041" lon="9.865578"><ele>90.0</ele><time>2026-05-03T16:30:52.934Z</time></trkpt><trkpt lat="36.6660087" lon="9.8658962"><ele>90.0</ele><time>2026-05-03T16:30:53.928Z</time></trkpt><trkpt lat="36.666014" lon="9.8662166"><ele>90.0</ele><time>2026-05-03T16:30:54.941Z</time></trkpt><trkpt lat="36.6660136" lon="9.8665335"><ele>91.0</ele><time>2026-05-03T16:30:55.928Z</time></trkpt><trkpt lat="36.6660187" lon="9.8668442"><ele>92.0</ele><time>2026-05-03T16:30:56.94Z</time></trkpt><trkpt lat="36.666023" lon="9.8671577"><ele>92.0</ele><time>2026-05-03T16:30:57.939Z</time></trkpt><trkpt lat="36.6660223" lon="9.8674748"><ele>92.0</ele><time>2026-05-03T16:30:58.927Z</time></trkpt><trkpt lat="36.6660225" lon="9.8677922"><ele>92.0</ele><time>2026-05-03T16:30:59.961Z</time></trkpt><trkpt lat="36.6660259" lon="9.8681112"><ele>92.0</ele><time>2026-05-03T16:31:00.942Z</time></trkpt><trkpt lat="36.6660303" lon="9.8684275"><ele>93.0</ele><time>2026-05-03T16:31:01.935Z</time></trkpt><trkpt lat="36.6660338" lon="9.8687429"><ele>94.0</ele><time>2026-05-03T16:31:02.928Z</time></trkpt><trkpt lat="36.6660379" lon="9.8690562"><ele>93.0</ele><time>2026-05-03T16:31:03.934Z</time></trkpt><trkpt lat="36.6660408" lon="9.8693757"><ele>92.0</ele><time>2026-05-03T16:31:04.944Z</time></trkpt><trkpt lat="36.6660436" lon="9.8696981"><ele>92.0</ele><time>2026-05-03T16:31:05.935Z</time></trkpt><trkpt lat="36.6660444" lon="9.870021"><ele>92.0</ele><time>2026-05-03T16:31:06.944Z</time></trkpt><trkpt lat="36.6660409" lon="9.8703418"><ele>91.5</ele><time>2026-05-03T16:31:07.941Z</time></trkpt><trkpt lat="36.6660336" lon="9.8706604"><ele>91.0</ele><time>2026-05-03T16:31:08.909Z</time></trkpt><trkpt lat="36.6660281" lon="9.8709795"><ele>91.0</ele><time>2026-05-03T16:31:09.936Z</time></trkpt><trkpt lat="36.6660282" lon="9.8712965"><ele>91.0</ele><time>2026-05-03T16:31:10.944Z</time></trkpt><trkpt lat="36.6660341" lon="9.8716117"><ele>90.0</ele><time>2026-05-03T16:31:11.972Z</time></trkpt><trkpt lat="36.6660374" lon="9.8719293"><ele>89.0</ele><time>2026-05-03T16:31:12.919Z</time></trkpt><trkpt lat="36.6660388" lon="9.8722454"><ele>89.0</ele><time>2026-05-03T16:31:13.959Z</time></trkpt><trkpt lat="36.6660434" lon="9.8725639"><ele>89.0</ele><time>2026-05-03T16:31:14.908Z</time></trkpt><trkpt lat="36.6660394" lon="9.8728842"><ele>89.0</ele><time>2026-05-03T16:31:15.924Z</time></trkpt><trkpt lat="36.666044" lon="9.8732014"><ele>89.0</ele><time>2026-05-03T16:31:16.941Z</time></trkpt><trkpt lat="36.6660476" lon="9.8735234"><ele>89.5</ele><time>2026-05-03T16:31:17.937Z</time></trkpt><trkpt lat="36.6660531" lon="9.8738416"><ele>90.0</ele><time>2026-05-03T16:31:18.943Z</time></trkpt><trkpt lat="36.6660567" lon="9.8741595"><ele>91.0</ele><time>2026-05-03T16:31:19.923Z</time></trkpt><trkpt lat="36.6660615" lon="9.8744796"><ele>92.0</ele><time>2026-05-03T16:31:20.937Z</time></trkpt><trkpt lat="36.6660647" lon="9.8748008"><ele>91.5</ele><time>2026-05-03T16:31:21.949Z</time></trkpt><trkpt lat="36.6660658" lon="9.8751222"><ele>91.0</ele><time>2026-05-03T16:31:22.916Z</time></trkpt><trkpt lat="36.6660701" lon="9.8754407"><ele>91.0</ele><time>2026-05-03T16:31:23.948Z</time></trkpt><trkpt lat="36.6660718" lon="9.8757569"><ele>91.0</ele><time>2026-05-03T16:31:24.922Z</time></trkpt><trkpt lat="36.6660792" lon="9.8760744"><ele>91.5</ele><time>2026-05-03T16:31:25.941Z</time></trkpt><trkpt lat="36.6660904" lon="9.8763941"><ele>92.0</ele><time>2026-05-03T16:31:26.939Z</time></trkpt><trkpt lat="36.6661031" lon="9.8767118"><ele>91.0</ele><time>2026-05-03T16:31:27.916Z</time></trkpt><trkpt lat="36.666121" lon="9.8770261"><ele>90.0</ele><time>2026-05-03T16:31:28.91Z</time></trkpt><trkpt lat="36.6661407" lon="9.8773434"><ele>89.5</ele><time>2026-05-03T16:31:29.947Z</time></trkpt><trkpt lat="36.6661658" lon="9.8776597"><ele>89.0</ele><time>2026-05-03T16:31:30.937Z</time></trkpt><trkpt lat="36.6661942" lon="9.8779762"><ele>89.0</ele><time>2026-05-03T16:31:31.937Z</time></trkpt><trkpt lat="36.6662289" lon="9.8782904"><ele>89.0</ele><time>2026-05-03T16:31:32.939Z</time></trkpt><trkpt lat="36.6662669" lon="9.8786011"><ele>88.0</ele><time>2026-05-03T16:31:33.948Z</time></trkpt><trkpt lat="36.6663077" lon="9.8789137"><ele>87.0</ele><time>2026-05-03T16:31:34.91Z</time></trkpt><trkpt lat="36.6663504" lon="9.8792269"><ele>87.0</ele><time>2026-05-03T16:31:35.922Z</time></trkpt><trkpt lat="36.6664023" lon="9.8795383"><ele>87.0</ele><time>2026-05-03T16:31:36.933Z</time></trkpt><trkpt lat="36.6664558" lon="9.879853"><ele>87.0</ele><time>2026-05-03T16:31:37.91Z</time></trkpt><trkpt lat="36.6665138" lon="9.8801662"><ele>87.0</ele><time>2026-05-03T16:31:38.935Z</time></trkpt><trkpt lat="36.6665745" lon="9.8804798"><ele>87.0</ele><time>2026-05-03T16:31:39.947Z</time></trkpt><trkpt lat="36.6666381" lon="9.8807858"><ele>87.0</ele><time>2026-05-03T16:31:40.92Z</time></trkpt><trkpt lat="36.6667043" lon="9.8810895"><ele>88.0</ele><time>2026-05-03T16:31:41.932Z</time></trkpt><trkpt lat="36.6667759" lon="9.8813926"><ele>89.0</ele><time>2026-05-03T16:31:42.951Z</time></trkpt><trkpt lat="36.6668539" lon="9.8816975"><ele>88.0</ele><time>2026-05-03T16:31:43.924Z</time></trkpt><trkpt lat="36.6669414" lon="9.8819939"><ele>87.0</ele><time>2026-05-03T16:31:44.938Z</time></trkpt><trkpt lat="36.6670282" lon="9.8822928"><ele>87.0</ele><time>2026-05-03T16:31:45.937Z</time></trkpt><trkpt lat="36.6671162" lon="9.8825893"><ele>87.0</ele><time>2026-05-03T16:31:46.943Z</time></trkpt><trkpt lat="36.6672058" lon="9.8828849"><ele>87.0</ele><time>2026-05-03T16:31:47.935Z</time></trkpt><trkpt lat="36.6672994" lon="9.8831827"><ele>87.0</ele><time>2026-05-03T16:31:48.94Z</time></trkpt><trkpt lat="36.6673972" lon="9.8834746"><ele>86.5</ele><time>2026-05-03T16:31:49.934Z</time></trkpt><trkpt lat="36.6674968" lon="9.8837617"><ele>86.0</ele><time>2026-05-03T16:31:50.935Z</time></trkpt><trkpt lat="36.6676029" lon="9.8840535"><ele>86.0</ele><time>2026-05-03T16:31:51.92Z</time></trkpt><trkpt lat="36.667715" lon="9.884341"><ele>86.0</ele><time>2026-05-03T16:31:52.94Z</time></trkpt><trkpt lat="36.6678283" lon="9.8846279"><ele>85.5</ele><time>2026-05-03T16:31:53.945Z</time></trkpt><trkpt lat="36.6679496" lon="9.8849093"><ele>85.0</ele><time>2026-05-03T16:31:54.937Z</time></trkpt><trkpt lat="36.6680659" lon="9.885189"><ele>85.0</ele><time>2026-05-03T16:31:55.938Z</time></trkpt><trkpt lat="36.6681895" lon="9.8854652"><ele>85.0</ele><time>2026-05-03T16:31:56.915Z</time></trkpt><trkpt lat="36.6683185" lon="9.885733"><ele>84.0</ele><time>2026-05-03T16:31:57.909Z</time></trkpt><trkpt lat="36.6684521" lon="9.8860039"><ele>83.0</ele><time>2026-05-03T16:31:58.918Z</time></trkpt><trkpt lat="36.6685907" lon="9.8862745"><ele>83.0</ele><time>2026-05-03T16:31:59.952Z</time></trkpt><trkpt lat="36.6687283" lon="9.886541"><ele>83.0</ele><time>2026-05-03T16:32:00.909Z</time></trkpt><trkpt lat="36.6688711" lon="9.886802"><ele>82.5</ele><time>2026-05-03T16:32:01.93Z</time></trkpt><trkpt lat="36.6690146" lon="9.8870678"><ele>82.0</ele><time>2026-05-03T16:32:02.935Z</time></trkpt><trkpt lat="36.6691606" lon="9.8873303"><ele>82.0</ele><time>2026-05-03T16:32:03.944Z</time></trkpt><trkpt lat="36.6693098" lon="9.8875914"><ele>82.0</ele><time>2026-05-03T16:32:04.925Z</time></trkpt><trkpt lat="36.6694598" lon="9.887856"><ele>82.5</ele><time>2026-05-03T16:32:05.938Z</time></trkpt><trkpt lat="36.6696079" lon="9.8881161"><ele>83.0</ele><time>2026-05-03T16:32:06.928Z</time></trkpt><trkpt lat="36.6697527" lon="9.888371"><ele>83.0</ele><time>2026-05-03T16:32:07.954Z</time></trkpt><trkpt lat="36.669898" lon="9.8886261"><ele>83.0</ele><time>2026-05-03T16:32:08.948Z</time></trkpt><trkpt lat="36.6700422" lon="9.8888838"><ele>83.0</ele><time>2026-05-03T16:32:09.929Z</time></trkpt><trkpt lat="36.6701909" lon="9.8891414"><ele>83.0</ele><time>2026-05-03T16:32:10.942Z</time></trkpt><trkpt lat="36.6703422" lon="9.8893987"><ele>82.0</ele><time>2026-05-03T16:32:11.946Z</time></trkpt><trkpt lat="36.6704913" lon="9.8896537"><ele>81.0</ele><time>2026-05-03T16:32:12.925Z</time></trkpt><trkpt lat="36.6706438" lon="9.8899137"><ele>81.0</ele><time>2026-05-03T16:32:13.944Z</time></trkpt><trkpt lat="36.6707919" lon="9.8901717"><ele>81.0</ele><time>2026-05-03T16:32:14.929Z</time></trkpt><trkpt lat="36.6709428" lon="9.8904278"><ele>81.0</ele><time>2026-05-03T16:32:15.935Z</time></trkpt><trkpt lat="36.6710907" lon="9.8906865"><ele>81.0</ele><time>2026-05-03T16:32:16.942Z</time></trkpt><trkpt lat="36.6712387" lon="9.8909442"><ele>82.0</ele><time>2026-05-03T16:32:17.933Z</time></trkpt><trkpt lat="36.6713883" lon="9.8912047"><ele>83.0</ele><time>2026-05-03T16:32:18.95Z</time></trkpt><trkpt lat="36.6715397" lon="9.8914652"><ele>83.0</ele><time>2026-05-03T16:32:19.929Z</time></trkpt><trkpt lat="36.6716854" lon="9.8917239"><ele>83.0</ele><time>2026-05-03T16:32:20.934Z</time></trkpt><trkpt lat="36.6718349" lon="9.8919816"><ele>83.0</ele><time>2026-05-03T16:32:21.935Z</time></trkpt><trkpt lat="36.6719835" lon="9.8922389"><ele>83.0</ele><time>2026-05-03T16:32:22.934Z</time></trkpt><trkpt lat="36.6721375" lon="9.8924966"><ele>83.0</ele><time>2026-05-03T16:32:23.951Z</time></trkpt><trkpt lat="36.6722912" lon="9.8927512"><ele>83.0</ele><time>2026-05-03T16:32:24.954Z</time></trkpt><trkpt lat="36.6724421" lon="9.8930068"><ele>83.0</ele><time>2026-05-03T16:32:25.935Z</time></trkpt><trkpt lat="36.6725949" lon="9.8932653"><ele>83.0</ele><time>2026-05-03T16:32:26.944Z</time></trkpt><trkpt lat="36.6727495" lon="9.8935239"><ele>82.5</ele><time>2026-05-03T16:32:27.939Z</time></trkpt><trkpt lat="36.6728971" lon="9.8937791"><ele>82.0</ele><time>2026-05-03T16:32:28.924Z</time></trkpt><trkpt lat="36.6730417" lon="9.8940363"><ele>82.0</ele><time>2026-05-03T16:32:29.953Z</time></trkpt><trkpt lat="36.6731943" lon="9.8942954"><ele>82.0</ele><time>2026-05-03T16:32:30.932Z</time></trkpt><trkpt lat="36.673341" lon="9.8945536"><ele>82.0</ele><time>2026-05-03T16:32:31.95Z</time></trkpt><trkpt lat="36.6734883" lon="9.8948091"><ele>82.0</ele><time>2026-05-03T16:32:32.941Z</time></trkpt><trkpt lat="36.6736382" lon="9.895064"><ele>82.5</ele><time>2026-05-03T16:32:33.933Z</time></trkpt><trkpt lat="36.6737907" lon="9.8953248"><ele>83.0</ele><time>2026-05-03T16:32:34.941Z</time></trkpt><trkpt lat="36.6739398" lon="9.8955815"><ele>83.0</ele><time>2026-05-03T16:32:35.914Z</time></trkpt><trkpt lat="36.6740844" lon="9.8958396"><ele>83.0</ele><time>2026-05-03T16:32:36.943Z</time></trkpt><trkpt lat="36.6742337" lon="9.8961007"><ele>84.0</ele><time>2026-05-03T16:32:37.939Z</time></trkpt><trkpt lat="36.6743837" lon="9.8963603"><ele>85.0</ele><time>2026-05-03T16:32:38.947Z</time></trkpt><trkpt lat="36.6745288" lon="9.8966205"><ele>85.5</ele><time>2026-05-03T16:32:39.943Z</time></trkpt><trkpt lat="36.6746798" lon="9.8968794"><ele>86.0</ele><time>2026-05-03T16:32:40.944Z</time></trkpt><trkpt lat="36.6748269" lon="9.8971391"><ele>86.0</ele><time>2026-05-03T16:32:41.953Z</time></trkpt><trkpt lat="36.6749691" lon="9.8974088"><ele>86.0</ele><time>2026-05-03T16:32:42.937Z</time></trkpt><trkpt lat="36.6751124" lon="9.8976746"><ele>86.5</ele><time>2026-05-03T16:32:43.935Z</time></trkpt><trkpt lat="36.6752576" lon="9.8979424"><ele>87.0</ele><time>2026-05-03T16:32:44.934Z</time></trkpt><trkpt lat="36.6754026" lon="9.8982071"><ele>86.0</ele><time>2026-05-03T16:32:45.934Z</time></trkpt><trkpt lat="36.675551" lon="9.8984724"><ele>85.0</ele><time>2026-05-03T16:32:46.918Z</time></trkpt><trkpt lat="36.6756964" lon="9.8987384"><ele>85.0</ele><time>2026-05-03T16:32:47.909Z</time></trkpt><trkpt lat="36.6758349" lon="9.8989987"><ele>85.0</ele><time>2026-05-03T16:32:48.915Z</time></trkpt><trkpt lat="36.6759739" lon="9.899264"><ele>83.5</ele><time>2026-05-03T16:32:49.945Z</time></trkpt><trkpt lat="36.6761141" lon="9.8995332"><ele>82.0</ele><time>2026-05-03T16:32:50.933Z</time></trkpt><trkpt lat="36.6762513" lon="9.8997976"><ele>82.0</ele><time>2026-05-03T16:32:51.934Z</time></trkpt><trkpt lat="36.6763925" lon="9.9000633"><ele>82.0</ele><time>2026-05-03T16:32:52.936Z</time></trkpt><trkpt lat="36.676533" lon="9.9003252"><ele>81.5</ele><time>2026-05-03T16:32:53.935Z</time></trkpt><trkpt lat="36.6766751" lon="9.9005915"><ele>81.0</ele><time>2026-05-03T16:32:54.944Z</time></trkpt><trkpt lat="36.6768146" lon="9.900857"><ele>79.5</ele><time>2026-05-03T16:32:55.951Z</time></trkpt><trkpt lat="36.6769528" lon="9.9011243"><ele>78.0</ele><time>2026-05-03T16:32:56.942Z</time></trkpt><trkpt lat="36.6770904" lon="9.901394"><ele>78.0</ele><time>2026-05-03T16:32:57.935Z</time></trkpt><trkpt lat="36.6772247" lon="9.9016649"><ele>78.0</ele><time>2026-05-03T16:32:58.947Z</time></trkpt><trkpt lat="36.6773574" lon="9.9019352"><ele>78.0</ele><time>2026-05-03T16:32:59.951Z</time></trkpt><trkpt lat="36.6774937" lon="9.902203"><ele>78.0</ele><time>2026-05-03T16:33:00.928Z</time></trkpt><trkpt lat="36.6776305" lon="9.902473"><ele>78.0</ele><time>2026-05-03T16:33:01.941Z</time></trkpt><trkpt lat="36.6777659" lon="9.9027455"><ele>78.0</ele><time>2026-05-03T16:33:02.932Z</time></trkpt><trkpt lat="36.6779012" lon="9.9030181"><ele>78.0</ele><time>2026-05-03T16:33:03.939Z</time></trkpt><trkpt lat="36.6780351" lon="9.903288"><ele>78.0</ele><time>2026-05-03T16:33:04.938Z</time></trkpt><trkpt lat="36.6781719" lon="9.9035595"><ele>78.5</ele><time>2026-05-03T16:33:05.944Z</time></trkpt><trkpt lat="36.6783061" lon="9.9038306"><ele>79.0</ele><time>2026-05-03T16:33:06.927Z</time></trkpt><trkpt lat="36.6784437" lon="9.9041"><ele>79.0</ele><time>2026-05-03T16:33:07.938Z</time></trkpt><trkpt lat="36.6785829" lon="9.9043677"><ele>79.0</ele><time>2026-05-03T16:33:08.923Z</time></trkpt><trkpt lat="36.6787237" lon="9.9046299"><ele>79.0</ele><time>2026-05-03T16:33:09.947Z</time></trkpt><trkpt lat="36.6788598" lon="9.9049033"><ele>79.0</ele><time>2026-05-03T16:33:10.934Z</time></trkpt><trkpt lat="36.6789978" lon="9.9051705"><ele>78.5</ele><time>2026-05-03T16:33:11.934Z</time></trkpt><trkpt lat="36.6791346" lon="9.9054473"><ele>78.0</ele><time>2026-05-03T16:33:12.94Z</time></trkpt><trkpt lat="36.6792659" lon="9.9057182"><ele>77.0</ele><time>2026-05-03T16:33:13.932Z</time></trkpt><trkpt lat="36.6794045" lon="9.9059886"><ele>76.0</ele><time>2026-05-03T16:33:14.947Z</time></trkpt><trkpt lat="36.6795332" lon="9.9062586"><ele>76.0</ele><time>2026-05-03T16:33:15.944Z</time></trkpt><trkpt lat="36.6796637" lon="9.9065337"><ele>76.0</ele><time>2026-05-03T16:33:16.939Z</time></trkpt><trkpt lat="36.6797936" lon="9.906812"><ele>76.0</ele><time>2026-05-03T16:33:17.946Z</time></trkpt><trkpt lat="36.6799237" lon="9.9070815"><ele>76.0</ele><time>2026-05-03T16:33:18.927Z</time></trkpt><trkpt lat="36.6800541" lon="9.9073482"><ele>75.5</ele><time>2026-05-03T16:33:19.933Z</time></trkpt><trkpt lat="36.6801908" lon="9.9076203"><ele>75.0</ele><time>2026-05-03T16:33:20.942Z</time></trkpt><trkpt lat="36.6803255" lon="9.9078893"><ele>73.5</ele><time>2026-05-03T16:33:21.944Z</time></trkpt><trkpt lat="36.6804612" lon="9.9081638"><ele>72.0</ele><time>2026-05-03T16:33:22.94Z</time></trkpt><trkpt lat="36.6805955" lon="9.9084328"><ele>72.0</ele><time>2026-05-03T16:33:23.941Z</time></trkpt><trkpt lat="36.6807315" lon="9.9087"><ele>72.0</ele><time>2026-05-03T16:33:24.931Z</time></trkpt><trkpt lat="36.6808655" lon="9.9089728"><ele>72.5</ele><time>2026-05-03T16:33:25.937Z</time></trkpt><trkpt lat="36.6810061" lon="9.9092433"><ele>73.0</ele><time>2026-05-03T16:33:26.923Z</time></trkpt><trkpt lat="36.6811417" lon="9.9095143"><ele>73.0</ele><time>2026-05-03T16:33:27.945Z</time></trkpt><trkpt lat="36.6812802" lon="9.909785"><ele>73.0</ele><time>2026-05-03T16:33:28.928Z</time></trkpt><trkpt lat="36.6814171" lon="9.9100605"><ele>72.5</ele><time>2026-05-03T16:33:29.944Z</time></trkpt><trkpt lat="36.6815487" lon="9.9103296"><ele>72.0</ele><time>2026-05-03T16:33:30.93Z</time></trkpt><trkpt lat="36.6816826" lon="9.9105935"><ele>72.0</ele><time>2026-05-03T16:33:31.943Z</time></trkpt><trkpt lat="36.6818195" lon="9.9108662"><ele>72.0</ele><time>2026-05-03T16:33:32.963Z</time></trkpt><trkpt lat="36.6819518" lon="9.9111377"><ele>70.5</ele><time>2026-05-03T16:33:33.917Z</time></trkpt><trkpt lat="36.6820876" lon="9.9114093"><ele>69.0</ele><time>2026-05-03T16:33:34.927Z</time></trkpt><trkpt lat="36.6822251" lon="9.9116715"><ele>68.5</ele><time>2026-05-03T16:33:35.955Z</time></trkpt><trkpt lat="36.6823619" lon="9.911939"><ele>68.0</ele><time>2026-05-03T16:33:36.909Z</time></trkpt><trkpt lat="36.6825027" lon="9.9122101"><ele>68.0</ele><time>2026-05-03T16:33:37.94Z</time></trkpt><trkpt lat="36.682635" lon="9.912481"><ele>68.0</ele><time>2026-05-03T16:33:38.939Z</time></trkpt><trkpt lat="36.6827731" lon="9.9127522"><ele>68.0</ele><time>2026-05-03T16:33:39.915Z</time></trkpt><trkpt lat="36.6829054" lon="9.9130231"><ele>68.0</ele><time>2026-05-03T16:33:40.92Z</time></trkpt><trkpt lat="36.6830383" lon="9.9132943"><ele>68.0</ele><time>2026-05-03T16:33:41.904Z</time></trkpt><trkpt lat="36.6831729" lon="9.9135588"><ele>68.0</ele><time>2026-05-03T16:33:42.937Z</time></trkpt><trkpt lat="36.6833097" lon="9.9138299"><ele>68.0</ele><time>2026-05-03T16:33:43.944Z</time></trkpt><trkpt lat="36.6834442" lon="9.9141011"><ele>68.0</ele><time>2026-05-03T16:33:44.942Z</time></trkpt><trkpt lat="36.683578" lon="9.9143685"><ele>65.5</ele><time>2026-05-03T16:33:45.938Z</time></trkpt><trkpt lat="36.6837127" lon="9.9146399"><ele>63.0</ele><time>2026-05-03T16:33:46.943Z</time></trkpt><trkpt lat="36.6838482" lon="9.9149039"><ele>63.5</ele><time>2026-05-03T16:33:47.927Z</time></trkpt><trkpt lat="36.6839832" lon="9.9151756"><ele>64.0</ele><time>2026-05-03T16:33:48.914Z</time></trkpt><trkpt lat="36.6841125" lon="9.9154457"><ele>64.0</ele><time>2026-05-03T16:33:49.913Z</time></trkpt><trkpt lat="36.6842463" lon="9.9157169"><ele>64.0</ele><time>2026-05-03T16:33:50.928Z</time></trkpt><trkpt lat="36.6843805" lon="9.9159903"><ele>63.5</ele><time>2026-05-03T16:33:51.912Z</time></trkpt><trkpt lat="36.6845157" lon="9.9162547"><ele>63.0</ele><time>2026-05-03T16:33:52.911Z</time></trkpt><trkpt lat="36.6846541" lon="9.9165305"><ele>63.0</ele><time>2026-05-03T16:33:53.92Z</time></trkpt><trkpt lat="36.6847879" lon="9.9167992"><ele>63.0</ele><time>2026-05-03T16:33:54.936Z</time></trkpt><trkpt lat="36.6849229" lon="9.9170675"><ele>63.0</ele><time>2026-05-03T16:33:55.934Z</time></trkpt><trkpt lat="36.6850606" lon="9.9173424"><ele>63.0</ele><time>2026-05-03T16:33:56.92Z</time></trkpt><trkpt lat="36.6851949" lon="9.9176131"><ele>62.0</ele><time>2026-05-03T16:33:57.908Z</time></trkpt><trkpt lat="36.6853323" lon="9.9178775"><ele>61.0</ele><time>2026-05-03T16:33:58.926Z</time></trkpt><trkpt lat="36.6854683" lon="9.9181484"><ele>61.0</ele><time>2026-05-03T16:33:59.922Z</time></trkpt><trkpt lat="36.6856089" lon="9.9184253"><ele>61.0</ele><time>2026-05-03T16:34:00.938Z</time></trkpt><trkpt lat="36.6857438" lon="9.9186959"><ele>61.0</ele><time>2026-05-03T16:34:01.931Z</time></trkpt><trkpt lat="36.6858781" lon="9.9189678"><ele>61.0</ele><time>2026-05-03T16:34:02.938Z</time></trkpt><trkpt lat="36.6860171" lon="9.9192383"><ele>59.5</ele><time>2026-05-03T16:34:03.928Z</time></trkpt><trkpt lat="36.6861515" lon="9.9195052"><ele>58.0</ele><time>2026-05-03T16:34:04.939Z</time></trkpt><trkpt lat="36.6862862" lon="9.9197754"><ele>58.0</ele><time>2026-05-03T16:34:05.935Z</time></trkpt><trkpt lat="36.6864194" lon="9.9200495"><ele>58.0</ele><time>2026-05-03T16:34:06.944Z</time></trkpt><trkpt lat="36.6865562" lon="9.9203186"><ele>57.5</ele><time>2026-05-03T16:34:07.94Z</time></trkpt><trkpt lat="36.6866917" lon="9.9205891"><ele>57.0</ele><time>2026-05-03T16:34:08.932Z</time></trkpt><trkpt lat="36.686826" lon="9.9208606"><ele>56.0</ele><time>2026-05-03T16:34:09.907Z</time></trkpt><trkpt lat="36.6869638" lon="9.9211273"><ele>55.0</ele><time>2026-05-03T16:34:10.926Z</time></trkpt><trkpt lat="36.6870981" lon="9.9213968"><ele>55.0</ele><time>2026-05-03T16:34:11.93Z</time></trkpt><trkpt lat="36.6872296" lon="9.9216656"><ele>55.0</ele><time>2026-05-03T16:34:12.941Z</time></trkpt><trkpt lat="36.6873679" lon="9.9219375"><ele>55.0</ele><time>2026-05-03T16:34:13.92Z</time></trkpt><trkpt lat="36.6875051" lon="9.9222148"><ele>55.0</ele><time>2026-05-03T16:34:14.933Z</time></trkpt><trkpt lat="36.6876384" lon="9.922483"><ele>54.5</ele><time>2026-05-03T16:34:15.939Z</time></trkpt><trkpt lat="36.687775" lon="9.9227474"><ele>54.0</ele><time>2026-05-03T16:34:16.936Z</time></trkpt><trkpt lat="36.6879124" lon="9.923019"><ele>54.0</ele><time>2026-05-03T16:34:17.941Z</time></trkpt><trkpt lat="36.6880506" lon="9.923291"><ele>54.0</ele><time>2026-05-03T16:34:18.929Z</time></trkpt><trkpt lat="36.6881843" lon="9.9235611"><ele>54.5</ele><time>2026-05-03T16:34:19.916Z</time></trkpt><trkpt lat="36.6883183" lon="9.9238309"><ele>55.0</ele><time>2026-05-03T16:34:20.903Z</time></trkpt><trkpt lat="36.6884533" lon="9.924098"><ele>54.5</ele><time>2026-05-03T16:34:21.956Z</time></trkpt><trkpt lat="36.6885891" lon="9.9243669"><ele>54.0</ele><time>2026-05-03T16:34:22.923Z</time></trkpt><trkpt lat="36.6887242" lon="9.9246401"><ele>53.5</ele><time>2026-05-03T16:34:23.933Z</time></trkpt><trkpt lat="36.6888605" lon="9.9249068"><ele>53.0</ele><time>2026-05-03T16:34:24.93Z</time></trkpt><trkpt lat="36.6889976" lon="9.9251796"><ele>52.5</ele><time>2026-05-03T16:34:25.937Z</time></trkpt><trkpt lat="36.6891341" lon="9.9254441"><ele>52.0</ele><time>2026-05-03T16:34:26.941Z</time></trkpt><trkpt lat="36.6892729" lon="9.9257085"><ele>51.5</ele><time>2026-05-03T16:34:27.934Z</time></trkpt><trkpt lat="36.6894089" lon="9.9259734"><ele>51.0</ele><time>2026-05-03T16:34:28.957Z</time></trkpt><trkpt lat="36.6895427" lon="9.9262387"><ele>51.0</ele><time>2026-05-03T16:34:29.93Z</time></trkpt><trkpt lat="36.6896766" lon="9.9265148"><ele>51.0</ele><time>2026-05-03T16:34:30.917Z</time></trkpt><trkpt lat="36.6898102" lon="9.9267833"><ele>50.5</ele><time>2026-05-03T16:34:31.935Z</time></trkpt><trkpt lat="36.6899444" lon="9.9270553"><ele>50.0</ele><time>2026-05-03T16:34:32.95Z</time></trkpt><trkpt lat="36.6900825" lon="9.9273215"><ele>49.5</ele><time>2026-05-03T16:34:33.926Z</time></trkpt><trkpt lat="36.69022" lon="9.9275955"><ele>49.0</ele><time>2026-05-03T16:34:34.938Z</time></trkpt><trkpt lat="36.6903619" lon="9.9278669"><ele>49.0</ele><time>2026-05-03T16:34:35.939Z</time></trkpt><trkpt lat="36.6904953" lon="9.9281332"><ele>49.0</ele><time>2026-05-03T16:34:36.937Z</time></trkpt><trkpt lat="36.6906298" lon="9.9284019"><ele>48.5</ele><time>2026-05-03T16:34:37.912Z</time></trkpt><trkpt lat="36.6907656" lon="9.9286787"><ele>48.0</ele><time>2026-05-03T16:34:38.935Z</time></trkpt><trkpt lat="36.6908996" lon="9.9289473"><ele>48.0</ele><time>2026-05-03T16:34:39.937Z</time></trkpt><trkpt lat="36.6910339" lon="9.9292123"><ele>48.0</ele><time>2026-05-03T16:34:40.903Z</time></trkpt><trkpt lat="36.6911701" lon="9.9294788"><ele>47.0</ele><time>2026-05-03T16:34:41.949Z</time></trkpt><trkpt lat="36.691306" lon="9.9297482"><ele>46.0</ele><time>2026-05-03T16:34:42.935Z</time></trkpt><trkpt lat="36.6914392" lon="9.9300192"><ele>45.5</ele><time>2026-05-03T16:34:43.95Z</time></trkpt><trkpt lat="36.6915741" lon="9.93029"><ele>45.0</ele><time>2026-05-03T16:34:44.938Z</time></trkpt><trkpt lat="36.6917125" lon="9.9305565"><ele>45.0</ele><time>2026-05-03T16:34:45.931Z</time></trkpt><trkpt lat="36.691849" lon="9.9308293"><ele>45.0</ele><time>2026-05-03T16:34:46.931Z</time></trkpt><trkpt lat="36.6919867" lon="9.9311014"><ele>44.5</ele><time>2026-05-03T16:34:47.92Z</time></trkpt><trkpt lat="36.692126" lon="9.9313649"><ele>44.0</ele><time>2026-05-03T16:34:48.941Z</time></trkpt><trkpt lat="36.69226" lon="9.9316332"><ele>44.5</ele><time>2026-05-03T16:34:49.937Z</time></trkpt><trkpt lat="36.6923961" lon="9.931899"><ele>45.0</ele><time>2026-05-03T16:34:50.932Z</time></trkpt><trkpt lat="36.6925361" lon="9.9321667"><ele>45.0</ele><time>2026-05-03T16:34:51.933Z</time></trkpt><trkpt lat="36.6926744" lon="9.9324391"><ele>45.0</ele><time>2026-05-03T16:34:52.947Z</time></trkpt><trkpt lat="36.6928125" lon="9.9327095"><ele>43.5</ele><time>2026-05-03T16:34:53.947Z</time></trkpt><trkpt lat="36.6929484" lon="9.932978"><ele>42.0</ele><time>2026-05-03T16:34:54.939Z</time></trkpt><trkpt lat="36.693086" lon="9.9332506"><ele>41.5</ele><time>2026-05-03T16:34:55.935Z</time></trkpt><trkpt lat="36.693222" lon="9.9335188"><ele>41.0</ele><time>2026-05-03T16:34:56.94Z</time></trkpt><trkpt lat="36.6933555" lon="9.9337917"><ele>41.0</ele><time>2026-05-03T16:34:57.94Z</time></trkpt><trkpt lat="36.6934895" lon="9.9340654"><ele>41.0</ele><time>2026-05-03T16:34:58.936Z</time></trkpt><trkpt lat="36.6936227" lon="9.9343346"><ele>40.5</ele><time>2026-05-03T16:34:59.94Z</time></trkpt><trkpt lat="36.6937565" lon="9.934602"><ele>40.0</ele><time>2026-05-03T16:35:00.948Z</time></trkpt><trkpt lat="36.693895" lon="9.9348693"><ele>39.5</ele><time>2026-05-03T16:35:01.943Z</time></trkpt><trkpt lat="36.6940313" lon="9.9351376"><ele>39.0</ele><time>2026-05-03T16:35:02.928Z</time></trkpt><trkpt lat="36.6941699" lon="9.9354053"><ele>39.0</ele><time>2026-05-03T16:35:03.918Z</time></trkpt><trkpt lat="36.6943085" lon="9.9356767"><ele>39.0</ele><time>2026-05-03T16:35:04.916Z</time></trkpt><trkpt lat="36.6944436" lon="9.9359439"><ele>38.5</ele><time>2026-05-03T16:35:05.943Z</time></trkpt><trkpt lat="36.6945797" lon="9.9362105"><ele>38.0</ele><time>2026-05-03T16:35:06.95Z</time></trkpt><trkpt lat="36.6947152" lon="9.9364787"><ele>38.5</ele><time>2026-05-03T16:35:07.966Z</time></trkpt><trkpt lat="36.6948524" lon="9.9367492"><ele>39.0</ele><time>2026-05-03T16:35:08.955Z</time></trkpt><trkpt lat="36.694987" lon="9.9370236"><ele>39.0</ele><time>2026-05-03T16:35:09.926Z</time></trkpt><trkpt lat="36.6951265" lon="9.937293"><ele>39.0</ele><time>2026-05-03T16:35:10.949Z</time></trkpt><trkpt lat="36.6952632" lon="9.937566"><ele>38.5</ele><time>2026-05-03T16:35:11.952Z</time></trkpt><trkpt lat="36.6953984" lon="9.9378364"><ele>38.0</ele><time>2026-05-03T16:35:12.937Z</time></trkpt><trkpt lat="36.6955376" lon="9.9381022"><ele>38.0</ele><time>2026-05-03T16:35:13.934Z</time></trkpt><trkpt lat="36.6956749" lon="9.9383679"><ele>38.0</ele><time>2026-05-03T16:35:14.943Z</time></trkpt><trkpt lat="36.6958105" lon="9.938634"><ele>38.5</ele><time>2026-05-03T16:35:15.951Z</time></trkpt><trkpt lat="36.6959502" lon="9.9389056"><ele>39.0</ele><time>2026-05-03T16:35:16.946Z</time></trkpt><trkpt lat="36.6960835" lon="9.939175"><ele>38.5</ele><time>2026-05-03T16:35:17.913Z</time></trkpt><trkpt lat="36.6962186" lon="9.9394422"><ele>38.0</ele><time>2026-05-03T16:35:18.935Z</time></trkpt><trkpt lat="36.696356" lon="9.9397107"><ele>38.0</ele><time>2026-05-03T16:35:19.95Z</time></trkpt><trkpt lat="36.6964916" lon="9.9399793"><ele>38.0</ele><time>2026-05-03T16:35:20.927Z</time></trkpt><trkpt lat="36.6966288" lon="9.9402506"><ele>37.5</ele><time>2026-05-03T16:35:21.938Z</time></trkpt><trkpt lat="36.6967636" lon="9.9405215"><ele>37.0</ele><time>2026-05-03T16:35:22.927Z</time></trkpt><trkpt lat="36.6968993" lon="9.9407912"><ele>36.5</ele><time>2026-05-03T16:35:23.938Z</time></trkpt><trkpt lat="36.6970368" lon="9.9410526"><ele>36.0</ele><time>2026-05-03T16:35:24.942Z</time></trkpt><trkpt lat="36.6971744" lon="9.9413148"><ele>36.0</ele><time>2026-05-03T16:35:25.942Z</time></trkpt><trkpt lat="36.6973106" lon="9.9415804"><ele>36.0</ele><time>2026-05-03T16:35:26.944Z</time></trkpt><trkpt lat="36.697449" lon="9.9418518"><ele>35.5</ele><time>2026-05-03T16:35:27.956Z</time></trkpt><trkpt lat="36.6975853" lon="9.9421224"><ele>35.0</ele><time>2026-05-03T16:35:28.907Z</time></trkpt><trkpt lat="36.6977164" lon="9.9424007"><ele>35.0</ele><time>2026-05-03T16:35:29.924Z</time></trkpt><trkpt lat="36.6978401" lon="9.9426736"><ele>35.0</ele><time>2026-05-03T16:35:30.936Z</time></trkpt><trkpt lat="36.6979674" lon="9.9429466"><ele>35.0</ele><time>2026-05-03T16:35:31.929Z</time></trkpt><trkpt lat="36.6980979" lon="9.9432241"><ele>35.0</ele><time>2026-05-03T16:35:32.939Z</time></trkpt><trkpt lat="36.6982288" lon="9.9434996"><ele>34.5</ele><time>2026-05-03T16:35:33.924Z</time></trkpt><trkpt lat="36.6983608" lon="9.9437727"><ele>34.0</ele><time>2026-05-03T16:35:34.936Z</time></trkpt><trkpt lat="36.6984919" lon="9.9440494"><ele>33.5</ele><time>2026-05-03T16:35:35.926Z</time></trkpt><trkpt lat="36.6986219" lon="9.9443246"><ele>33.0</ele><time>2026-05-03T16:35:36.939Z</time></trkpt><trkpt lat="36.6987513" lon="9.9446003"><ele>33.0</ele><time>2026-05-03T16:35:37.942Z</time></trkpt><trkpt lat="36.6988765" lon="9.9448762"><ele>33.0</ele><time>2026-05-03T16:35:38.912Z</time></trkpt><trkpt lat="36.6990037" lon="9.9451522"><ele>34.5</ele><time>2026-05-03T16:35:39.945Z</time></trkpt><trkpt lat="36.6991324" lon="9.9454258"><ele>36.0</ele><time>2026-05-03T16:35:40.912Z</time></trkpt><trkpt lat="36.699254" lon="9.9457012"><ele>35.5</ele><time>2026-05-03T16:35:41.908Z</time></trkpt><trkpt lat="36.6993805" lon="9.9459802"><ele>35.0</ele><time>2026-05-03T16:35:42.924Z</time></trkpt><trkpt lat="36.6995028" lon="9.9462587"><ele>34.5</ele><time>2026-05-03T16:35:43.934Z</time></trkpt><trkpt lat="36.6996302" lon="9.9465355"><ele>34.0</ele><time>2026-05-03T16:35:44.942Z</time></trkpt><trkpt lat="36.6997576" lon="9.9468189"><ele>33.5</ele><time>2026-05-03T16:35:45.965Z</time></trkpt><trkpt lat="36.6998803" lon="9.9470975"><ele>33.0</ele><time>2026-05-03T16:35:46.962Z</time></trkpt><trkpt lat="36.7000032" lon="9.9473758"><ele>33.0</ele><time>2026-05-03T16:35:47.947Z</time></trkpt><trkpt lat="36.7001203" lon="9.9476518"><ele>33.0</ele><time>2026-05-03T16:35:48.953Z</time></trkpt><trkpt lat="36.7002376" lon="9.9479347"><ele>33.5</ele><time>2026-05-03T16:35:49.941Z</time></trkpt><trkpt lat="36.7003575" lon="9.9482188"><ele>34.0</ele><time>2026-05-03T16:35:50.945Z</time></trkpt><trkpt lat="36.7004772" lon="9.9485012"><ele>34.0</ele><time>2026-05-03T16:35:51.935Z</time></trkpt><trkpt lat="36.7005986" lon="9.9487874"><ele>34.0</ele><time>2026-05-03T16:35:52.935Z</time></trkpt><trkpt lat="36.7007179" lon="9.9490675"><ele>33.0</ele><time>2026-05-03T16:35:53.921Z</time></trkpt><trkpt lat="36.7008361" lon="9.9493464"><ele>32.0</ele><time>2026-05-03T16:35:54.936Z</time></trkpt><trkpt lat="36.7009555" lon="9.9496313"><ele>32.0</ele><time>2026-05-03T16:35:55.95Z</time></trkpt><trkpt lat="36.7010732" lon="9.9499169"><ele>32.0</ele><time>2026-05-03T16:35:56.941Z</time></trkpt><trkpt lat="36.701192" lon="9.9501992"><ele>32.0</ele><time>2026-05-03T16:35:57.936Z</time></trkpt><trkpt lat="36.7013109" lon="9.9504764"><ele>32.0</ele><time>2026-05-03T16:35:58.933Z</time></trkpt><trkpt lat="36.7014355" lon="9.9507579"><ele>32.0</ele><time>2026-05-03T16:35:59.936Z</time></trkpt><trkpt lat="36.7015554" lon="9.9510343"><ele>32.0</ele><time>2026-05-03T16:36:00.918Z</time></trkpt><trkpt lat="36.7016753" lon="9.9513209"><ele>32.0</ele><time>2026-05-03T16:36:01.934Z</time></trkpt><trkpt lat="36.7017914" lon="9.9516038"><ele>32.0</ele><time>2026-05-03T16:36:02.922Z</time></trkpt><trkpt lat="36.7019078" lon="9.9518808"><ele>32.0</ele><time>2026-05-03T16:36:03.939Z</time></trkpt><trkpt lat="36.7020263" lon="9.952163"><ele>32.0</ele><time>2026-05-03T16:36:04.938Z</time></trkpt><trkpt lat="36.702142" lon="9.9524459"><ele>32.0</ele><time>2026-05-03T16:36:05.937Z</time></trkpt><trkpt lat="36.7022608" lon="9.9527242"><ele>32.0</ele><time>2026-05-03T16:36:06.92Z</time></trkpt><trkpt lat="36.7023748" lon="9.9530083"><ele>32.0</ele><time>2026-05-03T16:36:07.937Z</time></trkpt><trkpt lat="36.702491" lon="9.9532904"><ele>32.0</ele><time>2026-05-03T16:36:08.929Z</time></trkpt><trkpt lat="36.7026056" lon="9.9535727"><ele>32.0</ele><time>2026-05-03T16:36:09.932Z</time></trkpt><trkpt lat="36.7027242" lon="9.9538529"><ele>32.0</ele><time>2026-05-03T16:36:10.92Z</time></trkpt><trkpt lat="36.7028452" lon="9.9541377"><ele>31.5</ele><time>2026-05-03T16:36:11.948Z</time></trkpt><trkpt lat="36.7029648" lon="9.9544163"><ele>31.0</ele><time>2026-05-03T16:36:12.948Z</time></trkpt><trkpt lat="36.7030839" lon="9.9546972"><ele>31.0</ele><time>2026-05-03T16:36:13.947Z</time></trkpt><trkpt lat="36.7031975" lon="9.9549806"><ele>31.0</ele><time>2026-05-03T16:36:14.943Z</time></trkpt><trkpt lat="36.7033099" lon="9.9552675"><ele>31.5</ele><time>2026-05-03T16:36:15.91Z</time></trkpt><trkpt lat="36.7034184" lon="9.9555563"><ele>32.0</ele><time>2026-05-03T16:36:16.937Z</time></trkpt><trkpt lat="36.7035294" lon="9.9558457"><ele>32.0</ele><time>2026-05-03T16:36:17.916Z</time></trkpt><trkpt lat="36.7036404" lon="9.9561327"><ele>32.0</ele><time>2026-05-03T16:36:18.949Z</time></trkpt><trkpt lat="36.7037561" lon="9.9564164"><ele>32.0</ele><time>2026-05-03T16:36:19.938Z</time></trkpt><trkpt lat="36.7038732" lon="9.9567008"><ele>32.0</ele><time>2026-05-03T16:36:20.937Z</time></trkpt><trkpt lat="36.7039885" lon="9.9569835"><ele>32.0</ele><time>2026-05-03T16:36:21.946Z</time></trkpt><trkpt lat="36.7041048" lon="9.9572633"><ele>32.0</ele><time>2026-05-03T16:36:22.941Z</time></trkpt><trkpt lat="36.7042208" lon="9.9575452"><ele>32.0</ele><time>2026-05-03T16:36:23.944Z</time></trkpt><trkpt lat="36.7043379" lon="9.9578248"><ele>32.0</ele><time>2026-05-03T16:36:24.94Z</time></trkpt><trkpt lat="36.7044516" lon="9.9581067"><ele>32.5</ele><time>2026-05-03T16:36:25.943Z</time></trkpt><trkpt lat="36.7045695" lon="9.9583935"><ele>33.0</ele><time>2026-05-03T16:36:26.941Z</time></trkpt><trkpt lat="36.7046864" lon="9.9586793"><ele>33.0</ele><time>2026-05-03T16:36:27.943Z</time></trkpt><trkpt lat="36.7048045" lon="9.958964"><ele>33.0</ele><time>2026-05-03T16:36:28.952Z</time></trkpt><trkpt lat="36.7049177" lon="9.9592463"><ele>33.0</ele><time>2026-05-03T16:36:29.928Z</time></trkpt><trkpt lat="36.7050338" lon="9.9595293"><ele>33.0</ele><time>2026-05-03T16:36:30.944Z</time></trkpt><trkpt lat="36.7051491" lon="9.9598096"><ele>32.5</ele><time>2026-05-03T16:36:31.946Z</time></trkpt><trkpt lat="36.7052685" lon="9.9600919"><ele>32.0</ele><time>2026-05-03T16:36:32.936Z</time></trkpt><trkpt lat="36.7053878" lon="9.960374"><ele>32.0</ele><time>2026-05-03T16:36:33.934Z</time></trkpt><trkpt lat="36.7055055" lon="9.9606579"><ele>32.0</ele><time>2026-05-03T16:36:34.934Z</time></trkpt><trkpt lat="36.7056218" lon="9.9609381"><ele>32.0</ele><time>2026-05-03T16:36:35.941Z</time></trkpt><trkpt lat="36.7057383" lon="9.9612209"><ele>32.0</ele><time>2026-05-03T16:36:36.935Z</time></trkpt><trkpt lat="36.7058549" lon="9.9615061"><ele>32.0</ele><time>2026-05-03T16:36:37.928Z</time></trkpt><trkpt lat="36.7059702" lon="9.9617887"><ele>32.0</ele><time>2026-05-03T16:36:38.911Z</time></trkpt><trkpt lat="36.7060862" lon="9.9620752"><ele>32.0</ele><time>2026-05-03T16:36:39.924Z</time></trkpt><trkpt lat="36.7062022" lon="9.9623556"><ele>32.0</ele><time>2026-05-03T16:36:40.938Z</time></trkpt><trkpt lat="36.7063196" lon="9.9626372"><ele>32.0</ele><time>2026-05-03T16:36:41.929Z</time></trkpt><trkpt lat="36.7064427" lon="9.9629237"><ele>32.0</ele><time>2026-05-03T16:36:42.94Z</time></trkpt><trkpt lat="36.7065613" lon="9.9632051"><ele>33.0</ele><time>2026-05-03T16:36:43.943Z</time></trkpt><trkpt lat="36.7066811" lon="9.9634865"><ele>34.0</ele><time>2026-05-03T16:36:44.936Z</time></trkpt><trkpt lat="36.7068088" lon="9.9637664"><ele>34.0</ele><time>2026-05-03T16:36:45.929Z</time></trkpt><trkpt lat="36.7069343" lon="9.964042"><ele>34.0</ele><time>2026-05-03T16:36:46.906Z</time></trkpt><trkpt lat="36.7070602" lon="9.9643217"><ele>35.5</ele><time>2026-05-03T16:36:47.94Z</time></trkpt><trkpt lat="36.7071869" lon="9.9645915"><ele>37.0</ele><time>2026-05-03T16:36:48.927Z</time></trkpt><trkpt lat="36.7073128" lon="9.9648625"><ele>38.5</ele><time>2026-05-03T16:36:49.926Z</time></trkpt><trkpt lat="36.7074416" lon="9.9651401"><ele>40.0</ele><time>2026-05-03T16:36:50.946Z</time></trkpt><trkpt lat="36.7075715" lon="9.965416"><ele>40.0</ele><time>2026-05-03T16:36:51.936Z</time></trkpt><trkpt lat="36.7077055" lon="9.9656836"><ele>40.0</ele><time>2026-05-03T16:36:52.932Z</time></trkpt><trkpt lat="36.7078409" lon="9.9659503"><ele>41.0</ele><time>2026-05-03T16:36:53.938Z</time></trkpt><trkpt lat="36.707981" lon="9.9662171"><ele>42.0</ele><time>2026-05-03T16:36:54.929Z</time></trkpt><trkpt lat="36.708123" lon="9.9664798"><ele>43.5</ele><time>2026-05-03T16:36:55.93Z</time></trkpt><trkpt lat="36.7082657" lon="9.9667376"><ele>45.0</ele><time>2026-05-03T16:36:56.939Z</time></trkpt><trkpt lat="36.7084102" lon="9.9670028"><ele>45.0</ele><time>2026-05-03T16:36:57.936Z</time></trkpt><trkpt lat="36.7085497" lon="9.9672683"><ele>45.0</ele><time>2026-05-03T16:36:58.927Z</time></trkpt><trkpt lat="36.7086955" lon="9.9675365"><ele>42.5</ele><time>2026-05-03T16:36:59.932Z</time></trkpt><trkpt lat="36.7088465" lon="9.967799"><ele>40.0</ele><time>2026-05-03T16:37:00.927Z</time></trkpt><trkpt lat="36.7089925" lon="9.9680572"><ele>40.0</ele><time>2026-05-03T16:37:01.932Z</time></trkpt><trkpt lat="36.7091408" lon="9.9683111"><ele>40.0</ele><time>2026-05-03T16:37:02.921Z</time></trkpt><trkpt lat="36.7092885" lon="9.9685676"><ele>38.5</ele><time>2026-05-03T16:37:03.944Z</time></trkpt><trkpt lat="36.7094421" lon="9.9688224"><ele>37.0</ele><time>2026-05-03T16:37:04.945Z</time></trkpt><trkpt lat="36.7095976" lon="9.9690768"><ele>37.5</ele><time>2026-05-03T16:37:05.956Z</time></trkpt><trkpt lat="36.709756" lon="9.9693287"><ele>38.0</ele><time>2026-05-03T16:37:06.932Z</time></trkpt><trkpt lat="36.7099034" lon="9.9695694"><ele>38.0</ele><time>2026-05-03T16:37:07.939Z</time></trkpt><trkpt lat="36.7100456" lon="9.9697968"><ele>38.0</ele><time>2026-05-03T16:37:08.931Z</time></trkpt><trkpt lat="36.7101792" lon="9.9700076"><ele>38.0</ele><time>2026-05-03T16:37:09.938Z</time></trkpt><trkpt lat="36.71031" lon="9.9702097"><ele>37.0</ele><time>2026-05-03T16:37:10.938Z</time></trkpt><trkpt lat="36.7104418" lon="9.9704125"><ele>36.0</ele><time>2026-05-03T16:37:11.928Z</time></trkpt><trkpt lat="36.7105714" lon="9.9706101"><ele>35.0</ele><time>2026-05-03T16:37:12.941Z</time></trkpt><trkpt lat="36.7106977" lon="9.970799"><ele>34.666666666666664</ele><time>2026-05-03T16:37:13.945Z</time></trkpt><trkpt lat="36.710828" lon="9.9709791"><ele>34.333333333333336</ele><time>2026-05-03T16:37:14.959Z</time></trkpt><trkpt lat="36.7109441" lon="9.9711476"><ele>34.0</ele><time>2026-05-03T16:37:15.939Z</time></trkpt><trkpt lat="36.7110533" lon="9.9713024"><ele>33.66666666666667</ele><time>2026-05-03T16:37:16.939Z</time></trkpt><trkpt lat="36.7111586" lon="9.9714508"><ele>33.333333333333336</ele><time>2026-05-03T16:37:17.937Z</time></trkpt><trkpt lat="36.7112648" lon="9.9715942"><ele>33.0</ele><time>2026-05-03T16:37:18.944Z</time></trkpt><trkpt lat="36.7113673" lon="9.971732"><ele>33.0</ele><time>2026-05-03T16:37:19.935Z</time></trkpt><trkpt lat="36.7114592" lon="9.9718604"><ele>33.0</ele><time>2026-05-03T16:37:20.927Z</time></trkpt><trkpt lat="36.7115463" lon="9.9719836"><ele>33.0</ele><time>2026-05-03T16:37:21.912Z</time></trkpt><trkpt lat="36.711627" lon="9.9721022"><ele>33.0</ele><time>2026-05-03T16:37:22.924Z</time></trkpt><trkpt lat="36.7117083" lon="9.972216"><ele>33.0</ele><time>2026-05-03T16:37:23.94Z</time></trkpt><trkpt lat="36.7117849" lon="9.9723223"><ele>33.0</ele><time>2026-05-03T16:37:24.938Z</time></trkpt><trkpt lat="36.7118562" lon="9.9724203"><ele>33.0</ele><time>2026-05-03T16:37:25.939Z</time></trkpt><trkpt lat="36.7119249" lon="9.9725115"><ele>33.0</ele><time>2026-05-03T16:37:26.918Z</time></trkpt><trkpt lat="36.7119859" lon="9.9725978"><ele>33.0</ele><time>2026-05-03T16:37:27.939Z</time></trkpt><trkpt lat="36.7120479" lon="9.9726809"><ele>33.166666666666664</ele><time>2026-05-03T16:37:28.942Z</time></trkpt><trkpt lat="36.7121102" lon="9.9727638"><ele>33.333333333333336</ele><time>2026-05-03T16:37:29.937Z</time></trkpt><trkpt lat="36.7121686" lon="9.9728513"><ele>33.5</ele><time>2026-05-03T16:37:30.922Z</time></trkpt><trkpt lat="36.7122238" lon="9.9729306"><ele>33.66666666666667</ele><time>2026-05-03T16:37:31.904Z</time></trkpt><trkpt lat="36.712272" lon="9.9729973"><ele>33.833333333333336</ele><time>2026-05-03T16:37:32.924Z</time></trkpt><trkpt lat="36.7123178" lon="9.9730563"><ele>34.0</ele><time>2026-05-03T16:37:33.95Z</time></trkpt><trkpt lat="36.7123725" lon="9.9731483"><ele>33.99999999999999</ele><time>2026-05-03T16:37:35.94Z</time></trkpt><trkpt lat="36.7124141" lon="9.9732077"><ele>34.0</ele><time>2026-05-03T16:38:01.94Z</time></trkpt><trkpt lat="36.7124639" lon="9.9732668"><ele>34.0</ele><time>2026-05-03T16:38:05.956Z</time></trkpt><trkpt lat="36.7125111" lon="9.9733203"><ele>34.0</ele><time>2026-05-03T16:38:08.933Z</time></trkpt><trkpt lat="36.7125547" lon="9.9733842"><ele>34.0</ele><time>2026-05-03T16:38:12.943Z</time></trkpt><trkpt lat="36.7125826" lon="9.9734581"><ele>33.99999999999999</ele><time>2026-05-03T16:38:29.915Z</time></trkpt><trkpt lat="36.7126208" lon="9.9735288"><ele>34.0</ele><time>2026-05-03T16:38:46.946Z</time></trkpt><trkpt lat="36.7125981" lon="9.9736029"><ele>34.0</ele><time>2026-05-03T16:38:50.92Z</time></trkpt><trkpt lat="36.7126343" lon="9.9736935"><ele>34.0</ele><time>2026-05-03T16:38:53.939Z</time></trkpt><trkpt lat="36.7126859" lon="9.9737645"><ele>34.0</ele><time>2026-05-03T16:38:56.93Z</time></trkpt><trkpt lat="36.712736" lon="9.9738248"><ele>34.0</ele><time>2026-05-03T16:38:59.911Z</time></trkpt><trkpt lat="36.712783" lon="9.9738966"><ele>34.0</ele><time>2026-05-03T16:39:53.952Z</time></trkpt><trkpt lat="36.7128346" lon="9.9739677"><ele>34.0</ele><time>2026-05-03T16:40:39.926Z</time></trkpt><trkpt lat="36.7128807" lon="9.9740378"><ele>34.0</ele><time>2026-05-03T16:40:44.923Z</time></trkpt><trkpt lat="36.7129373" lon="9.9741002"><ele>34.0</ele><time>2026-05-03T16:40:49.961Z</time></trkpt><trkpt lat="36.7129956" lon="9.9741354"><ele>34.0</ele><time>2026-05-03T16:40:53.917Z</time></trkpt><trkpt lat="36.7130614" lon="9.9741788"><ele>34.0</ele><time>2026-05-03T16:40:57.926Z</time></trkpt><trkpt lat="36.7131157" lon="9.9742408"><ele>34.0</ele><time>2026-05-03T16:40:59.948Z</time></trkpt><trkpt lat="36.7131848" lon="9.9743162"><ele>34.0</ele><time>2026-05-03T16:41:01.926Z</time></trkpt><trkpt lat="36.7132531" lon="9.9743805"><ele>34.0</ele><time>2026-05-03T16:41:03.914Z</time></trkpt><trkpt lat="36.7133202" lon="9.9744742"><ele>34.0</ele><time>2026-05-03T16:41:05.938Z</time></trkpt><trkpt lat="36.7133958" lon="9.9745903"><ele>34.0</ele><time>2026-05-03T16:41:07.919Z</time></trkpt><trkpt lat="36.7134421" lon="9.9746599"><ele>34.0</ele><time>2026-05-03T16:41:08.935Z</time></trkpt><trkpt lat="36.7134891" lon="9.9747291"><ele>34.0</ele><time>2026-05-03T16:41:09.938Z</time></trkpt><trkpt lat="36.7135441" lon="9.9748055"><ele>34.0</ele><time>2026-05-03T16:41:10.934Z</time></trkpt><trkpt lat="36.71361" lon="9.9748948"><ele>34.0</ele><time>2026-05-03T16:41:11.934Z</time></trkpt><trkpt lat="36.7136903" lon="9.9749969"><ele>34.0</ele><time>2026-05-03T16:41:12.937Z</time></trkpt><trkpt lat="36.7137802" lon="9.9751109"><ele>34.0</ele><time>2026-05-03T16:41:13.93Z</time></trkpt><trkpt lat="36.7138841" lon="9.9752309"><ele>34.0</ele><time>2026-05-03T16:41:14.927Z</time></trkpt><trkpt lat="36.7139987" lon="9.9753588"><ele>34.0</ele><time>2026-05-03T16:41:15.946Z</time></trkpt><trkpt lat="36.7141381" lon="9.9755038"><ele>34.0</ele><time>2026-05-03T16:41:16.938Z</time></trkpt><trkpt lat="36.7142953" lon="9.9756877"><ele>34.0</ele><time>2026-05-03T16:41:17.933Z</time></trkpt><trkpt lat="36.7144654" lon="9.9759039"><ele>34.0</ele><time>2026-05-03T16:41:18.934Z</time></trkpt><trkpt lat="36.7146437" lon="9.9761366"><ele>34.0</ele><time>2026-05-03T16:41:19.923Z</time></trkpt><trkpt lat="36.7148161" lon="9.9763663"><ele>34.0</ele><time>2026-05-03T16:41:20.945Z</time></trkpt><trkpt lat="36.7149933" lon="9.9765927"><ele>34.0</ele><time>2026-05-03T16:41:21.913Z</time></trkpt><trkpt lat="36.7151648" lon="9.9768255"><ele>34.5</ele><time>2026-05-03T16:41:22.93Z</time></trkpt><trkpt lat="36.7153442" lon="9.9770606"><ele>35.0</ele><time>2026-05-03T16:41:23.934Z</time></trkpt><trkpt lat="36.7155227" lon="9.9772984"><ele>34.5</ele><time>2026-05-03T16:41:24.947Z</time></trkpt><trkpt lat="36.7157004" lon="9.9775336"><ele>34.0</ele><time>2026-05-03T16:41:25.912Z</time></trkpt><trkpt lat="36.7158747" lon="9.9777707"><ele>34.0</ele><time>2026-05-03T16:41:26.916Z</time></trkpt><trkpt lat="36.716048" lon="9.9780129"><ele>34.0</ele><time>2026-05-03T16:41:27.935Z</time></trkpt><trkpt lat="36.7162211" lon="9.9782505"><ele>34.0</ele><time>2026-05-03T16:41:28.952Z</time></trkpt><trkpt lat="36.7163952" lon="9.9784856"><ele>34.0</ele><time>2026-05-03T16:41:29.937Z</time></trkpt><trkpt lat="36.716566" lon="9.9787192"><ele>34.0</ele><time>2026-05-03T16:41:30.923Z</time></trkpt><trkpt lat="36.7167424" lon="9.9789518"><ele>34.0</ele><time>2026-05-03T16:41:31.918Z</time></trkpt><trkpt lat="36.7169156" lon="9.9791834"><ele>34.0</ele><time>2026-05-03T16:41:32.92Z</time></trkpt><trkpt lat="36.7170885" lon="9.9794145"><ele>34.0</ele><time>2026-05-03T16:41:33.93Z</time></trkpt><trkpt lat="36.7172632" lon="9.9796434"><ele>34.0</ele><time>2026-05-03T16:41:34.93Z</time></trkpt><trkpt lat="36.7174392" lon="9.9798739"><ele>34.0</ele><time>2026-05-03T16:41:35.932Z</time></trkpt><trkpt lat="36.7176155" lon="9.9801111"><ele>34.0</ele><time>2026-05-03T16:41:36.928Z</time></trkpt><trkpt lat="36.7177903" lon="9.9803508"><ele>34.0</ele><time>2026-05-03T16:41:37.911Z</time></trkpt><trkpt lat="36.7179634" lon="9.9805863"><ele>34.0</ele><time>2026-05-03T16:41:38.907Z</time></trkpt><trkpt lat="36.7181356" lon="9.9808222"><ele>34.0</ele><time>2026-05-03T16:41:39.917Z</time></trkpt><trkpt lat="36.7183082" lon="9.9810559"><ele>33.5</ele><time>2026-05-03T16:41:40.932Z</time></trkpt><trkpt lat="36.7184847" lon="9.9812871"><ele>33.0</ele><time>2026-05-03T16:41:41.944Z</time></trkpt><trkpt lat="36.718657" lon="9.9815206"><ele>33.0</ele><time>2026-05-03T16:41:42.907Z</time></trkpt><trkpt lat="36.7188289" lon="9.9817555"><ele>33.0</ele><time>2026-05-03T16:41:43.936Z</time></trkpt><trkpt lat="36.7190055" lon="9.9819966"><ele>33.0</ele><time>2026-05-03T16:41:44.932Z</time></trkpt><trkpt lat="36.7191747" lon="9.9822384"><ele>33.0</ele><time>2026-05-03T16:41:45.943Z</time></trkpt><trkpt lat="36.719341" lon="9.9824809"><ele>34.5</ele><time>2026-05-03T16:41:46.935Z</time></trkpt><trkpt lat="36.7195022" lon="9.9827192"><ele>36.0</ele><time>2026-05-03T16:41:47.96Z</time></trkpt><trkpt lat="36.7196716" lon="9.9829639"><ele>36.0</ele><time>2026-05-03T16:41:48.92Z</time></trkpt><trkpt lat="36.7198374" lon="9.9832122"><ele>36.0</ele><time>2026-05-03T16:41:49.945Z</time></trkpt><trkpt lat="36.72" lon="9.9834612"><ele>36.5</ele><time>2026-05-03T16:41:50.919Z</time></trkpt><trkpt lat="36.7201581" lon="9.9837078"><ele>37.0</ele><time>2026-05-03T16:41:51.929Z</time></trkpt><trkpt lat="36.7203095" lon="9.983957"><ele>38.0</ele><time>2026-05-03T16:41:52.936Z</time></trkpt><trkpt lat="36.7204627" lon="9.9842095"><ele>39.0</ele><time>2026-05-03T16:41:53.927Z</time></trkpt><trkpt lat="36.7206184" lon="9.9844634"><ele>39.0</ele><time>2026-05-03T16:41:54.944Z</time></trkpt><trkpt lat="36.7207686" lon="9.9847184"><ele>39.0</ele><time>2026-05-03T16:41:55.917Z</time></trkpt><trkpt lat="36.720922" lon="9.9849776"><ele>40.5</ele><time>2026-05-03T16:41:56.934Z</time></trkpt><trkpt lat="36.7210707" lon="9.9852364"><ele>42.0</ele><time>2026-05-03T16:41:57.924Z</time></trkpt><trkpt lat="36.7212118" lon="9.9854993"><ele>42.0</ele><time>2026-05-03T16:41:58.927Z</time></trkpt><trkpt lat="36.7213531" lon="9.9857653"><ele>42.0</ele><time>2026-05-03T16:41:59.927Z</time></trkpt><trkpt lat="36.7214941" lon="9.9860304"><ele>40.5</ele><time>2026-05-03T16:42:00.927Z</time></trkpt><trkpt lat="36.7216353" lon="9.9863014"><ele>39.0</ele><time>2026-05-03T16:42:01.925Z</time></trkpt><trkpt lat="36.7217729" lon="9.9865728"><ele>38.5</ele><time>2026-05-03T16:42:02.908Z</time></trkpt><trkpt lat="36.7219064" lon="9.9868406"><ele>38.0</ele><time>2026-05-03T16:42:03.93Z</time></trkpt><trkpt lat="36.7220399" lon="9.9871145"><ele>38.0</ele><time>2026-05-03T16:42:04.937Z</time></trkpt><trkpt lat="36.7221707" lon="9.9873886"><ele>38.0</ele><time>2026-05-03T16:42:05.928Z</time></trkpt><trkpt lat="36.7223007" lon="9.9876609"><ele>38.0</ele><time>2026-05-03T16:42:06.926Z</time></trkpt><trkpt lat="36.7224265" lon="9.9879392"><ele>38.0</ele><time>2026-05-03T16:42:07.924Z</time></trkpt><trkpt lat="36.7225458" lon="9.9882216"><ele>38.5</ele><time>2026-05-03T16:42:08.912Z</time></trkpt><trkpt lat="36.7226642" lon="9.9885027"><ele>39.0</ele><time>2026-05-03T16:42:09.9Z</time></trkpt><trkpt lat="36.722782" lon="9.9887813"><ele>39.5</ele><time>2026-05-03T16:42:10.934Z</time></trkpt><trkpt lat="36.7228948" lon="9.9890666"><ele>40.0</ele><time>2026-05-03T16:42:11.945Z</time></trkpt><trkpt lat="36.7230058" lon="9.9893527"><ele>40.0</ele><time>2026-05-03T16:42:12.93Z</time></trkpt><trkpt lat="36.7231155" lon="9.9896445"><ele>40.0</ele><time>2026-05-03T16:42:13.902Z</time></trkpt><trkpt lat="36.7232259" lon="9.9899354"><ele>40.5</ele><time>2026-05-03T16:42:14.926Z</time></trkpt><trkpt lat="36.7233389" lon="9.9902245"><ele>41.0</ele><time>2026-05-03T16:42:15.931Z</time></trkpt><trkpt lat="36.723448" lon="9.9905146"><ele>41.0</ele><time>2026-05-03T16:42:16.915Z</time></trkpt><trkpt lat="36.7235631" lon="9.9908028"><ele>41.0</ele><time>2026-05-03T16:42:17.91Z</time></trkpt><trkpt lat="36.723674" lon="9.9910875"><ele>37.0</ele><time>2026-05-03T16:42:18.93Z</time></trkpt><trkpt lat="36.7237827" lon="9.9913712"><ele>33.0</ele><time>2026-05-03T16:42:19.924Z</time></trkpt><trkpt lat="36.7238953" lon="9.9916563"><ele>33.5</ele><time>2026-05-03T16:42:20.929Z</time></trkpt><trkpt lat="36.7240089" lon="9.991942"><ele>34.0</ele><time>2026-05-03T16:42:21.933Z</time></trkpt><trkpt lat="36.724122" lon="9.9922259"><ele>33.5</ele><time>2026-05-03T16:42:22.933Z</time></trkpt><trkpt lat="36.7242363" lon="9.9925076"><ele>33.0</ele><time>2026-05-03T16:42:23.941Z</time></trkpt><trkpt lat="36.7243494" lon="9.9927968"><ele>32.5</ele><time>2026-05-03T16:42:24.934Z</time></trkpt><trkpt lat="36.7244584" lon="9.9930862"><ele>32.0</ele><time>2026-05-03T16:42:25.931Z</time></trkpt><trkpt lat="36.724567" lon="9.9933795"><ele>32.0</ele><time>2026-05-03T16:42:26.928Z</time></trkpt><trkpt lat="36.7246796" lon="9.9936657"><ele>32.0</ele><time>2026-05-03T16:42:27.913Z</time></trkpt><trkpt lat="36.7247902" lon="9.9939473"><ele>32.0</ele><time>2026-05-03T16:42:28.941Z</time></trkpt><trkpt lat="36.7249059" lon="9.9942357"><ele>32.0</ele><time>2026-05-03T16:42:29.926Z</time></trkpt><trkpt lat="36.725017" lon="9.9945207"><ele>32.0</ele><time>2026-05-03T16:42:30.928Z</time></trkpt><trkpt lat="36.7251298" lon="9.9948067"><ele>32.0</ele><time>2026-05-03T16:42:31.916Z</time></trkpt><trkpt lat="36.7252424" lon="9.9950924"><ele>32.5</ele><time>2026-05-03T16:42:32.913Z</time></trkpt><trkpt lat="36.7253592" lon="9.9953801"><ele>33.0</ele><time>2026-05-03T16:42:33.91Z</time></trkpt><trkpt lat="36.725473" lon="9.995665"><ele>32.5</ele><time>2026-05-03T16:42:34.927Z</time></trkpt><trkpt lat="36.7255855" lon="9.9959478"><ele>32.0</ele><time>2026-05-03T16:42:35.913Z</time></trkpt><trkpt lat="36.7256966" lon="9.9962326"><ele>32.0</ele><time>2026-05-03T16:42:36.934Z</time></trkpt><trkpt lat="36.7258102" lon="9.996522"><ele>32.0</ele><time>2026-05-03T16:42:37.936Z</time></trkpt><trkpt lat="36.7259211" lon="9.9968114"><ele>32.0</ele><time>2026-05-03T16:42:38.92Z</time></trkpt><trkpt lat="36.7260347" lon="9.9970967"><ele>32.0</ele><time>2026-05-03T16:42:39.93Z</time></trkpt><trkpt lat="36.7261481" lon="9.997385"><ele>32.5</ele><time>2026-05-03T16:42:40.929Z</time></trkpt><trkpt lat="36.7262582" lon="9.9976705"><ele>33.0</ele><time>2026-05-03T16:42:41.951Z</time></trkpt><trkpt lat="36.7263715" lon="9.9979546"><ele>33.0</ele><time>2026-05-03T16:42:42.942Z</time></trkpt><trkpt lat="36.7264852" lon="9.9982434"><ele>33.0</ele><time>2026-05-03T16:42:43.911Z</time></trkpt><trkpt lat="36.7265996" lon="9.9985332"><ele>33.5</ele><time>2026-05-03T16:42:44.916Z</time></trkpt><trkpt lat="36.7267168" lon="9.9988171"><ele>34.0</ele><time>2026-05-03T16:42:45.926Z</time></trkpt><trkpt lat="36.7268312" lon="9.9991037"><ele>33.5</ele><time>2026-05-03T16:42:46.928Z</time></trkpt><trkpt lat="36.7269417" lon="9.9993909"><ele>33.0</ele><time>2026-05-03T16:42:47.951Z</time></trkpt><trkpt lat="36.7270514" lon="9.9996747"><ele>33.0</ele><time>2026-05-03T16:42:48.924Z</time></trkpt><trkpt lat="36.7271626" lon="9.9999598"><ele>33.0</ele><time>2026-05-03T16:42:49.916Z</time></trkpt><trkpt lat="36.7272759" lon="10.0002445"><ele>33.0</ele><time>2026-05-03T16:42:50.921Z</time></trkpt><trkpt lat="36.7273849" lon="10.0005297"><ele>33.0</ele><time>2026-05-03T16:42:51.93Z</time></trkpt><trkpt lat="36.7274985" lon="10.0008131"><ele>33.5</ele><time>2026-05-03T16:42:52.922Z</time></trkpt><trkpt lat="36.7276121" lon="10.0010958"><ele>34.0</ele><time>2026-05-03T16:42:53.928Z</time></trkpt><trkpt lat="36.7277252" lon="10.0013806"><ele>34.0</ele><time>2026-05-03T16:42:54.938Z</time></trkpt><trkpt lat="36.7278345" lon="10.0016643"><ele>34.0</ele><time>2026-05-03T16:42:55.922Z</time></trkpt><trkpt lat="36.7279472" lon="10.0019493"><ele>35.0</ele><time>2026-05-03T16:42:56.918Z</time></trkpt><trkpt lat="36.7280587" lon="10.0022352"><ele>36.0</ele><time>2026-05-03T16:42:57.92Z</time></trkpt><trkpt lat="36.7281702" lon="10.0025214"><ele>37.5</ele><time>2026-05-03T16:42:58.937Z</time></trkpt><trkpt lat="36.728283" lon="10.0028065"><ele>39.0</ele><time>2026-05-03T16:42:59.932Z</time></trkpt><trkpt lat="36.7284003" lon="10.0030943"><ele>41.0</ele><time>2026-05-03T16:43:00.923Z</time></trkpt><trkpt lat="36.7285107" lon="10.0033826"><ele>43.0</ele><time>2026-05-03T16:43:01.908Z</time></trkpt><trkpt lat="36.7286256" lon="10.0036731"><ele>44.0</ele><time>2026-05-03T16:43:02.908Z</time></trkpt><trkpt lat="36.7287386" lon="10.003961"><ele>45.0</ele><time>2026-05-03T16:43:03.927Z</time></trkpt><trkpt lat="36.7288516" lon="10.0042461"><ele>47.0</ele><time>2026-05-03T16:43:04.932Z</time></trkpt><trkpt lat="36.7289661" lon="10.0045333"><ele>49.0</ele><time>2026-05-03T16:43:05.926Z</time></trkpt><trkpt lat="36.7290821" lon="10.0048132"><ele>49.5</ele><time>2026-05-03T16:43:06.948Z</time></trkpt><trkpt lat="36.7292026" lon="10.005094"><ele>50.0</ele><time>2026-05-03T16:43:07.929Z</time></trkpt><trkpt lat="36.7293245" lon="10.0053797"><ele>53.0</ele><time>2026-05-03T16:43:08.923Z</time></trkpt><trkpt lat="36.7294417" lon="10.0056635"><ele>56.0</ele><time>2026-05-03T16:43:09.898Z</time></trkpt><trkpt lat="36.7295555" lon="10.0059423"><ele>57.5</ele><time>2026-05-03T16:43:10.933Z</time></trkpt><trkpt lat="36.7296714" lon="10.0062228"><ele>59.0</ele><time>2026-05-03T16:43:11.923Z</time></trkpt><trkpt lat="36.7297856" lon="10.0065056"><ele>57.0</ele><time>2026-05-03T16:43:12.923Z</time></trkpt><trkpt lat="36.7298953" lon="10.0067939"><ele>55.0</ele><time>2026-05-03T16:43:13.926Z</time></trkpt><trkpt lat="36.7300047" lon="10.0070841"><ele>55.0</ele><time>2026-05-03T16:43:14.924Z</time></trkpt><trkpt lat="36.730113" lon="10.007378"><ele>55.0</ele><time>2026-05-03T16:43:15.908Z</time></trkpt><trkpt lat="36.730223" lon="10.0076649"><ele>51.5</ele><time>2026-05-03T16:43:16.932Z</time></trkpt><trkpt lat="36.7303343" lon="10.0079555"><ele>48.0</ele><time>2026-05-03T16:43:17.921Z</time></trkpt><trkpt lat="36.7304505" lon="10.0082435"><ele>46.0</ele><time>2026-05-03T16:43:18.929Z</time></trkpt><trkpt lat="36.7305661" lon="10.0085246"><ele>44.0</ele><time>2026-05-03T16:43:19.912Z</time></trkpt><trkpt lat="36.7306807" lon="10.0088118"><ele>44.0</ele><time>2026-05-03T16:43:20.918Z</time></trkpt><trkpt lat="36.7307988" lon="10.0091017"><ele>44.0</ele><time>2026-05-03T16:43:21.935Z</time></trkpt><trkpt lat="36.7309136" lon="10.0093856"><ele>43.5</ele><time>2026-05-03T16:43:22.925Z</time></trkpt><trkpt lat="36.731027" lon="10.0096689"><ele>43.0</ele><time>2026-05-03T16:43:23.903Z</time></trkpt><trkpt lat="36.7311419" lon="10.0099525"><ele>42.0</ele><time>2026-05-03T16:43:24.927Z</time></trkpt><trkpt lat="36.7312576" lon="10.0102372"><ele>41.0</ele><time>2026-05-03T16:43:25.936Z</time></trkpt><trkpt lat="36.7313679" lon="10.010521"><ele>41.0</ele><time>2026-05-03T16:43:26.946Z</time></trkpt><trkpt lat="36.7314834" lon="10.0108087"><ele>41.0</ele><time>2026-05-03T16:43:27.931Z</time></trkpt><trkpt lat="36.7316035" lon="10.0110946"><ele>41.0</ele><time>2026-05-03T16:43:28.923Z</time></trkpt><trkpt lat="36.7317207" lon="10.0113766"><ele>41.0</ele><time>2026-05-03T16:43:29.936Z</time></trkpt><trkpt lat="36.7318432" lon="10.0116625"><ele>41.0</ele><time>2026-05-03T16:43:30.927Z</time></trkpt><trkpt lat="36.7319654" lon="10.0119486"><ele>41.0</ele><time>2026-05-03T16:43:31.917Z</time></trkpt><trkpt lat="36.7320892" lon="10.0122445"><ele>41.5</ele><time>2026-05-03T16:43:32.932Z</time></trkpt><trkpt lat="36.7322199" lon="10.0125567"><ele>42.0</ele><time>2026-05-03T16:43:33.935Z</time></trkpt><trkpt lat="36.732349" lon="10.0128948"><ele>42.0</ele><time>2026-05-03T16:43:34.931Z</time></trkpt><trkpt lat="36.7324826" lon="10.0132276"><ele>42.0</ele><time>2026-05-03T16:43:35.94Z</time></trkpt><trkpt lat="36.7326119" lon="10.013554"><ele>41.0</ele><time>2026-05-03T16:43:36.941Z</time></trkpt><trkpt lat="36.7327344" lon="10.0138663"><ele>40.0</ele><time>2026-05-03T16:43:37.933Z</time></trkpt><trkpt lat="36.7328412" lon="10.0141704"><ele>40.0</ele><time>2026-05-03T16:43:38.938Z</time></trkpt><trkpt lat="36.7329511" lon="10.0144739"><ele>40.0</ele><time>2026-05-03T16:43:39.935Z</time></trkpt><trkpt lat="36.7330631" lon="10.0147614"><ele>40.0</ele><time>2026-05-03T16:43:40.924Z</time></trkpt><trkpt lat="36.7331748" lon="10.01504"><ele>40.0</ele><time>2026-05-03T16:43:41.918Z</time></trkpt><trkpt lat="36.7332907" lon="10.0153236"><ele>40.0</ele><time>2026-05-03T16:43:42.917Z</time></trkpt><trkpt lat="36.7334024" lon="10.0156028"><ele>40.0</ele><time>2026-05-03T16:43:43.931Z</time></trkpt><trkpt lat="36.7335186" lon="10.0158893"><ele>40.5</ele><time>2026-05-03T16:43:44.928Z</time></trkpt><trkpt lat="36.7336331" lon="10.0161757"><ele>41.0</ele><time>2026-05-03T16:43:45.944Z</time></trkpt><trkpt lat="36.7337494" lon="10.0164641"><ele>41.5</ele><time>2026-05-03T16:43:46.937Z</time></trkpt><trkpt lat="36.7338671" lon="10.0167512"><ele>42.0</ele><time>2026-05-03T16:43:47.903Z</time></trkpt><trkpt lat="36.7339826" lon="10.0170342"><ele>42.0</ele><time>2026-05-03T16:43:48.919Z</time></trkpt><trkpt lat="36.7340973" lon="10.017318"><ele>42.0</ele><time>2026-05-03T16:43:49.931Z</time></trkpt><trkpt lat="36.7342083" lon="10.0176031"><ele>42.0</ele><time>2026-05-03T16:43:50.925Z</time></trkpt><trkpt lat="36.7343217" lon="10.0178851"><ele>42.0</ele><time>2026-05-03T16:43:51.917Z</time></trkpt><trkpt lat="36.7344366" lon="10.0181708"><ele>41.0</ele><time>2026-05-03T16:43:52.922Z</time></trkpt><trkpt lat="36.7345509" lon="10.0184539"><ele>40.0</ele><time>2026-05-03T16:43:53.91Z</time></trkpt><trkpt lat="36.7346678" lon="10.0187394"><ele>40.0</ele><time>2026-05-03T16:43:54.912Z</time></trkpt><trkpt lat="36.7347863" lon="10.0190371"><ele>40.0</ele><time>2026-05-03T16:43:55.936Z</time></trkpt><trkpt lat="36.7349204" lon="10.0193435"><ele>40.5</ele><time>2026-05-03T16:43:56.915Z</time></trkpt><trkpt lat="36.7350608" lon="10.0196687"><ele>41.0</ele><time>2026-05-03T16:43:57.93Z</time></trkpt><trkpt lat="36.7352085" lon="10.0200099"><ele>41.5</ele><time>2026-05-03T16:43:58.926Z</time></trkpt><trkpt lat="36.735352" lon="10.0203586"><ele>42.0</ele><time>2026-05-03T16:43:59.926Z</time></trkpt><trkpt lat="36.7354989" lon="10.0207144"><ele>41.5</ele><time>2026-05-03T16:44:00.928Z</time></trkpt><trkpt lat="36.7356422" lon="10.0210728"><ele>41.0</ele><time>2026-05-03T16:44:01.93Z</time></trkpt><trkpt lat="36.7357878" lon="10.0214376"><ele>41.0</ele><time>2026-05-03T16:44:02.907Z</time></trkpt><trkpt lat="36.7359409" lon="10.0218159"><ele>41.0</ele><time>2026-05-03T16:44:03.903Z</time></trkpt><trkpt lat="36.7360929" lon="10.022198"><ele>41.5</ele><time>2026-05-03T16:44:04.919Z</time></trkpt><trkpt lat="36.7362449" lon="10.0225766"><ele>42.0</ele><time>2026-05-03T16:44:05.94Z</time></trkpt><trkpt lat="36.7363928" lon="10.0229497"><ele>42.0</ele><time>2026-05-03T16:44:06.928Z</time></trkpt><trkpt lat="36.7365473" lon="10.0233297"><ele>42.0</ele><time>2026-05-03T16:44:07.916Z</time></trkpt><trkpt lat="36.7366993" lon="10.0237114"><ele>42.0</ele><time>2026-05-03T16:44:08.924Z</time></trkpt><trkpt lat="36.7368521" lon="10.0240913"><ele>42.0</ele><time>2026-05-03T16:44:09.937Z</time></trkpt><trkpt lat="36.737003" lon="10.0244715"><ele>42.0</ele><time>2026-05-03T16:44:10.93Z</time></trkpt><trkpt lat="36.7371543" lon="10.024846"><ele>42.0</ele><time>2026-05-03T16:44:11.923Z</time></trkpt><trkpt lat="36.7373055" lon="10.0252159"><ele>42.0</ele><time>2026-05-03T16:44:12.934Z</time></trkpt><trkpt lat="36.7374528" lon="10.0255839"><ele>42.0</ele><time>2026-05-03T16:44:13.94Z</time></trkpt><trkpt lat="36.7375988" lon="10.0259474"><ele>41.5</ele><time>2026-05-03T16:44:14.928Z</time></trkpt><trkpt lat="36.7377373" lon="10.0262959"><ele>41.0</ele><time>2026-05-03T16:44:15.93Z</time></trkpt><trkpt lat="36.7378649" lon="10.0266231"><ele>41.5</ele><time>2026-05-03T16:44:16.923Z</time></trkpt><trkpt lat="36.7379886" lon="10.0269335"><ele>42.0</ele><time>2026-05-03T16:44:17.919Z</time></trkpt><trkpt lat="36.7381148" lon="10.0272332"><ele>42.0</ele><time>2026-05-03T16:44:18.928Z</time></trkpt><trkpt lat="36.7382414" lon="10.027517"><ele>42.0</ele><time>2026-05-03T16:44:19.919Z</time></trkpt><trkpt lat="36.7383667" lon="10.0277934"><ele>42.0</ele><time>2026-05-03T16:44:20.926Z</time></trkpt><trkpt lat="36.738497" lon="10.0280641"><ele>42.0</ele><time>2026-05-03T16:44:21.913Z</time></trkpt><trkpt lat="36.738634" lon="10.0283218"><ele>42.0</ele><time>2026-05-03T16:44:22.916Z</time></trkpt><trkpt lat="36.7387797" lon="10.0285812"><ele>42.0</ele><time>2026-05-03T16:44:23.929Z</time></trkpt><trkpt lat="36.7389231" lon="10.0288414"><ele>42.0</ele><time>2026-05-03T16:44:24.928Z</time></trkpt><trkpt lat="36.7390722" lon="10.029102"><ele>42.0</ele><time>2026-05-03T16:44:25.921Z</time></trkpt><trkpt lat="36.7392267" lon="10.0293552"><ele>42.5</ele><time>2026-05-03T16:44:26.93Z</time></trkpt><trkpt lat="36.7393871" lon="10.0296079"><ele>43.0</ele><time>2026-05-03T16:44:27.928Z</time></trkpt><trkpt lat="36.7395495" lon="10.0298579"><ele>44.5</ele><time>2026-05-03T16:44:28.921Z</time></trkpt><trkpt lat="36.7397178" lon="10.0300999"><ele>46.0</ele><time>2026-05-03T16:44:29.933Z</time></trkpt><trkpt lat="36.73989" lon="10.0303378"><ele>46.0</ele><time>2026-05-03T16:44:30.944Z</time></trkpt><trkpt lat="36.7400625" lon="10.0305757"><ele>46.0</ele><time>2026-05-03T16:44:31.915Z</time></trkpt><trkpt lat="36.7402419" lon="10.0308074"><ele>44.5</ele><time>2026-05-03T16:44:32.93Z</time></trkpt><trkpt lat="36.7404256" lon="10.0310274"><ele>43.0</ele><time>2026-05-03T16:44:33.928Z</time></trkpt><trkpt lat="36.7406115" lon="10.0312446"><ele>43.0</ele><time>2026-05-03T16:44:34.913Z</time></trkpt><trkpt lat="36.740803" lon="10.0314574"><ele>43.0</ele><time>2026-05-03T16:44:35.915Z</time></trkpt><trkpt lat="36.7410005" lon="10.031661"><ele>46.0</ele><time>2026-05-03T16:44:36.923Z</time></trkpt><trkpt lat="36.7411964" lon="10.0318605"><ele>49.0</ele><time>2026-05-03T16:44:37.951Z</time></trkpt><trkpt lat="36.7413957" lon="10.0320583"><ele>49.0</ele><time>2026-05-03T16:44:38.937Z</time></trkpt><trkpt lat="36.7416049" lon="10.0322525"><ele>49.0</ele><time>2026-05-03T16:44:39.899Z</time></trkpt><trkpt lat="36.7418127" lon="10.0324383"><ele>51.0</ele><time>2026-05-03T16:44:40.926Z</time></trkpt><trkpt lat="36.7420236" lon="10.0326181"><ele>53.0</ele><time>2026-05-03T16:44:41.931Z</time></trkpt><trkpt lat="36.7422404" lon="10.0328001"><ele>53.0</ele><time>2026-05-03T16:44:42.92Z</time></trkpt><trkpt lat="36.7424546" lon="10.0329794"><ele>53.0</ele><time>2026-05-03T16:44:43.928Z</time></trkpt><trkpt lat="36.7426669" lon="10.0331579"><ele>52.0</ele><time>2026-05-03T16:44:44.915Z</time></trkpt><trkpt lat="36.7428756" lon="10.0333341"><ele>51.0</ele><time>2026-05-03T16:44:45.922Z</time></trkpt><trkpt lat="36.7430895" lon="10.033518"><ele>51.0</ele><time>2026-05-03T16:44:46.941Z</time></trkpt><trkpt lat="36.7433041" lon="10.0336999"><ele>51.0</ele><time>2026-05-03T16:44:47.924Z</time></trkpt><trkpt lat="36.7435214" lon="10.033877"><ele>51.0</ele><time>2026-05-03T16:44:48.92Z</time></trkpt><trkpt lat="36.7437359" lon="10.0340469"><ele>51.0</ele><time>2026-05-03T16:44:49.926Z</time></trkpt><trkpt lat="36.7439505" lon="10.0342213"><ele>51.0</ele><time>2026-05-03T16:44:50.921Z</time></trkpt><trkpt lat="36.7441653" lon="10.0343945"><ele>51.0</ele><time>2026-05-03T16:44:51.936Z</time></trkpt><trkpt lat="36.7443867" lon="10.0345774"><ele>50.0</ele><time>2026-05-03T16:44:52.925Z</time></trkpt><trkpt lat="36.7446068" lon="10.0347623"><ele>49.0</ele><time>2026-05-03T16:44:53.912Z</time></trkpt><trkpt lat="36.7448334" lon="10.0349534"><ele>48.0</ele><time>2026-05-03T16:44:54.941Z</time></trkpt><trkpt lat="36.7450545" lon="10.0351391"><ele>47.0</ele><time>2026-05-03T16:44:55.923Z</time></trkpt><trkpt lat="36.7452744" lon="10.0353226"><ele>47.0</ele><time>2026-05-03T16:44:56.917Z</time></trkpt><trkpt lat="36.7454938" lon="10.0355059"><ele>47.0</ele><time>2026-05-03T16:44:57.92Z</time></trkpt><trkpt lat="36.7457162" lon="10.0356875"><ele>47.0</ele><time>2026-05-03T16:44:58.925Z</time></trkpt><trkpt lat="36.7459356" lon="10.0358694"><ele>47.0</ele><time>2026-05-03T16:44:59.939Z</time></trkpt><trkpt lat="36.7461555" lon="10.0360513"><ele>47.5</ele><time>2026-05-03T16:45:00.934Z</time></trkpt><trkpt lat="36.7463805" lon="10.0362314"><ele>48.0</ele><time>2026-05-03T16:45:01.925Z</time></trkpt><trkpt lat="36.7466003" lon="10.0364185"><ele>48.0</ele><time>2026-05-03T16:45:02.933Z</time></trkpt><trkpt lat="36.746823" lon="10.0366059"><ele>48.0</ele><time>2026-05-03T16:45:03.919Z</time></trkpt><trkpt lat="36.7470395" lon="10.0367965"><ele>48.5</ele><time>2026-05-03T16:45:04.929Z</time></trkpt><trkpt lat="36.7472525" lon="10.0369853"><ele>49.0</ele><time>2026-05-03T16:45:05.9Z</time></trkpt><trkpt lat="36.7474707" lon="10.0371715"><ele>49.0</ele><time>2026-05-03T16:45:06.906Z</time></trkpt><trkpt lat="36.7476893" lon="10.0373529"><ele>49.0</ele><time>2026-05-03T16:45:07.911Z</time></trkpt><trkpt lat="36.7479046" lon="10.0375327"><ele>48.5</ele><time>2026-05-03T16:45:08.919Z</time></trkpt><trkpt lat="36.7481297" lon="10.0377158"><ele>48.0</ele><time>2026-05-03T16:45:09.916Z</time></trkpt><trkpt lat="36.7483493" lon="10.0379014"><ele>47.5</ele><time>2026-05-03T16:45:10.918Z</time></trkpt><trkpt lat="36.74857" lon="10.0380807"><ele>47.0</ele><time>2026-05-03T16:45:11.917Z</time></trkpt><trkpt lat="36.748788" lon="10.0382662"><ele>47.5</ele><time>2026-05-03T16:45:12.916Z</time></trkpt><trkpt lat="36.749004" lon="10.038453"><ele>48.0</ele><time>2026-05-03T16:45:13.933Z</time></trkpt><trkpt lat="36.7492195" lon="10.0386461"><ele>48.0</ele><time>2026-05-03T16:45:14.915Z</time></trkpt><trkpt lat="36.7494343" lon="10.0388421"><ele>48.0</ele><time>2026-05-03T16:45:15.916Z</time></trkpt><trkpt lat="36.7496466" lon="10.0390454"><ele>48.5</ele><time>2026-05-03T16:45:16.943Z</time></trkpt><trkpt lat="36.7498619" lon="10.0392467"><ele>49.0</ele><time>2026-05-03T16:45:17.929Z</time></trkpt><trkpt lat="36.7500702" lon="10.0394503"><ele>51.5</ele><time>2026-05-03T16:45:18.919Z</time></trkpt><trkpt lat="36.7502752" lon="10.0396622"><ele>54.0</ele><time>2026-05-03T16:45:19.904Z</time></trkpt><trkpt lat="36.7504757" lon="10.039876"><ele>55.5</ele><time>2026-05-03T16:45:20.936Z</time></trkpt><trkpt lat="36.7506754" lon="10.0400986"><ele>57.0</ele><time>2026-05-03T16:45:21.928Z</time></trkpt><trkpt lat="36.750871" lon="10.040319"><ele>60.0</ele><time>2026-05-03T16:45:22.935Z</time></trkpt><trkpt lat="36.7510636" lon="10.0405402"><ele>63.0</ele><time>2026-05-03T16:45:23.922Z</time></trkpt><trkpt lat="36.7512535" lon="10.0407654"><ele>65.5</ele><time>2026-05-03T16:45:24.922Z</time></trkpt><trkpt lat="36.7514468" lon="10.0409996"><ele>68.0</ele><time>2026-05-03T16:45:25.923Z</time></trkpt><trkpt lat="36.7516333" lon="10.0412322"><ele>68.0</ele><time>2026-05-03T16:45:26.932Z</time></trkpt><trkpt lat="36.7518164" lon="10.0414705"><ele>68.0</ele><time>2026-05-03T16:45:27.922Z</time></trkpt><trkpt lat="36.7520025" lon="10.0417114"><ele>68.5</ele><time>2026-05-03T16:45:28.927Z</time></trkpt><trkpt lat="36.7521806" lon="10.0419549"><ele>69.0</ele><time>2026-05-03T16:45:29.922Z</time></trkpt><trkpt lat="36.7523563" lon="10.0422096"><ele>70.5</ele><time>2026-05-03T16:45:30.92Z</time></trkpt><trkpt lat="36.752518" lon="10.0424703"><ele>72.0</ele><time>2026-05-03T16:45:31.929Z</time></trkpt><trkpt lat="36.7526739" lon="10.0427329"><ele>73.0</ele><time>2026-05-03T16:45:32.918Z</time></trkpt><trkpt lat="36.7528312" lon="10.0430002"><ele>74.0</ele><time>2026-05-03T16:45:33.935Z</time></trkpt><trkpt lat="36.7529874" lon="10.0432744"><ele>76.0</ele><time>2026-05-03T16:45:34.926Z</time></trkpt><trkpt lat="36.753138" lon="10.0435464"><ele>78.0</ele><time>2026-05-03T16:45:35.93Z</time></trkpt><trkpt lat="36.7532841" lon="10.0438206"><ele>78.0</ele><time>2026-05-03T16:45:36.929Z</time></trkpt><trkpt lat="36.7534271" lon="10.0440943"><ele>78.0</ele><time>2026-05-03T16:45:37.922Z</time></trkpt><trkpt lat="36.7535693" lon="10.0443696"><ele>78.5</ele><time>2026-05-03T16:45:38.925Z</time></trkpt><trkpt lat="36.7537102" lon="10.0446523"><ele>79.0</ele><time>2026-05-03T16:45:39.924Z</time></trkpt><trkpt lat="36.7538405" lon="10.044936"><ele>78.0</ele><time>2026-05-03T16:45:40.906Z</time></trkpt><trkpt lat="36.7539702" lon="10.0452221"><ele>77.0</ele><time>2026-05-03T16:45:41.911Z</time></trkpt><trkpt lat="36.7540945" lon="10.0455156"><ele>75.0</ele><time>2026-05-03T16:45:42.942Z</time></trkpt><trkpt lat="36.7542157" lon="10.0458107"><ele>73.0</ele><time>2026-05-03T16:45:43.918Z</time></trkpt><trkpt lat="36.7543356" lon="10.0461071"><ele>73.0</ele><time>2026-05-03T16:45:44.914Z</time></trkpt><trkpt lat="36.7544572" lon="10.0464078"><ele>73.0</ele><time>2026-05-03T16:45:45.926Z</time></trkpt><trkpt lat="36.7545724" lon="10.0467064"><ele>73.0</ele><time>2026-05-03T16:45:46.923Z</time></trkpt><trkpt lat="36.7546864" lon="10.0470068"><ele>73.0</ele><time>2026-05-03T16:45:47.938Z</time></trkpt><trkpt lat="36.7547988" lon="10.0473067"><ele>70.5</ele><time>2026-05-03T16:45:48.926Z</time></trkpt><trkpt lat="36.7549082" lon="10.0476133"><ele>68.0</ele><time>2026-05-03T16:45:49.931Z</time></trkpt><trkpt lat="36.7550133" lon="10.0479158"><ele>68.0</ele><time>2026-05-03T16:45:50.921Z</time></trkpt><trkpt lat="36.7551167" lon="10.0482222"><ele>68.0</ele><time>2026-05-03T16:45:51.912Z</time></trkpt><trkpt lat="36.7552275" lon="10.0485289"><ele>68.0</ele><time>2026-05-03T16:45:52.927Z</time></trkpt><trkpt lat="36.7553375" lon="10.0488308"><ele>68.0</ele><time>2026-05-03T16:45:53.933Z</time></trkpt><trkpt lat="36.7554475" lon="10.049134"><ele>67.0</ele><time>2026-05-03T16:45:54.932Z</time></trkpt><trkpt lat="36.755558" lon="10.0494376"><ele>66.0</ele><time>2026-05-03T16:45:55.929Z</time></trkpt><trkpt lat="36.7556675" lon="10.0497447"><ele>65.5</ele><time>2026-05-03T16:45:56.922Z</time></trkpt><trkpt lat="36.7557776" lon="10.0500503"><ele>65.0</ele><time>2026-05-03T16:45:57.921Z</time></trkpt><trkpt lat="36.755892" lon="10.0503556"><ele>65.0</ele><time>2026-05-03T16:45:58.927Z</time></trkpt><trkpt lat="36.7560078" lon="10.0506553"><ele>65.0</ele><time>2026-05-03T16:45:59.926Z</time></trkpt><trkpt lat="36.756124" lon="10.0509528"><ele>68.0</ele><time>2026-05-03T16:46:00.941Z</time></trkpt><trkpt lat="36.7562369" lon="10.0512504"><ele>71.0</ele><time>2026-05-03T16:46:01.94Z</time></trkpt><trkpt lat="36.7563464" lon="10.0515477"><ele>72.5</ele><time>2026-05-03T16:46:02.933Z</time></trkpt><trkpt lat="36.7564566" lon="10.0518475"><ele>74.0</ele><time>2026-05-03T16:46:03.943Z</time></trkpt><trkpt lat="36.7565661" lon="10.0521523"><ele>74.0</ele><time>2026-05-03T16:46:04.931Z</time></trkpt><trkpt lat="36.7566755" lon="10.052456"><ele>74.0</ele><time>2026-05-03T16:46:05.923Z</time></trkpt><trkpt lat="36.7567827" lon="10.0527611"><ele>78.5</ele><time>2026-05-03T16:46:06.91Z</time></trkpt><trkpt lat="36.7568889" lon="10.0530624"><ele>83.0</ele><time>2026-05-03T16:46:07.948Z</time></trkpt><trkpt lat="36.7569966" lon="10.053371"><ele>83.0</ele><time>2026-05-03T16:46:08.924Z</time></trkpt><trkpt lat="36.7570967" lon="10.0536771"><ele>83.0</ele><time>2026-05-03T16:46:09.925Z</time></trkpt><trkpt lat="36.7571962" lon="10.0539841"><ele>84.0</ele><time>2026-05-03T16:46:10.919Z</time></trkpt><trkpt lat="36.7573017" lon="10.054285"><ele>85.0</ele><time>2026-05-03T16:46:11.929Z</time></trkpt><trkpt lat="36.7574086" lon="10.054585"><ele>85.0</ele><time>2026-05-03T16:46:12.926Z</time></trkpt><trkpt lat="36.7575167" lon="10.0548857"><ele>85.0</ele><time>2026-05-03T16:46:13.921Z</time></trkpt><trkpt lat="36.7576256" lon="10.0551887"><ele>88.5</ele><time>2026-05-03T16:46:14.932Z</time></trkpt><trkpt lat="36.7577411" lon="10.0554892"><ele>92.0</ele><time>2026-05-03T16:46:15.916Z</time></trkpt><trkpt lat="36.7578519" lon="10.055793"><ele>92.5</ele><time>2026-05-03T16:46:16.927Z</time></trkpt><trkpt lat="36.7579623" lon="10.0560948"><ele>93.0</ele><time>2026-05-03T16:46:17.929Z</time></trkpt><trkpt lat="36.7580716" lon="10.0563969"><ele>92.5</ele><time>2026-05-03T16:46:18.941Z</time></trkpt><trkpt lat="36.758179" lon="10.0566993"><ele>92.0</ele><time>2026-05-03T16:46:19.906Z</time></trkpt><trkpt lat="36.7582845" lon="10.0570021"><ele>92.0</ele><time>2026-05-03T16:46:20.922Z</time></trkpt><trkpt lat="36.7583976" lon="10.0573067"><ele>92.0</ele><time>2026-05-03T16:46:21.931Z</time></trkpt><trkpt lat="36.7585093" lon="10.057604"><ele>96.0</ele><time>2026-05-03T16:46:22.929Z</time></trkpt><trkpt lat="36.7586183" lon="10.0579056"><ele>100.0</ele><time>2026-05-03T16:46:23.934Z</time></trkpt><trkpt lat="36.7587294" lon="10.0582025"><ele>102.0</ele><time>2026-05-03T16:46:24.931Z</time></trkpt><trkpt lat="36.7588402" lon="10.0585043"><ele>104.0</ele><time>2026-05-03T16:46:25.943Z</time></trkpt><trkpt lat="36.7589525" lon="10.0588046"><ele>104.0</ele><time>2026-05-03T16:46:26.92Z</time></trkpt><trkpt lat="36.7590715" lon="10.0591036"><ele>104.0</ele><time>2026-05-03T16:46:27.921Z</time></trkpt><trkpt lat="36.759193" lon="10.0594033"><ele>107.5</ele><time>2026-05-03T16:46:28.919Z</time></trkpt><trkpt lat="36.7593155" lon="10.0597005"><ele>111.0</ele><time>2026-05-03T16:46:29.935Z</time></trkpt><trkpt lat="36.7594399" lon="10.0599957"><ele>118.0</ele><time>2026-05-03T16:46:30.924Z</time></trkpt><trkpt lat="36.7595751" lon="10.0602924"><ele>125.0</ele><time>2026-05-03T16:46:31.919Z</time></trkpt><trkpt lat="36.7597123" lon="10.0605758"><ele>128.0</ele><time>2026-05-03T16:46:32.924Z</time></trkpt><trkpt lat="36.7598499" lon="10.0608598"><ele>131.0</ele><time>2026-05-03T16:46:33.937Z</time></trkpt><trkpt lat="36.759989" lon="10.061145"><ele>131.0</ele><time>2026-05-03T16:46:34.939Z</time></trkpt><trkpt lat="36.7601348" lon="10.0614284"><ele>131.0</ele><time>2026-05-03T16:46:35.94Z</time></trkpt><trkpt lat="36.7602837" lon="10.0617116"><ele>133.0</ele><time>2026-05-03T16:46:36.931Z</time></trkpt><trkpt lat="36.7604386" lon="10.0619791"><ele>135.0</ele><time>2026-05-03T16:46:37.94Z</time></trkpt><trkpt lat="36.760594" lon="10.0622456"><ele>132.0</ele><time>2026-05-03T16:46:38.918Z</time></trkpt><trkpt lat="36.7607516" lon="10.0625076"><ele>129.0</ele><time>2026-05-03T16:46:39.932Z</time></trkpt><trkpt lat="36.7609146" lon="10.0627756"><ele>127.0</ele><time>2026-05-03T16:46:40.923Z</time></trkpt><trkpt lat="36.7610734" lon="10.063036"><ele>125.0</ele><time>2026-05-03T16:46:41.922Z</time></trkpt><trkpt lat="36.7612421" lon="10.0632989"><ele>119.0</ele><time>2026-05-03T16:46:42.938Z</time></trkpt><trkpt lat="36.7614139" lon="10.0635589"><ele>113.0</ele><time>2026-05-03T16:46:43.931Z</time></trkpt><trkpt lat="36.7615926" lon="10.0638136"><ele>113.0</ele><time>2026-05-03T16:46:44.938Z</time></trkpt><trkpt lat="36.7617698" lon="10.0640608"><ele>113.0</ele><time>2026-05-03T16:46:45.922Z</time></trkpt><trkpt lat="36.7619502" lon="10.0643054"><ele>108.5</ele><time>2026-05-03T16:46:46.928Z</time></trkpt><trkpt lat="36.7621337" lon="10.0645484"><ele>104.0</ele><time>2026-05-03T16:46:47.928Z</time></trkpt><trkpt lat="36.7623147" lon="10.0647869"><ele>100.0</ele><time>2026-05-03T16:46:48.929Z</time></trkpt><trkpt lat="36.7625038" lon="10.0650241"><ele>96.0</ele><time>2026-05-03T16:46:49.932Z</time></trkpt><trkpt lat="36.7626932" lon="10.0652588"><ele>93.0</ele><time>2026-05-03T16:46:50.928Z</time></trkpt><trkpt lat="36.7628847" lon="10.0654867"><ele>90.0</ele><time>2026-05-03T16:46:51.939Z</time></trkpt><trkpt lat="36.76308" lon="10.0657157"><ele>88.5</ele><time>2026-05-03T16:46:52.923Z</time></trkpt><trkpt lat="36.7632757" lon="10.0659397"><ele>87.0</ele><time>2026-05-03T16:46:53.946Z</time></trkpt><trkpt lat="36.7634764" lon="10.0661725"><ele>87.0</ele><time>2026-05-03T16:46:54.93Z</time></trkpt><trkpt lat="36.763675" lon="10.0664045"><ele>87.0</ele><time>2026-05-03T16:46:55.933Z</time></trkpt><trkpt lat="36.7638731" lon="10.0666331"><ele>85.0</ele><time>2026-05-03T16:46:56.932Z</time></trkpt><trkpt lat="36.7640702" lon="10.0668559"><ele>83.0</ele><time>2026-05-03T16:46:57.934Z</time></trkpt><trkpt lat="36.7642673" lon="10.0670776"><ele>83.0</ele><time>2026-05-03T16:46:58.916Z</time></trkpt><trkpt lat="36.764466" lon="10.0673073"><ele>83.0</ele><time>2026-05-03T16:46:59.934Z</time></trkpt><trkpt lat="36.7646616" lon="10.0675372"><ele>83.0</ele><time>2026-05-03T16:47:00.937Z</time></trkpt><trkpt lat="36.7648575" lon="10.0677652"><ele>83.0</ele><time>2026-05-03T16:47:01.942Z</time></trkpt><trkpt lat="36.7650522" lon="10.067988"><ele>82.0</ele><time>2026-05-03T16:47:02.94Z</time></trkpt><trkpt lat="36.7652473" lon="10.0682132"><ele>81.0</ele><time>2026-05-03T16:47:03.934Z</time></trkpt><trkpt lat="36.765445" lon="10.068437"><ele>81.0</ele><time>2026-05-03T16:47:04.937Z</time></trkpt><trkpt lat="36.7656411" lon="10.0686661"><ele>81.0</ele><time>2026-05-03T16:47:05.928Z</time></trkpt><trkpt lat="36.7658422" lon="10.0688957"><ele>77.5</ele><time>2026-05-03T16:47:06.9Z</time></trkpt><trkpt lat="36.7660425" lon="10.069122"><ele>74.0</ele><time>2026-05-03T16:47:07.899Z</time></trkpt><trkpt lat="36.7662424" lon="10.0693483"><ele>74.0</ele><time>2026-05-03T16:47:08.932Z</time></trkpt><trkpt lat="36.7664437" lon="10.0695632"><ele>74.0</ele><time>2026-05-03T16:47:09.934Z</time></trkpt><trkpt lat="36.7666531" lon="10.0697727"><ele>70.0</ele><time>2026-05-03T16:47:10.931Z</time></trkpt><trkpt lat="36.7668645" lon="10.0699757"><ele>66.0</ele><time>2026-05-03T16:47:11.937Z</time></trkpt><trkpt lat="36.7670817" lon="10.0701753"><ele>66.0</ele><time>2026-05-03T16:47:12.917Z</time></trkpt><trkpt lat="36.7673082" lon="10.0703639"><ele>66.0</ele><time>2026-05-03T16:47:13.923Z</time></trkpt><trkpt lat="36.7675339" lon="10.0705421"><ele>65.0</ele><time>2026-05-03T16:47:14.928Z</time></trkpt><trkpt lat="36.7677636" lon="10.0707148"><ele>64.0</ele><time>2026-05-03T16:47:15.928Z</time></trkpt><trkpt lat="36.767997" lon="10.0708768"><ele>62.0</ele><time>2026-05-03T16:47:16.93Z</time></trkpt><trkpt lat="36.7682303" lon="10.0710268"><ele>60.0</ele><time>2026-05-03T16:47:17.918Z</time></trkpt><trkpt lat="36.7684709" lon="10.0711681"><ele>60.5</ele><time>2026-05-03T16:47:18.934Z</time></trkpt><trkpt lat="36.768711" lon="10.0713047"><ele>61.0</ele><time>2026-05-03T16:47:19.93Z</time></trkpt><trkpt lat="36.7689571" lon="10.0714338"><ele>61.0</ele><time>2026-05-03T16:47:20.917Z</time></trkpt><trkpt lat="36.7692099" lon="10.0715546"><ele>61.0</ele><time>2026-05-03T16:47:21.93Z</time></trkpt><trkpt lat="36.7694634" lon="10.0716657"><ele>66.5</ele><time>2026-05-03T16:47:22.925Z</time></trkpt><trkpt lat="36.7697167" lon="10.0717658"><ele>72.0</ele><time>2026-05-03T16:47:23.943Z</time></trkpt><trkpt lat="36.7699734" lon="10.0718596"><ele>76.5</ele><time>2026-05-03T16:47:24.923Z</time></trkpt><trkpt lat="36.7702343" lon="10.0719452"><ele>81.0</ele><time>2026-05-03T16:47:25.927Z</time></trkpt><trkpt lat="36.7704986" lon="10.0720269"><ele>81.0</ele><time>2026-05-03T16:47:26.918Z</time></trkpt><trkpt lat="36.7707519" lon="10.072092"><ele>81.0</ele><time>2026-05-03T16:47:27.93Z</time></trkpt><trkpt lat="36.770984" lon="10.0721399"><ele>83.0</ele><time>2026-05-03T16:47:28.899Z</time></trkpt><trkpt lat="36.7712062" lon="10.0721854"><ele>85.0</ele><time>2026-05-03T16:47:29.912Z</time></trkpt><trkpt lat="36.7714124" lon="10.0722111"><ele>87.0</ele><time>2026-05-03T16:47:30.915Z</time></trkpt><trkpt lat="36.7716117" lon="10.0722428"><ele>87.0</ele><time>2026-05-03T16:47:31.92Z</time></trkpt><trkpt lat="36.7718016" lon="10.0722673"><ele>87.0</ele><time>2026-05-03T16:47:32.923Z</time></trkpt><trkpt lat="36.7719834" lon="10.0722833"><ele>87.0</ele><time>2026-05-03T16:47:33.931Z</time></trkpt><trkpt lat="36.7721473" lon="10.0723029"><ele>86.25</ele><time>2026-05-03T16:47:34.94Z</time></trkpt><trkpt lat="36.7722945" lon="10.0723174"><ele>85.5</ele><time>2026-05-03T16:47:35.93Z</time></trkpt><trkpt lat="36.7724189" lon="10.0723301"><ele>84.75</ele><time>2026-05-03T16:47:36.92Z</time></trkpt><trkpt lat="36.7725207" lon="10.0723396"><ele>84.0</ele><time>2026-05-03T16:47:37.933Z</time></trkpt><trkpt lat="36.7726061" lon="10.0723527"><ele>84.0</ele><time>2026-05-03T16:47:38.903Z</time></trkpt><trkpt lat="36.7726748" lon="10.0723657"><ele>84.0</ele><time>2026-05-03T16:47:39.909Z</time></trkpt><trkpt lat="36.7727751" lon="10.0724025"><ele>84.0</ele><time>2026-05-03T16:47:41.935Z</time></trkpt><trkpt lat="36.7728603" lon="10.0724434"><ele>84.0</ele><time>2026-05-03T16:47:43.924Z</time></trkpt><trkpt lat="36.7729583" lon="10.0725263"><ele>84.0</ele><time>2026-05-03T16:47:45.934Z</time></trkpt><trkpt lat="36.7730079" lon="10.0725879"><ele>82.66666666666667</ele><time>2026-05-03T16:47:46.932Z</time></trkpt><trkpt lat="36.7730664" lon="10.072647"><ele>81.33333333333333</ele><time>2026-05-03T16:47:47.915Z</time></trkpt><trkpt lat="36.7731324" lon="10.0726979"><ele>80.0</ele><time>2026-05-03T16:47:48.903Z</time></trkpt><trkpt lat="36.7732186" lon="10.0727346"><ele>78.66666666666666</ele><time>2026-05-03T16:47:49.918Z</time></trkpt><trkpt lat="36.7732933" lon="10.0727354"><ele>77.33333333333333</ele><time>2026-05-03T16:47:50.906Z</time></trkpt><trkpt lat="36.7733732" lon="10.0727208"><ele>76.0</ele><time>2026-05-03T16:47:51.929Z</time></trkpt><trkpt lat="36.7734503" lon="10.0726776"><ele>75.6</ele><time>2026-05-03T16:47:52.913Z</time></trkpt><trkpt lat="36.7735316" lon="10.0726153"><ele>75.19999999999999</ele><time>2026-05-03T16:47:53.907Z</time></trkpt><trkpt lat="36.7736162" lon="10.0725349"><ele>74.80000000000001</ele><time>2026-05-03T16:47:54.905Z</time></trkpt><trkpt lat="36.7737088" lon="10.0724769"><ele>74.4</ele><time>2026-05-03T16:47:55.915Z</time></trkpt><trkpt lat="36.7738131" lon="10.0724465"><ele>74.0</ele><time>2026-05-03T16:47:56.931Z</time></trkpt><trkpt lat="36.7739247" lon="10.0724433"><ele>74.0</ele><time>2026-05-03T16:47:57.909Z</time></trkpt><trkpt lat="36.7740454" lon="10.0724475"><ele>74.0</ele><time>2026-05-03T16:47:58.916Z</time></trkpt><trkpt lat="36.7741813" lon="10.0724521"><ele>74.0</ele><time>2026-05-03T16:47:59.912Z</time></trkpt><trkpt lat="36.774343" lon="10.072451"><ele>74.0</ele><time>2026-05-03T16:48:00.932Z</time></trkpt><trkpt lat="36.7745179" lon="10.0724553"><ele>76.0</ele><time>2026-05-03T16:48:01.919Z</time></trkpt><trkpt lat="36.7746993" lon="10.0724666"><ele>78.0</ele><time>2026-05-03T16:48:02.916Z</time></trkpt><trkpt lat="36.7748787" lon="10.0724833"><ele>80.0</ele><time>2026-05-03T16:48:03.933Z</time></trkpt><trkpt lat="36.7750586" lon="10.0725001"><ele>82.66666666666667</ele><time>2026-05-03T16:48:04.927Z</time></trkpt><trkpt lat="36.7752365" lon="10.0725097"><ele>85.33333333333333</ele><time>2026-05-03T16:48:05.921Z</time></trkpt><trkpt lat="36.7754326" lon="10.0725172"><ele>88.0</ele><time>2026-05-03T16:48:06.95Z</time></trkpt><trkpt lat="36.7756431" lon="10.0725281"><ele>88.0</ele><time>2026-05-03T16:48:07.939Z</time></trkpt><trkpt lat="36.775884" lon="10.0725492"><ele>88.0</ele><time>2026-05-03T16:48:08.934Z</time></trkpt><trkpt lat="36.776133" lon="10.0725651"><ele>88.5</ele><time>2026-05-03T16:48:09.934Z</time></trkpt><trkpt lat="36.7763965" lon="10.0725852"><ele>89.0</ele><time>2026-05-03T16:48:10.923Z</time></trkpt><trkpt lat="36.7766599" lon="10.0726001"><ele>88.0</ele><time>2026-05-03T16:48:11.927Z</time></trkpt><trkpt lat="36.7769253" lon="10.0726168"><ele>87.0</ele><time>2026-05-03T16:48:12.932Z</time></trkpt><trkpt lat="36.7771989" lon="10.0726331"><ele>87.0</ele><time>2026-05-03T16:48:13.898Z</time></trkpt><trkpt lat="36.7774725" lon="10.0726527"><ele>87.0</ele><time>2026-05-03T16:48:14.924Z</time></trkpt><trkpt lat="36.7777474" lon="10.072668"><ele>86.5</ele><time>2026-05-03T16:48:15.916Z</time></trkpt><trkpt lat="36.7780221" lon="10.0726832"><ele>86.0</ele><time>2026-05-03T16:48:16.953Z</time></trkpt><trkpt lat="36.7782985" lon="10.0726936"><ele>86.0</ele><time>2026-05-03T16:48:17.928Z</time></trkpt><trkpt lat="36.77857" lon="10.0726915"><ele>86.0</ele><time>2026-05-03T16:48:18.921Z</time></trkpt><trkpt lat="36.7788245" lon="10.0726832"><ele>86.0</ele><time>2026-05-03T16:48:19.932Z</time></trkpt><trkpt lat="36.7790719" lon="10.0726756"><ele>86.0</ele><time>2026-05-03T16:48:20.926Z</time></trkpt><trkpt lat="36.7793038" lon="10.0726632"><ele>83.0</ele><time>2026-05-03T16:48:21.927Z</time></trkpt><trkpt lat="36.7795231" lon="10.0726394"><ele>80.0</ele><time>2026-05-03T16:48:22.928Z</time></trkpt><trkpt lat="36.7797319" lon="10.0726195"><ele>77.0</ele><time>2026-05-03T16:48:23.927Z</time></trkpt><trkpt lat="36.7799285" lon="10.0726024"><ele>77.0</ele><time>2026-05-03T16:48:24.933Z</time></trkpt><trkpt lat="36.7801289" lon="10.07258"><ele>77.0</ele><time>2026-05-03T16:48:25.949Z</time></trkpt><trkpt lat="36.7803247" lon="10.0725516"><ele>77.0</ele><time>2026-05-03T16:48:26.934Z</time></trkpt><trkpt lat="36.7805297" lon="10.0725318"><ele>76.66666666666667</ele><time>2026-05-03T16:48:27.951Z</time></trkpt><trkpt lat="36.78073" lon="10.07251"><ele>76.33333333333333</ele><time>2026-05-03T16:48:28.93Z</time></trkpt><trkpt lat="36.7809142" lon="10.0724917"><ele>76.0</ele><time>2026-05-03T16:48:29.941Z</time></trkpt><trkpt lat="36.7810947" lon="10.0724796"><ele>77.33333333333333</ele><time>2026-05-03T16:48:30.929Z</time></trkpt><trkpt lat="36.781274" lon="10.0724603"><ele>78.66666666666667</ele><time>2026-05-03T16:48:31.916Z</time></trkpt><trkpt lat="36.7814595" lon="10.0724434"><ele>80.0</ele><time>2026-05-03T16:48:32.922Z</time></trkpt><trkpt lat="36.7816446" lon="10.0724358"><ele>82.0</ele><time>2026-05-03T16:48:33.927Z</time></trkpt><trkpt lat="36.781819" lon="10.0724346"><ele>84.0</ele><time>2026-05-03T16:48:34.924Z</time></trkpt><trkpt lat="36.781981" lon="10.0724309"><ele>86.0</ele><time>2026-05-03T16:48:35.918Z</time></trkpt><trkpt lat="36.782126" lon="10.0724242"><ele>86.4</ele><time>2026-05-03T16:48:36.919Z</time></trkpt><trkpt lat="36.7822549" lon="10.072409"><ele>86.8</ele><time>2026-05-03T16:48:37.931Z</time></trkpt><trkpt lat="36.7823637" lon="10.0723972"><ele>87.2</ele><time>2026-05-03T16:48:38.93Z</time></trkpt><trkpt lat="36.7824491" lon="10.0723764"><ele>87.60000000000001</ele><time>2026-05-03T16:48:39.907Z</time></trkpt><trkpt lat="36.7825217" lon="10.0723604"><ele>88.0</ele><time>2026-05-03T16:48:40.938Z</time></trkpt><trkpt lat="36.7826204" lon="10.0723417"><ele>87.5</ele><time>2026-05-03T16:48:42.912Z</time></trkpt><trkpt lat="36.7827096" lon="10.0723648"><ele>87.0</ele><time>2026-05-03T16:48:45.894Z</time></trkpt><trkpt lat="36.7827792" lon="10.0724047"><ele>86.5</ele><time>2026-05-03T16:48:47.912Z</time></trkpt><trkpt lat="36.78288" lon="10.0724653"><ele>86.0</ele><time>2026-05-03T16:48:49.9Z</time></trkpt><trkpt lat="36.7829369" lon="10.0725109"><ele>85.5</ele><time>2026-05-03T16:48:50.922Z</time></trkpt><trkpt lat="36.7829858" lon="10.0725707"><ele>85.0</ele><time>2026-05-03T16:48:51.928Z</time></trkpt><trkpt lat="36.7830355" lon="10.0726559"><ele>84.2</ele><time>2026-05-03T16:48:52.901Z</time></trkpt><trkpt lat="36.7830762" lon="10.0727749"><ele>83.4</ele><time>2026-05-03T16:48:53.915Z</time></trkpt><trkpt lat="36.7831034" lon="10.0729003"><ele>82.6</ele><time>2026-05-03T16:48:54.912Z</time></trkpt><trkpt lat="36.7831276" lon="10.0730298"><ele>81.8</ele><time>2026-05-03T16:48:55.925Z</time></trkpt><trkpt lat="36.783148" lon="10.0731809"><ele>81.0</ele><time>2026-05-03T16:48:56.934Z</time></trkpt><trkpt lat="36.7831694" lon="10.0733308"><ele>80.5</ele><time>2026-05-03T16:48:57.942Z</time></trkpt><trkpt lat="36.7831877" lon="10.0734808"><ele>80.0</ele><time>2026-05-03T16:48:58.94Z</time></trkpt><trkpt lat="36.7831996" lon="10.0736313"><ele>79.5</ele><time>2026-05-03T16:48:59.92Z</time></trkpt><trkpt lat="36.7832117" lon="10.0737869"><ele>79.0</ele><time>2026-05-03T16:49:00.915Z</time></trkpt><trkpt lat="36.7832153" lon="10.0739409"><ele>79.0</ele><time>2026-05-03T16:49:01.925Z</time></trkpt><trkpt lat="36.7832208" lon="10.0740823"><ele>79.0</ele><time>2026-05-03T16:49:02.914Z</time></trkpt><trkpt lat="36.7832216" lon="10.0742164"><ele>79.0</ele><time>2026-05-03T16:49:03.929Z</time></trkpt><trkpt lat="36.7832212" lon="10.0743372"><ele>79.0</ele><time>2026-05-03T16:49:04.918Z</time></trkpt><trkpt lat="36.7832197" lon="10.0744478"><ele>79.0</ele><time>2026-05-03T16:49:05.906Z</time></trkpt><trkpt lat="36.7832146" lon="10.0745559"><ele>78.83333333333333</ele><time>2026-05-03T16:49:06.914Z</time></trkpt><trkpt lat="36.7831961" lon="10.0746549"><ele>78.66666666666666</ele><time>2026-05-03T16:49:07.935Z</time></trkpt><trkpt lat="36.7831623" lon="10.0747465"><ele>78.5</ele><time>2026-05-03T16:49:08.906Z</time></trkpt><trkpt lat="36.7831284" lon="10.0748323"><ele>78.33333333333333</ele><time>2026-05-03T16:49:09.912Z</time></trkpt><trkpt lat="36.7831064" lon="10.0749203"><ele>78.16666666666667</ele><time>2026-05-03T16:49:10.92Z</time></trkpt><trkpt lat="36.7831034" lon="10.0750022"><ele>78.0</ele><time>2026-05-03T16:49:11.928Z</time></trkpt><trkpt lat="36.7831705" lon="10.0751384"><ele>78.0</ele><time>2026-05-03T16:49:13.93Z</time></trkpt><trkpt lat="36.783211" lon="10.0752147"><ele>78.0</ele><time>2026-05-03T16:49:14.916Z</time></trkpt><trkpt lat="36.7832462" lon="10.0753102"><ele>78.0</ele><time>2026-05-03T16:49:15.911Z</time></trkpt><trkpt lat="36.7832727" lon="10.0754369"><ele>78.0</ele><time>2026-05-03T16:49:16.907Z</time></trkpt><trkpt lat="36.7832878" lon="10.0755871"><ele>78.0</ele><time>2026-05-03T16:49:17.908Z</time></trkpt><trkpt lat="36.7833072" lon="10.0757729"><ele>77.66666666666667</ele><time>2026-05-03T16:49:18.912Z</time></trkpt><trkpt lat="36.7833317" lon="10.0759897"><ele>77.33333333333334</ele><time>2026-05-03T16:49:19.927Z</time></trkpt><trkpt lat="36.7833637" lon="10.0762147"><ele>77.0</ele><time>2026-05-03T16:49:20.915Z</time></trkpt><trkpt lat="36.7834046" lon="10.0764261"><ele>76.66666666666667</ele><time>2026-05-03T16:49:21.94Z</time></trkpt><trkpt lat="36.7834531" lon="10.076625"><ele>76.33333333333333</ele><time>2026-05-03T16:49:22.92Z</time></trkpt><trkpt lat="36.7835133" lon="10.0768244"><ele>76.0</ele><time>2026-05-03T16:49:23.931Z</time></trkpt><trkpt lat="36.7835772" lon="10.0770107"><ele>76.5</ele><time>2026-05-03T16:49:24.914Z</time></trkpt><trkpt lat="36.783652" lon="10.0771737"><ele>77.0</ele><time>2026-05-03T16:49:25.914Z</time></trkpt><trkpt lat="36.7837287" lon="10.0773324"><ele>77.5</ele><time>2026-05-03T16:49:26.918Z</time></trkpt><trkpt lat="36.7838032" lon="10.0774883"><ele>78.0</ele><time>2026-05-03T16:49:27.933Z</time></trkpt><trkpt lat="36.7838858" lon="10.077638"><ele>78.0</ele><time>2026-05-03T16:49:28.919Z</time></trkpt><trkpt lat="36.7839775" lon="10.0777833"><ele>78.0</ele><time>2026-05-03T16:49:29.924Z</time></trkpt><trkpt lat="36.7840741" lon="10.0779249"><ele>78.0</ele><time>2026-05-03T16:49:30.928Z</time></trkpt><trkpt lat="36.7841825" lon="10.0780592"><ele>78.0</ele><time>2026-05-03T16:49:31.924Z</time></trkpt><trkpt lat="36.7842905" lon="10.0781968"><ele>78.0</ele><time>2026-05-03T16:49:32.905Z</time></trkpt><trkpt lat="36.7843939" lon="10.0783368"><ele>78.0</ele><time>2026-05-03T16:49:33.931Z</time></trkpt><trkpt lat="36.7844904" lon="10.0784783"><ele>76.33333333333333</ele><time>2026-05-03T16:49:34.923Z</time></trkpt><trkpt lat="36.7845894" lon="10.0786189"><ele>74.66666666666666</ele><time>2026-05-03T16:49:35.913Z</time></trkpt><trkpt lat="36.7846935" lon="10.07876"><ele>73.0</ele><time>2026-05-03T16:49:36.93Z</time></trkpt><trkpt lat="36.7847953" lon="10.0789012"><ele>73.0</ele><time>2026-05-03T16:49:37.918Z</time></trkpt><trkpt lat="36.7848956" lon="10.0790428"><ele>73.0</ele><time>2026-05-03T16:49:38.912Z</time></trkpt><trkpt lat="36.7849857" lon="10.0791901"><ele>73.0</ele><time>2026-05-03T16:49:39.929Z</time></trkpt><trkpt lat="36.7850667" lon="10.0793288"><ele>73.0</ele><time>2026-05-03T16:49:40.937Z</time></trkpt><trkpt lat="36.785146" lon="10.0794744"><ele>72.5</ele><time>2026-05-03T16:49:41.921Z</time></trkpt><trkpt lat="36.785217" lon="10.0796173"><ele>72.0</ele><time>2026-05-03T16:49:42.929Z</time></trkpt><trkpt lat="36.7852804" lon="10.0797514"><ele>71.5</ele><time>2026-05-03T16:49:43.914Z</time></trkpt><trkpt lat="36.7853309" lon="10.0798814"><ele>71.0</ele><time>2026-05-03T16:49:44.92Z</time></trkpt><trkpt lat="36.78538" lon="10.0800132"><ele>70.16666666666667</ele><time>2026-05-03T16:49:45.943Z</time></trkpt><trkpt lat="36.7854185" lon="10.0801275"><ele>69.33333333333334</ele><time>2026-05-03T16:49:46.932Z</time></trkpt><trkpt lat="36.7854534" lon="10.0802385"><ele>68.5</ele><time>2026-05-03T16:49:47.931Z</time></trkpt><trkpt lat="36.785486" lon="10.0803451"><ele>67.66666666666667</ele><time>2026-05-03T16:49:48.94Z</time></trkpt><trkpt lat="36.7855139" lon="10.0804391"><ele>66.83333333333333</ele><time>2026-05-03T16:49:49.945Z</time></trkpt><trkpt lat="36.7855287" lon="10.0805191"><ele>66.0</ele><time>2026-05-03T16:49:50.926Z</time></trkpt><trkpt lat="36.7855561" lon="10.0806517"><ele>65.0</ele><time>2026-05-03T16:49:52.918Z</time></trkpt><trkpt lat="36.7855683" lon="10.0807949"><ele>63.99999999999999</ele><time>2026-05-03T16:49:54.931Z</time></trkpt><trkpt lat="36.7855813" lon="10.0808995"><ele>62.99999999999999</ele><time>2026-05-03T16:49:55.945Z</time></trkpt><trkpt lat="36.7856139" lon="10.0810164"><ele>62.0</ele><time>2026-05-03T16:49:56.941Z</time></trkpt><trkpt lat="36.78565" lon="10.0811647"><ele>61.0</ele><time>2026-05-03T16:49:57.961Z</time></trkpt><trkpt lat="36.7857084" lon="10.0813376"><ele>61.0</ele><time>2026-05-03T16:49:58.936Z</time></trkpt><trkpt lat="36.7857695" lon="10.0815251"><ele>61.0</ele><time>2026-05-03T16:49:59.929Z</time></trkpt><trkpt lat="36.7858454" lon="10.0817105"><ele>61.0</ele><time>2026-05-03T16:50:00.919Z</time></trkpt><trkpt lat="36.7859209" lon="10.0818718"><ele>60.0</ele><time>2026-05-03T16:50:01.928Z</time></trkpt><trkpt lat="36.7859965" lon="10.0820032"><ele>59.0</ele><time>2026-05-03T16:50:02.927Z</time></trkpt><trkpt lat="36.7860734" lon="10.0821306"><ele>58.0</ele><time>2026-05-03T16:50:03.932Z</time></trkpt><trkpt lat="36.7861653" lon="10.0822553"><ele>57.0</ele><time>2026-05-03T16:50:04.925Z</time></trkpt><trkpt lat="36.7862639" lon="10.0823756"><ele>56.0</ele><time>2026-05-03T16:50:05.921Z</time></trkpt><trkpt lat="36.7863596" lon="10.0824917"><ele>55.0</ele><time>2026-05-03T16:50:06.932Z</time></trkpt><trkpt lat="36.7864466" lon="10.0826166"><ele>54.0</ele><time>2026-05-03T16:50:07.946Z</time></trkpt><trkpt lat="36.7865367" lon="10.0827369"><ele>53.0</ele><time>2026-05-03T16:50:08.93Z</time></trkpt><trkpt lat="36.7866259" lon="10.0828611"><ele>53.0</ele><time>2026-05-03T16:50:09.917Z</time></trkpt><trkpt lat="36.7867187" lon="10.0829802"><ele>53.0</ele><time>2026-05-03T16:50:10.917Z</time></trkpt><trkpt lat="36.7868107" lon="10.083101"><ele>53.0</ele><time>2026-05-03T16:50:11.933Z</time></trkpt><trkpt lat="36.7869054" lon="10.0832194"><ele>53.0</ele><time>2026-05-03T16:50:12.92Z</time></trkpt><trkpt lat="36.7869939" lon="10.0833431"><ele>52.5</ele><time>2026-05-03T16:50:13.933Z</time></trkpt><trkpt lat="36.7870819" lon="10.0834666"><ele>52.0</ele><time>2026-05-03T16:50:14.915Z</time></trkpt><trkpt lat="36.7871687" lon="10.0835928"><ele>51.5</ele><time>2026-05-03T16:50:15.918Z</time></trkpt><trkpt lat="36.7872582" lon="10.0837102"><ele>51.0</ele><time>2026-05-03T16:50:16.932Z</time></trkpt><trkpt lat="36.7873446" lon="10.0838226"><ele>51.0</ele><time>2026-05-03T16:50:17.921Z</time></trkpt><trkpt lat="36.787428" lon="10.0839343"><ele>51.0</ele><time>2026-05-03T16:50:18.938Z</time></trkpt><trkpt lat="36.7875078" lon="10.0840465"><ele>51.0</ele><time>2026-05-03T16:50:19.952Z</time></trkpt><trkpt lat="36.7875903" lon="10.0841524"><ele>51.0</ele><time>2026-05-03T16:50:20.921Z</time></trkpt><trkpt lat="36.7876764" lon="10.0842607"><ele>50.5</ele><time>2026-05-03T16:50:21.93Z</time></trkpt><trkpt lat="36.7877574" lon="10.0843665"><ele>50.0</ele><time>2026-05-03T16:50:22.934Z</time></trkpt><trkpt lat="36.7878336" lon="10.0844733"><ele>49.5</ele><time>2026-05-03T16:50:23.927Z</time></trkpt><trkpt lat="36.7879056" lon="10.0845985"><ele>49.0</ele><time>2026-05-03T16:50:24.929Z</time></trkpt><trkpt lat="36.7879756" lon="10.0847329"><ele>49.0</ele><time>2026-05-03T16:50:25.896Z</time></trkpt><trkpt lat="36.7880409" lon="10.0848602"><ele>49.0</ele><time>2026-05-03T16:50:26.928Z</time></trkpt><trkpt lat="36.788104" lon="10.0849828"><ele>49.0</ele><time>2026-05-03T16:50:27.933Z</time></trkpt><trkpt lat="36.7881612" lon="10.0851037"><ele>49.0</ele><time>2026-05-03T16:50:28.914Z</time></trkpt><trkpt lat="36.7882201" lon="10.0852218"><ele>49.2</ele><time>2026-05-03T16:50:29.913Z</time></trkpt><trkpt lat="36.7882779" lon="10.0853477"><ele>49.400000000000006</ele><time>2026-05-03T16:50:30.932Z</time></trkpt><trkpt lat="36.7883357" lon="10.0854684"><ele>49.6</ele><time>2026-05-03T16:50:31.921Z</time></trkpt><trkpt lat="36.7883972" lon="10.08559"><ele>49.8</ele><time>2026-05-03T16:50:32.924Z</time></trkpt><trkpt lat="36.7884558" lon="10.0856974"><ele>50.0</ele><time>2026-05-03T16:50:33.935Z</time></trkpt><trkpt lat="36.7885164" lon="10.0858007"><ele>49.6</ele><time>2026-05-03T16:50:34.939Z</time></trkpt><trkpt lat="36.7885719" lon="10.0859049"><ele>49.2</ele><time>2026-05-03T16:50:35.904Z</time></trkpt><trkpt lat="36.7886276" lon="10.0860124"><ele>48.8</ele><time>2026-05-03T16:50:36.938Z</time></trkpt><trkpt lat="36.7886834" lon="10.0861178"><ele>48.4</ele><time>2026-05-03T16:50:37.929Z</time></trkpt><trkpt lat="36.7887346" lon="10.0862326"><ele>48.0</ele><time>2026-05-03T16:50:38.927Z</time></trkpt><trkpt lat="36.7887798" lon="10.0863492"><ele>48.0</ele><time>2026-05-03T16:50:39.911Z</time></trkpt><trkpt lat="36.7888273" lon="10.086468"><ele>48.0</ele><time>2026-05-03T16:50:40.929Z</time></trkpt><trkpt lat="36.7888786" lon="10.0865957"><ele>48.0</ele><time>2026-05-03T16:50:41.934Z</time></trkpt><trkpt lat="36.7889306" lon="10.0867402"><ele>48.0</ele><time>2026-05-03T16:50:42.934Z</time></trkpt><trkpt lat="36.7889819" lon="10.0868907"><ele>48.0</ele><time>2026-05-03T16:50:43.931Z</time></trkpt><trkpt lat="36.7890319" lon="10.0870482"><ele>48.0</ele><time>2026-05-03T16:50:44.929Z</time></trkpt><trkpt lat="36.7890802" lon="10.0872179"><ele>48.0</ele><time>2026-05-03T16:50:45.943Z</time></trkpt><trkpt lat="36.7891258" lon="10.0873871"><ele>48.0</ele><time>2026-05-03T16:50:46.925Z</time></trkpt><trkpt lat="36.7891649" lon="10.0875561"><ele>48.0</ele><time>2026-05-03T16:50:47.936Z</time></trkpt><trkpt lat="36.7892025" lon="10.0877233"><ele>48.0</ele><time>2026-05-03T16:50:48.941Z</time></trkpt><trkpt lat="36.7892436" lon="10.0878804"><ele>48.0</ele><time>2026-05-03T16:50:49.93Z</time></trkpt><trkpt lat="36.7892852" lon="10.088038"><ele>48.0</ele><time>2026-05-03T16:50:50.919Z</time></trkpt><trkpt lat="36.7893258" lon="10.0881748"><ele>47.8</ele><time>2026-05-03T16:50:51.935Z</time></trkpt><trkpt lat="36.7893539" lon="10.08831"><ele>47.599999999999994</ele><time>2026-05-03T16:50:52.907Z</time></trkpt><trkpt lat="36.7893842" lon="10.0884296"><ele>47.400000000000006</ele><time>2026-05-03T16:50:53.926Z</time></trkpt><trkpt lat="36.7894111" lon="10.0885504"><ele>47.2</ele><time>2026-05-03T16:50:54.952Z</time></trkpt><trkpt lat="36.7894428" lon="10.0886617"><ele>47.0</ele><time>2026-05-03T16:50:55.927Z</time></trkpt><trkpt lat="36.7894763" lon="10.0887754"><ele>47.0</ele><time>2026-05-03T16:50:56.944Z</time></trkpt><trkpt lat="36.7895091" lon="10.0888978"><ele>47.0</ele><time>2026-05-03T16:50:57.932Z</time></trkpt><trkpt lat="36.7895437" lon="10.089021"><ele>47.0</ele><time>2026-05-03T16:50:58.942Z</time></trkpt><trkpt lat="36.7895748" lon="10.0891498"><ele>47.0</ele><time>2026-05-03T16:50:59.922Z</time></trkpt><trkpt lat="36.7896124" lon="10.0892789"><ele>47.0</ele><time>2026-05-03T16:51:00.932Z</time></trkpt><trkpt lat="36.7896511" lon="10.089409"><ele>47.0</ele><time>2026-05-03T16:51:01.909Z</time></trkpt><trkpt lat="36.7896852" lon="10.0895428"><ele>47.0</ele><time>2026-05-03T16:51:02.925Z</time></trkpt><trkpt lat="36.7897185" lon="10.0896731"><ele>47.0</ele><time>2026-05-03T16:51:03.935Z</time></trkpt><trkpt lat="36.7897478" lon="10.0897938"><ele>47.0</ele><time>2026-05-03T16:51:04.923Z</time></trkpt><trkpt lat="36.7897765" lon="10.0899144"><ele>47.0</ele><time>2026-05-03T16:51:05.932Z</time></trkpt><trkpt lat="36.7898075" lon="10.0900297"><ele>47.0</ele><time>2026-05-03T16:51:06.924Z</time></trkpt><trkpt lat="36.7898358" lon="10.0901393"><ele>47.0</ele><time>2026-05-03T16:51:07.938Z</time></trkpt><trkpt lat="36.7898737" lon="10.0902437"><ele>47.0</ele><time>2026-05-03T16:51:08.943Z</time></trkpt><trkpt lat="36.7899139" lon="10.0903401"><ele>47.0</ele><time>2026-05-03T16:51:09.921Z</time></trkpt><trkpt lat="36.7899592" lon="10.0904321"><ele>47.0</ele><time>2026-05-03T16:51:10.934Z</time></trkpt><trkpt lat="36.7900071" lon="10.0905187"><ele>47.0</ele><time>2026-05-03T16:51:11.907Z</time></trkpt><trkpt lat="36.7900487" lon="10.0906085"><ele>47.0</ele><time>2026-05-03T16:51:12.927Z</time></trkpt><trkpt lat="36.7900911" lon="10.090686"><ele>47.0</ele><time>2026-05-03T16:51:13.93Z</time></trkpt><trkpt lat="36.7901274" lon="10.0907566"><ele>47.0</ele><time>2026-05-03T16:51:14.951Z</time></trkpt><trkpt lat="36.7901663" lon="10.0908274"><ele>47.0</ele><time>2026-05-03T16:51:15.94Z</time></trkpt><trkpt lat="36.7902095" lon="10.0908895"><ele>47.0</ele><time>2026-05-03T16:51:16.944Z</time></trkpt><trkpt lat="36.7902509" lon="10.0909551"><ele>47.0</ele><time>2026-05-03T16:51:17.952Z</time></trkpt><trkpt lat="36.7902998" lon="10.0910201"><ele>47.0</ele><time>2026-05-03T16:51:18.945Z</time></trkpt><trkpt lat="36.7903435" lon="10.0910929"><ele>46.5</ele><time>2026-05-03T16:51:19.94Z</time></trkpt><trkpt lat="36.7903931" lon="10.091164"><ele>46.0</ele><time>2026-05-03T16:51:20.931Z</time></trkpt><trkpt lat="36.7904498" lon="10.0912431"><ele>45.5</ele><time>2026-05-03T16:51:21.93Z</time></trkpt><trkpt lat="36.7905047" lon="10.091328"><ele>45.0</ele><time>2026-05-03T16:51:22.933Z</time></trkpt><trkpt lat="36.7905614" lon="10.0914176"><ele>44.5</ele><time>2026-05-03T16:51:23.963Z</time></trkpt><trkpt lat="36.7906183" lon="10.0915062"><ele>44.0</ele><time>2026-05-03T16:51:24.919Z</time></trkpt><trkpt lat="36.7906776" lon="10.0915977"><ele>43.83333333333333</ele><time>2026-05-03T16:51:25.937Z</time></trkpt><trkpt lat="36.7907375" lon="10.0916881"><ele>43.666666666666664</ele><time>2026-05-03T16:51:26.947Z</time></trkpt><trkpt lat="36.7907967" lon="10.0917749"><ele>43.5</ele><time>2026-05-03T16:51:27.935Z</time></trkpt><trkpt lat="36.7908521" lon="10.0918604"><ele>43.333333333333336</ele><time>2026-05-03T16:51:28.939Z</time></trkpt><trkpt lat="36.7909105" lon="10.0919409"><ele>43.16666666666667</ele><time>2026-05-03T16:51:29.938Z</time></trkpt><trkpt lat="36.7909673" lon="10.0920247"><ele>43.0</ele><time>2026-05-03T16:51:30.928Z</time></trkpt><trkpt lat="36.7910276" lon="10.0921153"><ele>42.66666666666667</ele><time>2026-05-03T16:51:31.929Z</time></trkpt><trkpt lat="36.7910876" lon="10.0922003"><ele>42.333333333333336</ele><time>2026-05-03T16:51:32.946Z</time></trkpt><trkpt lat="36.7911468" lon="10.0922924"><ele>42.0</ele><time>2026-05-03T16:51:33.947Z</time></trkpt><trkpt lat="36.7912019" lon="10.0923803"><ele>41.666666666666664</ele><time>2026-05-03T16:51:34.931Z</time></trkpt><trkpt lat="36.7912588" lon="10.0924639"><ele>41.33333333333333</ele><time>2026-05-03T16:51:35.93Z</time></trkpt><trkpt lat="36.7913139" lon="10.0925427"><ele>41.0</ele><time>2026-05-03T16:51:36.926Z</time></trkpt><trkpt lat="36.7913672" lon="10.0926285"><ele>40.5</ele><time>2026-05-03T16:51:37.932Z</time></trkpt><trkpt lat="36.7914172" lon="10.0927117"><ele>40.0</ele><time>2026-05-03T16:51:38.942Z</time></trkpt><trkpt lat="36.791457" lon="10.0927903"><ele>39.5</ele><time>2026-05-03T16:51:39.934Z</time></trkpt><trkpt lat="36.7914982" lon="10.0928664"><ele>39.0</ele><time>2026-05-03T16:51:40.931Z</time></trkpt><trkpt lat="36.7915422" lon="10.0929419"><ele>38.5</ele><time>2026-05-03T16:51:41.938Z</time></trkpt><trkpt lat="36.7915915" lon="10.0930236"><ele>38.0</ele><time>2026-05-03T16:51:42.939Z</time></trkpt><trkpt lat="36.7916418" lon="10.0931163"><ele>38.0</ele><time>2026-05-03T16:51:43.916Z</time></trkpt><trkpt lat="36.7916914" lon="10.0932012"><ele>38.0</ele><time>2026-05-03T16:51:44.93Z</time></trkpt><trkpt lat="36.7917392" lon="10.0932846"><ele>38.0</ele><time>2026-05-03T16:51:45.934Z</time></trkpt><trkpt lat="36.7917922" lon="10.0933608"><ele>38.0</ele><time>2026-05-03T16:51:46.935Z</time></trkpt><trkpt lat="36.7918408" lon="10.0934317"><ele>38.0</ele><time>2026-05-03T16:51:47.905Z</time></trkpt><trkpt lat="36.7918824" lon="10.0934972"><ele>38.0</ele><time>2026-05-03T16:51:48.93Z</time></trkpt><trkpt lat="36.7919302" lon="10.0935754"><ele>37.4</ele><time>2026-05-03T16:51:49.906Z</time></trkpt><trkpt lat="36.7919945" lon="10.093671"><ele>36.8</ele><time>2026-05-03T16:51:50.935Z</time></trkpt><trkpt lat="36.7920617" lon="10.0937647"><ele>36.2</ele><time>2026-05-03T16:51:51.953Z</time></trkpt><trkpt lat="36.79213" lon="10.0938614"><ele>35.6</ele><time>2026-05-03T16:51:52.933Z</time></trkpt><trkpt lat="36.7921977" lon="10.0939589"><ele>35.0</ele><time>2026-05-03T16:51:53.921Z</time></trkpt><trkpt lat="36.7922714" lon="10.0940602"><ele>34.5</ele><time>2026-05-03T16:51:54.929Z</time></trkpt><trkpt lat="36.7923473" lon="10.0941677"><ele>34.0</ele><time>2026-05-03T16:51:55.926Z</time></trkpt><trkpt lat="36.7924262" lon="10.0942742"><ele>33.5</ele><time>2026-05-03T16:51:56.927Z</time></trkpt><trkpt lat="36.792517" lon="10.0943843"><ele>33.0</ele><time>2026-05-03T16:51:57.92Z</time></trkpt><trkpt lat="36.7926079" lon="10.0944863"><ele>32.25</ele><time>2026-05-03T16:51:58.929Z</time></trkpt><trkpt lat="36.7927" lon="10.0945968"><ele>31.5</ele><time>2026-05-03T16:51:59.934Z</time></trkpt><trkpt lat="36.7927901" lon="10.0947093"><ele>30.75</ele><time>2026-05-03T16:52:00.918Z</time></trkpt><trkpt lat="36.7928778" lon="10.0948281"><ele>30.0</ele><time>2026-05-03T16:52:01.926Z</time></trkpt><trkpt lat="36.7929658" lon="10.0949528"><ele>29.5</ele><time>2026-05-03T16:52:02.934Z</time></trkpt><trkpt lat="36.7930506" lon="10.095078"><ele>29.0</ele><time>2026-05-03T16:52:03.901Z</time></trkpt><trkpt lat="36.7931403" lon="10.0951975"><ele>28.5</ele><time>2026-05-03T16:52:04.945Z</time></trkpt><trkpt lat="36.7932266" lon="10.0953078"><ele>28.0</ele><time>2026-05-03T16:52:05.931Z</time></trkpt><trkpt lat="36.7933099" lon="10.0954151"><ele>28.0</ele><time>2026-05-03T16:52:06.934Z</time></trkpt><trkpt lat="36.7933939" lon="10.0955275"><ele>28.0</ele><time>2026-05-03T16:52:07.944Z</time></trkpt><trkpt lat="36.7934815" lon="10.0956452"><ele>28.0</ele><time>2026-05-03T16:52:08.932Z</time></trkpt><trkpt lat="36.7935717" lon="10.0957616"><ele>28.0</ele><time>2026-05-03T16:52:09.926Z</time></trkpt><trkpt lat="36.7936661" lon="10.0958794"><ele>27.75</ele><time>2026-05-03T16:52:10.938Z</time></trkpt><trkpt lat="36.7937464" lon="10.0959954"><ele>27.5</ele><time>2026-05-03T16:52:11.942Z</time></trkpt><trkpt lat="36.7938262" lon="10.0961071"><ele>27.25</ele><time>2026-05-03T16:52:12.924Z</time></trkpt><trkpt lat="36.7938956" lon="10.0962185"><ele>27.0</ele><time>2026-05-03T16:52:13.927Z</time></trkpt><trkpt lat="36.793961" lon="10.0963246"><ele>27.0</ele><time>2026-05-03T16:52:14.923Z</time></trkpt><trkpt lat="36.7940251" lon="10.096438"><ele>27.000000000000004</ele><time>2026-05-03T16:52:15.93Z</time></trkpt><trkpt lat="36.7940895" lon="10.096559"><ele>27.000000000000004</ele><time>2026-05-03T16:52:16.93Z</time></trkpt><trkpt lat="36.7941476" lon="10.0966776"><ele>27.0</ele><time>2026-05-03T16:52:17.932Z</time></trkpt><trkpt lat="36.7942015" lon="10.0967955"><ele>27.0</ele><time>2026-05-03T16:52:18.939Z</time></trkpt><trkpt lat="36.7942606" lon="10.0969142"><ele>26.400000000000002</ele><time>2026-05-03T16:52:19.934Z</time></trkpt><trkpt lat="36.7943195" lon="10.0970302"><ele>25.800000000000004</ele><time>2026-05-03T16:52:20.917Z</time></trkpt><trkpt lat="36.7943756" lon="10.0971449"><ele>25.2</ele><time>2026-05-03T16:52:21.939Z</time></trkpt><trkpt lat="36.7944276" lon="10.0972646"><ele>24.6</ele><time>2026-05-03T16:52:22.932Z</time></trkpt><trkpt lat="36.7944828" lon="10.0973918"><ele>24.0</ele><time>2026-05-03T16:52:23.949Z</time></trkpt><trkpt lat="36.7945395" lon="10.0975125"><ele>23.6</ele><time>2026-05-03T16:52:24.936Z</time></trkpt><trkpt lat="36.7945892" lon="10.0976297"><ele>23.2</ele><time>2026-05-03T16:52:25.93Z</time></trkpt><trkpt lat="36.7946395" lon="10.097747"><ele>22.8</ele><time>2026-05-03T16:52:26.932Z</time></trkpt><trkpt lat="36.7946848" lon="10.0978577"><ele>22.400000000000002</ele><time>2026-05-03T16:52:27.935Z</time></trkpt><trkpt lat="36.7947311" lon="10.0979699"><ele>22.0</ele><time>2026-05-03T16:52:28.925Z</time></trkpt><trkpt lat="36.7947792" lon="10.0980812"><ele>22.0</ele><time>2026-05-03T16:52:29.926Z</time></trkpt><trkpt lat="36.7948268" lon="10.0981972"><ele>22.0</ele><time>2026-05-03T16:52:30.934Z</time></trkpt><trkpt lat="36.7948798" lon="10.0983081"><ele>22.0</ele><time>2026-05-03T16:52:31.936Z</time></trkpt><trkpt lat="36.7949277" lon="10.0984102"><ele>22.0</ele><time>2026-05-03T16:52:32.926Z</time></trkpt><trkpt lat="36.7949733" lon="10.0985194"><ele>22.0</ele><time>2026-05-03T16:52:33.918Z</time></trkpt><trkpt lat="36.7950207" lon="10.0986298"><ele>22.400000000000002</ele><time>2026-05-03T16:52:34.937Z</time></trkpt><trkpt lat="36.7950678" lon="10.0987362"><ele>22.8</ele><time>2026-05-03T16:52:35.935Z</time></trkpt><trkpt lat="36.7951156" lon="10.0988451"><ele>23.2</ele><time>2026-05-03T16:52:36.929Z</time></trkpt><trkpt lat="36.7951622" lon="10.0989613"><ele>23.6</ele><time>2026-05-03T16:52:37.935Z</time></trkpt><trkpt lat="36.795204" lon="10.099083"><ele>24.0</ele><time>2026-05-03T16:52:38.933Z</time></trkpt><trkpt lat="36.795247" lon="10.09921"><ele>24.5</ele><time>2026-05-03T16:52:39.939Z</time></trkpt><trkpt lat="36.7953013" lon="10.0993311"><ele>25.0</ele><time>2026-05-03T16:52:40.939Z</time></trkpt><trkpt lat="36.795356" lon="10.0994533"><ele>25.5</ele><time>2026-05-03T16:52:41.943Z</time></trkpt><trkpt lat="36.7954095" lon="10.0995784"><ele>26.0</ele><time>2026-05-03T16:52:42.93Z</time></trkpt><trkpt lat="36.7954666" lon="10.0997063"><ele>26.0</ele><time>2026-05-03T16:52:43.912Z</time></trkpt><trkpt lat="36.7955182" lon="10.099834"><ele>26.0</ele><time>2026-05-03T16:52:44.922Z</time></trkpt><trkpt lat="36.7955782" lon="10.099958"><ele>26.0</ele><time>2026-05-03T16:52:45.935Z</time></trkpt><trkpt lat="36.7956342" lon="10.1000875"><ele>26.0</ele><time>2026-05-03T16:52:46.923Z</time></trkpt><trkpt lat="36.7956876" lon="10.1002064"><ele>25.5</ele><time>2026-05-03T16:52:47.932Z</time></trkpt><trkpt lat="36.7957378" lon="10.1003159"><ele>25.0</ele><time>2026-05-03T16:52:48.914Z</time></trkpt><trkpt lat="36.7957957" lon="10.1004369"><ele>24.5</ele><time>2026-05-03T16:52:49.941Z</time></trkpt><trkpt lat="36.795853" lon="10.1005676"><ele>24.0</ele><time>2026-05-03T16:52:50.942Z</time></trkpt><trkpt lat="36.7959224" lon="10.1007082"><ele>24.0</ele><time>2026-05-03T16:52:51.945Z</time></trkpt><trkpt lat="36.7959903" lon="10.1008573"><ele>24.0</ele><time>2026-05-03T16:52:52.903Z</time></trkpt><trkpt lat="36.7960668" lon="10.1009988"><ele>24.0</ele><time>2026-05-03T16:52:53.922Z</time></trkpt><trkpt lat="36.7961505" lon="10.1011403"><ele>24.0</ele><time>2026-05-03T16:52:54.93Z</time></trkpt><trkpt lat="36.7962411" lon="10.1012746"><ele>24.25</ele><time>2026-05-03T16:52:55.944Z</time></trkpt><trkpt lat="36.7963248" lon="10.1014014"><ele>24.5</ele><time>2026-05-03T16:52:56.945Z</time></trkpt><trkpt lat="36.7964066" lon="10.1015191"><ele>24.75</ele><time>2026-05-03T16:52:57.935Z</time></trkpt><trkpt lat="36.7964838" lon="10.1016306"><ele>25.0</ele><time>2026-05-03T16:52:58.905Z</time></trkpt><trkpt lat="36.7965639" lon="10.1017395"><ele>24.75</ele><time>2026-05-03T16:52:59.913Z</time></trkpt><trkpt lat="36.7966573" lon="10.1018572"><ele>24.5</ele><time>2026-05-03T16:53:00.92Z</time></trkpt><trkpt lat="36.7967544" lon="10.101976"><ele>24.25</ele><time>2026-05-03T16:53:01.944Z</time></trkpt><trkpt lat="36.7968474" lon="10.1020927"><ele>24.0</ele><time>2026-05-03T16:53:02.925Z</time></trkpt><trkpt lat="36.796944" lon="10.1022091"><ele>24.0</ele><time>2026-05-03T16:53:03.938Z</time></trkpt><trkpt lat="36.7970361" lon="10.1023212"><ele>24.0</ele><time>2026-05-03T16:53:04.909Z</time></trkpt><trkpt lat="36.7971152" lon="10.1024275"><ele>24.0</ele><time>2026-05-03T16:53:05.946Z</time></trkpt><trkpt lat="36.7971909" lon="10.1025355"><ele>24.0</ele><time>2026-05-03T16:53:06.931Z</time></trkpt><trkpt lat="36.7972551" lon="10.102646"><ele>23.799999999999997</ele><time>2026-05-03T16:53:07.944Z</time></trkpt><trkpt lat="36.7973163" lon="10.1027446"><ele>23.599999999999998</ele><time>2026-05-03T16:53:08.931Z</time></trkpt><trkpt lat="36.7973785" lon="10.1028426"><ele>23.4</ele><time>2026-05-03T16:53:09.94Z</time></trkpt><trkpt lat="36.7974452" lon="10.1029429"><ele>23.2</ele><time>2026-05-03T16:53:10.919Z</time></trkpt><trkpt lat="36.7975082" lon="10.103045"><ele>23.0</ele><time>2026-05-03T16:53:11.929Z</time></trkpt><trkpt lat="36.7975703" lon="10.1031496"><ele>23.0</ele><time>2026-05-03T16:53:12.932Z</time></trkpt><trkpt lat="36.7976288" lon="10.1032553"><ele>23.0</ele><time>2026-05-03T16:53:13.93Z</time></trkpt><trkpt lat="36.7976841" lon="10.1033732"><ele>23.0</ele><time>2026-05-03T16:53:14.933Z</time></trkpt><trkpt lat="36.7977423" lon="10.1034827"><ele>23.0</ele><time>2026-05-03T16:53:15.899Z</time></trkpt><trkpt lat="36.7977988" lon="10.1036032"><ele>23.0</ele><time>2026-05-03T16:53:16.921Z</time></trkpt><trkpt lat="36.7978484" lon="10.103727"><ele>22.75</ele><time>2026-05-03T16:53:17.927Z</time></trkpt><trkpt lat="36.7979029" lon="10.1038478"><ele>22.5</ele><time>2026-05-03T16:53:18.928Z</time></trkpt><trkpt lat="36.7979615" lon="10.103968"><ele>22.25</ele><time>2026-05-03T16:53:19.926Z</time></trkpt><trkpt lat="36.7980212" lon="10.1040935"><ele>22.0</ele><time>2026-05-03T16:53:20.915Z</time></trkpt><trkpt lat="36.7980807" lon="10.104218"><ele>22.0</ele><time>2026-05-03T16:53:21.932Z</time></trkpt><trkpt lat="36.7981427" lon="10.1043437"><ele>22.0</ele><time>2026-05-03T16:53:22.94Z</time></trkpt><trkpt lat="36.7982099" lon="10.1044694"><ele>22.0</ele><time>2026-05-03T16:53:23.933Z</time></trkpt><trkpt lat="36.7982735" lon="10.1045884"><ele>22.0</ele><time>2026-05-03T16:53:24.918Z</time></trkpt><trkpt lat="36.7983328" lon="10.1047007"><ele>22.0</ele><time>2026-05-03T16:53:25.902Z</time></trkpt><trkpt lat="36.7983901" lon="10.1048107"><ele>22.0</ele><time>2026-05-03T16:53:26.917Z</time></trkpt><trkpt lat="36.7984398" lon="10.1049088"><ele>22.0</ele><time>2026-05-03T16:53:27.921Z</time></trkpt><trkpt lat="36.7984877" lon="10.1050017"><ele>22.0</ele><time>2026-05-03T16:53:28.927Z</time></trkpt><trkpt lat="36.7985273" lon="10.105091"><ele>22.0</ele><time>2026-05-03T16:53:29.933Z</time></trkpt><trkpt lat="36.7985658" lon="10.1051718"><ele>22.0</ele><time>2026-05-03T16:53:30.93Z</time></trkpt><trkpt lat="36.7986033" lon="10.1052477"><ele>22.0</ele><time>2026-05-03T16:53:31.926Z</time></trkpt><trkpt lat="36.7986566" lon="10.1053583"><ele>22.0</ele><time>2026-05-03T16:53:33.945Z</time></trkpt><trkpt lat="36.7987166" lon="10.1054454"><ele>22.0</ele><time>2026-05-03T16:53:36.936Z</time></trkpt><trkpt lat="36.7987556" lon="10.1055282"><ele>22.0</ele><time>2026-05-03T16:53:38.94Z</time></trkpt><trkpt lat="36.7987759" lon="10.1056326"><ele>22.0</ele><time>2026-05-03T16:53:40.909Z</time></trkpt><trkpt lat="36.7988098" lon="10.1057348"><ele>22.0</ele><time>2026-05-03T16:53:42.931Z</time></trkpt><trkpt lat="36.798852" lon="10.1058005"><ele>22.0</ele><time>2026-05-03T16:53:44.921Z</time></trkpt><trkpt lat="36.7989419" lon="10.1058784"><ele>22.0</ele><time>2026-05-03T16:53:46.929Z</time></trkpt><trkpt lat="36.7990389" lon="10.1059852"><ele>22.0</ele><time>2026-05-03T16:53:48.935Z</time></trkpt><trkpt lat="36.7991233" lon="10.1061172"><ele>22.0</ele><time>2026-05-03T16:53:50.931Z</time></trkpt><trkpt lat="36.7991963" lon="10.1062148"><ele>22.0</ele><time>2026-05-03T16:53:51.928Z</time></trkpt><trkpt lat="36.7992793" lon="10.1063352"><ele>22.0</ele><time>2026-05-03T16:53:52.937Z</time></trkpt><trkpt lat="36.7993553" lon="10.1064702"><ele>22.0</ele><time>2026-05-03T16:53:53.932Z</time></trkpt><trkpt lat="36.7994319" lon="10.1066185"><ele>22.0</ele><time>2026-05-03T16:53:54.926Z</time></trkpt><trkpt lat="36.7994994" lon="10.1067721"><ele>22.0</ele><time>2026-05-03T16:53:55.923Z</time></trkpt><trkpt lat="36.7995709" lon="10.1069236"><ele>22.0</ele><time>2026-05-03T16:53:56.935Z</time></trkpt><trkpt lat="36.7996456" lon="10.1070721"><ele>22.0</ele><time>2026-05-03T16:53:57.938Z</time></trkpt><trkpt lat="36.7997147" lon="10.1072241"><ele>22.0</ele><time>2026-05-03T16:53:58.94Z</time></trkpt><trkpt lat="36.7997868" lon="10.1073642"><ele>22.0</ele><time>2026-05-03T16:53:59.936Z</time></trkpt><trkpt lat="36.7998625" lon="10.1075023"><ele>22.0</ele><time>2026-05-03T16:54:00.925Z</time></trkpt><trkpt lat="36.7999376" lon="10.1076378"><ele>22.0</ele><time>2026-05-03T16:54:01.932Z</time></trkpt><trkpt lat="36.8000163" lon="10.1077743"><ele>22.0</ele><time>2026-05-03T16:54:02.928Z</time></trkpt><trkpt lat="36.8000915" lon="10.1079132"><ele>22.0</ele><time>2026-05-03T16:54:03.93Z</time></trkpt><trkpt lat="36.8001639" lon="10.1080485"><ele>22.0</ele><time>2026-05-03T16:54:04.932Z</time></trkpt><trkpt lat="36.8002362" lon="10.1081767"><ele>22.0</ele><time>2026-05-03T16:54:05.938Z</time></trkpt><trkpt lat="36.8003111" lon="10.1083183"><ele>22.0</ele><time>2026-05-03T16:54:06.925Z</time></trkpt><trkpt lat="36.8003783" lon="10.108441"><ele>22.0</ele><time>2026-05-03T16:54:07.932Z</time></trkpt><trkpt lat="36.8004459" lon="10.1085632"><ele>22.0</ele><time>2026-05-03T16:54:08.927Z</time></trkpt><trkpt lat="36.8005103" lon="10.1086807"><ele>22.0</ele><time>2026-05-03T16:54:09.937Z</time></trkpt><trkpt lat="36.8005667" lon="10.1087931"><ele>22.0</ele><time>2026-05-03T16:54:10.932Z</time></trkpt><trkpt lat="36.8006263" lon="10.1089049"><ele>22.0</ele><time>2026-05-03T16:54:11.945Z</time></trkpt><trkpt lat="36.800681" lon="10.1090203"><ele>21.6</ele><time>2026-05-03T16:54:12.944Z</time></trkpt><trkpt lat="36.8007402" lon="10.1091338"><ele>21.200000000000003</ele><time>2026-05-03T16:54:13.931Z</time></trkpt><trkpt lat="36.8007973" lon="10.1092462"><ele>20.8</ele><time>2026-05-03T16:54:14.94Z</time></trkpt><trkpt lat="36.8008509" lon="10.1093494"><ele>20.4</ele><time>2026-05-03T16:54:15.935Z</time></trkpt><trkpt lat="36.8009052" lon="10.1094585"><ele>20.0</ele><time>2026-05-03T16:54:16.904Z</time></trkpt><trkpt lat="36.8009589" lon="10.1095625"><ele>20.166666666666668</ele><time>2026-05-03T16:54:17.944Z</time></trkpt><trkpt lat="36.8010087" lon="10.1096547"><ele>20.333333333333336</ele><time>2026-05-03T16:54:18.93Z</time></trkpt><trkpt lat="36.8010516" lon="10.1097411"><ele>20.5</ele><time>2026-05-03T16:54:19.922Z</time></trkpt><trkpt lat="36.8010896" lon="10.1098278"><ele>20.666666666666668</ele><time>2026-05-03T16:54:20.928Z</time></trkpt><trkpt lat="36.8011195" lon="10.1099038"><ele>20.833333333333332</ele><time>2026-05-03T16:54:21.944Z</time></trkpt><trkpt lat="36.8011579" lon="10.1099666"><ele>21.0</ele><time>2026-05-03T16:54:22.934Z</time></trkpt><trkpt lat="36.8012213" lon="10.1100784"><ele>21.0</ele><time>2026-05-03T16:54:24.939Z</time></trkpt><trkpt lat="36.8012592" lon="10.1101521"><ele>21.0</ele><time>2026-05-03T16:54:25.933Z</time></trkpt><trkpt lat="36.8013057" lon="10.1102335"><ele>21.0</ele><time>2026-05-03T16:54:26.925Z</time></trkpt><trkpt lat="36.8013574" lon="10.1103235"><ele>21.0</ele><time>2026-05-03T16:54:27.935Z</time></trkpt><trkpt lat="36.8014112" lon="10.1104159"><ele>21.0</ele><time>2026-05-03T16:54:28.932Z</time></trkpt><trkpt lat="36.8014581" lon="10.1105078"><ele>21.0</ele><time>2026-05-03T16:54:29.932Z</time></trkpt><trkpt lat="36.801517" lon="10.1106104"><ele>21.0</ele><time>2026-05-03T16:54:30.941Z</time></trkpt><trkpt lat="36.8015707" lon="10.1107102"><ele>21.0</ele><time>2026-05-03T16:54:31.932Z</time></trkpt><trkpt lat="36.8016292" lon="10.1108051"><ele>21.0</ele><time>2026-05-03T16:54:32.906Z</time></trkpt><trkpt lat="36.801676" lon="10.1108979"><ele>21.0</ele><time>2026-05-03T16:54:33.909Z</time></trkpt><trkpt lat="36.8017273" lon="10.1109801"><ele>21.0</ele><time>2026-05-03T16:54:34.933Z</time></trkpt><trkpt lat="36.8017748" lon="10.1110589"><ele>21.0</ele><time>2026-05-03T16:54:35.937Z</time></trkpt><trkpt lat="36.8018245" lon="10.1111254"><ele>20.8</ele><time>2026-05-03T16:54:36.929Z</time></trkpt><trkpt lat="36.8018607" lon="10.1111979"><ele>20.6</ele><time>2026-05-03T16:54:37.916Z</time></trkpt><trkpt lat="36.8019239" lon="10.1113299"><ele>20.4</ele><time>2026-05-03T16:54:39.942Z</time></trkpt><trkpt lat="36.8019752" lon="10.1114728"><ele>20.2</ele><time>2026-05-03T16:54:41.909Z</time></trkpt><trkpt lat="36.8020339" lon="10.1116084"><ele>20.0</ele><time>2026-05-03T16:54:43.927Z</time></trkpt><trkpt lat="36.8020635" lon="10.111682"><ele>20.0</ele><time>2026-05-03T16:54:44.914Z</time></trkpt><trkpt lat="36.8020913" lon="10.1117583"><ele>20.0</ele><time>2026-05-03T16:54:45.936Z</time></trkpt><trkpt lat="36.8021196" lon="10.1118478"><ele>20.0</ele><time>2026-05-03T16:54:46.937Z</time></trkpt><trkpt lat="36.8021463" lon="10.1119427"><ele>20.0</ele><time>2026-05-03T16:54:47.928Z</time></trkpt><trkpt lat="36.8021685" lon="10.1120409"><ele>20.0</ele><time>2026-05-03T16:54:48.921Z</time></trkpt><trkpt lat="36.8021918" lon="10.1121456"><ele>20.0</ele><time>2026-05-03T16:54:49.925Z</time></trkpt><trkpt lat="36.8022125" lon="10.1122428"><ele>20.0</ele><time>2026-05-03T16:54:50.921Z</time></trkpt><trkpt lat="36.8022383" lon="10.112337"><ele>20.0</ele><time>2026-05-03T16:54:51.941Z</time></trkpt><trkpt lat="36.8022675" lon="10.1124326"><ele>20.0</ele><time>2026-05-03T16:54:52.924Z</time></trkpt><trkpt lat="36.802295" lon="10.1125285"><ele>20.0</ele><time>2026-05-03T16:54:53.915Z</time></trkpt><trkpt lat="36.8023158" lon="10.1126244"><ele>20.0</ele><time>2026-05-03T16:54:54.933Z</time></trkpt><trkpt lat="36.8023415" lon="10.1127204"><ele>20.0</ele><time>2026-05-03T16:54:55.938Z</time></trkpt><trkpt lat="36.8023678" lon="10.1128186"><ele>20.0</ele><time>2026-05-03T16:54:56.933Z</time></trkpt><trkpt lat="36.8023903" lon="10.1129151"><ele>20.0</ele><time>2026-05-03T16:54:57.947Z</time></trkpt><trkpt lat="36.8024128" lon="10.1130155"><ele>20.0</ele><time>2026-05-03T16:54:58.925Z</time></trkpt><trkpt lat="36.8024316" lon="10.1131196"><ele>20.0</ele><time>2026-05-03T16:54:59.932Z</time></trkpt><trkpt lat="36.8024466" lon="10.113234"><ele>20.0</ele><time>2026-05-03T16:55:00.945Z</time></trkpt><trkpt lat="36.8024601" lon="10.1133545"><ele>20.0</ele><time>2026-05-03T16:55:01.924Z</time></trkpt><trkpt lat="36.8024769" lon="10.1134588"><ele>20.166666666666668</ele><time>2026-05-03T16:55:02.927Z</time></trkpt><trkpt lat="36.8024972" lon="10.1135495"><ele>20.333333333333336</ele><time>2026-05-03T16:55:03.928Z</time></trkpt><trkpt lat="36.8025069" lon="10.1136276"><ele>20.5</ele><time>2026-05-03T16:55:04.936Z</time></trkpt><trkpt lat="36.8025276" lon="10.1137543"><ele>20.666666666666668</ele><time>2026-05-03T16:55:06.939Z</time></trkpt><trkpt lat="36.8025493" lon="10.1138684"><ele>20.833333333333332</ele><time>2026-05-03T16:55:08.902Z</time></trkpt><trkpt lat="36.8025602" lon="10.1140026"><ele>21.0</ele><time>2026-05-03T16:55:10.935Z</time></trkpt><trkpt lat="36.8025822" lon="10.1141587"><ele>21.200000000000003</ele><time>2026-05-03T16:55:12.942Z</time></trkpt><trkpt lat="36.8025982" lon="10.1142458"><ele>21.400000000000002</ele><time>2026-05-03T16:55:13.933Z</time></trkpt><trkpt lat="36.8026112" lon="10.1143399"><ele>21.6</ele><time>2026-05-03T16:55:14.93Z</time></trkpt><trkpt lat="36.8026248" lon="10.1144464"><ele>21.8</ele><time>2026-05-03T16:55:15.944Z</time></trkpt><trkpt lat="36.8026353" lon="10.1145733"><ele>22.0</ele><time>2026-05-03T16:55:16.934Z</time></trkpt><trkpt lat="36.8026508" lon="10.1147259"><ele>22.0</ele><time>2026-05-03T16:55:17.936Z</time></trkpt><trkpt lat="36.8026699" lon="10.1148844"><ele>22.0</ele><time>2026-05-03T16:55:18.951Z</time></trkpt><trkpt lat="36.8026877" lon="10.1150367"><ele>22.0</ele><time>2026-05-03T16:55:19.921Z</time></trkpt><trkpt lat="36.8027004" lon="10.115182"><ele>22.0</ele><time>2026-05-03T16:55:20.949Z</time></trkpt><trkpt lat="36.802715" lon="10.1153207"><ele>21.75</ele><time>2026-05-03T16:55:21.934Z</time></trkpt><trkpt lat="36.8027328" lon="10.1154658"><ele>21.5</ele><time>2026-05-03T16:55:22.921Z</time></trkpt><trkpt lat="36.8027621" lon="10.1156172"><ele>21.25</ele><time>2026-05-03T16:55:23.919Z</time></trkpt><trkpt lat="36.8027874" lon="10.1157663"><ele>21.0</ele><time>2026-05-03T16:55:24.898Z</time></trkpt><trkpt lat="36.8028087" lon="10.1159116"><ele>20.75</ele><time>2026-05-03T16:55:25.932Z</time></trkpt><trkpt lat="36.8028281" lon="10.1160579"><ele>20.5</ele><time>2026-05-03T16:55:26.946Z</time></trkpt><trkpt lat="36.8028493" lon="10.1162072"><ele>20.25</ele><time>2026-05-03T16:55:27.943Z</time></trkpt><trkpt lat="36.8028696" lon="10.1163577"><ele>20.0</ele><time>2026-05-03T16:55:28.928Z</time></trkpt><trkpt lat="36.8028895" lon="10.1165066"><ele>20.25</ele><time>2026-05-03T16:55:29.928Z</time></trkpt><trkpt lat="36.8029074" lon="10.1166529"><ele>20.5</ele><time>2026-05-03T16:55:30.932Z</time></trkpt><trkpt lat="36.802927" lon="10.1168017"><ele>20.75</ele><time>2026-05-03T16:55:31.928Z</time></trkpt><trkpt lat="36.8029481" lon="10.1169465"><ele>21.0</ele><time>2026-05-03T16:55:32.926Z</time></trkpt><trkpt lat="36.8029714" lon="10.1170882"><ele>21.0</ele><time>2026-05-03T16:55:33.921Z</time></trkpt><trkpt lat="36.8029939" lon="10.1172285"><ele>21.0</ele><time>2026-05-03T16:55:34.91Z</time></trkpt><trkpt lat="36.8030128" lon="10.1173627"><ele>21.0</ele><time>2026-05-03T16:55:35.914Z</time></trkpt><trkpt lat="36.8030338" lon="10.1174978"><ele>21.0</ele><time>2026-05-03T16:55:36.92Z</time></trkpt><trkpt lat="36.8030504" lon="10.1176289"><ele>21.0</ele><time>2026-05-03T16:55:37.926Z</time></trkpt><trkpt lat="36.8030683" lon="10.1177574"><ele>20.833333333333332</ele><time>2026-05-03T16:55:38.915Z</time></trkpt><trkpt lat="36.8030775" lon="10.1178778"><ele>20.666666666666668</ele><time>2026-05-03T16:55:39.93Z</time></trkpt><trkpt lat="36.8030938" lon="10.1179849"><ele>20.5</ele><time>2026-05-03T16:55:40.94Z</time></trkpt><trkpt lat="36.8031045" lon="10.1180986"><ele>20.333333333333336</ele><time>2026-05-03T16:55:41.927Z</time></trkpt><trkpt lat="36.8031112" lon="10.1182023"><ele>20.166666666666668</ele><time>2026-05-03T16:55:42.912Z</time></trkpt><trkpt lat="36.8031122" lon="10.1182903"><ele>20.0</ele><time>2026-05-03T16:55:43.918Z</time></trkpt><trkpt lat="36.8031061" lon="10.1184133"><ele>19.666666666666668</ele><time>2026-05-03T16:55:45.917Z</time></trkpt><trkpt lat="36.8030936" lon="10.1184954"><ele>19.333333333333336</ele><time>2026-05-03T16:55:47.913Z</time></trkpt><trkpt lat="36.803064" lon="10.1185838"><ele>19.0</ele><time>2026-05-03T16:55:52.905Z</time></trkpt><trkpt lat="36.8030224" lon="10.1186923"><ele>18.666666666666668</ele><time>2026-05-03T16:55:54.92Z</time></trkpt><trkpt lat="36.8029912" lon="10.1187802"><ele>18.333333333333332</ele><time>2026-05-03T16:55:56.939Z</time></trkpt><trkpt lat="36.8029857" lon="10.1188887"><ele>18.0</ele><time>2026-05-03T16:55:58.915Z</time></trkpt><trkpt lat="36.8030072" lon="10.1190427"><ele>18.166666666666668</ele><time>2026-05-03T16:56:00.914Z</time></trkpt><trkpt lat="36.8030493" lon="10.1191539"><ele>18.333333333333332</ele><time>2026-05-03T16:56:02.917Z</time></trkpt><trkpt lat="36.8031172" lon="10.1192096"><ele>18.5</ele><time>2026-05-03T16:56:04.926Z</time></trkpt><trkpt lat="36.8032149" lon="10.1192176"><ele>18.666666666666664</ele><time>2026-05-03T16:56:08.914Z</time></trkpt><trkpt lat="36.8032845" lon="10.1191939"><ele>18.833333333333332</ele><time>2026-05-03T16:56:10.917Z</time></trkpt><trkpt lat="36.8033623" lon="10.1191636"><ele>19.0</ele><time>2026-05-03T16:56:12.93Z</time></trkpt><trkpt lat="36.8034422" lon="10.1190825"><ele>18.8</ele><time>2026-05-03T16:56:14.92Z</time></trkpt><trkpt lat="36.8034834" lon="10.118969"><ele>18.599999999999998</ele><time>2026-05-03T16:56:16.911Z</time></trkpt><trkpt lat="36.8034914" lon="10.1188574"><ele>18.4</ele><time>2026-05-03T16:56:18.919Z</time></trkpt><trkpt lat="36.8034873" lon="10.1187419"><ele>18.2</ele><time>2026-05-03T16:56:20.919Z</time></trkpt><trkpt lat="36.8033841" lon="10.1186255"><ele>18.0</ele><time>2026-05-03T16:56:22.934Z</time></trkpt><trkpt lat="36.8033099" lon="10.1185977"><ele>18.0</ele><time>2026-05-03T16:56:23.92Z</time></trkpt><trkpt lat="36.8032476" lon="10.1185825"><ele>18.0</ele><time>2026-05-03T16:56:24.92Z</time></trkpt><trkpt lat="36.8031827" lon="10.1185841"><ele>18.0</ele><time>2026-05-03T16:56:25.938Z</time></trkpt><trkpt lat="36.80309" lon="10.1186328"><ele>18.0</ele><time>2026-05-03T16:56:27.918Z</time></trkpt><trkpt lat="36.8030204" lon="10.1187365"><ele>18.0</ele><time>2026-05-03T16:56:29.924Z</time></trkpt><trkpt lat="36.8029694" lon="10.1188287"><ele>18.0</ele><time>2026-05-03T16:56:31.91Z</time></trkpt><trkpt lat="36.8029609" lon="10.1189406"><ele>18.0</ele><time>2026-05-03T16:56:33.919Z</time></trkpt><trkpt lat="36.8029803" lon="10.1190395"><ele>18.0</ele><time>2026-05-03T16:56:35.912Z</time></trkpt><trkpt lat="36.8030486" lon="10.11911"><ele>18.0</ele><time>2026-05-03T16:56:37.903Z</time></trkpt><trkpt lat="36.8031281" lon="10.1191784"><ele>18.0</ele><time>2026-05-03T16:56:39.909Z</time></trkpt><trkpt lat="36.8032066" lon="10.1192139"><ele>18.0</ele><time>2026-05-03T16:56:41.916Z</time></trkpt><trkpt lat="36.8032936" lon="10.1192021"><ele>18.0</ele><time>2026-05-03T16:56:43.919Z</time></trkpt><trkpt lat="36.8033859" lon="10.1191518"><ele>18.166666666666668</ele><time>2026-05-03T16:56:45.928Z</time></trkpt><trkpt lat="36.8034866" lon="10.1190861"><ele>18.333333333333332</ele><time>2026-05-03T16:56:47.918Z</time></trkpt><trkpt lat="36.8035944" lon="10.1190367"><ele>18.5</ele><time>2026-05-03T16:56:49.924Z</time></trkpt><trkpt lat="36.8036577" lon="10.1190162"><ele>18.666666666666664</ele><time>2026-05-03T16:56:50.91Z</time></trkpt><trkpt lat="36.8037243" lon="10.119007"><ele>18.833333333333332</ele><time>2026-05-03T16:56:51.915Z</time></trkpt><trkpt lat="36.8038005" lon="10.118998"><ele>19.0</ele><time>2026-05-03T16:56:52.933Z</time></trkpt><trkpt lat="36.8038703" lon="10.1189921"><ele>19.166666666666664</ele><time>2026-05-03T16:56:53.94Z</time></trkpt><trkpt lat="36.8039476" lon="10.1189854"><ele>19.333333333333332</ele><time>2026-05-03T16:56:54.942Z</time></trkpt><trkpt lat="36.8040278" lon="10.1189773"><ele>19.5</ele><time>2026-05-03T16:56:55.943Z</time></trkpt><trkpt lat="36.8041133" lon="10.1189764"><ele>19.666666666666668</ele><time>2026-05-03T16:56:56.937Z</time></trkpt><trkpt lat="36.8042001" lon="10.1189745"><ele>19.833333333333336</ele><time>2026-05-03T16:56:57.907Z</time></trkpt><trkpt lat="36.8042912" lon="10.1189713"><ele>20.0</ele><time>2026-05-03T16:56:58.942Z</time></trkpt><trkpt lat="36.8043862" lon="10.1189602"><ele>20.0</ele><time>2026-05-03T16:56:59.913Z</time></trkpt><trkpt lat="36.8044934" lon="10.1189562"><ele>20.0</ele><time>2026-05-03T16:57:00.898Z</time></trkpt><trkpt lat="36.8046078" lon="10.1189514"><ele>20.0</ele><time>2026-05-03T16:57:01.894Z</time></trkpt><trkpt lat="36.8047317" lon="10.118948"><ele>20.0</ele><time>2026-05-03T16:57:02.913Z</time></trkpt><trkpt lat="36.8048538" lon="10.1189429"><ele>20.0</ele><time>2026-05-03T16:57:03.901Z</time></trkpt><trkpt lat="36.8049794" lon="10.1189343"><ele>20.0</ele><time>2026-05-03T16:57:04.929Z</time></trkpt><trkpt lat="36.8051012" lon="10.1189223"><ele>20.0</ele><time>2026-05-03T16:57:05.934Z</time></trkpt><trkpt lat="36.8052168" lon="10.1189087"><ele>20.0</ele><time>2026-05-03T16:57:06.902Z</time></trkpt><trkpt lat="36.8053296" lon="10.1188935"><ele>20.25</ele><time>2026-05-03T16:57:07.941Z</time></trkpt><trkpt lat="36.8054407" lon="10.1188778"><ele>20.5</ele><time>2026-05-03T16:57:08.935Z</time></trkpt><trkpt lat="36.8055529" lon="10.1188633"><ele>20.75</ele><time>2026-05-03T16:57:09.931Z</time></trkpt><trkpt lat="36.8056789" lon="10.1188365"><ele>21.0</ele><time>2026-05-03T16:57:10.926Z</time></trkpt><trkpt lat="36.805809" lon="10.1188137"><ele>21.0</ele><time>2026-05-03T16:57:11.905Z</time></trkpt><trkpt lat="36.8059376" lon="10.1187911"><ele>21.0</ele><time>2026-05-03T16:57:12.927Z</time></trkpt><trkpt lat="36.8060713" lon="10.1187721"><ele>21.0</ele><time>2026-05-03T16:57:13.921Z</time></trkpt><trkpt lat="36.8062179" lon="10.1187573"><ele>21.0</ele><time>2026-05-03T16:57:14.94Z</time></trkpt><trkpt lat="36.8063645" lon="10.1187408"><ele>21.333333333333332</ele><time>2026-05-03T16:57:15.937Z</time></trkpt><trkpt lat="36.8065147" lon="10.1187281"><ele>21.666666666666664</ele><time>2026-05-03T16:57:16.901Z</time></trkpt><trkpt lat="36.8066728" lon="10.1187214"><ele>22.0</ele><time>2026-05-03T16:57:17.941Z</time></trkpt><trkpt lat="36.8068357" lon="10.1187158"><ele>22.666666666666664</ele><time>2026-05-03T16:57:18.927Z</time></trkpt><trkpt lat="36.807002" lon="10.1187115"><ele>23.333333333333332</ele><time>2026-05-03T16:57:19.907Z</time></trkpt><trkpt lat="36.8071686" lon="10.1187086"><ele>24.0</ele><time>2026-05-03T16:57:20.909Z</time></trkpt><trkpt lat="36.8073274" lon="10.1187015"><ele>24.0</ele><time>2026-05-03T16:57:21.919Z</time></trkpt><trkpt lat="36.8074858" lon="10.1186948"><ele>24.0</ele><time>2026-05-03T16:57:22.919Z</time></trkpt><trkpt lat="36.8076452" lon="10.1186881"><ele>24.0</ele><time>2026-05-03T16:57:23.925Z</time></trkpt><trkpt lat="36.807807" lon="10.1187063"><ele>24.0</ele><time>2026-05-03T16:57:24.902Z</time></trkpt><trkpt lat="36.807977" lon="10.118732"><ele>24.0</ele><time>2026-05-03T16:57:25.916Z</time></trkpt><trkpt lat="36.8081652" lon="10.11877"><ele>24.0</ele><time>2026-05-03T16:57:26.922Z</time></trkpt><trkpt lat="36.8083577" lon="10.1188157"><ele>24.333333333333336</ele><time>2026-05-03T16:57:27.932Z</time></trkpt><trkpt lat="36.8085626" lon="10.1188747"><ele>24.666666666666668</ele><time>2026-05-03T16:57:28.917Z</time></trkpt><trkpt lat="36.8087713" lon="10.1189552"><ele>25.0</ele><time>2026-05-03T16:57:29.926Z</time></trkpt><trkpt lat="36.8089837" lon="10.1190612"><ele>25.333333333333336</ele><time>2026-05-03T16:57:30.947Z</time></trkpt><trkpt lat="36.8091928" lon="10.1191812"><ele>25.666666666666664</ele><time>2026-05-03T16:57:31.936Z</time></trkpt><trkpt lat="36.8093899" lon="10.1192942"><ele>26.0</ele><time>2026-05-03T16:57:32.93Z</time></trkpt><trkpt lat="36.8095881" lon="10.1194123"><ele>26.333333333333332</ele><time>2026-05-03T16:57:33.918Z</time></trkpt><trkpt lat="36.8097701" lon="10.1195139"><ele>26.666666666666664</ele><time>2026-05-03T16:57:34.934Z</time></trkpt><trkpt lat="36.8099379" lon="10.1196194"><ele>27.0</ele><time>2026-05-03T16:57:35.912Z</time></trkpt><trkpt lat="36.8101034" lon="10.1197201"><ele>27.0</ele><time>2026-05-03T16:57:36.92Z</time></trkpt><trkpt lat="36.8102584" lon="10.1198062"><ele>27.0</ele><time>2026-05-03T16:57:37.929Z</time></trkpt><trkpt lat="36.810422" lon="10.1199002"><ele>27.0</ele><time>2026-05-03T16:57:38.946Z</time></trkpt><trkpt lat="36.8105786" lon="10.1199889"><ele>27.0</ele><time>2026-05-03T16:57:39.923Z</time></trkpt><trkpt lat="36.8107339" lon="10.1200685"><ele>27.0</ele><time>2026-05-03T16:57:40.943Z</time></trkpt><trkpt lat="36.8108914" lon="10.1201371"><ele>27.0</ele><time>2026-05-03T16:57:41.922Z</time></trkpt><trkpt lat="36.8110472" lon="10.1202085"><ele>27.0</ele><time>2026-05-03T16:57:42.939Z</time></trkpt><trkpt lat="36.8112017" lon="10.1202607"><ele>27.0</ele><time>2026-05-03T16:57:43.929Z</time></trkpt><trkpt lat="36.8113588" lon="10.1203136"><ele>27.0</ele><time>2026-05-03T16:57:44.898Z</time></trkpt><trkpt lat="36.8115179" lon="10.1203665"><ele>27.0</ele><time>2026-05-03T16:57:45.913Z</time></trkpt><trkpt lat="36.8116803" lon="10.1204121"><ele>27.0</ele><time>2026-05-03T16:57:46.934Z</time></trkpt><trkpt lat="36.811844" lon="10.1204528"><ele>27.0</ele><time>2026-05-03T16:57:47.912Z</time></trkpt><trkpt lat="36.8120022" lon="10.1204866"><ele>27.75</ele><time>2026-05-03T16:57:48.93Z</time></trkpt><trkpt lat="36.812156" lon="10.1205165"><ele>28.5</ele><time>2026-05-03T16:57:49.914Z</time></trkpt><trkpt lat="36.8123069" lon="10.1205396"><ele>29.25</ele><time>2026-05-03T16:57:50.915Z</time></trkpt><trkpt lat="36.8124441" lon="10.1205635"><ele>30.0</ele><time>2026-05-03T16:57:51.958Z</time></trkpt><trkpt lat="36.8125707" lon="10.1205888"><ele>29.5</ele><time>2026-05-03T16:57:52.925Z</time></trkpt><trkpt lat="36.812699" lon="10.120618"><ele>29.0</ele><time>2026-05-03T16:57:53.943Z</time></trkpt><trkpt lat="36.8128278" lon="10.120645"><ele>28.5</ele><time>2026-05-03T16:57:54.944Z</time></trkpt><trkpt lat="36.8129561" lon="10.120675"><ele>28.0</ele><time>2026-05-03T16:57:55.92Z</time></trkpt><trkpt lat="36.8130894" lon="10.1206997"><ele>28.0</ele><time>2026-05-03T16:57:56.92Z</time></trkpt><trkpt lat="36.8132317" lon="10.1207194"><ele>28.0</ele><time>2026-05-03T16:57:57.94Z</time></trkpt><trkpt lat="36.8133778" lon="10.120742"><ele>28.0</ele><time>2026-05-03T16:57:58.921Z</time></trkpt><trkpt lat="36.8135216" lon="10.1207648"><ele>28.0</ele><time>2026-05-03T16:57:59.935Z</time></trkpt><trkpt lat="36.8136577" lon="10.1207897"><ele>28.5</ele><time>2026-05-03T16:58:00.931Z</time></trkpt><trkpt lat="36.8137996" lon="10.1208193"><ele>29.0</ele><time>2026-05-03T16:58:01.937Z</time></trkpt><trkpt lat="36.8139408" lon="10.1208499"><ele>29.5</ele><time>2026-05-03T16:58:02.923Z</time></trkpt><trkpt lat="36.8140903" lon="10.1208861"><ele>30.0</ele><time>2026-05-03T16:58:03.922Z</time></trkpt><trkpt lat="36.8142386" lon="10.1209299"><ele>30.333333333333336</ele><time>2026-05-03T16:58:04.926Z</time></trkpt><trkpt lat="36.8143847" lon="10.1209751"><ele>30.666666666666668</ele><time>2026-05-03T16:58:05.948Z</time></trkpt><trkpt lat="36.8145349" lon="10.1210311"><ele>31.0</ele><time>2026-05-03T16:58:06.937Z</time></trkpt><trkpt lat="36.8146771" lon="10.1210941"><ele>31.0</ele><time>2026-05-03T16:58:07.94Z</time></trkpt><trkpt lat="36.8148137" lon="10.1211539"><ele>31.0</ele><time>2026-05-03T16:58:08.92Z</time></trkpt><trkpt lat="36.81494" lon="10.1212249"><ele>31.0</ele><time>2026-05-03T16:58:09.92Z</time></trkpt><trkpt lat="36.8150668" lon="10.1213021"><ele>31.0</ele><time>2026-05-03T16:58:10.925Z</time></trkpt><trkpt lat="36.8151934" lon="10.1213858"><ele>31.25</ele><time>2026-05-03T16:58:11.92Z</time></trkpt><trkpt lat="36.8153038" lon="10.1214685"><ele>31.5</ele><time>2026-05-03T16:58:12.941Z</time></trkpt><trkpt lat="36.8154213" lon="10.1215561"><ele>31.75</ele><time>2026-05-03T16:58:13.931Z</time></trkpt><trkpt lat="36.8155324" lon="10.1216567"><ele>32.0</ele><time>2026-05-03T16:58:14.914Z</time></trkpt><trkpt lat="36.815648" lon="10.12176"><ele>32.0</ele><time>2026-05-03T16:58:15.926Z</time></trkpt><trkpt lat="36.8157561" lon="10.1218724"><ele>32.0</ele><time>2026-05-03T16:58:16.908Z</time></trkpt><trkpt lat="36.8158624" lon="10.121974"><ele>32.0</ele><time>2026-05-03T16:58:17.908Z</time></trkpt><trkpt lat="36.8159612" lon="10.1220823"><ele>32.0</ele><time>2026-05-03T16:58:18.924Z</time></trkpt><trkpt lat="36.816054" lon="10.1221925"><ele>32.0</ele><time>2026-05-03T16:58:19.91Z</time></trkpt><trkpt lat="36.8161438" lon="10.1223069"><ele>32.0</ele><time>2026-05-03T16:58:20.919Z</time></trkpt><trkpt lat="36.8162305" lon="10.1224246"><ele>32.0</ele><time>2026-05-03T16:58:21.942Z</time></trkpt><trkpt lat="36.8163114" lon="10.122552"><ele>32.0</ele><time>2026-05-03T16:58:22.922Z</time></trkpt><trkpt lat="36.8163958" lon="10.1226962"><ele>32.0</ele><time>2026-05-03T16:58:23.926Z</time></trkpt><trkpt lat="36.8164796" lon="10.1228451"><ele>32.0</ele><time>2026-05-03T16:58:24.927Z</time></trkpt><trkpt lat="36.8165656" lon="10.1230081"><ele>32.0</ele><time>2026-05-03T16:58:25.922Z</time></trkpt><trkpt lat="36.8166489" lon="10.1231918"><ele>32.33333333333333</ele><time>2026-05-03T16:58:26.908Z</time></trkpt><trkpt lat="36.8167274" lon="10.1233835"><ele>32.666666666666664</ele><time>2026-05-03T16:58:27.921Z</time></trkpt><trkpt lat="36.8168043" lon="10.1235699"><ele>33.0</ele><time>2026-05-03T16:58:28.923Z</time></trkpt><trkpt lat="36.8168795" lon="10.1237536"><ele>33.0</ele><time>2026-05-03T16:58:29.925Z</time></trkpt><trkpt lat="36.8169506" lon="10.1239233"><ele>33.0</ele><time>2026-05-03T16:58:30.909Z</time></trkpt><trkpt lat="36.8170134" lon="10.1240761"><ele>33.0</ele><time>2026-05-03T16:58:31.933Z</time></trkpt><trkpt lat="36.8170713" lon="10.1242254"><ele>33.0</ele><time>2026-05-03T16:58:32.929Z</time></trkpt><trkpt lat="36.817119" lon="10.1243677"><ele>33.4</ele><time>2026-05-03T16:58:33.937Z</time></trkpt><trkpt lat="36.8171655" lon="10.1245005"><ele>33.8</ele><time>2026-05-03T16:58:34.936Z</time></trkpt><trkpt lat="36.8172065" lon="10.1246194"><ele>34.2</ele><time>2026-05-03T16:58:35.928Z</time></trkpt><trkpt lat="36.8172454" lon="10.124738"><ele>34.6</ele><time>2026-05-03T16:58:36.929Z</time></trkpt><trkpt lat="36.8172846" lon="10.1248569"><ele>35.0</ele><time>2026-05-03T16:58:37.936Z</time></trkpt><trkpt lat="36.8173261" lon="10.1249685"><ele>35.4</ele><time>2026-05-03T16:58:38.929Z</time></trkpt><trkpt lat="36.8173669" lon="10.1250902"><ele>35.8</ele><time>2026-05-03T16:58:39.924Z</time></trkpt><trkpt lat="36.8174094" lon="10.1252116"><ele>36.2</ele><time>2026-05-03T16:58:40.934Z</time></trkpt><trkpt lat="36.8174588" lon="10.1253338"><ele>36.6</ele><time>2026-05-03T16:58:41.935Z</time></trkpt><trkpt lat="36.8174964" lon="10.1254589"><ele>37.0</ele><time>2026-05-03T16:58:42.916Z</time></trkpt><trkpt lat="36.8175294" lon="10.1255889"><ele>37.0</ele><time>2026-05-03T16:58:43.921Z</time></trkpt><trkpt lat="36.8175684" lon="10.1257092"><ele>37.0</ele><time>2026-05-03T16:58:44.922Z</time></trkpt><trkpt lat="36.8176133" lon="10.1258381"><ele>37.0</ele><time>2026-05-03T16:58:45.916Z</time></trkpt><trkpt lat="36.8176635" lon="10.1259764"><ele>37.0</ele><time>2026-05-03T16:58:46.936Z</time></trkpt><trkpt lat="36.8177112" lon="10.1261129"><ele>37.5</ele><time>2026-05-03T16:58:47.933Z</time></trkpt><trkpt lat="36.8177598" lon="10.1262539"><ele>38.0</ele><time>2026-05-03T16:58:48.933Z</time></trkpt><trkpt lat="36.8178097" lon="10.1263961"><ele>38.5</ele><time>2026-05-03T16:58:49.9Z</time></trkpt><trkpt lat="36.8178598" lon="10.1265408"><ele>39.0</ele><time>2026-05-03T16:58:50.918Z</time></trkpt><trkpt lat="36.8179072" lon="10.1266893"><ele>39.25</ele><time>2026-05-03T16:58:51.93Z</time></trkpt><trkpt lat="36.8179552" lon="10.1268432"><ele>39.5</ele><time>2026-05-03T16:58:52.946Z</time></trkpt><trkpt lat="36.8180021" lon="10.1269936"><ele>39.75</ele><time>2026-05-03T16:58:53.932Z</time></trkpt><trkpt lat="36.8180522" lon="10.1271463"><ele>40.0</ele><time>2026-05-03T16:58:54.938Z</time></trkpt><trkpt lat="36.8180991" lon="10.1273024"><ele>40.25</ele><time>2026-05-03T16:58:55.933Z</time></trkpt><trkpt lat="36.81814" lon="10.1274584"><ele>40.5</ele><time>2026-05-03T16:58:56.924Z</time></trkpt><trkpt lat="36.8181808" lon="10.1276037"><ele>40.75</ele><time>2026-05-03T16:58:57.934Z</time></trkpt><trkpt lat="36.8182244" lon="10.1277581"><ele>41.0</ele><time>2026-05-03T16:58:58.938Z</time></trkpt><trkpt lat="36.8182746" lon="10.1279124"><ele>41.0</ele><time>2026-05-03T16:58:59.937Z</time></trkpt><trkpt lat="36.8183225" lon="10.1280778"><ele>41.0</ele><time>2026-05-03T16:59:00.919Z</time></trkpt><trkpt lat="36.8183671" lon="10.1282437"><ele>41.0</ele><time>2026-05-03T16:59:01.927Z</time></trkpt><trkpt lat="36.818409" lon="10.1284144"><ele>41.0</ele><time>2026-05-03T16:59:02.931Z</time></trkpt><trkpt lat="36.8184524" lon="10.1285887"><ele>41.25</ele><time>2026-05-03T16:59:03.907Z</time></trkpt><trkpt lat="36.8184943" lon="10.1287564"><ele>41.5</ele><time>2026-05-03T16:59:04.926Z</time></trkpt><trkpt lat="36.8185343" lon="10.1289222"><ele>41.75</ele><time>2026-05-03T16:59:05.939Z</time></trkpt><trkpt lat="36.8185806" lon="10.1290924"><ele>42.0</ele><time>2026-05-03T16:59:06.927Z</time></trkpt><trkpt lat="36.8186329" lon="10.1292588"><ele>42.0</ele><time>2026-05-03T16:59:07.934Z</time></trkpt><trkpt lat="36.8186816" lon="10.1294265"><ele>42.0</ele><time>2026-05-03T16:59:08.913Z</time></trkpt><trkpt lat="36.818732" lon="10.1295918"><ele>42.0</ele><time>2026-05-03T16:59:09.927Z</time></trkpt><trkpt lat="36.8187779" lon="10.1297535"><ele>42.0</ele><time>2026-05-03T16:59:10.907Z</time></trkpt><trkpt lat="36.8188251" lon="10.1299154"><ele>41.5</ele><time>2026-05-03T16:59:11.938Z</time></trkpt><trkpt lat="36.8188707" lon="10.1300732"><ele>41.0</ele><time>2026-05-03T16:59:12.943Z</time></trkpt><trkpt lat="36.8189167" lon="10.1302342"><ele>40.5</ele><time>2026-05-03T16:59:13.935Z</time></trkpt><trkpt lat="36.8189658" lon="10.130412"><ele>40.0</ele><time>2026-05-03T16:59:14.922Z</time></trkpt><trkpt lat="36.8190165" lon="10.1305886"><ele>40.0</ele><time>2026-05-03T16:59:15.929Z</time></trkpt><trkpt lat="36.819069" lon="10.130767"><ele>40.0</ele><time>2026-05-03T16:59:16.948Z</time></trkpt><trkpt lat="36.8191263" lon="10.1309469"><ele>40.0</ele><time>2026-05-03T16:59:17.945Z</time></trkpt><trkpt lat="36.8191832" lon="10.1311204"><ele>40.0</ele><time>2026-05-03T16:59:18.919Z</time></trkpt><trkpt lat="36.819238" lon="10.1313062"><ele>40.0</ele><time>2026-05-03T16:59:19.915Z</time></trkpt><trkpt lat="36.8192913" lon="10.1314854"><ele>40.0</ele><time>2026-05-03T16:59:20.902Z</time></trkpt><trkpt lat="36.8193472" lon="10.1316602"><ele>40.0</ele><time>2026-05-03T16:59:21.943Z</time></trkpt><trkpt lat="36.8194048" lon="10.1318351"><ele>40.0</ele><time>2026-05-03T16:59:22.933Z</time></trkpt><trkpt lat="36.8194615" lon="10.1320099"><ele>40.0</ele><time>2026-05-03T16:59:23.922Z</time></trkpt><trkpt lat="36.8195209" lon="10.1321941"><ele>40.0</ele><time>2026-05-03T16:59:24.94Z</time></trkpt><trkpt lat="36.8195778" lon="10.132384"><ele>40.0</ele><time>2026-05-03T16:59:25.917Z</time></trkpt><trkpt lat="36.8196379" lon="10.1325828"><ele>40.0</ele><time>2026-05-03T16:59:26.915Z</time></trkpt><trkpt lat="36.8197009" lon="10.1327822"><ele>39.66666666666667</ele><time>2026-05-03T16:59:27.939Z</time></trkpt><trkpt lat="36.8197644" lon="10.1329946"><ele>39.333333333333336</ele><time>2026-05-03T16:59:28.93Z</time></trkpt><trkpt lat="36.8198292" lon="10.1332098"><ele>39.0</ele><time>2026-05-03T16:59:29.943Z</time></trkpt><trkpt lat="36.8198908" lon="10.1334197"><ele>39.0</ele><time>2026-05-03T16:59:30.941Z</time></trkpt><trkpt lat="36.8199585" lon="10.1336255"><ele>39.0</ele><time>2026-05-03T16:59:31.922Z</time></trkpt><trkpt lat="36.8200249" lon="10.133825"><ele>39.0</ele><time>2026-05-03T16:59:32.919Z</time></trkpt><trkpt lat="36.8200941" lon="10.1340374"><ele>39.333333333333336</ele><time>2026-05-03T16:59:33.933Z</time></trkpt><trkpt lat="36.8201636" lon="10.1342433"><ele>39.66666666666667</ele><time>2026-05-03T16:59:34.912Z</time></trkpt><trkpt lat="36.8202305" lon="10.1344445"><ele>40.0</ele><time>2026-05-03T16:59:35.934Z</time></trkpt><trkpt lat="36.8202987" lon="10.1346462"><ele>40.0</ele><time>2026-05-03T16:59:36.926Z</time></trkpt><trkpt lat="36.8203664" lon="10.1348572"><ele>40.0</ele><time>2026-05-03T16:59:37.935Z</time></trkpt><trkpt lat="36.8204353" lon="10.1350721"><ele>40.0</ele><time>2026-05-03T16:59:38.927Z</time></trkpt><trkpt lat="36.8205069" lon="10.1352838"><ele>40.66666666666667</ele><time>2026-05-03T16:59:39.924Z</time></trkpt><trkpt lat="36.8205781" lon="10.1355027"><ele>41.333333333333336</ele><time>2026-05-03T16:59:40.922Z</time></trkpt><trkpt lat="36.8206493" lon="10.1357164"><ele>42.0</ele><time>2026-05-03T16:59:41.93Z</time></trkpt><trkpt lat="36.8207217" lon="10.1359314"><ele>43.0</ele><time>2026-05-03T16:59:42.942Z</time></trkpt><trkpt lat="36.8207888" lon="10.1361416"><ele>44.0</ele><time>2026-05-03T16:59:43.94Z</time></trkpt><trkpt lat="36.8208565" lon="10.1363507"><ele>45.0</ele><time>2026-05-03T16:59:44.925Z</time></trkpt><trkpt lat="36.8209274" lon="10.136555"><ele>46.33333333333333</ele><time>2026-05-03T16:59:45.917Z</time></trkpt><trkpt lat="36.8209994" lon="10.136755"><ele>47.666666666666664</ele><time>2026-05-03T16:59:46.924Z</time></trkpt><trkpt lat="36.8210717" lon="10.1369511"><ele>49.0</ele><time>2026-05-03T16:59:47.929Z</time></trkpt><trkpt lat="36.8211463" lon="10.1371418"><ele>49.0</ele><time>2026-05-03T16:59:48.93Z</time></trkpt><trkpt lat="36.8212225" lon="10.1373328"><ele>49.0</ele><time>2026-05-03T16:59:49.933Z</time></trkpt><trkpt lat="36.8212957" lon="10.1375189"><ele>49.0</ele><time>2026-05-03T16:59:50.924Z</time></trkpt><trkpt lat="36.8213702" lon="10.1377013"><ele>49.0</ele><time>2026-05-03T16:59:51.928Z</time></trkpt><trkpt lat="36.8214369" lon="10.1378701"><ele>49.0</ele><time>2026-05-03T16:59:52.94Z</time></trkpt><trkpt lat="36.821502" lon="10.1380263"><ele>49.0</ele><time>2026-05-03T16:59:53.941Z</time></trkpt><trkpt lat="36.8215662" lon="10.1381703"><ele>49.0</ele><time>2026-05-03T16:59:54.931Z</time></trkpt><trkpt lat="36.8216294" lon="10.1383109"><ele>48.5</ele><time>2026-05-03T16:59:55.929Z</time></trkpt><trkpt lat="36.8216888" lon="10.1384312"><ele>48.0</ele><time>2026-05-03T16:59:56.932Z</time></trkpt><trkpt lat="36.8217451" lon="10.1385603"><ele>47.5</ele><time>2026-05-03T16:59:57.927Z</time></trkpt><trkpt lat="36.8218005" lon="10.1386927"><ele>47.0</ele><time>2026-05-03T16:59:58.926Z</time></trkpt><trkpt lat="36.8218674" lon="10.1388337"><ele>48.0</ele><time>2026-05-03T16:59:59.933Z</time></trkpt><trkpt lat="36.8219362" lon="10.1389776"><ele>49.0</ele><time>2026-05-03T17:00:00.945Z</time></trkpt><trkpt lat="36.8220088" lon="10.1391199"><ele>50.0</ele><time>2026-05-03T17:00:01.937Z</time></trkpt><trkpt lat="36.8220804" lon="10.1392653"><ele>51.0</ele><time>2026-05-03T17:00:02.937Z</time></trkpt><trkpt lat="36.8221562" lon="10.1394173"><ele>51.0</ele><time>2026-05-03T17:00:03.938Z</time></trkpt><trkpt lat="36.8222364" lon="10.1395665"><ele>51.0</ele><time>2026-05-03T17:00:04.92Z</time></trkpt><trkpt lat="36.8223152" lon="10.1397163"><ele>51.0</ele><time>2026-05-03T17:00:05.904Z</time></trkpt><trkpt lat="36.8223958" lon="10.1398704"><ele>51.0</ele><time>2026-05-03T17:00:06.934Z</time></trkpt><trkpt lat="36.8224817" lon="10.1400266"><ele>50.75</ele><time>2026-05-03T17:00:07.939Z</time></trkpt><trkpt lat="36.8225664" lon="10.1401809"><ele>50.5</ele><time>2026-05-03T17:00:08.939Z</time></trkpt><trkpt lat="36.8226493" lon="10.1403317"><ele>50.25</ele><time>2026-05-03T17:00:09.944Z</time></trkpt><trkpt lat="36.8227368" lon="10.1404819"><ele>50.0</ele><time>2026-05-03T17:00:10.92Z</time></trkpt><trkpt lat="36.8228213" lon="10.1406266"><ele>50.25</ele><time>2026-05-03T17:00:11.927Z</time></trkpt><trkpt lat="36.8229077" lon="10.1407694"><ele>50.5</ele><time>2026-05-03T17:00:12.913Z</time></trkpt><trkpt lat="36.8229977" lon="10.1409133"><ele>50.75</ele><time>2026-05-03T17:00:13.945Z</time></trkpt><trkpt lat="36.8230898" lon="10.1410505"><ele>51.0</ele><time>2026-05-03T17:00:14.934Z</time></trkpt><trkpt lat="36.8231795" lon="10.1411872"><ele>51.0</ele><time>2026-05-03T17:00:15.934Z</time></trkpt><trkpt lat="36.8232694" lon="10.1413232"><ele>51.0</ele><time>2026-05-03T17:00:16.925Z</time></trkpt><trkpt lat="36.8233604" lon="10.1414592"><ele>51.0</ele><time>2026-05-03T17:00:17.93Z</time></trkpt><trkpt lat="36.8234558" lon="10.1415971"><ele>51.0</ele><time>2026-05-03T17:00:18.925Z</time></trkpt><trkpt lat="36.8235519" lon="10.1417267"><ele>52.0</ele><time>2026-05-03T17:00:19.943Z</time></trkpt><trkpt lat="36.8236433" lon="10.1418571"><ele>53.0</ele><time>2026-05-03T17:00:20.945Z</time></trkpt><trkpt lat="36.8237382" lon="10.1419854"><ele>54.0</ele><time>2026-05-03T17:00:21.936Z</time></trkpt><trkpt lat="36.8238326" lon="10.1421172"><ele>55.0</ele><time>2026-05-03T17:00:22.939Z</time></trkpt><trkpt lat="36.8239268" lon="10.1422492"><ele>55.0</ele><time>2026-05-03T17:00:23.939Z</time></trkpt><trkpt lat="36.8240213" lon="10.1423709"><ele>55.0</ele><time>2026-05-03T17:00:24.937Z</time></trkpt><trkpt lat="36.8241198" lon="10.1424927"><ele>55.0</ele><time>2026-05-03T17:00:25.922Z</time></trkpt><trkpt lat="36.8242218" lon="10.1426172"><ele>55.0</ele><time>2026-05-03T17:00:26.939Z</time></trkpt><trkpt lat="36.8243219" lon="10.142744"><ele>56.75</ele><time>2026-05-03T17:00:27.924Z</time></trkpt><trkpt lat="36.8244206" lon="10.1428658"><ele>58.5</ele><time>2026-05-03T17:00:28.934Z</time></trkpt><trkpt lat="36.8245206" lon="10.1429878"><ele>60.25</ele><time>2026-05-03T17:00:29.934Z</time></trkpt><trkpt lat="36.8246162" lon="10.143113"><ele>62.0</ele><time>2026-05-03T17:00:30.912Z</time></trkpt><trkpt lat="36.8247151" lon="10.1432426"><ele>63.75</ele><time>2026-05-03T17:00:31.931Z</time></trkpt><trkpt lat="36.8248127" lon="10.1433737"><ele>65.5</ele><time>2026-05-03T17:00:32.929Z</time></trkpt><trkpt lat="36.8249139" lon="10.1434981"><ele>67.25</ele><time>2026-05-03T17:00:33.908Z</time></trkpt><trkpt lat="36.8250185" lon="10.1436255"><ele>69.0</ele><time>2026-05-03T17:00:34.919Z</time></trkpt><trkpt lat="36.8251274" lon="10.1437614"><ele>68.66666666666667</ele><time>2026-05-03T17:00:35.922Z</time></trkpt><trkpt lat="36.8252351" lon="10.1438966"><ele>68.33333333333334</ele><time>2026-05-03T17:00:36.932Z</time></trkpt><trkpt lat="36.8253482" lon="10.1440432"><ele>68.0</ele><time>2026-05-03T17:00:37.933Z</time></trkpt><trkpt lat="36.8254576" lon="10.1441869"><ele>68.0</ele><time>2026-05-03T17:00:38.914Z</time></trkpt><trkpt lat="36.8255727" lon="10.14434"><ele>68.0</ele><time>2026-05-03T17:00:39.961Z</time></trkpt><trkpt lat="36.825685" lon="10.1444917"><ele>68.0</ele><time>2026-05-03T17:00:40.921Z</time></trkpt><trkpt lat="36.8257995" lon="10.1446492"><ele>68.0</ele><time>2026-05-03T17:00:41.934Z</time></trkpt><trkpt lat="36.8259156" lon="10.1448068"><ele>68.0</ele><time>2026-05-03T17:00:42.92Z</time></trkpt><trkpt lat="36.8260255" lon="10.1449713"><ele>68.0</ele><time>2026-05-03T17:00:43.902Z</time></trkpt><trkpt lat="36.8261317" lon="10.1451306"><ele>67.66666666666667</ele><time>2026-05-03T17:00:44.939Z</time></trkpt><trkpt lat="36.8262396" lon="10.1452985"><ele>67.33333333333333</ele><time>2026-05-03T17:00:45.926Z</time></trkpt><trkpt lat="36.8263396" lon="10.1454668"><ele>67.0</ele><time>2026-05-03T17:00:46.92Z</time></trkpt><trkpt lat="36.8264341" lon="10.1456356"><ele>67.66666666666666</ele><time>2026-05-03T17:00:47.936Z</time></trkpt><trkpt lat="36.8265336" lon="10.1457949"><ele>68.33333333333333</ele><time>2026-05-03T17:00:48.932Z</time></trkpt><trkpt lat="36.8266383" lon="10.1459599"><ele>69.0</ele><time>2026-05-03T17:00:49.909Z</time></trkpt><trkpt lat="36.8267401" lon="10.1461236"><ele>69.0</ele><time>2026-05-03T17:00:50.926Z</time></trkpt><trkpt lat="36.826844" lon="10.1462853"><ele>69.0</ele><time>2026-05-03T17:00:51.913Z</time></trkpt><trkpt lat="36.8269362" lon="10.1464473"><ele>69.0</ele><time>2026-05-03T17:00:52.913Z</time></trkpt><trkpt lat="36.8270303" lon="10.1466053"><ele>69.0</ele><time>2026-05-03T17:00:53.917Z</time></trkpt><trkpt lat="36.8271232" lon="10.1467614"><ele>69.0</ele><time>2026-05-03T17:00:54.912Z</time></trkpt><trkpt lat="36.8272218" lon="10.1469145"><ele>69.0</ele><time>2026-05-03T17:00:55.955Z</time></trkpt><trkpt lat="36.8273274" lon="10.14707"><ele>69.0</ele><time>2026-05-03T17:00:56.929Z</time></trkpt><trkpt lat="36.8274299" lon="10.1472299"><ele>69.0</ele><time>2026-05-03T17:00:57.938Z</time></trkpt><trkpt lat="36.8275349" lon="10.1473832"><ele>69.0</ele><time>2026-05-03T17:00:58.935Z</time></trkpt><trkpt lat="36.8276282" lon="10.147529"><ele>69.0</ele><time>2026-05-03T17:00:59.903Z</time></trkpt><trkpt lat="36.8277194" lon="10.1476766"><ele>69.0</ele><time>2026-05-03T17:01:00.933Z</time></trkpt><trkpt lat="36.8278061" lon="10.1478208"><ele>69.0</ele><time>2026-05-03T17:01:01.936Z</time></trkpt><trkpt lat="36.8278887" lon="10.1479578"><ele>69.0</ele><time>2026-05-03T17:01:02.92Z</time></trkpt><trkpt lat="36.8279689" lon="10.1480939"><ele>67.75</ele><time>2026-05-03T17:01:03.937Z</time></trkpt><trkpt lat="36.8280483" lon="10.148221"><ele>66.5</ele><time>2026-05-03T17:01:04.918Z</time></trkpt><trkpt lat="36.8281275" lon="10.1483505"><ele>65.25</ele><time>2026-05-03T17:01:05.941Z</time></trkpt><trkpt lat="36.8282105" lon="10.148478"><ele>64.0</ele><time>2026-05-03T17:01:06.933Z</time></trkpt><trkpt lat="36.8282985" lon="10.1486068"><ele>64.0</ele><time>2026-05-03T17:01:07.925Z</time></trkpt><trkpt lat="36.8283911" lon="10.1487375"><ele>64.0</ele><time>2026-05-03T17:01:08.928Z</time></trkpt><trkpt lat="36.8284798" lon="10.1488612"><ele>64.0</ele><time>2026-05-03T17:01:09.901Z</time></trkpt><trkpt lat="36.8285678" lon="10.1489898"><ele>64.0</ele><time>2026-05-03T17:01:10.934Z</time></trkpt><trkpt lat="36.828661" lon="10.1491233"><ele>63.75</ele><time>2026-05-03T17:01:11.935Z</time></trkpt><trkpt lat="36.8287594" lon="10.1492517"><ele>63.5</ele><time>2026-05-03T17:01:12.93Z</time></trkpt><trkpt lat="36.8288604" lon="10.1493835"><ele>63.25</ele><time>2026-05-03T17:01:13.934Z</time></trkpt><trkpt lat="36.828961" lon="10.1495101"><ele>63.0</ele><time>2026-05-03T17:01:14.913Z</time></trkpt><trkpt lat="36.8290519" lon="10.1496307"><ele>63.0</ele><time>2026-05-03T17:01:15.935Z</time></trkpt><trkpt lat="36.8291417" lon="10.1497517"><ele>63.0</ele><time>2026-05-03T17:01:16.933Z</time></trkpt><trkpt lat="36.8292308" lon="10.1498663"><ele>63.0</ele><time>2026-05-03T17:01:17.935Z</time></trkpt><trkpt lat="36.829319" lon="10.1499828"><ele>63.0</ele><time>2026-05-03T17:01:18.941Z</time></trkpt><trkpt lat="36.8294013" lon="10.1501009"><ele>62.0</ele><time>2026-05-03T17:01:19.937Z</time></trkpt><trkpt lat="36.8294878" lon="10.1502089"><ele>61.0</ele><time>2026-05-03T17:01:20.939Z</time></trkpt><trkpt lat="36.8295742" lon="10.1503228"><ele>60.0</ele><time>2026-05-03T17:01:21.927Z</time></trkpt><trkpt lat="36.8296641" lon="10.1504443"><ele>59.0</ele><time>2026-05-03T17:01:22.931Z</time></trkpt><trkpt lat="36.8297613" lon="10.1505749"><ele>60.333333333333336</ele><time>2026-05-03T17:01:23.933Z</time></trkpt><trkpt lat="36.8298625" lon="10.1507127"><ele>61.66666666666667</ele><time>2026-05-03T17:01:24.935Z</time></trkpt><trkpt lat="36.8299648" lon="10.1508502"><ele>63.0</ele><time>2026-05-03T17:01:25.933Z</time></trkpt><trkpt lat="36.8300732" lon="10.150988"><ele>64.66666666666667</ele><time>2026-05-03T17:01:26.902Z</time></trkpt><trkpt lat="36.8301767" lon="10.151138"><ele>66.33333333333334</ele><time>2026-05-03T17:01:27.937Z</time></trkpt><trkpt lat="36.830282" lon="10.1512841"><ele>68.0</ele><time>2026-05-03T17:01:28.912Z</time></trkpt><trkpt lat="36.8303886" lon="10.151426"><ele>68.66666666666667</ele><time>2026-05-03T17:01:29.93Z</time></trkpt><trkpt lat="36.8304982" lon="10.1515663"><ele>69.33333333333333</ele><time>2026-05-03T17:01:30.931Z</time></trkpt><trkpt lat="36.8306073" lon="10.151709"><ele>70.0</ele><time>2026-05-03T17:01:31.921Z</time></trkpt><trkpt lat="36.8307112" lon="10.1518525"><ele>70.0</ele><time>2026-05-03T17:01:32.921Z</time></trkpt><trkpt lat="36.8308186" lon="10.1519997"><ele>70.0</ele><time>2026-05-03T17:01:33.926Z</time></trkpt><trkpt lat="36.8309259" lon="10.1521516"><ele>70.0</ele><time>2026-05-03T17:01:34.931Z</time></trkpt><trkpt lat="36.8310385" lon="10.1523021"><ele>72.0</ele><time>2026-05-03T17:01:35.931Z</time></trkpt><trkpt lat="36.831152" lon="10.1524558"><ele>74.0</ele><time>2026-05-03T17:01:36.94Z</time></trkpt><trkpt lat="36.8312632" lon="10.1526107"><ele>76.0</ele><time>2026-05-03T17:01:37.927Z</time></trkpt><trkpt lat="36.8313705" lon="10.152765"><ele>76.0</ele><time>2026-05-03T17:01:38.936Z</time></trkpt><trkpt lat="36.8314753" lon="10.1529124"><ele>76.0</ele><time>2026-05-03T17:01:39.932Z</time></trkpt><trkpt lat="36.8315793" lon="10.1530555"><ele>76.0</ele><time>2026-05-03T17:01:40.924Z</time></trkpt><trkpt lat="36.8316817" lon="10.1532017"><ele>76.33333333333333</ele><time>2026-05-03T17:01:41.917Z</time></trkpt><trkpt lat="36.8317868" lon="10.1533464"><ele>76.66666666666667</ele><time>2026-05-03T17:01:42.91Z</time></trkpt><trkpt lat="36.8318893" lon="10.153489"><ele>77.0</ele><time>2026-05-03T17:01:43.936Z</time></trkpt><trkpt lat="36.8319895" lon="10.1536293"><ele>77.0</ele><time>2026-05-03T17:01:44.926Z</time></trkpt><trkpt lat="36.8320909" lon="10.1537732"><ele>77.0</ele><time>2026-05-03T17:01:45.926Z</time></trkpt><trkpt lat="36.8321935" lon="10.1539227"><ele>77.0</ele><time>2026-05-03T17:01:46.919Z</time></trkpt><trkpt lat="36.8322982" lon="10.1540849"><ele>77.0</ele><time>2026-05-03T17:01:47.94Z</time></trkpt><trkpt lat="36.8323994" lon="10.154249"><ele>77.0</ele><time>2026-05-03T17:01:48.933Z</time></trkpt><trkpt lat="36.8325031" lon="10.1544273"><ele>77.0</ele><time>2026-05-03T17:01:49.927Z</time></trkpt><trkpt lat="36.8326148" lon="10.1546063"><ele>77.33333333333334</ele><time>2026-05-03T17:01:50.934Z</time></trkpt><trkpt lat="36.8327161" lon="10.1547831"><ele>77.66666666666667</ele><time>2026-05-03T17:01:51.915Z</time></trkpt><trkpt lat="36.8328152" lon="10.1549627"><ele>78.0</ele><time>2026-05-03T17:01:52.926Z</time></trkpt><trkpt lat="36.8329119" lon="10.1551354"><ele>78.0</ele><time>2026-05-03T17:01:53.937Z</time></trkpt><trkpt lat="36.8329998" lon="10.1553053"><ele>78.0</ele><time>2026-05-03T17:01:54.926Z</time></trkpt><trkpt lat="36.8330938" lon="10.1554819"><ele>78.0</ele><time>2026-05-03T17:01:55.916Z</time></trkpt><trkpt lat="36.8331911" lon="10.1556565"><ele>77.0</ele><time>2026-05-03T17:01:56.934Z</time></trkpt><trkpt lat="36.8332892" lon="10.15583"><ele>76.0</ele><time>2026-05-03T17:01:57.958Z</time></trkpt><trkpt lat="36.8333834" lon="10.156007"><ele>75.0</ele><time>2026-05-03T17:01:58.947Z</time></trkpt><trkpt lat="36.8334804" lon="10.1561869"><ele>75.0</ele><time>2026-05-03T17:01:59.926Z</time></trkpt><trkpt lat="36.8335794" lon="10.1563635"><ele>75.0</ele><time>2026-05-03T17:02:00.923Z</time></trkpt><trkpt lat="36.833677" lon="10.1565376"><ele>75.0</ele><time>2026-05-03T17:02:01.916Z</time></trkpt><trkpt lat="36.8337739" lon="10.1567075"><ele>70.66666666666667</ele><time>2026-05-03T17:02:02.92Z</time></trkpt><trkpt lat="36.8338684" lon="10.1568752"><ele>66.33333333333334</ele><time>2026-05-03T17:02:03.908Z</time></trkpt><trkpt lat="36.8339587" lon="10.1570413"><ele>62.0</ele><time>2026-05-03T17:02:04.934Z</time></trkpt><trkpt lat="36.8340462" lon="10.1572116"><ele>61.66666666666667</ele><time>2026-05-03T17:02:05.923Z</time></trkpt><trkpt lat="36.8341363" lon="10.1573921"><ele>61.33333333333333</ele><time>2026-05-03T17:02:06.922Z</time></trkpt><trkpt lat="36.8342235" lon="10.1575766"><ele>61.0</ele><time>2026-05-03T17:02:07.937Z</time></trkpt><trkpt lat="36.834313" lon="10.1577612"><ele>60.0</ele><time>2026-05-03T17:02:08.909Z</time></trkpt><trkpt lat="36.8343997" lon="10.1579363"><ele>59.0</ele><time>2026-05-03T17:02:09.934Z</time></trkpt><trkpt lat="36.8344833" lon="10.1581178"><ele>58.0</ele><time>2026-05-03T17:02:10.931Z</time></trkpt><trkpt lat="36.8345664" lon="10.1582939"><ele>57.666666666666664</ele><time>2026-05-03T17:02:11.922Z</time></trkpt><trkpt lat="36.8346523" lon="10.158471"><ele>57.33333333333333</ele><time>2026-05-03T17:02:12.928Z</time></trkpt><trkpt lat="36.8347511" lon="10.1586583"><ele>57.0</ele><time>2026-05-03T17:02:13.925Z</time></trkpt><trkpt lat="36.8348479" lon="10.1588546"><ele>57.0</ele><time>2026-05-03T17:02:14.926Z</time></trkpt><trkpt lat="36.8349505" lon="10.1590613"><ele>57.0</ele><time>2026-05-03T17:02:15.937Z</time></trkpt><trkpt lat="36.8350585" lon="10.1592698"><ele>57.0</ele><time>2026-05-03T17:02:16.93Z</time></trkpt><trkpt lat="36.8351657" lon="10.1594851"><ele>54.66666666666667</ele><time>2026-05-03T17:02:17.916Z</time></trkpt><trkpt lat="36.8352715" lon="10.159693"><ele>52.333333333333336</ele><time>2026-05-03T17:02:18.896Z</time></trkpt><trkpt lat="36.8353815" lon="10.1598967"><ele>50.0</ele><time>2026-05-03T17:02:19.935Z</time></trkpt><trkpt lat="36.8354937" lon="10.1600964"><ele>49.333333333333336</ele><time>2026-05-03T17:02:20.914Z</time></trkpt><trkpt lat="36.8356004" lon="10.1602932"><ele>48.66666666666667</ele><time>2026-05-03T17:02:21.928Z</time></trkpt><trkpt lat="36.8357012" lon="10.1604921"><ele>48.0</ele><time>2026-05-03T17:02:22.929Z</time></trkpt><trkpt lat="36.8357968" lon="10.1606856"><ele>48.0</ele><time>2026-05-03T17:02:23.934Z</time></trkpt><trkpt lat="36.8358902" lon="10.1608656"><ele>48.0</ele><time>2026-05-03T17:02:24.908Z</time></trkpt><trkpt lat="36.835984" lon="10.1610402"><ele>48.0</ele><time>2026-05-03T17:02:25.896Z</time></trkpt><trkpt lat="36.8360798" lon="10.1612171"><ele>47.333333333333336</ele><time>2026-05-03T17:02:26.918Z</time></trkpt><trkpt lat="36.8361748" lon="10.1613953"><ele>46.66666666666667</ele><time>2026-05-03T17:02:27.923Z</time></trkpt><trkpt lat="36.8362692" lon="10.1615706"><ele>46.0</ele><time>2026-05-03T17:02:28.918Z</time></trkpt><trkpt lat="36.8363619" lon="10.1617462"><ele>43.66666666666667</ele><time>2026-05-03T17:02:29.93Z</time></trkpt><trkpt lat="36.8364535" lon="10.1619128"><ele>41.333333333333336</ele><time>2026-05-03T17:02:30.929Z</time></trkpt><trkpt lat="36.8365387" lon="10.1620775"><ele>39.0</ele><time>2026-05-03T17:02:31.949Z</time></trkpt><trkpt lat="36.8366216" lon="10.162235"><ele>38.0</ele><time>2026-05-03T17:02:32.918Z</time></trkpt><trkpt lat="36.8367068" lon="10.1623927"><ele>37.0</ele><time>2026-05-03T17:02:33.929Z</time></trkpt><trkpt lat="36.8367893" lon="10.1625515"><ele>36.0</ele><time>2026-05-03T17:02:34.916Z</time></trkpt><trkpt lat="36.8368728" lon="10.1627039"><ele>36.0</ele><time>2026-05-03T17:02:35.905Z</time></trkpt><trkpt lat="36.8369492" lon="10.1628532"><ele>36.0</ele><time>2026-05-03T17:02:36.925Z</time></trkpt><trkpt lat="36.8370196" lon="10.1629918"><ele>36.0</ele><time>2026-05-03T17:02:37.925Z</time></trkpt><trkpt lat="36.8370946" lon="10.1631329"><ele>36.0</ele><time>2026-05-03T17:02:38.93Z</time></trkpt><trkpt lat="36.8371627" lon="10.1632714"><ele>34.5</ele><time>2026-05-03T17:02:39.922Z</time></trkpt><trkpt lat="36.8372284" lon="10.1634058"><ele>33.0</ele><time>2026-05-03T17:02:40.939Z</time></trkpt><trkpt lat="36.8372961" lon="10.1635357"><ele>31.5</ele><time>2026-05-03T17:02:41.936Z</time></trkpt><trkpt lat="36.8373618" lon="10.1636639"><ele>30.0</ele><time>2026-05-03T17:02:42.933Z</time></trkpt><trkpt lat="36.8374251" lon="10.163787"><ele>30.0</ele><time>2026-05-03T17:02:43.917Z</time></trkpt><trkpt lat="36.8374831" lon="10.1639034"><ele>30.0</ele><time>2026-05-03T17:02:44.927Z</time></trkpt><trkpt lat="36.8375414" lon="10.1640168"><ele>30.0</ele><time>2026-05-03T17:02:45.936Z</time></trkpt><trkpt lat="36.8376055" lon="10.1641339"><ele>30.0</ele><time>2026-05-03T17:02:46.921Z</time></trkpt><trkpt lat="36.8376708" lon="10.1642607"><ele>30.5</ele><time>2026-05-03T17:02:47.936Z</time></trkpt><trkpt lat="36.8377412" lon="10.1644025"><ele>31.0</ele><time>2026-05-03T17:02:48.931Z</time></trkpt><trkpt lat="36.8378146" lon="10.1645444"><ele>31.5</ele><time>2026-05-03T17:02:49.929Z</time></trkpt><trkpt lat="36.8378904" lon="10.1646904"><ele>32.0</ele><time>2026-05-03T17:02:50.926Z</time></trkpt><trkpt lat="36.8379718" lon="10.164839"><ele>31.5</ele><time>2026-05-03T17:02:51.933Z</time></trkpt><trkpt lat="36.8380535" lon="10.1649927"><ele>31.0</ele><time>2026-05-03T17:02:52.95Z</time></trkpt><trkpt lat="36.8381321" lon="10.1651397"><ele>30.5</ele><time>2026-05-03T17:02:53.918Z</time></trkpt><trkpt lat="36.8382162" lon="10.1652841"><ele>30.0</ele><time>2026-05-03T17:02:54.923Z</time></trkpt><trkpt lat="36.8383059" lon="10.1654352"><ele>30.0</ele><time>2026-05-03T17:02:55.925Z</time></trkpt><trkpt lat="36.8383908" lon="10.1655873"><ele>30.0</ele><time>2026-05-03T17:02:56.93Z</time></trkpt><trkpt lat="36.8384754" lon="10.1657434"><ele>30.0</ele><time>2026-05-03T17:02:57.932Z</time></trkpt><trkpt lat="36.8385619" lon="10.1659045"><ele>30.333333333333336</ele><time>2026-05-03T17:02:58.93Z</time></trkpt><trkpt lat="36.8386472" lon="10.1660771"><ele>30.666666666666668</ele><time>2026-05-03T17:02:59.931Z</time></trkpt><trkpt lat="36.8387425" lon="10.1662482"><ele>31.0</ele><time>2026-05-03T17:03:00.933Z</time></trkpt><trkpt lat="36.8388388" lon="10.1664339"><ele>30.333333333333336</ele><time>2026-05-03T17:03:01.917Z</time></trkpt><trkpt lat="36.8389502" lon="10.166643"><ele>29.666666666666664</ele><time>2026-05-03T17:03:02.924Z</time></trkpt><trkpt lat="36.8390642" lon="10.1668642"><ele>29.0</ele><time>2026-05-03T17:03:03.942Z</time></trkpt><trkpt lat="36.8391623" lon="10.1670626"><ele>29.0</ele><time>2026-05-03T17:03:04.922Z</time></trkpt><trkpt lat="36.8392556" lon="10.1672376"><ele>29.0</ele><time>2026-05-03T17:03:05.936Z</time></trkpt><trkpt lat="36.8393412" lon="10.1673895"><ele>29.0</ele><time>2026-05-03T17:03:06.926Z</time></trkpt><trkpt lat="36.8394245" lon="10.1675366"><ele>29.333333333333332</ele><time>2026-05-03T17:03:07.929Z</time></trkpt><trkpt lat="36.8395126" lon="10.167687"><ele>29.666666666666664</ele><time>2026-05-03T17:03:08.926Z</time></trkpt><trkpt lat="36.8395987" lon="10.1678404"><ele>30.0</ele><time>2026-05-03T17:03:09.924Z</time></trkpt><trkpt lat="36.8396903" lon="10.1679974"><ele>30.0</ele><time>2026-05-03T17:03:10.927Z</time></trkpt><trkpt lat="36.8397936" lon="10.1681634"><ele>30.0</ele><time>2026-05-03T17:03:11.926Z</time></trkpt><trkpt lat="36.8399011" lon="10.1683487"><ele>30.0</ele><time>2026-05-03T17:03:12.928Z</time></trkpt><trkpt lat="36.8400163" lon="10.1685387"><ele>30.0</ele><time>2026-05-03T17:03:13.937Z</time></trkpt><trkpt lat="36.8401287" lon="10.1687342"><ele>30.0</ele><time>2026-05-03T17:03:14.943Z</time></trkpt><trkpt lat="36.8402312" lon="10.1689265"><ele>30.0</ele><time>2026-05-03T17:03:15.927Z</time></trkpt><trkpt lat="36.8403268" lon="10.1691062"><ele>29.333333333333336</ele><time>2026-05-03T17:03:16.936Z</time></trkpt><trkpt lat="36.8404242" lon="10.1692763"><ele>28.666666666666668</ele><time>2026-05-03T17:03:17.921Z</time></trkpt><trkpt lat="36.8405108" lon="10.1694382"><ele>28.0</ele><time>2026-05-03T17:03:18.916Z</time></trkpt><trkpt lat="36.8405952" lon="10.1695986"><ele>28.0</ele><time>2026-05-03T17:03:19.934Z</time></trkpt><trkpt lat="36.8406768" lon="10.1697614"><ele>28.0</ele><time>2026-05-03T17:03:20.944Z</time></trkpt><trkpt lat="36.8407605" lon="10.1699253"><ele>28.0</ele><time>2026-05-03T17:03:21.941Z</time></trkpt><trkpt lat="36.8408487" lon="10.1700929"><ele>28.0</ele><time>2026-05-03T17:03:22.926Z</time></trkpt><trkpt lat="36.8409368" lon="10.1702623"><ele>28.0</ele><time>2026-05-03T17:03:23.946Z</time></trkpt><trkpt lat="36.8410265" lon="10.1704485"><ele>28.0</ele><time>2026-05-03T17:03:24.939Z</time></trkpt><trkpt lat="36.8411168" lon="10.1706329"><ele>27.666666666666668</ele><time>2026-05-03T17:03:25.928Z</time></trkpt><trkpt lat="36.8412057" lon="10.1708241"><ele>27.333333333333336</ele><time>2026-05-03T17:03:26.934Z</time></trkpt><trkpt lat="36.8412886" lon="10.1710142"><ele>27.0</ele><time>2026-05-03T17:03:27.932Z</time></trkpt><trkpt lat="36.8413766" lon="10.1712051"><ele>27.0</ele><time>2026-05-03T17:03:28.929Z</time></trkpt><trkpt lat="36.841465" lon="10.1713905"><ele>27.0</ele><time>2026-05-03T17:03:29.904Z</time></trkpt><trkpt lat="36.8415561" lon="10.1715687"><ele>27.0</ele><time>2026-05-03T17:03:30.929Z</time></trkpt><trkpt lat="36.8416539" lon="10.1717402"><ele>27.333333333333336</ele><time>2026-05-03T17:03:31.911Z</time></trkpt><trkpt lat="36.8417387" lon="10.1719152"><ele>27.666666666666668</ele><time>2026-05-03T17:03:32.93Z</time></trkpt><trkpt lat="36.8418211" lon="10.1720779"><ele>28.0</ele><time>2026-05-03T17:03:33.934Z</time></trkpt><trkpt lat="36.8419071" lon="10.1722396"><ele>27.666666666666668</ele><time>2026-05-03T17:03:34.917Z</time></trkpt><trkpt lat="36.8419896" lon="10.1724009"><ele>27.333333333333336</ele><time>2026-05-03T17:03:35.923Z</time></trkpt><trkpt lat="36.8420716" lon="10.1725576"><ele>27.0</ele><time>2026-05-03T17:03:36.93Z</time></trkpt><trkpt lat="36.8421616" lon="10.1727189"><ele>27.0</ele><time>2026-05-03T17:03:37.936Z</time></trkpt><trkpt lat="36.8422543" lon="10.1728813"><ele>27.0</ele><time>2026-05-03T17:03:38.941Z</time></trkpt><trkpt lat="36.8423412" lon="10.1730393"><ele>27.0</ele><time>2026-05-03T17:03:39.908Z</time></trkpt><trkpt lat="36.8424295" lon="10.1731935"><ele>27.5</ele><time>2026-05-03T17:03:40.952Z</time></trkpt><trkpt lat="36.8425078" lon="10.1733391"><ele>28.0</ele><time>2026-05-03T17:03:41.932Z</time></trkpt><trkpt lat="36.8425861" lon="10.1734884"><ele>28.5</ele><time>2026-05-03T17:03:42.937Z</time></trkpt><trkpt lat="36.8426765" lon="10.1736601"><ele>29.0</ele><time>2026-05-03T17:03:43.951Z</time></trkpt><trkpt lat="36.8427836" lon="10.1738624"><ele>29.333333333333332</ele><time>2026-05-03T17:03:44.929Z</time></trkpt><trkpt lat="36.8429053" lon="10.1740921"><ele>29.666666666666664</ele><time>2026-05-03T17:03:45.933Z</time></trkpt><trkpt lat="36.8430161" lon="10.1742989"><ele>30.0</ele><time>2026-05-03T17:03:46.926Z</time></trkpt><trkpt lat="36.8431119" lon="10.1744808"><ele>30.0</ele><time>2026-05-03T17:03:47.907Z</time></trkpt><trkpt lat="36.8431999" lon="10.1746504"><ele>30.0</ele><time>2026-05-03T17:03:48.925Z</time></trkpt><trkpt lat="36.8432856" lon="10.1748144"><ele>30.0</ele><time>2026-05-03T17:03:49.935Z</time></trkpt><trkpt lat="36.8433731" lon="10.174968"><ele>30.5</ele><time>2026-05-03T17:03:50.942Z</time></trkpt><trkpt lat="36.8434557" lon="10.175116"><ele>31.0</ele><time>2026-05-03T17:03:51.929Z</time></trkpt><trkpt lat="36.8435393" lon="10.175273"><ele>31.5</ele><time>2026-05-03T17:03:52.936Z</time></trkpt><trkpt lat="36.8436181" lon="10.1754288"><ele>32.0</ele><time>2026-05-03T17:03:53.945Z</time></trkpt><trkpt lat="36.8437017" lon="10.1755874"><ele>33.0</ele><time>2026-05-03T17:03:54.931Z</time></trkpt><trkpt lat="36.8437852" lon="10.1757549"><ele>34.0</ele><time>2026-05-03T17:03:55.925Z</time></trkpt><trkpt lat="36.8438666" lon="10.1759364"><ele>35.0</ele><time>2026-05-03T17:03:56.929Z</time></trkpt><trkpt lat="36.8439474" lon="10.176116"><ele>35.0</ele><time>2026-05-03T17:03:57.949Z</time></trkpt><trkpt lat="36.8440389" lon="10.176287"><ele>35.0</ele><time>2026-05-03T17:03:58.919Z</time></trkpt><trkpt lat="36.8441267" lon="10.1764522"><ele>35.0</ele><time>2026-05-03T17:03:59.943Z</time></trkpt><trkpt lat="36.8442114" lon="10.1766204"><ele>36.0</ele><time>2026-05-03T17:04:00.923Z</time></trkpt><trkpt lat="36.8442986" lon="10.1767905"><ele>37.0</ele><time>2026-05-03T17:04:01.939Z</time></trkpt><trkpt lat="36.8443872" lon="10.1769573"><ele>38.0</ele><time>2026-05-03T17:04:02.923Z</time></trkpt><trkpt lat="36.8444812" lon="10.1771257"><ele>38.0</ele><time>2026-05-03T17:04:03.929Z</time></trkpt><trkpt lat="36.8445669" lon="10.1772845"><ele>38.0</ele><time>2026-05-03T17:04:04.932Z</time></trkpt><trkpt lat="36.844652" lon="10.1774461"><ele>38.0</ele><time>2026-05-03T17:04:05.934Z</time></trkpt><trkpt lat="36.8447404" lon="10.1776079"><ele>38.33333333333333</ele><time>2026-05-03T17:04:06.932Z</time></trkpt><trkpt lat="36.8448282" lon="10.1777689"><ele>38.666666666666664</ele><time>2026-05-03T17:04:07.932Z</time></trkpt><trkpt lat="36.8449101" lon="10.1779278"><ele>39.0</ele><time>2026-05-03T17:04:08.931Z</time></trkpt><trkpt lat="36.8449939" lon="10.1780856"><ele>38.666666666666664</ele><time>2026-05-03T17:04:09.95Z</time></trkpt><trkpt lat="36.8450751" lon="10.178248"><ele>38.33333333333333</ele><time>2026-05-03T17:04:10.91Z</time></trkpt><trkpt lat="36.8451577" lon="10.1784092"><ele>38.0</ele><time>2026-05-03T17:04:11.901Z</time></trkpt><trkpt lat="36.8452436" lon="10.1785732"><ele>38.0</ele><time>2026-05-03T17:04:12.933Z</time></trkpt><trkpt lat="36.8453285" lon="10.178736"><ele>38.0</ele><time>2026-05-03T17:04:13.935Z</time></trkpt><trkpt lat="36.8454167" lon="10.178903"><ele>38.0</ele><time>2026-05-03T17:04:14.929Z</time></trkpt><trkpt lat="36.845502" lon="10.1790742"><ele>36.666666666666664</ele><time>2026-05-03T17:04:15.934Z</time></trkpt><trkpt lat="36.8455936" lon="10.1792431"><ele>35.333333333333336</ele><time>2026-05-03T17:04:16.912Z</time></trkpt><trkpt lat="36.8456888" lon="10.1794132"><ele>34.0</ele><time>2026-05-03T17:04:17.939Z</time></trkpt><trkpt lat="36.8457797" lon="10.1795815"><ele>34.0</ele><time>2026-05-03T17:04:18.938Z</time></trkpt><trkpt lat="36.8458695" lon="10.1797486"><ele>34.0</ele><time>2026-05-03T17:04:19.927Z</time></trkpt><trkpt lat="36.8459627" lon="10.1799141"><ele>34.0</ele><time>2026-05-03T17:04:20.906Z</time></trkpt><trkpt lat="36.8460569" lon="10.1800788"><ele>32.0</ele><time>2026-05-03T17:04:21.916Z</time></trkpt><trkpt lat="36.8461487" lon="10.1802418"><ele>30.0</ele><time>2026-05-03T17:04:22.923Z</time></trkpt><trkpt lat="36.8462423" lon="10.180409"><ele>28.0</ele><time>2026-05-03T17:04:23.925Z</time></trkpt><trkpt lat="36.8463329" lon="10.1805764"><ele>26.666666666666668</ele><time>2026-05-03T17:04:24.926Z</time></trkpt><trkpt lat="36.8464279" lon="10.1807467"><ele>25.333333333333336</ele><time>2026-05-03T17:04:25.93Z</time></trkpt><trkpt lat="36.8465227" lon="10.180912"><ele>24.0</ele><time>2026-05-03T17:04:26.923Z</time></trkpt><trkpt lat="36.8466146" lon="10.1810762"><ele>24.0</ele><time>2026-05-03T17:04:27.933Z</time></trkpt><trkpt lat="36.8467085" lon="10.1812468"><ele>24.0</ele><time>2026-05-03T17:04:28.928Z</time></trkpt><trkpt lat="36.8468013" lon="10.1814141"><ele>24.0</ele><time>2026-05-03T17:04:29.924Z</time></trkpt><trkpt lat="36.8468914" lon="10.1815778"><ele>23.0</ele><time>2026-05-03T17:04:30.933Z</time></trkpt><trkpt lat="36.8469822" lon="10.1817371"><ele>22.0</ele><time>2026-05-03T17:04:31.934Z</time></trkpt><trkpt lat="36.8470716" lon="10.1818953"><ele>21.0</ele><time>2026-05-03T17:04:32.916Z</time></trkpt><trkpt lat="36.8471656" lon="10.1820449"><ele>21.0</ele><time>2026-05-03T17:04:33.936Z</time></trkpt><trkpt lat="36.8472571" lon="10.1821927"><ele>21.0</ele><time>2026-05-03T17:04:34.925Z</time></trkpt><trkpt lat="36.8473444" lon="10.1823416"><ele>21.0</ele><time>2026-05-03T17:04:35.94Z</time></trkpt><trkpt lat="36.8474306" lon="10.1824827"><ele>21.0</ele><time>2026-05-03T17:04:36.925Z</time></trkpt><trkpt lat="36.8475176" lon="10.1826223"><ele>20.5</ele><time>2026-05-03T17:04:37.933Z</time></trkpt><trkpt lat="36.847606" lon="10.1827631"><ele>20.0</ele><time>2026-05-03T17:04:38.918Z</time></trkpt><trkpt lat="36.8476893" lon="10.1829059"><ele>19.5</ele><time>2026-05-03T17:04:39.911Z</time></trkpt><trkpt lat="36.8477713" lon="10.1830451"><ele>19.0</ele><time>2026-05-03T17:04:40.916Z</time></trkpt><trkpt lat="36.8478486" lon="10.1831865"><ele>18.0</ele><time>2026-05-03T17:04:41.942Z</time></trkpt><trkpt lat="36.8479284" lon="10.1833312"><ele>17.0</ele><time>2026-05-03T17:04:42.935Z</time></trkpt><trkpt lat="36.8480105" lon="10.1834764"><ele>16.0</ele><time>2026-05-03T17:04:43.931Z</time></trkpt><trkpt lat="36.848088" lon="10.1836244"><ele>15.0</ele><time>2026-05-03T17:04:44.933Z</time></trkpt><trkpt lat="36.8481665" lon="10.1837735"><ele>15.0</ele><time>2026-05-03T17:04:45.907Z</time></trkpt><trkpt lat="36.8482473" lon="10.1839285"><ele>15.0</ele><time>2026-05-03T17:04:46.939Z</time></trkpt><trkpt lat="36.8483238" lon="10.1840889"><ele>15.0</ele><time>2026-05-03T17:04:47.93Z</time></trkpt><trkpt lat="36.8484022" lon="10.1842546"><ele>15.0</ele><time>2026-05-03T17:04:48.934Z</time></trkpt><trkpt lat="36.8484792" lon="10.1844299"><ele>15.0</ele><time>2026-05-03T17:04:49.93Z</time></trkpt><trkpt lat="36.8485617" lon="10.1846088"><ele>15.0</ele><time>2026-05-03T17:04:50.925Z</time></trkpt><trkpt lat="36.8486387" lon="10.1847846"><ele>14.666666666666668</ele><time>2026-05-03T17:04:51.938Z</time></trkpt><trkpt lat="36.8487141" lon="10.1849598"><ele>14.333333333333334</ele><time>2026-05-03T17:04:52.917Z</time></trkpt><trkpt lat="36.8487851" lon="10.1851278"><ele>14.0</ele><time>2026-05-03T17:04:53.944Z</time></trkpt><trkpt lat="36.8488589" lon="10.1852966"><ele>14.0</ele><time>2026-05-03T17:04:54.912Z</time></trkpt><trkpt lat="36.8489331" lon="10.1854641"><ele>14.0</ele><time>2026-05-03T17:04:55.915Z</time></trkpt><trkpt lat="36.8490105" lon="10.1856363"><ele>14.0</ele><time>2026-05-03T17:04:56.911Z</time></trkpt><trkpt lat="36.8490901" lon="10.1858079"><ele>14.0</ele><time>2026-05-03T17:04:57.934Z</time></trkpt><trkpt lat="36.8491706" lon="10.1859719"><ele>14.0</ele><time>2026-05-03T17:04:58.935Z</time></trkpt><trkpt lat="36.8492504" lon="10.1861507"><ele>14.0</ele><time>2026-05-03T17:04:59.927Z</time></trkpt><trkpt lat="36.8493294" lon="10.1863316"><ele>13.666666666666668</ele><time>2026-05-03T17:05:00.936Z</time></trkpt><trkpt lat="36.8494148" lon="10.1865267"><ele>13.333333333333332</ele><time>2026-05-03T17:05:01.917Z</time></trkpt><trkpt lat="36.8495049" lon="10.1867326"><ele>13.0</ele><time>2026-05-03T17:05:02.924Z</time></trkpt><trkpt lat="36.8495946" lon="10.1869462"><ele>13.0</ele><time>2026-05-03T17:05:03.915Z</time></trkpt><trkpt lat="36.84968" lon="10.1871601"><ele>13.0</ele><time>2026-05-03T17:05:04.923Z</time></trkpt><trkpt lat="36.8497687" lon="10.1873634"><ele>13.0</ele><time>2026-05-03T17:05:05.927Z</time></trkpt><trkpt lat="36.849849" lon="10.1875765"><ele>13.0</ele><time>2026-05-03T17:05:06.917Z</time></trkpt><trkpt lat="36.8499238" lon="10.1877887"><ele>13.0</ele><time>2026-05-03T17:05:07.927Z</time></trkpt><trkpt lat="36.8499983" lon="10.1880018"><ele>13.0</ele><time>2026-05-03T17:05:08.934Z</time></trkpt><trkpt lat="36.8500701" lon="10.18821"><ele>14.333333333333332</ele><time>2026-05-03T17:05:09.93Z</time></trkpt><trkpt lat="36.8501375" lon="10.1884178"><ele>15.666666666666668</ele><time>2026-05-03T17:05:10.925Z</time></trkpt><trkpt lat="36.8502041" lon="10.1886239"><ele>17.0</ele><time>2026-05-03T17:05:11.929Z</time></trkpt><trkpt lat="36.8502654" lon="10.188833"><ele>15.666666666666668</ele><time>2026-05-03T17:05:12.914Z</time></trkpt><trkpt lat="36.8503272" lon="10.1890432"><ele>14.333333333333332</ele><time>2026-05-03T17:05:13.922Z</time></trkpt><trkpt lat="36.8503842" lon="10.1892504"><ele>13.0</ele><time>2026-05-03T17:05:14.937Z</time></trkpt><trkpt lat="36.8504421" lon="10.1894633"><ele>13.0</ele><time>2026-05-03T17:05:15.941Z</time></trkpt><trkpt lat="36.8504985" lon="10.189674"><ele>13.0</ele><time>2026-05-03T17:05:16.939Z</time></trkpt><trkpt lat="36.8505564" lon="10.1898867"><ele>13.0</ele><time>2026-05-03T17:05:17.95Z</time></trkpt><trkpt lat="36.8506071" lon="10.1901019"><ele>12.0</ele><time>2026-05-03T17:05:18.927Z</time></trkpt><trkpt lat="36.8506549" lon="10.1903203"><ele>11.0</ele><time>2026-05-03T17:05:19.933Z</time></trkpt><trkpt lat="36.8507024" lon="10.1905377"><ele>10.0</ele><time>2026-05-03T17:05:20.934Z</time></trkpt><trkpt lat="36.8507486" lon="10.1907633"><ele>9.666666666666668</ele><time>2026-05-03T17:05:21.936Z</time></trkpt><trkpt lat="36.8507857" lon="10.1909809"><ele>9.333333333333334</ele><time>2026-05-03T17:05:22.915Z</time></trkpt><trkpt lat="36.8508274" lon="10.1911951"><ele>9.0</ele><time>2026-05-03T17:05:23.906Z</time></trkpt><trkpt lat="36.8508642" lon="10.1914175"><ele>9.0</ele><time>2026-05-03T17:05:24.919Z</time></trkpt><trkpt lat="36.8509009" lon="10.1916343"><ele>9.0</ele><time>2026-05-03T17:05:25.899Z</time></trkpt><trkpt lat="36.8509333" lon="10.1918507"><ele>9.0</ele><time>2026-05-03T17:05:26.92Z</time></trkpt><trkpt lat="36.8509654" lon="10.1920682"><ele>9.666666666666666</ele><time>2026-05-03T17:05:27.923Z</time></trkpt><trkpt lat="36.8509897" lon="10.192295"><ele>10.333333333333332</ele><time>2026-05-03T17:05:28.927Z</time></trkpt><trkpt lat="36.8510155" lon="10.1925142"><ele>11.0</ele><time>2026-05-03T17:05:29.909Z</time></trkpt><trkpt lat="36.8510383" lon="10.1927374"><ele>11.0</ele><time>2026-05-03T17:05:30.92Z</time></trkpt><trkpt lat="36.8510592" lon="10.1929612"><ele>11.0</ele><time>2026-05-03T17:05:31.93Z</time></trkpt><trkpt lat="36.8510784" lon="10.1931883"><ele>11.0</ele><time>2026-05-03T17:05:32.928Z</time></trkpt><trkpt lat="36.8510949" lon="10.1934125"><ele>11.0</ele><time>2026-05-03T17:05:33.928Z</time></trkpt><trkpt lat="36.851112" lon="10.1936382"><ele>11.0</ele><time>2026-05-03T17:05:34.904Z</time></trkpt><trkpt lat="36.8511243" lon="10.193872"><ele>11.0</ele><time>2026-05-03T17:05:35.926Z</time></trkpt><trkpt lat="36.8511359" lon="10.194096"><ele>11.0</ele><time>2026-05-03T17:05:36.924Z</time></trkpt><trkpt lat="36.8511407" lon="10.1943135"><ele>11.0</ele><time>2026-05-03T17:05:37.928Z</time></trkpt><trkpt lat="36.8511447" lon="10.1945245"><ele>11.0</ele><time>2026-05-03T17:05:38.911Z</time></trkpt><trkpt lat="36.8511468" lon="10.1947362"><ele>11.0</ele><time>2026-05-03T17:05:39.931Z</time></trkpt><trkpt lat="36.8511457" lon="10.1949424"><ele>11.0</ele><time>2026-05-03T17:05:40.931Z</time></trkpt><trkpt lat="36.851143" lon="10.195146"><ele>11.0</ele><time>2026-05-03T17:05:41.915Z</time></trkpt><trkpt lat="36.8511418" lon="10.1953521"><ele>11.0</ele><time>2026-05-03T17:05:42.908Z</time></trkpt><trkpt lat="36.8511349" lon="10.1955535"><ele>11.0</ele><time>2026-05-03T17:05:43.899Z</time></trkpt><trkpt lat="36.8511231" lon="10.1957537"><ele>11.0</ele><time>2026-05-03T17:05:44.934Z</time></trkpt><trkpt lat="36.8511085" lon="10.1959603"><ele>11.666666666666666</ele><time>2026-05-03T17:05:45.928Z</time></trkpt><trkpt lat="36.8510948" lon="10.1961628"><ele>12.333333333333332</ele><time>2026-05-03T17:05:46.927Z</time></trkpt><trkpt lat="36.8510792" lon="10.1963615"><ele>13.0</ele><time>2026-05-03T17:05:47.927Z</time></trkpt><trkpt lat="36.851063" lon="10.1965638"><ele>11.666666666666666</ele><time>2026-05-03T17:05:48.919Z</time></trkpt><trkpt lat="36.8510468" lon="10.1967669"><ele>10.333333333333332</ele><time>2026-05-03T17:05:49.933Z</time></trkpt><trkpt lat="36.8510296" lon="10.1969648"><ele>9.0</ele><time>2026-05-03T17:05:50.928Z</time></trkpt><trkpt lat="36.8510062" lon="10.1971553"><ele>8.333333333333334</ele><time>2026-05-03T17:05:51.912Z</time></trkpt><trkpt lat="36.8509785" lon="10.1973467"><ele>7.666666666666667</ele><time>2026-05-03T17:05:52.901Z</time></trkpt><trkpt lat="36.8509557" lon="10.1975369"><ele>7.0</ele><time>2026-05-03T17:05:53.916Z</time></trkpt><trkpt lat="36.8509321" lon="10.1977322"><ele>7.0</ele><time>2026-05-03T17:05:54.918Z</time></trkpt><trkpt lat="36.8509094" lon="10.1979239"><ele>7.0</ele><time>2026-05-03T17:05:55.926Z</time></trkpt><trkpt lat="36.8508825" lon="10.1981132"><ele>7.0</ele><time>2026-05-03T17:05:56.926Z</time></trkpt><trkpt lat="36.8508488" lon="10.1983033"><ele>6.666666666666667</ele><time>2026-05-03T17:05:57.918Z</time></trkpt><trkpt lat="36.8508133" lon="10.1984884"><ele>6.333333333333334</ele><time>2026-05-03T17:05:58.919Z</time></trkpt><trkpt lat="36.8507759" lon="10.1986768"><ele>6.0</ele><time>2026-05-03T17:05:59.922Z</time></trkpt><trkpt lat="36.8507364" lon="10.1988569"><ele>6.0</ele><time>2026-05-03T17:06:00.907Z</time></trkpt><trkpt lat="36.8507031" lon="10.1990376"><ele>6.0</ele><time>2026-05-03T17:06:01.925Z</time></trkpt><trkpt lat="36.8506593" lon="10.1992165"><ele>6.0</ele><time>2026-05-03T17:06:02.908Z</time></trkpt><trkpt lat="36.8506096" lon="10.1993952"><ele>6.0</ele><time>2026-05-03T17:06:03.939Z</time></trkpt><trkpt lat="36.850556" lon="10.1995601"><ele>6.0</ele><time>2026-05-03T17:06:04.929Z</time></trkpt><trkpt lat="36.8505001" lon="10.1997045"><ele>6.0</ele><time>2026-05-03T17:06:05.92Z</time></trkpt><trkpt lat="36.8504386" lon="10.1998388"><ele>6.0</ele><time>2026-05-03T17:06:06.915Z</time></trkpt><trkpt lat="36.8503592" lon="10.1999544"><ele>6.0</ele><time>2026-05-03T17:06:07.904Z</time></trkpt><trkpt lat="36.8502773" lon="10.2000741"><ele>5.5</ele><time>2026-05-03T17:06:08.908Z</time></trkpt><trkpt lat="36.85018" lon="10.2001794"><ele>5.0</ele><time>2026-05-03T17:06:09.909Z</time></trkpt><trkpt lat="36.8500697" lon="10.2002867"><ele>4.5</ele><time>2026-05-03T17:06:10.92Z</time></trkpt><trkpt lat="36.8499507" lon="10.200391"><ele>4.0</ele><time>2026-05-03T17:06:11.924Z</time></trkpt><trkpt lat="36.8498239" lon="10.200496"><ele>3.6666666666666665</ele><time>2026-05-03T17:06:12.913Z</time></trkpt><trkpt lat="36.8496928" lon="10.2006113"><ele>3.333333333333333</ele><time>2026-05-03T17:06:13.912Z</time></trkpt><trkpt lat="36.8495596" lon="10.2007215"><ele>3.0</ele><time>2026-05-03T17:06:14.916Z</time></trkpt><trkpt lat="36.8494362" lon="10.20083"><ele>3.5</ele><time>2026-05-03T17:06:15.931Z</time></trkpt><trkpt lat="36.8493094" lon="10.2009326"><ele>4.0</ele><time>2026-05-03T17:06:16.931Z</time></trkpt><trkpt lat="36.8491829" lon="10.2010376"><ele>4.5</ele><time>2026-05-03T17:06:17.93Z</time></trkpt><trkpt lat="36.8490717" lon="10.2011447"><ele>5.0</ele><time>2026-05-03T17:06:18.924Z</time></trkpt><trkpt lat="36.8489814" lon="10.201265"><ele>5.2</ele><time>2026-05-03T17:06:19.936Z</time></trkpt><trkpt lat="36.8489159" lon="10.201387"><ele>5.4</ele><time>2026-05-03T17:06:20.917Z</time></trkpt><trkpt lat="36.8488714" lon="10.2015096"><ele>5.6</ele><time>2026-05-03T17:06:21.934Z</time></trkpt><trkpt lat="36.8488463" lon="10.2016347"><ele>5.8</ele><time>2026-05-03T17:06:22.932Z</time></trkpt><trkpt lat="36.8488336" lon="10.2017618"><ele>6.0</ele><time>2026-05-03T17:06:23.902Z</time></trkpt><trkpt lat="36.8488474" lon="10.2018837"><ele>5.3999999999999995</ele><time>2026-05-03T17:06:24.919Z</time></trkpt><trkpt lat="36.8488671" lon="10.2020113"><ele>4.8</ele><time>2026-05-03T17:06:25.917Z</time></trkpt><trkpt lat="36.8489014" lon="10.2021262"><ele>4.199999999999999</ele><time>2026-05-03T17:06:26.927Z</time></trkpt><trkpt lat="36.8489526" lon="10.2022448"><ele>3.5999999999999996</ele><time>2026-05-03T17:06:27.931Z</time></trkpt><trkpt lat="36.8490157" lon="10.2023536"><ele>3.0</ele><time>2026-05-03T17:06:28.92Z</time></trkpt><trkpt lat="36.8490883" lon="10.2024658"><ele>3.0</ele><time>2026-05-03T17:06:29.917Z</time></trkpt><trkpt lat="36.8491589" lon="10.2025763"><ele>3.0</ele><time>2026-05-03T17:06:30.909Z</time></trkpt><trkpt lat="36.8492318" lon="10.2026862"><ele>3.0</ele><time>2026-05-03T17:06:31.929Z</time></trkpt><trkpt lat="36.8492973" lon="10.2027956"><ele>3.0</ele><time>2026-05-03T17:06:32.943Z</time></trkpt><trkpt lat="36.8493649" lon="10.2029071"><ele>3.0</ele><time>2026-05-03T17:06:33.939Z</time></trkpt><trkpt lat="36.8494354" lon="10.2030125"><ele>3.5</ele><time>2026-05-03T17:06:34.912Z</time></trkpt><trkpt lat="36.8495167" lon="10.203118"><ele>4.0</ele><time>2026-05-03T17:06:35.921Z</time></trkpt><trkpt lat="36.8495991" lon="10.203221"><ele>4.5</ele><time>2026-05-03T17:06:36.917Z</time></trkpt><trkpt lat="36.8496903" lon="10.2033134"><ele>5.0</ele><time>2026-05-03T17:06:37.918Z</time></trkpt><trkpt lat="36.8497983" lon="10.2033971"><ele>5.5</ele><time>2026-05-03T17:06:38.908Z</time></trkpt><trkpt lat="36.8499143" lon="10.2034639"><ele>6.0</ele><time>2026-05-03T17:06:39.92Z</time></trkpt><trkpt lat="36.8500414" lon="10.2035104"><ele>6.5</ele><time>2026-05-03T17:06:40.918Z</time></trkpt><trkpt lat="36.8501655" lon="10.203559"><ele>7.0</ele><time>2026-05-03T17:06:41.913Z</time></trkpt><trkpt lat="36.850297" lon="10.2035703"><ele>7.0</ele><time>2026-05-03T17:06:42.917Z</time></trkpt><trkpt lat="36.8504253" lon="10.2035471"><ele>7.0</ele><time>2026-05-03T17:06:43.918Z</time></trkpt><trkpt lat="36.8505338" lon="10.2034915"><ele>7.0</ele><time>2026-05-03T17:06:44.913Z</time></trkpt><trkpt lat="36.8506354" lon="10.2034193"><ele>7.0</ele><time>2026-05-03T17:06:45.91Z</time></trkpt><trkpt lat="36.8507249" lon="10.2033105"><ele>7.0</ele><time>2026-05-03T17:06:46.944Z</time></trkpt><trkpt lat="36.8508086" lon="10.2031984"><ele>7.0</ele><time>2026-05-03T17:06:47.911Z</time></trkpt><trkpt lat="36.8508799" lon="10.2030711"><ele>7.0</ele><time>2026-05-03T17:06:48.911Z</time></trkpt><trkpt lat="36.8509459" lon="10.2029463"><ele>7.0</ele><time>2026-05-03T17:06:49.919Z</time></trkpt><trkpt lat="36.8510222" lon="10.2028289"><ele>6.5</ele><time>2026-05-03T17:06:50.911Z</time></trkpt><trkpt lat="36.85111" lon="10.2027264"><ele>6.0</ele><time>2026-05-03T17:06:51.909Z</time></trkpt><trkpt lat="36.8512047" lon="10.2026525"><ele>5.5</ele><time>2026-05-03T17:06:52.92Z</time></trkpt><trkpt lat="36.851317" lon="10.2026043"><ele>5.0</ele><time>2026-05-03T17:06:53.916Z</time></trkpt><trkpt lat="36.8514224" lon="10.2025685"><ele>5.0</ele><time>2026-05-03T17:06:54.928Z</time></trkpt><trkpt lat="36.8515379" lon="10.2025502"><ele>5.0</ele><time>2026-05-03T17:06:55.903Z</time></trkpt><trkpt lat="36.851669" lon="10.2025385"><ele>5.0</ele><time>2026-05-03T17:06:56.911Z</time></trkpt><trkpt lat="36.8518102" lon="10.202526"><ele>5.0</ele><time>2026-05-03T17:06:57.931Z</time></trkpt><trkpt lat="36.8519666" lon="10.2025141"><ele>5.333333333333334</ele><time>2026-05-03T17:06:58.913Z</time></trkpt><trkpt lat="36.8521331" lon="10.2025044"><ele>5.666666666666667</ele><time>2026-05-03T17:06:59.908Z</time></trkpt><trkpt lat="36.8523097" lon="10.202499"><ele>6.0</ele><time>2026-05-03T17:07:00.936Z</time></trkpt><trkpt lat="36.8525016" lon="10.2024901"><ele>5.666666666666667</ele><time>2026-05-03T17:07:01.933Z</time></trkpt><trkpt lat="36.8527131" lon="10.2024928"><ele>5.333333333333334</ele><time>2026-05-03T17:07:02.922Z</time></trkpt><trkpt lat="36.852943" lon="10.2024918"><ele>5.0</ele><time>2026-05-03T17:07:03.918Z</time></trkpt><trkpt lat="36.8531875" lon="10.2024944"><ele>6.5</ele><time>2026-05-03T17:07:04.926Z</time></trkpt><trkpt lat="36.8534561" lon="10.2025053"><ele>8.0</ele><time>2026-05-03T17:07:05.91Z</time></trkpt><trkpt lat="36.8537509" lon="10.2025344"><ele>8.0</ele><time>2026-05-03T17:07:06.926Z</time></trkpt><trkpt lat="36.8540289" lon="10.2025692"><ele>8.0</ele><time>2026-05-03T17:07:07.939Z</time></trkpt><trkpt lat="36.8543015" lon="10.202597"><ele>8.0</ele><time>2026-05-03T17:07:08.926Z</time></trkpt><trkpt lat="36.8545768" lon="10.202624"><ele>8.0</ele><time>2026-05-03T17:07:09.924Z</time></trkpt><trkpt lat="36.854841" lon="10.202646"><ele>8.0</ele><time>2026-05-03T17:07:10.925Z</time></trkpt><trkpt lat="36.8550953" lon="10.202667"><ele>8.0</ele><time>2026-05-03T17:07:11.94Z</time></trkpt><trkpt lat="36.8553409" lon="10.2026778"><ele>8.0</ele><time>2026-05-03T17:07:12.924Z</time></trkpt><trkpt lat="36.855567" lon="10.2026881"><ele>8.0</ele><time>2026-05-03T17:07:13.933Z</time></trkpt><trkpt lat="36.8557891" lon="10.2027042"><ele>8.0</ele><time>2026-05-03T17:07:14.924Z</time></trkpt><trkpt lat="36.8560083" lon="10.2027169"><ele>8.0</ele><time>2026-05-03T17:07:15.929Z</time></trkpt><trkpt lat="36.8562202" lon="10.202723"><ele>8.0</ele><time>2026-05-03T17:07:16.942Z</time></trkpt><trkpt lat="36.8564437" lon="10.2027257"><ele>8.0</ele><time>2026-05-03T17:07:17.943Z</time></trkpt><trkpt lat="36.8566774" lon="10.202739"><ele>7.0</ele><time>2026-05-03T17:07:18.941Z</time></trkpt><trkpt lat="36.856927" lon="10.2027506"><ele>6.0</ele><time>2026-05-03T17:07:19.909Z</time></trkpt><trkpt lat="36.8571941" lon="10.2027666"><ele>6.0</ele><time>2026-05-03T17:07:20.933Z</time></trkpt><trkpt lat="36.8574677" lon="10.202774"><ele>6.0</ele><time>2026-05-03T17:07:21.951Z</time></trkpt><trkpt lat="36.857741" lon="10.2027826"><ele>6.0</ele><time>2026-05-03T17:07:22.943Z</time></trkpt><trkpt lat="36.858007" lon="10.2027942"><ele>6.0</ele><time>2026-05-03T17:07:23.928Z</time></trkpt><trkpt lat="36.8582662" lon="10.2028078"><ele>6.5</ele><time>2026-05-03T17:07:24.898Z</time></trkpt><trkpt lat="36.8585161" lon="10.2028139"><ele>7.0</ele><time>2026-05-03T17:07:25.928Z</time></trkpt><trkpt lat="36.8587658" lon="10.2028163"><ele>7.0</ele><time>2026-05-03T17:07:26.923Z</time></trkpt><trkpt lat="36.8590107" lon="10.2028095"><ele>7.0</ele><time>2026-05-03T17:07:27.933Z</time></trkpt><trkpt lat="36.8592557" lon="10.2027989"><ele>7.0</ele><time>2026-05-03T17:07:28.907Z</time></trkpt><trkpt lat="36.8594933" lon="10.2027843"><ele>7.0</ele><time>2026-05-03T17:07:29.929Z</time></trkpt><trkpt lat="36.859724" lon="10.2027577"><ele>7.0</ele><time>2026-05-03T17:07:30.92Z</time></trkpt><trkpt lat="36.8599384" lon="10.2027234"><ele>7.0</ele><time>2026-05-03T17:07:31.941Z</time></trkpt><trkpt lat="36.8601462" lon="10.2026793"><ele>7.0</ele><time>2026-05-03T17:07:32.914Z</time></trkpt><trkpt lat="36.8603616" lon="10.2026353"><ele>7.333333333333334</ele><time>2026-05-03T17:07:33.935Z</time></trkpt><trkpt lat="36.8605689" lon="10.2025826"><ele>7.666666666666666</ele><time>2026-05-03T17:07:34.93Z</time></trkpt><trkpt lat="36.8607828" lon="10.2025234"><ele>8.0</ele><time>2026-05-03T17:07:35.948Z</time></trkpt><trkpt lat="36.8609986" lon="10.2024528"><ele>8.0</ele><time>2026-05-03T17:07:36.9Z</time></trkpt><trkpt lat="36.8612192" lon="10.2023775"><ele>8.0</ele><time>2026-05-03T17:07:37.927Z</time></trkpt><trkpt lat="36.8614408" lon="10.2022962"><ele>8.0</ele><time>2026-05-03T17:07:38.942Z</time></trkpt><trkpt lat="36.8616588" lon="10.2022047"><ele>8.0</ele><time>2026-05-03T17:07:39.933Z</time></trkpt><trkpt lat="36.8618761" lon="10.2021184"><ele>7.0</ele><time>2026-05-03T17:07:40.917Z</time></trkpt><trkpt lat="36.8620962" lon="10.2020231"><ele>6.0</ele><time>2026-05-03T17:07:41.914Z</time></trkpt><trkpt lat="36.8623072" lon="10.201926"><ele>6.0</ele><time>2026-05-03T17:07:42.94Z</time></trkpt><trkpt lat="36.8625107" lon="10.2018115"><ele>6.0</ele><time>2026-05-03T17:07:43.921Z</time></trkpt><trkpt lat="36.8627147" lon="10.2016989"><ele>6.0</ele><time>2026-05-03T17:07:44.916Z</time></trkpt><trkpt lat="36.8629116" lon="10.2015817"><ele>5.666666666666667</ele><time>2026-05-03T17:07:45.906Z</time></trkpt><trkpt lat="36.8631055" lon="10.2014579"><ele>5.333333333333334</ele><time>2026-05-03T17:07:46.937Z</time></trkpt><trkpt lat="36.8632892" lon="10.2013289"><ele>5.0</ele><time>2026-05-03T17:07:47.936Z</time></trkpt><trkpt lat="36.8634714" lon="10.2011974"><ele>5.0</ele><time>2026-05-03T17:07:48.938Z</time></trkpt><trkpt lat="36.8636472" lon="10.2010642"><ele>5.0</ele><time>2026-05-03T17:07:49.926Z</time></trkpt><trkpt lat="36.8638171" lon="10.2009341"><ele>5.0</ele><time>2026-05-03T17:07:50.937Z</time></trkpt><trkpt lat="36.8639751" lon="10.2007965"><ele>5.666666666666667</ele><time>2026-05-03T17:07:51.904Z</time></trkpt><trkpt lat="36.864132" lon="10.2006593"><ele>6.333333333333334</ele><time>2026-05-03T17:07:52.937Z</time></trkpt><trkpt lat="36.8642866" lon="10.2005129"><ele>7.0</ele><time>2026-05-03T17:07:53.9Z</time></trkpt><trkpt lat="36.8644436" lon="10.2003732"><ele>7.0</ele><time>2026-05-03T17:07:54.933Z</time></trkpt><trkpt lat="36.8645928" lon="10.2002243"><ele>7.0</ele><time>2026-05-03T17:07:55.932Z</time></trkpt><trkpt lat="36.8647412" lon="10.2000658"><ele>7.0</ele><time>2026-05-03T17:07:56.921Z</time></trkpt><trkpt lat="36.8648767" lon="10.1999111"><ele>7.333333333333334</ele><time>2026-05-03T17:07:57.927Z</time></trkpt><trkpt lat="36.8650036" lon="10.1997517"><ele>7.666666666666666</ele><time>2026-05-03T17:07:58.924Z</time></trkpt><trkpt lat="36.8651248" lon="10.199586"><ele>8.0</ele><time>2026-05-03T17:07:59.904Z</time></trkpt><trkpt lat="36.8652443" lon="10.199415"><ele>7.666666666666666</ele><time>2026-05-03T17:08:00.908Z</time></trkpt><trkpt lat="36.8653727" lon="10.199231"><ele>7.333333333333334</ele><time>2026-05-03T17:08:01.935Z</time></trkpt><trkpt lat="36.8655066" lon="10.199047"><ele>7.0</ele><time>2026-05-03T17:08:02.916Z</time></trkpt><trkpt lat="36.8656355" lon="10.1988676"><ele>7.0</ele><time>2026-05-03T17:08:03.937Z</time></trkpt><trkpt lat="36.8657608" lon="10.1986959"><ele>7.0</ele><time>2026-05-03T17:08:04.935Z</time></trkpt><trkpt lat="36.8658884" lon="10.1985249"><ele>7.0</ele><time>2026-05-03T17:08:05.908Z</time></trkpt><trkpt lat="36.8660122" lon="10.1983478"><ele>7.0</ele><time>2026-05-03T17:08:06.896Z</time></trkpt><trkpt lat="36.8661335" lon="10.1981727"><ele>7.0</ele><time>2026-05-03T17:08:07.94Z</time></trkpt><trkpt lat="36.8662556" lon="10.1979962"><ele>7.0</ele><time>2026-05-03T17:08:08.931Z</time></trkpt><trkpt lat="36.8663849" lon="10.1978218"><ele>7.666666666666667</ele><time>2026-05-03T17:08:09.913Z</time></trkpt><trkpt lat="36.8665328" lon="10.197633"><ele>8.333333333333334</ele><time>2026-05-03T17:08:10.903Z</time></trkpt><trkpt lat="36.8667013" lon="10.1974248"><ele>9.0</ele><time>2026-05-03T17:08:11.929Z</time></trkpt><trkpt lat="36.8668767" lon="10.1971946"><ele>9.0</ele><time>2026-05-03T17:08:12.923Z</time></trkpt><trkpt lat="36.8670513" lon="10.1969608"><ele>9.0</ele><time>2026-05-03T17:08:13.921Z</time></trkpt><trkpt lat="36.8672089" lon="10.1967414"><ele>9.0</ele><time>2026-05-03T17:08:14.917Z</time></trkpt><trkpt lat="36.8673504" lon="10.1965404"><ele>9.0</ele><time>2026-05-03T17:08:15.921Z</time></trkpt><trkpt lat="36.8674835" lon="10.1963416"><ele>9.0</ele><time>2026-05-03T17:08:16.923Z</time></trkpt><trkpt lat="36.8676219" lon="10.1961354"><ele>9.0</ele><time>2026-05-03T17:08:17.93Z</time></trkpt><trkpt lat="36.8677636" lon="10.1959357"><ele>9.0</ele><time>2026-05-03T17:08:18.914Z</time></trkpt><trkpt lat="36.8679016" lon="10.1957389"><ele>9.0</ele><time>2026-05-03T17:08:19.928Z</time></trkpt><trkpt lat="36.8680396" lon="10.1955555"><ele>9.333333333333334</ele><time>2026-05-03T17:08:20.928Z</time></trkpt><trkpt lat="36.8681744" lon="10.1953673"><ele>9.666666666666668</ele><time>2026-05-03T17:08:21.923Z</time></trkpt><trkpt lat="36.8683144" lon="10.1951719"><ele>10.0</ele><time>2026-05-03T17:08:22.932Z</time></trkpt><trkpt lat="36.8684536" lon="10.1949735"><ele>9.333333333333334</ele><time>2026-05-03T17:08:23.93Z</time></trkpt><trkpt lat="36.8685949" lon="10.1947741"><ele>8.666666666666666</ele><time>2026-05-03T17:08:24.927Z</time></trkpt><trkpt lat="36.868732" lon="10.1945756"><ele>8.0</ele><time>2026-05-03T17:08:25.931Z</time></trkpt><trkpt lat="36.8688667" lon="10.1943764"><ele>8.0</ele><time>2026-05-03T17:08:26.914Z</time></trkpt><trkpt lat="36.8690028" lon="10.1941745"><ele>8.0</ele><time>2026-05-03T17:08:27.906Z</time></trkpt><trkpt lat="36.8691402" lon="10.1939651"><ele>8.0</ele><time>2026-05-03T17:08:28.918Z</time></trkpt><trkpt lat="36.8692809" lon="10.1937571"><ele>8.0</ele><time>2026-05-03T17:08:29.924Z</time></trkpt><trkpt lat="36.8694113" lon="10.193564"><ele>8.0</ele><time>2026-05-03T17:08:30.953Z</time></trkpt><trkpt lat="36.8695419" lon="10.1933709"><ele>8.0</ele><time>2026-05-03T17:08:31.938Z</time></trkpt><trkpt lat="36.8696701" lon="10.1931747"><ele>8.0</ele><time>2026-05-03T17:08:32.932Z</time></trkpt><trkpt lat="36.8698001" lon="10.1929809"><ele>8.0</ele><time>2026-05-03T17:08:33.932Z</time></trkpt><trkpt lat="36.8699355" lon="10.1927893"><ele>8.0</ele><time>2026-05-03T17:08:34.938Z</time></trkpt><trkpt lat="36.8700725" lon="10.1925865"><ele>8.0</ele><time>2026-05-03T17:08:35.945Z</time></trkpt><trkpt lat="36.8702198" lon="10.1923857"><ele>8.0</ele><time>2026-05-03T17:08:36.934Z</time></trkpt><trkpt lat="36.8703542" lon="10.1921899"><ele>8.0</ele><time>2026-05-03T17:08:37.924Z</time></trkpt><trkpt lat="36.8704801" lon="10.192"><ele>7.666666666666666</ele><time>2026-05-03T17:08:38.932Z</time></trkpt><trkpt lat="36.870611" lon="10.1918151"><ele>7.333333333333334</ele><time>2026-05-03T17:08:39.94Z</time></trkpt><trkpt lat="36.870743" lon="10.1916291"><ele>7.0</ele><time>2026-05-03T17:08:40.945Z</time></trkpt><trkpt lat="36.870875" lon="10.1914414"><ele>6.666666666666667</ele><time>2026-05-03T17:08:41.923Z</time></trkpt><trkpt lat="36.871015" lon="10.1912446"><ele>6.333333333333334</ele><time>2026-05-03T17:08:42.917Z</time></trkpt><trkpt lat="36.8711538" lon="10.1910475"><ele>6.0</ele><time>2026-05-03T17:08:43.903Z</time></trkpt><trkpt lat="36.8712953" lon="10.1908474"><ele>6.666666666666666</ele><time>2026-05-03T17:08:44.924Z</time></trkpt><trkpt lat="36.8714324" lon="10.1906533"><ele>7.333333333333333</ele><time>2026-05-03T17:08:45.918Z</time></trkpt><trkpt lat="36.8715674" lon="10.1904602"><ele>8.0</ele><time>2026-05-03T17:08:46.931Z</time></trkpt><trkpt lat="36.8717068" lon="10.1902595"><ele>8.0</ele><time>2026-05-03T17:08:47.913Z</time></trkpt><trkpt lat="36.8718568" lon="10.1900544"><ele>8.0</ele><time>2026-05-03T17:08:48.936Z</time></trkpt><trkpt lat="36.8720016" lon="10.1898479"><ele>8.0</ele><time>2026-05-03T17:08:49.938Z</time></trkpt><trkpt lat="36.8721551" lon="10.1896325"><ele>8.5</ele><time>2026-05-03T17:08:50.943Z</time></trkpt><trkpt lat="36.8723083" lon="10.1894123"><ele>9.0</ele><time>2026-05-03T17:08:51.942Z</time></trkpt><trkpt lat="36.8724591" lon="10.1891942"><ele>8.5</ele><time>2026-05-03T17:08:52.937Z</time></trkpt><trkpt lat="36.8726105" lon="10.1889746"><ele>8.0</ele><time>2026-05-03T17:08:53.926Z</time></trkpt><trkpt lat="36.8727642" lon="10.18875"><ele>8.0</ele><time>2026-05-03T17:08:54.942Z</time></trkpt><trkpt lat="36.8729133" lon="10.1885294"><ele>8.0</ele><time>2026-05-03T17:08:55.937Z</time></trkpt><trkpt lat="36.8730619" lon="10.188312"><ele>8.0</ele><time>2026-05-03T17:08:56.914Z</time></trkpt><trkpt lat="36.8732094" lon="10.1881001"><ele>8.0</ele><time>2026-05-03T17:08:57.92Z</time></trkpt><trkpt lat="36.8733525" lon="10.1878934"><ele>8.0</ele><time>2026-05-03T17:08:58.928Z</time></trkpt><trkpt lat="36.8734963" lon="10.1876908"><ele>8.0</ele><time>2026-05-03T17:08:59.929Z</time></trkpt><trkpt lat="36.8736393" lon="10.1874881"><ele>8.0</ele><time>2026-05-03T17:09:00.932Z</time></trkpt><trkpt lat="36.8737836" lon="10.1872803"><ele>8.0</ele><time>2026-05-03T17:09:01.927Z</time></trkpt><trkpt lat="36.8739269" lon="10.1870759"><ele>8.333333333333332</ele><time>2026-05-03T17:09:02.923Z</time></trkpt><trkpt lat="36.8740658" lon="10.1868752"><ele>8.666666666666666</ele><time>2026-05-03T17:09:03.934Z</time></trkpt><trkpt lat="36.8742032" lon="10.1866686"><ele>9.0</ele><time>2026-05-03T17:09:04.931Z</time></trkpt><trkpt lat="36.8743399" lon="10.1864651"><ele>9.0</ele><time>2026-05-03T17:09:05.94Z</time></trkpt><trkpt lat="36.8744754" lon="10.1862709"><ele>9.0</ele><time>2026-05-03T17:09:06.924Z</time></trkpt><trkpt lat="36.8746059" lon="10.1860766"><ele>9.0</ele><time>2026-05-03T17:09:07.93Z</time></trkpt><trkpt lat="36.8747349" lon="10.1858788"><ele>9.0</ele><time>2026-05-03T17:09:08.923Z</time></trkpt><trkpt lat="36.8748708" lon="10.185671"><ele>9.0</ele><time>2026-05-03T17:09:09.94Z</time></trkpt><trkpt lat="36.875009" lon="10.185462"><ele>9.0</ele><time>2026-05-03T17:09:10.914Z</time></trkpt><trkpt lat="36.8751535" lon="10.1852499"><ele>9.5</ele><time>2026-05-03T17:09:11.925Z</time></trkpt><trkpt lat="36.8752995" lon="10.1850311"><ele>10.0</ele><time>2026-05-03T17:09:12.936Z</time></trkpt><trkpt lat="36.8754405" lon="10.1848167"><ele>10.0</ele><time>2026-05-03T17:09:13.925Z</time></trkpt><trkpt lat="36.8755804" lon="10.1846041"><ele>10.0</ele><time>2026-05-03T17:09:14.93Z</time></trkpt><trkpt lat="36.8757181" lon="10.1843968"><ele>10.0</ele><time>2026-05-03T17:09:15.906Z</time></trkpt><trkpt lat="36.8758553" lon="10.1841942"><ele>10.0</ele><time>2026-05-03T17:09:16.919Z</time></trkpt><trkpt lat="36.8759863" lon="10.1839935"><ele>10.0</ele><time>2026-05-03T17:09:17.938Z</time></trkpt><trkpt lat="36.8761152" lon="10.1838005"><ele>10.0</ele><time>2026-05-03T17:09:18.94Z</time></trkpt><trkpt lat="36.8762369" lon="10.1836148"><ele>10.0</ele><time>2026-05-03T17:09:19.934Z</time></trkpt><trkpt lat="36.8763555" lon="10.1834371"><ele>10.0</ele><time>2026-05-03T17:09:20.928Z</time></trkpt><trkpt lat="36.8764752" lon="10.183268"><ele>10.0</ele><time>2026-05-03T17:09:21.931Z</time></trkpt><trkpt lat="36.8765877" lon="10.1830992"><ele>10.0</ele><time>2026-05-03T17:09:22.935Z</time></trkpt><trkpt lat="36.8766942" lon="10.1829328"><ele>10.0</ele><time>2026-05-03T17:09:23.947Z</time></trkpt><trkpt lat="36.8768058" lon="10.1827673"><ele>10.0</ele><time>2026-05-03T17:09:24.932Z</time></trkpt><trkpt lat="36.8769191" lon="10.1825987"><ele>9.666666666666668</ele><time>2026-05-03T17:09:25.926Z</time></trkpt><trkpt lat="36.8770313" lon="10.1824273"><ele>9.333333333333334</ele><time>2026-05-03T17:09:26.957Z</time></trkpt><trkpt lat="36.8771459" lon="10.182254"><ele>9.0</ele><time>2026-05-03T17:09:27.907Z</time></trkpt><trkpt lat="36.8772661" lon="10.1820786"><ele>9.0</ele><time>2026-05-03T17:09:28.907Z</time></trkpt><trkpt lat="36.8773855" lon="10.1818953"><ele>9.0</ele><time>2026-05-03T17:09:29.92Z</time></trkpt><trkpt lat="36.8775095" lon="10.1817103"><ele>9.0</ele><time>2026-05-03T17:09:30.937Z</time></trkpt><trkpt lat="36.8776337" lon="10.1815219"><ele>9.0</ele><time>2026-05-03T17:09:31.928Z</time></trkpt><trkpt lat="36.8777632" lon="10.1813274"><ele>9.0</ele><time>2026-05-03T17:09:32.935Z</time></trkpt><trkpt lat="36.8778969" lon="10.1811226"><ele>9.0</ele><time>2026-05-03T17:09:33.919Z</time></trkpt><trkpt lat="36.8780436" lon="10.1809041"><ele>10.5</ele><time>2026-05-03T17:09:34.915Z</time></trkpt><trkpt lat="36.878194" lon="10.1806736"><ele>12.0</ele><time>2026-05-03T17:09:35.936Z</time></trkpt><trkpt lat="36.8783501" lon="10.1804374"><ele>12.0</ele><time>2026-05-03T17:09:36.924Z</time></trkpt><trkpt lat="36.8785044" lon="10.1802018"><ele>12.0</ele><time>2026-05-03T17:09:37.946Z</time></trkpt><trkpt lat="36.8786603" lon="10.1799687"><ele>13.5</ele><time>2026-05-03T17:09:38.925Z</time></trkpt><trkpt lat="36.878816" lon="10.1797398"><ele>15.0</ele><time>2026-05-03T17:09:39.935Z</time></trkpt><trkpt lat="36.8789676" lon="10.1795166"><ele>15.0</ele><time>2026-05-03T17:09:40.92Z</time></trkpt><trkpt lat="36.8791153" lon="10.1792917"><ele>15.0</ele><time>2026-05-03T17:09:41.924Z</time></trkpt><trkpt lat="36.879261" lon="10.1790655"><ele>14.5</ele><time>2026-05-03T17:09:42.939Z</time></trkpt><trkpt lat="36.8794122" lon="10.178846"><ele>14.0</ele><time>2026-05-03T17:09:43.928Z</time></trkpt><trkpt lat="36.8795595" lon="10.1786246"><ele>14.0</ele><time>2026-05-03T17:09:44.921Z</time></trkpt><trkpt lat="36.8797053" lon="10.1784044"><ele>14.0</ele><time>2026-05-03T17:09:45.924Z</time></trkpt><trkpt lat="36.8798544" lon="10.1781917"><ele>14.333333333333334</ele><time>2026-05-03T17:09:46.928Z</time></trkpt><trkpt lat="36.8800017" lon="10.1779843"><ele>14.666666666666668</ele><time>2026-05-03T17:09:47.929Z</time></trkpt><trkpt lat="36.8801429" lon="10.1777735"><ele>15.0</ele><time>2026-05-03T17:09:48.931Z</time></trkpt><trkpt lat="36.8802786" lon="10.177569"><ele>15.0</ele><time>2026-05-03T17:09:49.926Z</time></trkpt><trkpt lat="36.8804105" lon="10.1773726"><ele>15.0</ele><time>2026-05-03T17:09:50.915Z</time></trkpt><trkpt lat="36.8805343" lon="10.1771913"><ele>15.0</ele><time>2026-05-03T17:09:51.935Z</time></trkpt><trkpt lat="36.8806382" lon="10.1770291"><ele>15.333333333333332</ele><time>2026-05-03T17:09:52.926Z</time></trkpt><trkpt lat="36.880743" lon="10.1768745"><ele>15.666666666666666</ele><time>2026-05-03T17:09:53.935Z</time></trkpt><trkpt lat="36.8808418" lon="10.1767253"><ele>16.0</ele><time>2026-05-03T17:09:54.932Z</time></trkpt><trkpt lat="36.8809427" lon="10.1765758"><ele>16.666666666666664</ele><time>2026-05-03T17:09:55.904Z</time></trkpt><trkpt lat="36.8810466" lon="10.1764294"><ele>17.333333333333332</ele><time>2026-05-03T17:09:56.909Z</time></trkpt><trkpt lat="36.8811467" lon="10.1762714"><ele>18.0</ele><time>2026-05-03T17:09:57.926Z</time></trkpt><trkpt lat="36.8812517" lon="10.1761106"><ele>18.0</ele><time>2026-05-03T17:09:58.922Z</time></trkpt><trkpt lat="36.8813543" lon="10.1759495"><ele>18.0</ele><time>2026-05-03T17:09:59.925Z</time></trkpt><trkpt lat="36.8814598" lon="10.1757843"><ele>18.0</ele><time>2026-05-03T17:10:00.922Z</time></trkpt><trkpt lat="36.8815709" lon="10.1756218"><ele>18.333333333333332</ele><time>2026-05-03T17:10:01.925Z</time></trkpt><trkpt lat="36.8816793" lon="10.1754555"><ele>18.666666666666664</ele><time>2026-05-03T17:10:02.899Z</time></trkpt><trkpt lat="36.8817894" lon="10.1752804"><ele>19.0</ele><time>2026-05-03T17:10:03.923Z</time></trkpt><trkpt lat="36.8819007" lon="10.1750974"><ele>19.0</ele><time>2026-05-03T17:10:04.93Z</time></trkpt><trkpt lat="36.8820166" lon="10.1749101"><ele>19.0</ele><time>2026-05-03T17:10:05.941Z</time></trkpt><trkpt lat="36.8821414" lon="10.1747102"><ele>19.0</ele><time>2026-05-03T17:10:06.923Z</time></trkpt><trkpt lat="36.8822737" lon="10.1744995"><ele>19.0</ele><time>2026-05-03T17:10:07.906Z</time></trkpt><trkpt lat="36.882415" lon="10.1742703"><ele>19.0</ele><time>2026-05-03T17:10:08.914Z</time></trkpt><trkpt lat="36.8825682" lon="10.1740403"><ele>18.5</ele><time>2026-05-03T17:10:09.917Z</time></trkpt><trkpt lat="36.8827261" lon="10.1738014"><ele>18.0</ele><time>2026-05-03T17:10:10.924Z</time></trkpt><trkpt lat="36.8828892" lon="10.1735649"><ele>18.0</ele><time>2026-05-03T17:10:11.913Z</time></trkpt><trkpt lat="36.8830471" lon="10.1733305"><ele>18.0</ele><time>2026-05-03T17:10:12.924Z</time></trkpt><trkpt lat="36.8831982" lon="10.1730979"><ele>18.0</ele><time>2026-05-03T17:10:13.921Z</time></trkpt><trkpt lat="36.8833619" lon="10.1728704"><ele>18.0</ele><time>2026-05-03T17:10:14.909Z</time></trkpt><trkpt lat="36.8835233" lon="10.1726433"><ele>18.0</ele><time>2026-05-03T17:10:15.916Z</time></trkpt><trkpt lat="36.8836865" lon="10.1724152"><ele>18.0</ele><time>2026-05-03T17:10:16.928Z</time></trkpt><trkpt lat="36.883847" lon="10.1721888"><ele>19.5</ele><time>2026-05-03T17:10:17.927Z</time></trkpt><trkpt lat="36.8840055" lon="10.1719597"><ele>21.0</ele><time>2026-05-03T17:10:18.932Z</time></trkpt><trkpt lat="36.8841608" lon="10.1717225"><ele>20.0</ele><time>2026-05-03T17:10:19.93Z</time></trkpt><trkpt lat="36.8843209" lon="10.1714848"><ele>19.0</ele><time>2026-05-03T17:10:20.932Z</time></trkpt><trkpt lat="36.8844835" lon="10.1712428"><ele>19.0</ele><time>2026-05-03T17:10:21.933Z</time></trkpt><trkpt lat="36.8846538" lon="10.1709882"><ele>19.0</ele><time>2026-05-03T17:10:22.935Z</time></trkpt><trkpt lat="36.8848201" lon="10.1707271"><ele>19.0</ele><time>2026-05-03T17:10:23.922Z</time></trkpt><trkpt lat="36.8849837" lon="10.1704694"><ele>19.0</ele><time>2026-05-03T17:10:24.925Z</time></trkpt><trkpt lat="36.8851469" lon="10.1702144"><ele>19.0</ele><time>2026-05-03T17:10:25.93Z</time></trkpt><trkpt lat="36.8853154" lon="10.1699535"><ele>19.0</ele><time>2026-05-03T17:10:26.929Z</time></trkpt><trkpt lat="36.8854787" lon="10.1696991"><ele>20.0</ele><time>2026-05-03T17:10:27.921Z</time></trkpt><trkpt lat="36.8856415" lon="10.1694574"><ele>21.0</ele><time>2026-05-03T17:10:28.937Z</time></trkpt><trkpt lat="36.8858054" lon="10.1692164"><ele>22.5</ele><time>2026-05-03T17:10:29.936Z</time></trkpt><trkpt lat="36.8859622" lon="10.1689773"><ele>24.0</ele><time>2026-05-03T17:10:30.927Z</time></trkpt><trkpt lat="36.8861201" lon="10.1687423"><ele>24.0</ele><time>2026-05-03T17:10:31.938Z</time></trkpt><trkpt lat="36.886276" lon="10.1685019"><ele>24.0</ele><time>2026-05-03T17:10:32.915Z</time></trkpt><trkpt lat="36.8864338" lon="10.1682537"><ele>24.5</ele><time>2026-05-03T17:10:33.926Z</time></trkpt><trkpt lat="36.8865975" lon="10.1680004"><ele>25.0</ele><time>2026-05-03T17:10:34.924Z</time></trkpt><trkpt lat="36.8867683" lon="10.16775"><ele>25.0</ele><time>2026-05-03T17:10:35.928Z</time></trkpt><trkpt lat="36.8869374" lon="10.167498"><ele>25.0</ele><time>2026-05-03T17:10:36.903Z</time></trkpt><trkpt lat="36.887104" lon="10.1672526"><ele>27.0</ele><time>2026-05-03T17:10:37.944Z</time></trkpt><trkpt lat="36.8872657" lon="10.1670097"><ele>29.0</ele><time>2026-05-03T17:10:38.902Z</time></trkpt><trkpt lat="36.8874225" lon="10.1667692"><ele>29.0</ele><time>2026-05-03T17:10:39.907Z</time></trkpt><trkpt lat="36.8875801" lon="10.1665279"><ele>29.0</ele><time>2026-05-03T17:10:40.925Z</time></trkpt><trkpt lat="36.8877362" lon="10.1662894"><ele>27.5</ele><time>2026-05-03T17:10:41.928Z</time></trkpt><trkpt lat="36.8878981" lon="10.1660497"><ele>26.0</ele><time>2026-05-03T17:10:42.918Z</time></trkpt><trkpt lat="36.8880624" lon="10.1658088"><ele>26.5</ele><time>2026-05-03T17:10:43.936Z</time></trkpt><trkpt lat="36.8882271" lon="10.1655616"><ele>27.0</ele><time>2026-05-03T17:10:44.926Z</time></trkpt><trkpt lat="36.8883917" lon="10.1653112"><ele>27.5</ele><time>2026-05-03T17:10:45.931Z</time></trkpt><trkpt lat="36.8885552" lon="10.1650604"><ele>28.0</ele><time>2026-05-03T17:10:46.934Z</time></trkpt><trkpt lat="36.8887116" lon="10.1648094"><ele>28.0</ele><time>2026-05-03T17:10:47.933Z</time></trkpt><trkpt lat="36.8888753" lon="10.1645616"><ele>28.0</ele><time>2026-05-03T17:10:48.935Z</time></trkpt><trkpt lat="36.889039" lon="10.1643152"><ele>28.0</ele><time>2026-05-03T17:10:49.941Z</time></trkpt><trkpt lat="36.8892021" lon="10.1640698"><ele>28.0</ele><time>2026-05-03T17:10:50.93Z</time></trkpt><trkpt lat="36.8893645" lon="10.1638297"><ele>29.0</ele><time>2026-05-03T17:10:51.939Z</time></trkpt><trkpt lat="36.8895253" lon="10.1635957"><ele>30.0</ele><time>2026-05-03T17:10:52.935Z</time></trkpt><trkpt lat="36.8896755" lon="10.1633458"><ele>30.0</ele><time>2026-05-03T17:10:53.94Z</time></trkpt><trkpt lat="36.8898215" lon="10.1630882"><ele>30.0</ele><time>2026-05-03T17:10:54.926Z</time></trkpt><trkpt lat="36.8899571" lon="10.16282"><ele>30.0</ele><time>2026-05-03T17:10:55.918Z</time></trkpt><trkpt lat="36.890077" lon="10.1625354"><ele>30.0</ele><time>2026-05-03T17:10:56.937Z</time></trkpt><trkpt lat="36.8901903" lon="10.1622406"><ele>31.5</ele><time>2026-05-03T17:10:57.916Z</time></trkpt><trkpt lat="36.8902886" lon="10.1619348"><ele>33.0</ele><time>2026-05-03T17:10:58.934Z</time></trkpt><trkpt lat="36.8903699" lon="10.1616262"><ele>34.5</ele><time>2026-05-03T17:10:59.925Z</time></trkpt><trkpt lat="36.8904401" lon="10.1613043"><ele>36.0</ele><time>2026-05-03T17:11:00.931Z</time></trkpt><trkpt lat="36.8905037" lon="10.1609795"><ele>38.0</ele><time>2026-05-03T17:11:01.942Z</time></trkpt><trkpt lat="36.8905547" lon="10.1606383"><ele>40.0</ele><time>2026-05-03T17:11:02.932Z</time></trkpt><trkpt lat="36.8906118" lon="10.1602942"><ele>40.0</ele><time>2026-05-03T17:11:03.929Z</time></trkpt><trkpt lat="36.8906718" lon="10.1599455"><ele>40.0</ele><time>2026-05-03T17:11:04.928Z</time></trkpt><trkpt lat="36.8907311" lon="10.1595944"><ele>42.0</ele><time>2026-05-03T17:11:05.939Z</time></trkpt><trkpt lat="36.8907882" lon="10.159255"><ele>44.0</ele><time>2026-05-03T17:11:06.929Z</time></trkpt><trkpt lat="36.890849" lon="10.1589223"><ele>44.5</ele><time>2026-05-03T17:11:07.926Z</time></trkpt><trkpt lat="36.890902" lon="10.1586018"><ele>45.0</ele><time>2026-05-03T17:11:08.931Z</time></trkpt><trkpt lat="36.8909475" lon="10.1582838"><ele>49.0</ele><time>2026-05-03T17:11:09.921Z</time></trkpt><trkpt lat="36.8909776" lon="10.1579736"><ele>53.0</ele><time>2026-05-03T17:11:10.911Z</time></trkpt><trkpt lat="36.8909975" lon="10.1576666"><ele>59.5</ele><time>2026-05-03T17:11:11.928Z</time></trkpt><trkpt lat="36.8910024" lon="10.1573628"><ele>66.0</ele><time>2026-05-03T17:11:12.937Z</time></trkpt><trkpt lat="36.8909958" lon="10.1570553"><ele>66.0</ele><time>2026-05-03T17:11:13.925Z</time></trkpt><trkpt lat="36.8909769" lon="10.1567576"><ele>66.0</ele><time>2026-05-03T17:11:14.932Z</time></trkpt><trkpt lat="36.8909509" lon="10.1564691"><ele>63.0</ele><time>2026-05-03T17:11:15.92Z</time></trkpt><trkpt lat="36.8909196" lon="10.1561912"><ele>60.0</ele><time>2026-05-03T17:11:16.912Z</time></trkpt><trkpt lat="36.8908785" lon="10.1559237"><ele>57.0</ele><time>2026-05-03T17:11:17.932Z</time></trkpt><trkpt lat="36.8908399" lon="10.1556638"><ele>57.0</ele><time>2026-05-03T17:11:18.937Z</time></trkpt><trkpt lat="36.8908074" lon="10.1554136"><ele>57.0</ele><time>2026-05-03T17:11:19.945Z</time></trkpt><trkpt lat="36.8907766" lon="10.1551568"><ele>57.0</ele><time>2026-05-03T17:11:20.941Z</time></trkpt><trkpt lat="36.8907556" lon="10.1548799"><ele>59.5</ele><time>2026-05-03T17:11:21.913Z</time></trkpt><trkpt lat="36.8907611" lon="10.1545785"><ele>62.0</ele><time>2026-05-03T17:11:22.91Z</time></trkpt><trkpt lat="36.8907865" lon="10.1542505"><ele>64.0</ele><time>2026-05-03T17:11:23.917Z</time></trkpt><trkpt lat="36.8908259" lon="10.1539196"><ele>66.0</ele><time>2026-05-03T17:11:24.909Z</time></trkpt><trkpt lat="36.8908806" lon="10.1535827"><ele>72.0</ele><time>2026-05-03T17:11:25.926Z</time></trkpt><trkpt lat="36.8909452" lon="10.1532488"><ele>78.0</ele><time>2026-05-03T17:11:26.904Z</time></trkpt><trkpt lat="36.8910206" lon="10.1529258"><ele>78.0</ele><time>2026-05-03T17:11:27.928Z</time></trkpt><trkpt lat="36.8911067" lon="10.1526238"><ele>78.0</ele><time>2026-05-03T17:11:28.923Z</time></trkpt><trkpt lat="36.8912076" lon="10.1523336"><ele>75.5</ele><time>2026-05-03T17:11:29.918Z</time></trkpt><trkpt lat="36.8913201" lon="10.1520589"><ele>73.0</ele><time>2026-05-03T17:11:30.919Z</time></trkpt><trkpt lat="36.8914374" lon="10.1517902"><ele>76.0</ele><time>2026-05-03T17:11:31.925Z</time></trkpt><trkpt lat="36.8915644" lon="10.1515379"><ele>79.0</ele><time>2026-05-03T17:11:32.92Z</time></trkpt><trkpt lat="36.8916853" lon="10.1512936"><ele>80.0</ele><time>2026-05-03T17:11:33.943Z</time></trkpt><trkpt lat="36.8918132" lon="10.1510451"><ele>81.0</ele><time>2026-05-03T17:11:34.917Z</time></trkpt><trkpt lat="36.8919437" lon="10.1507855"><ele>83.5</ele><time>2026-05-03T17:11:35.927Z</time></trkpt><trkpt lat="36.8920711" lon="10.1505137"><ele>86.0</ele><time>2026-05-03T17:11:36.929Z</time></trkpt><trkpt lat="36.8922109" lon="10.1502408"><ele>86.0</ele><time>2026-05-03T17:11:37.932Z</time></trkpt><trkpt lat="36.8923452" lon="10.1499773"><ele>86.0</ele><time>2026-05-03T17:11:38.92Z</time></trkpt><trkpt lat="36.8924778" lon="10.1497085"><ele>95.0</ele><time>2026-05-03T17:11:39.915Z</time></trkpt><trkpt lat="36.8925971" lon="10.1494266"><ele>104.0</ele><time>2026-05-03T17:11:40.918Z</time></trkpt><trkpt lat="36.892705" lon="10.1491384"><ele>104.0</ele><time>2026-05-03T17:11:41.929Z</time></trkpt><trkpt lat="36.8928049" lon="10.1488431"><ele>104.0</ele><time>2026-05-03T17:11:42.924Z</time></trkpt><trkpt lat="36.8928936" lon="10.1485427"><ele>104.0</ele><time>2026-05-03T17:11:43.927Z</time></trkpt><trkpt lat="36.8929759" lon="10.1482365"><ele>104.0</ele><time>2026-05-03T17:11:44.922Z</time></trkpt><trkpt lat="36.8930413" lon="10.1479361"><ele>104.5</ele><time>2026-05-03T17:11:45.914Z</time></trkpt><trkpt lat="36.8930926" lon="10.1476359"><ele>105.0</ele><time>2026-05-03T17:11:46.935Z</time></trkpt><trkpt lat="36.8931312" lon="10.1473398"><ele>106.0</ele><time>2026-05-03T17:11:47.911Z</time></trkpt><trkpt lat="36.8931539" lon="10.1470349"><ele>107.0</ele><time>2026-05-03T17:11:48.919Z</time></trkpt><trkpt lat="36.8931696" lon="10.146734"><ele>109.0</ele><time>2026-05-03T17:11:49.913Z</time></trkpt><trkpt lat="36.8931729" lon="10.1464278"><ele>111.0</ele><time>2026-05-03T17:11:50.938Z</time></trkpt><trkpt lat="36.8931717" lon="10.1461213"><ele>111.0</ele><time>2026-05-03T17:11:51.933Z</time></trkpt><trkpt lat="36.8931558" lon="10.1458157"><ele>111.0</ele><time>2026-05-03T17:11:52.941Z</time></trkpt><trkpt lat="36.8931333" lon="10.1455145"><ele>112.0</ele><time>2026-05-03T17:11:53.929Z</time></trkpt><trkpt lat="36.8931039" lon="10.1452117"><ele>113.0</ele><time>2026-05-03T17:11:54.914Z</time></trkpt><trkpt lat="36.8930758" lon="10.1449116"><ele>113.0</ele><time>2026-05-03T17:11:55.915Z</time></trkpt><trkpt lat="36.8930487" lon="10.1446165"><ele>113.0</ele><time>2026-05-03T17:11:56.896Z</time></trkpt><trkpt lat="36.8930277" lon="10.1443181"><ele>112.5</ele><time>2026-05-03T17:11:57.908Z</time></trkpt><trkpt lat="36.8929999" lon="10.1440164"><ele>112.0</ele><time>2026-05-03T17:11:58.933Z</time></trkpt><trkpt lat="36.8929701" lon="10.1437148"><ele>112.0</ele><time>2026-05-03T17:11:59.943Z</time></trkpt><trkpt lat="36.892938" lon="10.1434186"><ele>112.0</ele><time>2026-05-03T17:12:00.92Z</time></trkpt><trkpt lat="36.8929023" lon="10.1431439"><ele>113.0</ele><time>2026-05-03T17:12:01.943Z</time></trkpt><trkpt lat="36.8928687" lon="10.1428642"><ele>114.0</ele><time>2026-05-03T17:12:02.922Z</time></trkpt><trkpt lat="36.8928308" lon="10.1425815"><ele>113.66666666666666</ele><time>2026-05-03T17:12:03.938Z</time></trkpt><trkpt lat="36.8927995" lon="10.1423044"><ele>113.33333333333333</ele><time>2026-05-03T17:12:04.936Z</time></trkpt><trkpt lat="36.8927736" lon="10.1420312"><ele>113.0</ele><time>2026-05-03T17:12:05.938Z</time></trkpt><trkpt lat="36.892746" lon="10.1417765"><ele>112.0</ele><time>2026-05-03T17:12:06.934Z</time></trkpt><trkpt lat="36.8927196" lon="10.1415364"><ele>111.0</ele><time>2026-05-03T17:12:07.917Z</time></trkpt><trkpt lat="36.8926974" lon="10.141321"><ele>110.0</ele><time>2026-05-03T17:12:08.929Z</time></trkpt><trkpt lat="36.8926778" lon="10.1411108"><ele>110.0</ele><time>2026-05-03T17:12:09.927Z</time></trkpt><trkpt lat="36.8926534" lon="10.1408994"><ele>110.0</ele><time>2026-05-03T17:12:10.917Z</time></trkpt><trkpt lat="36.8926332" lon="10.1406916"><ele>110.0</ele><time>2026-05-03T17:12:11.937Z</time></trkpt><trkpt lat="36.892611" lon="10.1404938"><ele>107.33333333333333</ele><time>2026-05-03T17:12:12.898Z</time></trkpt><trkpt lat="36.8925884" lon="10.1402962"><ele>104.66666666666666</ele><time>2026-05-03T17:12:13.921Z</time></trkpt><trkpt lat="36.8925628" lon="10.1400928"><ele>102.0</ele><time>2026-05-03T17:12:14.931Z</time></trkpt><trkpt lat="36.8925392" lon="10.1398832"><ele>102.0</ele><time>2026-05-03T17:12:15.936Z</time></trkpt><trkpt lat="36.8925102" lon="10.1396662"><ele>102.0</ele><time>2026-05-03T17:12:16.937Z</time></trkpt><trkpt lat="36.8924799" lon="10.1394548"><ele>102.0</ele><time>2026-05-03T17:12:17.933Z</time></trkpt><trkpt lat="36.8924508" lon="10.1392483"><ele>102.0</ele><time>2026-05-03T17:12:18.945Z</time></trkpt><trkpt lat="36.8924295" lon="10.1390584"><ele>102.0</ele><time>2026-05-03T17:12:19.93Z</time></trkpt><trkpt lat="36.8924086" lon="10.1388688"><ele>102.0</ele><time>2026-05-03T17:12:20.928Z</time></trkpt><trkpt lat="36.8923851" lon="10.1386761"><ele>102.66666666666666</ele><time>2026-05-03T17:12:21.932Z</time></trkpt><trkpt lat="36.8923625" lon="10.1384877"><ele>103.33333333333333</ele><time>2026-05-03T17:12:22.94Z</time></trkpt><trkpt lat="36.8923385" lon="10.1382912"><ele>104.0</ele><time>2026-05-03T17:12:23.924Z</time></trkpt><trkpt lat="36.8923122" lon="10.1380843"><ele>104.66666666666666</ele><time>2026-05-03T17:12:24.944Z</time></trkpt><trkpt lat="36.8922841" lon="10.1378613"><ele>105.33333333333334</ele><time>2026-05-03T17:12:25.922Z</time></trkpt><trkpt lat="36.8922519" lon="10.1376254"><ele>106.0</ele><time>2026-05-03T17:12:26.942Z</time></trkpt><trkpt lat="36.8922188" lon="10.1373574"><ele>106.0</ele><time>2026-05-03T17:12:27.929Z</time></trkpt><trkpt lat="36.8921717" lon="10.1370458"><ele>106.0</ele><time>2026-05-03T17:12:28.925Z</time></trkpt><trkpt lat="36.8921217" lon="10.1366994"><ele>100.5</ele><time>2026-05-03T17:12:29.922Z</time></trkpt><trkpt lat="36.8920843" lon="10.1363599"><ele>95.0</ele><time>2026-05-03T17:12:30.919Z</time></trkpt><trkpt lat="36.8920441" lon="10.1360448"><ele>95.0</ele><time>2026-05-03T17:12:31.927Z</time></trkpt><trkpt lat="36.8920036" lon="10.1357516"><ele>95.0</ele><time>2026-05-03T17:12:32.91Z</time></trkpt><trkpt lat="36.8919707" lon="10.1354687"><ele>95.0</ele><time>2026-05-03T17:12:33.92Z</time></trkpt><trkpt lat="36.8919401" lon="10.1352001"><ele>95.0</ele><time>2026-05-03T17:12:34.926Z</time></trkpt><trkpt lat="36.8919132" lon="10.1349278"><ele>95.0</ele><time>2026-05-03T17:12:35.914Z</time></trkpt><trkpt lat="36.8918865" lon="10.1346521"><ele>93.33333333333334</ele><time>2026-05-03T17:12:36.909Z</time></trkpt><trkpt lat="36.8918689" lon="10.1343718"><ele>91.66666666666667</ele><time>2026-05-03T17:12:37.91Z</time></trkpt><trkpt lat="36.8918628" lon="10.1340923"><ele>90.0</ele><time>2026-05-03T17:12:38.898Z</time></trkpt><trkpt lat="36.8918735" lon="10.1338134"><ele>87.66666666666667</ele><time>2026-05-03T17:12:39.909Z</time></trkpt><trkpt lat="36.891894" lon="10.1335442"><ele>85.33333333333334</ele><time>2026-05-03T17:12:40.908Z</time></trkpt><trkpt lat="36.8919229" lon="10.1332846"><ele>83.0</ele><time>2026-05-03T17:12:41.918Z</time></trkpt><trkpt lat="36.8919673" lon="10.1330211"><ele>80.0</ele><time>2026-05-03T17:12:42.904Z</time></trkpt><trkpt lat="36.8920237" lon="10.1327444"><ele>77.0</ele><time>2026-05-03T17:12:43.923Z</time></trkpt><trkpt lat="36.8920931" lon="10.132462"><ele>75.0</ele><time>2026-05-03T17:12:44.939Z</time></trkpt><trkpt lat="36.8921739" lon="10.1321758"><ele>73.0</ele><time>2026-05-03T17:12:45.928Z</time></trkpt><trkpt lat="36.8922734" lon="10.1318824"><ele>73.0</ele><time>2026-05-03T17:12:46.931Z</time></trkpt><trkpt lat="36.8923746" lon="10.1315887"><ele>73.0</ele><time>2026-05-03T17:12:47.929Z</time></trkpt><trkpt lat="36.8924774" lon="10.1312958"><ele>71.5</ele><time>2026-05-03T17:12:48.924Z</time></trkpt><trkpt lat="36.8925816" lon="10.1309972"><ele>70.0</ele><time>2026-05-03T17:12:49.926Z</time></trkpt><trkpt lat="36.8926856" lon="10.1306828"><ele>66.5</ele><time>2026-05-03T17:12:50.929Z</time></trkpt><trkpt lat="36.8927896" lon="10.1303666"><ele>63.0</ele><time>2026-05-03T17:12:51.927Z</time></trkpt><trkpt lat="36.8928979" lon="10.1300632"><ele>62.5</ele><time>2026-05-03T17:12:52.919Z</time></trkpt><trkpt lat="36.8929979" lon="10.1297625"><ele>62.0</ele><time>2026-05-03T17:12:53.92Z</time></trkpt><trkpt lat="36.8930951" lon="10.1294636"><ele>62.0</ele><time>2026-05-03T17:12:54.925Z</time></trkpt><trkpt lat="36.8931963" lon="10.1291635"><ele>62.0</ele><time>2026-05-03T17:12:55.937Z</time></trkpt><trkpt lat="36.8933031" lon="10.1288694"><ele>61.5</ele><time>2026-05-03T17:12:56.933Z</time></trkpt><trkpt lat="36.8934151" lon="10.1285758"><ele>61.0</ele><time>2026-05-03T17:12:57.938Z</time></trkpt><trkpt lat="36.8935296" lon="10.1282801"><ele>59.0</ele><time>2026-05-03T17:12:58.911Z</time></trkpt><trkpt lat="36.893646" lon="10.1279856"><ele>57.0</ele><time>2026-05-03T17:12:59.915Z</time></trkpt><trkpt lat="36.8937715" lon="10.1276964"><ele>57.0</ele><time>2026-05-03T17:13:00.933Z</time></trkpt><trkpt lat="36.8939" lon="10.1274145"><ele>57.0</ele><time>2026-05-03T17:13:01.935Z</time></trkpt><trkpt lat="36.8940283" lon="10.1271294"><ele>57.0</ele><time>2026-05-03T17:13:02.922Z</time></trkpt><trkpt lat="36.8941627" lon="10.1268458"><ele>57.0</ele><time>2026-05-03T17:13:03.91Z</time></trkpt><trkpt lat="36.8942958" lon="10.1265646"><ele>55.0</ele><time>2026-05-03T17:13:04.936Z</time></trkpt><trkpt lat="36.8944285" lon="10.1262826"><ele>53.0</ele><time>2026-05-03T17:13:05.946Z</time></trkpt><trkpt lat="36.8945663" lon="10.1260032"><ele>52.5</ele><time>2026-05-03T17:13:06.944Z</time></trkpt><trkpt lat="36.8947021" lon="10.125723"><ele>52.0</ele><time>2026-05-03T17:13:07.926Z</time></trkpt><trkpt lat="36.8948408" lon="10.1254448"><ele>52.0</ele><time>2026-05-03T17:13:08.945Z</time></trkpt><trkpt lat="36.894974" lon="10.1251634"><ele>52.0</ele><time>2026-05-03T17:13:09.947Z</time></trkpt><trkpt lat="36.8951109" lon="10.1248821"><ele>50.5</ele><time>2026-05-03T17:13:10.909Z</time></trkpt><trkpt lat="36.8952443" lon="10.1245991"><ele>49.0</ele><time>2026-05-03T17:13:11.929Z</time></trkpt><trkpt lat="36.8953799" lon="10.1243128"><ele>47.0</ele><time>2026-05-03T17:13:12.922Z</time></trkpt><trkpt lat="36.8955095" lon="10.1240302"><ele>45.0</ele><time>2026-05-03T17:13:13.928Z</time></trkpt><trkpt lat="36.8956471" lon="10.1237545"><ele>45.0</ele><time>2026-05-03T17:13:14.92Z</time></trkpt><trkpt lat="36.8957845" lon="10.1234881"><ele>45.0</ele><time>2026-05-03T17:13:15.922Z</time></trkpt><trkpt lat="36.8959174" lon="10.1232293"><ele>44.0</ele><time>2026-05-03T17:13:16.92Z</time></trkpt><trkpt lat="36.8960456" lon="10.1229744"><ele>43.0</ele><time>2026-05-03T17:13:17.938Z</time></trkpt><trkpt lat="36.8961735" lon="10.1227126"><ele>43.0</ele><time>2026-05-03T17:13:18.908Z</time></trkpt><trkpt lat="36.8963051" lon="10.1224356"><ele>43.0</ele><time>2026-05-03T17:13:19.898Z</time></trkpt><trkpt lat="36.8964381" lon="10.1221499"><ele>43.0</ele><time>2026-05-03T17:13:20.914Z</time></trkpt><trkpt lat="36.896581" lon="10.1218585"><ele>43.0</ele><time>2026-05-03T17:13:21.911Z</time></trkpt><trkpt lat="36.8967276" lon="10.1215585"><ele>43.0</ele><time>2026-05-03T17:13:22.9Z</time></trkpt><trkpt lat="36.8968835" lon="10.1212607"><ele>43.0</ele><time>2026-05-03T17:13:23.916Z</time></trkpt><trkpt lat="36.8970339" lon="10.1209523"><ele>43.0</ele><time>2026-05-03T17:13:24.913Z</time></trkpt><trkpt lat="36.897185" lon="10.1206457"><ele>43.0</ele><time>2026-05-03T17:13:25.922Z</time></trkpt><trkpt lat="36.8973367" lon="10.1203374"><ele>43.0</ele><time>2026-05-03T17:13:26.93Z</time></trkpt><trkpt lat="36.8974811" lon="10.1200314"><ele>43.0</ele><time>2026-05-03T17:13:27.925Z</time></trkpt><trkpt lat="36.897622" lon="10.1197309"><ele>43.5</ele><time>2026-05-03T17:13:28.936Z</time></trkpt><trkpt lat="36.8977705" lon="10.1194325"><ele>44.0</ele><time>2026-05-03T17:13:29.933Z</time></trkpt><trkpt lat="36.897915" lon="10.1191342"><ele>43.0</ele><time>2026-05-03T17:13:30.942Z</time></trkpt><trkpt lat="36.8980617" lon="10.1188356"><ele>42.0</ele><time>2026-05-03T17:13:31.945Z</time></trkpt><trkpt lat="36.8982067" lon="10.1185345"><ele>42.0</ele><time>2026-05-03T17:13:32.923Z</time></trkpt><trkpt lat="36.8983533" lon="10.1182355"><ele>42.0</ele><time>2026-05-03T17:13:33.939Z</time></trkpt><trkpt lat="36.8984828" lon="10.1179707"><ele>40.5</ele><time>2026-05-03T17:13:34.925Z</time></trkpt><trkpt lat="36.8985984" lon="10.1177292"><ele>39.0</ele><time>2026-05-03T17:13:35.927Z</time></trkpt><trkpt lat="36.8987181" lon="10.1174823"><ele>38.5</ele><time>2026-05-03T17:13:36.935Z</time></trkpt><trkpt lat="36.8988372" lon="10.1172297"><ele>38.0</ele><time>2026-05-03T17:13:37.938Z</time></trkpt><trkpt lat="36.8989625" lon="10.1169756"><ele>38.0</ele><time>2026-05-03T17:13:38.92Z</time></trkpt><trkpt lat="36.8990872" lon="10.1167213"><ele>38.0</ele><time>2026-05-03T17:13:39.918Z</time></trkpt><trkpt lat="36.899217" lon="10.1164692"><ele>39.0</ele><time>2026-05-03T17:13:40.924Z</time></trkpt><trkpt lat="36.8993533" lon="10.1162154"><ele>40.0</ele><time>2026-05-03T17:13:41.921Z</time></trkpt><trkpt lat="36.8994996" lon="10.1159545"><ele>38.0</ele><time>2026-05-03T17:13:42.917Z</time></trkpt><trkpt lat="36.8996558" lon="10.1156923"><ele>36.0</ele><time>2026-05-03T17:13:43.93Z</time></trkpt><trkpt lat="36.8998216" lon="10.1154387"><ele>36.0</ele><time>2026-05-03T17:13:44.932Z</time></trkpt><trkpt lat="36.9000028" lon="10.1151825"><ele>36.0</ele><time>2026-05-03T17:13:45.915Z</time></trkpt><trkpt lat="36.9002089" lon="10.114947"><ele>33.5</ele><time>2026-05-03T17:13:46.924Z</time></trkpt><trkpt lat="36.9004184" lon="10.1147126"><ele>31.0</ele><time>2026-05-03T17:13:47.905Z</time></trkpt><trkpt lat="36.900632" lon="10.1144847"><ele>31.0</ele><time>2026-05-03T17:13:48.901Z</time></trkpt><trkpt lat="36.9008508" lon="10.1142628"><ele>31.0</ele><time>2026-05-03T17:13:49.917Z</time></trkpt><trkpt lat="36.9010791" lon="10.1140489"><ele>30.5</ele><time>2026-05-03T17:13:50.934Z</time></trkpt><trkpt lat="36.901311" lon="10.1138415"><ele>30.0</ele><time>2026-05-03T17:13:51.922Z</time></trkpt><trkpt lat="36.9015469" lon="10.1136506"><ele>30.5</ele><time>2026-05-03T17:13:52.923Z</time></trkpt><trkpt lat="36.9017892" lon="10.1134637"><ele>31.0</ele><time>2026-05-03T17:13:53.938Z</time></trkpt><trkpt lat="36.9020312" lon="10.1132933"><ele>30.0</ele><time>2026-05-03T17:13:54.925Z</time></trkpt><trkpt lat="36.9022871" lon="10.1131286"><ele>29.0</ele><time>2026-05-03T17:13:55.936Z</time></trkpt><trkpt lat="36.9025411" lon="10.1129762"><ele>29.5</ele><time>2026-05-03T17:13:56.928Z</time></trkpt><trkpt lat="36.902801" lon="10.1128359"><ele>30.0</ele><time>2026-05-03T17:13:57.924Z</time></trkpt><trkpt lat="36.9030644" lon="10.1127056"><ele>30.0</ele><time>2026-05-03T17:13:58.92Z</time></trkpt><trkpt lat="36.9033309" lon="10.1125915"><ele>30.0</ele><time>2026-05-03T17:13:59.926Z</time></trkpt><trkpt lat="36.9035994" lon="10.1124912"><ele>29.0</ele><time>2026-05-03T17:14:00.922Z</time></trkpt><trkpt lat="36.9038736" lon="10.1123977"><ele>28.0</ele><time>2026-05-03T17:14:01.903Z</time></trkpt><trkpt lat="36.9041514" lon="10.1123127"><ele>28.0</ele><time>2026-05-03T17:14:02.909Z</time></trkpt><trkpt lat="36.9044298" lon="10.1122425"><ele>28.0</ele><time>2026-05-03T17:14:03.901Z</time></trkpt><trkpt lat="36.9047085" lon="10.1121732"><ele>28.0</ele><time>2026-05-03T17:14:04.924Z</time></trkpt><trkpt lat="36.9049891" lon="10.112124"><ele>28.0</ele><time>2026-05-03T17:14:05.922Z</time></trkpt><trkpt lat="36.9052649" lon="10.1120791"><ele>28.0</ele><time>2026-05-03T17:14:06.935Z</time></trkpt><trkpt lat="36.9055426" lon="10.112034"><ele>28.0</ele><time>2026-05-03T17:14:07.929Z</time></trkpt><trkpt lat="36.9058253" lon="10.1119851"><ele>27.5</ele><time>2026-05-03T17:14:08.917Z</time></trkpt><trkpt lat="36.9061051" lon="10.1119407"><ele>27.0</ele><time>2026-05-03T17:14:09.938Z</time></trkpt><trkpt lat="36.9063881" lon="10.1118989"><ele>27.0</ele><time>2026-05-03T17:14:10.929Z</time></trkpt><trkpt lat="36.906669" lon="10.1118558"><ele>27.0</ele><time>2026-05-03T17:14:11.94Z</time></trkpt><trkpt lat="36.906955" lon="10.1118126"><ele>27.5</ele><time>2026-05-03T17:14:12.912Z</time></trkpt><trkpt lat="36.9072329" lon="10.1117694"><ele>28.0</ele><time>2026-05-03T17:14:13.93Z</time></trkpt><trkpt lat="36.9075118" lon="10.1117269"><ele>27.0</ele><time>2026-05-03T17:14:14.922Z</time></trkpt><trkpt lat="36.9077951" lon="10.1116818"><ele>26.0</ele><time>2026-05-03T17:14:15.91Z</time></trkpt><trkpt lat="36.9080761" lon="10.1116351"><ele>26.0</ele><time>2026-05-03T17:14:16.926Z</time></trkpt><trkpt lat="36.9083554" lon="10.111591"><ele>26.0</ele><time>2026-05-03T17:14:17.943Z</time></trkpt><trkpt lat="36.9086386" lon="10.1115494"><ele>25.5</ele><time>2026-05-03T17:14:18.933Z</time></trkpt><trkpt lat="36.9089218" lon="10.1115054"><ele>25.0</ele><time>2026-05-03T17:14:19.934Z</time></trkpt><trkpt lat="36.909202" lon="10.1114604"><ele>24.5</ele><time>2026-05-03T17:14:20.923Z</time></trkpt><trkpt lat="36.9094818" lon="10.1114137"><ele>24.0</ele><time>2026-05-03T17:14:21.934Z</time></trkpt><trkpt lat="36.9097581" lon="10.1113591"><ele>24.0</ele><time>2026-05-03T17:14:22.921Z</time></trkpt><trkpt lat="36.9100353" lon="10.1113009"><ele>24.0</ele><time>2026-05-03T17:14:23.913Z</time></trkpt><trkpt lat="36.9103103" lon="10.1112298"><ele>23.5</ele><time>2026-05-03T17:14:24.924Z</time></trkpt><trkpt lat="36.9105874" lon="10.1111625"><ele>23.0</ele><time>2026-05-03T17:14:25.922Z</time></trkpt><trkpt lat="36.9108658" lon="10.11109"><ele>21.5</ele><time>2026-05-03T17:14:26.927Z</time></trkpt><trkpt lat="36.9111455" lon="10.1110193"><ele>20.0</ele><time>2026-05-03T17:14:27.926Z</time></trkpt><trkpt lat="36.9114206" lon="10.1109477"><ele>20.0</ele><time>2026-05-03T17:14:28.935Z</time></trkpt><trkpt lat="36.9116948" lon="10.1108723"><ele>20.0</ele><time>2026-05-03T17:14:29.92Z</time></trkpt><trkpt lat="36.9119682" lon="10.1107896"><ele>20.0</ele><time>2026-05-03T17:14:30.923Z</time></trkpt><trkpt lat="36.912243" lon="10.1107077"><ele>20.0</ele><time>2026-05-03T17:14:31.931Z</time></trkpt><trkpt lat="36.9125163" lon="10.1106145"><ele>20.0</ele><time>2026-05-03T17:14:32.913Z</time></trkpt><trkpt lat="36.9127862" lon="10.1105217"><ele>20.0</ele><time>2026-05-03T17:14:33.917Z</time></trkpt><trkpt lat="36.9130576" lon="10.1104291"><ele>20.0</ele><time>2026-05-03T17:14:34.912Z</time></trkpt><trkpt lat="36.9133231" lon="10.1103319"><ele>20.0</ele><time>2026-05-03T17:14:35.946Z</time></trkpt><trkpt lat="36.9135793" lon="10.1102319"><ele>19.0</ele><time>2026-05-03T17:14:36.923Z</time></trkpt><trkpt lat="36.9138361" lon="10.1101286"><ele>18.0</ele><time>2026-05-03T17:14:37.916Z</time></trkpt><trkpt lat="36.9140996" lon="10.1100193"><ele>18.0</ele><time>2026-05-03T17:14:38.93Z</time></trkpt><trkpt lat="36.9143704" lon="10.1099096"><ele>18.0</ele><time>2026-05-03T17:14:39.915Z</time></trkpt><trkpt lat="36.9146414" lon="10.1097979"><ele>17.5</ele><time>2026-05-03T17:14:40.924Z</time></trkpt><trkpt lat="36.9149064" lon="10.1096796"><ele>17.0</ele><time>2026-05-03T17:14:41.928Z</time></trkpt><trkpt lat="36.9151696" lon="10.1095533"><ele>16.0</ele><time>2026-05-03T17:14:42.914Z</time></trkpt><trkpt lat="36.9154336" lon="10.1094212"><ele>15.0</ele><time>2026-05-03T17:14:43.916Z</time></trkpt><trkpt lat="36.9156987" lon="10.1092895"><ele>14.5</ele><time>2026-05-03T17:14:44.928Z</time></trkpt><trkpt lat="36.9159675" lon="10.1091496"><ele>14.0</ele><time>2026-05-03T17:14:45.918Z</time></trkpt><trkpt lat="36.9162358" lon="10.1090099"><ele>14.0</ele><time>2026-05-03T17:14:46.917Z</time></trkpt><trkpt lat="36.9164924" lon="10.1088709"><ele>14.0</ele><time>2026-05-03T17:14:47.932Z</time></trkpt><trkpt lat="36.9167489" lon="10.1087305"><ele>14.0</ele><time>2026-05-03T17:14:48.933Z</time></trkpt><trkpt lat="36.9170042" lon="10.108585"><ele>14.0</ele><time>2026-05-03T17:14:49.904Z</time></trkpt><trkpt lat="36.917258" lon="10.1084342"><ele>14.0</ele><time>2026-05-03T17:14:50.911Z</time></trkpt><trkpt lat="36.9175052" lon="10.1082809"><ele>14.0</ele><time>2026-05-03T17:14:51.928Z</time></trkpt><trkpt lat="36.9177321" lon="10.1081402"><ele>13.0</ele><time>2026-05-03T17:14:52.932Z</time></trkpt><trkpt lat="36.9179305" lon="10.1080146"><ele>12.0</ele><time>2026-05-03T17:14:53.904Z</time></trkpt><trkpt lat="36.9181216" lon="10.1078887"><ele>11.0</ele><time>2026-05-03T17:14:54.914Z</time></trkpt><trkpt lat="36.9183004" lon="10.1077793"><ele>10.666666666666666</ele><time>2026-05-03T17:14:55.9Z</time></trkpt><trkpt lat="36.9184729" lon="10.1076646"><ele>10.333333333333334</ele><time>2026-05-03T17:14:56.914Z</time></trkpt><trkpt lat="36.918631" lon="10.1075569"><ele>10.0</ele><time>2026-05-03T17:14:57.913Z</time></trkpt><trkpt lat="36.9187738" lon="10.1074567"><ele>10.0</ele><time>2026-05-03T17:14:58.907Z</time></trkpt><trkpt lat="36.9189128" lon="10.1073658"><ele>10.0</ele><time>2026-05-03T17:14:59.944Z</time></trkpt><trkpt lat="36.9190401" lon="10.1072795"><ele>10.0</ele><time>2026-05-03T17:15:00.929Z</time></trkpt><trkpt lat="36.9191553" lon="10.1071987"><ele>10.0</ele><time>2026-05-03T17:15:01.933Z</time></trkpt><trkpt lat="36.9192596" lon="10.107127"><ele>9.6</ele><time>2026-05-03T17:15:02.919Z</time></trkpt><trkpt lat="36.9193426" lon="10.1070534"><ele>9.2</ele><time>2026-05-03T17:15:03.92Z</time></trkpt><trkpt lat="36.9194066" lon="10.1069858"><ele>8.8</ele><time>2026-05-03T17:15:04.924Z</time></trkpt><trkpt lat="36.9194571" lon="10.1068626"><ele>8.4</ele><time>2026-05-03T17:15:06.932Z</time></trkpt><trkpt lat="36.9195009" lon="10.1067626"><ele>8.0</ele><time>2026-05-03T17:15:08.93Z</time></trkpt><trkpt lat="36.9195811" lon="10.1066897"><ele>8.0</ele><time>2026-05-03T17:15:10.918Z</time></trkpt><trkpt lat="36.9196462" lon="10.1066403"><ele>8.0</ele><time>2026-05-03T17:15:11.916Z</time></trkpt><trkpt lat="36.9197274" lon="10.1065844"><ele>8.0</ele><time>2026-05-03T17:15:12.923Z</time></trkpt><trkpt lat="36.9198122" lon="10.1065198"><ele>8.0</ele><time>2026-05-03T17:15:13.934Z</time></trkpt><trkpt lat="36.9199085" lon="10.1064544"><ele>8.0</ele><time>2026-05-03T17:15:14.919Z</time></trkpt><trkpt lat="36.920002" lon="10.106384"><ele>8.25</ele><time>2026-05-03T17:15:15.914Z</time></trkpt><trkpt lat="36.9201038" lon="10.1063128"><ele>8.5</ele><time>2026-05-03T17:15:16.934Z</time></trkpt><trkpt lat="36.9202027" lon="10.1062408"><ele>8.75</ele><time>2026-05-03T17:15:17.941Z</time></trkpt><trkpt lat="36.9203152" lon="10.106163"><ele>9.0</ele><time>2026-05-03T17:15:18.923Z</time></trkpt><trkpt lat="36.920447" lon="10.1060701"><ele>9.0</ele><time>2026-05-03T17:15:19.93Z</time></trkpt><trkpt lat="36.9205868" lon="10.105975"><ele>9.0</ele><time>2026-05-03T17:15:20.92Z</time></trkpt><trkpt lat="36.9207318" lon="10.1058685"><ele>9.0</ele><time>2026-05-03T17:15:21.928Z</time></trkpt><trkpt lat="36.9208702" lon="10.1057591"><ele>9.25</ele><time>2026-05-03T17:15:22.925Z</time></trkpt><trkpt lat="36.9210035" lon="10.1056638"><ele>9.5</ele><time>2026-05-03T17:15:23.933Z</time></trkpt><trkpt lat="36.9211286" lon="10.1055806"><ele>9.75</ele><time>2026-05-03T17:15:24.912Z</time></trkpt><trkpt lat="36.9212551" lon="10.1054863"><ele>10.0</ele><time>2026-05-03T17:15:25.917Z</time></trkpt><trkpt lat="36.9213882" lon="10.105397"><ele>10.0</ele><time>2026-05-03T17:15:26.931Z</time></trkpt><trkpt lat="36.9215206" lon="10.1053061"><ele>10.0</ele><time>2026-05-03T17:15:27.936Z</time></trkpt><trkpt lat="36.9216503" lon="10.105214"><ele>10.0</ele><time>2026-05-03T17:15:28.922Z</time></trkpt><trkpt lat="36.9217826" lon="10.1051269"><ele>9.666666666666668</ele><time>2026-05-03T17:15:29.933Z</time></trkpt><trkpt lat="36.9219089" lon="10.1050297"><ele>9.333333333333334</ele><time>2026-05-03T17:15:30.91Z</time></trkpt><trkpt lat="36.9220472" lon="10.1049343"><ele>9.0</ele><time>2026-05-03T17:15:31.911Z</time></trkpt><trkpt lat="36.9221853" lon="10.1048336"><ele>9.0</ele><time>2026-05-03T17:15:32.923Z</time></trkpt><trkpt lat="36.9223185" lon="10.1047386"><ele>9.0</ele><time>2026-05-03T17:15:33.923Z</time></trkpt><trkpt lat="36.9224522" lon="10.1046406"><ele>9.0</ele><time>2026-05-03T17:15:34.927Z</time></trkpt><trkpt lat="36.9225791" lon="10.1045481"><ele>9.25</ele><time>2026-05-03T17:15:35.934Z</time></trkpt><trkpt lat="36.9226994" lon="10.1044666"><ele>9.5</ele><time>2026-05-03T17:15:36.922Z</time></trkpt><trkpt lat="36.9228091" lon="10.1043833"><ele>9.75</ele><time>2026-05-03T17:15:37.93Z</time></trkpt><trkpt lat="36.9229152" lon="10.1043093"><ele>10.0</ele><time>2026-05-03T17:15:38.914Z</time></trkpt><trkpt lat="36.9230176" lon="10.1042344"><ele>10.0</ele><time>2026-05-03T17:15:39.935Z</time></trkpt><trkpt lat="36.923114" lon="10.1041649"><ele>10.0</ele><time>2026-05-03T17:15:40.929Z</time></trkpt><trkpt lat="36.9232025" lon="10.1040993"><ele>10.0</ele><time>2026-05-03T17:15:41.927Z</time></trkpt><trkpt lat="36.9232886" lon="10.1040383"><ele>10.0</ele><time>2026-05-03T17:15:42.915Z</time></trkpt><trkpt lat="36.9233827" lon="10.1039873"><ele>10.0</ele><time>2026-05-03T17:15:43.926Z</time></trkpt><trkpt lat="36.9234873" lon="10.1039482"><ele>9.25</ele><time>2026-05-03T17:15:44.938Z</time></trkpt><trkpt lat="36.923604" lon="10.103914"><ele>8.5</ele><time>2026-05-03T17:15:45.898Z</time></trkpt><trkpt lat="36.92372" lon="10.1038701"><ele>7.75</ele><time>2026-05-03T17:15:46.915Z</time></trkpt><trkpt lat="36.9238536" lon="10.1038005"><ele>7.0</ele><time>2026-05-03T17:15:47.923Z</time></trkpt><trkpt lat="36.9239891" lon="10.1037082"><ele>7.0</ele><time>2026-05-03T17:15:48.925Z</time></trkpt><trkpt lat="36.924127" lon="10.1036108"><ele>7.0</ele><time>2026-05-03T17:15:49.939Z</time></trkpt><trkpt lat="36.9242672" lon="10.1035251"><ele>7.0</ele><time>2026-05-03T17:15:50.939Z</time></trkpt><trkpt lat="36.9243855" lon="10.1034478"><ele>7.0</ele><time>2026-05-03T17:15:51.925Z</time></trkpt><trkpt lat="36.9245004" lon="10.103379"><ele>7.0</ele><time>2026-05-03T17:15:52.916Z</time></trkpt><trkpt lat="36.9246035" lon="10.1033225"><ele>6.999999999999999</ele><time>2026-05-03T17:15:53.919Z</time></trkpt><trkpt lat="36.9247027" lon="10.1032567"><ele>6.999999999999999</ele><time>2026-05-03T17:15:54.913Z</time></trkpt><trkpt lat="36.9247968" lon="10.1031996"><ele>7.0</ele><time>2026-05-03T17:15:55.935Z</time></trkpt><trkpt lat="36.924891" lon="10.1031406"><ele>7.0</ele><time>2026-05-03T17:15:56.938Z</time></trkpt><trkpt lat="36.9249799" lon="10.1030854"><ele>6.8</ele><time>2026-05-03T17:15:57.936Z</time></trkpt><trkpt lat="36.9250681" lon="10.1030272"><ele>6.6</ele><time>2026-05-03T17:15:58.939Z</time></trkpt><trkpt lat="36.9251556" lon="10.102956"><ele>6.3999999999999995</ele><time>2026-05-03T17:15:59.938Z</time></trkpt><trkpt lat="36.9252322" lon="10.1028938"><ele>6.199999999999999</ele><time>2026-05-03T17:16:00.923Z</time></trkpt><trkpt lat="36.9253017" lon="10.1028355"><ele>6.0</ele><time>2026-05-03T17:16:01.92Z</time></trkpt><trkpt lat="36.9253706" lon="10.1027765"><ele>6.0</ele><time>2026-05-03T17:16:02.928Z</time></trkpt><trkpt lat="36.9254344" lon="10.1027252"><ele>6.0</ele><time>2026-05-03T17:16:03.937Z</time></trkpt><trkpt lat="36.9254935" lon="10.1026785"><ele>6.0</ele><time>2026-05-03T17:16:04.928Z</time></trkpt><trkpt lat="36.9255539" lon="10.102635"><ele>6.0</ele><time>2026-05-03T17:16:05.911Z</time></trkpt><trkpt lat="36.9256487" lon="10.1025634"><ele>6.0</ele><time>2026-05-03T17:16:07.919Z</time></trkpt><trkpt lat="36.9257101" lon="10.102513"><ele>6.0</ele><time>2026-05-03T17:16:09.916Z</time></trkpt><trkpt lat="36.9257716" lon="10.1024621"><ele>6.0</ele><time>2026-05-03T17:16:32.918Z</time></trkpt><trkpt lat="36.925849" lon="10.1024232"><ele>6.0</ele><time>2026-05-03T17:16:36.924Z</time></trkpt><trkpt lat="36.9259176" lon="10.1023712"><ele>6.0</ele><time>2026-05-03T17:16:40.936Z</time></trkpt><trkpt lat="36.9260011" lon="10.1023255"><ele>6.0</ele><time>2026-05-03T17:16:47.939Z</time></trkpt><trkpt lat="36.9260646" lon="10.1022876"><ele>6.0</ele><time>2026-05-03T17:16:48.91Z</time></trkpt><trkpt lat="36.9261685" lon="10.1022145"><ele>6.0</ele><time>2026-05-03T17:16:49.913Z</time></trkpt><trkpt lat="36.9263173" lon="10.1021269"><ele>6.0</ele><time>2026-05-03T17:16:50.919Z</time></trkpt><trkpt lat="36.9264884" lon="10.1020166"><ele>6.0</ele><time>2026-05-03T17:16:51.91Z</time></trkpt><trkpt lat="36.9266696" lon="10.1018955"><ele>6.0</ele><time>2026-05-03T17:16:52.925Z</time></trkpt><trkpt lat="36.9268643" lon="10.1017543"><ele>6.0</ele><time>2026-05-03T17:16:53.917Z</time></trkpt><trkpt lat="36.9270646" lon="10.1016067"><ele>6.0</ele><time>2026-05-03T17:16:54.917Z</time></trkpt><trkpt lat="36.9272547" lon="10.1014602"><ele>6.0</ele><time>2026-05-03T17:16:55.938Z</time></trkpt><trkpt lat="36.9274616" lon="10.1013104"><ele>6.0</ele><time>2026-05-03T17:16:56.904Z</time></trkpt><trkpt lat="36.9276703" lon="10.1011579"><ele>5.5</ele><time>2026-05-03T17:16:57.929Z</time></trkpt><trkpt lat="36.9278914" lon="10.1009977"><ele>5.0</ele><time>2026-05-03T17:16:58.928Z</time></trkpt><trkpt lat="36.9281163" lon="10.1008444"><ele>5.0</ele><time>2026-05-03T17:16:59.927Z</time></trkpt><trkpt lat="36.9283397" lon="10.1006829"><ele>5.0</ele><time>2026-05-03T17:17:00.908Z</time></trkpt><trkpt lat="36.9285761" lon="10.1005176"><ele>5.0</ele><time>2026-05-03T17:17:01.904Z</time></trkpt><trkpt lat="36.9288212" lon="10.1003486"><ele>5.0</ele><time>2026-05-03T17:17:02.931Z</time></trkpt><trkpt lat="36.9290831" lon="10.1001747"><ele>5.5</ele><time>2026-05-03T17:17:03.939Z</time></trkpt><trkpt lat="36.9293489" lon="10.0999908"><ele>6.0</ele><time>2026-05-03T17:17:04.917Z</time></trkpt><trkpt lat="36.9296181" lon="10.0998061"><ele>6.0</ele><time>2026-05-03T17:17:05.919Z</time></trkpt><trkpt lat="36.9298848" lon="10.0996136"><ele>6.0</ele><time>2026-05-03T17:17:06.92Z</time></trkpt><trkpt lat="36.9301557" lon="10.0994231"><ele>6.0</ele><time>2026-05-03T17:17:07.928Z</time></trkpt><trkpt lat="36.9304282" lon="10.0992242"><ele>6.0</ele><time>2026-05-03T17:17:08.902Z</time></trkpt><trkpt lat="36.9307129" lon="10.0990256"><ele>5.5</ele><time>2026-05-03T17:17:09.948Z</time></trkpt><trkpt lat="36.9309934" lon="10.0988307"><ele>5.0</ele><time>2026-05-03T17:17:10.939Z</time></trkpt><trkpt lat="36.9312779" lon="10.0986307"><ele>5.0</ele><time>2026-05-03T17:17:11.927Z</time></trkpt><trkpt lat="36.9315626" lon="10.0984285"><ele>5.0</ele><time>2026-05-03T17:17:12.934Z</time></trkpt><trkpt lat="36.9318551" lon="10.0982271"><ele>5.0</ele><time>2026-05-03T17:17:13.93Z</time></trkpt><trkpt lat="36.9321473" lon="10.098025"><ele>5.0</ele><time>2026-05-03T17:17:14.923Z</time></trkpt><trkpt lat="36.932434" lon="10.0978223"><ele>5.5</ele><time>2026-05-03T17:17:15.899Z</time></trkpt><trkpt lat="36.9327168" lon="10.0976176"><ele>6.0</ele><time>2026-05-03T17:17:16.928Z</time></trkpt><trkpt lat="36.9329961" lon="10.0974134"><ele>6.0</ele><time>2026-05-03T17:17:17.943Z</time></trkpt><trkpt lat="36.9332845" lon="10.0972011"><ele>6.0</ele><time>2026-05-03T17:17:18.915Z</time></trkpt><trkpt lat="36.9335708" lon="10.0969938"><ele>6.0</ele><time>2026-05-03T17:17:19.901Z</time></trkpt><trkpt lat="36.9338568" lon="10.0967851"><ele>6.0</ele><time>2026-05-03T17:17:20.932Z</time></trkpt><trkpt lat="36.9341451" lon="10.0965779"><ele>5.5</ele><time>2026-05-03T17:17:21.916Z</time></trkpt><trkpt lat="36.9344285" lon="10.0963746"><ele>5.0</ele><time>2026-05-03T17:17:22.933Z</time></trkpt><trkpt lat="36.9347137" lon="10.0961741"><ele>5.0</ele><time>2026-05-03T17:17:23.926Z</time></trkpt><trkpt lat="36.9349976" lon="10.0959716"><ele>5.0</ele><time>2026-05-03T17:17:24.933Z</time></trkpt><trkpt lat="36.9352831" lon="10.0957676"><ele>5.0</ele><time>2026-05-03T17:17:25.924Z</time></trkpt><trkpt lat="36.9355669" lon="10.0955615"><ele>5.0</ele><time>2026-05-03T17:17:26.918Z</time></trkpt><trkpt lat="36.9358486" lon="10.0953528"><ele>5.5</ele><time>2026-05-03T17:17:27.929Z</time></trkpt><trkpt lat="36.9361282" lon="10.0951359"><ele>6.0</ele><time>2026-05-03T17:17:28.919Z</time></trkpt><trkpt lat="36.936405" lon="10.094915"><ele>6.0</ele><time>2026-05-03T17:17:29.903Z</time></trkpt><trkpt lat="36.9366787" lon="10.0946836"><ele>6.0</ele><time>2026-05-03T17:17:30.919Z</time></trkpt><trkpt lat="36.9369485" lon="10.0944484"><ele>6.0</ele><time>2026-05-03T17:17:31.922Z</time></trkpt><trkpt lat="36.9372131" lon="10.0942027"><ele>6.0</ele><time>2026-05-03T17:17:32.911Z</time></trkpt><trkpt lat="36.937471" lon="10.0939546"><ele>6.0</ele><time>2026-05-03T17:17:33.933Z</time></trkpt><trkpt lat="36.9377245" lon="10.0936997"><ele>6.0</ele><time>2026-05-03T17:17:34.935Z</time></trkpt><trkpt lat="36.9379732" lon="10.0934357"><ele>6.0</ele><time>2026-05-03T17:17:35.932Z</time></trkpt><trkpt lat="36.9382227" lon="10.0931633"><ele>6.0</ele><time>2026-05-03T17:17:36.939Z</time></trkpt><trkpt lat="36.9384667" lon="10.0928848"><ele>6.0</ele><time>2026-05-03T17:17:37.914Z</time></trkpt><trkpt lat="36.9387059" lon="10.0926085"><ele>6.0</ele><time>2026-05-03T17:17:38.932Z</time></trkpt><trkpt lat="36.9389412" lon="10.0923334"><ele>6.5</ele><time>2026-05-03T17:17:39.89Z</time></trkpt><trkpt lat="36.9391743" lon="10.0920476"><ele>7.0</ele><time>2026-05-03T17:17:40.918Z</time></trkpt><trkpt lat="36.9394028" lon="10.0917539"><ele>7.0</ele><time>2026-05-03T17:17:41.937Z</time></trkpt><trkpt lat="36.9396202" lon="10.0914559"><ele>7.0</ele><time>2026-05-03T17:17:42.942Z</time></trkpt><trkpt lat="36.9398356" lon="10.0911508"><ele>7.0</ele><time>2026-05-03T17:17:43.939Z</time></trkpt><trkpt lat="36.9400473" lon="10.0908404"><ele>7.0</ele><time>2026-05-03T17:17:44.928Z</time></trkpt><trkpt lat="36.9402558" lon="10.0905253"><ele>7.0</ele><time>2026-05-03T17:17:45.936Z</time></trkpt><trkpt lat="36.9404573" lon="10.090211"><ele>7.0</ele><time>2026-05-03T17:17:46.933Z</time></trkpt><trkpt lat="36.9406593" lon="10.0898896"><ele>7.0</ele><time>2026-05-03T17:17:47.923Z</time></trkpt><trkpt lat="36.940856" lon="10.0895695"><ele>7.0</ele><time>2026-05-03T17:17:48.918Z</time></trkpt><trkpt lat="36.9410561" lon="10.0892461"><ele>6.0</ele><time>2026-05-03T17:17:49.934Z</time></trkpt><trkpt lat="36.9412567" lon="10.0889213"><ele>5.0</ele><time>2026-05-03T17:17:50.932Z</time></trkpt><trkpt lat="36.9414608" lon="10.0885988"><ele>5.0</ele><time>2026-05-03T17:17:51.938Z</time></trkpt><trkpt lat="36.9416573" lon="10.0882821"><ele>5.0</ele><time>2026-05-03T17:17:52.929Z</time></trkpt><trkpt lat="36.9418562" lon="10.0879644"><ele>4.5</ele><time>2026-05-03T17:17:53.935Z</time></trkpt><trkpt lat="36.9420587" lon="10.0876473"><ele>4.0</ele><time>2026-05-03T17:17:54.93Z</time></trkpt><trkpt lat="36.942258" lon="10.0873254"><ele>4.0</ele><time>2026-05-03T17:17:55.937Z</time></trkpt><trkpt lat="36.9424557" lon="10.0870065"><ele>4.0</ele><time>2026-05-03T17:17:56.916Z</time></trkpt><trkpt lat="36.9426549" lon="10.0866824"><ele>4.5</ele><time>2026-05-03T17:17:57.919Z</time></trkpt><trkpt lat="36.9428567" lon="10.0863572"><ele>5.0</ele><time>2026-05-03T17:17:58.934Z</time></trkpt><trkpt lat="36.943057" lon="10.0860357"><ele>5.0</ele><time>2026-05-03T17:17:59.932Z</time></trkpt><trkpt lat="36.9432591" lon="10.0857141"><ele>5.0</ele><time>2026-05-03T17:18:00.914Z</time></trkpt><trkpt lat="36.9434619" lon="10.0853947"><ele>5.0</ele><time>2026-05-03T17:18:01.928Z</time></trkpt><trkpt lat="36.9436683" lon="10.0850769"><ele>5.0</ele><time>2026-05-03T17:18:02.927Z</time></trkpt><trkpt lat="36.9438755" lon="10.0847558"><ele>5.5</ele><time>2026-05-03T17:18:03.917Z</time></trkpt><trkpt lat="36.9440773" lon="10.0844404"><ele>6.0</ele><time>2026-05-03T17:18:04.932Z</time></trkpt><trkpt lat="36.944285" lon="10.0841319"><ele>6.0</ele><time>2026-05-03T17:18:05.954Z</time></trkpt><trkpt lat="36.9444974" lon="10.083817"><ele>6.0</ele><time>2026-05-03T17:18:06.919Z</time></trkpt><trkpt lat="36.9447137" lon="10.0835091"><ele>6.5</ele><time>2026-05-03T17:18:07.927Z</time></trkpt><trkpt lat="36.9449355" lon="10.0832057"><ele>7.0</ele><time>2026-05-03T17:18:08.908Z</time></trkpt><trkpt lat="36.9451537" lon="10.0829037"><ele>7.0</ele><time>2026-05-03T17:18:09.932Z</time></trkpt><trkpt lat="36.9453758" lon="10.0826075"><ele>7.0</ele><time>2026-05-03T17:18:10.916Z</time></trkpt><trkpt lat="36.9455992" lon="10.0823096"><ele>7.0</ele><time>2026-05-03T17:18:11.927Z</time></trkpt><trkpt lat="36.945826" lon="10.0820142"><ele>7.0</ele><time>2026-05-03T17:18:12.919Z</time></trkpt><trkpt lat="36.9460533" lon="10.0817241"><ele>7.0</ele><time>2026-05-03T17:18:13.922Z</time></trkpt><trkpt lat="36.9462866" lon="10.0814356"><ele>7.0</ele><time>2026-05-03T17:18:14.934Z</time></trkpt><trkpt lat="36.9465187" lon="10.0811439"><ele>6.5</ele><time>2026-05-03T17:18:15.906Z</time></trkpt><trkpt lat="36.9467507" lon="10.0808575"><ele>6.0</ele><time>2026-05-03T17:18:16.932Z</time></trkpt><trkpt lat="36.9469883" lon="10.0805758"><ele>6.0</ele><time>2026-05-03T17:18:17.905Z</time></trkpt><trkpt lat="36.9472204" lon="10.0802957"><ele>6.0</ele><time>2026-05-03T17:18:18.922Z</time></trkpt><trkpt lat="36.9474573" lon="10.080009"><ele>5.5</ele><time>2026-05-03T17:18:19.918Z</time></trkpt><trkpt lat="36.9476933" lon="10.0797256"><ele>5.0</ele><time>2026-05-03T17:18:20.93Z</time></trkpt><trkpt lat="36.9479301" lon="10.0794402"><ele>5.0</ele><time>2026-05-03T17:18:21.929Z</time></trkpt><trkpt lat="36.9481642" lon="10.0791555"><ele>5.0</ele><time>2026-05-03T17:18:22.921Z</time></trkpt><trkpt lat="36.9484004" lon="10.0788688"><ele>5.0</ele><time>2026-05-03T17:18:23.921Z</time></trkpt><trkpt lat="36.9486355" lon="10.0785862"><ele>5.0</ele><time>2026-05-03T17:18:24.931Z</time></trkpt><trkpt lat="36.9488728" lon="10.0783031"><ele>5.5</ele><time>2026-05-03T17:18:25.932Z</time></trkpt><trkpt lat="36.9491107" lon="10.0780179"><ele>6.0</ele><time>2026-05-03T17:18:26.926Z</time></trkpt><trkpt lat="36.949345" lon="10.0777373"><ele>6.0</ele><time>2026-05-03T17:18:27.946Z</time></trkpt><trkpt lat="36.9495801" lon="10.0774554"><ele>6.0</ele><time>2026-05-03T17:18:28.916Z</time></trkpt><trkpt lat="36.9498145" lon="10.0771719"><ele>6.5</ele><time>2026-05-03T17:18:29.907Z</time></trkpt><trkpt lat="36.9500484" lon="10.0768856"><ele>7.0</ele><time>2026-05-03T17:18:30.93Z</time></trkpt><trkpt lat="36.9502841" lon="10.076598"><ele>7.0</ele><time>2026-05-03T17:18:31.932Z</time></trkpt><trkpt lat="36.9505159" lon="10.0763156"><ele>7.0</ele><time>2026-05-03T17:18:32.925Z</time></trkpt><trkpt lat="36.9507527" lon="10.0760363"><ele>7.0</ele><time>2026-05-03T17:18:33.903Z</time></trkpt><trkpt lat="36.9509884" lon="10.0757509"><ele>7.0</ele><time>2026-05-03T17:18:34.923Z</time></trkpt><trkpt lat="36.9512245" lon="10.0754642"><ele>7.0</ele><time>2026-05-03T17:18:35.924Z</time></trkpt><trkpt lat="36.9514583" lon="10.0751814"><ele>7.0</ele><time>2026-05-03T17:18:36.927Z</time></trkpt><trkpt lat="36.9516903" lon="10.0749023"><ele>7.0</ele><time>2026-05-03T17:18:37.899Z</time></trkpt><trkpt lat="36.9519243" lon="10.0746209"><ele>7.0</ele><time>2026-05-03T17:18:38.893Z</time></trkpt><trkpt lat="36.9521615" lon="10.0743334"><ele>7.0</ele><time>2026-05-03T17:18:39.923Z</time></trkpt><trkpt lat="36.9523999" lon="10.0740465"><ele>7.0</ele><time>2026-05-03T17:18:40.935Z</time></trkpt><trkpt lat="36.9526356" lon="10.0737621"><ele>7.0</ele><time>2026-05-03T17:18:41.914Z</time></trkpt><trkpt lat="36.952867" lon="10.0734737"><ele>7.0</ele><time>2026-05-03T17:18:42.926Z</time></trkpt><trkpt lat="36.9531031" lon="10.0731863"><ele>7.0</ele><time>2026-05-03T17:18:43.931Z</time></trkpt><trkpt lat="36.9533349" lon="10.0729047"><ele>7.0</ele><time>2026-05-03T17:18:44.939Z</time></trkpt><trkpt lat="36.953569" lon="10.0726213"><ele>7.0</ele><time>2026-05-03T17:18:45.931Z</time></trkpt><trkpt lat="36.9538011" lon="10.0723419"><ele>7.0</ele><time>2026-05-03T17:18:46.926Z</time></trkpt><trkpt lat="36.9540261" lon="10.0720682"><ele>8.0</ele><time>2026-05-03T17:18:47.93Z</time></trkpt><trkpt lat="36.9542463" lon="10.0718008"><ele>9.0</ele><time>2026-05-03T17:18:48.913Z</time></trkpt><trkpt lat="36.9544736" lon="10.071523"><ele>9.0</ele><time>2026-05-03T17:18:49.923Z</time></trkpt><trkpt lat="36.9547145" lon="10.0712351"><ele>9.0</ele><time>2026-05-03T17:18:50.925Z</time></trkpt><trkpt lat="36.9549578" lon="10.0709455"><ele>7.5</ele><time>2026-05-03T17:18:51.924Z</time></trkpt><trkpt lat="36.9552081" lon="10.0706531"><ele>6.0</ele><time>2026-05-03T17:18:52.938Z</time></trkpt><trkpt lat="36.9554494" lon="10.0703541"><ele>6.0</ele><time>2026-05-03T17:18:53.935Z</time></trkpt><trkpt lat="36.9556902" lon="10.0700654"><ele>6.0</ele><time>2026-05-03T17:18:54.929Z</time></trkpt><trkpt lat="36.9559283" lon="10.0697711"><ele>5.5</ele><time>2026-05-03T17:18:55.909Z</time></trkpt><trkpt lat="36.9561666" lon="10.0694768"><ele>5.0</ele><time>2026-05-03T17:18:56.918Z</time></trkpt><trkpt lat="36.9564043" lon="10.0691917"><ele>5.5</ele><time>2026-05-03T17:18:57.952Z</time></trkpt><trkpt lat="36.9566448" lon="10.0689009"><ele>6.0</ele><time>2026-05-03T17:18:58.939Z</time></trkpt><trkpt lat="36.9568869" lon="10.0686054"><ele>6.0</ele><time>2026-05-03T17:18:59.935Z</time></trkpt><trkpt lat="36.9571295" lon="10.0683112"><ele>6.0</ele><time>2026-05-03T17:19:00.932Z</time></trkpt><trkpt lat="36.9573723" lon="10.0680223"><ele>6.0</ele><time>2026-05-03T17:19:01.929Z</time></trkpt><trkpt lat="36.9576137" lon="10.067731"><ele>6.0</ele><time>2026-05-03T17:19:02.922Z</time></trkpt><trkpt lat="36.957853" lon="10.0674365"><ele>6.0</ele><time>2026-05-03T17:19:03.925Z</time></trkpt><trkpt lat="36.9580989" lon="10.0671551"><ele>6.0</ele><time>2026-05-03T17:19:04.933Z</time></trkpt><trkpt lat="36.9583492" lon="10.0668795"><ele>6.5</ele><time>2026-05-03T17:19:05.94Z</time></trkpt><trkpt lat="36.9585954" lon="10.0666015"><ele>7.0</ele><time>2026-05-03T17:19:06.935Z</time></trkpt><trkpt lat="36.9588371" lon="10.0663144"><ele>7.0</ele><time>2026-05-03T17:19:07.928Z</time></trkpt><trkpt lat="36.959083" lon="10.0660272"><ele>7.0</ele><time>2026-05-03T17:19:08.914Z</time></trkpt><trkpt lat="36.9593252" lon="10.0657377"><ele>6.5</ele><time>2026-05-03T17:19:09.922Z</time></trkpt><trkpt lat="36.9595721" lon="10.0654482"><ele>6.0</ele><time>2026-05-03T17:19:10.921Z</time></trkpt><trkpt lat="36.959817" lon="10.0651569"><ele>6.0</ele><time>2026-05-03T17:19:11.911Z</time></trkpt><trkpt lat="36.9600637" lon="10.0648711"><ele>6.0</ele><time>2026-05-03T17:19:12.93Z</time></trkpt><trkpt lat="36.9603125" lon="10.0645893"><ele>6.0</ele><time>2026-05-03T17:19:13.936Z</time></trkpt><trkpt lat="36.9605635" lon="10.064307"><ele>6.0</ele><time>2026-05-03T17:19:14.928Z</time></trkpt><trkpt lat="36.9608116" lon="10.0640212"><ele>5.5</ele><time>2026-05-03T17:19:15.918Z</time></trkpt><trkpt lat="36.9610566" lon="10.0637352"><ele>5.0</ele><time>2026-05-03T17:19:16.937Z</time></trkpt><trkpt lat="36.9613071" lon="10.063449"><ele>5.0</ele><time>2026-05-03T17:19:17.893Z</time></trkpt><trkpt lat="36.9615576" lon="10.0631634"><ele>5.0</ele><time>2026-05-03T17:19:18.889Z</time></trkpt><trkpt lat="36.961802" lon="10.0628825"><ele>5.0</ele><time>2026-05-03T17:19:19.887Z</time></trkpt><trkpt lat="36.962054" lon="10.0626008"><ele>5.0</ele><time>2026-05-03T17:19:20.907Z</time></trkpt><trkpt lat="36.9623119" lon="10.0623265"><ele>5.0</ele><time>2026-05-03T17:19:21.897Z</time></trkpt><trkpt lat="36.9625666" lon="10.0620526"><ele>5.0</ele><time>2026-05-03T17:19:22.891Z</time></trkpt><trkpt lat="36.9628219" lon="10.0617806"><ele>5.0</ele><time>2026-05-03T17:19:23.889Z</time></trkpt><trkpt lat="36.9630763" lon="10.0615104"><ele>5.0</ele><time>2026-05-03T17:19:24.938Z</time></trkpt><trkpt lat="36.9633356" lon="10.0612418"><ele>5.0</ele><time>2026-05-03T17:19:25.915Z</time></trkpt><trkpt lat="36.9635965" lon="10.0609772"><ele>5.0</ele><time>2026-05-03T17:19:26.928Z</time></trkpt><trkpt lat="36.9638609" lon="10.0607197"><ele>4.5</ele><time>2026-05-03T17:19:27.903Z</time></trkpt><trkpt lat="36.9641225" lon="10.0604608"><ele>4.0</ele><time>2026-05-03T17:19:28.916Z</time></trkpt><trkpt lat="36.9643843" lon="10.060198"><ele>4.5</ele><time>2026-05-03T17:19:29.93Z</time></trkpt><trkpt lat="36.9646433" lon="10.0599354"><ele>5.0</ele><time>2026-05-03T17:19:30.931Z</time></trkpt><trkpt lat="36.9649041" lon="10.0596739"><ele>5.0</ele><time>2026-05-03T17:19:31.926Z</time></trkpt><trkpt lat="36.9651628" lon="10.059412"><ele>5.0</ele><time>2026-05-03T17:19:32.908Z</time></trkpt><trkpt lat="36.9654261" lon="10.0591568"><ele>4.5</ele><time>2026-05-03T17:19:33.932Z</time></trkpt><trkpt lat="36.9656928" lon="10.058896"><ele>4.0</ele><time>2026-05-03T17:19:34.927Z</time></trkpt><trkpt lat="36.9659561" lon="10.0586409"><ele>4.0</ele><time>2026-05-03T17:19:35.932Z</time></trkpt><trkpt lat="36.9662187" lon="10.0583937"><ele>4.0</ele><time>2026-05-03T17:19:36.936Z</time></trkpt><trkpt lat="36.9664825" lon="10.0581362"><ele>5.0</ele><time>2026-05-03T17:19:37.92Z</time></trkpt><trkpt lat="36.9667509" lon="10.0578865"><ele>6.0</ele><time>2026-05-03T17:19:38.907Z</time></trkpt><trkpt lat="36.9670197" lon="10.0576336"><ele>6.0</ele><time>2026-05-03T17:19:39.928Z</time></trkpt><trkpt lat="36.9672855" lon="10.0573806"><ele>6.0</ele><time>2026-05-03T17:19:40.938Z</time></trkpt><trkpt lat="36.9675547" lon="10.0571295"><ele>6.0</ele><time>2026-05-03T17:19:41.891Z</time></trkpt><trkpt lat="36.9678235" lon="10.0568715"><ele>6.0</ele><time>2026-05-03T17:19:42.925Z</time></trkpt><trkpt lat="36.9680939" lon="10.0566134"><ele>5.5</ele><time>2026-05-03T17:19:43.928Z</time></trkpt><trkpt lat="36.9683639" lon="10.0563605"><ele>5.0</ele><time>2026-05-03T17:19:44.902Z</time></trkpt><trkpt lat="36.9686365" lon="10.0561121"><ele>5.0</ele><time>2026-05-03T17:19:45.899Z</time></trkpt><trkpt lat="36.9689101" lon="10.0558626"><ele>5.0</ele><time>2026-05-03T17:19:46.937Z</time></trkpt><trkpt lat="36.969184" lon="10.0556179"><ele>5.5</ele><time>2026-05-03T17:19:47.925Z</time></trkpt><trkpt lat="36.9694571" lon="10.0553691"><ele>6.0</ele><time>2026-05-03T17:19:48.921Z</time></trkpt><trkpt lat="36.9697278" lon="10.0551218"><ele>5.5</ele><time>2026-05-03T17:19:49.928Z</time></trkpt><trkpt lat="36.9699994" lon="10.0548771"><ele>5.0</ele><time>2026-05-03T17:19:50.915Z</time></trkpt><trkpt lat="36.9702716" lon="10.0546281"><ele>6.5</ele><time>2026-05-03T17:19:51.942Z</time></trkpt><trkpt lat="36.9705474" lon="10.0543833"><ele>8.0</ele><time>2026-05-03T17:19:52.927Z</time></trkpt><trkpt lat="36.9708215" lon="10.0541443"><ele>12.5</ele><time>2026-05-03T17:19:53.933Z</time></trkpt><trkpt lat="36.9710925" lon="10.0539014"><ele>17.0</ele><time>2026-05-03T17:19:54.928Z</time></trkpt><trkpt lat="36.9713644" lon="10.0536603"><ele>17.0</ele><time>2026-05-03T17:19:55.925Z</time></trkpt><trkpt lat="36.9716343" lon="10.0534179"><ele>17.0</ele><time>2026-05-03T17:19:56.903Z</time></trkpt><trkpt lat="36.9719084" lon="10.0531782"><ele>17.5</ele><time>2026-05-03T17:19:57.936Z</time></trkpt><trkpt lat="36.972179" lon="10.0529341"><ele>18.0</ele><time>2026-05-03T17:19:58.922Z</time></trkpt><trkpt lat="36.9724497" lon="10.0526897"><ele>15.5</ele><time>2026-05-03T17:19:59.918Z</time></trkpt><trkpt lat="36.9727207" lon="10.0524446"><ele>13.0</ele><time>2026-05-03T17:20:00.932Z</time></trkpt><trkpt lat="36.9729895" lon="10.0521995"><ele>13.0</ele><time>2026-05-03T17:20:01.928Z</time></trkpt><trkpt lat="36.9732593" lon="10.0519512"><ele>13.0</ele><time>2026-05-03T17:20:02.933Z</time></trkpt><trkpt lat="36.9735311" lon="10.0517071"><ele>12.5</ele><time>2026-05-03T17:20:03.938Z</time></trkpt><trkpt lat="36.9738048" lon="10.0514584"><ele>12.0</ele><time>2026-05-03T17:20:04.939Z</time></trkpt><trkpt lat="36.9740794" lon="10.0512204"><ele>11.5</ele><time>2026-05-03T17:20:05.937Z</time></trkpt><trkpt lat="36.9743584" lon="10.0509815"><ele>11.0</ele><time>2026-05-03T17:20:06.935Z</time></trkpt><trkpt lat="36.9746399" lon="10.0507387"><ele>11.0</ele><time>2026-05-03T17:20:07.937Z</time></trkpt><trkpt lat="36.9749157" lon="10.0505002"><ele>11.0</ele><time>2026-05-03T17:20:08.914Z</time></trkpt><trkpt lat="36.9751933" lon="10.0502542"><ele>11.0</ele><time>2026-05-03T17:20:09.922Z</time></trkpt><trkpt lat="36.9754648" lon="10.0500162"><ele>11.0</ele><time>2026-05-03T17:20:10.929Z</time></trkpt><trkpt lat="36.9757229" lon="10.0497836"><ele>10.5</ele><time>2026-05-03T17:20:11.939Z</time></trkpt><trkpt lat="36.9759682" lon="10.0495631"><ele>10.0</ele><time>2026-05-03T17:20:12.935Z</time></trkpt><trkpt lat="36.9762072" lon="10.0493453"><ele>10.0</ele><time>2026-05-03T17:20:13.954Z</time></trkpt><trkpt lat="36.9764433" lon="10.0491298"><ele>10.0</ele><time>2026-05-03T17:20:14.918Z</time></trkpt><trkpt lat="36.9766795" lon="10.0489143"><ele>10.5</ele><time>2026-05-03T17:20:15.919Z</time></trkpt><trkpt lat="36.9769125" lon="10.0486999"><ele>11.0</ele><time>2026-05-03T17:20:16.9Z</time></trkpt><trkpt lat="36.977147" lon="10.0484942"><ele>9.5</ele><time>2026-05-03T17:20:17.936Z</time></trkpt><trkpt lat="36.9773809" lon="10.0482863"><ele>8.0</ele><time>2026-05-03T17:20:18.919Z</time></trkpt><trkpt lat="36.9776041" lon="10.0480855"><ele>8.0</ele><time>2026-05-03T17:20:19.913Z</time></trkpt><trkpt lat="36.9778238" lon="10.0478849"><ele>8.0</ele><time>2026-05-03T17:20:20.921Z</time></trkpt><trkpt lat="36.978047" lon="10.0476881"><ele>8.0</ele><time>2026-05-03T17:20:21.933Z</time></trkpt><trkpt lat="36.9782631" lon="10.0474934"><ele>8.0</ele><time>2026-05-03T17:20:22.923Z</time></trkpt><trkpt lat="36.978482" lon="10.0472973"><ele>8.5</ele><time>2026-05-03T17:20:23.926Z</time></trkpt><trkpt lat="36.9787007" lon="10.047099"><ele>9.0</ele><time>2026-05-03T17:20:24.933Z</time></trkpt><trkpt lat="36.9789233" lon="10.0469029"><ele>9.0</ele><time>2026-05-03T17:20:25.921Z</time></trkpt><trkpt lat="36.9791403" lon="10.0467108"><ele>9.0</ele><time>2026-05-03T17:20:26.932Z</time></trkpt><trkpt lat="36.9793622" lon="10.0465099"><ele>8.0</ele><time>2026-05-03T17:20:27.919Z</time></trkpt><trkpt lat="36.9795805" lon="10.0463116"><ele>7.0</ele><time>2026-05-03T17:20:28.932Z</time></trkpt><trkpt lat="36.9797963" lon="10.0461101"><ele>6.5</ele><time>2026-05-03T17:20:29.937Z</time></trkpt><trkpt lat="36.9800173" lon="10.0459082"><ele>6.0</ele><time>2026-05-03T17:20:30.925Z</time></trkpt><trkpt lat="36.9802317" lon="10.0457045"><ele>6.0</ele><time>2026-05-03T17:20:31.923Z</time></trkpt><trkpt lat="36.9804473" lon="10.0454949"><ele>6.0</ele><time>2026-05-03T17:20:32.914Z</time></trkpt><trkpt lat="36.9806585" lon="10.0452857"><ele>6.0</ele><time>2026-05-03T17:20:33.936Z</time></trkpt><trkpt lat="36.9808722" lon="10.0450764"><ele>6.0</ele><time>2026-05-03T17:20:34.943Z</time></trkpt><trkpt lat="36.9810862" lon="10.0448676"><ele>6.5</ele><time>2026-05-03T17:20:35.918Z</time></trkpt><trkpt lat="36.9812989" lon="10.0446538"><ele>7.0</ele><time>2026-05-03T17:20:36.932Z</time></trkpt><trkpt lat="36.9815144" lon="10.0444472"><ele>6.5</ele><time>2026-05-03T17:20:37.941Z</time></trkpt><trkpt lat="36.9817317" lon="10.0442465"><ele>6.0</ele><time>2026-05-03T17:20:38.922Z</time></trkpt><trkpt lat="36.9819437" lon="10.0440432"><ele>6.0</ele><time>2026-05-03T17:20:39.934Z</time></trkpt><trkpt lat="36.9821492" lon="10.0438323"><ele>6.0</ele><time>2026-05-03T17:20:40.913Z</time></trkpt><trkpt lat="36.9823511" lon="10.0436132"><ele>5.5</ele><time>2026-05-03T17:20:41.943Z</time></trkpt><trkpt lat="36.9825534" lon="10.0433918"><ele>5.0</ele><time>2026-05-03T17:20:42.931Z</time></trkpt><trkpt lat="36.9827578" lon="10.0431655"><ele>6.0</ele><time>2026-05-03T17:20:43.921Z</time></trkpt><trkpt lat="36.9829631" lon="10.0429375"><ele>7.0</ele><time>2026-05-03T17:20:44.929Z</time></trkpt><trkpt lat="36.9831638" lon="10.0427106"><ele>7.0</ele><time>2026-05-03T17:20:45.913Z</time></trkpt><trkpt lat="36.9833601" lon="10.0424848"><ele>7.0</ele><time>2026-05-03T17:20:46.919Z</time></trkpt><trkpt lat="36.9835585" lon="10.0422539"><ele>7.0</ele><time>2026-05-03T17:20:47.928Z</time></trkpt><trkpt lat="36.9837554" lon="10.0420179"><ele>7.0</ele><time>2026-05-03T17:20:48.919Z</time></trkpt><trkpt lat="36.9839485" lon="10.0417812"><ele>7.0</ele><time>2026-05-03T17:20:49.927Z</time></trkpt><trkpt lat="36.9841428" lon="10.0415462"><ele>7.0</ele><time>2026-05-03T17:20:50.93Z</time></trkpt><trkpt lat="36.984331" lon="10.041313"><ele>7.0</ele><time>2026-05-03T17:20:51.933Z</time></trkpt><trkpt lat="36.9845155" lon="10.0410732"><ele>7.0</ele><time>2026-05-03T17:20:52.929Z</time></trkpt><trkpt lat="36.9847049" lon="10.0408295"><ele>7.0</ele><time>2026-05-03T17:20:53.939Z</time></trkpt><trkpt lat="36.9848926" lon="10.040583"><ele>7.0</ele><time>2026-05-03T17:20:54.922Z</time></trkpt><trkpt lat="36.985082" lon="10.0403371"><ele>7.0</ele><time>2026-05-03T17:20:55.937Z</time></trkpt><trkpt lat="36.9852667" lon="10.0400868"><ele>7.0</ele><time>2026-05-03T17:20:56.913Z</time></trkpt><trkpt lat="36.9854498" lon="10.0398373"><ele>7.5</ele><time>2026-05-03T17:20:57.93Z</time></trkpt><trkpt lat="36.9856366" lon="10.0395917"><ele>8.0</ele><time>2026-05-03T17:20:58.914Z</time></trkpt><trkpt lat="36.985818" lon="10.0393431"><ele>7.5</ele><time>2026-05-03T17:20:59.925Z</time></trkpt><trkpt lat="36.9859989" lon="10.039088"><ele>7.0</ele><time>2026-05-03T17:21:00.938Z</time></trkpt><trkpt lat="36.9861732" lon="10.0388292"><ele>7.0</ele><time>2026-05-03T17:21:01.93Z</time></trkpt><trkpt lat="36.98635" lon="10.0385701"><ele>7.0</ele><time>2026-05-03T17:21:02.926Z</time></trkpt><trkpt lat="36.9865238" lon="10.0383108"><ele>7.0</ele><time>2026-05-03T17:21:03.925Z</time></trkpt><trkpt lat="36.9866917" lon="10.0380509"><ele>7.0</ele><time>2026-05-03T17:21:04.942Z</time></trkpt><trkpt lat="36.9868621" lon="10.0377844"><ele>7.0</ele><time>2026-05-03T17:21:05.935Z</time></trkpt><trkpt lat="36.9870325" lon="10.0375239"><ele>7.0</ele><time>2026-05-03T17:21:06.934Z</time></trkpt><trkpt lat="36.9871978" lon="10.037263"><ele>7.0</ele><time>2026-05-03T17:21:07.935Z</time></trkpt><trkpt lat="36.9873635" lon="10.0370042"><ele>7.0</ele><time>2026-05-03T17:21:08.926Z</time></trkpt><trkpt lat="36.9875308" lon="10.0367401"><ele>7.0</ele><time>2026-05-03T17:21:09.929Z</time></trkpt><trkpt lat="36.9877015" lon="10.0364723"><ele>7.0</ele><time>2026-05-03T17:21:10.942Z</time></trkpt><trkpt lat="36.98787" lon="10.0362068"><ele>7.0</ele><time>2026-05-03T17:21:11.924Z</time></trkpt><trkpt lat="36.988036" lon="10.0359415"><ele>7.0</ele><time>2026-05-03T17:21:12.928Z</time></trkpt><trkpt lat="36.9882026" lon="10.0356777"><ele>7.0</ele><time>2026-05-03T17:21:13.9Z</time></trkpt><trkpt lat="36.9883692" lon="10.0354155"><ele>7.0</ele><time>2026-05-03T17:21:14.918Z</time></trkpt><trkpt lat="36.988535" lon="10.0351592"><ele>7.5</ele><time>2026-05-03T17:21:15.928Z</time></trkpt><trkpt lat="36.9887019" lon="10.0348941"><ele>8.0</ele><time>2026-05-03T17:21:16.917Z</time></trkpt><trkpt lat="36.9888705" lon="10.0346298"><ele>8.0</ele><time>2026-05-03T17:21:17.939Z</time></trkpt><trkpt lat="36.989039" lon="10.0343657"><ele>8.0</ele><time>2026-05-03T17:21:18.93Z</time></trkpt><trkpt lat="36.9892078" lon="10.0341013"><ele>8.5</ele><time>2026-05-03T17:21:19.937Z</time></trkpt><trkpt lat="36.9893791" lon="10.0338351"><ele>9.0</ele><time>2026-05-03T17:21:20.931Z</time></trkpt><trkpt lat="36.9895481" lon="10.0335731"><ele>9.0</ele><time>2026-05-03T17:21:21.939Z</time></trkpt><trkpt lat="36.9897122" lon="10.0333098"><ele>9.0</ele><time>2026-05-03T17:21:22.935Z</time></trkpt><trkpt lat="36.9898805" lon="10.0330425"><ele>8.5</ele><time>2026-05-03T17:21:23.943Z</time></trkpt><trkpt lat="36.9900478" lon="10.0327781"><ele>8.0</ele><time>2026-05-03T17:21:24.936Z</time></trkpt><trkpt lat="36.9902197" lon="10.0325137"><ele>8.0</ele><time>2026-05-03T17:21:25.94Z</time></trkpt><trkpt lat="36.9903889" lon="10.0322536"><ele>8.0</ele><time>2026-05-03T17:21:26.948Z</time></trkpt><trkpt lat="36.990557" lon="10.0319919"><ele>8.0</ele><time>2026-05-03T17:21:27.945Z</time></trkpt><trkpt lat="36.9907244" lon="10.0317254"><ele>8.0</ele><time>2026-05-03T17:21:28.936Z</time></trkpt><trkpt lat="36.9908895" lon="10.0314589"><ele>8.0</ele><time>2026-05-03T17:21:29.918Z</time></trkpt><trkpt lat="36.9910585" lon="10.0311948"><ele>8.0</ele><time>2026-05-03T17:21:30.921Z</time></trkpt><trkpt lat="36.9912299" lon="10.0309351"><ele>8.0</ele><time>2026-05-03T17:21:31.935Z</time></trkpt><trkpt lat="36.9913997" lon="10.0306771"><ele>8.0</ele><time>2026-05-03T17:21:32.92Z</time></trkpt><trkpt lat="36.9915694" lon="10.0304162"><ele>8.0</ele><time>2026-05-03T17:21:33.922Z</time></trkpt><trkpt lat="36.9917368" lon="10.0301523"><ele>8.0</ele><time>2026-05-03T17:21:34.914Z</time></trkpt><trkpt lat="36.9919028" lon="10.0298849"><ele>8.0</ele><time>2026-05-03T17:21:35.919Z</time></trkpt><trkpt lat="36.9920724" lon="10.0296226"><ele>8.0</ele><time>2026-05-03T17:21:36.908Z</time></trkpt><trkpt lat="36.9922416" lon="10.0293569"><ele>8.0</ele><time>2026-05-03T17:21:37.945Z</time></trkpt><trkpt lat="36.9924122" lon="10.0290932"><ele>8.0</ele><time>2026-05-03T17:21:38.92Z</time></trkpt><trkpt lat="36.9925793" lon="10.028831"><ele>7.5</ele><time>2026-05-03T17:21:39.933Z</time></trkpt><trkpt lat="36.9927526" lon="10.028572"><ele>7.0</ele><time>2026-05-03T17:21:40.929Z</time></trkpt><trkpt lat="36.9929169" lon="10.0283176"><ele>7.0</ele><time>2026-05-03T17:21:41.929Z</time></trkpt><trkpt lat="36.9930777" lon="10.0280622"><ele>7.0</ele><time>2026-05-03T17:21:42.932Z</time></trkpt><trkpt lat="36.9932383" lon="10.0278078"><ele>7.5</ele><time>2026-05-03T17:21:43.932Z</time></trkpt><trkpt lat="36.9934005" lon="10.0275537"><ele>8.0</ele><time>2026-05-03T17:21:44.916Z</time></trkpt><trkpt lat="36.9935631" lon="10.0272919"><ele>8.5</ele><time>2026-05-03T17:21:45.926Z</time></trkpt><trkpt lat="36.9937244" lon="10.0270372"><ele>9.0</ele><time>2026-05-03T17:21:46.92Z</time></trkpt><trkpt lat="36.9938882" lon="10.0267732"><ele>8.5</ele><time>2026-05-03T17:21:47.927Z</time></trkpt><trkpt lat="36.994054" lon="10.0265144"><ele>8.0</ele><time>2026-05-03T17:21:48.925Z</time></trkpt><trkpt lat="36.9942222" lon="10.0262551"><ele>8.0</ele><time>2026-05-03T17:21:49.912Z</time></trkpt><trkpt lat="36.9943914" lon="10.026003"><ele>8.0</ele><time>2026-05-03T17:21:50.923Z</time></trkpt><trkpt lat="36.9945581" lon="10.0257468"><ele>7.5</ele><time>2026-05-03T17:21:51.91Z</time></trkpt><trkpt lat="36.9947238" lon="10.0254931"><ele>7.0</ele><time>2026-05-03T17:21:52.935Z</time></trkpt><trkpt lat="36.9948892" lon="10.0252367"><ele>7.0</ele><time>2026-05-03T17:21:53.937Z</time></trkpt><trkpt lat="36.9950553" lon="10.0249818"><ele>7.0</ele><time>2026-05-03T17:21:54.909Z</time></trkpt><trkpt lat="36.9952222" lon="10.024731"><ele>7.5</ele><time>2026-05-03T17:21:55.918Z</time></trkpt><trkpt lat="36.9953897" lon="10.0244728"><ele>8.0</ele><time>2026-05-03T17:21:56.926Z</time></trkpt><trkpt lat="36.9955594" lon="10.0242155"><ele>8.0</ele><time>2026-05-03T17:21:57.911Z</time></trkpt><trkpt lat="36.9957253" lon="10.0239576"><ele>8.0</ele><time>2026-05-03T17:21:58.927Z</time></trkpt><trkpt lat="36.9958996" lon="10.023708"><ele>8.0</ele><time>2026-05-03T17:21:59.939Z</time></trkpt><trkpt lat="36.9960726" lon="10.0234612"><ele>8.0</ele><time>2026-05-03T17:22:00.932Z</time></trkpt><trkpt lat="36.996243" lon="10.0232131"><ele>8.0</ele><time>2026-05-03T17:22:01.939Z</time></trkpt><trkpt lat="36.9964159" lon="10.0229643"><ele>8.0</ele><time>2026-05-03T17:22:02.916Z</time></trkpt><trkpt lat="36.9965923" lon="10.0227212"><ele>7.5</ele><time>2026-05-03T17:22:03.936Z</time></trkpt><trkpt lat="36.9967697" lon="10.0224775"><ele>7.0</ele><time>2026-05-03T17:22:04.935Z</time></trkpt><trkpt lat="36.9969505" lon="10.0222374"><ele>7.0</ele><time>2026-05-03T17:22:05.931Z</time></trkpt><trkpt lat="36.9971309" lon="10.0220021"><ele>7.0</ele><time>2026-05-03T17:22:06.927Z</time></trkpt><trkpt lat="36.9973111" lon="10.0217601"><ele>7.0</ele><time>2026-05-03T17:22:07.946Z</time></trkpt><trkpt lat="36.9974882" lon="10.0215229"><ele>7.0</ele><time>2026-05-03T17:22:08.935Z</time></trkpt><trkpt lat="36.997677" lon="10.0212883"><ele>7.0</ele><time>2026-05-03T17:22:09.923Z</time></trkpt><trkpt lat="36.9978626" lon="10.0210535"><ele>7.0</ele><time>2026-05-03T17:22:10.929Z</time></trkpt><trkpt lat="36.9980468" lon="10.0208182"><ele>6.5</ele><time>2026-05-03T17:22:11.93Z</time></trkpt><trkpt lat="36.9982327" lon="10.020584"><ele>6.0</ele><time>2026-05-03T17:22:12.919Z</time></trkpt><trkpt lat="36.9984206" lon="10.020345"><ele>6.0</ele><time>2026-05-03T17:22:13.92Z</time></trkpt><trkpt lat="36.99861" lon="10.0201149"><ele>6.0</ele><time>2026-05-03T17:22:14.928Z</time></trkpt><trkpt lat="36.9987994" lon="10.0198903"><ele>6.5</ele><time>2026-05-03T17:22:15.922Z</time></trkpt><trkpt lat="36.9989869" lon="10.019669"><ele>7.0</ele><time>2026-05-03T17:22:16.909Z</time></trkpt><trkpt lat="36.9991791" lon="10.0194447"><ele>6.0</ele><time>2026-05-03T17:22:17.925Z</time></trkpt><trkpt lat="36.9993726" lon="10.019221"><ele>5.0</ele><time>2026-05-03T17:22:18.933Z</time></trkpt><trkpt lat="36.9995693" lon="10.0190012"><ele>5.0</ele><time>2026-05-03T17:22:19.921Z</time></trkpt><trkpt lat="36.9997641" lon="10.0187777"><ele>5.0</ele><time>2026-05-03T17:22:20.924Z</time></trkpt><trkpt lat="36.9999601" lon="10.0185599"><ele>5.0</ele><time>2026-05-03T17:22:21.938Z</time></trkpt><trkpt lat="37.0001615" lon="10.01834"><ele>5.0</ele><time>2026-05-03T17:22:22.92Z</time></trkpt><trkpt lat="37.0003555" lon="10.0181223"><ele>5.5</ele><time>2026-05-03T17:22:23.927Z</time></trkpt><trkpt lat="37.0005536" lon="10.0179026"><ele>6.0</ele><time>2026-05-03T17:22:24.933Z</time></trkpt><trkpt lat="37.000753" lon="10.0176882"><ele>6.0</ele><time>2026-05-03T17:22:25.908Z</time></trkpt><trkpt lat="37.0009527" lon="10.0174779"><ele>6.0</ele><time>2026-05-03T17:22:26.926Z</time></trkpt><trkpt lat="37.0011529" lon="10.017267"><ele>6.0</ele><time>2026-05-03T17:22:27.915Z</time></trkpt><trkpt lat="37.0013562" lon="10.0170546"><ele>6.0</ele><time>2026-05-03T17:22:28.95Z</time></trkpt><trkpt lat="37.0015597" lon="10.0168485"><ele>5.5</ele><time>2026-05-03T17:22:29.918Z</time></trkpt><trkpt lat="37.0017598" lon="10.0166392"><ele>5.0</ele><time>2026-05-03T17:22:30.928Z</time></trkpt><trkpt lat="37.0019595" lon="10.0164268"><ele>5.0</ele><time>2026-05-03T17:22:31.929Z</time></trkpt><trkpt lat="37.0021615" lon="10.0162171"><ele>5.0</ele><time>2026-05-03T17:22:32.916Z</time></trkpt><trkpt lat="37.0023679" lon="10.0160059"><ele>5.0</ele><time>2026-05-03T17:22:33.936Z</time></trkpt><trkpt lat="37.0025809" lon="10.0158076"><ele>5.0</ele><time>2026-05-03T17:22:34.929Z</time></trkpt><trkpt lat="37.0027917" lon="10.0156088"><ele>5.0</ele><time>2026-05-03T17:22:35.927Z</time></trkpt><trkpt lat="37.0030038" lon="10.0154123"><ele>5.0</ele><time>2026-05-03T17:22:36.924Z</time></trkpt><trkpt lat="37.0032133" lon="10.0152141"><ele>5.5</ele><time>2026-05-03T17:22:37.936Z</time></trkpt><trkpt lat="37.0034236" lon="10.0150163"><ele>6.0</ele><time>2026-05-03T17:22:38.933Z</time></trkpt><trkpt lat="37.00364" lon="10.0148241"><ele>6.5</ele><time>2026-05-03T17:22:39.937Z</time></trkpt><trkpt lat="37.0038567" lon="10.0146357"><ele>7.0</ele><time>2026-05-03T17:22:40.905Z</time></trkpt><trkpt lat="37.0040723" lon="10.0144489"><ele>7.0</ele><time>2026-05-03T17:22:41.942Z</time></trkpt><trkpt lat="37.0042927" lon="10.0142611"><ele>7.0</ele><time>2026-05-03T17:22:42.932Z</time></trkpt><trkpt lat="37.0045065" lon="10.0140664"><ele>6.5</ele><time>2026-05-03T17:22:43.918Z</time></trkpt><trkpt lat="37.0047168" lon="10.0138728"><ele>6.0</ele><time>2026-05-03T17:22:44.929Z</time></trkpt><trkpt lat="37.0049239" lon="10.0136735"><ele>6.0</ele><time>2026-05-03T17:22:45.924Z</time></trkpt><trkpt lat="37.0051325" lon="10.0134747"><ele>6.0</ele><time>2026-05-03T17:22:46.919Z</time></trkpt><trkpt lat="37.0053403" lon="10.0132805"><ele>6.0</ele><time>2026-05-03T17:22:47.924Z</time></trkpt><trkpt lat="37.0055527" lon="10.0130821"><ele>6.0</ele><time>2026-05-03T17:22:48.93Z</time></trkpt><trkpt lat="37.0057646" lon="10.0128874"><ele>7.0</ele><time>2026-05-03T17:22:49.924Z</time></trkpt><trkpt lat="37.0059769" lon="10.0126878"><ele>8.0</ele><time>2026-05-03T17:22:50.926Z</time></trkpt><trkpt lat="37.0061909" lon="10.012493"><ele>6.5</ele><time>2026-05-03T17:22:51.931Z</time></trkpt><trkpt lat="37.0064067" lon="10.0122943"><ele>5.0</ele><time>2026-05-03T17:22:52.923Z</time></trkpt><trkpt lat="37.0066146" lon="10.0120914"><ele>5.5</ele><time>2026-05-03T17:22:53.933Z</time></trkpt><trkpt lat="37.0068264" lon="10.0118922"><ele>6.0</ele><time>2026-05-03T17:22:54.93Z</time></trkpt><trkpt lat="37.0070357" lon="10.01169"><ele>6.5</ele><time>2026-05-03T17:22:55.92Z</time></trkpt><trkpt lat="37.0072474" lon="10.0114939"><ele>7.0</ele><time>2026-05-03T17:22:56.931Z</time></trkpt><trkpt lat="37.0074555" lon="10.0112999"><ele>7.0</ele><time>2026-05-03T17:22:57.932Z</time></trkpt><trkpt lat="37.0076713" lon="10.0111068"><ele>7.0</ele><time>2026-05-03T17:22:58.93Z</time></trkpt><trkpt lat="37.0078855" lon="10.0109131"><ele>7.0</ele><time>2026-05-03T17:22:59.917Z</time></trkpt><trkpt lat="37.0080962" lon="10.0107164"><ele>7.0</ele><time>2026-05-03T17:23:00.918Z</time></trkpt><trkpt lat="37.0083101" lon="10.0105251"><ele>6.5</ele><time>2026-05-03T17:23:01.931Z</time></trkpt><trkpt lat="37.0085216" lon="10.0103288"><ele>6.0</ele><time>2026-05-03T17:23:02.909Z</time></trkpt><trkpt lat="37.0087305" lon="10.0101242"><ele>6.5</ele><time>2026-05-03T17:23:03.926Z</time></trkpt><trkpt lat="37.0089396" lon="10.009927"><ele>7.0</ele><time>2026-05-03T17:23:04.926Z</time></trkpt><trkpt lat="37.0091493" lon="10.0097285"><ele>7.0</ele><time>2026-05-03T17:23:05.927Z</time></trkpt><trkpt lat="37.0093607" lon="10.0095302"><ele>7.0</ele><time>2026-05-03T17:23:06.923Z</time></trkpt><trkpt lat="37.0095707" lon="10.00933"><ele>7.5</ele><time>2026-05-03T17:23:07.934Z</time></trkpt><trkpt lat="37.0097788" lon="10.0091343"><ele>8.0</ele><time>2026-05-03T17:23:08.924Z</time></trkpt><trkpt lat="37.0099881" lon="10.0089374"><ele>7.0</ele><time>2026-05-03T17:23:09.924Z</time></trkpt><trkpt lat="37.0101956" lon="10.0087397"><ele>6.0</ele><time>2026-05-03T17:23:10.923Z</time></trkpt><trkpt lat="37.0104035" lon="10.0085434"><ele>6.0</ele><time>2026-05-03T17:23:11.954Z</time></trkpt><trkpt lat="37.010618" lon="10.0083513"><ele>6.0</ele><time>2026-05-03T17:23:12.924Z</time></trkpt><trkpt lat="37.0108292" lon="10.0081549"><ele>6.0</ele><time>2026-05-03T17:23:13.928Z</time></trkpt><trkpt lat="37.0110404" lon="10.0079542"><ele>6.0</ele><time>2026-05-03T17:23:14.937Z</time></trkpt><trkpt lat="37.0112518" lon="10.0077581"><ele>6.0</ele><time>2026-05-03T17:23:15.939Z</time></trkpt><trkpt lat="37.0114631" lon="10.0075623"><ele>6.0</ele><time>2026-05-03T17:23:16.925Z</time></trkpt><trkpt lat="37.0116712" lon="10.0073678"><ele>6.0</ele><time>2026-05-03T17:23:17.936Z</time></trkpt><trkpt lat="37.0118862" lon="10.007167"><ele>6.0</ele><time>2026-05-03T17:23:18.927Z</time></trkpt><trkpt lat="37.0120968" lon="10.0069715"><ele>6.0</ele><time>2026-05-03T17:23:19.922Z</time></trkpt><trkpt lat="37.0123095" lon="10.0067701"><ele>6.0</ele><time>2026-05-03T17:23:20.919Z</time></trkpt><trkpt lat="37.0125221" lon="10.0065709"><ele>6.0</ele><time>2026-05-03T17:23:21.938Z</time></trkpt><trkpt lat="37.0127307" lon="10.0063771"><ele>6.0</ele><time>2026-05-03T17:23:22.929Z</time></trkpt><trkpt lat="37.0129408" lon="10.0061766"><ele>6.0</ele><time>2026-05-03T17:23:23.936Z</time></trkpt><trkpt lat="37.0131505" lon="10.0059813"><ele>6.0</ele><time>2026-05-03T17:23:24.92Z</time></trkpt><trkpt lat="37.0133631" lon="10.0057878"><ele>5.5</ele><time>2026-05-03T17:23:25.94Z</time></trkpt><trkpt lat="37.0135741" lon="10.0055926"><ele>5.0</ele><time>2026-05-03T17:23:26.915Z</time></trkpt><trkpt lat="37.0137866" lon="10.0053984"><ele>5.0</ele><time>2026-05-03T17:23:27.912Z</time></trkpt><trkpt lat="37.0139977" lon="10.0052"><ele>5.0</ele><time>2026-05-03T17:23:28.931Z</time></trkpt><trkpt lat="37.014211" lon="10.0050042"><ele>5.0</ele><time>2026-05-03T17:23:29.918Z</time></trkpt><trkpt lat="37.0144218" lon="10.0048077"><ele>5.0</ele><time>2026-05-03T17:23:30.928Z</time></trkpt><trkpt lat="37.0146334" lon="10.0046115"><ele>5.0</ele><time>2026-05-03T17:23:31.936Z</time></trkpt><trkpt lat="37.0148482" lon="10.0044133"><ele>5.0</ele><time>2026-05-03T17:23:32.927Z</time></trkpt><trkpt lat="37.0150583" lon="10.004214"><ele>5.0</ele><time>2026-05-03T17:23:33.923Z</time></trkpt><trkpt lat="37.0152671" lon="10.004014"><ele>5.0</ele><time>2026-05-03T17:23:34.925Z</time></trkpt><trkpt lat="37.015474" lon="10.0038156"><ele>5.0</ele><time>2026-05-03T17:23:35.96Z</time></trkpt><trkpt lat="37.0156821" lon="10.0036202"><ele>5.0</ele><time>2026-05-03T17:23:36.92Z</time></trkpt><trkpt lat="37.015893" lon="10.0034212"><ele>5.0</ele><time>2026-05-03T17:23:37.936Z</time></trkpt><trkpt lat="37.0161047" lon="10.0032253"><ele>5.0</ele><time>2026-05-03T17:23:38.934Z</time></trkpt><trkpt lat="37.0163127" lon="10.0030286"><ele>5.0</ele><time>2026-05-03T17:23:39.918Z</time></trkpt><trkpt lat="37.0165223" lon="10.0028285"><ele>5.0</ele><time>2026-05-03T17:23:40.896Z</time></trkpt><trkpt lat="37.0167349" lon="10.0026328"><ele>5.0</ele><time>2026-05-03T17:23:41.924Z</time></trkpt><trkpt lat="37.0169423" lon="10.0024404"><ele>5.0</ele><time>2026-05-03T17:23:42.935Z</time></trkpt><trkpt lat="37.0171531" lon="10.0022502"><ele>5.0</ele><time>2026-05-03T17:23:43.915Z</time></trkpt><trkpt lat="37.0173645" lon="10.0020537"><ele>5.0</ele><time>2026-05-03T17:23:44.93Z</time></trkpt><trkpt lat="37.0175766" lon="10.0018623"><ele>5.0</ele><time>2026-05-03T17:23:45.941Z</time></trkpt><trkpt lat="37.0177862" lon="10.0016733"><ele>5.0</ele><time>2026-05-03T17:23:46.93Z</time></trkpt><trkpt lat="37.0179981" lon="10.0014807"><ele>5.0</ele><time>2026-05-03T17:23:47.922Z</time></trkpt><trkpt lat="37.0182154" lon="10.0012928"><ele>5.0</ele><time>2026-05-03T17:23:48.924Z</time></trkpt><trkpt lat="37.0184351" lon="10.0011099"><ele>5.0</ele><time>2026-05-03T17:23:49.911Z</time></trkpt><trkpt lat="37.0186573" lon="10.0009253"><ele>5.0</ele><time>2026-05-03T17:23:50.931Z</time></trkpt><trkpt lat="37.0188761" lon="10.0007483"><ele>5.0</ele><time>2026-05-03T17:23:51.924Z</time></trkpt><trkpt lat="37.0190975" lon="10.0005723"><ele>5.0</ele><time>2026-05-03T17:23:52.917Z</time></trkpt><trkpt lat="37.0193206" lon="10.0003932"><ele>5.0</ele><time>2026-05-03T17:23:53.932Z</time></trkpt><trkpt lat="37.0195449" lon="10.0002155"><ele>5.0</ele><time>2026-05-03T17:23:54.926Z</time></trkpt><trkpt lat="37.0197703" lon="10.0000479"><ele>5.5</ele><time>2026-05-03T17:23:55.946Z</time></trkpt><trkpt lat="37.0199942" lon="9.9998796"><ele>6.0</ele><time>2026-05-03T17:23:56.926Z</time></trkpt><trkpt lat="37.020223" lon="9.9997112"><ele>6.0</ele><time>2026-05-03T17:23:57.94Z</time></trkpt><trkpt lat="37.0204547" lon="9.999552"><ele>6.0</ele><time>2026-05-03T17:23:58.926Z</time></trkpt><trkpt lat="37.0206834" lon="9.9993915"><ele>6.0</ele><time>2026-05-03T17:23:59.922Z</time></trkpt><trkpt lat="37.0209117" lon="9.9992348"><ele>6.0</ele><time>2026-05-03T17:24:00.932Z</time></trkpt><trkpt lat="37.0211455" lon="9.999082"><ele>5.5</ele><time>2026-05-03T17:24:01.935Z</time></trkpt><trkpt lat="37.0213806" lon="9.9989251"><ele>5.0</ele><time>2026-05-03T17:24:02.927Z</time></trkpt><trkpt lat="37.0216142" lon="9.9987782"><ele>5.0</ele><time>2026-05-03T17:24:03.931Z</time></trkpt><trkpt lat="37.0218519" lon="9.9986292"><ele>5.0</ele><time>2026-05-03T17:24:04.906Z</time></trkpt><trkpt lat="37.0220912" lon="9.9984859"><ele>5.0</ele><time>2026-05-03T17:24:05.929Z</time></trkpt><trkpt lat="37.0223313" lon="9.9983405"><ele>5.0</ele><time>2026-05-03T17:24:06.929Z</time></trkpt><trkpt lat="37.0225699" lon="9.9982035"><ele>6.0</ele><time>2026-05-03T17:24:07.928Z</time></trkpt><trkpt lat="37.0228098" lon="9.9980604"><ele>7.0</ele><time>2026-05-03T17:24:08.938Z</time></trkpt><trkpt lat="37.023046" lon="9.9979208"><ele>7.0</ele><time>2026-05-03T17:24:09.92Z</time></trkpt><trkpt lat="37.0232853" lon="9.9977859"><ele>7.0</ele><time>2026-05-03T17:24:10.923Z</time></trkpt><trkpt lat="37.0235237" lon="9.9976529"><ele>6.5</ele><time>2026-05-03T17:24:11.933Z</time></trkpt><trkpt lat="37.0237688" lon="9.9975213"><ele>6.0</ele><time>2026-05-03T17:24:12.923Z</time></trkpt><trkpt lat="37.0240141" lon="9.9973947"><ele>6.0</ele><time>2026-05-03T17:24:13.945Z</time></trkpt><trkpt lat="37.0242551" lon="9.9972711"><ele>6.0</ele><time>2026-05-03T17:24:14.928Z</time></trkpt><trkpt lat="37.0245015" lon="9.9971501"><ele>6.0</ele><time>2026-05-03T17:24:15.919Z</time></trkpt><trkpt lat="37.0247457" lon="9.9970314"><ele>6.0</ele><time>2026-05-03T17:24:16.898Z</time></trkpt><trkpt lat="37.024991" lon="9.9969156"><ele>6.5</ele><time>2026-05-03T17:24:17.928Z</time></trkpt><trkpt lat="37.0252361" lon="9.9968029"><ele>7.0</ele><time>2026-05-03T17:24:18.95Z</time></trkpt><trkpt lat="37.0254889" lon="9.9966927"><ele>6.5</ele><time>2026-05-03T17:24:19.928Z</time></trkpt><trkpt lat="37.025738" lon="9.996586"><ele>6.0</ele><time>2026-05-03T17:24:20.932Z</time></trkpt><trkpt lat="37.025987" lon="9.9964821"><ele>6.0</ele><time>2026-05-03T17:24:21.934Z</time></trkpt><trkpt lat="37.0262393" lon="9.9963803"><ele>6.0</ele><time>2026-05-03T17:24:22.921Z</time></trkpt><trkpt lat="37.0264909" lon="9.9962805"><ele>6.0</ele><time>2026-05-03T17:24:23.942Z</time></trkpt><trkpt lat="37.0267407" lon="9.9961817"><ele>6.0</ele><time>2026-05-03T17:24:24.929Z</time></trkpt><trkpt lat="37.0269937" lon="9.9960837"><ele>6.0</ele><time>2026-05-03T17:24:25.931Z</time></trkpt><trkpt lat="37.0272451" lon="9.9959962"><ele>6.0</ele><time>2026-05-03T17:24:26.931Z</time></trkpt><trkpt lat="37.027498" lon="9.9959023"><ele>5.5</ele><time>2026-05-03T17:24:27.911Z</time></trkpt><trkpt lat="37.0277497" lon="9.9958116"><ele>5.0</ele><time>2026-05-03T17:24:28.919Z</time></trkpt><trkpt lat="37.0280045" lon="9.9957277"><ele>5.0</ele><time>2026-05-03T17:24:29.936Z</time></trkpt><trkpt lat="37.0282648" lon="9.9956488"><ele>5.0</ele><time>2026-05-03T17:24:30.915Z</time></trkpt><trkpt lat="37.0285215" lon="9.995564"><ele>5.5</ele><time>2026-05-03T17:24:31.921Z</time></trkpt><trkpt lat="37.0287764" lon="9.9954889"><ele>6.0</ele><time>2026-05-03T17:24:32.924Z</time></trkpt><trkpt lat="37.0290346" lon="9.9954138"><ele>5.0</ele><time>2026-05-03T17:24:33.92Z</time></trkpt><trkpt lat="37.0292886" lon="9.9953372"><ele>4.0</ele><time>2026-05-03T17:24:34.916Z</time></trkpt><trkpt lat="37.0295466" lon="9.9952671"><ele>4.0</ele><time>2026-05-03T17:24:35.934Z</time></trkpt><trkpt lat="37.0298036" lon="9.9951912"><ele>4.0</ele><time>2026-05-03T17:24:36.902Z</time></trkpt><trkpt lat="37.0300569" lon="9.9951242"><ele>5.0</ele><time>2026-05-03T17:24:37.924Z</time></trkpt><trkpt lat="37.0303166" lon="9.9950554"><ele>6.0</ele><time>2026-05-03T17:24:38.93Z</time></trkpt><trkpt lat="37.0305781" lon="9.9949927"><ele>5.5</ele><time>2026-05-03T17:24:39.929Z</time></trkpt><trkpt lat="37.0308392" lon="9.994931"><ele>5.0</ele><time>2026-05-03T17:24:40.932Z</time></trkpt><trkpt lat="37.0310983" lon="9.9948745"><ele>5.0</ele><time>2026-05-03T17:24:41.916Z</time></trkpt><trkpt lat="37.0313564" lon="9.9948303"><ele>5.0</ele><time>2026-05-03T17:24:42.921Z</time></trkpt><trkpt lat="37.0316176" lon="9.9947856"><ele>6.0</ele><time>2026-05-03T17:24:43.93Z</time></trkpt><trkpt lat="37.0318773" lon="9.994753"><ele>7.0</ele><time>2026-05-03T17:24:44.927Z</time></trkpt><trkpt lat="37.0321387" lon="9.9947223"><ele>7.0</ele><time>2026-05-03T17:24:45.943Z</time></trkpt><trkpt lat="37.0323996" lon="9.9946909"><ele>7.0</ele><time>2026-05-03T17:24:46.913Z</time></trkpt><trkpt lat="37.0326626" lon="9.9946603"><ele>10.0</ele><time>2026-05-03T17:24:47.911Z</time></trkpt><trkpt lat="37.0329242" lon="9.9946318"><ele>13.0</ele><time>2026-05-03T17:24:48.938Z</time></trkpt><trkpt lat="37.033182" lon="9.9946011"><ele>19.0</ele><time>2026-05-03T17:24:49.919Z</time></trkpt><trkpt lat="37.0334377" lon="9.9945729"><ele>25.0</ele><time>2026-05-03T17:24:50.931Z</time></trkpt><trkpt lat="37.0336894" lon="9.9945442"><ele>25.0</ele><time>2026-05-03T17:24:51.924Z</time></trkpt><trkpt lat="37.0339414" lon="9.9945228"><ele>25.0</ele><time>2026-05-03T17:24:52.917Z</time></trkpt><trkpt lat="37.0341934" lon="9.9945067"><ele>30.0</ele><time>2026-05-03T17:24:53.929Z</time></trkpt><trkpt lat="37.0344428" lon="9.9944828"><ele>35.0</ele><time>2026-05-03T17:24:54.916Z</time></trkpt><trkpt lat="37.0346946" lon="9.9944625"><ele>35.0</ele><time>2026-05-03T17:24:55.931Z</time></trkpt><trkpt lat="37.0349453" lon="9.9944497"><ele>35.0</ele><time>2026-05-03T17:24:56.933Z</time></trkpt><trkpt lat="37.0352022" lon="9.9944399"><ele>38.5</ele><time>2026-05-03T17:24:57.931Z</time></trkpt><trkpt lat="37.0354561" lon="9.994433"><ele>42.0</ele><time>2026-05-03T17:24:58.918Z</time></trkpt><trkpt lat="37.0357098" lon="9.9944251"><ele>43.0</ele><time>2026-05-03T17:24:59.911Z</time></trkpt><trkpt lat="37.0359644" lon="9.9944193"><ele>44.0</ele><time>2026-05-03T17:25:00.932Z</time></trkpt><trkpt lat="37.0362178" lon="9.9944228"><ele>44.0</ele><time>2026-05-03T17:25:01.927Z</time></trkpt><trkpt lat="37.0364728" lon="9.9944241"><ele>44.0</ele><time>2026-05-03T17:25:02.929Z</time></trkpt><trkpt lat="37.0367299" lon="9.9944341"><ele>41.5</ele><time>2026-05-03T17:25:03.913Z</time></trkpt><trkpt lat="37.036986" lon="9.9944529"><ele>39.0</ele><time>2026-05-03T17:25:04.921Z</time></trkpt><trkpt lat="37.037239" lon="9.9944759"><ele>36.5</ele><time>2026-05-03T17:25:05.919Z</time></trkpt><trkpt lat="37.0374925" lon="9.9945033"><ele>34.0</ele><time>2026-05-03T17:25:06.933Z</time></trkpt><trkpt lat="37.0377448" lon="9.9945217"><ele>34.0</ele><time>2026-05-03T17:25:07.935Z</time></trkpt><trkpt lat="37.0379974" lon="9.9945413"><ele>34.0</ele><time>2026-05-03T17:25:08.937Z</time></trkpt><trkpt lat="37.0382514" lon="9.9945587"><ele>30.5</ele><time>2026-05-03T17:25:09.927Z</time></trkpt><trkpt lat="37.0385055" lon="9.9945792"><ele>27.0</ele><time>2026-05-03T17:25:10.925Z</time></trkpt><trkpt lat="37.0387586" lon="9.9946062"><ele>27.0</ele><time>2026-05-03T17:25:11.928Z</time></trkpt><trkpt lat="37.0390114" lon="9.9946409"><ele>27.0</ele><time>2026-05-03T17:25:12.926Z</time></trkpt><trkpt lat="37.0392636" lon="9.9946774"><ele>26.0</ele><time>2026-05-03T17:25:13.907Z</time></trkpt><trkpt lat="37.0395159" lon="9.9947146"><ele>25.0</ele><time>2026-05-03T17:25:14.925Z</time></trkpt><trkpt lat="37.039763" lon="9.9947516"><ele>24.0</ele><time>2026-05-03T17:25:15.928Z</time></trkpt><trkpt lat="37.0400181" lon="9.9947926"><ele>23.0</ele><time>2026-05-03T17:25:16.914Z</time></trkpt><trkpt lat="37.0402699" lon="9.9948318"><ele>23.0</ele><time>2026-05-03T17:25:17.92Z</time></trkpt><trkpt lat="37.040527" lon="9.9948671"><ele>23.0</ele><time>2026-05-03T17:25:18.931Z</time></trkpt><trkpt lat="37.0407722" lon="9.9949057"><ele>21.5</ele><time>2026-05-03T17:25:19.914Z</time></trkpt><trkpt lat="37.0410263" lon="9.9949449"><ele>20.0</ele><time>2026-05-03T17:25:20.895Z</time></trkpt><trkpt lat="37.0412775" lon="9.9949851"><ele>20.0</ele><time>2026-05-03T17:25:21.913Z</time></trkpt><trkpt lat="37.0415275" lon="9.9950278"><ele>20.0</ele><time>2026-05-03T17:25:22.912Z</time></trkpt><trkpt lat="37.0417797" lon="9.9950701"><ele>20.0</ele><time>2026-05-03T17:25:23.898Z</time></trkpt><trkpt lat="37.0420307" lon="9.9951116"><ele>20.0</ele><time>2026-05-03T17:25:24.899Z</time></trkpt><trkpt lat="37.0422794" lon="9.9951549"><ele>20.5</ele><time>2026-05-03T17:25:25.906Z</time></trkpt><trkpt lat="37.0425294" lon="9.9951984"><ele>21.0</ele><time>2026-05-03T17:25:26.929Z</time></trkpt><trkpt lat="37.0427819" lon="9.9952369"><ele>21.0</ele><time>2026-05-03T17:25:27.938Z</time></trkpt><trkpt lat="37.0430351" lon="9.995278"><ele>21.0</ele><time>2026-05-03T17:25:28.918Z</time></trkpt><trkpt lat="37.0432842" lon="9.9953159"><ele>20.0</ele><time>2026-05-03T17:25:29.929Z</time></trkpt><trkpt lat="37.0435376" lon="9.9953521"><ele>19.0</ele><time>2026-05-03T17:25:30.951Z</time></trkpt><trkpt lat="37.0437904" lon="9.9953932"><ele>19.0</ele><time>2026-05-03T17:25:31.92Z</time></trkpt><trkpt lat="37.0440459" lon="9.9954347"><ele>19.0</ele><time>2026-05-03T17:25:32.919Z</time></trkpt><trkpt lat="37.0442971" lon="9.9954776"><ele>18.0</ele><time>2026-05-03T17:25:33.946Z</time></trkpt><trkpt lat="37.0445507" lon="9.9955181"><ele>17.0</ele><time>2026-05-03T17:25:34.93Z</time></trkpt><trkpt lat="37.0448061" lon="9.9955616"><ele>17.0</ele><time>2026-05-03T17:25:35.902Z</time></trkpt><trkpt lat="37.0450571" lon="9.9956021"><ele>17.0</ele><time>2026-05-03T17:25:36.93Z</time></trkpt><trkpt lat="37.0453109" lon="9.995644"><ele>17.0</ele><time>2026-05-03T17:25:37.924Z</time></trkpt><trkpt lat="37.045564" lon="9.9956818"><ele>17.0</ele><time>2026-05-03T17:25:38.925Z</time></trkpt><trkpt lat="37.0458166" lon="9.9957233"><ele>17.0</ele><time>2026-05-03T17:25:39.918Z</time></trkpt><trkpt lat="37.0460691" lon="9.9957655"><ele>17.0</ele><time>2026-05-03T17:25:40.928Z</time></trkpt><trkpt lat="37.0463193" lon="9.9958028"><ele>17.0</ele><time>2026-05-03T17:25:41.893Z</time></trkpt><trkpt lat="37.0465733" lon="9.9958416"><ele>17.0</ele><time>2026-05-03T17:25:42.922Z</time></trkpt><trkpt lat="37.0468238" lon="9.9958831"><ele>16.5</ele><time>2026-05-03T17:25:43.929Z</time></trkpt><trkpt lat="37.0470743" lon="9.9959253"><ele>16.0</ele><time>2026-05-03T17:25:44.941Z</time></trkpt><trkpt lat="37.0473251" lon="9.9959676"><ele>16.5</ele><time>2026-05-03T17:25:45.944Z</time></trkpt><trkpt lat="37.0475778" lon="9.9960076"><ele>17.0</ele><time>2026-05-03T17:25:46.918Z</time></trkpt><trkpt lat="37.0478317" lon="9.9960508"><ele>17.0</ele><time>2026-05-03T17:25:47.922Z</time></trkpt><trkpt lat="37.0480843" lon="9.9960975"><ele>17.0</ele><time>2026-05-03T17:25:48.907Z</time></trkpt><trkpt lat="37.0483343" lon="9.9961343"><ele>17.5</ele><time>2026-05-03T17:25:49.931Z</time></trkpt><trkpt lat="37.0485843" lon="9.9961726"><ele>18.0</ele><time>2026-05-03T17:25:50.923Z</time></trkpt><trkpt lat="37.0488366" lon="9.9962117"><ele>18.0</ele><time>2026-05-03T17:25:51.923Z</time></trkpt><trkpt lat="37.0490881" lon="9.996251"><ele>18.0</ele><time>2026-05-03T17:25:52.937Z</time></trkpt><trkpt lat="37.0493356" lon="9.9962847"><ele>18.0</ele><time>2026-05-03T17:25:53.935Z</time></trkpt><trkpt lat="37.0495871" lon="9.9963252"><ele>18.0</ele><time>2026-05-03T17:25:54.918Z</time></trkpt><trkpt lat="37.0498384" lon="9.996367"><ele>18.0</ele><time>2026-05-03T17:25:55.931Z</time></trkpt><trkpt lat="37.0500908" lon="9.9964094"><ele>18.0</ele><time>2026-05-03T17:25:56.943Z</time></trkpt><trkpt lat="37.0503424" lon="9.9964511"><ele>18.0</ele><time>2026-05-03T17:25:57.916Z</time></trkpt><trkpt lat="37.0505971" lon="9.9964953"><ele>18.0</ele><time>2026-05-03T17:25:58.91Z</time></trkpt><trkpt lat="37.0508493" lon="9.9965389"><ele>17.0</ele><time>2026-05-03T17:25:59.921Z</time></trkpt><trkpt lat="37.0511005" lon="9.9965803"><ele>16.0</ele><time>2026-05-03T17:26:00.93Z</time></trkpt><trkpt lat="37.0513524" lon="9.9966171"><ele>16.0</ele><time>2026-05-03T17:26:01.924Z</time></trkpt><trkpt lat="37.0516039" lon="9.9966625"><ele>16.0</ele><time>2026-05-03T17:26:02.931Z</time></trkpt><trkpt lat="37.051855" lon="9.9967038"><ele>16.0</ele><time>2026-05-03T17:26:03.917Z</time></trkpt><trkpt lat="37.0521092" lon="9.9967421"><ele>16.0</ele><time>2026-05-03T17:26:04.925Z</time></trkpt><trkpt lat="37.0523579" lon="9.99678"><ele>15.5</ele><time>2026-05-03T17:26:05.941Z</time></trkpt><trkpt lat="37.0526102" lon="9.9968196"><ele>15.0</ele><time>2026-05-03T17:26:06.936Z</time></trkpt><trkpt lat="37.0528632" lon="9.996854"><ele>15.0</ele><time>2026-05-03T17:26:07.917Z</time></trkpt><trkpt lat="37.0531152" lon="9.9968892"><ele>15.0</ele><time>2026-05-03T17:26:08.908Z</time></trkpt><trkpt lat="37.0533661" lon="9.9969296"><ele>16.0</ele><time>2026-05-03T17:26:09.931Z</time></trkpt><trkpt lat="37.0536141" lon="9.9969716"><ele>17.0</ele><time>2026-05-03T17:26:10.917Z</time></trkpt><trkpt lat="37.0538621" lon="9.9970156"><ele>17.0</ele><time>2026-05-03T17:26:11.918Z</time></trkpt><trkpt lat="37.0541178" lon="9.9970564"><ele>17.0</ele><time>2026-05-03T17:26:12.932Z</time></trkpt><trkpt lat="37.0543698" lon="9.9970931"><ele>16.5</ele><time>2026-05-03T17:26:13.936Z</time></trkpt><trkpt lat="37.0546216" lon="9.9971274"><ele>16.0</ele><time>2026-05-03T17:26:14.935Z</time></trkpt><trkpt lat="37.0548777" lon="9.9971651"><ele>16.5</ele><time>2026-05-03T17:26:15.932Z</time></trkpt><trkpt lat="37.0551291" lon="9.9972062"><ele>17.0</ele><time>2026-05-03T17:26:16.918Z</time></trkpt><trkpt lat="37.0553784" lon="9.997237"><ele>17.0</ele><time>2026-05-03T17:26:17.928Z</time></trkpt><trkpt lat="37.0556272" lon="9.997277"><ele>17.0</ele><time>2026-05-03T17:26:18.916Z</time></trkpt><trkpt lat="37.0558756" lon="9.9973217"><ele>17.0</ele><time>2026-05-03T17:26:19.91Z</time></trkpt><trkpt lat="37.056131" lon="9.9973684"><ele>17.0</ele><time>2026-05-03T17:26:20.904Z</time></trkpt><trkpt lat="37.0563839" lon="9.9974154"><ele>17.0</ele><time>2026-05-03T17:26:21.922Z</time></trkpt><trkpt lat="37.0566336" lon="9.9974619"><ele>17.0</ele><time>2026-05-03T17:26:22.944Z</time></trkpt><trkpt lat="37.0568841" lon="9.9975106"><ele>16.5</ele><time>2026-05-03T17:26:23.92Z</time></trkpt><trkpt lat="37.0571324" lon="9.9975506"><ele>16.0</ele><time>2026-05-03T17:26:24.918Z</time></trkpt><trkpt lat="37.0573879" lon="9.9975953"><ele>16.0</ele><time>2026-05-03T17:26:25.94Z</time></trkpt><trkpt lat="37.0576378" lon="9.9976375"><ele>16.0</ele><time>2026-05-03T17:26:26.929Z</time></trkpt><trkpt lat="37.0578924" lon="9.9976776"><ele>16.0</ele><time>2026-05-03T17:26:27.909Z</time></trkpt><trkpt lat="37.0581469" lon="9.9977216"><ele>16.0</ele><time>2026-05-03T17:26:28.927Z</time></trkpt><trkpt lat="37.0583995" lon="9.9977645"><ele>16.5</ele><time>2026-05-03T17:26:29.926Z</time></trkpt><trkpt lat="37.0586506" lon="9.9978044"><ele>17.0</ele><time>2026-05-03T17:26:30.943Z</time></trkpt><trkpt lat="37.0588989" lon="9.9978458"><ele>16.5</ele><time>2026-05-03T17:26:31.926Z</time></trkpt><trkpt lat="37.0591474" lon="9.9978874"><ele>16.0</ele><time>2026-05-03T17:26:32.919Z</time></trkpt><trkpt lat="37.0593937" lon="9.997928"><ele>16.0</ele><time>2026-05-03T17:26:33.921Z</time></trkpt><trkpt lat="37.0596456" lon="9.9979686"><ele>16.0</ele><time>2026-05-03T17:26:34.923Z</time></trkpt><trkpt lat="37.0599013" lon="9.9980087"><ele>17.0</ele><time>2026-05-03T17:26:35.918Z</time></trkpt><trkpt lat="37.0601503" lon="9.9980481"><ele>18.0</ele><time>2026-05-03T17:26:36.949Z</time></trkpt><trkpt lat="37.0604057" lon="9.9980877"><ele>18.0</ele><time>2026-05-03T17:26:37.933Z</time></trkpt><trkpt lat="37.0606552" lon="9.9981266"><ele>18.0</ele><time>2026-05-03T17:26:38.924Z</time></trkpt><trkpt lat="37.0609081" lon="9.9981644"><ele>18.0</ele><time>2026-05-03T17:26:39.935Z</time></trkpt><trkpt lat="37.0611596" lon="9.998202"><ele>18.0</ele><time>2026-05-03T17:26:40.919Z</time></trkpt><trkpt lat="37.0614101" lon="9.9982419"><ele>17.5</ele><time>2026-05-03T17:26:41.923Z</time></trkpt><trkpt lat="37.0616619" lon="9.9982831"><ele>17.0</ele><time>2026-05-03T17:26:42.907Z</time></trkpt><trkpt lat="37.0619127" lon="9.9983241"><ele>17.0</ele><time>2026-05-03T17:26:43.913Z</time></trkpt><trkpt lat="37.0621648" lon="9.9983661"><ele>17.0</ele><time>2026-05-03T17:26:44.909Z</time></trkpt><trkpt lat="37.0624173" lon="9.9984078"><ele>18.0</ele><time>2026-05-03T17:26:45.917Z</time></trkpt><trkpt lat="37.0626705" lon="9.9984495"><ele>19.0</ele><time>2026-05-03T17:26:46.916Z</time></trkpt><trkpt lat="37.062923" lon="9.9984866"><ele>19.0</ele><time>2026-05-03T17:26:47.927Z</time></trkpt><trkpt lat="37.0631753" lon="9.9985221"><ele>19.0</ele><time>2026-05-03T17:26:48.912Z</time></trkpt><trkpt lat="37.0634265" lon="9.9985549"><ele>19.5</ele><time>2026-05-03T17:26:49.934Z</time></trkpt><trkpt lat="37.0636774" lon="9.9985924"><ele>20.0</ele><time>2026-05-03T17:26:50.929Z</time></trkpt><trkpt lat="37.0639271" lon="9.998628"><ele>19.5</ele><time>2026-05-03T17:26:51.935Z</time></trkpt><trkpt lat="37.0641814" lon="9.9986654"><ele>19.0</ele><time>2026-05-03T17:26:52.925Z</time></trkpt><trkpt lat="37.0644399" lon="9.9987032"><ele>19.0</ele><time>2026-05-03T17:26:53.931Z</time></trkpt><trkpt lat="37.0646906" lon="9.9987484"><ele>19.0</ele><time>2026-05-03T17:26:54.904Z</time></trkpt><trkpt lat="37.0649411" lon="9.9987874"><ele>18.5</ele><time>2026-05-03T17:26:55.916Z</time></trkpt><trkpt lat="37.0651912" lon="9.9988259"><ele>18.0</ele><time>2026-05-03T17:26:56.915Z</time></trkpt><trkpt lat="37.0654408" lon="9.9988658"><ele>18.0</ele><time>2026-05-03T17:26:57.942Z</time></trkpt><trkpt lat="37.0656975" lon="9.9989068"><ele>18.0</ele><time>2026-05-03T17:26:58.928Z</time></trkpt><trkpt lat="37.0659483" lon="9.9989478"><ele>18.0</ele><time>2026-05-03T17:26:59.929Z</time></trkpt><trkpt lat="37.0661989" lon="9.9989859"><ele>18.0</ele><time>2026-05-03T17:27:00.927Z</time></trkpt><trkpt lat="37.0664458" lon="9.9990263"><ele>17.5</ele><time>2026-05-03T17:27:01.916Z</time></trkpt><trkpt lat="37.0666982" lon="9.9990715"><ele>17.0</ele><time>2026-05-03T17:27:02.905Z</time></trkpt><trkpt lat="37.0669502" lon="9.9991274"><ele>17.0</ele><time>2026-05-03T17:27:03.921Z</time></trkpt><trkpt lat="37.0672028" lon="9.9991802"><ele>17.0</ele><time>2026-05-03T17:27:04.899Z</time></trkpt><trkpt lat="37.0674486" lon="9.9992324"><ele>17.0</ele><time>2026-05-03T17:27:05.923Z</time></trkpt><trkpt lat="37.0677001" lon="9.9992979"><ele>17.0</ele><time>2026-05-03T17:27:06.933Z</time></trkpt><trkpt lat="37.0679489" lon="9.9993651"><ele>17.0</ele><time>2026-05-03T17:27:07.939Z</time></trkpt><trkpt lat="37.0681949" lon="9.9994392"><ele>17.0</ele><time>2026-05-03T17:27:08.912Z</time></trkpt><trkpt lat="37.0684412" lon="9.9995293"><ele>17.5</ele><time>2026-05-03T17:27:09.913Z</time></trkpt><trkpt lat="37.068681" lon="9.9996247"><ele>18.0</ele><time>2026-05-03T17:27:10.896Z</time></trkpt><trkpt lat="37.0689234" lon="9.999718"><ele>18.0</ele><time>2026-05-03T17:27:11.92Z</time></trkpt><trkpt lat="37.0691651" lon="9.9998141"><ele>18.0</ele><time>2026-05-03T17:27:12.924Z</time></trkpt><trkpt lat="37.0694057" lon="9.9999129"><ele>18.0</ele><time>2026-05-03T17:27:13.922Z</time></trkpt><trkpt lat="37.0696484" lon="10.0000116"><ele>18.0</ele><time>2026-05-03T17:27:14.92Z</time></trkpt><trkpt lat="37.0698833" lon="10.0001194"><ele>18.0</ele><time>2026-05-03T17:27:15.931Z</time></trkpt><trkpt lat="37.0701209" lon="10.0002265"><ele>18.0</ele><time>2026-05-03T17:27:16.934Z</time></trkpt><trkpt lat="37.0703578" lon="10.0003412"><ele>18.0</ele><time>2026-05-03T17:27:17.926Z</time></trkpt><trkpt lat="37.0705966" lon="10.0004607"><ele>18.0</ele><time>2026-05-03T17:27:18.896Z</time></trkpt><trkpt lat="37.0708305" lon="10.0005841"><ele>17.5</ele><time>2026-05-03T17:27:19.928Z</time></trkpt><trkpt lat="37.0710623" lon="10.0007152"><ele>17.0</ele><time>2026-05-03T17:27:20.914Z</time></trkpt><trkpt lat="37.0712991" lon="10.0008517"><ele>17.0</ele><time>2026-05-03T17:27:21.923Z</time></trkpt><trkpt lat="37.0715257" lon="10.0009874"><ele>17.0</ele><time>2026-05-03T17:27:22.927Z</time></trkpt><trkpt lat="37.0717514" lon="10.0011321"><ele>17.0</ele><time>2026-05-03T17:27:23.911Z</time></trkpt><trkpt lat="37.0719758" lon="10.0012833"><ele>17.0</ele><time>2026-05-03T17:27:24.929Z</time></trkpt><trkpt lat="37.0721985" lon="10.0014386"><ele>17.0</ele><time>2026-05-03T17:27:25.923Z</time></trkpt><trkpt lat="37.0724218" lon="10.0015955"><ele>17.0</ele><time>2026-05-03T17:27:26.921Z</time></trkpt><trkpt lat="37.0726494" lon="10.0017557"><ele>15.0</ele><time>2026-05-03T17:27:27.918Z</time></trkpt><trkpt lat="37.0728644" lon="10.0019189"><ele>13.0</ele><time>2026-05-03T17:27:28.9Z</time></trkpt><trkpt lat="37.0730802" lon="10.0020879"><ele>13.0</ele><time>2026-05-03T17:27:29.92Z</time></trkpt><trkpt lat="37.0732962" lon="10.0022628"><ele>13.0</ele><time>2026-05-03T17:27:30.907Z</time></trkpt><trkpt lat="37.0735041" lon="10.0024364"><ele>12.5</ele><time>2026-05-03T17:27:31.937Z</time></trkpt><trkpt lat="37.073714" lon="10.0026125"><ele>12.0</ele><time>2026-05-03T17:27:32.926Z</time></trkpt><trkpt lat="37.0739162" lon="10.0027989"><ele>12.5</ele><time>2026-05-03T17:27:33.937Z</time></trkpt><trkpt lat="37.074114" lon="10.0029931"><ele>13.0</ele><time>2026-05-03T17:27:34.928Z</time></trkpt><trkpt lat="37.0743166" lon="10.0031912"><ele>13.5</ele><time>2026-05-03T17:27:35.929Z</time></trkpt><trkpt lat="37.0745185" lon="10.0033937"><ele>14.0</ele><time>2026-05-03T17:27:36.907Z</time></trkpt><trkpt lat="37.0747189" lon="10.0035918"><ele>14.0</ele><time>2026-05-03T17:27:37.932Z</time></trkpt><trkpt lat="37.0749128" lon="10.0037931"><ele>14.0</ele><time>2026-05-03T17:27:38.926Z</time></trkpt><trkpt lat="37.0751073" lon="10.0039886"><ele>14.5</ele><time>2026-05-03T17:27:39.927Z</time></trkpt><trkpt lat="37.0753061" lon="10.0041899"><ele>15.0</ele><time>2026-05-03T17:27:40.918Z</time></trkpt><trkpt lat="37.0755026" lon="10.0043857"><ele>15.0</ele><time>2026-05-03T17:27:41.92Z</time></trkpt><trkpt lat="37.0757001" lon="10.0045908"><ele>15.0</ele><time>2026-05-03T17:27:42.9Z</time></trkpt><trkpt lat="37.0758977" lon="10.0047956"><ele>12.5</ele><time>2026-05-03T17:27:43.943Z</time></trkpt><trkpt lat="37.076092" lon="10.0049981"><ele>10.0</ele><time>2026-05-03T17:27:44.923Z</time></trkpt><trkpt lat="37.0762848" lon="10.0052028"><ele>10.0</ele><time>2026-05-03T17:27:45.911Z</time></trkpt><trkpt lat="37.076482" lon="10.0054029"><ele>10.0</ele><time>2026-05-03T17:27:46.915Z</time></trkpt><trkpt lat="37.0766793" lon="10.0055979"><ele>10.0</ele><time>2026-05-03T17:27:47.889Z</time></trkpt><trkpt lat="37.0768772" lon="10.0057911"><ele>10.0</ele><time>2026-05-03T17:27:48.903Z</time></trkpt><trkpt lat="37.0770768" lon="10.0059811"><ele>10.0</ele><time>2026-05-03T17:27:49.921Z</time></trkpt><trkpt lat="37.07728" lon="10.006167"><ele>10.0</ele><time>2026-05-03T17:27:50.916Z</time></trkpt><trkpt lat="37.077488" lon="10.006353"><ele>9.5</ele><time>2026-05-03T17:27:51.934Z</time></trkpt><trkpt lat="37.0776957" lon="10.0065347"><ele>9.0</ele><time>2026-05-03T17:27:52.915Z</time></trkpt><trkpt lat="37.0779094" lon="10.0067124"><ele>9.0</ele><time>2026-05-03T17:27:53.918Z</time></trkpt><trkpt lat="37.0781242" lon="10.0068887"><ele>9.0</ele><time>2026-05-03T17:27:54.919Z</time></trkpt><trkpt lat="37.0783413" lon="10.0070583"><ele>9.5</ele><time>2026-05-03T17:27:55.906Z</time></trkpt><trkpt lat="37.0785597" lon="10.0072282"><ele>10.0</ele><time>2026-05-03T17:27:56.921Z</time></trkpt><trkpt lat="37.0787806" lon="10.0073865"><ele>10.0</ele><time>2026-05-03T17:27:57.92Z</time></trkpt><trkpt lat="37.0790025" lon="10.0075412"><ele>10.0</ele><time>2026-05-03T17:27:58.897Z</time></trkpt><trkpt lat="37.0792292" lon="10.0076856"><ele>10.5</ele><time>2026-05-03T17:27:59.927Z</time></trkpt><trkpt lat="37.0794579" lon="10.0078284"><ele>11.0</ele><time>2026-05-03T17:28:00.932Z</time></trkpt><trkpt lat="37.0796832" lon="10.007968"><ele>11.0</ele><time>2026-05-03T17:28:01.921Z</time></trkpt><trkpt lat="37.0799119" lon="10.0081044"><ele>11.0</ele><time>2026-05-03T17:28:02.929Z</time></trkpt><trkpt lat="37.0801451" lon="10.008239"><ele>10.5</ele><time>2026-05-03T17:28:03.937Z</time></trkpt><trkpt lat="37.0803779" lon="10.0083703"><ele>10.0</ele><time>2026-05-03T17:28:04.923Z</time></trkpt><trkpt lat="37.0806126" lon="10.0084982"><ele>11.0</ele><time>2026-05-03T17:28:05.931Z</time></trkpt><trkpt lat="37.0808515" lon="10.0086171"><ele>12.0</ele><time>2026-05-03T17:28:06.921Z</time></trkpt><trkpt lat="37.0810888" lon="10.0087336"><ele>12.0</ele><time>2026-05-03T17:28:07.94Z</time></trkpt><trkpt lat="37.081328" lon="10.0088465"><ele>12.0</ele><time>2026-05-03T17:28:08.923Z</time></trkpt><trkpt lat="37.0815739" lon="10.0089509"><ele>12.0</ele><time>2026-05-03T17:28:09.91Z</time></trkpt><trkpt lat="37.0818159" lon="10.0090495"><ele>12.0</ele><time>2026-05-03T17:28:10.893Z</time></trkpt><trkpt lat="37.0820596" lon="10.0091472"><ele>12.0</ele><time>2026-05-03T17:28:11.932Z</time></trkpt><trkpt lat="37.0823064" lon="10.0092472"><ele>12.0</ele><time>2026-05-03T17:28:12.933Z</time></trkpt><trkpt lat="37.0825517" lon="10.0093358"><ele>12.0</ele><time>2026-05-03T17:28:13.933Z</time></trkpt><trkpt lat="37.0827969" lon="10.0094344"><ele>12.0</ele><time>2026-05-03T17:28:14.918Z</time></trkpt><trkpt lat="37.0830446" lon="10.0095261"><ele>12.0</ele><time>2026-05-03T17:28:15.912Z</time></trkpt><trkpt lat="37.0832865" lon="10.009615"><ele>12.0</ele><time>2026-05-03T17:28:16.932Z</time></trkpt><trkpt lat="37.0835312" lon="10.0096999"><ele>12.0</ele><time>2026-05-03T17:28:17.899Z</time></trkpt><trkpt lat="37.083772" lon="10.0097928"><ele>12.0</ele><time>2026-05-03T17:28:18.907Z</time></trkpt><trkpt lat="37.0840169" lon="10.0098839"><ele>12.0</ele><time>2026-05-03T17:28:19.908Z</time></trkpt><trkpt lat="37.084264" lon="10.0099795"><ele>12.0</ele><time>2026-05-03T17:28:20.933Z</time></trkpt><trkpt lat="37.0845112" lon="10.0100756"><ele>11.5</ele><time>2026-05-03T17:28:21.905Z</time></trkpt><trkpt lat="37.0847573" lon="10.0101689"><ele>11.0</ele><time>2026-05-03T17:28:22.921Z</time></trkpt><trkpt lat="37.0850009" lon="10.0102647"><ele>11.0</ele><time>2026-05-03T17:28:23.928Z</time></trkpt><trkpt lat="37.0852459" lon="10.0103609"><ele>11.0</ele><time>2026-05-03T17:28:24.92Z</time></trkpt><trkpt lat="37.0854916" lon="10.0104522"><ele>11.0</ele><time>2026-05-03T17:28:25.933Z</time></trkpt><trkpt lat="37.0857328" lon="10.0105451"><ele>11.0</ele><time>2026-05-03T17:28:26.927Z</time></trkpt><trkpt lat="37.0859754" lon="10.0106386"><ele>11.5</ele><time>2026-05-03T17:28:27.925Z</time></trkpt><trkpt lat="37.0862208" lon="10.0107357"><ele>12.0</ele><time>2026-05-03T17:28:28.93Z</time></trkpt><trkpt lat="37.086462" lon="10.0108371"><ele>13.0</ele><time>2026-05-03T17:28:29.924Z</time></trkpt><trkpt lat="37.0867009" lon="10.0109432"><ele>14.0</ele><time>2026-05-03T17:28:30.919Z</time></trkpt><trkpt lat="37.0869439" lon="10.011054"><ele>14.0</ele><time>2026-05-03T17:28:31.931Z</time></trkpt><trkpt lat="37.0871904" lon="10.0111581"><ele>14.0</ele><time>2026-05-03T17:28:32.91Z</time></trkpt><trkpt lat="37.0874337" lon="10.0112488"><ele>13.0</ele><time>2026-05-03T17:28:33.936Z</time></trkpt><trkpt lat="37.0876774" lon="10.0113407"><ele>12.0</ele><time>2026-05-03T17:28:34.902Z</time></trkpt><trkpt lat="37.0879239" lon="10.0114332"><ele>12.0</ele><time>2026-05-03T17:28:35.923Z</time></trkpt><trkpt lat="37.0881698" lon="10.0115309"><ele>12.0</ele><time>2026-05-03T17:28:36.932Z</time></trkpt><trkpt lat="37.0884164" lon="10.011629"><ele>11.5</ele><time>2026-05-03T17:28:37.928Z</time></trkpt><trkpt lat="37.0886587" lon="10.0117235"><ele>11.0</ele><time>2026-05-03T17:28:38.915Z</time></trkpt><trkpt lat="37.0889035" lon="10.0118227"><ele>11.0</ele><time>2026-05-03T17:28:39.932Z</time></trkpt><trkpt lat="37.089147" lon="10.0119186"><ele>11.0</ele><time>2026-05-03T17:28:40.922Z</time></trkpt><trkpt lat="37.0893933" lon="10.0120146"><ele>11.0</ele><time>2026-05-03T17:28:41.931Z</time></trkpt><trkpt lat="37.0896373" lon="10.0121117"><ele>11.0</ele><time>2026-05-03T17:28:42.933Z</time></trkpt><trkpt lat="37.0898818" lon="10.0122061"><ele>11.0</ele><time>2026-05-03T17:28:43.94Z</time></trkpt><trkpt lat="37.0901278" lon="10.0122999"><ele>11.0</ele><time>2026-05-03T17:28:44.936Z</time></trkpt><trkpt lat="37.090372" lon="10.0123898"><ele>11.0</ele><time>2026-05-03T17:28:45.914Z</time></trkpt><trkpt lat="37.0906193" lon="10.0124842"><ele>11.0</ele><time>2026-05-03T17:28:46.926Z</time></trkpt><trkpt lat="37.0908629" lon="10.012577"><ele>10.5</ele><time>2026-05-03T17:28:47.92Z</time></trkpt><trkpt lat="37.0911102" lon="10.0126682"><ele>10.0</ele><time>2026-05-03T17:28:48.902Z</time></trkpt><trkpt lat="37.0913591" lon="10.0127617"><ele>10.0</ele><time>2026-05-03T17:28:49.927Z</time></trkpt><trkpt lat="37.0916027" lon="10.0128569"><ele>10.0</ele><time>2026-05-03T17:28:50.927Z</time></trkpt><trkpt lat="37.0918466" lon="10.0129554"><ele>10.0</ele><time>2026-05-03T17:28:51.937Z</time></trkpt><trkpt lat="37.0920936" lon="10.0130518"><ele>10.0</ele><time>2026-05-03T17:28:52.923Z</time></trkpt><trkpt lat="37.0923409" lon="10.0131427"><ele>10.5</ele><time>2026-05-03T17:28:53.933Z</time></trkpt><trkpt lat="37.092587" lon="10.0132384"><ele>11.0</ele><time>2026-05-03T17:28:54.919Z</time></trkpt><trkpt lat="37.0928299" lon="10.013337"><ele>11.0</ele><time>2026-05-03T17:28:55.921Z</time></trkpt><trkpt lat="37.0930743" lon="10.0134391"><ele>11.0</ele><time>2026-05-03T17:28:56.938Z</time></trkpt><trkpt lat="37.0933175" lon="10.0135464"><ele>11.0</ele><time>2026-05-03T17:28:57.927Z</time></trkpt><trkpt lat="37.0935592" lon="10.0136524"><ele>11.0</ele><time>2026-05-03T17:28:58.927Z</time></trkpt><trkpt lat="37.0937972" lon="10.0137585"><ele>11.0</ele><time>2026-05-03T17:28:59.932Z</time></trkpt><trkpt lat="37.0940401" lon="10.0138712"><ele>11.0</ele><time>2026-05-03T17:29:00.926Z</time></trkpt><trkpt lat="37.09428" lon="10.0139812"><ele>11.0</ele><time>2026-05-03T17:29:01.931Z</time></trkpt><trkpt lat="37.094518" lon="10.0140917"><ele>11.0</ele><time>2026-05-03T17:29:02.922Z</time></trkpt><trkpt lat="37.0947582" lon="10.0142132"><ele>10.5</ele><time>2026-05-03T17:29:03.921Z</time></trkpt><trkpt lat="37.0949953" lon="10.0143355"><ele>10.0</ele><time>2026-05-03T17:29:04.919Z</time></trkpt><trkpt lat="37.0952334" lon="10.0144636"><ele>10.0</ele><time>2026-05-03T17:29:05.894Z</time></trkpt><trkpt lat="37.0954729" lon="10.014588"><ele>10.0</ele><time>2026-05-03T17:29:06.927Z</time></trkpt><trkpt lat="37.095702" lon="10.0147157"><ele>10.0</ele><time>2026-05-03T17:29:07.922Z</time></trkpt><trkpt lat="37.0959341" lon="10.0148497"><ele>10.0</ele><time>2026-05-03T17:29:08.919Z</time></trkpt><trkpt lat="37.0961655" lon="10.0149841"><ele>9.5</ele><time>2026-05-03T17:29:09.921Z</time></trkpt><trkpt lat="37.0963953" lon="10.015122"><ele>9.0</ele><time>2026-05-03T17:29:10.928Z</time></trkpt><trkpt lat="37.0966243" lon="10.0152663"><ele>8.5</ele><time>2026-05-03T17:29:11.905Z</time></trkpt><trkpt lat="37.0968539" lon="10.0154171"><ele>8.0</ele><time>2026-05-03T17:29:12.944Z</time></trkpt><trkpt lat="37.0970791" lon="10.0155727"><ele>8.0</ele><time>2026-05-03T17:29:13.926Z</time></trkpt><trkpt lat="37.0973048" lon="10.0157217"><ele>8.0</ele><time>2026-05-03T17:29:14.952Z</time></trkpt><trkpt lat="37.0975288" lon="10.015875"><ele>7.0</ele><time>2026-05-03T17:29:15.921Z</time></trkpt><trkpt lat="37.0977506" lon="10.0160302"><ele>6.0</ele><time>2026-05-03T17:29:16.938Z</time></trkpt><trkpt lat="37.0979755" lon="10.0161922"><ele>6.0</ele><time>2026-05-03T17:29:17.945Z</time></trkpt><trkpt lat="37.0982003" lon="10.0163522"><ele>6.0</ele><time>2026-05-03T17:29:18.909Z</time></trkpt><trkpt lat="37.09842" lon="10.0165232"><ele>5.5</ele><time>2026-05-03T17:29:19.893Z</time></trkpt><trkpt lat="37.0986365" lon="10.0166877"><ele>5.0</ele><time>2026-05-03T17:29:20.924Z</time></trkpt><trkpt lat="37.0988548" lon="10.0168552"><ele>5.0</ele><time>2026-05-03T17:29:21.935Z</time></trkpt><trkpt lat="37.0990733" lon="10.0170276"><ele>5.0</ele><time>2026-05-03T17:29:22.925Z</time></trkpt><trkpt lat="37.0992913" lon="10.0172071"><ele>5.0</ele><time>2026-05-03T17:29:23.935Z</time></trkpt><trkpt lat="37.0995037" lon="10.0173851"><ele>5.0</ele><time>2026-05-03T17:29:24.92Z</time></trkpt><trkpt lat="37.099717" lon="10.017568"><ele>5.0</ele><time>2026-05-03T17:29:25.928Z</time></trkpt><trkpt lat="37.0999253" lon="10.0177518"><ele>5.0</ele><time>2026-05-03T17:29:26.93Z</time></trkpt><trkpt lat="37.1001345" lon="10.0179413"><ele>5.0</ele><time>2026-05-03T17:29:27.921Z</time></trkpt><trkpt lat="37.1003363" lon="10.018137"><ele>5.0</ele><time>2026-05-03T17:29:28.905Z</time></trkpt><trkpt lat="37.1005401" lon="10.0183308"><ele>5.0</ele><time>2026-05-03T17:29:29.937Z</time></trkpt><trkpt lat="37.100743" lon="10.0185301"><ele>5.0</ele><time>2026-05-03T17:29:30.932Z</time></trkpt><trkpt lat="37.1009402" lon="10.0187278"><ele>5.0</ele><time>2026-05-03T17:29:31.927Z</time></trkpt><trkpt lat="37.101138" lon="10.0189296"><ele>5.0</ele><time>2026-05-03T17:29:32.899Z</time></trkpt><trkpt lat="37.1013316" lon="10.0191296"><ele>4.0</ele><time>2026-05-03T17:29:33.908Z</time></trkpt><trkpt lat="37.1015269" lon="10.0193303"><ele>3.0</ele><time>2026-05-03T17:29:34.924Z</time></trkpt><trkpt lat="37.101725" lon="10.0195372"><ele>3.0</ele><time>2026-05-03T17:29:35.927Z</time></trkpt><trkpt lat="37.10192" lon="10.0197432"><ele>3.0</ele><time>2026-05-03T17:29:36.915Z</time></trkpt><trkpt lat="37.1021128" lon="10.0199551"><ele>2.5</ele><time>2026-05-03T17:29:37.928Z</time></trkpt><trkpt lat="37.1023032" lon="10.0201674"><ele>2.0</ele><time>2026-05-03T17:29:38.898Z</time></trkpt><trkpt lat="37.1024938" lon="10.0203844"><ele>2.5</ele><time>2026-05-03T17:29:39.928Z</time></trkpt><trkpt lat="37.102682" lon="10.0206007"><ele>3.0</ele><time>2026-05-03T17:29:40.917Z</time></trkpt><trkpt lat="37.1028699" lon="10.0208185"><ele>3.0</ele><time>2026-05-03T17:29:41.916Z</time></trkpt><trkpt lat="37.1030601" lon="10.0210409"><ele>3.0</ele><time>2026-05-03T17:29:42.928Z</time></trkpt><trkpt lat="37.1032486" lon="10.0212698"><ele>3.0</ele><time>2026-05-03T17:29:43.926Z</time></trkpt><trkpt lat="37.1034364" lon="10.0214992"><ele>3.0</ele><time>2026-05-03T17:29:44.925Z</time></trkpt><trkpt lat="37.1036237" lon="10.0217327"><ele>3.0</ele><time>2026-05-03T17:29:45.928Z</time></trkpt><trkpt lat="37.1038075" lon="10.0219678"><ele>3.0</ele><time>2026-05-03T17:29:46.927Z</time></trkpt><trkpt lat="37.1039897" lon="10.0222017"><ele>3.0</ele><time>2026-05-03T17:29:47.936Z</time></trkpt><trkpt lat="37.1041713" lon="10.0224433"><ele>3.0</ele><time>2026-05-03T17:29:48.926Z</time></trkpt><trkpt lat="37.1043539" lon="10.0226846"><ele>2.5</ele><time>2026-05-03T17:29:49.938Z</time></trkpt><trkpt lat="37.1045332" lon="10.0229269"><ele>2.0</ele><time>2026-05-03T17:29:50.914Z</time></trkpt><trkpt lat="37.104712" lon="10.0231651"><ele>2.0</ele><time>2026-05-03T17:29:51.917Z</time></trkpt><trkpt lat="37.1048946" lon="10.0234015"><ele>2.0</ele><time>2026-05-03T17:29:52.904Z</time></trkpt><trkpt lat="37.1050758" lon="10.0236408"><ele>2.0</ele><time>2026-05-03T17:29:53.911Z</time></trkpt><trkpt lat="37.1052611" lon="10.0238822"><ele>2.0</ele><time>2026-05-03T17:29:54.922Z</time></trkpt><trkpt lat="37.1054443" lon="10.0241217"><ele>2.0</ele><time>2026-05-03T17:29:55.911Z</time></trkpt><trkpt lat="37.1056261" lon="10.0243627"><ele>2.0</ele><time>2026-05-03T17:29:56.93Z</time></trkpt><trkpt lat="37.1058103" lon="10.0246073"><ele>2.0</ele><time>2026-05-03T17:29:57.944Z</time></trkpt><trkpt lat="37.1059925" lon="10.0248496"><ele>2.0</ele><time>2026-05-03T17:29:58.94Z</time></trkpt><trkpt lat="37.1061731" lon="10.0250904"><ele>1.5</ele><time>2026-05-03T17:29:59.918Z</time></trkpt><trkpt lat="37.106352" lon="10.0253341"><ele>1.0</ele><time>2026-05-03T17:30:00.89Z</time></trkpt><trkpt lat="37.106532" lon="10.0255826"><ele>0.5</ele><time>2026-05-03T17:30:01.936Z</time></trkpt><trkpt lat="37.1067097" lon="10.0258221"><ele>0.0</ele><time>2026-05-03T17:30:02.92Z</time></trkpt><trkpt lat="37.1068882" lon="10.0260623"><ele>0.0</ele><time>2026-05-03T17:30:03.932Z</time></trkpt><trkpt lat="37.1070706" lon="10.026305"><ele>0.0</ele><time>2026-05-03T17:30:04.92Z</time></trkpt><trkpt lat="37.1072501" lon="10.0265434"><ele>1.0</ele><time>2026-05-03T17:30:05.914Z</time></trkpt><trkpt lat="37.1074323" lon="10.026784"><ele>2.0</ele><time>2026-05-03T17:30:06.926Z</time></trkpt><trkpt lat="37.1076125" lon="10.0270269"><ele>2.0</ele><time>2026-05-03T17:30:07.927Z</time></trkpt><trkpt lat="37.1077952" lon="10.0272699"><ele>2.0</ele><time>2026-05-03T17:30:08.933Z</time></trkpt><trkpt lat="37.1079769" lon="10.0275171"><ele>2.0</ele><time>2026-05-03T17:30:09.925Z</time></trkpt><trkpt lat="37.1081571" lon="10.0277592"><ele>2.0</ele><time>2026-05-03T17:30:10.936Z</time></trkpt><trkpt lat="37.1083431" lon="10.0280017"><ele>2.0</ele><time>2026-05-03T17:30:11.927Z</time></trkpt><trkpt lat="37.1085263" lon="10.0282402"><ele>2.0</ele><time>2026-05-03T17:30:12.922Z</time></trkpt><trkpt lat="37.1087081" lon="10.0284819"><ele>1.0</ele><time>2026-05-03T17:30:13.942Z</time></trkpt><trkpt lat="37.1088884" lon="10.0287205"><ele>0.0</ele><time>2026-05-03T17:30:14.93Z</time></trkpt><trkpt lat="37.1090712" lon="10.0289649"><ele>0.0</ele><time>2026-05-03T17:30:15.934Z</time></trkpt><trkpt lat="37.1092556" lon="10.0292051"><ele>0.0</ele><time>2026-05-03T17:30:16.936Z</time></trkpt><trkpt lat="37.1094344" lon="10.0294463"><ele>0.0</ele><time>2026-05-03T17:30:17.928Z</time></trkpt><trkpt lat="37.1096166" lon="10.0296904"><ele>0.0</ele><time>2026-05-03T17:30:18.917Z</time></trkpt><trkpt lat="37.1097976" lon="10.02993"><ele>0.5</ele><time>2026-05-03T17:30:19.92Z</time></trkpt><trkpt lat="37.1099799" lon="10.0301677"><ele>1.0</ele><time>2026-05-03T17:30:20.927Z</time></trkpt><trkpt lat="37.1101667" lon="10.0304097"><ele>1.0</ele><time>2026-05-03T17:30:21.926Z</time></trkpt><trkpt lat="37.110352" lon="10.0306503"><ele>1.0</ele><time>2026-05-03T17:30:22.931Z</time></trkpt><trkpt lat="37.1105349" lon="10.0308929"><ele>1.0</ele><time>2026-05-03T17:30:23.931Z</time></trkpt><trkpt lat="37.1107174" lon="10.0311337"><ele>1.0</ele><time>2026-05-03T17:30:24.928Z</time></trkpt><trkpt lat="37.1109014" lon="10.0313673"><ele>1.5</ele><time>2026-05-03T17:30:25.932Z</time></trkpt><trkpt lat="37.1110874" lon="10.0316022"><ele>2.0</ele><time>2026-05-03T17:30:26.929Z</time></trkpt><trkpt lat="37.1112787" lon="10.0318377"><ele>2.0</ele><time>2026-05-03T17:30:27.931Z</time></trkpt><trkpt lat="37.1114783" lon="10.0320623"><ele>2.0</ele><time>2026-05-03T17:30:28.917Z</time></trkpt><trkpt lat="37.1116795" lon="10.0322773"><ele>2.0</ele><time>2026-05-03T17:30:29.924Z</time></trkpt><trkpt lat="37.111884" lon="10.0324769"><ele>2.0</ele><time>2026-05-03T17:30:30.932Z</time></trkpt><trkpt lat="37.1120982" lon="10.0326763"><ele>2.0</ele><time>2026-05-03T17:30:31.923Z</time></trkpt><trkpt lat="37.1123118" lon="10.0328717"><ele>2.0</ele><time>2026-05-03T17:30:32.926Z</time></trkpt><trkpt lat="37.1125323" lon="10.0330566"><ele>2.5</ele><time>2026-05-03T17:30:33.936Z</time></trkpt><trkpt lat="37.1127526" lon="10.0332375"><ele>3.0</ele><time>2026-05-03T17:30:34.925Z</time></trkpt><trkpt lat="37.1129782" lon="10.0334048"><ele>3.0</ele><time>2026-05-03T17:30:35.919Z</time></trkpt><trkpt lat="37.113212" lon="10.0335688"><ele>3.0</ele><time>2026-05-03T17:30:36.923Z</time></trkpt><trkpt lat="37.1134466" lon="10.0337201"><ele>3.5</ele><time>2026-05-03T17:30:37.929Z</time></trkpt><trkpt lat="37.1136879" lon="10.0338562"><ele>4.0</ele><time>2026-05-03T17:30:38.928Z</time></trkpt><trkpt lat="37.1139287" lon="10.0339832"><ele>5.0</ele><time>2026-05-03T17:30:39.929Z</time></trkpt><trkpt lat="37.1141766" lon="10.0341034"><ele>6.0</ele><time>2026-05-03T17:30:40.939Z</time></trkpt><trkpt lat="37.114424" lon="10.0342158"><ele>6.0</ele><time>2026-05-03T17:30:41.918Z</time></trkpt><trkpt lat="37.1146756" lon="10.034322"><ele>6.0</ele><time>2026-05-03T17:30:42.931Z</time></trkpt><trkpt lat="37.1149282" lon="10.0344225"><ele>6.5</ele><time>2026-05-03T17:30:43.922Z</time></trkpt><trkpt lat="37.1151809" lon="10.034511"><ele>7.0</ele><time>2026-05-03T17:30:44.93Z</time></trkpt><trkpt lat="37.1154346" lon="10.0345934"><ele>7.0</ele><time>2026-05-03T17:30:45.944Z</time></trkpt><trkpt lat="37.1156945" lon="10.0346659"><ele>7.0</ele><time>2026-05-03T17:30:46.932Z</time></trkpt><trkpt lat="37.115959" lon="10.0347224"><ele>7.5</ele><time>2026-05-03T17:30:47.932Z</time></trkpt><trkpt lat="37.1162319" lon="10.0347792"><ele>8.0</ele><time>2026-05-03T17:30:48.929Z</time></trkpt><trkpt lat="37.1165006" lon="10.0348252"><ele>8.5</ele><time>2026-05-03T17:30:49.941Z</time></trkpt><trkpt lat="37.1167668" lon="10.0348722"><ele>9.0</ele><time>2026-05-03T17:30:50.929Z</time></trkpt><trkpt lat="37.1170289" lon="10.0349082"><ele>9.0</ele><time>2026-05-03T17:30:51.933Z</time></trkpt><trkpt lat="37.1172907" lon="10.0349427"><ele>9.0</ele><time>2026-05-03T17:30:52.938Z</time></trkpt><trkpt lat="37.1175558" lon="10.0349771"><ele>9.0</ele><time>2026-05-03T17:30:53.93Z</time></trkpt><trkpt lat="37.1178251" lon="10.0350108"><ele>9.0</ele><time>2026-05-03T17:30:54.922Z</time></trkpt><trkpt lat="37.1181009" lon="10.0350508"><ele>10.0</ele><time>2026-05-03T17:30:55.926Z</time></trkpt><trkpt lat="37.1183786" lon="10.0350866"><ele>11.0</ele><time>2026-05-03T17:30:56.938Z</time></trkpt><trkpt lat="37.1186557" lon="10.035128"><ele>11.0</ele><time>2026-05-03T17:30:57.925Z</time></trkpt><trkpt lat="37.1189316" lon="10.0351642"><ele>11.0</ele><time>2026-05-03T17:30:58.933Z</time></trkpt><trkpt lat="37.1192083" lon="10.0351951"><ele>11.5</ele><time>2026-05-03T17:30:59.921Z</time></trkpt><trkpt lat="37.1194859" lon="10.0352279"><ele>12.0</ele><time>2026-05-03T17:31:00.924Z</time></trkpt><trkpt lat="37.1197584" lon="10.0352521"><ele>13.0</ele><time>2026-05-03T17:31:01.92Z</time></trkpt><trkpt lat="37.1200335" lon="10.0352711"><ele>14.0</ele><time>2026-05-03T17:31:02.919Z</time></trkpt><trkpt lat="37.1203123" lon="10.0352889"><ele>14.0</ele><time>2026-05-03T17:31:03.921Z</time></trkpt><trkpt lat="37.1205864" lon="10.0353038"><ele>14.0</ele><time>2026-05-03T17:31:04.931Z</time></trkpt><trkpt lat="37.1208586" lon="10.0353171"><ele>14.5</ele><time>2026-05-03T17:31:05.941Z</time></trkpt><trkpt lat="37.121132" lon="10.0353232"><ele>15.0</ele><time>2026-05-03T17:31:06.923Z</time></trkpt><trkpt lat="37.1214095" lon="10.0353322"><ele>15.5</ele><time>2026-05-03T17:31:07.922Z</time></trkpt><trkpt lat="37.1216848" lon="10.0353321"><ele>16.0</ele><time>2026-05-03T17:31:08.928Z</time></trkpt><trkpt lat="37.121962" lon="10.0353296"><ele>16.0</ele><time>2026-05-03T17:31:09.915Z</time></trkpt><trkpt lat="37.1222375" lon="10.0353262"><ele>16.0</ele><time>2026-05-03T17:31:10.896Z</time></trkpt><trkpt lat="37.1225089" lon="10.0353152"><ele>17.5</ele><time>2026-05-03T17:31:11.927Z</time></trkpt><trkpt lat="37.1227819" lon="10.035307"><ele>19.0</ele><time>2026-05-03T17:31:12.918Z</time></trkpt><trkpt lat="37.1230558" lon="10.0352912"><ele>20.0</ele><time>2026-05-03T17:31:13.933Z</time></trkpt><trkpt lat="37.1233284" lon="10.0352695"><ele>21.0</ele><time>2026-05-03T17:31:14.924Z</time></trkpt><trkpt lat="37.123603" lon="10.0352491"><ele>21.0</ele><time>2026-05-03T17:31:15.934Z</time></trkpt><trkpt lat="37.1238769" lon="10.0352236"><ele>21.0</ele><time>2026-05-03T17:31:16.92Z</time></trkpt><trkpt lat="37.1241507" lon="10.0351933"><ele>22.0</ele><time>2026-05-03T17:31:17.916Z</time></trkpt><trkpt lat="37.1244217" lon="10.0351587"><ele>23.0</ele><time>2026-05-03T17:31:18.924Z</time></trkpt><trkpt lat="37.1246939" lon="10.0351125"><ele>24.5</ele><time>2026-05-03T17:31:19.912Z</time></trkpt><trkpt lat="37.1249632" lon="10.0350667"><ele>26.0</ele><time>2026-05-03T17:31:20.923Z</time></trkpt><trkpt lat="37.1252314" lon="10.0350141"><ele>27.0</ele><time>2026-05-03T17:31:21.897Z</time></trkpt><trkpt lat="37.1255054" lon="10.0349558"><ele>28.0</ele><time>2026-05-03T17:31:22.916Z</time></trkpt><trkpt lat="37.1257789" lon="10.0349003"><ele>30.5</ele><time>2026-05-03T17:31:23.927Z</time></trkpt><trkpt lat="37.126051" lon="10.0348439"><ele>33.0</ele><time>2026-05-03T17:31:24.924Z</time></trkpt><trkpt lat="37.1263245" lon="10.034783"><ele>34.5</ele><time>2026-05-03T17:31:25.912Z</time></trkpt><trkpt lat="37.1265908" lon="10.0347242"><ele>36.0</ele><time>2026-05-03T17:31:26.926Z</time></trkpt><trkpt lat="37.1268577" lon="10.0346536"><ele>36.0</ele><time>2026-05-03T17:31:27.933Z</time></trkpt><trkpt lat="37.1271278" lon="10.0345831"><ele>36.0</ele><time>2026-05-03T17:31:28.906Z</time></trkpt><trkpt lat="37.127398" lon="10.0345057"><ele>39.5</ele><time>2026-05-03T17:31:29.894Z</time></trkpt><trkpt lat="37.1276669" lon="10.0344282"><ele>43.0</ele><time>2026-05-03T17:31:30.915Z</time></trkpt><trkpt lat="37.1279367" lon="10.0343557"><ele>43.0</ele><time>2026-05-03T17:31:31.921Z</time></trkpt><trkpt lat="37.1282019" lon="10.0342798"><ele>43.0</ele><time>2026-05-03T17:31:32.917Z</time></trkpt><trkpt lat="37.1284698" lon="10.0341896"><ele>47.0</ele><time>2026-05-03T17:31:33.912Z</time></trkpt><trkpt lat="37.1287315" lon="10.034096"><ele>51.0</ele><time>2026-05-03T17:31:34.917Z</time></trkpt><trkpt lat="37.1289965" lon="10.0340003"><ele>54.5</ele><time>2026-05-03T17:31:35.934Z</time></trkpt><trkpt lat="37.1292589" lon="10.0339044"><ele>58.0</ele><time>2026-05-03T17:31:36.924Z</time></trkpt><trkpt lat="37.129519" lon="10.0338086"><ele>58.0</ele><time>2026-05-03T17:31:37.927Z</time></trkpt><trkpt lat="37.1297782" lon="10.0337061"><ele>58.0</ele><time>2026-05-03T17:31:38.935Z</time></trkpt><trkpt lat="37.1300404" lon="10.033602"><ele>58.0</ele><time>2026-05-03T17:31:39.905Z</time></trkpt><trkpt lat="37.1303006" lon="10.0335011"><ele>58.0</ele><time>2026-05-03T17:31:40.892Z</time></trkpt><trkpt lat="37.1305572" lon="10.0333938"><ele>63.5</ele><time>2026-05-03T17:31:41.931Z</time></trkpt><trkpt lat="37.1308143" lon="10.0332845"><ele>69.0</ele><time>2026-05-03T17:31:42.934Z</time></trkpt><trkpt lat="37.1310693" lon="10.0331707"><ele>69.0</ele><time>2026-05-03T17:31:43.92Z</time></trkpt><trkpt lat="37.1313272" lon="10.0330484"><ele>69.0</ele><time>2026-05-03T17:31:44.899Z</time></trkpt><trkpt lat="37.1315835" lon="10.0329249"><ele>74.0</ele><time>2026-05-03T17:31:45.936Z</time></trkpt><trkpt lat="37.1318401" lon="10.0327982"><ele>79.0</ele><time>2026-05-03T17:31:46.887Z</time></trkpt><trkpt lat="37.1320957" lon="10.0326699"><ele>79.0</ele><time>2026-05-03T17:31:47.91Z</time></trkpt><trkpt lat="37.1323491" lon="10.0325393"><ele>79.0</ele><time>2026-05-03T17:31:48.922Z</time></trkpt><trkpt lat="37.1326025" lon="10.032408"><ele>82.5</ele><time>2026-05-03T17:31:49.964Z</time></trkpt><trkpt lat="37.1328533" lon="10.0322724"><ele>86.0</ele><time>2026-05-03T17:31:50.9Z</time></trkpt><trkpt lat="37.133115" lon="10.0321401"><ele>89.0</ele><time>2026-05-03T17:31:51.928Z</time></trkpt><trkpt lat="37.133372" lon="10.0320049"><ele>92.0</ele><time>2026-05-03T17:31:52.917Z</time></trkpt><trkpt lat="37.1336291" lon="10.0318709"><ele>92.0</ele><time>2026-05-03T17:31:53.939Z</time></trkpt><trkpt lat="37.133885" lon="10.0317386"><ele>92.0</ele><time>2026-05-03T17:31:54.936Z</time></trkpt><trkpt lat="37.1341396" lon="10.0316096"><ele>94.0</ele><time>2026-05-03T17:31:55.931Z</time></trkpt><trkpt lat="37.1343953" lon="10.0314827"><ele>96.0</ele><time>2026-05-03T17:31:56.897Z</time></trkpt><trkpt lat="37.1346497" lon="10.0313517"><ele>91.5</ele><time>2026-05-03T17:31:57.93Z</time></trkpt><trkpt lat="37.1349018" lon="10.0312253"><ele>87.0</ele><time>2026-05-03T17:31:58.931Z</time></trkpt><trkpt lat="37.1351527" lon="10.0310989"><ele>87.0</ele><time>2026-05-03T17:31:59.916Z</time></trkpt><trkpt lat="37.1354096" lon="10.0309785"><ele>87.0</ele><time>2026-05-03T17:32:00.937Z</time></trkpt><trkpt lat="37.1356708" lon="10.0308629"><ele>84.5</ele><time>2026-05-03T17:32:01.939Z</time></trkpt><trkpt lat="37.135933" lon="10.0307492"><ele>82.0</ele><time>2026-05-03T17:32:02.915Z</time></trkpt><trkpt lat="37.1361916" lon="10.030644"><ele>82.0</ele><time>2026-05-03T17:32:03.911Z</time></trkpt><trkpt lat="37.1364561" lon="10.03054"><ele>82.0</ele><time>2026-05-03T17:32:04.921Z</time></trkpt><trkpt lat="37.1367186" lon="10.030439"><ele>79.5</ele><time>2026-05-03T17:32:05.925Z</time></trkpt><trkpt lat="37.1369909" lon="10.0303426"><ele>77.0</ele><time>2026-05-03T17:32:06.941Z</time></trkpt><trkpt lat="37.1372584" lon="10.0302491"><ele>75.5</ele><time>2026-05-03T17:32:07.917Z</time></trkpt><trkpt lat="37.1375202" lon="10.0301606"><ele>74.0</ele><time>2026-05-03T17:32:08.925Z</time></trkpt><trkpt lat="37.1377858" lon="10.0300701"><ele>74.0</ele><time>2026-05-03T17:32:09.951Z</time></trkpt><trkpt lat="37.1380531" lon="10.029979"><ele>74.0</ele><time>2026-05-03T17:32:10.934Z</time></trkpt><trkpt lat="37.1383172" lon="10.0298937"><ele>72.5</ele><time>2026-05-03T17:32:11.926Z</time></trkpt><trkpt lat="37.1385844" lon="10.0298143"><ele>71.0</ele><time>2026-05-03T17:32:12.929Z</time></trkpt><trkpt lat="37.1388508" lon="10.0297359"><ele>71.5</ele><time>2026-05-03T17:32:13.924Z</time></trkpt><trkpt lat="37.1391176" lon="10.0296611"><ele>72.0</ele><time>2026-05-03T17:32:14.928Z</time></trkpt><trkpt lat="37.1393889" lon="10.0295926"><ele>72.0</ele><time>2026-05-03T17:32:15.894Z</time></trkpt><trkpt lat="37.1396613" lon="10.0295278"><ele>72.0</ele><time>2026-05-03T17:32:16.928Z</time></trkpt><trkpt lat="37.1399318" lon="10.0294641"><ele>71.0</ele><time>2026-05-03T17:32:17.93Z</time></trkpt><trkpt lat="37.1402036" lon="10.0294058"><ele>70.0</ele><time>2026-05-03T17:32:18.931Z</time></trkpt><trkpt lat="37.1404769" lon="10.0293524"><ele>69.5</ele><time>2026-05-03T17:32:19.933Z</time></trkpt><trkpt lat="37.1407492" lon="10.0293014"><ele>69.0</ele><time>2026-05-03T17:32:20.93Z</time></trkpt><trkpt lat="37.1410219" lon="10.029255"><ele>69.0</ele><time>2026-05-03T17:32:21.933Z</time></trkpt><trkpt lat="37.1412948" lon="10.0292096"><ele>69.0</ele><time>2026-05-03T17:32:22.93Z</time></trkpt><trkpt lat="37.1415715" lon="10.0291692"><ele>68.0</ele><time>2026-05-03T17:32:23.929Z</time></trkpt><trkpt lat="37.1418449" lon="10.0291286"><ele>67.0</ele><time>2026-05-03T17:32:24.928Z</time></trkpt><trkpt lat="37.142118" lon="10.0290915"><ele>65.0</ele><time>2026-05-03T17:32:25.921Z</time></trkpt><trkpt lat="37.1423948" lon="10.0290543"><ele>63.0</ele><time>2026-05-03T17:32:26.928Z</time></trkpt><trkpt lat="37.1426648" lon="10.0290257"><ele>63.0</ele><time>2026-05-03T17:32:27.935Z</time></trkpt><trkpt lat="37.1429368" lon="10.0289977"><ele>63.0</ele><time>2026-05-03T17:32:28.932Z</time></trkpt><trkpt lat="37.1432029" lon="10.0289673"><ele>64.0</ele><time>2026-05-03T17:32:29.929Z</time></trkpt><trkpt lat="37.1434598" lon="10.0289387"><ele>65.0</ele><time>2026-05-03T17:32:30.928Z</time></trkpt><trkpt lat="37.1437011" lon="10.0289016"><ele>65.0</ele><time>2026-05-03T17:32:31.933Z</time></trkpt><trkpt lat="37.1439427" lon="10.0288724"><ele>65.0</ele><time>2026-05-03T17:32:32.92Z</time></trkpt><trkpt lat="37.1441874" lon="10.0288417"><ele>65.0</ele><time>2026-05-03T17:32:33.935Z</time></trkpt><trkpt lat="37.1444348" lon="10.0288177"><ele>65.0</ele><time>2026-05-03T17:32:34.898Z</time></trkpt><trkpt lat="37.1446825" lon="10.0287899"><ele>64.0</ele><time>2026-05-03T17:32:35.923Z</time></trkpt><trkpt lat="37.1449304" lon="10.02876"><ele>63.0</ele><time>2026-05-03T17:32:36.924Z</time></trkpt><trkpt lat="37.1451829" lon="10.0287314"><ele>63.0</ele><time>2026-05-03T17:32:37.917Z</time></trkpt><trkpt lat="37.1454444" lon="10.0286985"><ele>63.0</ele><time>2026-05-03T17:32:38.914Z</time></trkpt><trkpt lat="37.1457137" lon="10.0286712"><ele>62.0</ele><time>2026-05-03T17:32:39.934Z</time></trkpt><trkpt lat="37.1459833" lon="10.0286337"><ele>61.0</ele><time>2026-05-03T17:32:40.92Z</time></trkpt><trkpt lat="37.1462525" lon="10.0286"><ele>61.0</ele><time>2026-05-03T17:32:41.915Z</time></trkpt><trkpt lat="37.1465185" lon="10.0285659"><ele>61.0</ele><time>2026-05-03T17:32:42.919Z</time></trkpt><trkpt lat="37.1467828" lon="10.0285338"><ele>60.5</ele><time>2026-05-03T17:32:43.918Z</time></trkpt><trkpt lat="37.1470471" lon="10.0284999"><ele>60.0</ele><time>2026-05-03T17:32:44.923Z</time></trkpt><trkpt lat="37.1473136" lon="10.0284696"><ele>59.0</ele><time>2026-05-03T17:32:45.94Z</time></trkpt><trkpt lat="37.147576" lon="10.0284426"><ele>58.0</ele><time>2026-05-03T17:32:46.924Z</time></trkpt><trkpt lat="37.1478401" lon="10.0284166"><ele>58.0</ele><time>2026-05-03T17:32:47.926Z</time></trkpt><trkpt lat="37.1481065" lon="10.0283874"><ele>58.0</ele><time>2026-05-03T17:32:48.951Z</time></trkpt><trkpt lat="37.1483693" lon="10.0283591"><ele>56.0</ele><time>2026-05-03T17:32:49.928Z</time></trkpt><trkpt lat="37.1486355" lon="10.0283274"><ele>54.0</ele><time>2026-05-03T17:32:50.924Z</time></trkpt><trkpt lat="37.1489003" lon="10.0282959"><ele>52.5</ele><time>2026-05-03T17:32:51.923Z</time></trkpt><trkpt lat="37.1491692" lon="10.0282658"><ele>51.0</ele><time>2026-05-03T17:32:52.927Z</time></trkpt><trkpt lat="37.1494381" lon="10.0282342"><ele>51.0</ele><time>2026-05-03T17:32:53.929Z</time></trkpt><trkpt lat="37.149699" lon="10.028204"><ele>51.0</ele><time>2026-05-03T17:32:54.927Z</time></trkpt><trkpt lat="37.149964" lon="10.0281723"><ele>49.5</ele><time>2026-05-03T17:32:55.923Z</time></trkpt><trkpt lat="37.1502297" lon="10.0281414"><ele>48.0</ele><time>2026-05-03T17:32:56.908Z</time></trkpt><trkpt lat="37.1504912" lon="10.0281084"><ele>46.5</ele><time>2026-05-03T17:32:57.933Z</time></trkpt><trkpt lat="37.1507526" lon="10.0280798"><ele>45.0</ele><time>2026-05-03T17:32:58.927Z</time></trkpt><trkpt lat="37.1510228" lon="10.0280506"><ele>45.0</ele><time>2026-05-03T17:32:59.912Z</time></trkpt><trkpt lat="37.1512856" lon="10.0280163"><ele>45.0</ele><time>2026-05-03T17:33:00.921Z</time></trkpt><trkpt lat="37.1515508" lon="10.0279836"><ele>44.5</ele><time>2026-05-03T17:33:01.922Z</time></trkpt><trkpt lat="37.151818" lon="10.0279561"><ele>44.0</ele><time>2026-05-03T17:33:02.927Z</time></trkpt><trkpt lat="37.1520828" lon="10.0279295"><ele>44.0</ele><time>2026-05-03T17:33:03.931Z</time></trkpt><trkpt lat="37.1523499" lon="10.0278939"><ele>44.0</ele><time>2026-05-03T17:33:04.926Z</time></trkpt><trkpt lat="37.1526134" lon="10.0278637"><ele>44.5</ele><time>2026-05-03T17:33:05.925Z</time></trkpt><trkpt lat="37.1528805" lon="10.0278241"><ele>45.0</ele><time>2026-05-03T17:33:06.927Z</time></trkpt><trkpt lat="37.1531471" lon="10.0277909"><ele>44.5</ele><time>2026-05-03T17:33:07.926Z</time></trkpt><trkpt lat="37.1534139" lon="10.0277598"><ele>44.0</ele><time>2026-05-03T17:33:08.933Z</time></trkpt><trkpt lat="37.1536786" lon="10.0277313"><ele>44.0</ele><time>2026-05-03T17:33:09.935Z</time></trkpt><trkpt lat="37.1539452" lon="10.0276986"><ele>44.0</ele><time>2026-05-03T17:33:10.918Z</time></trkpt><trkpt lat="37.1542106" lon="10.0276666"><ele>44.0</ele><time>2026-05-03T17:33:11.918Z</time></trkpt><trkpt lat="37.154472" lon="10.0276347"><ele>44.0</ele><time>2026-05-03T17:33:12.916Z</time></trkpt><trkpt lat="37.1547351" lon="10.0276018"><ele>44.0</ele><time>2026-05-03T17:33:13.918Z</time></trkpt><trkpt lat="37.1549995" lon="10.0275687"><ele>44.0</ele><time>2026-05-03T17:33:14.926Z</time></trkpt><trkpt lat="37.155265" lon="10.0275361"><ele>44.0</ele><time>2026-05-03T17:33:15.914Z</time></trkpt><trkpt lat="37.1555274" lon="10.0275033"><ele>44.0</ele><time>2026-05-03T17:33:16.926Z</time></trkpt><trkpt lat="37.1557903" lon="10.0274659"><ele>43.0</ele><time>2026-05-03T17:33:17.937Z</time></trkpt><trkpt lat="37.1560558" lon="10.0274222"><ele>42.0</ele><time>2026-05-03T17:33:18.92Z</time></trkpt><trkpt lat="37.1563184" lon="10.0273732"><ele>43.0</ele><time>2026-05-03T17:33:19.93Z</time></trkpt><trkpt lat="37.1565804" lon="10.0273242"><ele>44.0</ele><time>2026-05-03T17:33:20.917Z</time></trkpt><trkpt lat="37.1568479" lon="10.02727"><ele>44.0</ele><time>2026-05-03T17:33:21.936Z</time></trkpt><trkpt lat="37.1571076" lon="10.0272113"><ele>44.0</ele><time>2026-05-03T17:33:22.931Z</time></trkpt><trkpt lat="37.157368" lon="10.0271543"><ele>44.5</ele><time>2026-05-03T17:33:23.929Z</time></trkpt><trkpt lat="37.1576302" lon="10.0270904"><ele>45.0</ele><time>2026-05-03T17:33:24.921Z</time></trkpt><trkpt lat="37.1578913" lon="10.0270245"><ele>45.0</ele><time>2026-05-03T17:33:25.935Z</time></trkpt><trkpt lat="37.1581521" lon="10.0269553"><ele>45.0</ele><time>2026-05-03T17:33:26.939Z</time></trkpt><trkpt lat="37.158412" lon="10.0268843"><ele>46.5</ele><time>2026-05-03T17:33:27.933Z</time></trkpt><trkpt lat="37.1586727" lon="10.026809"><ele>48.0</ele><time>2026-05-03T17:33:28.933Z</time></trkpt><trkpt lat="37.15893" lon="10.026732"><ele>48.5</ele><time>2026-05-03T17:33:29.925Z</time></trkpt><trkpt lat="37.1591881" lon="10.0266497"><ele>49.0</ele><time>2026-05-03T17:33:30.921Z</time></trkpt><trkpt lat="37.1594462" lon="10.0265716"><ele>47.5</ele><time>2026-05-03T17:33:31.931Z</time></trkpt><trkpt lat="37.1596999" lon="10.0264839"><ele>46.0</ele><time>2026-05-03T17:33:32.918Z</time></trkpt><trkpt lat="37.1599535" lon="10.0263972"><ele>46.0</ele><time>2026-05-03T17:33:33.933Z</time></trkpt><trkpt lat="37.1602039" lon="10.0262988"><ele>46.0</ele><time>2026-05-03T17:33:34.91Z</time></trkpt><trkpt lat="37.1604627" lon="10.0262001"><ele>46.0</ele><time>2026-05-03T17:33:35.909Z</time></trkpt><trkpt lat="37.1607133" lon="10.026096"><ele>46.0</ele><time>2026-05-03T17:33:36.932Z</time></trkpt><trkpt lat="37.1609698" lon="10.0259866"><ele>46.0</ele><time>2026-05-03T17:33:37.924Z</time></trkpt><trkpt lat="37.1612202" lon="10.0258707"><ele>46.0</ele><time>2026-05-03T17:33:38.926Z</time></trkpt><trkpt lat="37.1614765" lon="10.0257571"><ele>46.5</ele><time>2026-05-03T17:33:39.891Z</time></trkpt><trkpt lat="37.161727" lon="10.0256458"><ele>47.0</ele><time>2026-05-03T17:33:40.893Z</time></trkpt><trkpt lat="37.1619725" lon="10.0255311"><ele>47.0</ele><time>2026-05-03T17:33:41.898Z</time></trkpt><trkpt lat="37.1622203" lon="10.025419"><ele>47.0</ele><time>2026-05-03T17:33:42.925Z</time></trkpt><trkpt lat="37.162472" lon="10.0253055"><ele>45.5</ele><time>2026-05-03T17:33:43.927Z</time></trkpt><trkpt lat="37.1627199" lon="10.0251863"><ele>44.0</ele><time>2026-05-03T17:33:44.927Z</time></trkpt><trkpt lat="37.1629691" lon="10.025066"><ele>43.0</ele><time>2026-05-03T17:33:45.907Z</time></trkpt><trkpt lat="37.1632178" lon="10.0249526"><ele>42.0</ele><time>2026-05-03T17:33:46.921Z</time></trkpt><trkpt lat="37.1634693" lon="10.0248345"><ele>42.0</ele><time>2026-05-03T17:33:47.919Z</time></trkpt><trkpt lat="37.1637203" lon="10.0247233"><ele>42.0</ele><time>2026-05-03T17:33:48.922Z</time></trkpt><trkpt lat="37.1639704" lon="10.02461"><ele>42.5</ele><time>2026-05-03T17:33:49.903Z</time></trkpt><trkpt lat="37.1642211" lon="10.0244905"><ele>43.0</ele><time>2026-05-03T17:33:50.927Z</time></trkpt><trkpt lat="37.1644648" lon="10.0243715"><ele>43.0</ele><time>2026-05-03T17:33:51.925Z</time></trkpt><trkpt lat="37.1647124" lon="10.0242482"><ele>43.0</ele><time>2026-05-03T17:33:52.925Z</time></trkpt><trkpt lat="37.1649601" lon="10.0241302"><ele>43.5</ele><time>2026-05-03T17:33:53.917Z</time></trkpt><trkpt lat="37.1652116" lon="10.0240111"><ele>44.0</ele><time>2026-05-03T17:33:54.935Z</time></trkpt><trkpt lat="37.1654585" lon="10.0238959"><ele>43.0</ele><time>2026-05-03T17:33:55.934Z</time></trkpt><trkpt lat="37.1657076" lon="10.0237753"><ele>42.0</ele><time>2026-05-03T17:33:56.922Z</time></trkpt><trkpt lat="37.1659575" lon="10.0236546"><ele>42.0</ele><time>2026-05-03T17:33:57.929Z</time></trkpt><trkpt lat="37.1662021" lon="10.0235328"><ele>42.0</ele><time>2026-05-03T17:33:58.917Z</time></trkpt><trkpt lat="37.1664531" lon="10.0234101"><ele>42.5</ele><time>2026-05-03T17:33:59.904Z</time></trkpt><trkpt lat="37.166703" lon="10.0232889"><ele>43.0</ele><time>2026-05-03T17:34:00.928Z</time></trkpt><trkpt lat="37.1669521" lon="10.0231703"><ele>43.0</ele><time>2026-05-03T17:34:01.923Z</time></trkpt><trkpt lat="37.1671993" lon="10.0230438"><ele>43.0</ele><time>2026-05-03T17:34:02.899Z</time></trkpt><trkpt lat="37.1674434" lon="10.0229223"><ele>44.0</ele><time>2026-05-03T17:34:03.896Z</time></trkpt><trkpt lat="37.1676889" lon="10.0228009"><ele>45.0</ele><time>2026-05-03T17:34:04.915Z</time></trkpt><trkpt lat="37.1679395" lon="10.0226852"><ele>45.0</ele><time>2026-05-03T17:34:05.926Z</time></trkpt><trkpt lat="37.1681854" lon="10.0225623"><ele>45.0</ele><time>2026-05-03T17:34:06.926Z</time></trkpt><trkpt lat="37.1684301" lon="10.0224419"><ele>44.5</ele><time>2026-05-03T17:34:07.897Z</time></trkpt><trkpt lat="37.1686768" lon="10.0223229"><ele>44.0</ele><time>2026-05-03T17:34:08.916Z</time></trkpt><trkpt lat="37.1689247" lon="10.0222067"><ele>44.0</ele><time>2026-05-03T17:34:09.919Z</time></trkpt><trkpt lat="37.1691735" lon="10.0220842"><ele>44.0</ele><time>2026-05-03T17:34:10.926Z</time></trkpt><trkpt lat="37.1694236" lon="10.0219686"><ele>44.0</ele><time>2026-05-03T17:34:11.918Z</time></trkpt><trkpt lat="37.169672" lon="10.0218522"><ele>44.0</ele><time>2026-05-03T17:34:12.916Z</time></trkpt><trkpt lat="37.1699213" lon="10.0217311"><ele>44.0</ele><time>2026-05-03T17:34:13.924Z</time></trkpt><trkpt lat="37.170174" lon="10.0216107"><ele>44.0</ele><time>2026-05-03T17:34:14.921Z</time></trkpt><trkpt lat="37.170422" lon="10.0214898"><ele>44.0</ele><time>2026-05-03T17:34:15.925Z</time></trkpt><trkpt lat="37.170669" lon="10.0213713"><ele>44.0</ele><time>2026-05-03T17:34:16.899Z</time></trkpt><trkpt lat="37.1709226" lon="10.0212535"><ele>44.5</ele><time>2026-05-03T17:34:17.9Z</time></trkpt><trkpt lat="37.1711667" lon="10.0211351"><ele>45.0</ele><time>2026-05-03T17:34:18.893Z</time></trkpt><trkpt lat="37.1714176" lon="10.0210144"><ele>45.0</ele><time>2026-05-03T17:34:19.923Z</time></trkpt><trkpt lat="37.1716692" lon="10.0208941"><ele>45.0</ele><time>2026-05-03T17:34:20.934Z</time></trkpt><trkpt lat="37.1719221" lon="10.0207707"><ele>45.0</ele><time>2026-05-03T17:34:21.919Z</time></trkpt><trkpt lat="37.1721708" lon="10.0206524"><ele>45.0</ele><time>2026-05-03T17:34:22.923Z</time></trkpt><trkpt lat="37.1724192" lon="10.020533"><ele>44.5</ele><time>2026-05-03T17:34:23.929Z</time></trkpt><trkpt lat="37.1726715" lon="10.020412"><ele>44.0</ele><time>2026-05-03T17:34:24.914Z</time></trkpt><trkpt lat="37.172918" lon="10.0202912"><ele>44.0</ele><time>2026-05-03T17:34:25.927Z</time></trkpt><trkpt lat="37.1731623" lon="10.0201704"><ele>44.0</ele><time>2026-05-03T17:34:26.931Z</time></trkpt><trkpt lat="37.1734083" lon="10.02005"><ele>44.0</ele><time>2026-05-03T17:34:27.93Z</time></trkpt><trkpt lat="37.1736526" lon="10.019934"><ele>44.0</ele><time>2026-05-03T17:34:28.902Z</time></trkpt><trkpt lat="37.1738994" lon="10.019814"><ele>44.0</ele><time>2026-05-03T17:34:29.912Z</time></trkpt><trkpt lat="37.1741529" lon="10.0196916"><ele>44.0</ele><time>2026-05-03T17:34:30.918Z</time></trkpt><trkpt lat="37.174402" lon="10.0195742"><ele>44.0</ele><time>2026-05-03T17:34:31.929Z</time></trkpt><trkpt lat="37.1746487" lon="10.0194602"><ele>44.0</ele><time>2026-05-03T17:34:32.92Z</time></trkpt><trkpt lat="37.174893" lon="10.0193471"><ele>44.5</ele><time>2026-05-03T17:34:33.927Z</time></trkpt><trkpt lat="37.1751467" lon="10.0192244"><ele>45.0</ele><time>2026-05-03T17:34:34.919Z</time></trkpt><trkpt lat="37.1753962" lon="10.0191016"><ele>45.0</ele><time>2026-05-03T17:34:35.901Z</time></trkpt><trkpt lat="37.1756401" lon="10.0189796"><ele>45.0</ele><time>2026-05-03T17:34:36.907Z</time></trkpt><trkpt lat="37.1758879" lon="10.0188588"><ele>45.0</ele><time>2026-05-03T17:34:37.892Z</time></trkpt><trkpt lat="37.1761352" lon="10.0187386"><ele>45.0</ele><time>2026-05-03T17:34:38.955Z</time></trkpt><trkpt lat="37.1763848" lon="10.0186164"><ele>44.5</ele><time>2026-05-03T17:34:39.898Z</time></trkpt><trkpt lat="37.1766352" lon="10.0184942"><ele>44.0</ele><time>2026-05-03T17:34:40.915Z</time></trkpt><trkpt lat="37.1768852" lon="10.0183751"><ele>44.5</ele><time>2026-05-03T17:34:41.916Z</time></trkpt><trkpt lat="37.1771367" lon="10.0182576"><ele>45.0</ele><time>2026-05-03T17:34:42.903Z</time></trkpt><trkpt lat="37.1773881" lon="10.0181419"><ele>45.5</ele><time>2026-05-03T17:34:43.908Z</time></trkpt><trkpt lat="37.1776314" lon="10.0180307"><ele>46.0</ele><time>2026-05-03T17:34:44.922Z</time></trkpt><trkpt lat="37.1778796" lon="10.0179093"><ele>46.0</ele><time>2026-05-03T17:34:45.92Z</time></trkpt><trkpt lat="37.1781293" lon="10.017782"><ele>46.0</ele><time>2026-05-03T17:34:46.913Z</time></trkpt><trkpt lat="37.1783787" lon="10.0176571"><ele>46.0</ele><time>2026-05-03T17:34:47.931Z</time></trkpt><trkpt lat="37.1786244" lon="10.0175348"><ele>46.0</ele><time>2026-05-03T17:34:48.921Z</time></trkpt><trkpt lat="37.1788713" lon="10.0174124"><ele>45.5</ele><time>2026-05-03T17:34:49.905Z</time></trkpt><trkpt lat="37.1791179" lon="10.0172961"><ele>45.0</ele><time>2026-05-03T17:34:50.916Z</time></trkpt><trkpt lat="37.1793645" lon="10.0171774"><ele>45.0</ele><time>2026-05-03T17:34:51.921Z</time></trkpt><trkpt lat="37.1796158" lon="10.0170562"><ele>45.0</ele><time>2026-05-03T17:34:52.936Z</time></trkpt><trkpt lat="37.1798618" lon="10.0169383"><ele>46.0</ele><time>2026-05-03T17:34:53.931Z</time></trkpt><trkpt lat="37.1801072" lon="10.0168191"><ele>47.0</ele><time>2026-05-03T17:34:54.925Z</time></trkpt><trkpt lat="37.1803583" lon="10.0167019"><ele>47.0</ele><time>2026-05-03T17:34:55.89Z</time></trkpt><trkpt lat="37.1806078" lon="10.0165838"><ele>47.0</ele><time>2026-05-03T17:34:56.927Z</time></trkpt><trkpt lat="37.1808574" lon="10.0164656"><ele>47.0</ele><time>2026-05-03T17:34:57.892Z</time></trkpt><trkpt lat="37.1811042" lon="10.0163467"><ele>47.0</ele><time>2026-05-03T17:34:58.918Z</time></trkpt><trkpt lat="37.1813537" lon="10.0162277"><ele>47.5</ele><time>2026-05-03T17:34:59.93Z</time></trkpt><trkpt lat="37.1816007" lon="10.0161029"><ele>48.0</ele><time>2026-05-03T17:35:00.911Z</time></trkpt><trkpt lat="37.1818482" lon="10.015985"><ele>48.0</ele><time>2026-05-03T17:35:01.916Z</time></trkpt><trkpt lat="37.1820947" lon="10.0158663"><ele>48.0</ele><time>2026-05-03T17:35:02.911Z</time></trkpt><trkpt lat="37.1823453" lon="10.0157467"><ele>48.0</ele><time>2026-05-03T17:35:03.929Z</time></trkpt><trkpt lat="37.1825927" lon="10.0156271"><ele>48.0</ele><time>2026-05-03T17:35:04.908Z</time></trkpt><trkpt lat="37.1828365" lon="10.0155077"><ele>48.0</ele><time>2026-05-03T17:35:05.922Z</time></trkpt><trkpt lat="37.1830845" lon="10.0153876"><ele>48.0</ele><time>2026-05-03T17:35:06.936Z</time></trkpt><trkpt lat="37.1833322" lon="10.0152687"><ele>48.5</ele><time>2026-05-03T17:35:07.921Z</time></trkpt><trkpt lat="37.1835799" lon="10.0151556"><ele>49.0</ele><time>2026-05-03T17:35:08.913Z</time></trkpt><trkpt lat="37.1838308" lon="10.015035"><ele>49.5</ele><time>2026-05-03T17:35:09.931Z</time></trkpt><trkpt lat="37.1840795" lon="10.0149136"><ele>50.0</ele><time>2026-05-03T17:35:10.932Z</time></trkpt><trkpt lat="37.1843289" lon="10.0147975"><ele>50.0</ele><time>2026-05-03T17:35:11.906Z</time></trkpt><trkpt lat="37.1845776" lon="10.0146788"><ele>50.0</ele><time>2026-05-03T17:35:12.933Z</time></trkpt><trkpt lat="37.1848291" lon="10.0145582"><ele>49.5</ele><time>2026-05-03T17:35:13.922Z</time></trkpt><trkpt lat="37.1850733" lon="10.0144376"><ele>49.0</ele><time>2026-05-03T17:35:14.924Z</time></trkpt><trkpt lat="37.1853196" lon="10.0143191"><ele>49.0</ele><time>2026-05-03T17:35:15.934Z</time></trkpt><trkpt lat="37.1855732" lon="10.0141993"><ele>49.0</ele><time>2026-05-03T17:35:16.92Z</time></trkpt><trkpt lat="37.185825" lon="10.0140807"><ele>48.0</ele><time>2026-05-03T17:35:17.92Z</time></trkpt><trkpt lat="37.1860778" lon="10.0139597"><ele>47.0</ele><time>2026-05-03T17:35:18.921Z</time></trkpt><trkpt lat="37.1863287" lon="10.0138373"><ele>48.5</ele><time>2026-05-03T17:35:19.918Z</time></trkpt><trkpt lat="37.1865705" lon="10.0137127"><ele>50.0</ele><time>2026-05-03T17:35:20.928Z</time></trkpt><trkpt lat="37.1868157" lon="10.0135892"><ele>50.0</ele><time>2026-05-03T17:35:21.906Z</time></trkpt><trkpt lat="37.1870624" lon="10.0134629"><ele>50.0</ele><time>2026-05-03T17:35:22.924Z</time></trkpt><trkpt lat="37.1873103" lon="10.0133301"><ele>51.0</ele><time>2026-05-03T17:35:23.924Z</time></trkpt><trkpt lat="37.1875518" lon="10.0131997"><ele>52.0</ele><time>2026-05-03T17:35:24.909Z</time></trkpt><trkpt lat="37.1877924" lon="10.0130633"><ele>52.0</ele><time>2026-05-03T17:35:25.924Z</time></trkpt><trkpt lat="37.1880331" lon="10.012924"><ele>52.0</ele><time>2026-05-03T17:35:26.917Z</time></trkpt><trkpt lat="37.1882778" lon="10.0127859"><ele>50.5</ele><time>2026-05-03T17:35:27.92Z</time></trkpt><trkpt lat="37.1885186" lon="10.0126474"><ele>49.0</ele><time>2026-05-03T17:35:28.915Z</time></trkpt><trkpt lat="37.1887548" lon="10.0124956"><ele>48.5</ele><time>2026-05-03T17:35:29.917Z</time></trkpt><trkpt lat="37.1889865" lon="10.0123315"><ele>48.0</ele><time>2026-05-03T17:35:30.927Z</time></trkpt><trkpt lat="37.1892157" lon="10.0121583"><ele>47.0</ele><time>2026-05-03T17:35:31.927Z</time></trkpt><trkpt lat="37.1894451" lon="10.011996"><ele>46.0</ele><time>2026-05-03T17:35:32.925Z</time></trkpt><trkpt lat="37.1896743" lon="10.0118215"><ele>46.0</ele><time>2026-05-03T17:35:33.934Z</time></trkpt><trkpt lat="37.1898969" lon="10.0116459"><ele>46.0</ele><time>2026-05-03T17:35:34.926Z</time></trkpt><trkpt lat="37.1901263" lon="10.0114632"><ele>46.0</ele><time>2026-05-03T17:35:35.915Z</time></trkpt><trkpt lat="37.1903529" lon="10.0112802"><ele>46.0</ele><time>2026-05-03T17:35:36.913Z</time></trkpt><trkpt lat="37.1905757" lon="10.0110933"><ele>46.5</ele><time>2026-05-03T17:35:37.922Z</time></trkpt><trkpt lat="37.1907944" lon="10.0109012"><ele>47.0</ele><time>2026-05-03T17:35:38.925Z</time></trkpt><trkpt lat="37.1910116" lon="10.010706"><ele>47.0</ele><time>2026-05-03T17:35:39.923Z</time></trkpt><trkpt lat="37.191223" lon="10.0105079"><ele>47.0</ele><time>2026-05-03T17:35:40.907Z</time></trkpt><trkpt lat="37.19143" lon="10.0103041"><ele>48.5</ele><time>2026-05-03T17:35:41.927Z</time></trkpt><trkpt lat="37.1916343" lon="10.0101015"><ele>50.0</ele><time>2026-05-03T17:35:42.932Z</time></trkpt><trkpt lat="37.1918358" lon="10.0098939"><ele>50.0</ele><time>2026-05-03T17:35:43.91Z</time></trkpt><trkpt lat="37.1920378" lon="10.0096766"><ele>50.0</ele><time>2026-05-03T17:35:44.939Z</time></trkpt><trkpt lat="37.1922371" lon="10.0094537"><ele>50.0</ele><time>2026-05-03T17:35:45.922Z</time></trkpt><trkpt lat="37.1924385" lon="10.0092306"><ele>50.0</ele><time>2026-05-03T17:35:46.92Z</time></trkpt><trkpt lat="37.1926368" lon="10.0090007"><ele>49.5</ele><time>2026-05-03T17:35:47.913Z</time></trkpt><trkpt lat="37.1928313" lon="10.0087717"><ele>49.0</ele><time>2026-05-03T17:35:48.93Z</time></trkpt><trkpt lat="37.1930254" lon="10.0085386"><ele>51.5</ele><time>2026-05-03T17:35:49.903Z</time></trkpt><trkpt lat="37.1932152" lon="10.0082977"><ele>54.0</ele><time>2026-05-03T17:35:50.905Z</time></trkpt><trkpt lat="37.1934011" lon="10.0080589"><ele>54.0</ele><time>2026-05-03T17:35:51.912Z</time></trkpt><trkpt lat="37.1935817" lon="10.007818"><ele>54.0</ele><time>2026-05-03T17:35:52.896Z</time></trkpt><trkpt lat="37.193757" lon="10.0075704"><ele>54.0</ele><time>2026-05-03T17:35:53.915Z</time></trkpt><trkpt lat="37.1939277" lon="10.0073202"><ele>54.0</ele><time>2026-05-03T17:35:54.96Z</time></trkpt><trkpt lat="37.1941046" lon="10.0070633"><ele>54.0</ele><time>2026-05-03T17:35:55.926Z</time></trkpt><trkpt lat="37.194276" lon="10.0068073"><ele>54.0</ele><time>2026-05-03T17:35:56.922Z</time></trkpt><trkpt lat="37.1944437" lon="10.0065518"><ele>54.0</ele><time>2026-05-03T17:35:57.913Z</time></trkpt><trkpt lat="37.1946091" lon="10.0062931"><ele>54.0</ele><time>2026-05-03T17:35:58.92Z</time></trkpt><trkpt lat="37.1947692" lon="10.0060284"><ele>54.5</ele><time>2026-05-03T17:35:59.923Z</time></trkpt><trkpt lat="37.1949234" lon="10.0057568"><ele>55.0</ele><time>2026-05-03T17:36:00.926Z</time></trkpt><trkpt lat="37.1950749" lon="10.0054875"><ele>55.0</ele><time>2026-05-03T17:36:01.941Z</time></trkpt><trkpt lat="37.1952235" lon="10.0052102"><ele>55.0</ele><time>2026-05-03T17:36:02.916Z</time></trkpt><trkpt lat="37.1953733" lon="10.0049299"><ele>54.0</ele><time>2026-05-03T17:36:03.936Z</time></trkpt><trkpt lat="37.1955179" lon="10.0046497"><ele>53.0</ele><time>2026-05-03T17:36:04.928Z</time></trkpt><trkpt lat="37.1956577" lon="10.004367"><ele>55.0</ele><time>2026-05-03T17:36:05.943Z</time></trkpt><trkpt lat="37.1957905" lon="10.0040843"><ele>57.0</ele><time>2026-05-03T17:36:06.923Z</time></trkpt><trkpt lat="37.1959166" lon="10.0037985"><ele>57.0</ele><time>2026-05-03T17:36:07.929Z</time></trkpt><trkpt lat="37.1960509" lon="10.0035044"><ele>57.0</ele><time>2026-05-03T17:36:08.938Z</time></trkpt><trkpt lat="37.196183" lon="10.0032113"><ele>56.0</ele><time>2026-05-03T17:36:09.933Z</time></trkpt><trkpt lat="37.1963113" lon="10.0029199"><ele>55.0</ele><time>2026-05-03T17:36:10.924Z</time></trkpt><trkpt lat="37.1964408" lon="10.0026295"><ele>58.0</ele><time>2026-05-03T17:36:11.932Z</time></trkpt><trkpt lat="37.1965666" lon="10.0023392"><ele>61.0</ele><time>2026-05-03T17:36:12.921Z</time></trkpt><trkpt lat="37.196693" lon="10.0020479"><ele>61.0</ele><time>2026-05-03T17:36:13.921Z</time></trkpt><trkpt lat="37.1968212" lon="10.0017552"><ele>61.0</ele><time>2026-05-03T17:36:14.919Z</time></trkpt><trkpt lat="37.1969468" lon="10.0014639"><ele>57.5</ele><time>2026-05-03T17:36:15.925Z</time></trkpt><trkpt lat="37.1970736" lon="10.001171"><ele>54.0</ele><time>2026-05-03T17:36:16.912Z</time></trkpt><trkpt lat="37.1972037" lon="10.0008761"><ele>56.5</ele><time>2026-05-03T17:36:17.901Z</time></trkpt><trkpt lat="37.1973465" lon="10.0005774"><ele>59.0</ele><time>2026-05-03T17:36:18.922Z</time></trkpt><trkpt lat="37.1974878" lon="10.0002752"><ele>59.0</ele><time>2026-05-03T17:36:19.926Z</time></trkpt><trkpt lat="37.1976276" lon="9.9999705"><ele>59.0</ele><time>2026-05-03T17:36:20.918Z</time></trkpt><trkpt lat="37.1977666" lon="9.9996661"><ele>59.0</ele><time>2026-05-03T17:36:21.926Z</time></trkpt><trkpt lat="37.1979035" lon="9.9993558"><ele>59.0</ele><time>2026-05-03T17:36:22.935Z</time></trkpt><trkpt lat="37.1980376" lon="9.9990481"><ele>61.0</ele><time>2026-05-03T17:36:23.93Z</time></trkpt><trkpt lat="37.1981711" lon="9.9987398"><ele>63.0</ele><time>2026-05-03T17:36:24.911Z</time></trkpt><trkpt lat="37.1983037" lon="9.9984321"><ele>61.5</ele><time>2026-05-03T17:36:25.936Z</time></trkpt><trkpt lat="37.1984376" lon="9.9981229"><ele>60.0</ele><time>2026-05-03T17:36:26.91Z</time></trkpt><trkpt lat="37.1985722" lon="9.9978183"><ele>60.0</ele><time>2026-05-03T17:36:27.932Z</time></trkpt><trkpt lat="37.1987057" lon="9.9975064"><ele>60.0</ele><time>2026-05-03T17:36:28.904Z</time></trkpt><trkpt lat="37.1988413" lon="9.9971972"><ele>60.0</ele><time>2026-05-03T17:36:29.929Z</time></trkpt><trkpt lat="37.1989754" lon="9.9968924"><ele>60.0</ele><time>2026-05-03T17:36:30.918Z</time></trkpt><trkpt lat="37.199112" lon="9.9965839"><ele>60.0</ele><time>2026-05-03T17:36:31.926Z</time></trkpt><trkpt lat="37.1992489" lon="9.9962783"><ele>60.0</ele><time>2026-05-03T17:36:32.908Z</time></trkpt><trkpt lat="37.1993839" lon="9.995972"><ele>58.5</ele><time>2026-05-03T17:36:33.914Z</time></trkpt><trkpt lat="37.1995205" lon="9.9956629"><ele>57.0</ele><time>2026-05-03T17:36:34.911Z</time></trkpt><trkpt lat="37.199658" lon="9.9953538"><ele>57.0</ele><time>2026-05-03T17:36:35.911Z</time></trkpt><trkpt lat="37.1997988" lon="9.9950462"><ele>57.0</ele><time>2026-05-03T17:36:36.948Z</time></trkpt><trkpt lat="37.1999369" lon="9.9947394"><ele>57.5</ele><time>2026-05-03T17:36:37.922Z</time></trkpt><trkpt lat="37.2000735" lon="9.9944333"><ele>58.0</ele><time>2026-05-03T17:36:38.917Z</time></trkpt><trkpt lat="37.2002098" lon="9.9941248"><ele>58.0</ele><time>2026-05-03T17:36:39.934Z</time></trkpt><trkpt lat="37.2003446" lon="9.9938162"><ele>58.0</ele><time>2026-05-03T17:36:40.918Z</time></trkpt><trkpt lat="37.2004779" lon="9.9935101"><ele>57.5</ele><time>2026-05-03T17:36:41.907Z</time></trkpt><trkpt lat="37.2006137" lon="9.9932022"><ele>57.0</ele><time>2026-05-03T17:36:42.922Z</time></trkpt><trkpt lat="37.2007513" lon="9.9928978"><ele>58.5</ele><time>2026-05-03T17:36:43.934Z</time></trkpt><trkpt lat="37.2008885" lon="9.9925933"><ele>60.0</ele><time>2026-05-03T17:36:44.929Z</time></trkpt><trkpt lat="37.2010256" lon="9.9922824"><ele>60.5</ele><time>2026-05-03T17:36:45.92Z</time></trkpt><trkpt lat="37.2011607" lon="9.9919705"><ele>61.0</ele><time>2026-05-03T17:36:46.914Z</time></trkpt><trkpt lat="37.2012926" lon="9.991669"><ele>59.5</ele><time>2026-05-03T17:36:47.909Z</time></trkpt><trkpt lat="37.2014292" lon="9.9913592"><ele>58.0</ele><time>2026-05-03T17:36:48.928Z</time></trkpt><trkpt lat="37.2015655" lon="9.991048"><ele>58.0</ele><time>2026-05-03T17:36:49.927Z</time></trkpt><trkpt lat="37.2016986" lon="9.9907401"><ele>58.0</ele><time>2026-05-03T17:36:50.927Z</time></trkpt><trkpt lat="37.2018349" lon="9.9904326"><ele>58.0</ele><time>2026-05-03T17:36:51.932Z</time></trkpt><trkpt lat="37.2019709" lon="9.9901275"><ele>58.0</ele><time>2026-05-03T17:36:52.924Z</time></trkpt><trkpt lat="37.2021084" lon="9.9898176"><ele>57.5</ele><time>2026-05-03T17:36:53.928Z</time></trkpt><trkpt lat="37.202244" lon="9.9895116"><ele>57.0</ele><time>2026-05-03T17:36:54.935Z</time></trkpt><trkpt lat="37.2023771" lon="9.989205"><ele>58.5</ele><time>2026-05-03T17:36:55.919Z</time></trkpt><trkpt lat="37.2025076" lon="9.9888988"><ele>60.0</ele><time>2026-05-03T17:36:56.935Z</time></trkpt><trkpt lat="37.2026394" lon="9.9885915"><ele>57.5</ele><time>2026-05-03T17:36:57.921Z</time></trkpt><trkpt lat="37.2027729" lon="9.9882861"><ele>55.0</ele><time>2026-05-03T17:36:58.919Z</time></trkpt><trkpt lat="37.2029066" lon="9.9879815"><ele>55.0</ele><time>2026-05-03T17:36:59.928Z</time></trkpt><trkpt lat="37.2030457" lon="9.9876762"><ele>55.0</ele><time>2026-05-03T17:37:00.927Z</time></trkpt><trkpt lat="37.2031827" lon="9.9873664"><ele>54.5</ele><time>2026-05-03T17:37:01.913Z</time></trkpt><trkpt lat="37.203319" lon="9.9870623"><ele>54.0</ele><time>2026-05-03T17:37:02.926Z</time></trkpt><trkpt lat="37.2034549" lon="9.9867575"><ele>53.5</ele><time>2026-05-03T17:37:03.916Z</time></trkpt><trkpt lat="37.2035951" lon="9.9864527"><ele>53.0</ele><time>2026-05-03T17:37:04.927Z</time></trkpt><trkpt lat="37.2037376" lon="9.9861426"><ele>52.5</ele><time>2026-05-03T17:37:05.928Z</time></trkpt><trkpt lat="37.2038811" lon="9.9858404"><ele>52.0</ele><time>2026-05-03T17:37:06.95Z</time></trkpt><trkpt lat="37.2040246" lon="9.9855394"><ele>52.0</ele><time>2026-05-03T17:37:07.93Z</time></trkpt><trkpt lat="37.2041684" lon="9.9852333"><ele>52.0</ele><time>2026-05-03T17:37:08.899Z</time></trkpt><trkpt lat="37.2043125" lon="9.9849297"><ele>50.0</ele><time>2026-05-03T17:37:09.927Z</time></trkpt><trkpt lat="37.2044554" lon="9.9846235"><ele>48.0</ele><time>2026-05-03T17:37:10.912Z</time></trkpt><trkpt lat="37.2046031" lon="9.9843248"><ele>47.5</ele><time>2026-05-03T17:37:11.922Z</time></trkpt><trkpt lat="37.2047527" lon="9.9840211"><ele>47.0</ele><time>2026-05-03T17:37:12.917Z</time></trkpt><trkpt lat="37.2049028" lon="9.9837273"><ele>47.0</ele><time>2026-05-03T17:37:13.928Z</time></trkpt><trkpt lat="37.2050567" lon="9.9834362"><ele>47.0</ele><time>2026-05-03T17:37:14.924Z</time></trkpt><trkpt lat="37.2052082" lon="9.9831431"><ele>47.0</ele><time>2026-05-03T17:37:15.918Z</time></trkpt><trkpt lat="37.2053626" lon="9.9828533"><ele>47.0</ele><time>2026-05-03T17:37:16.904Z</time></trkpt><trkpt lat="37.2055175" lon="9.9825586"><ele>46.5</ele><time>2026-05-03T17:37:17.932Z</time></trkpt><trkpt lat="37.205671" lon="9.9822661"><ele>46.0</ele><time>2026-05-03T17:37:18.933Z</time></trkpt><trkpt lat="37.2058293" lon="9.9819725"><ele>46.0</ele><time>2026-05-03T17:37:19.927Z</time></trkpt><trkpt lat="37.2059871" lon="9.9816834"><ele>46.0</ele><time>2026-05-03T17:37:20.918Z</time></trkpt><trkpt lat="37.2061514" lon="9.9813964"><ele>45.5</ele><time>2026-05-03T17:37:21.938Z</time></trkpt><trkpt lat="37.2063157" lon="9.9811135"><ele>45.0</ele><time>2026-05-03T17:37:22.92Z</time></trkpt><trkpt lat="37.2064772" lon="9.9808283"><ele>45.5</ele><time>2026-05-03T17:37:23.921Z</time></trkpt><trkpt lat="37.2066412" lon="9.9805355"><ele>46.0</ele><time>2026-05-03T17:37:24.898Z</time></trkpt><trkpt lat="37.2068074" lon="9.9802547"><ele>46.5</ele><time>2026-05-03T17:37:25.918Z</time></trkpt><trkpt lat="37.2069736" lon="9.9799715"><ele>47.0</ele><time>2026-05-03T17:37:26.911Z</time></trkpt><trkpt lat="37.207136" lon="9.9796921"><ele>47.0</ele><time>2026-05-03T17:37:27.931Z</time></trkpt><trkpt lat="37.2073058" lon="9.9794093"><ele>47.0</ele><time>2026-05-03T17:37:28.911Z</time></trkpt><trkpt lat="37.2074731" lon="9.9791265"><ele>45.0</ele><time>2026-05-03T17:37:29.929Z</time></trkpt><trkpt lat="37.2076447" lon="9.9788485"><ele>43.0</ele><time>2026-05-03T17:37:30.93Z</time></trkpt><trkpt lat="37.2078183" lon="9.9785703"><ele>43.5</ele><time>2026-05-03T17:37:31.913Z</time></trkpt><trkpt lat="37.2079886" lon="9.9782912"><ele>44.0</ele><time>2026-05-03T17:37:32.916Z</time></trkpt><trkpt lat="37.2081583" lon="9.9780128"><ele>42.5</ele><time>2026-05-03T17:37:33.925Z</time></trkpt><trkpt lat="37.2083304" lon="9.9777353"><ele>41.0</ele><time>2026-05-03T17:37:34.929Z</time></trkpt><trkpt lat="37.2085008" lon="9.977459"><ele>40.5</ele><time>2026-05-03T17:37:35.911Z</time></trkpt><trkpt lat="37.2086721" lon="9.9771862"><ele>40.0</ele><time>2026-05-03T17:37:36.927Z</time></trkpt><trkpt lat="37.20885" lon="9.9769119"><ele>40.5</ele><time>2026-05-03T17:37:37.926Z</time></trkpt><trkpt lat="37.2090263" lon="9.9766371"><ele>41.0</ele><time>2026-05-03T17:37:38.93Z</time></trkpt><trkpt lat="37.2092046" lon="9.9763659"><ele>41.0</ele><time>2026-05-03T17:37:39.929Z</time></trkpt><trkpt lat="37.2093901" lon="9.9760989"><ele>41.0</ele><time>2026-05-03T17:37:40.928Z</time></trkpt><trkpt lat="37.209575" lon="9.9758373"><ele>39.5</ele><time>2026-05-03T17:37:41.919Z</time></trkpt><trkpt lat="37.2097594" lon="9.9755685"><ele>38.0</ele><time>2026-05-03T17:37:42.924Z</time></trkpt><trkpt lat="37.2099465" lon="9.9753059"><ele>38.0</ele><time>2026-05-03T17:37:43.908Z</time></trkpt><trkpt lat="37.210134" lon="9.9750438"><ele>38.0</ele><time>2026-05-03T17:37:44.92Z</time></trkpt><trkpt lat="37.210322" lon="9.9747822"><ele>36.5</ele><time>2026-05-03T17:37:45.904Z</time></trkpt><trkpt lat="37.2105104" lon="9.9745266"><ele>35.0</ele><time>2026-05-03T17:37:46.926Z</time></trkpt><trkpt lat="37.2107012" lon="9.9742703"><ele>33.0</ele><time>2026-05-03T17:37:47.936Z</time></trkpt><trkpt lat="37.2108941" lon="9.9740132"><ele>31.0</ele><time>2026-05-03T17:37:48.93Z</time></trkpt><trkpt lat="37.21108" lon="9.9737547"><ele>31.0</ele><time>2026-05-03T17:37:49.915Z</time></trkpt><trkpt lat="37.2112694" lon="9.9734964"><ele>31.0</ele><time>2026-05-03T17:37:50.899Z</time></trkpt><trkpt lat="37.2114605" lon="9.9732383"><ele>32.0</ele><time>2026-05-03T17:37:51.922Z</time></trkpt><trkpt lat="37.2116535" lon="9.972985"><ele>33.0</ele><time>2026-05-03T17:37:52.922Z</time></trkpt><trkpt lat="37.2118421" lon="9.9727236"><ele>30.5</ele><time>2026-05-03T17:37:53.919Z</time></trkpt><trkpt lat="37.2120355" lon="9.9724694"><ele>28.0</ele><time>2026-05-03T17:37:54.934Z</time></trkpt><trkpt lat="37.2122255" lon="9.9722128"><ele>29.5</ele><time>2026-05-03T17:37:55.904Z</time></trkpt><trkpt lat="37.2124148" lon="9.9719517"><ele>31.0</ele><time>2026-05-03T17:37:56.932Z</time></trkpt><trkpt lat="37.2126101" lon="9.9716924"><ele>28.5</ele><time>2026-05-03T17:37:57.923Z</time></trkpt><trkpt lat="37.2127997" lon="9.9714392"><ele>26.0</ele><time>2026-05-03T17:37:58.91Z</time></trkpt><trkpt lat="37.2129936" lon="9.9711832"><ele>26.5</ele><time>2026-05-03T17:37:59.915Z</time></trkpt><trkpt lat="37.2131847" lon="9.9709211"><ele>27.0</ele><time>2026-05-03T17:38:00.918Z</time></trkpt><trkpt lat="37.2133754" lon="9.9706632"><ele>27.0</ele><time>2026-05-03T17:38:01.927Z</time></trkpt><trkpt lat="37.213567" lon="9.9704069"><ele>27.0</ele><time>2026-05-03T17:38:02.916Z</time></trkpt><trkpt lat="37.2137593" lon="9.9701509"><ele>27.0</ele><time>2026-05-03T17:38:03.919Z</time></trkpt><trkpt lat="37.2139528" lon="9.9698896"><ele>27.0</ele><time>2026-05-03T17:38:04.924Z</time></trkpt><trkpt lat="37.2141442" lon="9.9696344"><ele>26.5</ele><time>2026-05-03T17:38:05.94Z</time></trkpt><trkpt lat="37.2143335" lon="9.9693768"><ele>26.0</ele><time>2026-05-03T17:38:06.931Z</time></trkpt><trkpt lat="37.2145254" lon="9.9691141"><ele>26.0</ele><time>2026-05-03T17:38:07.927Z</time></trkpt><trkpt lat="37.2147157" lon="9.9688517"><ele>26.0</ele><time>2026-05-03T17:38:08.923Z</time></trkpt><trkpt lat="37.2149048" lon="9.9685974"><ele>25.0</ele><time>2026-05-03T17:38:09.92Z</time></trkpt><trkpt lat="37.2150956" lon="9.9683413"><ele>24.0</ele><time>2026-05-03T17:38:10.924Z</time></trkpt><trkpt lat="37.2152825" lon="9.9680866"><ele>24.0</ele><time>2026-05-03T17:38:11.923Z</time></trkpt><trkpt lat="37.2154749" lon="9.9678276"><ele>24.0</ele><time>2026-05-03T17:38:12.936Z</time></trkpt><trkpt lat="37.2156666" lon="9.9675734"><ele>24.0</ele><time>2026-05-03T17:38:13.926Z</time></trkpt><trkpt lat="37.2158602" lon="9.9673153"><ele>24.0</ele><time>2026-05-03T17:38:14.924Z</time></trkpt><trkpt lat="37.216047" lon="9.9670584"><ele>24.0</ele><time>2026-05-03T17:38:15.924Z</time></trkpt><trkpt lat="37.2162369" lon="9.9667996"><ele>24.0</ele><time>2026-05-03T17:38:16.925Z</time></trkpt><trkpt lat="37.2164318" lon="9.9665473"><ele>23.5</ele><time>2026-05-03T17:38:17.929Z</time></trkpt><trkpt lat="37.2166205" lon="9.9662897"><ele>23.0</ele><time>2026-05-03T17:38:18.921Z</time></trkpt><trkpt lat="37.2168108" lon="9.9660366"><ele>22.0</ele><time>2026-05-03T17:38:19.919Z</time></trkpt><trkpt lat="37.2170058" lon="9.9657765"><ele>21.0</ele><time>2026-05-03T17:38:20.937Z</time></trkpt><trkpt lat="37.2171938" lon="9.9655216"><ele>20.5</ele><time>2026-05-03T17:38:21.906Z</time></trkpt><trkpt lat="37.2173861" lon="9.9652651"><ele>20.0</ele><time>2026-05-03T17:38:22.905Z</time></trkpt><trkpt lat="37.2175789" lon="9.9650086"><ele>20.0</ele><time>2026-05-03T17:38:23.934Z</time></trkpt><trkpt lat="37.2177689" lon="9.9647564"><ele>20.0</ele><time>2026-05-03T17:38:24.929Z</time></trkpt><trkpt lat="37.217967" lon="9.9645041"><ele>21.5</ele><time>2026-05-03T17:38:25.904Z</time></trkpt><trkpt lat="37.2181634" lon="9.964258"><ele>23.0</ele><time>2026-05-03T17:38:26.913Z</time></trkpt><trkpt lat="37.2183677" lon="9.9640171"><ele>23.0</ele><time>2026-05-03T17:38:27.914Z</time></trkpt><trkpt lat="37.218574" lon="9.963776"><ele>23.0</ele><time>2026-05-03T17:38:28.924Z</time></trkpt><trkpt lat="37.2187836" lon="9.9635445"><ele>20.5</ele><time>2026-05-03T17:38:29.894Z</time></trkpt><trkpt lat="37.2189932" lon="9.9633154"><ele>18.0</ele><time>2026-05-03T17:38:30.923Z</time></trkpt><trkpt lat="37.2192053" lon="9.9630867"><ele>18.0</ele><time>2026-05-03T17:38:31.917Z</time></trkpt><trkpt lat="37.2194184" lon="9.9628607"><ele>18.0</ele><time>2026-05-03T17:38:32.912Z</time></trkpt><trkpt lat="37.2196323" lon="9.9626367"><ele>17.5</ele><time>2026-05-03T17:38:33.924Z</time></trkpt><trkpt lat="37.2198484" lon="9.9624159"><ele>17.0</ele><time>2026-05-03T17:38:34.929Z</time></trkpt><trkpt lat="37.2200671" lon="9.962192"><ele>17.0</ele><time>2026-05-03T17:38:35.919Z</time></trkpt><trkpt lat="37.2202893" lon="9.961976"><ele>17.0</ele><time>2026-05-03T17:38:36.925Z</time></trkpt><trkpt lat="37.2205114" lon="9.9617599"><ele>16.5</ele><time>2026-05-03T17:38:37.925Z</time></trkpt><trkpt lat="37.2207353" lon="9.9615508"><ele>16.0</ele><time>2026-05-03T17:38:38.912Z</time></trkpt><trkpt lat="37.2209609" lon="9.9613388"><ele>16.0</ele><time>2026-05-03T17:38:39.914Z</time></trkpt><trkpt lat="37.2211814" lon="9.9611257"><ele>16.0</ele><time>2026-05-03T17:38:40.931Z</time></trkpt><trkpt lat="37.2214031" lon="9.9609153"><ele>15.0</ele><time>2026-05-03T17:38:41.911Z</time></trkpt><trkpt lat="37.2216251" lon="9.9606962"><ele>14.0</ele><time>2026-05-03T17:38:42.922Z</time></trkpt><trkpt lat="37.2218452" lon="9.9604823"><ele>14.0</ele><time>2026-05-03T17:38:43.943Z</time></trkpt><trkpt lat="37.2220669" lon="9.9602671"><ele>14.0</ele><time>2026-05-03T17:38:44.912Z</time></trkpt><trkpt lat="37.2222895" lon="9.9600582"><ele>13.5</ele><time>2026-05-03T17:38:45.95Z</time></trkpt><trkpt lat="37.2225116" lon="9.9598419"><ele>13.0</ele><time>2026-05-03T17:38:46.92Z</time></trkpt><trkpt lat="37.2227335" lon="9.9596275"><ele>13.0</ele><time>2026-05-03T17:38:47.937Z</time></trkpt><trkpt lat="37.2229543" lon="9.9594084"><ele>13.0</ele><time>2026-05-03T17:38:48.929Z</time></trkpt><trkpt lat="37.22317" lon="9.9591871"><ele>13.0</ele><time>2026-05-03T17:38:49.947Z</time></trkpt><trkpt lat="37.2233849" lon="9.958966"><ele>13.0</ele><time>2026-05-03T17:38:50.928Z</time></trkpt><trkpt lat="37.2235999" lon="9.9587371"><ele>13.0</ele><time>2026-05-03T17:38:51.918Z</time></trkpt><trkpt lat="37.2238092" lon="9.958505"><ele>13.0</ele><time>2026-05-03T17:38:52.92Z</time></trkpt><trkpt lat="37.2240145" lon="9.9582666"><ele>12.5</ele><time>2026-05-03T17:38:53.935Z</time></trkpt><trkpt lat="37.224215" lon="9.9580206"><ele>12.0</ele><time>2026-05-03T17:38:54.922Z</time></trkpt><trkpt lat="37.2244159" lon="9.9577671"><ele>12.5</ele><time>2026-05-03T17:38:55.918Z</time></trkpt><trkpt lat="37.2246097" lon="9.9575183"><ele>13.0</ele><time>2026-05-03T17:38:56.924Z</time></trkpt><trkpt lat="37.2248011" lon="9.9572592"><ele>13.0</ele><time>2026-05-03T17:38:57.904Z</time></trkpt><trkpt lat="37.2249956" lon="9.9570026"><ele>13.0</ele><time>2026-05-03T17:38:58.908Z</time></trkpt><trkpt lat="37.2251843" lon="9.9567359"><ele>12.5</ele><time>2026-05-03T17:38:59.909Z</time></trkpt><trkpt lat="37.2253693" lon="9.9564705"><ele>12.0</ele><time>2026-05-03T17:39:00.923Z</time></trkpt><trkpt lat="37.2255447" lon="9.9561997"><ele>12.5</ele><time>2026-05-03T17:39:01.925Z</time></trkpt><trkpt lat="37.2257179" lon="9.9559284"><ele>13.0</ele><time>2026-05-03T17:39:02.919Z</time></trkpt><trkpt lat="37.2258773" lon="9.9556744"><ele>13.0</ele><time>2026-05-03T17:39:03.928Z</time></trkpt><trkpt lat="37.2260307" lon="9.9554127"><ele>13.0</ele><time>2026-05-03T17:39:04.915Z</time></trkpt><trkpt lat="37.2261767" lon="9.9551502"><ele>11.5</ele><time>2026-05-03T17:39:05.923Z</time></trkpt><trkpt lat="37.2263228" lon="9.9548863"><ele>10.0</ele><time>2026-05-03T17:39:06.927Z</time></trkpt><trkpt lat="37.2264626" lon="9.9546197"><ele>9.0</ele><time>2026-05-03T17:39:07.91Z</time></trkpt><trkpt lat="37.2266005" lon="9.9543484"><ele>8.0</ele><time>2026-05-03T17:39:08.93Z</time></trkpt><trkpt lat="37.2267349" lon="9.9540844"><ele>8.0</ele><time>2026-05-03T17:39:09.924Z</time></trkpt><trkpt lat="37.2268678" lon="9.9538274"><ele>8.0</ele><time>2026-05-03T17:39:10.932Z</time></trkpt><trkpt lat="37.2269963" lon="9.9535675"><ele>8.0</ele><time>2026-05-03T17:39:11.893Z</time></trkpt><trkpt lat="37.2271215" lon="9.9533097"><ele>8.0</ele><time>2026-05-03T17:39:12.899Z</time></trkpt><trkpt lat="37.2272427" lon="9.9530539"><ele>9.5</ele><time>2026-05-03T17:39:13.946Z</time></trkpt><trkpt lat="37.2273637" lon="9.9528022"><ele>11.0</ele><time>2026-05-03T17:39:14.916Z</time></trkpt><trkpt lat="37.2274877" lon="9.9525515"><ele>9.5</ele><time>2026-05-03T17:39:15.903Z</time></trkpt><trkpt lat="37.2276055" lon="9.9523055"><ele>8.0</ele><time>2026-05-03T17:39:16.928Z</time></trkpt><trkpt lat="37.2277195" lon="9.9520658"><ele>8.0</ele><time>2026-05-03T17:39:17.928Z</time></trkpt><trkpt lat="37.2278344" lon="9.9518355"><ele>8.0</ele><time>2026-05-03T17:39:18.925Z</time></trkpt><trkpt lat="37.2279362" lon="9.9516212"><ele>8.0</ele><time>2026-05-03T17:39:19.917Z</time></trkpt><trkpt lat="37.2280341" lon="9.9514144"><ele>8.0</ele><time>2026-05-03T17:39:20.919Z</time></trkpt><trkpt lat="37.2281319" lon="9.9512109"><ele>8.0</ele><time>2026-05-03T17:39:21.941Z</time></trkpt><trkpt lat="37.2282292" lon="9.9510187"><ele>8.0</ele><time>2026-05-03T17:39:22.919Z</time></trkpt><trkpt lat="37.2283262" lon="9.9508251"><ele>8.0</ele><time>2026-05-03T17:39:23.922Z</time></trkpt><trkpt lat="37.2284236" lon="9.9506299"><ele>8.0</ele><time>2026-05-03T17:39:24.919Z</time></trkpt><trkpt lat="37.2285155" lon="9.9504427"><ele>8.0</ele><time>2026-05-03T17:39:25.942Z</time></trkpt><trkpt lat="37.2286034" lon="9.9502621"><ele>8.0</ele><time>2026-05-03T17:39:26.921Z</time></trkpt><trkpt lat="37.2286853" lon="9.9500928"><ele>8.0</ele><time>2026-05-03T17:39:27.925Z</time></trkpt><trkpt lat="37.2287662" lon="9.9499289"><ele>8.0</ele><time>2026-05-03T17:39:28.926Z</time></trkpt><trkpt lat="37.2288447" lon="9.9497731"><ele>8.5</ele><time>2026-05-03T17:39:29.898Z</time></trkpt><trkpt lat="37.2289112" lon="9.9496268"><ele>9.0</ele><time>2026-05-03T17:39:30.918Z</time></trkpt><trkpt lat="37.228981" lon="9.9494823"><ele>9.5</ele><time>2026-05-03T17:39:31.923Z</time></trkpt><trkpt lat="37.2290486" lon="9.9493406"><ele>10.0</ele><time>2026-05-03T17:39:32.894Z</time></trkpt><trkpt lat="37.2291081" lon="9.9492033"><ele>9.2</ele><time>2026-05-03T17:39:33.93Z</time></trkpt><trkpt lat="37.2291664" lon="9.949072"><ele>8.4</ele><time>2026-05-03T17:39:34.925Z</time></trkpt><trkpt lat="37.2292231" lon="9.9489534"><ele>7.6</ele><time>2026-05-03T17:39:35.924Z</time></trkpt><trkpt lat="37.2292746" lon="9.9488377"><ele>6.8</ele><time>2026-05-03T17:39:36.928Z</time></trkpt><trkpt lat="37.2293281" lon="9.9487291"><ele>6.0</ele><time>2026-05-03T17:39:37.888Z</time></trkpt><trkpt lat="37.2293727" lon="9.9486314"><ele>6.0</ele><time>2026-05-03T17:39:38.93Z</time></trkpt><trkpt lat="37.2294094" lon="9.9485467"><ele>6.0</ele><time>2026-05-03T17:39:39.923Z</time></trkpt><trkpt lat="37.2294652" lon="9.9484388"><ele>6.0</ele><time>2026-05-03T17:39:41.922Z</time></trkpt><trkpt lat="37.2295142" lon="9.9483469"><ele>6.0</ele><time>2026-05-03T17:39:44.928Z</time></trkpt><trkpt lat="37.2295385" lon="9.9482238"><ele>6.0</ele><time>2026-05-03T17:41:09.903Z</time></trkpt><trkpt lat="37.2295726" lon="9.9481495"><ele>6.0</ele><time>2026-05-03T17:41:12.926Z</time></trkpt><trkpt lat="37.2296255" lon="9.9480471"><ele>6.333333333333333</ele><time>2026-05-03T17:41:14.9Z</time></trkpt><trkpt lat="37.2296725" lon="9.9479777"><ele>6.666666666666666</ele><time>2026-05-03T17:41:15.92Z</time></trkpt><trkpt lat="37.2297182" lon="9.9479078"><ele>7.0</ele><time>2026-05-03T17:41:16.926Z</time></trkpt><trkpt lat="37.2297602" lon="9.9478334"><ele>7.333333333333333</ele><time>2026-05-03T17:41:17.92Z</time></trkpt><trkpt lat="37.229805" lon="9.9477656"><ele>7.666666666666666</ele><time>2026-05-03T17:41:18.913Z</time></trkpt><trkpt lat="37.2298688" lon="9.9476455"><ele>8.0</ele><time>2026-05-03T17:41:20.907Z</time></trkpt><trkpt lat="37.2299233" lon="9.9475241"><ele>7.333333333333333</ele><time>2026-05-03T17:41:22.926Z</time></trkpt><trkpt lat="37.229949" lon="9.9473972"><ele>6.666666666666666</ele><time>2026-05-03T17:41:24.922Z</time></trkpt><trkpt lat="37.2299777" lon="9.9473089"><ele>6.0</ele><time>2026-05-03T17:41:26.914Z</time></trkpt><trkpt lat="37.2300203" lon="9.9472276"><ele>5.333333333333333</ele><time>2026-05-03T17:42:01.924Z</time></trkpt><trkpt lat="37.2300672" lon="9.9471424"><ele>4.666666666666666</ele><time>2026-05-03T17:42:02.907Z</time></trkpt><trkpt lat="37.2301214" lon="9.9470272"><ele>4.0</ele><time>2026-05-03T17:42:03.914Z</time></trkpt><trkpt lat="37.2301921" lon="9.9468847"><ele>4.0</ele><time>2026-05-03T17:42:04.906Z</time></trkpt><trkpt lat="37.2302712" lon="9.9467324"><ele>4.0</ele><time>2026-05-03T17:42:05.914Z</time></trkpt><trkpt lat="37.2303551" lon="9.9465651"><ele>4.0</ele><time>2026-05-03T17:42:06.92Z</time></trkpt><trkpt lat="37.2304413" lon="9.9463978"><ele>3.333333333333333</ele><time>2026-05-03T17:42:07.915Z</time></trkpt><trkpt lat="37.2305323" lon="9.9462321"><ele>2.6666666666666665</ele><time>2026-05-03T17:42:08.93Z</time></trkpt><trkpt lat="37.2306238" lon="9.9460558"><ele>2.0</ele><time>2026-05-03T17:42:09.945Z</time></trkpt><trkpt lat="37.2307191" lon="9.9458674"><ele>3.333333333333333</ele><time>2026-05-03T17:42:10.92Z</time></trkpt><trkpt lat="37.2308227" lon="9.9456646"><ele>4.666666666666667</ele><time>2026-05-03T17:42:11.927Z</time></trkpt><trkpt lat="37.2309324" lon="9.9454443"><ele>6.0</ele><time>2026-05-03T17:42:12.914Z</time></trkpt><trkpt lat="37.2310494" lon="9.9452214"><ele>5.333333333333333</ele><time>2026-05-03T17:42:13.9Z</time></trkpt><trkpt lat="37.2311665" lon="9.9449964"><ele>4.666666666666666</ele><time>2026-05-03T17:42:14.923Z</time></trkpt><trkpt lat="37.2312776" lon="9.9447767"><ele>4.0</ele><time>2026-05-03T17:42:15.922Z</time></trkpt><trkpt lat="37.2313915" lon="9.9445546"><ele>5.0</ele><time>2026-05-03T17:42:16.907Z</time></trkpt><trkpt lat="37.2315029" lon="9.9443291"><ele>6.0</ele><time>2026-05-03T17:42:17.92Z</time></trkpt><trkpt lat="37.2316152" lon="9.9440992"><ele>7.0</ele><time>2026-05-03T17:42:18.913Z</time></trkpt><trkpt lat="37.2317324" lon="9.9438759"><ele>7.0</ele><time>2026-05-03T17:42:19.912Z</time></trkpt><trkpt lat="37.2318538" lon="9.9436559"><ele>7.0</ele><time>2026-05-03T17:42:20.899Z</time></trkpt><trkpt lat="37.2319709" lon="9.9434392"><ele>7.0</ele><time>2026-05-03T17:42:21.896Z</time></trkpt><trkpt lat="37.2320958" lon="9.943217"><ele>6.0</ele><time>2026-05-03T17:42:22.914Z</time></trkpt><trkpt lat="37.2322241" lon="9.9429749"><ele>5.0</ele><time>2026-05-03T17:42:23.909Z</time></trkpt><trkpt lat="37.2323663" lon="9.9427238"><ele>5.5</ele><time>2026-05-03T17:42:24.927Z</time></trkpt><trkpt lat="37.232511" lon="9.9424723"><ele>6.0</ele><time>2026-05-03T17:42:25.897Z</time></trkpt><trkpt lat="37.2326544" lon="9.9422245"><ele>6.0</ele><time>2026-05-03T17:42:26.921Z</time></trkpt><trkpt lat="37.2328001" lon="9.9419761"><ele>6.0</ele><time>2026-05-03T17:42:27.937Z</time></trkpt><trkpt lat="37.232954" lon="9.9417165"><ele>5.0</ele><time>2026-05-03T17:42:28.927Z</time></trkpt><trkpt lat="37.2331142" lon="9.9414585"><ele>4.0</ele><time>2026-05-03T17:42:29.923Z</time></trkpt><trkpt lat="37.2332741" lon="9.9412017"><ele>5.0</ele><time>2026-05-03T17:42:30.931Z</time></trkpt><trkpt lat="37.233433" lon="9.9409512"><ele>6.0</ele><time>2026-05-03T17:42:31.92Z</time></trkpt><trkpt lat="37.2335967" lon="9.9407002"><ele>6.0</ele><time>2026-05-03T17:42:32.926Z</time></trkpt><trkpt lat="37.2337651" lon="9.9404599"><ele>6.0</ele><time>2026-05-03T17:42:33.926Z</time></trkpt><trkpt lat="37.2339378" lon="9.9402175"><ele>8.0</ele><time>2026-05-03T17:42:34.93Z</time></trkpt><trkpt lat="37.2341133" lon="9.9399803"><ele>10.0</ele><time>2026-05-03T17:42:35.923Z</time></trkpt><trkpt lat="37.2342858" lon="9.9397387"><ele>10.0</ele><time>2026-05-03T17:42:36.917Z</time></trkpt><trkpt lat="37.2344639" lon="9.9394994"><ele>10.0</ele><time>2026-05-03T17:42:37.922Z</time></trkpt><trkpt lat="37.2346478" lon="9.9392624"><ele>11.5</ele><time>2026-05-03T17:42:38.928Z</time></trkpt><trkpt lat="37.2348223" lon="9.9390284"><ele>13.0</ele><time>2026-05-03T17:42:39.937Z</time></trkpt><trkpt lat="37.2350006" lon="9.9387968"><ele>13.0</ele><time>2026-05-03T17:42:40.927Z</time></trkpt><trkpt lat="37.2351853" lon="9.9385678"><ele>13.0</ele><time>2026-05-03T17:42:41.909Z</time></trkpt><trkpt lat="37.2353757" lon="9.9383486"><ele>12.5</ele><time>2026-05-03T17:42:42.924Z</time></trkpt><trkpt lat="37.235564" lon="9.938127"><ele>12.0</ele><time>2026-05-03T17:42:43.919Z</time></trkpt><trkpt lat="37.2357521" lon="9.9379049"><ele>13.5</ele><time>2026-05-03T17:42:44.918Z</time></trkpt><trkpt lat="37.2359454" lon="9.9376861"><ele>15.0</ele><time>2026-05-03T17:42:45.918Z</time></trkpt><trkpt lat="37.2361408" lon="9.9374683"><ele>15.0</ele><time>2026-05-03T17:42:46.93Z</time></trkpt><trkpt lat="37.2363352" lon="9.9372542"><ele>15.0</ele><time>2026-05-03T17:42:47.932Z</time></trkpt><trkpt lat="37.2365289" lon="9.9370444"><ele>15.5</ele><time>2026-05-03T17:42:48.915Z</time></trkpt><trkpt lat="37.2367288" lon="9.9368403"><ele>16.0</ele><time>2026-05-03T17:42:49.914Z</time></trkpt><trkpt lat="37.236926" lon="9.9366308"><ele>16.0</ele><time>2026-05-03T17:42:50.935Z</time></trkpt><trkpt lat="37.2371215" lon="9.936427"><ele>16.0</ele><time>2026-05-03T17:42:51.918Z</time></trkpt><trkpt lat="37.2373181" lon="9.9362137"><ele>16.0</ele><time>2026-05-03T17:42:52.902Z</time></trkpt><trkpt lat="37.2375185" lon="9.9360021"><ele>16.0</ele><time>2026-05-03T17:42:53.912Z</time></trkpt><trkpt lat="37.2377159" lon="9.9357928"><ele>16.0</ele><time>2026-05-03T17:42:54.913Z</time></trkpt><trkpt lat="37.2379098" lon="9.9355879"><ele>16.0</ele><time>2026-05-03T17:42:55.914Z</time></trkpt><trkpt lat="37.2381076" lon="9.9353795"><ele>17.0</ele><time>2026-05-03T17:42:56.923Z</time></trkpt><trkpt lat="37.2383075" lon="9.9351721"><ele>18.0</ele><time>2026-05-03T17:42:57.915Z</time></trkpt><trkpt lat="37.2385078" lon="9.934958"><ele>18.0</ele><time>2026-05-03T17:42:58.937Z</time></trkpt><trkpt lat="37.238708" lon="9.9347486"><ele>18.0</ele><time>2026-05-03T17:42:59.892Z</time></trkpt><trkpt lat="37.2389053" lon="9.9345363"><ele>19.5</ele><time>2026-05-03T17:43:00.934Z</time></trkpt><trkpt lat="37.239098" lon="9.9343283"><ele>21.0</ele><time>2026-05-03T17:43:01.924Z</time></trkpt><trkpt lat="37.2392946" lon="9.9341183"><ele>21.0</ele><time>2026-05-03T17:43:02.928Z</time></trkpt><trkpt lat="37.2394888" lon="9.9339093"><ele>21.0</ele><time>2026-05-03T17:43:03.933Z</time></trkpt><trkpt lat="37.2396876" lon="9.9337001"><ele>21.5</ele><time>2026-05-03T17:43:04.92Z</time></trkpt><trkpt lat="37.2398861" lon="9.9334904"><ele>22.0</ele><time>2026-05-03T17:43:05.927Z</time></trkpt><trkpt lat="37.2400838" lon="9.933283"><ele>22.0</ele><time>2026-05-03T17:43:06.918Z</time></trkpt><trkpt lat="37.240279" lon="9.9330737"><ele>22.0</ele><time>2026-05-03T17:43:07.919Z</time></trkpt><trkpt lat="37.2404769" lon="9.932862"><ele>26.5</ele><time>2026-05-03T17:43:08.931Z</time></trkpt><trkpt lat="37.2406694" lon="9.9326445"><ele>31.0</ele><time>2026-05-03T17:43:09.905Z</time></trkpt><trkpt lat="37.2408621" lon="9.9324339"><ele>31.0</ele><time>2026-05-03T17:43:10.899Z</time></trkpt><trkpt lat="37.2410589" lon="9.9322191"><ele>31.0</ele><time>2026-05-03T17:43:11.934Z</time></trkpt><trkpt lat="37.2412489" lon="9.9320072"><ele>31.0</ele><time>2026-05-03T17:43:12.923Z</time></trkpt><trkpt lat="37.241438" lon="9.9317941"><ele>31.0</ele><time>2026-05-03T17:43:13.924Z</time></trkpt><trkpt lat="37.2416286" lon="9.9315747"><ele>35.0</ele><time>2026-05-03T17:43:14.938Z</time></trkpt><trkpt lat="37.2418151" lon="9.9313499"><ele>39.0</ele><time>2026-05-03T17:43:15.924Z</time></trkpt><trkpt lat="37.2419993" lon="9.9311187"><ele>38.5</ele><time>2026-05-03T17:43:16.912Z</time></trkpt><trkpt lat="37.2421769" lon="9.9308852"><ele>38.0</ele><time>2026-05-03T17:43:17.929Z</time></trkpt><trkpt lat="37.2423537" lon="9.9306452"><ele>38.0</ele><time>2026-05-03T17:43:18.931Z</time></trkpt><trkpt lat="37.2425266" lon="9.9304064"><ele>38.0</ele><time>2026-05-03T17:43:19.927Z</time></trkpt><trkpt lat="37.2426979" lon="9.9301643"><ele>39.5</ele><time>2026-05-03T17:43:20.923Z</time></trkpt><trkpt lat="37.2428661" lon="9.9299191"><ele>41.0</ele><time>2026-05-03T17:43:21.926Z</time></trkpt><trkpt lat="37.2430338" lon="9.9296715"><ele>38.5</ele><time>2026-05-03T17:43:22.925Z</time></trkpt><trkpt lat="37.2431977" lon="9.9294224"><ele>36.0</ele><time>2026-05-03T17:43:23.929Z</time></trkpt><trkpt lat="37.2433586" lon="9.9291725"><ele>36.0</ele><time>2026-05-03T17:43:24.936Z</time></trkpt><trkpt lat="37.2435176" lon="9.9289136"><ele>36.0</ele><time>2026-05-03T17:43:25.929Z</time></trkpt><trkpt lat="37.2436712" lon="9.9286476"><ele>35.0</ele><time>2026-05-03T17:43:26.927Z</time></trkpt><trkpt lat="37.2438237" lon="9.9283822"><ele>34.0</ele><time>2026-05-03T17:43:27.942Z</time></trkpt><trkpt lat="37.2439715" lon="9.928116"><ele>32.0</ele><time>2026-05-03T17:43:28.917Z</time></trkpt><trkpt lat="37.2441163" lon="9.9278447"><ele>30.0</ele><time>2026-05-03T17:43:29.902Z</time></trkpt><trkpt lat="37.2442565" lon="9.9275715"><ele>31.0</ele><time>2026-05-03T17:43:30.916Z</time></trkpt><trkpt lat="37.2443988" lon="9.9272986"><ele>32.0</ele><time>2026-05-03T17:43:31.915Z</time></trkpt><trkpt lat="37.2445394" lon="9.9270271"><ele>32.0</ele><time>2026-05-03T17:43:32.915Z</time></trkpt><trkpt lat="37.2446795" lon="9.926759"><ele>32.0</ele><time>2026-05-03T17:43:33.891Z</time></trkpt><trkpt lat="37.2448199" lon="9.9264903"><ele>30.5</ele><time>2026-05-03T17:43:34.904Z</time></trkpt><trkpt lat="37.2449601" lon="9.9262206"><ele>29.0</ele><time>2026-05-03T17:43:35.91Z</time></trkpt><trkpt lat="37.2451035" lon="9.9259465"><ele>31.0</ele><time>2026-05-03T17:43:36.929Z</time></trkpt><trkpt lat="37.2452472" lon="9.9256729"><ele>33.0</ele><time>2026-05-03T17:43:37.927Z</time></trkpt><trkpt lat="37.2453893" lon="9.9253954"><ele>33.0</ele><time>2026-05-03T17:43:38.927Z</time></trkpt><trkpt lat="37.2455312" lon="9.9251219"><ele>33.0</ele><time>2026-05-03T17:43:39.929Z</time></trkpt><trkpt lat="37.2456746" lon="9.9248453"><ele>32.0</ele><time>2026-05-03T17:43:40.907Z</time></trkpt><trkpt lat="37.2458145" lon="9.9245761"><ele>31.0</ele><time>2026-05-03T17:43:41.936Z</time></trkpt><trkpt lat="37.2459568" lon="9.9243029"><ele>34.0</ele><time>2026-05-03T17:43:42.919Z</time></trkpt><trkpt lat="37.2461009" lon="9.9240243"><ele>37.0</ele><time>2026-05-03T17:43:43.918Z</time></trkpt><trkpt lat="37.2462443" lon="9.9237493"><ele>37.0</ele><time>2026-05-03T17:43:44.919Z</time></trkpt><trkpt lat="37.2463876" lon="9.923473"><ele>37.0</ele><time>2026-05-03T17:43:45.923Z</time></trkpt><trkpt lat="37.2465265" lon="9.9231949"><ele>33.5</ele><time>2026-05-03T17:43:46.915Z</time></trkpt><trkpt lat="37.246668" lon="9.9229158"><ele>30.0</ele><time>2026-05-03T17:43:47.924Z</time></trkpt><trkpt lat="37.2468117" lon="9.9226307"><ele>30.5</ele><time>2026-05-03T17:43:48.935Z</time></trkpt><trkpt lat="37.2469566" lon="9.9223453"><ele>31.0</ele><time>2026-05-03T17:43:49.919Z</time></trkpt><trkpt lat="37.2471003" lon="9.9220627"><ele>31.0</ele><time>2026-05-03T17:43:50.933Z</time></trkpt><trkpt lat="37.2472473" lon="9.9217823"><ele>31.0</ele><time>2026-05-03T17:43:51.891Z</time></trkpt><trkpt lat="37.2473947" lon="9.9215025"><ele>28.5</ele><time>2026-05-03T17:43:52.905Z</time></trkpt><trkpt lat="37.2475374" lon="9.9212244"><ele>26.0</ele><time>2026-05-03T17:43:53.915Z</time></trkpt><trkpt lat="37.2476816" lon="9.9209424"><ele>24.5</ele><time>2026-05-03T17:43:54.919Z</time></trkpt><trkpt lat="37.2478263" lon="9.9206587"><ele>23.0</ele><time>2026-05-03T17:43:55.902Z</time></trkpt><trkpt lat="37.2479757" lon="9.9203705"><ele>21.5</ele><time>2026-05-03T17:43:56.908Z</time></trkpt><trkpt lat="37.2481271" lon="9.9200847"><ele>20.0</ele><time>2026-05-03T17:43:57.924Z</time></trkpt><trkpt lat="37.248274" lon="9.9197979"><ele>20.0</ele><time>2026-05-03T17:43:58.921Z</time></trkpt><trkpt lat="37.2484243" lon="9.9195121"><ele>20.0</ele><time>2026-05-03T17:43:59.927Z</time></trkpt><trkpt lat="37.2485698" lon="9.9192329"><ele>21.0</ele><time>2026-05-03T17:44:00.922Z</time></trkpt><trkpt lat="37.2487179" lon="9.9189501"><ele>22.0</ele><time>2026-05-03T17:44:01.923Z</time></trkpt><trkpt lat="37.2488615" lon="9.9186632"><ele>20.5</ele><time>2026-05-03T17:44:02.924Z</time></trkpt><trkpt lat="37.2490058" lon="9.9183799"><ele>19.0</ele><time>2026-05-03T17:44:03.898Z</time></trkpt><trkpt lat="37.2491546" lon="9.9180916"><ele>19.0</ele><time>2026-05-03T17:44:04.911Z</time></trkpt><trkpt lat="37.2493004" lon="9.9178043"><ele>19.0</ele><time>2026-05-03T17:44:05.919Z</time></trkpt><trkpt lat="37.2494465" lon="9.9175177"><ele>20.0</ele><time>2026-05-03T17:44:06.901Z</time></trkpt><trkpt lat="37.2495933" lon="9.9172331"><ele>21.0</ele><time>2026-05-03T17:44:07.924Z</time></trkpt><trkpt lat="37.2497387" lon="9.9169453"><ele>18.0</ele><time>2026-05-03T17:44:08.928Z</time></trkpt><trkpt lat="37.2498855" lon="9.9166611"><ele>15.0</ele><time>2026-05-03T17:44:09.927Z</time></trkpt><trkpt lat="37.2500325" lon="9.9163727"><ele>15.0</ele><time>2026-05-03T17:44:10.929Z</time></trkpt><trkpt lat="37.2501785" lon="9.91609"><ele>15.0</ele><time>2026-05-03T17:44:11.928Z</time></trkpt><trkpt lat="37.2503241" lon="9.9158051"><ele>16.0</ele><time>2026-05-03T17:44:12.896Z</time></trkpt><trkpt lat="37.2504716" lon="9.9155213"><ele>17.0</ele><time>2026-05-03T17:44:13.923Z</time></trkpt><trkpt lat="37.2506183" lon="9.9152424"><ele>12.5</ele><time>2026-05-03T17:44:14.923Z</time></trkpt><trkpt lat="37.2507651" lon="9.9149507"><ele>8.0</ele><time>2026-05-03T17:44:15.911Z</time></trkpt><trkpt lat="37.2509108" lon="9.9146642"><ele>8.0</ele><time>2026-05-03T17:44:16.909Z</time></trkpt><trkpt lat="37.2510533" lon="9.9143801"><ele>8.0</ele><time>2026-05-03T17:44:17.917Z</time></trkpt><trkpt lat="37.2512016" lon="9.9140977"><ele>9.5</ele><time>2026-05-03T17:44:18.927Z</time></trkpt><trkpt lat="37.2513468" lon="9.9138121"><ele>11.0</ele><time>2026-05-03T17:44:19.928Z</time></trkpt><trkpt lat="37.2514981" lon="9.9135298"><ele>10.5</ele><time>2026-05-03T17:44:20.922Z</time></trkpt><trkpt lat="37.2516442" lon="9.9132506"><ele>10.0</ele><time>2026-05-03T17:44:21.9Z</time></trkpt><trkpt lat="37.251791" lon="9.9129691"><ele>10.0</ele><time>2026-05-03T17:44:22.922Z</time></trkpt><trkpt lat="37.2519379" lon="9.9126856"><ele>10.0</ele><time>2026-05-03T17:44:23.913Z</time></trkpt><trkpt lat="37.2520837" lon="9.9123971"><ele>9.5</ele><time>2026-05-03T17:44:24.891Z</time></trkpt><trkpt lat="37.2522301" lon="9.9121086"><ele>9.0</ele><time>2026-05-03T17:44:25.916Z</time></trkpt><trkpt lat="37.2523702" lon="9.911823"><ele>9.0</ele><time>2026-05-03T17:44:26.902Z</time></trkpt><trkpt lat="37.2525122" lon="9.9115332"><ele>9.0</ele><time>2026-05-03T17:44:27.908Z</time></trkpt><trkpt lat="37.252652" lon="9.9112436"><ele>9.0</ele><time>2026-05-03T17:44:28.911Z</time></trkpt><trkpt lat="37.2527916" lon="9.9109525"><ele>9.0</ele><time>2026-05-03T17:44:29.901Z</time></trkpt><trkpt lat="37.2529293" lon="9.9106604"><ele>8.5</ele><time>2026-05-03T17:44:30.906Z</time></trkpt><trkpt lat="37.2530671" lon="9.9103714"><ele>8.0</ele><time>2026-05-03T17:44:31.894Z</time></trkpt><trkpt lat="37.2532022" lon="9.9100809"><ele>7.5</ele><time>2026-05-03T17:44:32.905Z</time></trkpt><trkpt lat="37.2533407" lon="9.9097839"><ele>7.0</ele><time>2026-05-03T17:44:33.896Z</time></trkpt><trkpt lat="37.2534774" lon="9.9094919"><ele>7.0</ele><time>2026-05-03T17:44:34.921Z</time></trkpt><trkpt lat="37.2536141" lon="9.9091977"><ele>7.0</ele><time>2026-05-03T17:44:35.917Z</time></trkpt><trkpt lat="37.2537464" lon="9.9089102"><ele>7.0</ele><time>2026-05-03T17:44:36.931Z</time></trkpt><trkpt lat="37.2538807" lon="9.9086129"><ele>7.0</ele><time>2026-05-03T17:44:37.928Z</time></trkpt><trkpt lat="37.2540137" lon="9.9083162"><ele>5.5</ele><time>2026-05-03T17:44:38.935Z</time></trkpt><trkpt lat="37.2541476" lon="9.9080208"><ele>4.0</ele><time>2026-05-03T17:44:39.901Z</time></trkpt><trkpt lat="37.2542775" lon="9.9077245"><ele>4.0</ele><time>2026-05-03T17:44:40.935Z</time></trkpt><trkpt lat="37.2544033" lon="9.9074263"><ele>4.0</ele><time>2026-05-03T17:44:41.941Z</time></trkpt><trkpt lat="37.2545324" lon="9.907124"><ele>4.0</ele><time>2026-05-03T17:44:42.922Z</time></trkpt><trkpt lat="37.2546618" lon="9.9068185"><ele>4.0</ele><time>2026-05-03T17:44:43.92Z</time></trkpt><trkpt lat="37.2547777" lon="9.9065334"><ele>3.0</ele><time>2026-05-03T17:44:44.932Z</time></trkpt><trkpt lat="37.2548967" lon="9.9062496"><ele>2.0</ele><time>2026-05-03T17:44:45.899Z</time></trkpt><trkpt lat="37.2550097" lon="9.9059688"><ele>0.5</ele><time>2026-05-03T17:44:46.927Z</time></trkpt><trkpt lat="37.2551256" lon="9.9056909"><ele>-1.0</ele><time>2026-05-03T17:44:47.934Z</time></trkpt><trkpt lat="37.2552392" lon="9.9054038"><ele>-1.0</ele><time>2026-05-03T17:44:48.921Z</time></trkpt><trkpt lat="37.2553505" lon="9.9051228"><ele>-1.0</ele><time>2026-05-03T17:44:49.915Z</time></trkpt><trkpt lat="37.2554612" lon="9.9048455"><ele>-0.5</ele><time>2026-05-03T17:44:50.9Z</time></trkpt><trkpt lat="37.2555675" lon="9.9045793"><ele>0.0</ele><time>2026-05-03T17:44:51.919Z</time></trkpt><trkpt lat="37.2556685" lon="9.9043201"><ele>0.6666666666666666</ele><time>2026-05-03T17:44:52.914Z</time></trkpt><trkpt lat="37.2557714" lon="9.904077"><ele>1.3333333333333333</ele><time>2026-05-03T17:44:53.891Z</time></trkpt><trkpt lat="37.2558665" lon="9.9038386"><ele>2.0</ele><time>2026-05-03T17:44:54.921Z</time></trkpt><trkpt lat="37.2559556" lon="9.9036085"><ele>2.0</ele><time>2026-05-03T17:44:55.926Z</time></trkpt><trkpt lat="37.2560382" lon="9.90339"><ele>2.0</ele><time>2026-05-03T17:44:56.913Z</time></trkpt><trkpt lat="37.2561132" lon="9.9031997"><ele>2.0</ele><time>2026-05-03T17:44:57.925Z</time></trkpt><trkpt lat="37.2561812" lon="9.9030258"><ele>2.0</ele><time>2026-05-03T17:44:58.919Z</time></trkpt><trkpt lat="37.2562412" lon="9.9028728"><ele>2.0</ele><time>2026-05-03T17:44:59.919Z</time></trkpt><trkpt lat="37.2562993" lon="9.9027356"><ele>2.0</ele><time>2026-05-03T17:45:00.925Z</time></trkpt><trkpt lat="37.2563472" lon="9.9025978"><ele>2.0</ele><time>2026-05-03T17:45:01.893Z</time></trkpt><trkpt lat="37.2563906" lon="9.9024708"><ele>2.0</ele><time>2026-05-03T17:45:02.902Z</time></trkpt><trkpt lat="37.2564347" lon="9.902351"><ele>2.0</ele><time>2026-05-03T17:45:03.895Z</time></trkpt><trkpt lat="37.2564744" lon="9.9022381"><ele>2.0</ele><time>2026-05-03T17:45:04.899Z</time></trkpt><trkpt lat="37.2565162" lon="9.9021348"><ele>2.0</ele><time>2026-05-03T17:45:05.918Z</time></trkpt><trkpt lat="37.2565584" lon="9.902037"><ele>2.0</ele><time>2026-05-03T17:45:06.914Z</time></trkpt><trkpt lat="37.2566057" lon="9.9019482"><ele>2.0</ele><time>2026-05-03T17:45:07.918Z</time></trkpt><trkpt lat="37.25665" lon="9.9018573"><ele>2.0</ele><time>2026-05-03T17:45:08.903Z</time></trkpt><trkpt lat="37.2566894" lon="9.9017603"><ele>2.0</ele><time>2026-05-03T17:45:09.908Z</time></trkpt><trkpt lat="37.2567243" lon="9.9016423"><ele>2.0</ele><time>2026-05-03T17:45:10.898Z</time></trkpt><trkpt lat="37.2567546" lon="9.9015198"><ele>2.0</ele><time>2026-05-03T17:45:11.932Z</time></trkpt><trkpt lat="37.2567913" lon="9.9013965"><ele>2.25</ele><time>2026-05-03T17:45:12.896Z</time></trkpt><trkpt lat="37.2568307" lon="9.9012654"><ele>2.5</ele><time>2026-05-03T17:45:13.902Z</time></trkpt><trkpt lat="37.2568727" lon="9.9011408"><ele>2.75</ele><time>2026-05-03T17:45:14.9Z</time></trkpt><trkpt lat="37.2569237" lon="9.9010114"><ele>3.0</ele><time>2026-05-03T17:45:15.927Z</time></trkpt><trkpt lat="37.2569867" lon="9.9008725"><ele>3.0</ele><time>2026-05-03T17:45:16.904Z</time></trkpt><trkpt lat="37.2570479" lon="9.9007391"><ele>3.0</ele><time>2026-05-03T17:45:17.918Z</time></trkpt><trkpt lat="37.2571159" lon="9.9005993"><ele>3.0</ele><time>2026-05-03T17:45:18.909Z</time></trkpt><trkpt lat="37.2571877" lon="9.9004568"><ele>3.0</ele><time>2026-05-03T17:45:19.915Z</time></trkpt><trkpt lat="37.2572632" lon="9.9003172"><ele>3.25</ele><time>2026-05-03T17:45:20.924Z</time></trkpt><trkpt lat="37.2573456" lon="9.9001874"><ele>3.5</ele><time>2026-05-03T17:45:21.933Z</time></trkpt><trkpt lat="37.2574244" lon="9.900062"><ele>3.75</ele><time>2026-05-03T17:45:22.934Z</time></trkpt><trkpt lat="37.2575101" lon="9.8999338"><ele>4.0</ele><time>2026-05-03T17:45:23.94Z</time></trkpt><trkpt lat="37.2575961" lon="9.8998183"><ele>4.0</ele><time>2026-05-03T17:45:24.917Z</time></trkpt><trkpt lat="37.2576878" lon="9.8997064"><ele>4.0</ele><time>2026-05-03T17:45:25.909Z</time></trkpt><trkpt lat="37.2577846" lon="9.8995897"><ele>4.0</ele><time>2026-05-03T17:45:26.926Z</time></trkpt><trkpt lat="37.2578825" lon="9.8994683"><ele>4.0</ele><time>2026-05-03T17:45:27.932Z</time></trkpt><trkpt lat="37.2579823" lon="9.8993437"><ele>3.5</ele><time>2026-05-03T17:45:28.912Z</time></trkpt><trkpt lat="37.2580794" lon="9.8992266"><ele>3.0</ele><time>2026-05-03T17:45:29.906Z</time></trkpt><trkpt lat="37.2581763" lon="9.8991079"><ele>2.5</ele><time>2026-05-03T17:45:30.932Z</time></trkpt><trkpt lat="37.2582707" lon="9.8989886"><ele>2.0</ele><time>2026-05-03T17:45:31.925Z</time></trkpt><trkpt lat="37.258365" lon="9.8988598"><ele>2.0</ele><time>2026-05-03T17:45:32.91Z</time></trkpt><trkpt lat="37.2584554" lon="9.8987306"><ele>2.0</ele><time>2026-05-03T17:45:33.912Z</time></trkpt><trkpt lat="37.2585418" lon="9.8985879"><ele>2.0</ele><time>2026-05-03T17:45:34.926Z</time></trkpt><trkpt lat="37.2586236" lon="9.8984445"><ele>2.0</ele><time>2026-05-03T17:45:35.928Z</time></trkpt><trkpt lat="37.2587128" lon="9.8982871"><ele>1.6666666666666665</ele><time>2026-05-03T17:45:36.923Z</time></trkpt><trkpt lat="37.2587961" lon="9.8981192"><ele>1.3333333333333333</ele><time>2026-05-03T17:45:37.928Z</time></trkpt><trkpt lat="37.2588868" lon="9.8979488"><ele>1.0</ele><time>2026-05-03T17:45:38.919Z</time></trkpt><trkpt lat="37.2589762" lon="9.8977732"><ele>1.0</ele><time>2026-05-03T17:45:39.917Z</time></trkpt><trkpt lat="37.2590665" lon="9.8975876"><ele>1.0</ele><time>2026-05-03T17:45:40.934Z</time></trkpt><trkpt lat="37.2591504" lon="9.8973959"><ele>1.0</ele><time>2026-05-03T17:45:41.923Z</time></trkpt><trkpt lat="37.2592278" lon="9.8972144"><ele>1.3333333333333333</ele><time>2026-05-03T17:45:42.936Z</time></trkpt><trkpt lat="37.2593033" lon="9.8970365"><ele>1.6666666666666665</ele><time>2026-05-03T17:45:43.936Z</time></trkpt><trkpt lat="37.2593796" lon="9.8968539"><ele>2.0</ele><time>2026-05-03T17:45:44.924Z</time></trkpt><trkpt lat="37.2594641" lon="9.8966764"><ele>2.0</ele><time>2026-05-03T17:45:45.921Z</time></trkpt><trkpt lat="37.2595599" lon="9.8964965"><ele>2.0</ele><time>2026-05-03T17:45:46.92Z</time></trkpt><trkpt lat="37.2596505" lon="9.8963212"><ele>2.0</ele><time>2026-05-03T17:45:47.929Z</time></trkpt><trkpt lat="37.2597453" lon="9.8961506"><ele>2.0</ele><time>2026-05-03T17:45:48.931Z</time></trkpt><trkpt lat="37.2598379" lon="9.8959792"><ele>2.0</ele><time>2026-05-03T17:45:49.927Z</time></trkpt><trkpt lat="37.2599266" lon="9.8958161"><ele>2.0</ele><time>2026-05-03T17:45:50.927Z</time></trkpt><trkpt lat="37.2600166" lon="9.8956543"><ele>2.0</ele><time>2026-05-03T17:45:51.934Z</time></trkpt><trkpt lat="37.2601049" lon="9.8954919"><ele>2.0</ele><time>2026-05-03T17:45:52.92Z</time></trkpt><trkpt lat="37.2601965" lon="9.8953342"><ele>2.0</ele><time>2026-05-03T17:45:53.909Z</time></trkpt><trkpt lat="37.2602864" lon="9.8951691"><ele>1.3333333333333333</ele><time>2026-05-03T17:45:54.926Z</time></trkpt><trkpt lat="37.2603729" lon="9.8950082"><ele>0.6666666666666666</ele><time>2026-05-03T17:45:55.922Z</time></trkpt><trkpt lat="37.2604664" lon="9.8948438"><ele>0.0</ele><time>2026-05-03T17:45:56.903Z</time></trkpt><trkpt lat="37.2605576" lon="9.8946897"><ele>0.0</ele><time>2026-05-03T17:45:57.933Z</time></trkpt><trkpt lat="37.2606508" lon="9.8945319"><ele>0.0</ele><time>2026-05-03T17:45:58.914Z</time></trkpt><trkpt lat="37.2607437" lon="9.8943737"><ele>0.0</ele><time>2026-05-03T17:45:59.903Z</time></trkpt><trkpt lat="37.2608336" lon="9.8942193"><ele>0.0</ele><time>2026-05-03T17:46:00.911Z</time></trkpt><trkpt lat="37.2609249" lon="9.8940705"><ele>0.0</ele><time>2026-05-03T17:46:01.929Z</time></trkpt><trkpt lat="37.2610155" lon="9.8939138"><ele>0.0</ele><time>2026-05-03T17:46:02.933Z</time></trkpt><trkpt lat="37.2611054" lon="9.8937582"><ele>0.0</ele><time>2026-05-03T17:46:03.913Z</time></trkpt><trkpt lat="37.2611961" lon="9.8936021"><ele>0.0</ele><time>2026-05-03T17:46:04.936Z</time></trkpt><trkpt lat="37.2612822" lon="9.8934477"><ele>0.0</ele><time>2026-05-03T17:46:05.903Z</time></trkpt><trkpt lat="37.2613725" lon="9.8932918"><ele>0.25</ele><time>2026-05-03T17:46:06.902Z</time></trkpt><trkpt lat="37.2614566" lon="9.8931337"><ele>0.5</ele><time>2026-05-03T17:46:07.922Z</time></trkpt><trkpt lat="37.2615417" lon="9.8929799"><ele>0.75</ele><time>2026-05-03T17:46:08.908Z</time></trkpt><trkpt lat="37.2616264" lon="9.8928326"><ele>1.0</ele><time>2026-05-03T17:46:09.917Z</time></trkpt><trkpt lat="37.2617098" lon="9.8926848"><ele>1.0</ele><time>2026-05-03T17:46:10.908Z</time></trkpt><trkpt lat="37.2617876" lon="9.8925307"><ele>1.0</ele><time>2026-05-03T17:46:11.926Z</time></trkpt><trkpt lat="37.2618663" lon="9.8923758"><ele>1.0</ele><time>2026-05-03T17:46:12.919Z</time></trkpt><trkpt lat="37.2619408" lon="9.8922211"><ele>1.0</ele><time>2026-05-03T17:46:13.926Z</time></trkpt><trkpt lat="37.2620101" lon="9.892069"><ele>1.0</ele><time>2026-05-03T17:46:14.94Z</time></trkpt><trkpt lat="37.2620752" lon="9.891919"><ele>1.0</ele><time>2026-05-03T17:46:15.923Z</time></trkpt><trkpt lat="37.2621344" lon="9.891775"><ele>1.0</ele><time>2026-05-03T17:46:16.925Z</time></trkpt><trkpt lat="37.2621929" lon="9.8916372"><ele>1.0</ele><time>2026-05-03T17:46:17.922Z</time></trkpt><trkpt lat="37.262246" lon="9.891503"><ele>1.0</ele><time>2026-05-03T17:46:18.921Z</time></trkpt><trkpt lat="37.2622923" lon="9.8913748"><ele>1.0</ele><time>2026-05-03T17:46:19.911Z</time></trkpt><trkpt lat="37.2623381" lon="9.8912538"><ele>1.0</ele><time>2026-05-03T17:46:20.922Z</time></trkpt><trkpt lat="37.2623791" lon="9.8911228"><ele>1.0</ele><time>2026-05-03T17:46:21.933Z</time></trkpt><trkpt lat="37.2624265" lon="9.8909889"><ele>1.0</ele><time>2026-05-03T17:46:22.916Z</time></trkpt><trkpt lat="37.2624808" lon="9.8908484"><ele>1.0</ele><time>2026-05-03T17:46:23.924Z</time></trkpt><trkpt lat="37.2625368" lon="9.8907029"><ele>1.0</ele><time>2026-05-03T17:46:24.933Z</time></trkpt><trkpt lat="37.2625967" lon="9.8905648"><ele>1.0</ele><time>2026-05-03T17:46:25.896Z</time></trkpt><trkpt lat="37.2626612" lon="9.8904328"><ele>1.0</ele><time>2026-05-03T17:46:26.908Z</time></trkpt><trkpt lat="37.2627251" lon="9.8903111"><ele>1.0</ele><time>2026-05-03T17:46:27.915Z</time></trkpt><trkpt lat="37.262789" lon="9.8902048"><ele>1.0</ele><time>2026-05-03T17:46:28.918Z</time></trkpt><trkpt lat="37.2628517" lon="9.8901017"><ele>1.0</ele><time>2026-05-03T17:46:29.918Z</time></trkpt><trkpt lat="37.2629133" lon="9.8900018"><ele>1.0</ele><time>2026-05-03T17:46:30.916Z</time></trkpt><trkpt lat="37.2629654" lon="9.8899008"><ele>1.0</ele><time>2026-05-03T17:46:31.92Z</time></trkpt><trkpt lat="37.2630145" lon="9.8898137"><ele>0.8333333333333333</ele><time>2026-05-03T17:46:32.922Z</time></trkpt><trkpt lat="37.2630533" lon="9.8897397"><ele>0.6666666666666666</ele><time>2026-05-03T17:46:33.901Z</time></trkpt><trkpt lat="37.2631035" lon="9.8896628"><ele>0.5</ele><time>2026-05-03T17:46:35.922Z</time></trkpt><trkpt lat="37.2631641" lon="9.8895807"><ele>0.3333333333333333</ele><time>2026-05-03T17:46:38.91Z</time></trkpt><trkpt lat="37.2632284" lon="9.8895097"><ele>0.16666666666666666</ele><time>2026-05-03T17:46:41.906Z</time></trkpt><trkpt lat="37.2633028" lon="9.8894402"><ele>0.0</ele><time>2026-05-03T17:46:45.893Z</time></trkpt><trkpt lat="37.2633564" lon="9.8893377"><ele>0.0</ele><time>2026-05-03T17:46:47.9Z</time></trkpt><trkpt lat="37.2633709" lon="9.8892596"><ele>0.0</ele><time>2026-05-03T17:46:48.913Z</time></trkpt><trkpt lat="37.2633901" lon="9.889165"><ele>0.0</ele><time>2026-05-03T17:46:49.915Z</time></trkpt><trkpt lat="37.2634172" lon="9.8890624"><ele>0.0</ele><time>2026-05-03T17:46:50.915Z</time></trkpt><trkpt lat="37.263465" lon="9.8889601"><ele>0.0</ele><time>2026-05-03T17:46:51.929Z</time></trkpt><trkpt lat="37.2635287" lon="9.8888399"><ele>0.0</ele><time>2026-05-03T17:46:52.914Z</time></trkpt><trkpt lat="37.2636154" lon="9.8886947"><ele>0.0</ele><time>2026-05-03T17:46:53.905Z</time></trkpt><trkpt lat="37.2637231" lon="9.8885333"><ele>0.0</ele><time>2026-05-03T17:46:54.921Z</time></trkpt><trkpt lat="37.2638436" lon="9.8883433"><ele>0.0</ele><time>2026-05-03T17:46:55.916Z</time></trkpt><trkpt lat="37.2639573" lon="9.8881517"><ele>-0.25</ele><time>2026-05-03T17:46:56.924Z</time></trkpt><trkpt lat="37.264044" lon="9.887994"><ele>-0.5</ele><time>2026-05-03T17:46:57.92Z</time></trkpt><trkpt lat="37.2641137" lon="9.8878517"><ele>-0.75</ele><time>2026-05-03T17:46:58.923Z</time></trkpt><trkpt lat="37.2641782" lon="9.8877178"><ele>-1.0</ele><time>2026-05-03T17:46:59.92Z</time></trkpt><trkpt lat="37.2642463" lon="9.8875874"><ele>-0.6000000000000001</ele><time>2026-05-03T17:47:00.919Z</time></trkpt><trkpt lat="37.2643094" lon="9.8874671"><ele>-0.20000000000000007</ele><time>2026-05-03T17:47:01.92Z</time></trkpt><trkpt lat="37.2643668" lon="9.8873576"><ele>0.20000000000000007</ele><time>2026-05-03T17:47:02.918Z</time></trkpt><trkpt lat="37.2644117" lon="9.887264"><ele>0.6000000000000001</ele><time>2026-05-03T17:47:03.909Z</time></trkpt><trkpt lat="37.2644505" lon="9.887182"><ele>1.0</ele><time>2026-05-03T17:47:04.91Z</time></trkpt><trkpt lat="37.2644878" lon="9.8871036"><ele>0.9999999999999999</ele><time>2026-05-03T17:47:05.93Z</time></trkpt><trkpt lat="37.2645236" lon="9.8870191"><ele>1.0</ele><time>2026-05-03T17:47:06.917Z</time></trkpt><trkpt lat="37.2645552" lon="9.8869266"><ele>1.0</ele><time>2026-05-03T17:47:07.891Z</time></trkpt><trkpt lat="37.264594" lon="9.8868273"><ele>1.0</ele><time>2026-05-03T17:47:08.907Z</time></trkpt><trkpt lat="37.2646339" lon="9.8867207"><ele>0.9999999999999999</ele><time>2026-05-03T17:47:09.914Z</time></trkpt><trkpt lat="37.2646755" lon="9.8866055"><ele>1.0</ele><time>2026-05-03T17:47:10.913Z</time></trkpt><trkpt lat="37.2647081" lon="9.8864739"><ele>1.0</ele><time>2026-05-03T17:47:11.933Z</time></trkpt><trkpt lat="37.2647404" lon="9.886337"><ele>1.0</ele><time>2026-05-03T17:47:12.918Z</time></trkpt><trkpt lat="37.2647701" lon="9.8862074"><ele>1.0</ele><time>2026-05-03T17:47:13.926Z</time></trkpt><trkpt lat="37.2647892" lon="9.8860893"><ele>1.0</ele><time>2026-05-03T17:47:14.915Z</time></trkpt><trkpt lat="37.2648193" lon="9.8859807"><ele>1.0</ele><time>2026-05-03T17:47:15.913Z</time></trkpt><trkpt lat="37.2648546" lon="9.8858836"><ele>1.0</ele><time>2026-05-03T17:47:16.888Z</time></trkpt><trkpt lat="37.2648876" lon="9.8858113"><ele>1.0</ele><time>2026-05-03T17:47:17.919Z</time></trkpt><trkpt lat="37.2649301" lon="9.8857509"><ele>1.0</ele><time>2026-05-03T17:47:18.897Z</time></trkpt><trkpt lat="37.2650169" lon="9.8856612"><ele>1.0</ele><time>2026-05-03T17:47:20.915Z</time></trkpt><trkpt lat="37.2650813" lon="9.8855266"><ele>1.0</ele><time>2026-05-03T17:47:22.912Z</time></trkpt><trkpt lat="37.2650699" lon="9.8853869"><ele>1.0</ele><time>2026-05-03T17:47:24.906Z</time></trkpt><trkpt lat="37.265042" lon="9.8853148"><ele>1.0</ele><time>2026-05-03T17:47:25.906Z</time></trkpt><trkpt lat="37.2649613" lon="9.8851789"><ele>1.0</ele><time>2026-05-03T17:47:27.907Z</time></trkpt><trkpt lat="37.2649341" lon="9.8850916"><ele>1.0</ele><time>2026-05-03T17:47:28.903Z</time></trkpt><trkpt lat="37.2649256" lon="9.8849833"><ele>1.0</ele><time>2026-05-03T17:47:29.894Z</time></trkpt><trkpt lat="37.264935" lon="9.8848633"><ele>1.3333333333333333</ele><time>2026-05-03T17:47:30.91Z</time></trkpt><trkpt lat="37.2649622" lon="9.8847063"><ele>1.6666666666666665</ele><time>2026-05-03T17:47:31.931Z</time></trkpt><trkpt lat="37.2650043" lon="9.8844872"><ele>2.0</ele><time>2026-05-03T17:47:32.922Z</time></trkpt><trkpt lat="37.2650412" lon="9.8842599"><ele>1.0</ele><time>2026-05-03T17:47:33.919Z</time></trkpt><trkpt lat="37.2650741" lon="9.8840635"><ele>0.0</ele><time>2026-05-03T17:47:34.914Z</time></trkpt><trkpt lat="37.265093" lon="9.8838884"><ele>-1.0</ele><time>2026-05-03T17:47:35.927Z</time></trkpt><trkpt lat="37.2651149" lon="9.8837139"><ele>-2.0</ele><time>2026-05-03T17:47:36.928Z</time></trkpt><trkpt lat="37.2651355" lon="9.8835359"><ele>-1.0</ele><time>2026-05-03T17:47:37.913Z</time></trkpt><trkpt lat="37.2651463" lon="9.8833654"><ele>0.0</ele><time>2026-05-03T17:47:38.895Z</time></trkpt><trkpt lat="37.2651611" lon="9.8831968"><ele>1.0</ele><time>2026-05-03T17:47:39.901Z</time></trkpt><trkpt lat="37.26518" lon="9.8830327"><ele>2.0</ele><time>2026-05-03T17:47:40.935Z</time></trkpt><trkpt lat="37.2651992" lon="9.8828649"><ele>2.0</ele><time>2026-05-03T17:47:41.919Z</time></trkpt><trkpt lat="37.2652113" lon="9.8827097"><ele>2.0</ele><time>2026-05-03T17:47:42.911Z</time></trkpt><trkpt lat="37.2652195" lon="9.88255"><ele>2.0</ele><time>2026-05-03T17:47:43.918Z</time></trkpt><trkpt lat="37.2652191" lon="9.8823923"><ele>2.0</ele><time>2026-05-03T17:47:44.939Z</time></trkpt><trkpt lat="37.2652192" lon="9.8822339"><ele>1.75</ele><time>2026-05-03T17:47:45.905Z</time></trkpt><trkpt lat="37.2652087" lon="9.88207"><ele>1.5</ele><time>2026-05-03T17:47:46.923Z</time></trkpt><trkpt lat="37.2652039" lon="9.8819025"><ele>1.25</ele><time>2026-05-03T17:47:47.926Z</time></trkpt><trkpt lat="37.2651936" lon="9.8817502"><ele>1.0</ele><time>2026-05-03T17:47:48.925Z</time></trkpt><trkpt lat="37.2651881" lon="9.8815974"><ele>0.75</ele><time>2026-05-03T17:47:49.919Z</time></trkpt><trkpt lat="37.2651757" lon="9.881447"><ele>0.5</ele><time>2026-05-03T17:47:50.92Z</time></trkpt><trkpt lat="37.2651668" lon="9.8812938"><ele>0.25</ele><time>2026-05-03T17:47:51.916Z</time></trkpt><trkpt lat="37.2651572" lon="9.8811444"><ele>0.0</ele><time>2026-05-03T17:47:52.913Z</time></trkpt><trkpt lat="37.265144" lon="9.880993"><ele>0.5</ele><time>2026-05-03T17:47:53.928Z</time></trkpt><trkpt lat="37.2651326" lon="9.8808449"><ele>1.0</ele><time>2026-05-03T17:47:54.924Z</time></trkpt><trkpt lat="37.265124" lon="9.8807012"><ele>1.5</ele><time>2026-05-03T17:47:55.922Z</time></trkpt><trkpt lat="37.2651132" lon="9.8805609"><ele>2.0</ele><time>2026-05-03T17:47:56.926Z</time></trkpt><trkpt lat="37.2650971" lon="9.8804087"><ele>2.0</ele><time>2026-05-03T17:47:57.934Z</time></trkpt><trkpt lat="37.2650932" lon="9.880265"><ele>2.0</ele><time>2026-05-03T17:47:58.908Z</time></trkpt><trkpt lat="37.2650928" lon="9.8801187"><ele>2.0</ele><time>2026-05-03T17:47:59.908Z</time></trkpt><trkpt lat="37.2651035" lon="9.8799867"><ele>2.0</ele><time>2026-05-03T17:48:00.894Z</time></trkpt><trkpt lat="37.2651238" lon="9.8798621"><ele>2.0</ele><time>2026-05-03T17:48:01.917Z</time></trkpt><trkpt lat="37.2651462" lon="9.8797456"><ele>2.4000000000000004</ele><time>2026-05-03T17:48:02.923Z</time></trkpt><trkpt lat="37.2651679" lon="9.8796336"><ele>2.8000000000000003</ele><time>2026-05-03T17:48:03.919Z</time></trkpt><trkpt lat="37.265193" lon="9.8795214"><ele>3.2</ele><time>2026-05-03T17:48:04.917Z</time></trkpt><trkpt lat="37.2652204" lon="9.8794178"><ele>3.6</ele><time>2026-05-03T17:48:05.938Z</time></trkpt><trkpt lat="37.2652436" lon="9.8793058"><ele>4.0</ele><time>2026-05-03T17:48:06.927Z</time></trkpt><trkpt lat="37.2652597" lon="9.8791941"><ele>4.4</ele><time>2026-05-03T17:48:07.924Z</time></trkpt><trkpt lat="37.2652829" lon="9.879081"><ele>4.800000000000001</ele><time>2026-05-03T17:48:08.916Z</time></trkpt><trkpt lat="37.2653033" lon="9.8789734"><ele>5.199999999999999</ele><time>2026-05-03T17:48:09.914Z</time></trkpt><trkpt lat="37.2653346" lon="9.8788671"><ele>5.6</ele><time>2026-05-03T17:48:10.908Z</time></trkpt><trkpt lat="37.2653665" lon="9.8787579"><ele>6.0</ele><time>2026-05-03T17:48:11.903Z</time></trkpt><trkpt lat="37.265402" lon="9.878649"><ele>6.0</ele><time>2026-05-03T17:48:12.939Z</time></trkpt><trkpt lat="37.2654406" lon="9.8785431"><ele>6.0</ele><time>2026-05-03T17:48:13.926Z</time></trkpt><trkpt lat="37.2654823" lon="9.8784305"><ele>6.0</ele><time>2026-05-03T17:48:14.906Z</time></trkpt><trkpt lat="37.2655271" lon="9.8783156"><ele>6.0</ele><time>2026-05-03T17:48:15.915Z</time></trkpt><trkpt lat="37.2655723" lon="9.8782091"><ele>6.0</ele><time>2026-05-03T17:48:16.945Z</time></trkpt><trkpt lat="37.2656175" lon="9.878107"><ele>5.833333333333333</ele><time>2026-05-03T17:48:17.914Z</time></trkpt><trkpt lat="37.2656631" lon="9.8780151"><ele>5.666666666666667</ele><time>2026-05-03T17:48:18.921Z</time></trkpt><trkpt lat="37.265717" lon="9.8779279"><ele>5.5</ele><time>2026-05-03T17:48:19.93Z</time></trkpt><trkpt lat="37.2657721" lon="9.8778374"><ele>5.333333333333334</ele><time>2026-05-03T17:48:20.918Z</time></trkpt><trkpt lat="37.2658253" lon="9.8777542"><ele>5.166666666666667</ele><time>2026-05-03T17:48:21.916Z</time></trkpt><trkpt lat="37.2658718" lon="9.8776829"><ele>5.0</ele><time>2026-05-03T17:48:22.896Z</time></trkpt><trkpt lat="37.2659176" lon="9.8776159"><ele>5.2</ele><time>2026-05-03T17:48:23.927Z</time></trkpt><trkpt lat="37.2659782" lon="9.8775371"><ele>5.4</ele><time>2026-05-03T17:48:24.922Z</time></trkpt><trkpt lat="37.2660524" lon="9.8774496"><ele>5.6</ele><time>2026-05-03T17:48:25.92Z</time></trkpt><trkpt lat="37.2661305" lon="9.8773624"><ele>5.8</ele><time>2026-05-03T17:48:26.92Z</time></trkpt><trkpt lat="37.2662191" lon="9.8772598"><ele>6.0</ele><time>2026-05-03T17:48:27.961Z</time></trkpt><trkpt lat="37.2663025" lon="9.877172"><ele>6.0</ele><time>2026-05-03T17:48:28.916Z</time></trkpt><trkpt lat="37.2663871" lon="9.8770818"><ele>6.0</ele><time>2026-05-03T17:48:29.94Z</time></trkpt><trkpt lat="37.2664762" lon="9.8769926"><ele>6.0</ele><time>2026-05-03T17:48:30.927Z</time></trkpt><trkpt lat="37.2665558" lon="9.8769127"><ele>6.0</ele><time>2026-05-03T17:48:31.922Z</time></trkpt><trkpt lat="37.2666303" lon="9.8768502"><ele>6.0</ele><time>2026-05-03T17:48:32.93Z</time></trkpt><trkpt lat="37.2666907" lon="9.8767911"><ele>5.5</ele><time>2026-05-03T17:48:33.887Z</time></trkpt><trkpt lat="37.2667449" lon="9.8767473"><ele>5.0</ele><time>2026-05-03T17:48:34.908Z</time></trkpt><trkpt lat="37.2668466" lon="9.8766651"><ele>4.5</ele><time>2026-05-03T17:48:36.922Z</time></trkpt><trkpt lat="37.2669297" lon="9.8765926"><ele>4.0</ele><time>2026-05-03T17:48:38.911Z</time></trkpt><trkpt lat="37.2669944" lon="9.8765387"><ele>3.5</ele><time>2026-05-03T17:48:40.917Z</time></trkpt><trkpt lat="37.2670566" lon="9.8764869"><ele>3.0</ele><time>2026-05-03T17:48:42.913Z</time></trkpt><trkpt lat="37.2671222" lon="9.8764254"><ele>3.0</ele><time>2026-05-03T17:48:44.915Z</time></trkpt><trkpt lat="37.2672009" lon="9.8763545"><ele>3.0</ele><time>2026-05-03T17:48:46.928Z</time></trkpt><trkpt lat="37.2672879" lon="9.8762734"><ele>3.0</ele><time>2026-05-03T17:48:48.922Z</time></trkpt><trkpt lat="37.2673728" lon="9.8761982"><ele>3.0</ele><time>2026-05-03T17:48:50.934Z</time></trkpt><trkpt lat="37.2674596" lon="9.8761139"><ele>3.0</ele><time>2026-05-03T17:48:52.935Z</time></trkpt><trkpt lat="37.2675563" lon="9.876035"><ele>2.4</ele><time>2026-05-03T17:48:54.918Z</time></trkpt><trkpt lat="37.2676507" lon="9.8759546"><ele>1.7999999999999998</ele><time>2026-05-03T17:48:56.922Z</time></trkpt><trkpt lat="37.2677437" lon="9.8758752"><ele>1.2</ele><time>2026-05-03T17:48:58.91Z</time></trkpt><trkpt lat="37.2678329" lon="9.8757804"><ele>0.6</ele><time>2026-05-03T17:49:00.908Z</time></trkpt><trkpt lat="37.2678834" lon="9.8757296"><ele>0.0</ele><time>2026-05-03T17:49:01.91Z</time></trkpt><trkpt lat="37.2679884" lon="9.8756396"><ele>0.0</ele><time>2026-05-03T17:49:03.935Z</time></trkpt><trkpt lat="37.2680435" lon="9.8755958"><ele>0.0</ele><time>2026-05-03T17:49:04.91Z</time></trkpt><trkpt lat="37.2681003" lon="9.8755551"><ele>0.0</ele><time>2026-05-03T17:49:05.904Z</time></trkpt><trkpt lat="37.2681528" lon="9.8755067"><ele>0.0</ele><time>2026-05-03T17:49:06.894Z</time></trkpt><trkpt lat="37.2682104" lon="9.8754563"><ele>0.0</ele><time>2026-05-03T17:49:07.93Z</time></trkpt><trkpt lat="37.2682726" lon="9.8754068"><ele>0.0</ele><time>2026-05-03T17:49:08.927Z</time></trkpt><trkpt lat="37.2683309" lon="9.8753535"><ele>0.0</ele><time>2026-05-03T17:49:09.92Z</time></trkpt><trkpt lat="37.2683971" lon="9.8752976"><ele>0.0</ele><time>2026-05-03T17:49:10.939Z</time></trkpt><trkpt lat="37.2684589" lon="9.8752491"><ele>0.0</ele><time>2026-05-03T17:49:11.934Z</time></trkpt><trkpt lat="37.2685217" lon="9.8751971"><ele>0.0</ele><time>2026-05-03T17:49:12.93Z</time></trkpt><trkpt lat="37.268582" lon="9.8751413"><ele>0.0</ele><time>2026-05-03T17:49:13.908Z</time></trkpt><trkpt lat="37.2686508" lon="9.8750817"><ele>0.0</ele><time>2026-05-03T17:49:14.921Z</time></trkpt><trkpt lat="37.2687201" lon="9.8750216"><ele>0.0</ele><time>2026-05-03T17:49:15.916Z</time></trkpt><trkpt lat="37.268792" lon="9.8749582"><ele>0.0</ele><time>2026-05-03T17:49:16.907Z</time></trkpt><trkpt lat="37.2688673" lon="9.8748932"><ele>0.0</ele><time>2026-05-03T17:49:17.897Z</time></trkpt><trkpt lat="37.2689389" lon="9.8748252"><ele>0.0</ele><time>2026-05-03T17:49:18.905Z</time></trkpt><trkpt lat="37.2690114" lon="9.8747596"><ele>0.0</ele><time>2026-05-03T17:49:19.908Z</time></trkpt><trkpt lat="37.2690837" lon="9.8746982"><ele>0.0</ele><time>2026-05-03T17:49:20.922Z</time></trkpt><trkpt lat="37.2691592" lon="9.8746361"><ele>0.0</ele><time>2026-05-03T17:49:21.933Z</time></trkpt><trkpt lat="37.2692267" lon="9.874576"><ele>0.16666666666666666</ele><time>2026-05-03T17:49:22.913Z</time></trkpt><trkpt lat="37.2692955" lon="9.8745122"><ele>0.3333333333333333</ele><time>2026-05-03T17:49:23.895Z</time></trkpt><trkpt lat="37.2693669" lon="9.8744561"><ele>0.5</ele><time>2026-05-03T17:49:24.897Z</time></trkpt><trkpt lat="37.2694313" lon="9.8743948"><ele>0.6666666666666666</ele><time>2026-05-03T17:49:25.922Z</time></trkpt><trkpt lat="37.2694953" lon="9.8743417"><ele>0.8333333333333333</ele><time>2026-05-03T17:49:26.932Z</time></trkpt><trkpt lat="37.269567" lon="9.8742957"><ele>1.0</ele><time>2026-05-03T17:49:27.924Z</time></trkpt><trkpt lat="37.2696378" lon="9.8742495"><ele>1.1666666666666665</ele><time>2026-05-03T17:49:28.922Z</time></trkpt><trkpt lat="37.2697027" lon="9.8742131"><ele>1.3333333333333333</ele><time>2026-05-03T17:49:29.901Z</time></trkpt><trkpt lat="37.2697777" lon="9.8741753"><ele>1.5</ele><time>2026-05-03T17:49:30.916Z</time></trkpt><trkpt lat="37.2698544" lon="9.8741483"><ele>1.6666666666666665</ele><time>2026-05-03T17:49:31.905Z</time></trkpt><trkpt lat="37.2699261" lon="9.8741171"><ele>1.8333333333333333</ele><time>2026-05-03T17:49:32.898Z</time></trkpt><trkpt lat="37.2699936" lon="9.8740974"><ele>2.0</ele><time>2026-05-03T17:49:33.913Z</time></trkpt><trkpt lat="37.2701052" lon="9.8740741"><ele>2.6666666666666665</ele><time>2026-05-03T17:49:35.897Z</time></trkpt><trkpt lat="37.2701717" lon="9.8741336"><ele>3.333333333333333</ele><time>2026-05-03T17:49:37.903Z</time></trkpt><trkpt lat="37.2702226" lon="9.8742206"><ele>4.0</ele><time>2026-05-03T17:49:40.912Z</time></trkpt><trkpt lat="37.2702544" lon="9.8743248"><ele>4.666666666666667</ele><time>2026-05-03T17:49:43.891Z</time></trkpt><trkpt lat="37.2702469" lon="9.8744198"><ele>5.333333333333333</ele><time>2026-05-03T17:49:46.897Z</time></trkpt><trkpt lat="37.2701868" lon="9.8744959"><ele>6.0</ele><time>2026-05-03T17:49:48.888Z</time></trkpt><trkpt lat="37.2700947" lon="9.8745644"><ele>6.166666666666667</ele><time>2026-05-03T17:49:50.894Z</time></trkpt><trkpt lat="37.2700249" lon="9.8746368"><ele>6.333333333333334</ele><time>2026-05-03T17:49:52.921Z</time></trkpt><trkpt lat="37.2699587" lon="9.8746827"><ele>6.5</ele><time>2026-05-03T17:49:54.9Z</time></trkpt><trkpt lat="37.2698989" lon="9.8747428"><ele>6.666666666666667</ele><time>2026-05-03T17:49:58.912Z</time></trkpt><trkpt lat="37.269841" lon="9.8747842"><ele>6.833333333333334</ele><time>2026-05-03T17:50:07.911Z</time></trkpt><trkpt lat="37.2697683" lon="9.8748425"><ele>7.0</ele><time>2026-05-03T17:50:10.905Z</time></trkpt><trkpt lat="37.2697237" lon="9.8749048"><ele>7.000000000000001</ele><time>2026-05-03T17:50:14.906Z</time></trkpt><trkpt lat="37.2697204" lon="9.8749857"><ele>7.0</ele><time>2026-05-03T17:50:16.888Z</time></trkpt><trkpt lat="37.2697871" lon="9.875094"><ele>7.0</ele><time>2026-05-03T17:50:18.906Z</time></trkpt><trkpt lat="37.2698263" lon="9.8751674"><ele>7.0</ele><time>2026-05-03T17:50:19.923Z</time></trkpt><trkpt lat="37.2698718" lon="9.8752433"><ele>7.000000000000001</ele><time>2026-05-03T17:50:20.912Z</time></trkpt><trkpt lat="37.269921" lon="9.8753201"><ele>7.0</ele><time>2026-05-03T17:50:21.929Z</time></trkpt><trkpt lat="37.2699732" lon="9.8754115"><ele>6.833333333333334</ele><time>2026-05-03T17:50:22.923Z</time></trkpt><trkpt lat="37.2700192" lon="9.8754999"><ele>6.666666666666667</ele><time>2026-05-03T17:50:23.915Z</time></trkpt><trkpt lat="37.2700716" lon="9.8755817"><ele>6.5</ele><time>2026-05-03T17:50:24.901Z</time></trkpt><trkpt lat="37.2701183" lon="9.8756588"><ele>6.333333333333334</ele><time>2026-05-03T17:50:25.926Z</time></trkpt><trkpt lat="37.2701709" lon="9.8757483"><ele>6.166666666666667</ele><time>2026-05-03T17:50:26.928Z</time></trkpt><trkpt lat="37.2702353" lon="9.875848"><ele>6.0</ele><time>2026-05-03T17:50:27.897Z</time></trkpt><trkpt lat="37.2703047" lon="9.8759775"><ele>6.5</ele><time>2026-05-03T17:50:28.917Z</time></trkpt><trkpt lat="37.2703808" lon="9.8761166"><ele>7.0</ele><time>2026-05-03T17:50:29.915Z</time></trkpt><trkpt lat="37.2704562" lon="9.8762528"><ele>7.5</ele><time>2026-05-03T17:50:30.933Z</time></trkpt><trkpt lat="37.270547" lon="9.8763986"><ele>8.0</ele><time>2026-05-03T17:50:31.908Z</time></trkpt><trkpt lat="37.2706398" lon="9.8765444"><ele>8.0</ele><time>2026-05-03T17:50:32.909Z</time></trkpt><trkpt lat="37.2707236" lon="9.8766864"><ele>8.0</ele><time>2026-05-03T17:50:33.914Z</time></trkpt><trkpt lat="37.2708058" lon="9.8768278"><ele>8.0</ele><time>2026-05-03T17:50:34.917Z</time></trkpt><trkpt lat="37.2708759" lon="9.8769676"><ele>8.0</ele><time>2026-05-03T17:50:35.909Z</time></trkpt><trkpt lat="37.270941" lon="9.8771"><ele>7.25</ele><time>2026-05-03T17:50:36.903Z</time></trkpt><trkpt lat="37.2710123" lon="9.8772249"><ele>6.5</ele><time>2026-05-03T17:50:37.902Z</time></trkpt><trkpt lat="37.2710794" lon="9.8773417"><ele>5.75</ele><time>2026-05-03T17:50:38.921Z</time></trkpt><trkpt lat="37.2711473" lon="9.8774575"><ele>5.0</ele><time>2026-05-03T17:50:39.911Z</time></trkpt><trkpt lat="37.2712149" lon="9.8775722"><ele>5.0</ele><time>2026-05-03T17:50:40.916Z</time></trkpt><trkpt lat="37.2712871" lon="9.8776922"><ele>5.0</ele><time>2026-05-03T17:50:41.907Z</time></trkpt><trkpt lat="37.2713539" lon="9.8778068"><ele>5.0</ele><time>2026-05-03T17:50:42.918Z</time></trkpt><trkpt lat="37.2714121" lon="9.8779225"><ele>5.0</ele><time>2026-05-03T17:50:43.918Z</time></trkpt><trkpt lat="37.2714682" lon="9.8780231"><ele>5.0</ele><time>2026-05-03T17:50:44.917Z</time></trkpt><trkpt lat="37.2715254" lon="9.8781265"><ele>5.0</ele><time>2026-05-03T17:50:45.924Z</time></trkpt><trkpt lat="37.2715821" lon="9.8782163"><ele>5.0</ele><time>2026-05-03T17:50:46.92Z</time></trkpt><trkpt lat="37.2716322" lon="9.8782996"><ele>5.0</ele><time>2026-05-03T17:50:47.906Z</time></trkpt><trkpt lat="37.271677" lon="9.8783801"><ele>5.0</ele><time>2026-05-03T17:50:48.922Z</time></trkpt><trkpt lat="37.2717211" lon="9.8784543"><ele>5.0</ele><time>2026-05-03T17:50:49.914Z</time></trkpt><trkpt lat="37.2717663" lon="9.878531"><ele>5.0</ele><time>2026-05-03T17:50:50.916Z</time></trkpt><trkpt lat="37.2718111" lon="9.8786024"><ele>4.428571428571429</ele><time>2026-05-03T17:50:51.925Z</time></trkpt><trkpt lat="37.2718548" lon="9.878673"><ele>3.857142857142857</ele><time>2026-05-03T17:50:52.918Z</time></trkpt><trkpt lat="37.2718947" lon="9.8787531"><ele>3.2857142857142856</ele><time>2026-05-03T17:50:53.915Z</time></trkpt><trkpt lat="37.2719334" lon="9.8788288"><ele>2.7142857142857144</ele><time>2026-05-03T17:50:54.914Z</time></trkpt><trkpt lat="37.2719734" lon="9.8789028"><ele>2.142857142857143</ele><time>2026-05-03T17:50:55.919Z</time></trkpt><trkpt lat="37.2720157" lon="9.8789687"><ele>1.5714285714285714</ele><time>2026-05-03T17:50:56.912Z</time></trkpt><trkpt lat="37.2720589" lon="9.8790317"><ele>1.0</ele><time>2026-05-03T17:50:57.929Z</time></trkpt><trkpt lat="37.2720984" lon="9.8791005"><ele>0.9999999999999999</ele><time>2026-05-03T17:50:58.939Z</time></trkpt><trkpt lat="37.2721369" lon="9.8791718"><ele>1.0</ele><time>2026-05-03T17:50:59.908Z</time></trkpt><trkpt lat="37.272179" lon="9.8792475"><ele>1.0</ele><time>2026-05-03T17:51:00.913Z</time></trkpt><trkpt lat="37.2722198" lon="9.8793231"><ele>1.0</ele><time>2026-05-03T17:51:01.924Z</time></trkpt><trkpt lat="37.2722626" lon="9.8793999"><ele>0.9999999999999999</ele><time>2026-05-03T17:51:02.903Z</time></trkpt><trkpt lat="37.2723041" lon="9.8794625"><ele>1.0</ele><time>2026-05-03T17:51:03.907Z</time></trkpt><trkpt lat="37.2723905" lon="9.8795499"><ele>1.1666666666666665</ele><time>2026-05-03T17:51:05.916Z</time></trkpt><trkpt lat="37.2724937" lon="9.8795428"><ele>1.3333333333333333</ele><time>2026-05-03T17:51:07.891Z</time></trkpt><trkpt lat="37.2725935" lon="9.8794587"><ele>1.5</ele><time>2026-05-03T17:51:09.931Z</time></trkpt><trkpt lat="37.2726461" lon="9.8794072"><ele>1.6666666666666665</ele><time>2026-05-03T17:51:10.917Z</time></trkpt><trkpt lat="37.2727053" lon="9.8793557"><ele>1.8333333333333333</ele><time>2026-05-03T17:51:11.923Z</time></trkpt><trkpt lat="37.2727663" lon="9.8793033"><ele>2.0</ele><time>2026-05-03T17:51:12.926Z</time></trkpt><trkpt lat="37.2728309" lon="9.8792478"><ele>2.4000000000000004</ele><time>2026-05-03T17:51:13.928Z</time></trkpt><trkpt lat="37.2729011" lon="9.879188"><ele>2.8000000000000003</ele><time>2026-05-03T17:51:14.916Z</time></trkpt><trkpt lat="37.2729775" lon="9.8791215"><ele>3.2</ele><time>2026-05-03T17:51:15.921Z</time></trkpt><trkpt lat="37.2730532" lon="9.8790503"><ele>3.6</ele><time>2026-05-03T17:51:16.912Z</time></trkpt><trkpt lat="37.273132" lon="9.8789734"><ele>4.0</ele><time>2026-05-03T17:51:17.926Z</time></trkpt><trkpt lat="37.2732131" lon="9.8788936"><ele>3.0</ele><time>2026-05-03T17:51:18.931Z</time></trkpt><trkpt lat="37.2733069" lon="9.8788046"><ele>2.0</ele><time>2026-05-03T17:51:19.922Z</time></trkpt><trkpt lat="37.2734035" lon="9.8787225"><ele>1.0</ele><time>2026-05-03T17:51:20.911Z</time></trkpt><trkpt lat="37.2734998" lon="9.8786448"><ele>0.0</ele><time>2026-05-03T17:51:21.914Z</time></trkpt><trkpt lat="37.2735977" lon="9.8785641"><ele>0.0</ele><time>2026-05-03T17:51:22.931Z</time></trkpt><trkpt lat="37.2737068" lon="9.8784858"><ele>0.0</ele><time>2026-05-03T17:51:23.917Z</time></trkpt><trkpt lat="37.273823" lon="9.8784138"><ele>0.0</ele><time>2026-05-03T17:51:24.929Z</time></trkpt><trkpt lat="37.2739555" lon="9.8783511"><ele>0.0</ele><time>2026-05-03T17:51:25.892Z</time></trkpt><trkpt lat="37.2740898" lon="9.8783003"><ele>1.0</ele><time>2026-05-03T17:51:26.907Z</time></trkpt><trkpt lat="37.274215" lon="9.878256"><ele>2.0</ele><time>2026-05-03T17:51:27.914Z</time></trkpt><trkpt lat="37.2743354" lon="9.878215"><ele>3.0</ele><time>2026-05-03T17:51:28.917Z</time></trkpt><trkpt lat="37.2744715" lon="9.8781627"><ele>4.0</ele><time>2026-05-03T17:51:29.923Z</time></trkpt><trkpt lat="37.274628" lon="9.8781004"><ele>3.5</ele><time>2026-05-03T17:51:30.888Z</time></trkpt><trkpt lat="37.2747801" lon="9.878054"><ele>3.0</ele><time>2026-05-03T17:51:31.892Z</time></trkpt><trkpt lat="37.2749046" lon="9.8780128"><ele>2.5</ele><time>2026-05-03T17:51:32.879Z</time></trkpt><trkpt lat="37.2750189" lon="9.8779816"><ele>2.0</ele><time>2026-05-03T17:51:33.891Z</time></trkpt><trkpt lat="37.2751347" lon="9.8779298"><ele>2.0</ele><time>2026-05-03T17:51:34.914Z</time></trkpt><trkpt lat="37.2752461" lon="9.877884"><ele>2.0</ele><time>2026-05-03T17:51:35.883Z</time></trkpt><trkpt lat="37.275349" lon="9.8778353"><ele>2.0</ele><time>2026-05-03T17:51:36.881Z</time></trkpt><trkpt lat="37.2754461" lon="9.8777991"><ele>2.0</ele><time>2026-05-03T17:51:37.911Z</time></trkpt><trkpt lat="37.2755415" lon="9.8777865"><ele>2.0</ele><time>2026-05-03T17:51:38.912Z</time></trkpt><trkpt lat="37.2756372" lon="9.877766"><ele>1.9999999999999998</ele><time>2026-05-03T17:51:39.905Z</time></trkpt><trkpt lat="37.2757262" lon="9.8777453"><ele>2.0</ele><time>2026-05-03T17:51:40.91Z</time></trkpt><trkpt lat="37.2758118" lon="9.8777391"><ele>2.0</ele><time>2026-05-03T17:51:41.899Z</time></trkpt><trkpt lat="37.2758913" lon="9.8777438"><ele>2.0</ele><time>2026-05-03T17:51:42.901Z</time></trkpt><trkpt lat="37.2759768" lon="9.8777322"><ele>1.9999999999999998</ele><time>2026-05-03T17:51:43.892Z</time></trkpt><trkpt lat="37.2760601" lon="9.8777115"><ele>2.0</ele><time>2026-05-03T17:51:44.914Z</time></trkpt><trkpt lat="37.2761457" lon="9.8776837"><ele>2.0</ele><time>2026-05-03T17:51:45.894Z</time></trkpt><trkpt lat="37.2762331" lon="9.8776586"><ele>2.0</ele><time>2026-05-03T17:51:46.916Z</time></trkpt><trkpt lat="37.2763276" lon="9.8776301"><ele>2.0</ele><time>2026-05-03T17:51:47.932Z</time></trkpt><trkpt lat="37.2764219" lon="9.8776145"><ele>2.0</ele><time>2026-05-03T17:51:48.928Z</time></trkpt><trkpt lat="37.2765169" lon="9.8776033"><ele>2.0</ele><time>2026-05-03T17:51:49.932Z</time></trkpt><trkpt lat="37.2766046" lon="9.8775898"><ele>2.833333333333333</ele><time>2026-05-03T17:51:50.906Z</time></trkpt><trkpt lat="37.2766843" lon="9.8775906"><ele>3.666666666666667</ele><time>2026-05-03T17:51:51.904Z</time></trkpt><trkpt lat="37.2767631" lon="9.87759"><ele>4.5</ele><time>2026-05-03T17:51:52.911Z</time></trkpt><trkpt lat="37.2768443" lon="9.8775848"><ele>5.333333333333334</ele><time>2026-05-03T17:51:53.902Z</time></trkpt><trkpt lat="37.2769359" lon="9.8775773"><ele>6.166666666666667</ele><time>2026-05-03T17:51:54.905Z</time></trkpt><trkpt lat="37.2770227" lon="9.8775577"><ele>7.0</ele><time>2026-05-03T17:51:55.92Z</time></trkpt><trkpt lat="37.2770998" lon="9.8775385"><ele>7.000000000000001</ele><time>2026-05-03T17:51:56.92Z</time></trkpt><trkpt lat="37.2771784" lon="9.877525"><ele>7.0</ele><time>2026-05-03T17:51:57.907Z</time></trkpt><trkpt lat="37.2772578" lon="9.8775104"><ele>7.0</ele><time>2026-05-03T17:51:58.912Z</time></trkpt><trkpt lat="37.2773308" lon="9.8775038"><ele>7.0</ele><time>2026-05-03T17:51:59.925Z</time></trkpt><trkpt lat="37.277394" lon="9.8774935"><ele>7.000000000000001</ele><time>2026-05-03T17:52:00.935Z</time></trkpt><trkpt lat="37.2774997" lon="9.8774776"><ele>7.0</ele><time>2026-05-03T17:52:02.911Z</time></trkpt><trkpt lat="37.2776168" lon="9.8774634"><ele>6.428571428571429</ele><time>2026-05-03T17:52:04.895Z</time></trkpt><trkpt lat="37.2776801" lon="9.877448"><ele>5.857142857142857</ele><time>2026-05-03T17:52:05.924Z</time></trkpt><trkpt lat="37.2777424" lon="9.8774321"><ele>5.285714285714286</ele><time>2026-05-03T17:52:06.931Z</time></trkpt><trkpt lat="37.2778117" lon="9.8774162"><ele>4.714285714285714</ele><time>2026-05-03T17:52:07.933Z</time></trkpt><trkpt lat="37.277884" lon="9.8774102"><ele>4.142857142857142</ele><time>2026-05-03T17:52:08.917Z</time></trkpt><trkpt lat="37.2779531" lon="9.8773979"><ele>3.571428571428571</ele><time>2026-05-03T17:52:09.917Z</time></trkpt><trkpt lat="37.2780156" lon="9.8773862"><ele>3.0</ele><time>2026-05-03T17:52:10.932Z</time></trkpt><trkpt lat="37.2781009" lon="9.8773784"><ele>2.8333333333333335</ele><time>2026-05-03T17:52:11.914Z</time></trkpt><trkpt lat="37.2781893" lon="9.8773744"><ele>2.6666666666666665</ele><time>2026-05-03T17:52:12.918Z</time></trkpt><trkpt lat="37.2782734" lon="9.8773647"><ele>2.5</ele><time>2026-05-03T17:52:13.916Z</time></trkpt><trkpt lat="37.2783544" lon="9.8773623"><ele>2.333333333333333</ele><time>2026-05-03T17:52:14.902Z</time></trkpt><trkpt lat="37.2784224" lon="9.8773528"><ele>2.1666666666666665</ele><time>2026-05-03T17:52:15.932Z</time></trkpt><trkpt lat="37.2784959" lon="9.8773415"><ele>2.0</ele><time>2026-05-03T17:52:16.915Z</time></trkpt><trkpt lat="37.2785744" lon="9.8773388"><ele>2.0</ele><time>2026-05-03T17:52:17.908Z</time></trkpt><trkpt lat="37.2786544" lon="9.8773273"><ele>2.0</ele><time>2026-05-03T17:52:18.924Z</time></trkpt><trkpt lat="37.2787284" lon="9.8773213"><ele>2.0</ele><time>2026-05-03T17:52:19.915Z</time></trkpt><trkpt lat="37.2787962" lon="9.8773125"><ele>2.0</ele><time>2026-05-03T17:52:20.915Z</time></trkpt><trkpt lat="37.2789205" lon="9.8773013"><ele>2.0</ele><time>2026-05-03T17:52:22.92Z</time></trkpt><trkpt lat="37.2790315" lon="9.877289"><ele>2.2</ele><time>2026-05-03T17:52:24.916Z</time></trkpt><trkpt lat="37.2791537" lon="9.8772594"><ele>2.4000000000000004</ele><time>2026-05-03T17:52:26.93Z</time></trkpt><trkpt lat="37.279235" lon="9.8772528"><ele>2.5999999999999996</ele><time>2026-05-03T17:52:27.928Z</time></trkpt><trkpt lat="37.2793271" lon="9.8772449"><ele>2.8</ele><time>2026-05-03T17:52:28.916Z</time></trkpt><trkpt lat="37.2794424" lon="9.8772412"><ele>3.0</ele><time>2026-05-03T17:52:29.925Z</time></trkpt><trkpt lat="37.2795683" lon="9.8772358"><ele>3.0</ele><time>2026-05-03T17:52:30.906Z</time></trkpt><trkpt lat="37.2796725" lon="9.8772265"><ele>3.0</ele><time>2026-05-03T17:52:31.923Z</time></trkpt><trkpt lat="37.2797578" lon="9.8772144"><ele>3.0</ele><time>2026-05-03T17:52:32.918Z</time></trkpt><trkpt lat="37.2798368" lon="9.8772183"><ele>3.0</ele><time>2026-05-03T17:52:33.928Z</time></trkpt><trkpt lat="37.2799232" lon="9.8772179"><ele>3.0</ele><time>2026-05-03T17:52:34.921Z</time></trkpt><trkpt lat="37.2800031" lon="9.8772189"><ele>3.0</ele><time>2026-05-03T17:52:35.925Z</time></trkpt><trkpt lat="37.2800775" lon="9.8772117"><ele>3.0</ele><time>2026-05-03T17:52:36.92Z</time></trkpt><trkpt lat="37.2801845" lon="9.8771979"><ele>3.0</ele><time>2026-05-03T17:52:38.92Z</time></trkpt><trkpt lat="37.280287" lon="9.877165"><ele>3.0</ele><time>2026-05-03T17:52:40.928Z</time></trkpt><trkpt lat="37.2803952" lon="9.8771428"><ele>3.0</ele><time>2026-05-03T17:52:42.914Z</time></trkpt><trkpt lat="37.2805172" lon="9.8771118"><ele>3.0</ele><time>2026-05-03T17:52:44.922Z</time></trkpt><trkpt lat="37.2805906" lon="9.8771022"><ele>3.0</ele><time>2026-05-03T17:52:45.92Z</time></trkpt><trkpt lat="37.2806741" lon="9.8770859"><ele>3.0</ele><time>2026-05-03T17:52:46.9Z</time></trkpt><trkpt lat="37.2807589" lon="9.8770765"><ele>3.0</ele><time>2026-05-03T17:52:47.92Z</time></trkpt><trkpt lat="37.2808352" lon="9.8770675"><ele>3.0</ele><time>2026-05-03T17:52:48.922Z</time></trkpt><trkpt lat="37.2809194" lon="9.8770607"><ele>3.0</ele><time>2026-05-03T17:52:49.918Z</time></trkpt><trkpt lat="37.2810078" lon="9.8770486"><ele>3.0</ele><time>2026-05-03T17:52:50.919Z</time></trkpt><trkpt lat="37.2811068" lon="9.8770383"><ele>3.0</ele><time>2026-05-03T17:52:51.925Z</time></trkpt><trkpt lat="37.2812033" lon="9.8770239"><ele>3.0</ele><time>2026-05-03T17:52:52.914Z</time></trkpt><trkpt lat="37.2813049" lon="9.8770143"><ele>3.0</ele><time>2026-05-03T17:52:53.914Z</time></trkpt><trkpt lat="37.2813991" lon="9.8770052"><ele>3.0</ele><time>2026-05-03T17:52:54.898Z</time></trkpt><trkpt lat="37.2815016" lon="9.8769956"><ele>3.0</ele><time>2026-05-03T17:52:55.913Z</time></trkpt><trkpt lat="37.2815923" lon="9.8769884"><ele>2.6</ele><time>2026-05-03T17:52:56.911Z</time></trkpt><trkpt lat="37.2816822" lon="9.8769799"><ele>2.1999999999999997</ele><time>2026-05-03T17:52:57.923Z</time></trkpt><trkpt lat="37.2817768" lon="9.8769676"><ele>1.8</ele><time>2026-05-03T17:52:58.927Z</time></trkpt><trkpt lat="37.2818763" lon="9.8769599"><ele>1.4</ele><time>2026-05-03T17:52:59.905Z</time></trkpt><trkpt lat="37.2819863" lon="9.8769444"><ele>1.0</ele><time>2026-05-03T17:53:00.925Z</time></trkpt><trkpt lat="37.2820897" lon="9.8769164"><ele>1.0</ele><time>2026-05-03T17:53:01.931Z</time></trkpt><trkpt lat="37.2821863" lon="9.8768746"><ele>1.0</ele><time>2026-05-03T17:53:02.923Z</time></trkpt><trkpt lat="37.2822788" lon="9.876828"><ele>1.0</ele><time>2026-05-03T17:53:03.9Z</time></trkpt><trkpt lat="37.2823664" lon="9.876763"><ele>1.0</ele><time>2026-05-03T17:53:04.924Z</time></trkpt><trkpt lat="37.2824431" lon="9.8766968"><ele>1.0</ele><time>2026-05-03T17:53:05.917Z</time></trkpt><trkpt lat="37.2825332" lon="9.8765904"><ele>1.25</ele><time>2026-05-03T17:53:06.917Z</time></trkpt><trkpt lat="37.2826468" lon="9.8764605"><ele>1.5</ele><time>2026-05-03T17:53:07.916Z</time></trkpt><trkpt lat="37.282759" lon="9.8763331"><ele>1.75</ele><time>2026-05-03T17:53:08.924Z</time></trkpt><trkpt lat="37.2828528" lon="9.8762171"><ele>2.0</ele><time>2026-05-03T17:53:09.892Z</time></trkpt><trkpt lat="37.282941" lon="9.8760982"><ele>2.0</ele><time>2026-05-03T17:53:10.92Z</time></trkpt><trkpt lat="37.283011" lon="9.8759834"><ele>2.0</ele><time>2026-05-03T17:53:11.91Z</time></trkpt><trkpt lat="37.2830772" lon="9.875875"><ele>2.0</ele><time>2026-05-03T17:53:12.915Z</time></trkpt><trkpt lat="37.2831381" lon="9.8757555"><ele>2.0</ele><time>2026-05-03T17:53:13.889Z</time></trkpt><trkpt lat="37.2832079" lon="9.8756212"><ele>2.0</ele><time>2026-05-03T17:53:14.918Z</time></trkpt><trkpt lat="37.2832731" lon="9.8754617"><ele>2.0</ele><time>2026-05-03T17:53:15.896Z</time></trkpt><trkpt lat="37.2833552" lon="9.875287"><ele>2.0</ele><time>2026-05-03T17:53:16.916Z</time></trkpt><trkpt lat="37.2834339" lon="9.8751014"><ele>2.0</ele><time>2026-05-03T17:53:17.924Z</time></trkpt><trkpt lat="37.2835193" lon="9.8749065"><ele>2.0</ele><time>2026-05-03T17:53:18.913Z</time></trkpt><trkpt lat="37.2836056" lon="9.874717"><ele>2.0</ele><time>2026-05-03T17:53:19.922Z</time></trkpt><trkpt lat="37.2836853" lon="9.8745485"><ele>2.0</ele><time>2026-05-03T17:53:20.933Z</time></trkpt><trkpt lat="37.2837597" lon="9.8743934"><ele>2.0</ele><time>2026-05-03T17:53:21.92Z</time></trkpt><trkpt lat="37.2838268" lon="9.8742533"><ele>2.0</ele><time>2026-05-03T17:53:22.912Z</time></trkpt><trkpt lat="37.283878" lon="9.8741196"><ele>2.0</ele><time>2026-05-03T17:53:23.912Z</time></trkpt><trkpt lat="37.2839378" lon="9.8739954"><ele>2.75</ele><time>2026-05-03T17:53:24.906Z</time></trkpt><trkpt lat="37.2840016" lon="9.8738731"><ele>3.5</ele><time>2026-05-03T17:53:25.927Z</time></trkpt><trkpt lat="37.2840707" lon="9.8737564"><ele>4.25</ele><time>2026-05-03T17:53:26.927Z</time></trkpt><trkpt lat="37.2841425" lon="9.8736545"><ele>5.0</ele><time>2026-05-03T17:53:27.931Z</time></trkpt><trkpt lat="37.2842148" lon="9.8735448"><ele>5.0</ele><time>2026-05-03T17:53:28.905Z</time></trkpt><trkpt lat="37.2842834" lon="9.87344"><ele>5.0</ele><time>2026-05-03T17:53:29.903Z</time></trkpt><trkpt lat="37.2843515" lon="9.8733582"><ele>5.0</ele><time>2026-05-03T17:53:30.913Z</time></trkpt><trkpt lat="37.2844172" lon="9.8732857"><ele>5.0</ele><time>2026-05-03T17:53:31.913Z</time></trkpt><trkpt lat="37.2844747" lon="9.8732214"><ele>5.0</ele><time>2026-05-03T17:53:32.916Z</time></trkpt><trkpt lat="37.2845347" lon="9.873159"><ele>5.0</ele><time>2026-05-03T17:53:33.92Z</time></trkpt><trkpt lat="37.2845981" lon="9.8730968"><ele>4.6</ele><time>2026-05-03T17:53:34.928Z</time></trkpt><trkpt lat="37.2846588" lon="9.8730287"><ele>4.2</ele><time>2026-05-03T17:53:35.894Z</time></trkpt><trkpt lat="37.284724" lon="9.8729691"><ele>3.8</ele><time>2026-05-03T17:53:36.914Z</time></trkpt><trkpt lat="37.284796" lon="9.8729058"><ele>3.4</ele><time>2026-05-03T17:53:37.927Z</time></trkpt><trkpt lat="37.2848774" lon="9.8728365"><ele>3.0</ele><time>2026-05-03T17:53:38.931Z</time></trkpt><trkpt lat="37.2849622" lon="9.8727518"><ele>3.0</ele><time>2026-05-03T17:53:39.913Z</time></trkpt><trkpt lat="37.2850449" lon="9.8726702"><ele>3.0</ele><time>2026-05-03T17:53:40.923Z</time></trkpt><trkpt lat="37.2851313" lon="9.8725846"><ele>3.0</ele><time>2026-05-03T17:53:41.894Z</time></trkpt><trkpt lat="37.2852207" lon="9.87249"><ele>3.0</ele><time>2026-05-03T17:53:42.901Z</time></trkpt><trkpt lat="37.2853184" lon="9.8724016"><ele>3.1666666666666665</ele><time>2026-05-03T17:53:43.916Z</time></trkpt><trkpt lat="37.2854071" lon="9.872322"><ele>3.333333333333333</ele><time>2026-05-03T17:53:44.92Z</time></trkpt><trkpt lat="37.2854882" lon="9.8722589"><ele>3.5</ele><time>2026-05-03T17:53:45.922Z</time></trkpt><trkpt lat="37.285559" lon="9.872202"><ele>3.6666666666666665</ele><time>2026-05-03T17:53:46.92Z</time></trkpt><trkpt lat="37.2856288" lon="9.8721522"><ele>3.833333333333333</ele><time>2026-05-03T17:53:47.943Z</time></trkpt><trkpt lat="37.2856906" lon="9.8721009"><ele>4.0</ele><time>2026-05-03T17:53:48.892Z</time></trkpt><trkpt lat="37.2857444" lon="9.8720552"><ele>4.666666666666666</ele><time>2026-05-03T17:53:49.922Z</time></trkpt><trkpt lat="37.2857966" lon="9.8720078"><ele>5.333333333333333</ele><time>2026-05-03T17:53:50.925Z</time></trkpt><trkpt lat="37.2858896" lon="9.8719371"><ele>6.0</ele><time>2026-05-03T17:53:52.907Z</time></trkpt><trkpt lat="37.2859604" lon="9.871934"><ele>6.666666666666666</ele><time>2026-05-03T17:53:54.891Z</time></trkpt><trkpt lat="37.2860193" lon="9.8720154"><ele>7.333333333333333</ele><time>2026-05-03T17:53:56.907Z</time></trkpt><trkpt lat="37.2860841" lon="9.8720984"><ele>8.0</ele><time>2026-05-03T17:53:58.913Z</time></trkpt><trkpt lat="37.2861689" lon="9.8721586"><ele>7.999999999999999</ele><time>2026-05-03T17:54:00.902Z</time></trkpt><trkpt lat="37.2862533" lon="9.8722185"><ele>8.0</ele><time>2026-05-03T17:54:02.925Z</time></trkpt><trkpt lat="37.2863599" lon="9.8722935"><ele>8.0</ele><time>2026-05-03T17:54:04.92Z</time></trkpt><trkpt lat="37.2864165" lon="9.8723313"><ele>8.0</ele><time>2026-05-03T17:54:05.902Z</time></trkpt><trkpt lat="37.2864841" lon="9.8723607"><ele>7.999999999999999</ele><time>2026-05-03T17:54:06.93Z</time></trkpt><trkpt lat="37.2865583" lon="9.8724021"><ele>8.0</ele><time>2026-05-03T17:54:07.908Z</time></trkpt><trkpt lat="37.2866323" lon="9.8724372"><ele>7.666666666666666</ele><time>2026-05-03T17:54:08.919Z</time></trkpt><trkpt lat="37.286703" lon="9.8724728"><ele>7.333333333333333</ele><time>2026-05-03T17:54:09.931Z</time></trkpt><trkpt lat="37.2867652" lon="9.872491"><ele>7.0</ele><time>2026-05-03T17:54:10.913Z</time></trkpt><trkpt lat="37.2868274" lon="9.8725064"><ele>6.666666666666666</ele><time>2026-05-03T17:54:11.9Z</time></trkpt><trkpt lat="37.2869286" lon="9.8725139"><ele>6.333333333333333</ele><time>2026-05-03T17:54:13.918Z</time></trkpt><trkpt lat="37.2869938" lon="9.8725429"><ele>6.0</ele><time>2026-05-03T17:54:15.909Z</time></trkpt><trkpt lat="37.2870408" lon="9.8726355"><ele>4.0</ele><time>2026-05-03T17:54:18.911Z</time></trkpt><trkpt lat="37.2870211" lon="9.8727441"><ele>4.0</ele><time>2026-05-03T17:54:21.905Z</time></trkpt><trkpt lat="37.2870253" lon="9.8728289"><ele>4.0</ele><time>2026-05-03T17:54:33.922Z</time></trkpt><trkpt lat="37.2870181" lon="9.8729241"><ele>4.0</ele><time>2026-05-03T17:54:37.924Z</time></trkpt><trkpt lat="37.2870862" lon="9.8729791"><ele>4.0</ele><time>2026-05-03T17:55:10.902Z</time></trkpt></trkseg></trk></gpx>